<?xml version="1.0" encoding="UTF-8" standalone="no" ?>
<gpx xmlns="http://www.topografix.com/GPX/1/1" xmlns:xsi="http://www.w3.org/2001/XMLSchema-instance" xsi:schemaLocation="http://www.topografix.com/GPX/1/1 http://www.topografix.com/GPX/1/1/gpx.xsd" version="1.1" creator="VisuGPX - https://www.visugpx.com">
  <metadata>
    <name>les chemins du soleil Digne Nice</name>
    <desc><![CDATA[séjour itinérant sur 6 jour]]></desc>
  </metadata>
  <trk>
    <name><![CDATA[2013-05-31 CHEMIN DU SOLEIL]]></name>
    <trkseg>
      <trkpt lat="44.09063" lon="6.23392">
        <ele>603.85</ele>
        <time>2013-05-26T07:38:15Z</time>
      </trkpt>
      <trkpt lat="44.09063" lon="6.23389">
        <ele>603.36</ele>
        <time>2013-05-26T07:40:28Z</time>
      </trkpt>
      <trkpt lat="44.09063" lon="6.23387">
        <ele>603.85</ele>
        <time>2013-05-26T07:41:47Z</time>
      </trkpt>
      <trkpt lat="44.09053" lon="6.23403">
        <ele>604.33</ele>
        <time>2013-05-26T07:42:01Z</time>
      </trkpt>
      <trkpt lat="44.09053" lon="6.23461">
        <ele>605.29</ele>
        <time>2013-05-26T07:42:25Z</time>
      </trkpt>
      <trkpt lat="44.09039" lon="6.23584">
        <ele>607.21</ele>
        <time>2013-05-26T07:42:52Z</time>
      </trkpt>
      <trkpt lat="44.09008" lon="6.23719">
        <ele>608.65</ele>
        <time>2013-05-26T07:43:22Z</time>
      </trkpt>
      <trkpt lat="44.08985" lon="6.23829">
        <ele>608.65</ele>
        <time>2013-05-26T07:43:41Z</time>
      </trkpt>
      <trkpt lat="44.0898" lon="6.24031">
        <ele>611.54</ele>
        <time>2013-05-26T07:44:20Z</time>
      </trkpt>
      <trkpt lat="44.0903" lon="6.24138">
        <ele>612.98</ele>
        <time>2013-05-26T07:44:45Z</time>
      </trkpt>
      <trkpt lat="44.09024" lon="6.2413">
        <ele>612.98</ele>
        <time>2013-05-26T07:44:57Z</time>
      </trkpt>
      <trkpt lat="44.09062" lon="6.24205">
        <ele>613.94</ele>
        <time>2013-05-26T07:45:18Z</time>
      </trkpt>
      <trkpt lat="44.09115" lon="6.24307">
        <ele>615.38</ele>
        <time>2013-05-26T07:45:43Z</time>
      </trkpt>
      <trkpt lat="44.09104" lon="6.24428">
        <ele>619.71</ele>
        <time>2013-05-26T07:46:10Z</time>
      </trkpt>
      <trkpt lat="44.09071" lon="6.24497">
        <ele>618.26</ele>
        <time>2013-05-26T07:46:22Z</time>
      </trkpt>
      <trkpt lat="44.09073" lon="6.2455">
        <ele>617.78</ele>
        <time>2013-05-26T07:46:29Z</time>
      </trkpt>
      <trkpt lat="44.09029" lon="6.24662">
        <ele>619.23</ele>
        <time>2013-05-26T07:46:49Z</time>
      </trkpt>
      <trkpt lat="44.08987" lon="6.24794">
        <ele>621.15</ele>
        <time>2013-05-26T07:47:15Z</time>
      </trkpt>
      <trkpt lat="44.08987" lon="6.24805">
        <ele>621.15</ele>
        <time>2013-05-26T07:47:17Z</time>
      </trkpt>
      <trkpt lat="44.08964" lon="6.24883">
        <ele>622.59</ele>
        <time>2013-05-26T07:47:34Z</time>
      </trkpt>
      <trkpt lat="44.08856" lon="6.2494">
        <ele>624.99</ele>
        <time>2013-05-26T07:48:02Z</time>
      </trkpt>
      <trkpt lat="44.08762" lon="6.24989">
        <ele>629.8</ele>
        <time>2013-05-26T07:48:32Z</time>
      </trkpt>
      <trkpt lat="44.08732" lon="6.25035">
        <ele>630.76</ele>
        <time>2013-05-26T07:48:51Z</time>
      </trkpt>
      <trkpt lat="44.0873" lon="6.25036">
        <ele>630.76</ele>
        <time>2013-05-26T07:50:02Z</time>
      </trkpt>
      <trkpt lat="44.08733" lon="6.25034">
        <ele>630.28</ele>
        <time>2013-05-26T07:51:26Z</time>
      </trkpt>
      <trkpt lat="44.08658" lon="6.24996">
        <ele>630.28</ele>
        <time>2013-05-26T07:51:54Z</time>
      </trkpt>
      <trkpt lat="44.08531" lon="6.25011">
        <ele>633.65</ele>
        <time>2013-05-26T07:52:39Z</time>
      </trkpt>
      <trkpt lat="44.08473" lon="6.25099">
        <ele>636.05</ele>
        <time>2013-05-26T07:53:14Z</time>
      </trkpt>
      <trkpt lat="44.0845" lon="6.25187">
        <ele>637.01</ele>
        <time>2013-05-26T07:53:39Z</time>
      </trkpt>
      <trkpt lat="44.08436" lon="6.25278">
        <ele>640.38</ele>
        <time>2013-05-26T07:54:08Z</time>
      </trkpt>
      <trkpt lat="44.08403" lon="6.25258">
        <ele>639.41</ele>
        <time>2013-05-26T07:54:35Z</time>
      </trkpt>
      <trkpt lat="44.0835" lon="6.25174">
        <ele>639.89</ele>
        <time>2013-05-26T07:54:41Z</time>
      </trkpt>
      <trkpt lat="44.08343" lon="6.25173">
        <ele>639.41</ele>
        <time>2013-05-26T07:54:43Z</time>
      </trkpt>
      <trkpt lat="44.08351" lon="6.25325">
        <ele>639.41</ele>
        <time>2013-05-26T07:54:59Z</time>
      </trkpt>
      <trkpt lat="44.08311" lon="6.25363">
        <ele>641.34</ele>
        <time>2013-05-26T07:55:12Z</time>
      </trkpt>
      <trkpt lat="44.08278" lon="6.25404">
        <ele>642.3</ele>
        <time>2013-05-26T07:55:25Z</time>
      </trkpt>
      <trkpt lat="44.08259" lon="6.25427">
        <ele>643.26</ele>
        <time>2013-05-26T07:55:32Z</time>
      </trkpt>
      <trkpt lat="44.08205" lon="6.25454">
        <ele>644.22</ele>
        <time>2013-05-26T07:55:46Z</time>
      </trkpt>
      <trkpt lat="44.08183" lon="6.25501">
        <ele>645.66</ele>
        <time>2013-05-26T07:55:58Z</time>
      </trkpt>
      <trkpt lat="44.08179" lon="6.25498">
        <ele>646.14</ele>
        <time>2013-05-26T07:55:59Z</time>
      </trkpt>
      <trkpt lat="44.08143" lon="6.25459">
        <ele>647.1</ele>
        <time>2013-05-26T07:56:15Z</time>
      </trkpt>
      <trkpt lat="44.08127" lon="6.25472">
        <ele>647.1</ele>
        <time>2013-05-26T07:56:39Z</time>
      </trkpt>
      <trkpt lat="44.08075" lon="6.25544">
        <ele>650.95</ele>
        <time>2013-05-26T07:57:11Z</time>
      </trkpt>
      <trkpt lat="44.08073" lon="6.25546">
        <ele>650.95</ele>
        <time>2013-05-26T07:57:12Z</time>
      </trkpt>
      <trkpt lat="44.08034" lon="6.25634">
        <ele>653.35</ele>
        <time>2013-05-26T07:57:41Z</time>
      </trkpt>
      <trkpt lat="44.07992" lon="6.25764">
        <ele>653.83</ele>
        <time>2013-05-26T07:58:18Z</time>
      </trkpt>
      <trkpt lat="44.08005" lon="6.25893">
        <ele>651.43</ele>
        <time>2013-05-26T07:58:53Z</time>
      </trkpt>
      <trkpt lat="44.08012" lon="6.25936">
        <ele>651.91</ele>
        <time>2013-05-26T07:59:05Z</time>
      </trkpt>
      <trkpt lat="44.07998" lon="6.25965">
        <ele>651.43</ele>
        <time>2013-05-26T07:59:13Z</time>
      </trkpt>
      <trkpt lat="44.07978" lon="6.26001">
        <ele>652.39</ele>
        <time>2013-05-26T07:59:23Z</time>
      </trkpt>
      <trkpt lat="44.0798" lon="6.2602">
        <ele>654.31</ele>
        <time>2013-05-26T07:59:35Z</time>
      </trkpt>
      <trkpt lat="44.07977" lon="6.26084">
        <ele>656.24</ele>
        <time>2013-05-26T08:00:02Z</time>
      </trkpt>
      <trkpt lat="44.07955" lon="6.26161">
        <ele>660.08</ele>
        <time>2013-05-26T08:00:28Z</time>
      </trkpt>
      <trkpt lat="44.07945" lon="6.26251">
        <ele>661.52</ele>
        <time>2013-05-26T08:00:52Z</time>
      </trkpt>
      <trkpt lat="44.0795" lon="6.26341">
        <ele>662.01</ele>
        <time>2013-05-26T08:01:43Z</time>
      </trkpt>
      <trkpt lat="44.07936" lon="6.26342">
        <ele>662.97</ele>
        <time>2013-05-26T08:01:56Z</time>
      </trkpt>
      <trkpt lat="44.07934" lon="6.2642">
        <ele>663.93</ele>
        <time>2013-05-26T08:02:14Z</time>
      </trkpt>
      <trkpt lat="44.07931" lon="6.26597">
        <ele>668.25</ele>
        <time>2013-05-26T08:02:51Z</time>
      </trkpt>
      <trkpt lat="44.07934" lon="6.26745">
        <ele>670.18</ele>
        <time>2013-05-26T08:03:26Z</time>
      </trkpt>
      <trkpt lat="44.07927" lon="6.26757">
        <ele>674.5</ele>
        <time>2013-05-26T08:03:41Z</time>
      </trkpt>
      <trkpt lat="44.07921" lon="6.26772">
        <ele>676.42</ele>
        <time>2013-05-26T08:03:56Z</time>
      </trkpt>
      <trkpt lat="44.079" lon="6.26794">
        <ele>675.46</ele>
        <time>2013-05-26T08:04:05Z</time>
      </trkpt>
      <trkpt lat="44.07868" lon="6.26849">
        <ele>674.98</ele>
        <time>2013-05-26T08:04:20Z</time>
      </trkpt>
      <trkpt lat="44.07877" lon="6.26895">
        <ele>675.46</ele>
        <time>2013-05-26T08:04:30Z</time>
      </trkpt>
      <trkpt lat="44.07865" lon="6.26912">
        <ele>674.5</ele>
        <time>2013-05-26T08:04:33Z</time>
      </trkpt>
      <trkpt lat="44.07799" lon="6.26962">
        <ele>675.94</ele>
        <time>2013-05-26T08:04:52Z</time>
      </trkpt>
      <trkpt lat="44.07772" lon="6.26982">
        <ele>680.75</ele>
        <time>2013-05-26T08:05:08Z</time>
      </trkpt>
      <trkpt lat="44.0777" lon="6.26987">
        <ele>680.75</ele>
        <time>2013-05-26T08:05:11Z</time>
      </trkpt>
      <trkpt lat="44.07762" lon="6.27006">
        <ele>684.12</ele>
        <time>2013-05-26T08:05:31Z</time>
      </trkpt>
      <trkpt lat="44.07751" lon="6.27025">
        <ele>688.44</ele>
        <time>2013-05-26T08:05:52Z</time>
      </trkpt>
      <trkpt lat="44.07739" lon="6.2704">
        <ele>693.73</ele>
        <time>2013-05-26T08:06:19Z</time>
      </trkpt>
      <trkpt lat="44.07736" lon="6.27041">
        <ele>695.17</ele>
        <time>2013-05-26T08:06:25Z</time>
      </trkpt>
      <trkpt lat="44.0773" lon="6.27039">
        <ele>695.17</ele>
        <time>2013-05-26T08:06:31Z</time>
      </trkpt>
      <trkpt lat="44.07718" lon="6.27072">
        <ele>696.61</ele>
        <time>2013-05-26T08:06:46Z</time>
      </trkpt>
      <trkpt lat="44.07718" lon="6.26972">
        <ele>698.05</ele>
        <time>2013-05-26T08:07:07Z</time>
      </trkpt>
      <trkpt lat="44.07716" lon="6.26961">
        <ele>698.05</ele>
        <time>2013-05-26T08:07:11Z</time>
      </trkpt>
      <trkpt lat="44.07693" lon="6.26941">
        <ele>699.02</ele>
        <time>2013-05-26T08:07:38Z</time>
      </trkpt>
      <trkpt lat="44.07693" lon="6.26941">
        <ele>699.02</ele>
        <time>2013-05-26T08:07:42Z</time>
      </trkpt>
      <trkpt lat="44.07656" lon="6.26893">
        <ele>701.9</ele>
        <time>2013-05-26T08:08:04Z</time>
      </trkpt>
      <trkpt lat="44.07623" lon="6.26904">
        <ele>704.78</ele>
        <time>2013-05-26T08:08:23Z</time>
      </trkpt>
      <trkpt lat="44.07617" lon="6.26941">
        <ele>707.67</ele>
        <time>2013-05-26T08:08:39Z</time>
      </trkpt>
      <trkpt lat="44.07616" lon="6.26947">
        <ele>708.15</ele>
        <time>2013-05-26T08:09:14Z</time>
      </trkpt>
      <trkpt lat="44.07615" lon="6.26949">
        <ele>707.67</ele>
        <time>2013-05-26T08:09:16Z</time>
      </trkpt>
      <trkpt lat="44.07586" lon="6.26983">
        <ele>711.51</ele>
        <time>2013-05-26T08:09:42Z</time>
      </trkpt>
      <trkpt lat="44.07581" lon="6.2699">
        <ele>711.51</ele>
        <time>2013-05-26T08:09:59Z</time>
      </trkpt>
      <trkpt lat="44.07582" lon="6.26985">
        <ele>711.03</ele>
        <time>2013-05-26T08:10:33Z</time>
      </trkpt>
      <trkpt lat="44.07604" lon="6.26958">
        <ele>707.67</ele>
        <time>2013-05-26T08:10:46Z</time>
      </trkpt>
      <trkpt lat="44.07598" lon="6.26954">
        <ele>704.78</ele>
        <time>2013-05-26T08:10:52Z</time>
      </trkpt>
      <trkpt lat="44.0758" lon="6.26958">
        <ele>701.42</ele>
        <time>2013-05-26T08:10:57Z</time>
      </trkpt>
      <trkpt lat="44.07566" lon="6.26966">
        <ele>697.57</ele>
        <time>2013-05-26T08:11:14Z</time>
      </trkpt>
      <trkpt lat="44.07549" lon="6.27012">
        <ele>692.77</ele>
        <time>2013-05-26T08:11:28Z</time>
      </trkpt>
      <trkpt lat="44.07512" lon="6.27093">
        <ele>688.92</ele>
        <time>2013-05-26T08:11:46Z</time>
      </trkpt>
      <trkpt lat="44.07504" lon="6.27095">
        <ele>688.92</ele>
        <time>2013-05-26T08:11:47Z</time>
      </trkpt>
      <trkpt lat="44.07469" lon="6.27086">
        <ele>687.96</ele>
        <time>2013-05-26T08:11:52Z</time>
      </trkpt>
      <trkpt lat="44.074" lon="6.271">
        <ele>688.44</ele>
        <time>2013-05-26T08:12:04Z</time>
      </trkpt>
      <trkpt lat="44.07291" lon="6.2713">
        <ele>691.81</ele>
        <time>2013-05-26T08:12:26Z</time>
      </trkpt>
      <trkpt lat="44.07237" lon="6.27141">
        <ele>692.29</ele>
        <time>2013-05-26T08:12:39Z</time>
      </trkpt>
      <trkpt lat="44.07217" lon="6.27184">
        <ele>693.25</ele>
        <time>2013-05-26T08:12:46Z</time>
      </trkpt>
      <trkpt lat="44.07131" lon="6.27249">
        <ele>694.69</ele>
        <time>2013-05-26T08:13:07Z</time>
      </trkpt>
      <trkpt lat="44.07094" lon="6.27239">
        <ele>695.17</ele>
        <time>2013-05-26T08:13:17Z</time>
      </trkpt>
      <trkpt lat="44.07087" lon="6.27237">
        <ele>695.17</ele>
        <time>2013-05-26T08:13:19Z</time>
      </trkpt>
      <trkpt lat="44.07073" lon="6.27209">
        <ele>694.69</ele>
        <time>2013-05-26T08:13:25Z</time>
      </trkpt>
      <trkpt lat="44.07066" lon="6.27148">
        <ele>694.21</ele>
        <time>2013-05-26T08:13:47Z</time>
      </trkpt>
      <trkpt lat="44.07101" lon="6.27126">
        <ele>697.09</ele>
        <time>2013-05-26T08:14:05Z</time>
      </trkpt>
      <trkpt lat="44.07122" lon="6.27084">
        <ele>700.46</ele>
        <time>2013-05-26T08:14:22Z</time>
      </trkpt>
      <trkpt lat="44.0714" lon="6.2705">
        <ele>703.82</ele>
        <time>2013-05-26T08:14:37Z</time>
      </trkpt>
      <trkpt lat="44.07194" lon="6.26989">
        <ele>709.59</ele>
        <time>2013-05-26T08:15:10Z</time>
      </trkpt>
      <trkpt lat="44.07245" lon="6.26969">
        <ele>715.84</ele>
        <time>2013-05-26T08:15:36Z</time>
      </trkpt>
      <trkpt lat="44.07274" lon="6.26955">
        <ele>719.2</ele>
        <time>2013-05-26T08:15:53Z</time>
      </trkpt>
      <trkpt lat="44.07281" lon="6.26931">
        <ele>722.57</ele>
        <time>2013-05-26T08:16:06Z</time>
      </trkpt>
      <trkpt lat="44.07311" lon="6.26912">
        <ele>728.34</ele>
        <time>2013-05-26T08:16:30Z</time>
      </trkpt>
      <trkpt lat="44.07339" lon="6.26908">
        <ele>732.18</ele>
        <time>2013-05-26T08:16:47Z</time>
      </trkpt>
      <trkpt lat="44.07363" lon="6.26894">
        <ele>735.07</ele>
        <time>2013-05-26T08:17:02Z</time>
      </trkpt>
      <trkpt lat="44.07391" lon="6.26876">
        <ele>738.43</ele>
        <time>2013-05-26T08:17:20Z</time>
      </trkpt>
      <trkpt lat="44.07421" lon="6.26856">
        <ele>741.79</ele>
        <time>2013-05-26T08:17:38Z</time>
      </trkpt>
      <trkpt lat="44.0746" lon="6.26809">
        <ele>748.04</ele>
        <time>2013-05-26T08:18:09Z</time>
      </trkpt>
      <trkpt lat="44.07459" lon="6.26763">
        <ele>752.37</ele>
        <time>2013-05-26T08:18:28Z</time>
      </trkpt>
      <trkpt lat="44.07445" lon="6.2669">
        <ele>757.66</ele>
        <time>2013-05-26T08:19:01Z</time>
      </trkpt>
      <trkpt lat="44.07466" lon="6.26697">
        <ele>760.06</ele>
        <time>2013-05-26T08:19:15Z</time>
      </trkpt>
      <trkpt lat="44.07486" lon="6.26707">
        <ele>763.42</ele>
        <time>2013-05-26T08:19:28Z</time>
      </trkpt>
      <trkpt lat="44.07506" lon="6.2669">
        <ele>766.31</ele>
        <time>2013-05-26T08:19:43Z</time>
      </trkpt>
      <trkpt lat="44.07525" lon="6.26675">
        <ele>769.67</ele>
        <time>2013-05-26T08:20:00Z</time>
      </trkpt>
      <trkpt lat="44.07561" lon="6.26659">
        <ele>774</ele>
        <time>2013-05-26T08:20:29Z</time>
      </trkpt>
      <trkpt lat="44.07534" lon="6.26657">
        <ele>778.81</ele>
        <time>2013-05-26T08:20:53Z</time>
      </trkpt>
      <trkpt lat="44.07503" lon="6.26661">
        <ele>782.65</ele>
        <time>2013-05-26T08:21:13Z</time>
      </trkpt>
      <trkpt lat="44.07484" lon="6.2665">
        <ele>785.05</ele>
        <time>2013-05-26T08:21:31Z</time>
      </trkpt>
      <trkpt lat="44.0753" lon="6.26605">
        <ele>790.34</ele>
        <time>2013-05-26T08:22:06Z</time>
      </trkpt>
      <trkpt lat="44.07526" lon="6.26555">
        <ele>790.34</ele>
        <time>2013-05-26T08:22:22Z</time>
      </trkpt>
      <trkpt lat="44.07488" lon="6.26506">
        <ele>786.5</ele>
        <time>2013-05-26T08:22:31Z</time>
      </trkpt>
      <trkpt lat="44.07483" lon="6.265">
        <ele>786.5</ele>
        <time>2013-05-26T08:22:32Z</time>
      </trkpt>
      <trkpt lat="44.07437" lon="6.26433">
        <ele>787.94</ele>
        <time>2013-05-26T08:22:46Z</time>
      </trkpt>
      <trkpt lat="44.07411" lon="6.26396">
        <ele>791.3</ele>
        <time>2013-05-26T08:23:03Z</time>
      </trkpt>
      <trkpt lat="44.07369" lon="6.26324">
        <ele>798.03</ele>
        <time>2013-05-26T08:23:36Z</time>
      </trkpt>
      <trkpt lat="44.07332" lon="6.26259">
        <ele>803.8</ele>
        <time>2013-05-26T08:24:12Z</time>
      </trkpt>
      <trkpt lat="44.07297" lon="6.26193">
        <ele>810.05</ele>
        <time>2013-05-26T08:24:48Z</time>
      </trkpt>
      <trkpt lat="44.07266" lon="6.26128">
        <ele>815.34</ele>
        <time>2013-05-26T08:25:23Z</time>
      </trkpt>
      <trkpt lat="44.07237" lon="6.26058">
        <ele>821.58</ele>
        <time>2013-05-26T08:26:00Z</time>
      </trkpt>
      <trkpt lat="44.07221" lon="6.25991">
        <ele>827.83</ele>
        <time>2013-05-26T08:26:32Z</time>
      </trkpt>
      <trkpt lat="44.07201" lon="6.25917">
        <ele>833.6</ele>
        <time>2013-05-26T08:27:07Z</time>
      </trkpt>
      <trkpt lat="44.07183" lon="6.25873">
        <ele>837.45</ele>
        <time>2013-05-26T08:27:29Z</time>
      </trkpt>
      <trkpt lat="44.07131" lon="6.2579">
        <ele>841.77</ele>
        <time>2013-05-26T08:28:06Z</time>
      </trkpt>
      <trkpt lat="44.0711" lon="6.25726">
        <ele>844.66</ele>
        <time>2013-05-26T08:28:27Z</time>
      </trkpt>
      <trkpt lat="44.0709" lon="6.25644">
        <ele>850.9</ele>
        <time>2013-05-26T08:29:00Z</time>
      </trkpt>
      <trkpt lat="44.07091" lon="6.25644">
        <ele>850.9</ele>
        <time>2013-05-26T08:29:01Z</time>
      </trkpt>
      <trkpt lat="44.07096" lon="6.25643">
        <ele>849.94</ele>
        <time>2013-05-26T08:29:18Z</time>
      </trkpt>
      <trkpt lat="44.07106" lon="6.25662">
        <ele>846.1</ele>
        <time>2013-05-26T08:29:27Z</time>
      </trkpt>
      <trkpt lat="44.07121" lon="6.25672">
        <ele>841.77</ele>
        <time>2013-05-26T08:29:33Z</time>
      </trkpt>
      <trkpt lat="44.0713" lon="6.25698">
        <ele>838.41</ele>
        <time>2013-05-26T08:29:41Z</time>
      </trkpt>
      <trkpt lat="44.07155" lon="6.25733">
        <ele>836.96</ele>
        <time>2013-05-26T08:29:53Z</time>
      </trkpt>
      <trkpt lat="44.07178" lon="6.25738">
        <ele>840.81</ele>
        <time>2013-05-26T08:30:07Z</time>
      </trkpt>
      <trkpt lat="44.07194" lon="6.25751">
        <ele>842.73</ele>
        <time>2013-05-26T08:30:19Z</time>
      </trkpt>
      <trkpt lat="44.07222" lon="6.25772">
        <ele>846.1</ele>
        <time>2013-05-26T08:30:38Z</time>
      </trkpt>
      <trkpt lat="44.07235" lon="6.25784">
        <ele>847.06</ele>
        <time>2013-05-26T08:30:48Z</time>
      </trkpt>
      <trkpt lat="44.07238" lon="6.25785">
        <ele>847.54</ele>
        <time>2013-05-26T08:30:50Z</time>
      </trkpt>
      <trkpt lat="44.0726" lon="6.2579">
        <ele>850.9</ele>
        <time>2013-05-26T08:31:04Z</time>
      </trkpt>
      <trkpt lat="44.07282" lon="6.25802">
        <ele>852.83</ele>
        <time>2013-05-26T08:31:22Z</time>
      </trkpt>
      <trkpt lat="44.07287" lon="6.25809">
        <ele>852.83</ele>
        <time>2013-05-26T08:31:25Z</time>
      </trkpt>
      <trkpt lat="44.07295" lon="6.25834">
        <ele>856.19</ele>
        <time>2013-05-26T08:31:42Z</time>
      </trkpt>
      <trkpt lat="44.07296" lon="6.2582">
        <ele>858.59</ele>
        <time>2013-05-26T08:32:04Z</time>
      </trkpt>
      <trkpt lat="44.07272" lon="6.25785">
        <ele>861.96</ele>
        <time>2013-05-26T08:32:29Z</time>
      </trkpt>
      <trkpt lat="44.07243" lon="6.25745">
        <ele>865.32</ele>
        <time>2013-05-26T08:32:54Z</time>
      </trkpt>
      <trkpt lat="44.07242" lon="6.25718">
        <ele>867.25</ele>
        <time>2013-05-26T08:33:07Z</time>
      </trkpt>
      <trkpt lat="44.07214" lon="6.25675">
        <ele>871.57</ele>
        <time>2013-05-26T08:33:34Z</time>
      </trkpt>
      <trkpt lat="44.07193" lon="6.25641">
        <ele>875.42</ele>
        <time>2013-05-26T08:33:55Z</time>
      </trkpt>
      <trkpt lat="44.07175" lon="6.25605">
        <ele>878.78</ele>
        <time>2013-05-26T08:34:16Z</time>
      </trkpt>
      <trkpt lat="44.0715" lon="6.25561">
        <ele>883.11</ele>
        <time>2013-05-26T08:34:43Z</time>
      </trkpt>
      <trkpt lat="44.07146" lon="6.25508">
        <ele>887.91</ele>
        <time>2013-05-26T08:35:12Z</time>
      </trkpt>
      <trkpt lat="44.07147" lon="6.25505">
        <ele>887.91</ele>
        <time>2013-05-26T08:35:14Z</time>
      </trkpt>
      <trkpt lat="44.07139" lon="6.25475">
        <ele>891.76</ele>
        <time>2013-05-26T08:35:31Z</time>
      </trkpt>
      <trkpt lat="44.07124" lon="6.25418">
        <ele>895.61</ele>
        <time>2013-05-26T08:36:02Z</time>
      </trkpt>
      <trkpt lat="44.0709" lon="6.25325">
        <ele>903.3</ele>
        <time>2013-05-26T08:36:52Z</time>
      </trkpt>
      <trkpt lat="44.07068" lon="6.25284">
        <ele>907.14</ele>
        <time>2013-05-26T08:37:17Z</time>
      </trkpt>
      <trkpt lat="44.07064" lon="6.2528">
        <ele>908.1</ele>
        <time>2013-05-26T08:37:20Z</time>
      </trkpt>
      <trkpt lat="44.07063" lon="6.25276">
        <ele>908.1</ele>
        <time>2013-05-26T08:37:23Z</time>
      </trkpt>
      <trkpt lat="44.07068" lon="6.25266">
        <ele>909.06</ele>
        <time>2013-05-26T08:37:30Z</time>
      </trkpt>
      <trkpt lat="44.07071" lon="6.25258">
        <ele>910.03</ele>
        <time>2013-05-26T08:37:34Z</time>
      </trkpt>
      <trkpt lat="44.07073" lon="6.25213">
        <ele>914.35</ele>
        <time>2013-05-26T08:37:58Z</time>
      </trkpt>
      <trkpt lat="44.0706" lon="6.25209">
        <ele>916.27</ele>
        <time>2013-05-26T08:38:12Z</time>
      </trkpt>
      <trkpt lat="44.07038" lon="6.25177">
        <ele>920.12</ele>
        <time>2013-05-26T08:38:42Z</time>
      </trkpt>
      <trkpt lat="44.07033" lon="6.25153">
        <ele>922.04</ele>
        <time>2013-05-26T08:38:56Z</time>
      </trkpt>
      <trkpt lat="44.07013" lon="6.25114">
        <ele>924.93</ele>
        <time>2013-05-26T08:39:18Z</time>
      </trkpt>
      <trkpt lat="44.0697" lon="6.25052">
        <ele>930.69</ele>
        <time>2013-05-26T08:39:53Z</time>
      </trkpt>
      <trkpt lat="44.06952" lon="6.25045">
        <ele>932.62</ele>
        <time>2013-05-26T08:40:23Z</time>
      </trkpt>
      <trkpt lat="44.06915" lon="6.25039">
        <ele>937.42</ele>
        <time>2013-05-26T08:40:51Z</time>
      </trkpt>
      <trkpt lat="44.06903" lon="6.25034">
        <ele>940.79</ele>
        <time>2013-05-26T08:41:24Z</time>
      </trkpt>
      <trkpt lat="44.06913" lon="6.25033">
        <ele>941.75</ele>
        <time>2013-05-26T08:41:32Z</time>
      </trkpt>
      <trkpt lat="44.0696" lon="6.25031">
        <ele>947.04</ele>
        <time>2013-05-26T08:42:13Z</time>
      </trkpt>
      <trkpt lat="44.06945" lon="6.25028">
        <ele>948.48</ele>
        <time>2013-05-26T08:42:26Z</time>
      </trkpt>
      <trkpt lat="44.06912" lon="6.25018">
        <ele>952.8</ele>
        <time>2013-05-26T08:42:50Z</time>
      </trkpt>
      <trkpt lat="44.06885" lon="6.25008">
        <ele>956.65</ele>
        <time>2013-05-26T08:43:09Z</time>
      </trkpt>
      <trkpt lat="44.06861" lon="6.25006">
        <ele>959.53</ele>
        <time>2013-05-26T08:43:48Z</time>
      </trkpt>
      <trkpt lat="44.06851" lon="6.25012">
        <ele>960.01</ele>
        <time>2013-05-26T08:44:13Z</time>
      </trkpt>
      <trkpt lat="44.06821" lon="6.25023">
        <ele>962.42</ele>
        <time>2013-05-26T08:44:35Z</time>
      </trkpt>
      <trkpt lat="44.06808" lon="6.24999">
        <ele>965.3</ele>
        <time>2013-05-26T08:44:55Z</time>
      </trkpt>
      <trkpt lat="44.06795" lon="6.2492">
        <ele>970.59</ele>
        <time>2013-05-26T08:45:33Z</time>
      </trkpt>
      <trkpt lat="44.06763" lon="6.24879">
        <ele>974.43</ele>
        <time>2013-05-26T08:46:02Z</time>
      </trkpt>
      <trkpt lat="44.06761" lon="6.24876">
        <ele>974.43</ele>
        <time>2013-05-26T08:46:04Z</time>
      </trkpt>
      <trkpt lat="44.06756" lon="6.2484">
        <ele>978.28</ele>
        <time>2013-05-26T08:46:32Z</time>
      </trkpt>
      <trkpt lat="44.06736" lon="6.24801">
        <ele>982.12</ele>
        <time>2013-05-26T08:47:19Z</time>
      </trkpt>
      <trkpt lat="44.06702" lon="6.24818">
        <ele>985.49</ele>
        <time>2013-05-26T08:47:43Z</time>
      </trkpt>
      <trkpt lat="44.06684" lon="6.24785">
        <ele>988.37</ele>
        <time>2013-05-26T08:48:01Z</time>
      </trkpt>
      <trkpt lat="44.06664" lon="6.24753">
        <ele>991.74</ele>
        <time>2013-05-26T08:48:22Z</time>
      </trkpt>
      <trkpt lat="44.0667" lon="6.24737">
        <ele>996.06</ele>
        <time>2013-05-26T08:48:52Z</time>
      </trkpt>
      <trkpt lat="44.06685" lon="6.24744">
        <ele>996.06</ele>
        <time>2013-05-26T08:49:01Z</time>
      </trkpt>
      <trkpt lat="44.06686" lon="6.24763">
        <ele>995.58</ele>
        <time>2013-05-26T08:49:57Z</time>
      </trkpt>
      <trkpt lat="44.06723" lon="6.24762">
        <ele>999.91</ele>
        <time>2013-05-26T08:50:54Z</time>
      </trkpt>
      <trkpt lat="44.06724" lon="6.2476">
        <ele>1000.39</ele>
        <time>2013-05-26T08:55:23Z</time>
      </trkpt>
      <trkpt lat="44.06726" lon="6.24758">
        <ele>1003.27</ele>
        <time>2013-05-26T08:55:57Z</time>
      </trkpt>
      <trkpt lat="44.06697" lon="6.2473">
        <ele>1008.08</ele>
        <time>2013-05-26T08:56:24Z</time>
      </trkpt>
      <trkpt lat="44.0668" lon="6.24708">
        <ele>1011.44</ele>
        <time>2013-05-26T08:56:45Z</time>
      </trkpt>
      <trkpt lat="44.06674" lon="6.24693">
        <ele>1014.81</ele>
        <time>2013-05-26T08:57:18Z</time>
      </trkpt>
      <trkpt lat="44.06676" lon="6.24692">
        <ele>1015.77</ele>
        <time>2013-05-26T08:57:23Z</time>
      </trkpt>
      <trkpt lat="44.0669" lon="6.2469">
        <ele>1019.13</ele>
        <time>2013-05-26T08:57:37Z</time>
      </trkpt>
      <trkpt lat="44.067" lon="6.24692">
        <ele>1022.5</ele>
        <time>2013-05-26T08:57:46Z</time>
      </trkpt>
      <trkpt lat="44.0669" lon="6.2468">
        <ele>1024.9</ele>
        <time>2013-05-26T08:58:12Z</time>
      </trkpt>
      <trkpt lat="44.06681" lon="6.24676">
        <ele>1026.34</ele>
        <time>2013-05-26T08:58:22Z</time>
      </trkpt>
      <trkpt lat="44.06659" lon="6.24644">
        <ele>1029.23</ele>
        <time>2013-05-26T08:58:48Z</time>
      </trkpt>
      <trkpt lat="44.06624" lon="6.24621">
        <ele>1032.59</ele>
        <time>2013-05-26T08:59:19Z</time>
      </trkpt>
      <trkpt lat="44.06619" lon="6.24616">
        <ele>1033.55</ele>
        <time>2013-05-26T08:59:23Z</time>
      </trkpt>
      <trkpt lat="44.06581" lon="6.24593">
        <ele>1038.36</ele>
        <time>2013-05-26T08:59:57Z</time>
      </trkpt>
      <trkpt lat="44.06572" lon="6.24587">
        <ele>1040.28</ele>
        <time>2013-05-26T09:00:18Z</time>
      </trkpt>
      <trkpt lat="44.06589" lon="6.2458">
        <ele>1042.21</ele>
        <time>2013-05-26T09:01:07Z</time>
      </trkpt>
      <trkpt lat="44.06596" lon="6.24579">
        <ele>1043.17</ele>
        <time>2013-05-26T09:01:17Z</time>
      </trkpt>
      <trkpt lat="44.06633" lon="6.24596">
        <ele>1046.53</ele>
        <time>2013-05-26T09:01:45Z</time>
      </trkpt>
      <trkpt lat="44.06646" lon="6.24601">
        <ele>1047.97</ele>
        <time>2013-05-26T09:01:54Z</time>
      </trkpt>
      <trkpt lat="44.06674" lon="6.24608">
        <ele>1051.34</ele>
        <time>2013-05-26T09:02:14Z</time>
      </trkpt>
      <trkpt lat="44.06713" lon="6.24618">
        <ele>1055.18</ele>
        <time>2013-05-26T09:02:56Z</time>
      </trkpt>
      <trkpt lat="44.06742" lon="6.24642">
        <ele>1058.55</ele>
        <time>2013-05-26T09:03:23Z</time>
      </trkpt>
      <trkpt lat="44.06753" lon="6.2464">
        <ele>1061.91</ele>
        <time>2013-05-26T09:03:45Z</time>
      </trkpt>
      <trkpt lat="44.06764" lon="6.2464">
        <ele>1067.2</ele>
        <time>2013-05-26T09:04:08Z</time>
      </trkpt>
      <trkpt lat="44.06763" lon="6.24607">
        <ele>1072.01</ele>
        <time>2013-05-26T09:05:03Z</time>
      </trkpt>
      <trkpt lat="44.06776" lon="6.24583">
        <ele>1077.78</ele>
        <time>2013-05-26T09:05:30Z</time>
      </trkpt>
      <trkpt lat="44.06771" lon="6.24572">
        <ele>1080.18</ele>
        <time>2013-05-26T09:06:49Z</time>
      </trkpt>
      <trkpt lat="44.06773" lon="6.24572">
        <ele>1080.66</ele>
        <time>2013-05-26T09:07:27Z</time>
      </trkpt>
      <trkpt lat="44.06745" lon="6.24554">
        <ele>1079.22</ele>
        <time>2013-05-26T09:07:41Z</time>
      </trkpt>
      <trkpt lat="44.06653" lon="6.245">
        <ele>1079.7</ele>
        <time>2013-05-26T09:08:12Z</time>
      </trkpt>
      <trkpt lat="44.06616" lon="6.24468">
        <ele>1080.66</ele>
        <time>2013-05-26T09:08:24Z</time>
      </trkpt>
      <trkpt lat="44.0655" lon="6.24461">
        <ele>1081.14</ele>
        <time>2013-05-26T09:08:41Z</time>
      </trkpt>
      <trkpt lat="44.06526" lon="6.24466">
        <ele>1080.66</ele>
        <time>2013-05-26T09:08:59Z</time>
      </trkpt>
      <trkpt lat="44.06468" lon="6.24471">
        <ele>1081.14</ele>
        <time>2013-05-26T09:09:21Z</time>
      </trkpt>
      <trkpt lat="44.06367" lon="6.24464">
        <ele>1081.14</ele>
        <time>2013-05-26T09:09:54Z</time>
      </trkpt>
      <trkpt lat="44.06296" lon="6.24505">
        <ele>1078.74</ele>
        <time>2013-05-26T09:10:12Z</time>
      </trkpt>
      <trkpt lat="44.06291" lon="6.24506">
        <ele>1078.74</ele>
        <time>2013-05-26T09:10:13Z</time>
      </trkpt>
      <trkpt lat="44.06154" lon="6.24516">
        <ele>1073.45</ele>
        <time>2013-05-26T09:10:41Z</time>
      </trkpt>
      <trkpt lat="44.06097" lon="6.24514">
        <ele>1071.05</ele>
        <time>2013-05-26T09:10:51Z</time>
      </trkpt>
      <trkpt lat="44.06053" lon="6.2453">
        <ele>1069.6</ele>
        <time>2013-05-26T09:11:03Z</time>
      </trkpt>
      <trkpt lat="44.0601" lon="6.24581">
        <ele>1068.16</ele>
        <time>2013-05-26T09:11:23Z</time>
      </trkpt>
      <trkpt lat="44.06009" lon="6.24583">
        <ele>1067.2</ele>
        <time>2013-05-26T09:11:52Z</time>
      </trkpt>
      <trkpt lat="44.06008" lon="6.24587">
        <ele>1069.12</ele>
        <time>2013-05-26T09:13:58Z</time>
      </trkpt>
      <trkpt lat="44.05999" lon="6.24611">
        <ele>1066.24</ele>
        <time>2013-05-26T09:14:10Z</time>
      </trkpt>
      <trkpt lat="44.05986" lon="6.2463">
        <ele>1065.28</ele>
        <time>2013-05-26T09:14:20Z</time>
      </trkpt>
      <trkpt lat="44.05933" lon="6.24708">
        <ele>1061.91</ele>
        <time>2013-05-26T09:14:37Z</time>
      </trkpt>
      <trkpt lat="44.05924" lon="6.24728">
        <ele>1059.51</ele>
        <time>2013-05-26T09:14:51Z</time>
      </trkpt>
      <trkpt lat="44.05906" lon="6.24758">
        <ele>1059.99</ele>
        <time>2013-05-26T09:15:16Z</time>
      </trkpt>
      <trkpt lat="44.05899" lon="6.248">
        <ele>1058.07</ele>
        <time>2013-05-26T09:15:23Z</time>
      </trkpt>
      <trkpt lat="44.05863" lon="6.24838">
        <ele>1056.15</ele>
        <time>2013-05-26T09:15:32Z</time>
      </trkpt>
      <trkpt lat="44.05818" lon="6.24866">
        <ele>1054.22</ele>
        <time>2013-05-26T09:15:39Z</time>
      </trkpt>
      <trkpt lat="44.05778" lon="6.24913">
        <ele>1051.34</ele>
        <time>2013-05-26T09:15:47Z</time>
      </trkpt>
      <trkpt lat="44.05775" lon="6.2492">
        <ele>1050.86</ele>
        <time>2013-05-26T09:15:48Z</time>
      </trkpt>
      <trkpt lat="44.05763" lon="6.24953">
        <ele>1049.42</ele>
        <time>2013-05-26T09:15:52Z</time>
      </trkpt>
      <trkpt lat="44.05762" lon="6.24987">
        <ele>1047.49</ele>
        <time>2013-05-26T09:16:04Z</time>
      </trkpt>
      <trkpt lat="44.05756" lon="6.24986">
        <ele>1048.45</ele>
        <time>2013-05-26T09:16:25Z</time>
      </trkpt>
      <trkpt lat="44.05735" lon="6.25001">
        <ele>1050.86</ele>
        <time>2013-05-26T09:16:40Z</time>
      </trkpt>
      <trkpt lat="44.05722" lon="6.25005">
        <ele>1053.74</ele>
        <time>2013-05-26T09:17:02Z</time>
      </trkpt>
      <trkpt lat="44.05689" lon="6.2503">
        <ele>1059.99</ele>
        <time>2013-05-26T09:17:53Z</time>
      </trkpt>
      <trkpt lat="44.05666" lon="6.25054">
        <ele>1063.36</ele>
        <time>2013-05-26T09:18:30Z</time>
      </trkpt>
      <trkpt lat="44.05637" lon="6.25063">
        <ele>1067.68</ele>
        <time>2013-05-26T09:19:03Z</time>
      </trkpt>
      <trkpt lat="44.05602" lon="6.25068">
        <ele>1072.49</ele>
        <time>2013-05-26T09:19:49Z</time>
      </trkpt>
      <trkpt lat="44.05583" lon="6.25069">
        <ele>1074.41</ele>
        <time>2013-05-26T09:20:08Z</time>
      </trkpt>
      <trkpt lat="44.05541" lon="6.2504">
        <ele>1080.66</ele>
        <time>2013-05-26T09:20:49Z</time>
      </trkpt>
      <trkpt lat="44.05512" lon="6.25037">
        <ele>1084.99</ele>
        <time>2013-05-26T09:21:16Z</time>
      </trkpt>
      <trkpt lat="44.05506" lon="6.25037">
        <ele>1084.99</ele>
        <time>2013-05-26T09:21:21Z</time>
      </trkpt>
      <trkpt lat="44.05495" lon="6.25038">
        <ele>1086.91</ele>
        <time>2013-05-26T09:21:31Z</time>
      </trkpt>
      <trkpt lat="44.05457" lon="6.25045">
        <ele>1091.23</ele>
        <time>2013-05-26T09:22:03Z</time>
      </trkpt>
      <trkpt lat="44.05422" lon="6.25042">
        <ele>1095.56</ele>
        <time>2013-05-26T09:22:31Z</time>
      </trkpt>
      <trkpt lat="44.05391" lon="6.25045">
        <ele>1099.89</ele>
        <time>2013-05-26T09:22:56Z</time>
      </trkpt>
      <trkpt lat="44.05354" lon="6.25051">
        <ele>1104.21</ele>
        <time>2013-05-26T09:23:29Z</time>
      </trkpt>
      <trkpt lat="44.0534" lon="6.25052">
        <ele>1107.58</ele>
        <time>2013-05-26T09:23:43Z</time>
      </trkpt>
      <trkpt lat="44.05306" lon="6.25054">
        <ele>1112.86</ele>
        <time>2013-05-26T09:24:15Z</time>
      </trkpt>
      <trkpt lat="44.05283" lon="6.25052">
        <ele>1116.71</ele>
        <time>2013-05-26T09:24:51Z</time>
      </trkpt>
      <trkpt lat="44.0525" lon="6.25052">
        <ele>1122</ele>
        <time>2013-05-26T09:25:29Z</time>
      </trkpt>
      <trkpt lat="44.05242" lon="6.25055">
        <ele>1122</ele>
        <time>2013-05-26T09:25:36Z</time>
      </trkpt>
      <trkpt lat="44.05224" lon="6.25056">
        <ele>1125.36</ele>
        <time>2013-05-26T09:25:56Z</time>
      </trkpt>
      <trkpt lat="44.05222" lon="6.25055">
        <ele>1124.4</ele>
        <time>2013-05-26T09:26:14Z</time>
      </trkpt>
      <trkpt lat="44.052" lon="6.25049">
        <ele>1127.76</ele>
        <time>2013-05-26T09:27:08Z</time>
      </trkpt>
      <trkpt lat="44.05151" lon="6.25033">
        <ele>1133.05</ele>
        <time>2013-05-26T09:28:07Z</time>
      </trkpt>
      <trkpt lat="44.05151" lon="6.2503">
        <ele>1134.49</ele>
        <time>2013-05-26T09:28:22Z</time>
      </trkpt>
      <trkpt lat="44.05119" lon="6.25015">
        <ele>1137.38</ele>
        <time>2013-05-26T09:28:45Z</time>
      </trkpt>
      <trkpt lat="44.05096" lon="6.24988">
        <ele>1141.22</ele>
        <time>2013-05-26T09:29:10Z</time>
      </trkpt>
      <trkpt lat="44.05076" lon="6.2498">
        <ele>1147.47</ele>
        <time>2013-05-26T09:29:37Z</time>
      </trkpt>
      <trkpt lat="44.05061" lon="6.24965">
        <ele>1149.39</ele>
        <time>2013-05-26T09:29:54Z</time>
      </trkpt>
      <trkpt lat="44.05056" lon="6.24962">
        <ele>1149.39</ele>
        <time>2013-05-26T09:29:59Z</time>
      </trkpt>
      <trkpt lat="44.05035" lon="6.24949">
        <ele>1153.72</ele>
        <time>2013-05-26T09:30:32Z</time>
      </trkpt>
      <trkpt lat="44.05053" lon="6.25006">
        <ele>1159.01</ele>
        <time>2013-05-26T09:31:06Z</time>
      </trkpt>
      <trkpt lat="44.05071" lon="6.25041">
        <ele>1163.81</ele>
        <time>2013-05-26T09:31:36Z</time>
      </trkpt>
      <trkpt lat="44.05082" lon="6.2508">
        <ele>1168.14</ele>
        <time>2013-05-26T09:32:02Z</time>
      </trkpt>
      <trkpt lat="44.05111" lon="6.25119">
        <ele>1172.95</ele>
        <time>2013-05-26T09:32:30Z</time>
      </trkpt>
      <trkpt lat="44.05124" lon="6.25138">
        <ele>1178.23</ele>
        <time>2013-05-26T09:33:08Z</time>
      </trkpt>
      <trkpt lat="44.05128" lon="6.25141">
        <ele>1177.75</ele>
        <time>2013-05-26T09:33:12Z</time>
      </trkpt>
      <trkpt lat="44.05151" lon="6.25155">
        <ele>1180.64</ele>
        <time>2013-05-26T09:33:27Z</time>
      </trkpt>
      <trkpt lat="44.05181" lon="6.25167">
        <ele>1184</ele>
        <time>2013-05-26T09:33:49Z</time>
      </trkpt>
      <trkpt lat="44.05226" lon="6.25166">
        <ele>1185.92</ele>
        <time>2013-05-26T09:34:18Z</time>
      </trkpt>
      <trkpt lat="44.05249" lon="6.25179">
        <ele>1189.77</ele>
        <time>2013-05-26T09:34:42Z</time>
      </trkpt>
      <trkpt lat="44.05275" lon="6.25198">
        <ele>1194.58</ele>
        <time>2013-05-26T09:35:18Z</time>
      </trkpt>
      <trkpt lat="44.05286" lon="6.25208">
        <ele>1197.94</ele>
        <time>2013-05-26T09:35:53Z</time>
      </trkpt>
      <trkpt lat="44.05296" lon="6.25216">
        <ele>1201.79</ele>
        <time>2013-05-26T09:36:07Z</time>
      </trkpt>
      <trkpt lat="44.05315" lon="6.25233">
        <ele>1206.11</ele>
        <time>2013-05-26T09:36:28Z</time>
      </trkpt>
      <trkpt lat="44.05316" lon="6.25233">
        <ele>1205.63</ele>
        <time>2013-05-26T09:36:29Z</time>
      </trkpt>
      <trkpt lat="44.05356" lon="6.25258">
        <ele>1211.88</ele>
        <time>2013-05-26T09:37:06Z</time>
      </trkpt>
      <trkpt lat="44.05342" lon="6.25273">
        <ele>1213.32</ele>
        <time>2013-05-26T09:38:00Z</time>
      </trkpt>
      <trkpt lat="44.0535" lon="6.25277">
        <ele>1212.84</ele>
        <time>2013-05-26T09:38:23Z</time>
      </trkpt>
      <trkpt lat="44.05342" lon="6.25273">
        <ele>1213.32</ele>
        <time>2013-05-26T09:39:31Z</time>
      </trkpt>
      <trkpt lat="44.05342" lon="6.25273">
        <ele>1214.28</ele>
        <time>2013-05-26T09:44:25Z</time>
      </trkpt>
      <trkpt lat="44.05361" lon="6.25291">
        <ele>1209.96</ele>
        <time>2013-05-26T09:45:15Z</time>
      </trkpt>
      <trkpt lat="44.05367" lon="6.25293">
        <ele>1206.59</ele>
        <time>2013-05-26T09:46:31Z</time>
      </trkpt>
      <trkpt lat="44.05379" lon="6.25297">
        <ele>1207.55</ele>
        <time>2013-05-26T09:48:01Z</time>
      </trkpt>
      <trkpt lat="44.05408" lon="6.25313">
        <ele>1205.15</ele>
        <time>2013-05-26T09:49:11Z</time>
      </trkpt>
      <trkpt lat="44.05446" lon="6.25335">
        <ele>1198.42</ele>
        <time>2013-05-26T09:49:21Z</time>
      </trkpt>
      <trkpt lat="44.05468" lon="6.25346">
        <ele>1194.58</ele>
        <time>2013-05-26T09:49:42Z</time>
      </trkpt>
      <trkpt lat="44.05502" lon="6.25369">
        <ele>1188.33</ele>
        <time>2013-05-26T09:49:54Z</time>
      </trkpt>
      <trkpt lat="44.05504" lon="6.25374">
        <ele>1184.96</ele>
        <time>2013-05-26T09:50:19Z</time>
      </trkpt>
      <trkpt lat="44.05503" lon="6.25373">
        <ele>1185.44</ele>
        <time>2013-05-26T09:50:28Z</time>
      </trkpt>
      <trkpt lat="44.05486" lon="6.25377">
        <ele>1181.12</ele>
        <time>2013-05-26T09:50:35Z</time>
      </trkpt>
      <trkpt lat="44.05482" lon="6.25377">
        <ele>1181.6</ele>
        <time>2013-05-26T09:50:36Z</time>
      </trkpt>
      <trkpt lat="44.05458" lon="6.2538">
        <ele>1177.75</ele>
        <time>2013-05-26T09:50:43Z</time>
      </trkpt>
      <trkpt lat="44.05441" lon="6.25384">
        <ele>1174.39</ele>
        <time>2013-05-26T09:50:49Z</time>
      </trkpt>
      <trkpt lat="44.05424" lon="6.25388">
        <ele>1170.54</ele>
        <time>2013-05-26T09:50:57Z</time>
      </trkpt>
      <trkpt lat="44.05421" lon="6.25389">
        <ele>1170.06</ele>
        <time>2013-05-26T09:51:50Z</time>
      </trkpt>
      <trkpt lat="44.05408" lon="6.25394">
        <ele>1165.74</ele>
        <time>2013-05-26T09:52:16Z</time>
      </trkpt>
      <trkpt lat="44.05407" lon="6.25394">
        <ele>1165.74</ele>
        <time>2013-05-26T09:52:17Z</time>
      </trkpt>
      <trkpt lat="44.05386" lon="6.254">
        <ele>1160.45</ele>
        <time>2013-05-26T09:52:27Z</time>
      </trkpt>
      <trkpt lat="44.05357" lon="6.25417">
        <ele>1154.2</ele>
        <time>2013-05-26T09:52:36Z</time>
      </trkpt>
      <trkpt lat="44.05346" lon="6.25423">
        <ele>1150.84</ele>
        <time>2013-05-26T09:52:39Z</time>
      </trkpt>
      <trkpt lat="44.05343" lon="6.25424">
        <ele>1151.32</ele>
        <time>2013-05-26T09:52:40Z</time>
      </trkpt>
      <trkpt lat="44.05333" lon="6.2543">
        <ele>1147.95</ele>
        <time>2013-05-26T09:52:43Z</time>
      </trkpt>
      <trkpt lat="44.05318" lon="6.25433">
        <ele>1144.59</ele>
        <time>2013-05-26T09:52:47Z</time>
      </trkpt>
      <trkpt lat="44.05298" lon="6.25431">
        <ele>1138.82</ele>
        <time>2013-05-26T09:53:00Z</time>
      </trkpt>
      <trkpt lat="44.05274" lon="6.25438">
        <ele>1134.49</ele>
        <time>2013-05-26T09:53:09Z</time>
      </trkpt>
      <trkpt lat="44.05262" lon="6.25444">
        <ele>1130.65</ele>
        <time>2013-05-26T09:53:12Z</time>
      </trkpt>
      <trkpt lat="44.05248" lon="6.25453">
        <ele>1127.28</ele>
        <time>2013-05-26T09:53:16Z</time>
      </trkpt>
      <trkpt lat="44.0523" lon="6.25464">
        <ele>1123.92</ele>
        <time>2013-05-26T09:53:22Z</time>
      </trkpt>
      <trkpt lat="44.0522" lon="6.25477">
        <ele>1120.07</ele>
        <time>2013-05-26T09:53:28Z</time>
      </trkpt>
      <trkpt lat="44.05219" lon="6.2548">
        <ele>1119.59</ele>
        <time>2013-05-26T09:53:29Z</time>
      </trkpt>
      <trkpt lat="44.05212" lon="6.25489">
        <ele>1117.67</ele>
        <time>2013-05-26T09:53:32Z</time>
      </trkpt>
      <trkpt lat="44.05194" lon="6.25498">
        <ele>1114.31</ele>
        <time>2013-05-26T09:53:38Z</time>
      </trkpt>
      <trkpt lat="44.05177" lon="6.25515">
        <ele>1109.5</ele>
        <time>2013-05-26T09:53:43Z</time>
      </trkpt>
      <trkpt lat="44.05162" lon="6.25521">
        <ele>1105.17</ele>
        <time>2013-05-26T09:53:49Z</time>
      </trkpt>
      <trkpt lat="44.05145" lon="6.25529">
        <ele>1101.81</ele>
        <time>2013-05-26T09:54:04Z</time>
      </trkpt>
      <trkpt lat="44.05118" lon="6.25544">
        <ele>1095.56</ele>
        <time>2013-05-26T09:54:09Z</time>
      </trkpt>
      <trkpt lat="44.05099" lon="6.25554">
        <ele>1092.2</ele>
        <time>2013-05-26T09:54:12Z</time>
      </trkpt>
      <trkpt lat="44.05081" lon="6.25561">
        <ele>1088.83</ele>
        <time>2013-05-26T09:54:15Z</time>
      </trkpt>
      <trkpt lat="44.05062" lon="6.25571">
        <ele>1085.47</ele>
        <time>2013-05-26T09:54:18Z</time>
      </trkpt>
      <trkpt lat="44.05045" lon="6.2558">
        <ele>1082.1</ele>
        <time>2013-05-26T09:54:21Z</time>
      </trkpt>
      <trkpt lat="44.05026" lon="6.25595">
        <ele>1078.74</ele>
        <time>2013-05-26T09:54:25Z</time>
      </trkpt>
      <trkpt lat="44.05011" lon="6.25604">
        <ele>1075.37</ele>
        <time>2013-05-26T09:54:28Z</time>
      </trkpt>
      <trkpt lat="44.04981" lon="6.25621">
        <ele>1070.57</ele>
        <time>2013-05-26T09:54:33Z</time>
      </trkpt>
      <trkpt lat="44.04967" lon="6.25634">
        <ele>1067.2</ele>
        <time>2013-05-26T09:54:36Z</time>
      </trkpt>
      <trkpt lat="44.0496" lon="6.25644">
        <ele>1066.24</ele>
        <time>2013-05-26T09:54:41Z</time>
      </trkpt>
      <trkpt lat="44.0495" lon="6.25664">
        <ele>1062.39</ele>
        <time>2013-05-26T09:54:46Z</time>
      </trkpt>
      <trkpt lat="44.04947" lon="6.25667">
        <ele>1062.87</ele>
        <time>2013-05-26T09:54:47Z</time>
      </trkpt>
      <trkpt lat="44.04943" lon="6.25672">
        <ele>1059.51</ele>
        <time>2013-05-26T09:54:49Z</time>
      </trkpt>
      <trkpt lat="44.04849" lon="6.25789">
        <ele>1052.3</ele>
        <time>2013-05-26T09:55:12Z</time>
      </trkpt>
      <trkpt lat="44.04831" lon="6.25857">
        <ele>1047.01</ele>
        <time>2013-05-26T09:55:24Z</time>
      </trkpt>
      <trkpt lat="44.04829" lon="6.25866">
        <ele>1047.01</ele>
        <time>2013-05-26T09:55:25Z</time>
      </trkpt>
      <trkpt lat="44.04824" lon="6.25887">
        <ele>1042.69</ele>
        <time>2013-05-26T09:55:28Z</time>
      </trkpt>
      <trkpt lat="44.04817" lon="6.25912">
        <ele>1039.32</ele>
        <time>2013-05-26T09:55:31Z</time>
      </trkpt>
      <trkpt lat="44.04788" lon="6.25954">
        <ele>1032.59</ele>
        <time>2013-05-26T09:55:36Z</time>
      </trkpt>
      <trkpt lat="44.04706" lon="6.25978">
        <ele>1027.79</ele>
        <time>2013-05-26T09:55:54Z</time>
      </trkpt>
      <trkpt lat="44.04704" lon="6.25984">
        <ele>1027.79</ele>
        <time>2013-05-26T09:55:55Z</time>
      </trkpt>
      <trkpt lat="44.04694" lon="6.26031">
        <ele>1022.02</ele>
        <time>2013-05-26T09:56:01Z</time>
      </trkpt>
      <trkpt lat="44.04666" lon="6.26047">
        <ele>1018.65</ele>
        <time>2013-05-26T09:56:05Z</time>
      </trkpt>
      <trkpt lat="44.04658" lon="6.26048">
        <ele>1017.21</ele>
        <time>2013-05-26T09:56:06Z</time>
      </trkpt>
      <trkpt lat="44.04624" lon="6.26051">
        <ele>1013.37</ele>
        <time>2013-05-26T09:56:10Z</time>
      </trkpt>
      <trkpt lat="44.04598" lon="6.26045">
        <ele>1009.52</ele>
        <time>2013-05-26T09:56:13Z</time>
      </trkpt>
      <trkpt lat="44.04584" lon="6.26056">
        <ele>1004.23</ele>
        <time>2013-05-26T09:56:19Z</time>
      </trkpt>
      <trkpt lat="44.04603" lon="6.26088">
        <ele>999.91</ele>
        <time>2013-05-26T09:56:25Z</time>
      </trkpt>
      <trkpt lat="44.04628" lon="6.26124">
        <ele>995.1</ele>
        <time>2013-05-26T09:56:29Z</time>
      </trkpt>
      <trkpt lat="44.04632" lon="6.26133">
        <ele>995.1</ele>
        <time>2013-05-26T09:56:30Z</time>
      </trkpt>
      <trkpt lat="44.04632" lon="6.26172">
        <ele>991.74</ele>
        <time>2013-05-26T09:56:34Z</time>
      </trkpt>
      <trkpt lat="44.04629" lon="6.2618">
        <ele>990.3</ele>
        <time>2013-05-26T09:56:35Z</time>
      </trkpt>
      <trkpt lat="44.0462" lon="6.26206">
        <ele>985.97</ele>
        <time>2013-05-26T09:56:38Z</time>
      </trkpt>
      <trkpt lat="44.04616" lon="6.26247">
        <ele>979.24</ele>
        <time>2013-05-26T09:56:42Z</time>
      </trkpt>
      <trkpt lat="44.04606" lon="6.26289">
        <ele>971.55</ele>
        <time>2013-05-26T09:56:46Z</time>
      </trkpt>
      <trkpt lat="44.04603" lon="6.26304">
        <ele>968.18</ele>
        <time>2013-05-26T09:57:03Z</time>
      </trkpt>
      <trkpt lat="44.04603" lon="6.26304">
        <ele>968.18</ele>
        <time>2013-05-26T09:58:40Z</time>
      </trkpt>
      <trkpt lat="44.04583" lon="6.26334">
        <ele>965.78</ele>
        <time>2013-05-26T09:58:48Z</time>
      </trkpt>
      <trkpt lat="44.04574" lon="6.26449">
        <ele>962.9</ele>
        <time>2013-05-26T09:59:05Z</time>
      </trkpt>
      <trkpt lat="44.04573" lon="6.26454">
        <ele>963.38</ele>
        <time>2013-05-26T09:59:28Z</time>
      </trkpt>
      <trkpt lat="44.04563" lon="6.2652">
        <ele>964.82</ele>
        <time>2013-05-26T09:59:48Z</time>
      </trkpt>
      <trkpt lat="44.04566" lon="6.26554">
        <ele>964.82</ele>
        <time>2013-05-26T10:00:00Z</time>
      </trkpt>
      <trkpt lat="44.04557" lon="6.26558">
        <ele>965.3</ele>
        <time>2013-05-26T10:00:22Z</time>
      </trkpt>
      <trkpt lat="44.04558" lon="6.26564">
        <ele>964.34</ele>
        <time>2013-05-26T10:03:12Z</time>
      </trkpt>
      <trkpt lat="44.04567" lon="6.26589">
        <ele>964.82</ele>
        <time>2013-05-26T10:03:24Z</time>
      </trkpt>
      <trkpt lat="44.04573" lon="6.26628">
        <ele>965.78</ele>
        <time>2013-05-26T10:03:42Z</time>
      </trkpt>
      <trkpt lat="44.04578" lon="6.26639">
        <ele>966.26</ele>
        <time>2013-05-26T10:03:55Z</time>
      </trkpt>
      <trkpt lat="44.04581" lon="6.26618">
        <ele>965.78</ele>
        <time>2013-05-26T10:04:32Z</time>
      </trkpt>
      <trkpt lat="44.04582" lon="6.26616">
        <ele>964.34</ele>
        <time>2013-05-26T10:05:39Z</time>
      </trkpt>
      <trkpt lat="44.04579" lon="6.26612">
        <ele>965.3</ele>
        <time>2013-05-26T10:06:10Z</time>
      </trkpt>
      <trkpt lat="44.04578" lon="6.26615">
        <ele>964.82</ele>
        <time>2013-05-26T10:08:16Z</time>
      </trkpt>
      <trkpt lat="44.0458" lon="6.26638">
        <ele>965.78</ele>
        <time>2013-05-26T10:12:00Z</time>
      </trkpt>
      <trkpt lat="44.04577" lon="6.26675">
        <ele>963.38</ele>
        <time>2013-05-26T10:12:49Z</time>
      </trkpt>
      <trkpt lat="44.04583" lon="6.26685">
        <ele>963.38</ele>
        <time>2013-05-26T10:12:53Z</time>
      </trkpt>
      <trkpt lat="44.04631" lon="6.26722">
        <ele>967.22</ele>
        <time>2013-05-26T10:13:27Z</time>
      </trkpt>
      <trkpt lat="44.04638" lon="6.26708">
        <ele>971.55</ele>
        <time>2013-05-26T10:13:43Z</time>
      </trkpt>
      <trkpt lat="44.04635" lon="6.26702">
        <ele>972.03</ele>
        <time>2013-05-26T10:13:47Z</time>
      </trkpt>
      <trkpt lat="44.04614" lon="6.26655">
        <ele>972.99</ele>
        <time>2013-05-26T10:14:51Z</time>
      </trkpt>
      <trkpt lat="44.04615" lon="6.2661">
        <ele>972.99</ele>
        <time>2013-05-26T10:15:23Z</time>
      </trkpt>
      <trkpt lat="44.04624" lon="6.2658">
        <ele>969.63</ele>
        <time>2013-05-26T10:15:36Z</time>
      </trkpt>
      <trkpt lat="44.04611" lon="6.26572">
        <ele>965.78</ele>
        <time>2013-05-26T10:15:46Z</time>
      </trkpt>
      <trkpt lat="44.04597" lon="6.26601">
        <ele>965.78</ele>
        <time>2013-05-26T10:15:56Z</time>
      </trkpt>
      <trkpt lat="44.04562" lon="6.2658">
        <ele>963.38</ele>
        <time>2013-05-26T10:16:16Z</time>
      </trkpt>
      <trkpt lat="44.04524" lon="6.26589">
        <ele>960.98</ele>
        <time>2013-05-26T10:16:24Z</time>
      </trkpt>
      <trkpt lat="44.04442" lon="6.26654">
        <ele>960.49</ele>
        <time>2013-05-26T10:16:45Z</time>
      </trkpt>
      <trkpt lat="44.04413" lon="6.26713">
        <ele>961.94</ele>
        <time>2013-05-26T10:17:08Z</time>
      </trkpt>
      <trkpt lat="44.04412" lon="6.26723">
        <ele>962.42</ele>
        <time>2013-05-26T10:17:44Z</time>
      </trkpt>
      <trkpt lat="44.0437" lon="6.2679">
        <ele>966.26</ele>
        <time>2013-05-26T10:18:14Z</time>
      </trkpt>
      <trkpt lat="44.04355" lon="6.26808">
        <ele>969.15</ele>
        <time>2013-05-26T10:18:51Z</time>
      </trkpt>
      <trkpt lat="44.04331" lon="6.26845">
        <ele>971.07</ele>
        <time>2013-05-26T10:19:12Z</time>
      </trkpt>
      <trkpt lat="44.04331" lon="6.26844">
        <ele>971.07</ele>
        <time>2013-05-26T10:19:13Z</time>
      </trkpt>
      <trkpt lat="44.0433" lon="6.26846">
        <ele>971.55</ele>
        <time>2013-05-26T10:19:17Z</time>
      </trkpt>
      <trkpt lat="44.04328" lon="6.26877">
        <ele>967.22</ele>
        <time>2013-05-26T10:19:31Z</time>
      </trkpt>
      <trkpt lat="44.04323" lon="6.26911">
        <ele>962.42</ele>
        <time>2013-05-26T10:19:37Z</time>
      </trkpt>
      <trkpt lat="44.04324" lon="6.26916">
        <ele>962.42</ele>
        <time>2013-05-26T10:19:38Z</time>
      </trkpt>
      <trkpt lat="44.04292" lon="6.27037">
        <ele>959.05</ele>
        <time>2013-05-26T10:20:08Z</time>
      </trkpt>
      <trkpt lat="44.04267" lon="6.27094">
        <ele>960.49</ele>
        <time>2013-05-26T10:20:30Z</time>
      </trkpt>
      <trkpt lat="44.04268" lon="6.27164">
        <ele>956.65</ele>
        <time>2013-05-26T10:20:48Z</time>
      </trkpt>
      <trkpt lat="44.04269" lon="6.27165">
        <ele>957.13</ele>
        <time>2013-05-26T10:20:49Z</time>
      </trkpt>
      <trkpt lat="44.04269" lon="6.27189">
        <ele>962.9</ele>
        <time>2013-05-26T10:21:28Z</time>
      </trkpt>
      <trkpt lat="44.04257" lon="6.27201">
        <ele>966.26</ele>
        <time>2013-05-26T10:21:44Z</time>
      </trkpt>
      <trkpt lat="44.04239" lon="6.27213">
        <ele>971.55</ele>
        <time>2013-05-26T10:22:23Z</time>
      </trkpt>
      <trkpt lat="44.04223" lon="6.27227">
        <ele>975.88</ele>
        <time>2013-05-26T10:23:01Z</time>
      </trkpt>
      <trkpt lat="44.04243" lon="6.27245">
        <ele>981.64</ele>
        <time>2013-05-26T10:23:34Z</time>
      </trkpt>
      <trkpt lat="44.04238" lon="6.27271">
        <ele>985.01</ele>
        <time>2013-05-26T10:24:00Z</time>
      </trkpt>
      <trkpt lat="44.04238" lon="6.27272">
        <ele>985.97</ele>
        <time>2013-05-26T10:24:01Z</time>
      </trkpt>
      <trkpt lat="44.04236" lon="6.27283">
        <ele>985.97</ele>
        <time>2013-05-26T10:24:07Z</time>
      </trkpt>
      <trkpt lat="44.04224" lon="6.27348">
        <ele>989.81</ele>
        <time>2013-05-26T10:24:43Z</time>
      </trkpt>
      <trkpt lat="44.04211" lon="6.27459">
        <ele>993.66</ele>
        <time>2013-05-26T10:25:36Z</time>
      </trkpt>
      <trkpt lat="44.04212" lon="6.2747">
        <ele>993.66</ele>
        <time>2013-05-26T10:25:40Z</time>
      </trkpt>
      <trkpt lat="44.04195" lon="6.27556">
        <ele>992.22</ele>
        <time>2013-05-26T10:26:04Z</time>
      </trkpt>
      <trkpt lat="44.04169" lon="6.27621">
        <ele>989.33</ele>
        <time>2013-05-26T10:26:20Z</time>
      </trkpt>
      <trkpt lat="44.04161" lon="6.2765">
        <ele>987.41</ele>
        <time>2013-05-26T10:26:24Z</time>
      </trkpt>
      <trkpt lat="44.04157" lon="6.27664">
        <ele>985.49</ele>
        <time>2013-05-26T10:26:45Z</time>
      </trkpt>
      <trkpt lat="44.04145" lon="6.27691">
        <ele>983.57</ele>
        <time>2013-05-26T10:29:07Z</time>
      </trkpt>
      <trkpt lat="44.04106" lon="6.27728">
        <ele>984.53</ele>
        <time>2013-05-26T10:29:39Z</time>
      </trkpt>
      <trkpt lat="44.04043" lon="6.27783">
        <ele>987.41</ele>
        <time>2013-05-26T10:30:18Z</time>
      </trkpt>
      <trkpt lat="44.04003" lon="6.27823">
        <ele>993.18</ele>
        <time>2013-05-26T10:30:48Z</time>
      </trkpt>
      <trkpt lat="44.03992" lon="6.2784">
        <ele>996.54</ele>
        <time>2013-05-26T10:30:57Z</time>
      </trkpt>
      <trkpt lat="44.03973" lon="6.27862">
        <ele>999.43</ele>
        <time>2013-05-26T10:31:13Z</time>
      </trkpt>
      <trkpt lat="44.03964" lon="6.27862">
        <ele>999.43</ele>
        <time>2013-05-26T10:31:19Z</time>
      </trkpt>
      <trkpt lat="44.0396" lon="6.27867">
        <ele>1000.39</ele>
        <time>2013-05-26T10:31:35Z</time>
      </trkpt>
      <trkpt lat="44.03942" lon="6.27872">
        <ele>997.99</ele>
        <time>2013-05-26T10:31:49Z</time>
      </trkpt>
      <trkpt lat="44.03916" lon="6.27877">
        <ele>994.62</ele>
        <time>2013-05-26T10:31:54Z</time>
      </trkpt>
      <trkpt lat="44.03873" lon="6.27896">
        <ele>989.33</ele>
        <time>2013-05-26T10:32:05Z</time>
      </trkpt>
      <trkpt lat="44.03829" lon="6.27912">
        <ele>986.93</ele>
        <time>2013-05-26T10:32:15Z</time>
      </trkpt>
      <trkpt lat="44.03727" lon="6.27977">
        <ele>989.33</ele>
        <time>2013-05-26T10:32:56Z</time>
      </trkpt>
      <trkpt lat="44.03646" lon="6.28059">
        <ele>983.57</ele>
        <time>2013-05-26T10:33:22Z</time>
      </trkpt>
      <trkpt lat="44.03625" lon="6.2808">
        <ele>980.2</ele>
        <time>2013-05-26T10:33:28Z</time>
      </trkpt>
      <trkpt lat="44.0358" lon="6.28122">
        <ele>981.16</ele>
        <time>2013-05-26T10:33:53Z</time>
      </trkpt>
      <trkpt lat="44.03523" lon="6.28152">
        <ele>985.97</ele>
        <time>2013-05-26T10:34:28Z</time>
      </trkpt>
      <trkpt lat="44.03514" lon="6.28162">
        <ele>987.41</ele>
        <time>2013-05-26T10:34:35Z</time>
      </trkpt>
      <trkpt lat="44.03512" lon="6.28162">
        <ele>987.41</ele>
        <time>2013-05-26T10:34:36Z</time>
      </trkpt>
      <trkpt lat="44.03478" lon="6.28182">
        <ele>991.74</ele>
        <time>2013-05-26T10:35:01Z</time>
      </trkpt>
      <trkpt lat="44.03449" lon="6.28212">
        <ele>995.1</ele>
        <time>2013-05-26T10:35:23Z</time>
      </trkpt>
      <trkpt lat="44.03421" lon="6.28241">
        <ele>998.47</ele>
        <time>2013-05-26T10:35:39Z</time>
      </trkpt>
      <trkpt lat="44.03389" lon="6.28262">
        <ele>1000.87</ele>
        <time>2013-05-26T10:36:07Z</time>
      </trkpt>
      <trkpt lat="44.03371" lon="6.2827">
        <ele>1004.23</ele>
        <time>2013-05-26T10:36:21Z</time>
      </trkpt>
      <trkpt lat="44.0332" lon="6.28286">
        <ele>1008.08</ele>
        <time>2013-05-26T10:37:00Z</time>
      </trkpt>
      <trkpt lat="44.03293" lon="6.283">
        <ele>1011.44</ele>
        <time>2013-05-26T10:37:20Z</time>
      </trkpt>
      <trkpt lat="44.03292" lon="6.28301">
        <ele>1010.96</ele>
        <time>2013-05-26T10:37:21Z</time>
      </trkpt>
      <trkpt lat="44.03252" lon="6.28326">
        <ele>1012.89</ele>
        <time>2013-05-26T10:37:54Z</time>
      </trkpt>
      <trkpt lat="44.03225" lon="6.28333">
        <ele>1013.85</ele>
        <time>2013-05-26T10:38:17Z</time>
      </trkpt>
      <trkpt lat="44.03167" lon="6.28378">
        <ele>1010.48</ele>
        <time>2013-05-26T10:38:43Z</time>
      </trkpt>
      <trkpt lat="44.03126" lon="6.28492">
        <ele>1010.96</ele>
        <time>2013-05-26T10:39:04Z</time>
      </trkpt>
      <trkpt lat="44.0308" lon="6.28532">
        <ele>1012.89</ele>
        <time>2013-05-26T10:39:19Z</time>
      </trkpt>
      <trkpt lat="44.03054" lon="6.2856">
        <ele>1009.52</ele>
        <time>2013-05-26T10:39:38Z</time>
      </trkpt>
      <trkpt lat="44.03007" lon="6.28604">
        <ele>1011.44</ele>
        <time>2013-05-26T10:39:57Z</time>
      </trkpt>
      <trkpt lat="44.02964" lon="6.2863">
        <ele>1013.85</ele>
        <time>2013-05-26T10:40:23Z</time>
      </trkpt>
      <trkpt lat="44.02925" lon="6.28639">
        <ele>1019.62</ele>
        <time>2013-05-26T10:40:59Z</time>
      </trkpt>
      <trkpt lat="44.02902" lon="6.28658">
        <ele>1024.9</ele>
        <time>2013-05-26T10:41:36Z</time>
      </trkpt>
      <trkpt lat="44.02867" lon="6.28679">
        <ele>1027.79</ele>
        <time>2013-05-26T10:42:09Z</time>
      </trkpt>
      <trkpt lat="44.02859" lon="6.287">
        <ele>1028.75</ele>
        <time>2013-05-26T10:42:25Z</time>
      </trkpt>
      <trkpt lat="44.02836" lon="6.28706">
        <ele>1032.59</ele>
        <time>2013-05-26T10:42:38Z</time>
      </trkpt>
      <trkpt lat="44.02828" lon="6.28721">
        <ele>1033.07</ele>
        <time>2013-05-26T10:42:41Z</time>
      </trkpt>
      <trkpt lat="44.02816" lon="6.28748">
        <ele>1034.04</ele>
        <time>2013-05-26T10:42:50Z</time>
      </trkpt>
      <trkpt lat="44.02762" lon="6.28795">
        <ele>1037.88</ele>
        <time>2013-05-26T10:43:25Z</time>
      </trkpt>
      <trkpt lat="44.02709" lon="6.28865">
        <ele>1043.17</ele>
        <time>2013-05-26T10:43:58Z</time>
      </trkpt>
      <trkpt lat="44.02708" lon="6.28867">
        <ele>1042.69</ele>
        <time>2013-05-26T10:43:59Z</time>
      </trkpt>
      <trkpt lat="44.02671" lon="6.28973">
        <ele>1048.94</ele>
        <time>2013-05-26T10:44:27Z</time>
      </trkpt>
      <trkpt lat="44.02666" lon="6.29067">
        <ele>1054.22</ele>
        <time>2013-05-26T10:45:04Z</time>
      </trkpt>
      <trkpt lat="44.02647" lon="6.29134">
        <ele>1059.03</ele>
        <time>2013-05-26T10:45:35Z</time>
      </trkpt>
      <trkpt lat="44.02621" lon="6.29204">
        <ele>1064.8</ele>
        <time>2013-05-26T10:46:09Z</time>
      </trkpt>
      <trkpt lat="44.02603" lon="6.29265">
        <ele>1070.57</ele>
        <time>2013-05-26T10:46:36Z</time>
      </trkpt>
      <trkpt lat="44.02611" lon="6.29336">
        <ele>1075.37</ele>
        <time>2013-05-26T10:47:06Z</time>
      </trkpt>
      <trkpt lat="44.02623" lon="6.29375">
        <ele>1078.26</ele>
        <time>2013-05-26T10:47:45Z</time>
      </trkpt>
      <trkpt lat="44.02652" lon="6.29411">
        <ele>1081.62</ele>
        <time>2013-05-26T10:48:09Z</time>
      </trkpt>
      <trkpt lat="44.02635" lon="6.29449">
        <ele>1085.47</ele>
        <time>2013-05-26T10:48:27Z</time>
      </trkpt>
      <trkpt lat="44.02625" lon="6.29483">
        <ele>1087.87</ele>
        <time>2013-05-26T10:48:42Z</time>
      </trkpt>
      <trkpt lat="44.02616" lon="6.29521">
        <ele>1091.23</ele>
        <time>2013-05-26T10:48:58Z</time>
      </trkpt>
      <trkpt lat="44.02606" lon="6.29551">
        <ele>1094.6</ele>
        <time>2013-05-26T10:49:12Z</time>
      </trkpt>
      <trkpt lat="44.02559" lon="6.29626">
        <ele>1097</ele>
        <time>2013-05-26T10:49:44Z</time>
      </trkpt>
      <trkpt lat="44.0257" lon="6.29651">
        <ele>1094.6</ele>
        <time>2013-05-26T10:49:49Z</time>
      </trkpt>
      <trkpt lat="44.02623" lon="6.29664">
        <ele>1091.23</ele>
        <time>2013-05-26T10:49:57Z</time>
      </trkpt>
      <trkpt lat="44.02632" lon="6.29664">
        <ele>1091.71</ele>
        <time>2013-05-26T10:49:58Z</time>
      </trkpt>
      <trkpt lat="44.02657" lon="6.29658">
        <ele>1089.79</ele>
        <time>2013-05-26T10:50:01Z</time>
      </trkpt>
      <trkpt lat="44.02694" lon="6.29654">
        <ele>1085.95</ele>
        <time>2013-05-26T10:50:05Z</time>
      </trkpt>
      <trkpt lat="44.02725" lon="6.29655">
        <ele>1082.58</ele>
        <time>2013-05-26T10:50:08Z</time>
      </trkpt>
      <trkpt lat="44.02736" lon="6.29656">
        <ele>1082.58</ele>
        <time>2013-05-26T10:50:09Z</time>
      </trkpt>
      <trkpt lat="44.02767" lon="6.29659">
        <ele>1080.18</ele>
        <time>2013-05-26T10:50:12Z</time>
      </trkpt>
      <trkpt lat="44.02785" lon="6.29659">
        <ele>1078.26</ele>
        <time>2013-05-26T10:50:14Z</time>
      </trkpt>
      <trkpt lat="44.02819" lon="6.29658">
        <ele>1074.41</ele>
        <time>2013-05-26T10:50:18Z</time>
      </trkpt>
      <trkpt lat="44.02842" lon="6.29662">
        <ele>1071.05</ele>
        <time>2013-05-26T10:50:21Z</time>
      </trkpt>
      <trkpt lat="44.02862" lon="6.29666">
        <ele>1067.2</ele>
        <time>2013-05-26T10:50:24Z</time>
      </trkpt>
      <trkpt lat="44.02868" lon="6.29667">
        <ele>1067.2</ele>
        <time>2013-05-26T10:50:25Z</time>
      </trkpt>
      <trkpt lat="44.02896" lon="6.29666">
        <ele>1064.8</ele>
        <time>2013-05-26T10:50:33Z</time>
      </trkpt>
      <trkpt lat="44.02902" lon="6.29671">
        <ele>1063.84</ele>
        <time>2013-05-26T10:50:52Z</time>
      </trkpt>
      <trkpt lat="44.02921" lon="6.29677">
        <ele>1062.87</ele>
        <time>2013-05-26T10:51:00Z</time>
      </trkpt>
      <trkpt lat="44.02934" lon="6.29718">
        <ele>1059.51</ele>
        <time>2013-05-26T10:51:08Z</time>
      </trkpt>
      <trkpt lat="44.0293" lon="6.29733">
        <ele>1058.55</ele>
        <time>2013-05-26T10:51:22Z</time>
      </trkpt>
      <trkpt lat="44.02932" lon="6.29742">
        <ele>1058.55</ele>
        <time>2013-05-26T10:51:47Z</time>
      </trkpt>
      <trkpt lat="44.02934" lon="6.29735">
        <ele>1058.07</ele>
        <time>2013-05-26T10:51:54Z</time>
      </trkpt>
      <trkpt lat="44.02958" lon="6.29723">
        <ele>1057.11</ele>
        <time>2013-05-26T10:52:09Z</time>
      </trkpt>
      <trkpt lat="44.02958" lon="6.29719">
        <ele>1057.11</ele>
        <time>2013-05-26T10:52:17Z</time>
      </trkpt>
      <trkpt lat="44.02929" lon="6.2974">
        <ele>1059.51</ele>
        <time>2013-05-26T10:52:31Z</time>
      </trkpt>
      <trkpt lat="44.02929" lon="6.29742">
        <ele>1059.03</ele>
        <time>2013-05-26T10:52:32Z</time>
      </trkpt>
      <trkpt lat="44.02934" lon="6.29727">
        <ele>1059.51</ele>
        <time>2013-05-26T10:52:38Z</time>
      </trkpt>
      <trkpt lat="44.02926" lon="6.2968">
        <ele>1062.39</ele>
        <time>2013-05-26T10:52:57Z</time>
      </trkpt>
      <trkpt lat="44.0291" lon="6.29671">
        <ele>1064.32</ele>
        <time>2013-05-26T10:53:07Z</time>
      </trkpt>
      <trkpt lat="44.02908" lon="6.29671">
        <ele>1064.32</ele>
        <time>2013-05-26T10:53:08Z</time>
      </trkpt>
      <trkpt lat="44.02905" lon="6.29681">
        <ele>1065.28</ele>
        <time>2013-05-26T10:53:26Z</time>
      </trkpt>
      <trkpt lat="44.02911" lon="6.29694">
        <ele>1068.64</ele>
        <time>2013-05-26T11:00:37Z</time>
      </trkpt>
      <trkpt lat="44.02911" lon="6.29693">
        <ele>1068.16</ele>
        <time>2013-05-26T11:02:08Z</time>
      </trkpt>
      <trkpt lat="44.02913" lon="6.29692">
        <ele>1072.01</ele>
        <time>2013-05-26T11:19:42Z</time>
      </trkpt>
      <trkpt lat="44.02916" lon="6.29691">
        <ele>1076.33</ele>
        <time>2013-05-26T11:49:49Z</time>
      </trkpt>
      <trkpt lat="44.02915" lon="6.29687">
        <ele>1078.26</ele>
        <time>2013-05-26T12:04:15Z</time>
      </trkpt>
      <trkpt lat="44.02903" lon="6.29665">
        <ele>1076.33</ele>
        <time>2013-05-26T12:04:31Z</time>
      </trkpt>
      <trkpt lat="44.02923" lon="6.29667">
        <ele>1073.45</ele>
        <time>2013-05-26T12:04:50Z</time>
      </trkpt>
      <trkpt lat="44.02924" lon="6.29672">
        <ele>1074.41</ele>
        <time>2013-05-26T12:05:31Z</time>
      </trkpt>
      <trkpt lat="44.0293" lon="6.29688">
        <ele>1074.41</ele>
        <time>2013-05-26T12:06:10Z</time>
      </trkpt>
      <trkpt lat="44.02931" lon="6.29688">
        <ele>1073.93</ele>
        <time>2013-05-26T12:09:13Z</time>
      </trkpt>
      <trkpt lat="44.02936" lon="6.29732">
        <ele>1071.53</ele>
        <time>2013-05-26T12:09:26Z</time>
      </trkpt>
      <trkpt lat="44.02955" lon="6.29728">
        <ele>1070.08</ele>
        <time>2013-05-26T12:09:39Z</time>
      </trkpt>
      <trkpt lat="44.02952" lon="6.29729">
        <ele>1070.08</ele>
        <time>2013-05-26T12:10:02Z</time>
      </trkpt>
      <trkpt lat="44.02937" lon="6.29737">
        <ele>1070.57</ele>
        <time>2013-05-26T12:10:53Z</time>
      </trkpt>
      <trkpt lat="44.02971" lon="6.29713">
        <ele>1067.2</ele>
        <time>2013-05-26T12:11:05Z</time>
      </trkpt>
      <trkpt lat="44.03011" lon="6.29707">
        <ele>1062.87</ele>
        <time>2013-05-26T12:11:13Z</time>
      </trkpt>
      <trkpt lat="44.03027" lon="6.29713">
        <ele>1058.55</ele>
        <time>2013-05-26T12:11:18Z</time>
      </trkpt>
      <trkpt lat="44.03044" lon="6.29711">
        <ele>1054.7</ele>
        <time>2013-05-26T12:11:23Z</time>
      </trkpt>
      <trkpt lat="44.03052" lon="6.29712">
        <ele>1050.86</ele>
        <time>2013-05-26T12:11:26Z</time>
      </trkpt>
      <trkpt lat="44.03063" lon="6.29715">
        <ele>1048.94</ele>
        <time>2013-05-26T12:11:29Z</time>
      </trkpt>
      <trkpt lat="44.03081" lon="6.29714">
        <ele>1045.57</ele>
        <time>2013-05-26T12:11:35Z</time>
      </trkpt>
      <trkpt lat="44.03095" lon="6.29712">
        <ele>1042.21</ele>
        <time>2013-05-26T12:11:41Z</time>
      </trkpt>
      <trkpt lat="44.03108" lon="6.29708">
        <ele>1039.32</ele>
        <time>2013-05-26T12:11:54Z</time>
      </trkpt>
      <trkpt lat="44.03117" lon="6.29709">
        <ele>1036.92</ele>
        <time>2013-05-26T12:11:58Z</time>
      </trkpt>
      <trkpt lat="44.03134" lon="6.2969">
        <ele>1032.11</ele>
        <time>2013-05-26T12:12:06Z</time>
      </trkpt>
      <trkpt lat="44.03136" lon="6.29691">
        <ele>1033.07</ele>
        <time>2013-05-26T12:12:07Z</time>
      </trkpt>
      <trkpt lat="44.03147" lon="6.29693">
        <ele>1033.07</ele>
        <time>2013-05-26T12:12:29Z</time>
      </trkpt>
      <trkpt lat="44.03175" lon="6.29708">
        <ele>1029.71</ele>
        <time>2013-05-26T12:12:37Z</time>
      </trkpt>
      <trkpt lat="44.03178" lon="6.29709">
        <ele>1030.19</ele>
        <time>2013-05-26T12:12:38Z</time>
      </trkpt>
      <trkpt lat="44.03185" lon="6.29709">
        <ele>1028.27</ele>
        <time>2013-05-26T12:12:40Z</time>
      </trkpt>
      <trkpt lat="44.03211" lon="6.297">
        <ele>1025.86</ele>
        <time>2013-05-26T12:12:50Z</time>
      </trkpt>
      <trkpt lat="44.03261" lon="6.29707">
        <ele>1020.1</ele>
        <time>2013-05-26T12:13:06Z</time>
      </trkpt>
      <trkpt lat="44.033" lon="6.29702">
        <ele>1018.17</ele>
        <time>2013-05-26T12:13:27Z</time>
      </trkpt>
      <trkpt lat="44.03326" lon="6.29702">
        <ele>1016.73</ele>
        <time>2013-05-26T12:13:58Z</time>
      </trkpt>
      <trkpt lat="44.0333" lon="6.29701">
        <ele>1016.73</ele>
        <time>2013-05-26T12:13:59Z</time>
      </trkpt>
      <trkpt lat="44.0335" lon="6.29697">
        <ele>1015.29</ele>
        <time>2013-05-26T12:14:05Z</time>
      </trkpt>
      <trkpt lat="44.03386" lon="6.29684">
        <ele>1011.44</ele>
        <time>2013-05-26T12:14:13Z</time>
      </trkpt>
      <trkpt lat="44.03403" lon="6.29683">
        <ele>1008.56</ele>
        <time>2013-05-26T12:14:25Z</time>
      </trkpt>
      <trkpt lat="44.03402" lon="6.29691">
        <ele>1005.68</ele>
        <time>2013-05-26T12:14:38Z</time>
      </trkpt>
      <trkpt lat="44.03404" lon="6.29724">
        <ele>1003.75</ele>
        <time>2013-05-26T12:14:53Z</time>
      </trkpt>
      <trkpt lat="44.03422" lon="6.29733">
        <ele>1006.64</ele>
        <time>2013-05-26T12:15:18Z</time>
      </trkpt>
      <trkpt lat="44.03462" lon="6.29756">
        <ele>1006.16</ele>
        <time>2013-05-26T12:15:53Z</time>
      </trkpt>
      <trkpt lat="44.03493" lon="6.29767">
        <ele>1005.68</ele>
        <time>2013-05-26T12:16:07Z</time>
      </trkpt>
      <trkpt lat="44.03509" lon="6.29773">
        <ele>1006.16</ele>
        <time>2013-05-26T12:16:12Z</time>
      </trkpt>
      <trkpt lat="44.03569" lon="6.29796">
        <ele>1002.31</ele>
        <time>2013-05-26T12:16:28Z</time>
      </trkpt>
      <trkpt lat="44.03601" lon="6.29813">
        <ele>1001.35</ele>
        <time>2013-05-26T12:16:43Z</time>
      </trkpt>
      <trkpt lat="44.03621" lon="6.29824">
        <ele>999.43</ele>
        <time>2013-05-26T12:16:52Z</time>
      </trkpt>
      <trkpt lat="44.03698" lon="6.29835">
        <ele>995.1</ele>
        <time>2013-05-26T12:17:10Z</time>
      </trkpt>
      <trkpt lat="44.03725" lon="6.29843">
        <ele>993.18</ele>
        <time>2013-05-26T12:17:15Z</time>
      </trkpt>
      <trkpt lat="44.03728" lon="6.29846">
        <ele>994.14</ele>
        <time>2013-05-26T12:17:16Z</time>
      </trkpt>
      <trkpt lat="44.03818" lon="6.29928">
        <ele>998.95</ele>
        <time>2013-05-26T12:17:46Z</time>
      </trkpt>
      <trkpt lat="44.03816" lon="6.29936">
        <ele>998.47</ele>
        <time>2013-05-26T12:17:48Z</time>
      </trkpt>
      <trkpt lat="44.03803" lon="6.29987">
        <ele>1001.83</ele>
        <time>2013-05-26T12:18:03Z</time>
      </trkpt>
      <trkpt lat="44.03827" lon="6.30055">
        <ele>1004.72</ele>
        <time>2013-05-26T12:18:24Z</time>
      </trkpt>
      <trkpt lat="44.03897" lon="6.30202">
        <ele>1007.12</ele>
        <time>2013-05-26T12:19:06Z</time>
      </trkpt>
      <trkpt lat="44.03931" lon="6.30238">
        <ele>1006.64</ele>
        <time>2013-05-26T12:19:15Z</time>
      </trkpt>
      <trkpt lat="44.03958" lon="6.30233">
        <ele>1005.68</ele>
        <time>2013-05-26T12:19:20Z</time>
      </trkpt>
      <trkpt lat="44.0401" lon="6.3018">
        <ele>1004.23</ele>
        <time>2013-05-26T12:19:32Z</time>
      </trkpt>
      <trkpt lat="44.04074" lon="6.30189">
        <ele>1001.83</ele>
        <time>2013-05-26T12:19:45Z</time>
      </trkpt>
      <trkpt lat="44.04156" lon="6.30221">
        <ele>999.43</ele>
        <time>2013-05-26T12:20:00Z</time>
      </trkpt>
      <trkpt lat="44.04225" lon="6.30192">
        <ele>999.91</ele>
        <time>2013-05-26T12:20:12Z</time>
      </trkpt>
      <trkpt lat="44.04229" lon="6.30192">
        <ele>999.91</ele>
        <time>2013-05-26T12:20:13Z</time>
      </trkpt>
      <trkpt lat="44.04251" lon="6.30189">
        <ele>999.91</ele>
        <time>2013-05-26T12:20:17Z</time>
      </trkpt>
      <trkpt lat="44.04348" lon="6.30224">
        <ele>996.54</ele>
        <time>2013-05-26T12:20:37Z</time>
      </trkpt>
      <trkpt lat="44.0434" lon="6.30319">
        <ele>989.33</ele>
        <time>2013-05-26T12:20:46Z</time>
      </trkpt>
      <trkpt lat="44.04337" lon="6.30388">
        <ele>985.49</ele>
        <time>2013-05-26T12:20:52Z</time>
      </trkpt>
      <trkpt lat="44.04322" lon="6.30506">
        <ele>982.12</ele>
        <time>2013-05-26T12:21:03Z</time>
      </trkpt>
      <trkpt lat="44.04306" lon="6.30684">
        <ele>975.39</ele>
        <time>2013-05-26T12:21:21Z</time>
      </trkpt>
      <trkpt lat="44.04305" lon="6.30694">
        <ele>975.88</ele>
        <time>2013-05-26T12:21:22Z</time>
      </trkpt>
      <trkpt lat="44.04323" lon="6.30765">
        <ele>974.91</ele>
        <time>2013-05-26T12:21:31Z</time>
      </trkpt>
      <trkpt lat="44.04353" lon="6.30816">
        <ele>974.91</ele>
        <time>2013-05-26T12:21:41Z</time>
      </trkpt>
      <trkpt lat="44.04355" lon="6.30822">
        <ele>974.91</ele>
        <time>2013-05-26T12:21:42Z</time>
      </trkpt>
      <trkpt lat="44.04382" lon="6.30901">
        <ele>976.36</ele>
        <time>2013-05-26T12:21:56Z</time>
      </trkpt>
      <trkpt lat="44.04429" lon="6.30924">
        <ele>978.28</ele>
        <time>2013-05-26T12:22:07Z</time>
      </trkpt>
      <trkpt lat="44.04487" lon="6.30846">
        <ele>983.57</ele>
        <time>2013-05-26T12:22:35Z</time>
      </trkpt>
      <trkpt lat="44.04484" lon="6.30797">
        <ele>986.93</ele>
        <time>2013-05-26T12:22:52Z</time>
      </trkpt>
      <trkpt lat="44.04492" lon="6.30761">
        <ele>990.3</ele>
        <time>2013-05-26T12:23:08Z</time>
      </trkpt>
      <trkpt lat="44.04493" lon="6.30759">
        <ele>990.3</ele>
        <time>2013-05-26T12:23:09Z</time>
      </trkpt>
      <trkpt lat="44.04514" lon="6.30696">
        <ele>995.58</ele>
        <time>2013-05-26T12:23:37Z</time>
      </trkpt>
      <trkpt lat="44.04548" lon="6.30706">
        <ele>997.02</ele>
        <time>2013-05-26T12:23:54Z</time>
      </trkpt>
      <trkpt lat="44.04613" lon="6.30705">
        <ele>1002.31</ele>
        <time>2013-05-26T12:24:24Z</time>
      </trkpt>
      <trkpt lat="44.04674" lon="6.30678">
        <ele>1008.56</ele>
        <time>2013-05-26T12:24:55Z</time>
      </trkpt>
      <trkpt lat="44.04696" lon="6.30642">
        <ele>1012.41</ele>
        <time>2013-05-26T12:25:13Z</time>
      </trkpt>
      <trkpt lat="44.04697" lon="6.30641">
        <ele>1012.41</ele>
        <time>2013-05-26T12:25:14Z</time>
      </trkpt>
      <trkpt lat="44.04727" lon="6.30631">
        <ele>1016.73</ele>
        <time>2013-05-26T12:25:33Z</time>
      </trkpt>
      <trkpt lat="44.0476" lon="6.30605">
        <ele>1020.58</ele>
        <time>2013-05-26T12:25:54Z</time>
      </trkpt>
      <trkpt lat="44.04781" lon="6.30591">
        <ele>1022.5</ele>
        <time>2013-05-26T12:26:08Z</time>
      </trkpt>
      <trkpt lat="44.04814" lon="6.30568">
        <ele>1026.83</ele>
        <time>2013-05-26T12:26:30Z</time>
      </trkpt>
      <trkpt lat="44.04834" lon="6.30605">
        <ele>1030.67</ele>
        <time>2013-05-26T12:26:54Z</time>
      </trkpt>
      <trkpt lat="44.04822" lon="6.30647">
        <ele>1034.52</ele>
        <time>2013-05-26T12:27:14Z</time>
      </trkpt>
      <trkpt lat="44.04835" lon="6.30681">
        <ele>1035.48</ele>
        <time>2013-05-26T12:27:29Z</time>
      </trkpt>
      <trkpt lat="44.04866" lon="6.30734">
        <ele>1038.84</ele>
        <time>2013-05-26T12:27:57Z</time>
      </trkpt>
      <trkpt lat="44.04901" lon="6.30834">
        <ele>1042.69</ele>
        <time>2013-05-26T12:28:42Z</time>
      </trkpt>
      <trkpt lat="44.04888" lon="6.30872">
        <ele>1046.05</ele>
        <time>2013-05-26T12:28:55Z</time>
      </trkpt>
      <trkpt lat="44.04883" lon="6.30891">
        <ele>1046.05</ele>
        <time>2013-05-26T12:29:01Z</time>
      </trkpt>
      <trkpt lat="44.04876" lon="6.3095">
        <ele>1047.49</ele>
        <time>2013-05-26T12:29:20Z</time>
      </trkpt>
      <trkpt lat="44.04882" lon="6.30981">
        <ele>1050.86</ele>
        <time>2013-05-26T12:29:32Z</time>
      </trkpt>
      <trkpt lat="44.04884" lon="6.30992">
        <ele>1050.38</ele>
        <time>2013-05-26T12:29:37Z</time>
      </trkpt>
      <trkpt lat="44.04886" lon="6.31001">
        <ele>1050.38</ele>
        <time>2013-05-26T12:29:40Z</time>
      </trkpt>
      <trkpt lat="44.04912" lon="6.31017">
        <ele>1047.01</ele>
        <time>2013-05-26T12:29:51Z</time>
      </trkpt>
      <trkpt lat="44.04965" lon="6.31009">
        <ele>1042.69</ele>
        <time>2013-05-26T12:30:04Z</time>
      </trkpt>
      <trkpt lat="44.04982" lon="6.31019">
        <ele>1041.73</ele>
        <time>2013-05-26T12:30:17Z</time>
      </trkpt>
      <trkpt lat="44.05039" lon="6.30996">
        <ele>1044.13</ele>
        <time>2013-05-26T12:30:48Z</time>
      </trkpt>
      <trkpt lat="44.05078" lon="6.30993">
        <ele>1045.57</ele>
        <time>2013-05-26T12:31:08Z</time>
      </trkpt>
      <trkpt lat="44.05122" lon="6.31022">
        <ele>1048.45</ele>
        <time>2013-05-26T12:31:32Z</time>
      </trkpt>
      <trkpt lat="44.05149" lon="6.31011">
        <ele>1050.86</ele>
        <time>2013-05-26T12:31:47Z</time>
      </trkpt>
      <trkpt lat="44.0515" lon="6.31008">
        <ele>1050.38</ele>
        <time>2013-05-26T12:31:48Z</time>
      </trkpt>
      <trkpt lat="44.05164" lon="6.30995">
        <ele>1052.78</ele>
        <time>2013-05-26T12:31:56Z</time>
      </trkpt>
      <trkpt lat="44.0518" lon="6.3098">
        <ele>1056.15</ele>
        <time>2013-05-26T12:32:10Z</time>
      </trkpt>
      <trkpt lat="44.052" lon="6.30947">
        <ele>1059.51</ele>
        <time>2013-05-26T12:32:37Z</time>
      </trkpt>
      <trkpt lat="44.0521" lon="6.30936">
        <ele>1061.43</ele>
        <time>2013-05-26T12:33:07Z</time>
      </trkpt>
      <trkpt lat="44.05233" lon="6.3091">
        <ele>1063.36</ele>
        <time>2013-05-26T12:33:24Z</time>
      </trkpt>
      <trkpt lat="44.05267" lon="6.30872">
        <ele>1063.84</ele>
        <time>2013-05-26T12:33:51Z</time>
      </trkpt>
      <trkpt lat="44.0528" lon="6.3091">
        <ele>1062.87</ele>
        <time>2013-05-26T12:34:11Z</time>
      </trkpt>
      <trkpt lat="44.05298" lon="6.30947">
        <ele>1062.87</ele>
        <time>2013-05-26T12:34:23Z</time>
      </trkpt>
      <trkpt lat="44.05325" lon="6.30983">
        <ele>1059.99</ele>
        <time>2013-05-26T12:34:42Z</time>
      </trkpt>
      <trkpt lat="44.05332" lon="6.31026">
        <ele>1057.59</ele>
        <time>2013-05-26T12:34:54Z</time>
      </trkpt>
      <trkpt lat="44.05337" lon="6.31053">
        <ele>1057.11</ele>
        <time>2013-05-26T12:35:07Z</time>
      </trkpt>
      <trkpt lat="44.05361" lon="6.31106">
        <ele>1054.22</ele>
        <time>2013-05-26T12:35:16Z</time>
      </trkpt>
      <trkpt lat="44.05368" lon="6.31111">
        <ele>1053.26</ele>
        <time>2013-05-26T12:35:18Z</time>
      </trkpt>
      <trkpt lat="44.05411" lon="6.31135">
        <ele>1051.82</ele>
        <time>2013-05-26T12:35:39Z</time>
      </trkpt>
      <trkpt lat="44.05438" lon="6.3117">
        <ele>1050.38</ele>
        <time>2013-05-26T12:35:51Z</time>
      </trkpt>
      <trkpt lat="44.05453" lon="6.3117">
        <ele>1051.34</ele>
        <time>2013-05-26T12:35:57Z</time>
      </trkpt>
      <trkpt lat="44.05471" lon="6.31118">
        <ele>1049.9</ele>
        <time>2013-05-26T12:36:08Z</time>
      </trkpt>
      <trkpt lat="44.05513" lon="6.31022">
        <ele>1047.49</ele>
        <time>2013-05-26T12:36:24Z</time>
      </trkpt>
      <trkpt lat="44.05527" lon="6.31025">
        <ele>1046.05</ele>
        <time>2013-05-26T12:36:27Z</time>
      </trkpt>
      <trkpt lat="44.05534" lon="6.31038">
        <ele>1045.09</ele>
        <time>2013-05-26T12:36:29Z</time>
      </trkpt>
      <trkpt lat="44.05538" lon="6.31044">
        <ele>1045.57</ele>
        <time>2013-05-26T12:36:30Z</time>
      </trkpt>
      <trkpt lat="44.05555" lon="6.31092">
        <ele>1042.21</ele>
        <time>2013-05-26T12:36:37Z</time>
      </trkpt>
      <trkpt lat="44.05578" lon="6.31092">
        <ele>1039.32</ele>
        <time>2013-05-26T12:36:41Z</time>
      </trkpt>
      <trkpt lat="44.05584" lon="6.31093">
        <ele>1039.32</ele>
        <time>2013-05-26T12:36:42Z</time>
      </trkpt>
      <trkpt lat="44.05624" lon="6.3105">
        <ele>1035.96</ele>
        <time>2013-05-26T12:36:51Z</time>
      </trkpt>
      <trkpt lat="44.05688" lon="6.31046">
        <ele>1034.04</ele>
        <time>2013-05-26T12:37:04Z</time>
      </trkpt>
      <trkpt lat="44.05713" lon="6.31029">
        <ele>1037.4</ele>
        <time>2013-05-26T12:37:17Z</time>
      </trkpt>
      <trkpt lat="44.0575" lon="6.31017">
        <ele>1040.76</ele>
        <time>2013-05-26T12:37:35Z</time>
      </trkpt>
      <trkpt lat="44.05782" lon="6.3101">
        <ele>1039.8</ele>
        <time>2013-05-26T12:37:44Z</time>
      </trkpt>
      <trkpt lat="44.05827" lon="6.31042">
        <ele>1038.36</ele>
        <time>2013-05-26T12:37:54Z</time>
      </trkpt>
      <trkpt lat="44.05839" lon="6.31065">
        <ele>1038.84</ele>
        <time>2013-05-26T12:37:59Z</time>
      </trkpt>
      <trkpt lat="44.05857" lon="6.31122">
        <ele>1044.61</ele>
        <time>2013-05-26T12:38:16Z</time>
      </trkpt>
      <trkpt lat="44.05858" lon="6.31126">
        <ele>1044.61</ele>
        <time>2013-05-26T12:38:17Z</time>
      </trkpt>
      <trkpt lat="44.05901" lon="6.31174">
        <ele>1044.13</ele>
        <time>2013-05-26T12:38:34Z</time>
      </trkpt>
      <trkpt lat="44.05906" lon="6.31198">
        <ele>1044.61</ele>
        <time>2013-05-26T12:38:38Z</time>
      </trkpt>
      <trkpt lat="44.05918" lon="6.31228">
        <ele>1044.61</ele>
        <time>2013-05-26T12:38:43Z</time>
      </trkpt>
      <trkpt lat="44.05944" lon="6.31295">
        <ele>1044.13</ele>
        <time>2013-05-26T12:38:54Z</time>
      </trkpt>
      <trkpt lat="44.05984" lon="6.3133">
        <ele>1043.65</ele>
        <time>2013-05-26T12:39:03Z</time>
      </trkpt>
      <trkpt lat="44.06054" lon="6.31414">
        <ele>1038.84</ele>
        <time>2013-05-26T12:39:16Z</time>
      </trkpt>
      <trkpt lat="44.06085" lon="6.31455">
        <ele>1035</ele>
        <time>2013-05-26T12:39:21Z</time>
      </trkpt>
      <trkpt lat="44.06136" lon="6.31492">
        <ele>1035.48</ele>
        <time>2013-05-26T12:39:31Z</time>
      </trkpt>
      <trkpt lat="44.06148" lon="6.31453">
        <ele>1037.4</ele>
        <time>2013-05-26T12:39:36Z</time>
      </trkpt>
      <trkpt lat="44.06164" lon="6.31433">
        <ele>1038.36</ele>
        <time>2013-05-26T12:39:41Z</time>
      </trkpt>
      <trkpt lat="44.06197" lon="6.31412">
        <ele>1042.21</ele>
        <time>2013-05-26T12:39:53Z</time>
      </trkpt>
      <trkpt lat="44.06219" lon="6.31387">
        <ele>1045.57</ele>
        <time>2013-05-26T12:40:04Z</time>
      </trkpt>
      <trkpt lat="44.06269" lon="6.31361">
        <ele>1044.61</ele>
        <time>2013-05-26T12:40:21Z</time>
      </trkpt>
      <trkpt lat="44.0633" lon="6.31346">
        <ele>1045.57</ele>
        <time>2013-05-26T12:40:35Z</time>
      </trkpt>
      <trkpt lat="44.06403" lon="6.31315">
        <ele>1039.8</ele>
        <time>2013-05-26T12:40:47Z</time>
      </trkpt>
      <trkpt lat="44.0641" lon="6.3131">
        <ele>1040.28</ele>
        <time>2013-05-26T12:40:48Z</time>
      </trkpt>
      <trkpt lat="44.06423" lon="6.31299">
        <ele>1040.28</ele>
        <time>2013-05-26T12:40:50Z</time>
      </trkpt>
      <trkpt lat="44.06463" lon="6.31264">
        <ele>1042.21</ele>
        <time>2013-05-26T12:41:00Z</time>
      </trkpt>
      <trkpt lat="44.06494" lon="6.31247">
        <ele>1041.73</ele>
        <time>2013-05-26T12:41:07Z</time>
      </trkpt>
      <trkpt lat="44.06579" lon="6.31183">
        <ele>1039.8</ele>
        <time>2013-05-26T12:41:28Z</time>
      </trkpt>
      <trkpt lat="44.06594" lon="6.31115">
        <ele>1034.04</ele>
        <time>2013-05-26T12:41:34Z</time>
      </trkpt>
      <trkpt lat="44.06596" lon="6.31085">
        <ele>1032.11</ele>
        <time>2013-05-26T12:41:36Z</time>
      </trkpt>
      <trkpt lat="44.06603" lon="6.31005">
        <ele>1028.27</ele>
        <time>2013-05-26T12:41:42Z</time>
      </trkpt>
      <trkpt lat="44.06594" lon="6.30974">
        <ele>1026.34</ele>
        <time>2013-05-26T12:41:48Z</time>
      </trkpt>
      <trkpt lat="44.06593" lon="6.30978">
        <ele>1025.86</ele>
        <time>2013-05-26T12:41:55Z</time>
      </trkpt>
      <trkpt lat="44.06596" lon="6.3098">
        <ele>1025.38</ele>
        <time>2013-05-26T12:42:09Z</time>
      </trkpt>
      <trkpt lat="44.06579" lon="6.30985">
        <ele>1026.34</ele>
        <time>2013-05-26T12:42:20Z</time>
      </trkpt>
      <trkpt lat="44.0658" lon="6.30989">
        <ele>1026.83</ele>
        <time>2013-05-26T12:43:45Z</time>
      </trkpt>
      <trkpt lat="44.06584" lon="6.30982">
        <ele>1026.83</ele>
        <time>2013-05-26T12:44:41Z</time>
      </trkpt>
      <trkpt lat="44.06647" lon="6.31027">
        <ele>1024.42</ele>
        <time>2013-05-26T12:45:01Z</time>
      </trkpt>
      <trkpt lat="44.06654" lon="6.31037">
        <ele>1024.42</ele>
        <time>2013-05-26T12:45:04Z</time>
      </trkpt>
      <trkpt lat="44.06691" lon="6.31072">
        <ele>1025.38</ele>
        <time>2013-05-26T12:45:19Z</time>
      </trkpt>
      <trkpt lat="44.06723" lon="6.31117">
        <ele>1023.94</ele>
        <time>2013-05-26T12:45:28Z</time>
      </trkpt>
      <trkpt lat="44.06768" lon="6.31181">
        <ele>1022.5</ele>
        <time>2013-05-26T12:45:38Z</time>
      </trkpt>
      <trkpt lat="44.06811" lon="6.31161">
        <ele>1023.94</ele>
        <time>2013-05-26T12:45:53Z</time>
      </trkpt>
      <trkpt lat="44.06811" lon="6.31119">
        <ele>1026.83</ele>
        <time>2013-05-26T12:46:08Z</time>
      </trkpt>
      <trkpt lat="44.06806" lon="6.311">
        <ele>1023.94</ele>
        <time>2013-05-26T12:46:52Z</time>
      </trkpt>
      <trkpt lat="44.0681" lon="6.31075">
        <ele>1022.5</ele>
        <time>2013-05-26T12:47:13Z</time>
      </trkpt>
      <trkpt lat="44.06798" lon="6.31041">
        <ele>1018.65</ele>
        <time>2013-05-26T12:47:23Z</time>
      </trkpt>
      <trkpt lat="44.06791" lon="6.31018">
        <ele>1015.29</ele>
        <time>2013-05-26T12:47:28Z</time>
      </trkpt>
      <trkpt lat="44.06776" lon="6.30976">
        <ele>1009.04</ele>
        <time>2013-05-26T12:47:35Z</time>
      </trkpt>
      <trkpt lat="44.06768" lon="6.30951">
        <ele>1005.2</ele>
        <time>2013-05-26T12:47:40Z</time>
      </trkpt>
      <trkpt lat="44.06767" lon="6.30944">
        <ele>1004.72</ele>
        <time>2013-05-26T12:47:59Z</time>
      </trkpt>
      <trkpt lat="44.06799" lon="6.30911">
        <ele>1006.64</ele>
        <time>2013-05-26T12:48:18Z</time>
      </trkpt>
      <trkpt lat="44.06818" lon="6.30901">
        <ele>1004.23</ele>
        <time>2013-05-26T12:48:36Z</time>
      </trkpt>
      <trkpt lat="44.06864" lon="6.30918">
        <ele>1001.83</ele>
        <time>2013-05-26T12:49:00Z</time>
      </trkpt>
      <trkpt lat="44.0687" lon="6.30918">
        <ele>1001.83</ele>
        <time>2013-05-26T12:49:04Z</time>
      </trkpt>
      <trkpt lat="44.06966" lon="6.30911">
        <ele>999.43</ele>
        <time>2013-05-26T12:49:51Z</time>
      </trkpt>
      <trkpt lat="44.07001" lon="6.30968">
        <ele>993.18</ele>
        <time>2013-05-26T12:50:03Z</time>
      </trkpt>
      <trkpt lat="44.07058" lon="6.31013">
        <ele>988.37</ele>
        <time>2013-05-26T12:50:29Z</time>
      </trkpt>
      <trkpt lat="44.07072" lon="6.31004">
        <ele>986.93</ele>
        <time>2013-05-26T12:50:45Z</time>
      </trkpt>
      <trkpt lat="44.07103" lon="6.31007">
        <ele>983.57</ele>
        <time>2013-05-26T12:50:58Z</time>
      </trkpt>
      <trkpt lat="44.07114" lon="6.31001">
        <ele>981.16</ele>
        <time>2013-05-26T12:51:40Z</time>
      </trkpt>
      <trkpt lat="44.07128" lon="6.30992">
        <ele>977.8</ele>
        <time>2013-05-26T12:51:49Z</time>
      </trkpt>
      <trkpt lat="44.07143" lon="6.30995">
        <ele>974.43</ele>
        <time>2013-05-26T12:51:59Z</time>
      </trkpt>
      <trkpt lat="44.07144" lon="6.30995">
        <ele>974.43</ele>
        <time>2013-05-26T12:52:00Z</time>
      </trkpt>
      <trkpt lat="44.07155" lon="6.30994">
        <ele>974.43</ele>
        <time>2013-05-26T12:52:12Z</time>
      </trkpt>
      <trkpt lat="44.07226" lon="6.3096">
        <ele>976.36</ele>
        <time>2013-05-26T12:53:08Z</time>
      </trkpt>
      <trkpt lat="44.07291" lon="6.30921">
        <ele>974.43</ele>
        <time>2013-05-26T12:53:41Z</time>
      </trkpt>
      <trkpt lat="44.0732" lon="6.30899">
        <ele>971.07</ele>
        <time>2013-05-26T12:53:51Z</time>
      </trkpt>
      <trkpt lat="44.07342" lon="6.30875">
        <ele>969.15</ele>
        <time>2013-05-26T12:54:06Z</time>
      </trkpt>
      <trkpt lat="44.07352" lon="6.30875">
        <ele>969.15</ele>
        <time>2013-05-26T12:54:18Z</time>
      </trkpt>
      <trkpt lat="44.07377" lon="6.30928">
        <ele>969.63</ele>
        <time>2013-05-26T12:54:41Z</time>
      </trkpt>
      <trkpt lat="44.0744" lon="6.3096">
        <ele>972.03</ele>
        <time>2013-05-26T12:55:02Z</time>
      </trkpt>
      <trkpt lat="44.07501" lon="6.30993">
        <ele>973.47</ele>
        <time>2013-05-26T12:55:21Z</time>
      </trkpt>
      <trkpt lat="44.07503" lon="6.30999">
        <ele>972.99</ele>
        <time>2013-05-26T12:55:22Z</time>
      </trkpt>
      <trkpt lat="44.07521" lon="6.31045">
        <ele>971.55</ele>
        <time>2013-05-26T12:55:29Z</time>
      </trkpt>
      <trkpt lat="44.07546" lon="6.31069">
        <ele>971.07</ele>
        <time>2013-05-26T12:55:40Z</time>
      </trkpt>
      <trkpt lat="44.07566" lon="6.30999">
        <ele>973.95</ele>
        <time>2013-05-26T12:55:55Z</time>
      </trkpt>
      <trkpt lat="44.07567" lon="6.30995">
        <ele>973.95</ele>
        <time>2013-05-26T12:55:56Z</time>
      </trkpt>
      <trkpt lat="44.07586" lon="6.30929">
        <ele>979.24</ele>
        <time>2013-05-26T12:56:18Z</time>
      </trkpt>
      <trkpt lat="44.07629" lon="6.3093">
        <ele>985.01</ele>
        <time>2013-05-26T12:56:42Z</time>
      </trkpt>
      <trkpt lat="44.07616" lon="6.30974">
        <ele>989.81</ele>
        <time>2013-05-26T12:57:03Z</time>
      </trkpt>
      <trkpt lat="44.07616" lon="6.30976">
        <ele>989.81</ele>
        <time>2013-05-26T12:57:04Z</time>
      </trkpt>
      <trkpt lat="44.07619" lon="6.30995">
        <ele>993.18</ele>
        <time>2013-05-26T12:57:15Z</time>
      </trkpt>
      <trkpt lat="44.07676" lon="6.31005">
        <ele>995.58</ele>
        <time>2013-05-26T12:57:42Z</time>
      </trkpt>
      <trkpt lat="44.07707" lon="6.30976">
        <ele>998.47</ele>
        <time>2013-05-26T12:57:59Z</time>
      </trkpt>
      <trkpt lat="44.07733" lon="6.30948">
        <ele>1003.27</ele>
        <time>2013-05-26T12:58:17Z</time>
      </trkpt>
      <trkpt lat="44.07766" lon="6.30885">
        <ele>1009.52</ele>
        <time>2013-05-26T12:58:49Z</time>
      </trkpt>
      <trkpt lat="44.07799" lon="6.30835">
        <ele>1009.52</ele>
        <time>2013-05-26T12:59:06Z</time>
      </trkpt>
      <trkpt lat="44.0784" lon="6.30747">
        <ele>1010</ele>
        <time>2013-05-26T12:59:27Z</time>
      </trkpt>
      <trkpt lat="44.07843" lon="6.30684">
        <ele>1007.12</ele>
        <time>2013-05-26T12:59:36Z</time>
      </trkpt>
      <trkpt lat="44.07865" lon="6.30675">
        <ele>1005.2</ele>
        <time>2013-05-26T12:59:40Z</time>
      </trkpt>
      <trkpt lat="44.07872" lon="6.30677">
        <ele>1004.23</ele>
        <time>2013-05-26T12:59:41Z</time>
      </trkpt>
      <trkpt lat="44.07879" lon="6.3068">
        <ele>1004.23</ele>
        <time>2013-05-26T12:59:42Z</time>
      </trkpt>
      <trkpt lat="44.07924" lon="6.30691">
        <ele>998.95</ele>
        <time>2013-05-26T12:59:51Z</time>
      </trkpt>
      <trkpt lat="44.07928" lon="6.30654">
        <ele>997.02</ele>
        <time>2013-05-26T12:59:55Z</time>
      </trkpt>
      <trkpt lat="44.07953" lon="6.30635">
        <ele>993.18</ele>
        <time>2013-05-26T13:00:00Z</time>
      </trkpt>
      <trkpt lat="44.07978" lon="6.30676">
        <ele>988.85</ele>
        <time>2013-05-26T13:00:05Z</time>
      </trkpt>
      <trkpt lat="44.07983" lon="6.30713">
        <ele>985.01</ele>
        <time>2013-05-26T13:00:08Z</time>
      </trkpt>
      <trkpt lat="44.07983" lon="6.30741">
        <ele>980.68</ele>
        <time>2013-05-26T13:00:10Z</time>
      </trkpt>
      <trkpt lat="44.07986" lon="6.30798">
        <ele>977.32</ele>
        <time>2013-05-26T13:00:14Z</time>
      </trkpt>
      <trkpt lat="44.07991" lon="6.30834">
        <ele>976.36</ele>
        <time>2013-05-26T13:00:17Z</time>
      </trkpt>
      <trkpt lat="44.08006" lon="6.30926">
        <ele>973.95</ele>
        <time>2013-05-26T13:00:26Z</time>
      </trkpt>
      <trkpt lat="44.0803" lon="6.30986">
        <ele>974.43</ele>
        <time>2013-05-26T13:00:35Z</time>
      </trkpt>
      <trkpt lat="44.08051" lon="6.30984">
        <ele>972.99</ele>
        <time>2013-05-26T13:00:39Z</time>
      </trkpt>
      <trkpt lat="44.08091" lon="6.30951">
        <ele>971.07</ele>
        <time>2013-05-26T13:00:46Z</time>
      </trkpt>
      <trkpt lat="44.0812" lon="6.30919">
        <ele>968.67</ele>
        <time>2013-05-26T13:00:51Z</time>
      </trkpt>
      <trkpt lat="44.08165" lon="6.30872">
        <ele>965.3</ele>
        <time>2013-05-26T13:00:59Z</time>
      </trkpt>
      <trkpt lat="44.0818" lon="6.30866">
        <ele>965.78</ele>
        <time>2013-05-26T13:01:01Z</time>
      </trkpt>
      <trkpt lat="44.0823" lon="6.30851">
        <ele>960.98</ele>
        <time>2013-05-26T13:01:08Z</time>
      </trkpt>
      <trkpt lat="44.08245" lon="6.3084">
        <ele>957.61</ele>
        <time>2013-05-26T13:01:11Z</time>
      </trkpt>
      <trkpt lat="44.08309" lon="6.30819">
        <ele>952.8</ele>
        <time>2013-05-26T13:01:24Z</time>
      </trkpt>
      <trkpt lat="44.08346" lon="6.30845">
        <ele>955.69</ele>
        <time>2013-05-26T13:01:40Z</time>
      </trkpt>
      <trkpt lat="44.08388" lon="6.30898">
        <ele>958.09</ele>
        <time>2013-05-26T13:02:01Z</time>
      </trkpt>
      <trkpt lat="44.0846" lon="6.30966">
        <ele>957.61</ele>
        <time>2013-05-26T13:02:27Z</time>
      </trkpt>
      <trkpt lat="44.0855" lon="6.31122">
        <ele>962.42</ele>
        <time>2013-05-26T13:03:14Z</time>
      </trkpt>
      <trkpt lat="44.0863" lon="6.3111">
        <ele>963.38</ele>
        <time>2013-05-26T13:03:43Z</time>
      </trkpt>
      <trkpt lat="44.08669" lon="6.31138">
        <ele>965.78</ele>
        <time>2013-05-26T13:04:04Z</time>
      </trkpt>
      <trkpt lat="44.08722" lon="6.3118">
        <ele>970.59</ele>
        <time>2013-05-26T13:04:36Z</time>
      </trkpt>
      <trkpt lat="44.08707" lon="6.31196">
        <ele>972.03</ele>
        <time>2013-05-26T13:04:52Z</time>
      </trkpt>
      <trkpt lat="44.08718" lon="6.31213">
        <ele>974.91</ele>
        <time>2013-05-26T13:05:04Z</time>
      </trkpt>
      <trkpt lat="44.0876" lon="6.31187">
        <ele>978.28</ele>
        <time>2013-05-26T13:05:23Z</time>
      </trkpt>
      <trkpt lat="44.08799" lon="6.31158">
        <ele>981.64</ele>
        <time>2013-05-26T13:05:41Z</time>
      </trkpt>
      <trkpt lat="44.08803" lon="6.31159">
        <ele>982.12</ele>
        <time>2013-05-26T13:06:49Z</time>
      </trkpt>
      <trkpt lat="44.08803" lon="6.31159">
        <ele>982.6</ele>
        <time>2013-05-26T13:06:51Z</time>
      </trkpt>
      <trkpt lat="44.08839" lon="6.3118">
        <ele>984.53</ele>
        <time>2013-05-26T13:07:10Z</time>
      </trkpt>
      <trkpt lat="44.08921" lon="6.31215">
        <ele>990.78</ele>
        <time>2013-05-26T13:07:45Z</time>
      </trkpt>
      <trkpt lat="44.08937" lon="6.31308">
        <ele>994.62</ele>
        <time>2013-05-26T13:08:15Z</time>
      </trkpt>
      <trkpt lat="44.08907" lon="6.31346">
        <ele>998.47</ele>
        <time>2013-05-26T13:08:33Z</time>
      </trkpt>
      <trkpt lat="44.08847" lon="6.31349">
        <ele>1003.27</ele>
        <time>2013-05-26T13:09:01Z</time>
      </trkpt>
      <trkpt lat="44.08867" lon="6.31373">
        <ele>1006.64</ele>
        <time>2013-05-26T13:09:13Z</time>
      </trkpt>
      <trkpt lat="44.0894" lon="6.3143">
        <ele>1010.96</ele>
        <time>2013-05-26T13:09:47Z</time>
      </trkpt>
      <trkpt lat="44.09043" lon="6.31435">
        <ele>1014.81</ele>
        <time>2013-05-26T13:10:21Z</time>
      </trkpt>
      <trkpt lat="44.09126" lon="6.31403">
        <ele>1017.69</ele>
        <time>2013-05-26T13:10:50Z</time>
      </trkpt>
      <trkpt lat="44.09185" lon="6.31483">
        <ele>1021.06</ele>
        <time>2013-05-26T13:11:18Z</time>
      </trkpt>
      <trkpt lat="44.09227" lon="6.31492">
        <ele>1022.02</ele>
        <time>2013-05-26T13:11:36Z</time>
      </trkpt>
      <trkpt lat="44.09266" lon="6.31541">
        <ele>1022.02</ele>
        <time>2013-05-26T13:11:54Z</time>
      </trkpt>
      <trkpt lat="44.09332" lon="6.31596">
        <ele>1020.1</ele>
        <time>2013-05-26T13:12:18Z</time>
      </trkpt>
      <trkpt lat="44.09363" lon="6.31576">
        <ele>1016.73</ele>
        <time>2013-05-26T13:12:24Z</time>
      </trkpt>
      <trkpt lat="44.09374" lon="6.31611">
        <ele>1014.33</ele>
        <time>2013-05-26T13:12:30Z</time>
      </trkpt>
      <trkpt lat="44.09367" lon="6.31632">
        <ele>1013.37</ele>
        <time>2013-05-26T13:12:33Z</time>
      </trkpt>
      <trkpt lat="44.09369" lon="6.31677">
        <ele>1010.48</ele>
        <time>2013-05-26T13:12:40Z</time>
      </trkpt>
      <trkpt lat="44.09384" lon="6.3172">
        <ele>1007.6</ele>
        <time>2013-05-26T13:12:49Z</time>
      </trkpt>
      <trkpt lat="44.09392" lon="6.3172">
        <ele>1008.08</ele>
        <time>2013-05-26T13:12:51Z</time>
      </trkpt>
      <trkpt lat="44.09419" lon="6.31732">
        <ele>1006.16</ele>
        <time>2013-05-26T13:12:57Z</time>
      </trkpt>
      <trkpt lat="44.09422" lon="6.31736">
        <ele>1006.16</ele>
        <time>2013-05-26T13:12:58Z</time>
      </trkpt>
      <trkpt lat="44.09445" lon="6.31764">
        <ele>1005.2</ele>
        <time>2013-05-26T13:13:09Z</time>
      </trkpt>
      <trkpt lat="44.09444" lon="6.31766">
        <ele>1005.2</ele>
        <time>2013-05-26T13:14:14Z</time>
      </trkpt>
      <trkpt lat="44.09444" lon="6.31767">
        <ele>1004.72</ele>
        <time>2013-05-26T13:15:29Z</time>
      </trkpt>
      <trkpt lat="44.09433" lon="6.31806">
        <ele>1002.31</ele>
        <time>2013-05-26T13:15:39Z</time>
      </trkpt>
      <trkpt lat="44.09425" lon="6.31857">
        <ele>1000.39</ele>
        <time>2013-05-26T13:15:45Z</time>
      </trkpt>
      <trkpt lat="44.09421" lon="6.31866">
        <ele>1000.39</ele>
        <time>2013-05-26T13:15:46Z</time>
      </trkpt>
      <trkpt lat="44.09423" lon="6.31917">
        <ele>995.58</ele>
        <time>2013-05-26T13:15:52Z</time>
      </trkpt>
      <trkpt lat="44.09419" lon="6.31929">
        <ele>995.58</ele>
        <time>2013-05-26T13:15:53Z</time>
      </trkpt>
      <trkpt lat="44.09405" lon="6.31953">
        <ele>993.66</ele>
        <time>2013-05-26T13:15:57Z</time>
      </trkpt>
      <trkpt lat="44.09408" lon="6.31957">
        <ele>994.14</ele>
        <time>2013-05-26T13:15:58Z</time>
      </trkpt>
      <trkpt lat="44.0941" lon="6.31961">
        <ele>993.66</ele>
        <time>2013-05-26T13:15:59Z</time>
      </trkpt>
      <trkpt lat="44.09444" lon="6.31984">
        <ele>989.81</ele>
        <time>2013-05-26T13:16:06Z</time>
      </trkpt>
      <trkpt lat="44.09452" lon="6.31999">
        <ele>988.85</ele>
        <time>2013-05-26T13:16:08Z</time>
      </trkpt>
      <trkpt lat="44.09469" lon="6.32031">
        <ele>987.41</ele>
        <time>2013-05-26T13:16:12Z</time>
      </trkpt>
      <trkpt lat="44.09493" lon="6.32043">
        <ele>985.49</ele>
        <time>2013-05-26T13:16:16Z</time>
      </trkpt>
      <trkpt lat="44.09545" lon="6.32049">
        <ele>984.05</ele>
        <time>2013-05-26T13:16:32Z</time>
      </trkpt>
      <trkpt lat="44.09557" lon="6.32053">
        <ele>984.05</ele>
        <time>2013-05-26T13:16:44Z</time>
      </trkpt>
      <trkpt lat="44.09612" lon="6.32057">
        <ele>985.01</ele>
        <time>2013-05-26T13:17:01Z</time>
      </trkpt>
      <trkpt lat="44.0964" lon="6.32029">
        <ele>986.93</ele>
        <time>2013-05-26T13:17:13Z</time>
      </trkpt>
      <trkpt lat="44.09633" lon="6.3196">
        <ele>988.37</ele>
        <time>2013-05-26T13:17:28Z</time>
      </trkpt>
      <trkpt lat="44.09645" lon="6.31959">
        <ele>989.33</ele>
        <time>2013-05-26T13:17:34Z</time>
      </trkpt>
      <trkpt lat="44.09683" lon="6.32003">
        <ele>992.22</ele>
        <time>2013-05-26T13:17:53Z</time>
      </trkpt>
      <trkpt lat="44.09716" lon="6.32017">
        <ele>993.18</ele>
        <time>2013-05-26T13:18:20Z</time>
      </trkpt>
      <trkpt lat="44.09791" lon="6.32012">
        <ele>997.02</ele>
        <time>2013-05-26T13:18:56Z</time>
      </trkpt>
      <trkpt lat="44.09797" lon="6.32017">
        <ele>996.54</ele>
        <time>2013-05-26T13:19:00Z</time>
      </trkpt>
      <trkpt lat="44.09823" lon="6.32083">
        <ele>999.43</ele>
        <time>2013-05-26T13:19:29Z</time>
      </trkpt>
      <trkpt lat="44.09828" lon="6.32092">
        <ele>999.43</ele>
        <time>2013-05-26T13:19:33Z</time>
      </trkpt>
      <trkpt lat="44.0985" lon="6.32122">
        <ele>1001.83</ele>
        <time>2013-05-26T13:19:58Z</time>
      </trkpt>
      <trkpt lat="44.0987" lon="6.32131">
        <ele>1001.83</ele>
        <time>2013-05-26T13:20:11Z</time>
      </trkpt>
      <trkpt lat="44.09897" lon="6.32116">
        <ele>1000.39</ele>
        <time>2013-05-26T13:20:28Z</time>
      </trkpt>
      <trkpt lat="44.0989" lon="6.32089">
        <ele>1002.79</ele>
        <time>2013-05-26T13:20:39Z</time>
      </trkpt>
      <trkpt lat="44.09903" lon="6.3205">
        <ele>1006.16</ele>
        <time>2013-05-26T13:20:56Z</time>
      </trkpt>
      <trkpt lat="44.09907" lon="6.3204">
        <ele>1006.16</ele>
        <time>2013-05-26T13:21:00Z</time>
      </trkpt>
      <trkpt lat="44.09906" lon="6.31986">
        <ele>1009.04</ele>
        <time>2013-05-26T13:21:19Z</time>
      </trkpt>
      <trkpt lat="44.09938" lon="6.31929">
        <ele>1012.41</ele>
        <time>2013-05-26T13:21:45Z</time>
      </trkpt>
      <trkpt lat="44.09966" lon="6.31899">
        <ele>1015.29</ele>
        <time>2013-05-26T13:22:07Z</time>
      </trkpt>
      <trkpt lat="44.10011" lon="6.31852">
        <ele>1016.73</ele>
        <time>2013-05-26T13:22:37Z</time>
      </trkpt>
      <trkpt lat="44.10015" lon="6.31849">
        <ele>1016.25</ele>
        <time>2013-05-26T13:22:49Z</time>
      </trkpt>
      <trkpt lat="44.10031" lon="6.31766">
        <ele>1016.25</ele>
        <time>2013-05-26T13:23:13Z</time>
      </trkpt>
      <trkpt lat="44.10051" lon="6.31708">
        <ele>1015.29</ele>
        <time>2013-05-26T13:23:25Z</time>
      </trkpt>
      <trkpt lat="44.10081" lon="6.31719">
        <ele>1016.73</ele>
        <time>2013-05-26T13:23:41Z</time>
      </trkpt>
      <trkpt lat="44.10079" lon="6.31728">
        <ele>1016.25</ele>
        <time>2013-05-26T13:26:25Z</time>
      </trkpt>
      <trkpt lat="44.10088" lon="6.31731">
        <ele>1016.73</ele>
        <time>2013-05-26T13:27:02Z</time>
      </trkpt>
      <trkpt lat="44.10091" lon="6.31738">
        <ele>1016.73</ele>
        <time>2013-05-26T13:27:06Z</time>
      </trkpt>
      <trkpt lat="44.10097" lon="6.31748">
        <ele>1017.69</ele>
        <time>2013-05-26T13:27:12Z</time>
      </trkpt>
      <trkpt lat="44.10106" lon="6.31757">
        <ele>1018.65</ele>
        <time>2013-05-26T13:27:17Z</time>
      </trkpt>
      <trkpt lat="44.10116" lon="6.31785">
        <ele>1020.1</ele>
        <time>2013-05-26T13:27:30Z</time>
      </trkpt>
      <trkpt lat="44.10159" lon="6.31833">
        <ele>1016.73</ele>
        <time>2013-05-26T13:27:49Z</time>
      </trkpt>
      <trkpt lat="44.10162" lon="6.31834">
        <ele>1016.25</ele>
        <time>2013-05-26T13:27:50Z</time>
      </trkpt>
      <trkpt lat="44.10209" lon="6.31851">
        <ele>1013.37</ele>
        <time>2013-05-26T13:28:04Z</time>
      </trkpt>
      <trkpt lat="44.10219" lon="6.31792">
        <ele>1016.73</ele>
        <time>2013-05-26T13:28:23Z</time>
      </trkpt>
      <trkpt lat="44.10221" lon="6.31744">
        <ele>1021.06</ele>
        <time>2013-05-26T13:28:44Z</time>
      </trkpt>
      <trkpt lat="44.10243" lon="6.31721">
        <ele>1024.42</ele>
        <time>2013-05-26T13:28:58Z</time>
      </trkpt>
      <trkpt lat="44.10245" lon="6.3172">
        <ele>1024.42</ele>
        <time>2013-05-26T13:28:59Z</time>
      </trkpt>
      <trkpt lat="44.10254" lon="6.31712">
        <ele>1025.38</ele>
        <time>2013-05-26T13:29:07Z</time>
      </trkpt>
      <trkpt lat="44.10302" lon="6.31727">
        <ele>1028.75</ele>
        <time>2013-05-26T13:29:35Z</time>
      </trkpt>
      <trkpt lat="44.1034" lon="6.31806">
        <ele>1032.11</ele>
        <time>2013-05-26T13:30:04Z</time>
      </trkpt>
      <trkpt lat="44.10373" lon="6.31822">
        <ele>1035.96</ele>
        <time>2013-05-26T13:30:27Z</time>
      </trkpt>
      <trkpt lat="44.10405" lon="6.31792">
        <ele>1040.28</ele>
        <time>2013-05-26T13:30:53Z</time>
      </trkpt>
      <trkpt lat="44.10447" lon="6.3178">
        <ele>1046.05</ele>
        <time>2013-05-26T13:31:20Z</time>
      </trkpt>
      <trkpt lat="44.10506" lon="6.31827">
        <ele>1050.86</ele>
        <time>2013-05-26T13:32:04Z</time>
      </trkpt>
      <trkpt lat="44.10526" lon="6.31834">
        <ele>1054.7</ele>
        <time>2013-05-26T13:32:19Z</time>
      </trkpt>
      <trkpt lat="44.10592" lon="6.31841">
        <ele>1061.91</ele>
        <time>2013-05-26T13:33:13Z</time>
      </trkpt>
      <trkpt lat="44.10615" lon="6.3184">
        <ele>1064.8</ele>
        <time>2013-05-26T13:33:54Z</time>
      </trkpt>
      <trkpt lat="44.1063" lon="6.31831">
        <ele>1068.16</ele>
        <time>2013-05-26T13:34:13Z</time>
      </trkpt>
      <trkpt lat="44.10652" lon="6.31822">
        <ele>1072.01</ele>
        <time>2013-05-26T13:34:45Z</time>
      </trkpt>
      <trkpt lat="44.10687" lon="6.318">
        <ele>1076.81</ele>
        <time>2013-05-26T13:35:28Z</time>
      </trkpt>
      <trkpt lat="44.1071" lon="6.31807">
        <ele>1081.14</ele>
        <time>2013-05-26T13:35:54Z</time>
      </trkpt>
      <trkpt lat="44.10732" lon="6.31793">
        <ele>1084.5</ele>
        <time>2013-05-26T13:36:22Z</time>
      </trkpt>
      <trkpt lat="44.10752" lon="6.3178">
        <ele>1087.87</ele>
        <time>2013-05-26T13:36:49Z</time>
      </trkpt>
      <trkpt lat="44.10762" lon="6.3179">
        <ele>1088.83</ele>
        <time>2013-05-26T13:36:57Z</time>
      </trkpt>
      <trkpt lat="44.10782" lon="6.31805">
        <ele>1090.75</ele>
        <time>2013-05-26T13:37:15Z</time>
      </trkpt>
      <trkpt lat="44.10783" lon="6.31812">
        <ele>1090.75</ele>
        <time>2013-05-26T13:37:19Z</time>
      </trkpt>
      <trkpt lat="44.10802" lon="6.31839">
        <ele>1092.68</ele>
        <time>2013-05-26T13:37:38Z</time>
      </trkpt>
      <trkpt lat="44.10817" lon="6.31934">
        <ele>1094.6</ele>
        <time>2013-05-26T13:38:15Z</time>
      </trkpt>
      <trkpt lat="44.10823" lon="6.31952">
        <ele>1094.12</ele>
        <time>2013-05-26T13:38:22Z</time>
      </trkpt>
      <trkpt lat="44.1082" lon="6.31981">
        <ele>1095.56</ele>
        <time>2013-05-26T13:38:49Z</time>
      </trkpt>
      <trkpt lat="44.10825" lon="6.31984">
        <ele>1095.56</ele>
        <time>2013-05-26T13:39:23Z</time>
      </trkpt>
      <trkpt lat="44.10832" lon="6.32039">
        <ele>1098.44</ele>
        <time>2013-05-26T13:39:48Z</time>
      </trkpt>
      <trkpt lat="44.10833" lon="6.32044">
        <ele>1098.44</ele>
        <time>2013-05-26T13:39:51Z</time>
      </trkpt>
      <trkpt lat="44.10834" lon="6.32092">
        <ele>1099.89</ele>
        <time>2013-05-26T13:40:10Z</time>
      </trkpt>
      <trkpt lat="44.10855" lon="6.32116">
        <ele>1100.37</ele>
        <time>2013-05-26T13:40:25Z</time>
      </trkpt>
      <trkpt lat="44.10881" lon="6.32103">
        <ele>1099.89</ele>
        <time>2013-05-26T13:40:50Z</time>
      </trkpt>
      <trkpt lat="44.10918" lon="6.32058">
        <ele>1099.4</ele>
        <time>2013-05-26T13:41:07Z</time>
      </trkpt>
      <trkpt lat="44.10962" lon="6.32095">
        <ele>1096.52</ele>
        <time>2013-05-26T13:41:20Z</time>
      </trkpt>
      <trkpt lat="44.11013" lon="6.32122">
        <ele>1094.6</ele>
        <time>2013-05-26T13:41:36Z</time>
      </trkpt>
      <trkpt lat="44.11047" lon="6.32109">
        <ele>1092.68</ele>
        <time>2013-05-26T13:41:47Z</time>
      </trkpt>
      <trkpt lat="44.11056" lon="6.32106">
        <ele>1092.2</ele>
        <time>2013-05-26T13:41:49Z</time>
      </trkpt>
      <trkpt lat="44.1106" lon="6.32157">
        <ele>1087.87</ele>
        <time>2013-05-26T13:41:59Z</time>
      </trkpt>
      <trkpt lat="44.11059" lon="6.32165">
        <ele>1086.43</ele>
        <time>2013-05-26T13:42:19Z</time>
      </trkpt>
      <trkpt lat="44.11065" lon="6.32202">
        <ele>1083.54</ele>
        <time>2013-05-26T13:43:05Z</time>
      </trkpt>
      <trkpt lat="44.11065" lon="6.32208">
        <ele>1083.54</ele>
        <time>2013-05-26T13:43:06Z</time>
      </trkpt>
      <trkpt lat="44.11062" lon="6.32228">
        <ele>1080.18</ele>
        <time>2013-05-26T13:43:11Z</time>
      </trkpt>
      <trkpt lat="44.11081" lon="6.32289">
        <ele>1076.81</ele>
        <time>2013-05-26T13:43:30Z</time>
      </trkpt>
      <trkpt lat="44.11085" lon="6.32291">
        <ele>1077.29</ele>
        <time>2013-05-26T13:43:31Z</time>
      </trkpt>
      <trkpt lat="44.11123" lon="6.32297">
        <ele>1077.78</ele>
        <time>2013-05-26T13:43:43Z</time>
      </trkpt>
      <trkpt lat="44.1113" lon="6.32307">
        <ele>1078.26</ele>
        <time>2013-05-26T13:44:00Z</time>
      </trkpt>
      <trkpt lat="44.11145" lon="6.32315">
        <ele>1072.97</ele>
        <time>2013-05-26T13:44:13Z</time>
      </trkpt>
      <trkpt lat="44.1116" lon="6.32366">
        <ele>1069.6</ele>
        <time>2013-05-26T13:44:24Z</time>
      </trkpt>
      <trkpt lat="44.11173" lon="6.32365">
        <ele>1068.64</ele>
        <time>2013-05-26T13:44:34Z</time>
      </trkpt>
      <trkpt lat="44.11173" lon="6.32365">
        <ele>1068.16</ele>
        <time>2013-05-26T13:44:57Z</time>
      </trkpt>
      <trkpt lat="44.11169" lon="6.32402">
        <ele>1070.08</ele>
        <time>2013-05-26T13:45:17Z</time>
      </trkpt>
      <trkpt lat="44.11168" lon="6.324">
        <ele>1069.12</ele>
        <time>2013-05-26T13:45:49Z</time>
      </trkpt>
      <trkpt lat="44.11171" lon="6.3243">
        <ele>1066.24</ele>
        <time>2013-05-26T13:47:39Z</time>
      </trkpt>
      <trkpt lat="44.1116" lon="6.32451">
        <ele>1060.95</ele>
        <time>2013-05-26T13:47:46Z</time>
      </trkpt>
      <trkpt lat="44.11152" lon="6.32468">
        <ele>1057.11</ele>
        <time>2013-05-26T13:47:51Z</time>
      </trkpt>
      <trkpt lat="44.11157" lon="6.32497">
        <ele>1054.22</ele>
        <time>2013-05-26T13:47:58Z</time>
      </trkpt>
      <trkpt lat="44.11153" lon="6.32499">
        <ele>1054.22</ele>
        <time>2013-05-26T13:47:59Z</time>
      </trkpt>
      <trkpt lat="44.1114" lon="6.32507">
        <ele>1051.34</ele>
        <time>2013-05-26T13:48:03Z</time>
      </trkpt>
      <trkpt lat="44.11144" lon="6.32551">
        <ele>1045.09</ele>
        <time>2013-05-26T13:48:14Z</time>
      </trkpt>
      <trkpt lat="44.1115" lon="6.32557">
        <ele>1042.69</ele>
        <time>2013-05-26T13:48:32Z</time>
      </trkpt>
      <trkpt lat="44.11153" lon="6.32565">
        <ele>1042.21</ele>
        <time>2013-05-26T13:49:59Z</time>
      </trkpt>
      <trkpt lat="44.11148" lon="6.32581">
        <ele>1038.36</ele>
        <time>2013-05-26T13:50:04Z</time>
      </trkpt>
      <trkpt lat="44.11157" lon="6.32591">
        <ele>1034.52</ele>
        <time>2013-05-26T13:50:10Z</time>
      </trkpt>
      <trkpt lat="44.11158" lon="6.32605">
        <ele>1031.15</ele>
        <time>2013-05-26T13:50:14Z</time>
      </trkpt>
      <trkpt lat="44.11161" lon="6.32608">
        <ele>1031.15</ele>
        <time>2013-05-26T13:50:15Z</time>
      </trkpt>
      <trkpt lat="44.11162" lon="6.32624">
        <ele>1027.79</ele>
        <time>2013-05-26T13:50:19Z</time>
      </trkpt>
      <trkpt lat="44.11153" lon="6.32639">
        <ele>1023.94</ele>
        <time>2013-05-26T13:50:22Z</time>
      </trkpt>
      <trkpt lat="44.11151" lon="6.32658">
        <ele>1020.58</ele>
        <time>2013-05-26T13:50:25Z</time>
      </trkpt>
      <trkpt lat="44.1115" lon="6.32673">
        <ele>1017.21</ele>
        <time>2013-05-26T13:50:27Z</time>
      </trkpt>
      <trkpt lat="44.11163" lon="6.327">
        <ele>1012.41</ele>
        <time>2013-05-26T13:50:33Z</time>
      </trkpt>
      <trkpt lat="44.11161" lon="6.32722">
        <ele>1008.56</ele>
        <time>2013-05-26T13:50:38Z</time>
      </trkpt>
      <trkpt lat="44.1114" lon="6.32733">
        <ele>1002.79</ele>
        <time>2013-05-26T13:50:44Z</time>
      </trkpt>
      <trkpt lat="44.11132" lon="6.32725">
        <ele>999.43</ele>
        <time>2013-05-26T13:50:51Z</time>
      </trkpt>
      <trkpt lat="44.11133" lon="6.32728">
        <ele>999.43</ele>
        <time>2013-05-26T13:51:00Z</time>
      </trkpt>
      <trkpt lat="44.11122" lon="6.32734">
        <ele>1000.39</ele>
        <time>2013-05-26T13:51:26Z</time>
      </trkpt>
      <trkpt lat="44.11122" lon="6.32736">
        <ele>1000.87</ele>
        <time>2013-05-26T13:51:29Z</time>
      </trkpt>
      <trkpt lat="44.11131" lon="6.32761">
        <ele>1002.79</ele>
        <time>2013-05-26T13:51:46Z</time>
      </trkpt>
      <trkpt lat="44.11156" lon="6.32782">
        <ele>1004.23</ele>
        <time>2013-05-26T13:52:16Z</time>
      </trkpt>
      <trkpt lat="44.11181" lon="6.32804">
        <ele>1007.12</ele>
        <time>2013-05-26T13:53:10Z</time>
      </trkpt>
      <trkpt lat="44.11186" lon="6.32812">
        <ele>1006.16</ele>
        <time>2013-05-26T13:54:01Z</time>
      </trkpt>
      <trkpt lat="44.11191" lon="6.32857">
        <ele>1006.64</ele>
        <time>2013-05-26T13:54:30Z</time>
      </trkpt>
      <trkpt lat="44.11201" lon="6.32947">
        <ele>1003.75</ele>
        <time>2013-05-26T13:55:04Z</time>
      </trkpt>
      <trkpt lat="44.11191" lon="6.32985">
        <ele>1003.27</ele>
        <time>2013-05-26T13:55:22Z</time>
      </trkpt>
      <trkpt lat="44.11254" lon="6.33007">
        <ele>1004.23</ele>
        <time>2013-05-26T13:55:54Z</time>
      </trkpt>
      <trkpt lat="44.11351" lon="6.33035">
        <ele>1001.83</ele>
        <time>2013-05-26T13:56:30Z</time>
      </trkpt>
      <trkpt lat="44.11401" lon="6.33066">
        <ele>997.99</ele>
        <time>2013-05-26T13:56:45Z</time>
      </trkpt>
      <trkpt lat="44.11412" lon="6.33075">
        <ele>997.02</ele>
        <time>2013-05-26T13:56:48Z</time>
      </trkpt>
      <trkpt lat="44.11446" lon="6.33129">
        <ele>995.1</ele>
        <time>2013-05-26T13:57:00Z</time>
      </trkpt>
      <trkpt lat="44.11484" lon="6.33211">
        <ele>991.74</ele>
        <time>2013-05-26T13:57:15Z</time>
      </trkpt>
      <trkpt lat="44.11488" lon="6.33216">
        <ele>991.74</ele>
        <time>2013-05-26T13:57:16Z</time>
      </trkpt>
      <trkpt lat="44.1152" lon="6.33254">
        <ele>987.41</ele>
        <time>2013-05-26T13:57:26Z</time>
      </trkpt>
      <trkpt lat="44.11522" lon="6.33257">
        <ele>987.41</ele>
        <time>2013-05-26T13:57:27Z</time>
      </trkpt>
      <trkpt lat="44.11544" lon="6.33288">
        <ele>984.05</ele>
        <time>2013-05-26T13:57:37Z</time>
      </trkpt>
      <trkpt lat="44.11565" lon="6.333">
        <ele>980.68</ele>
        <time>2013-05-26T13:57:44Z</time>
      </trkpt>
      <trkpt lat="44.11605" lon="6.33302">
        <ele>976.36</ele>
        <time>2013-05-26T13:58:02Z</time>
      </trkpt>
      <trkpt lat="44.11623" lon="6.3329">
        <ele>972.51</ele>
        <time>2013-05-26T13:58:09Z</time>
      </trkpt>
      <trkpt lat="44.11632" lon="6.33284">
        <ele>968.67</ele>
        <time>2013-05-26T13:58:21Z</time>
      </trkpt>
      <trkpt lat="44.11632" lon="6.33286">
        <ele>969.15</ele>
        <time>2013-05-26T13:58:38Z</time>
      </trkpt>
      <trkpt lat="44.1164" lon="6.33303">
        <ele>968.18</ele>
        <time>2013-05-26T13:59:21Z</time>
      </trkpt>
      <trkpt lat="44.1168" lon="6.33327">
        <ele>964.82</ele>
        <time>2013-05-26T13:59:38Z</time>
      </trkpt>
      <trkpt lat="44.11715" lon="6.33334">
        <ele>961.46</ele>
        <time>2013-05-26T13:59:47Z</time>
      </trkpt>
      <trkpt lat="44.11728" lon="6.33336">
        <ele>959.05</ele>
        <time>2013-05-26T13:59:50Z</time>
      </trkpt>
      <trkpt lat="44.11775" lon="6.3334">
        <ele>953.28</ele>
        <time>2013-05-26T13:59:59Z</time>
      </trkpt>
      <trkpt lat="44.11801" lon="6.33338">
        <ele>952.32</ele>
        <time>2013-05-26T14:00:05Z</time>
      </trkpt>
      <trkpt lat="44.11839" lon="6.3333">
        <ele>948</ele>
        <time>2013-05-26T14:00:11Z</time>
      </trkpt>
      <trkpt lat="44.11856" lon="6.33321">
        <ele>945.59</ele>
        <time>2013-05-26T14:00:17Z</time>
      </trkpt>
      <trkpt lat="44.11875" lon="6.33338">
        <ele>945.11</ele>
        <time>2013-05-26T14:00:22Z</time>
      </trkpt>
      <trkpt lat="44.11898" lon="6.33349">
        <ele>941.75</ele>
        <time>2013-05-26T14:00:26Z</time>
      </trkpt>
      <trkpt lat="44.11905" lon="6.33351">
        <ele>941.75</ele>
        <time>2013-05-26T14:00:27Z</time>
      </trkpt>
      <trkpt lat="44.11934" lon="6.33373">
        <ele>937.9</ele>
        <time>2013-05-26T14:00:32Z</time>
      </trkpt>
      <trkpt lat="44.11959" lon="6.33391">
        <ele>934.54</ele>
        <time>2013-05-26T14:00:36Z</time>
      </trkpt>
      <trkpt lat="44.11965" lon="6.33398">
        <ele>934.54</ele>
        <time>2013-05-26T14:00:37Z</time>
      </trkpt>
      <trkpt lat="44.12007" lon="6.33431">
        <ele>935.02</ele>
        <time>2013-05-26T14:00:49Z</time>
      </trkpt>
      <trkpt lat="44.1204" lon="6.33435">
        <ele>936.94</ele>
        <time>2013-05-26T14:01:01Z</time>
      </trkpt>
      <trkpt lat="44.12071" lon="6.33434">
        <ele>940.31</ele>
        <time>2013-05-26T14:01:14Z</time>
      </trkpt>
      <trkpt lat="44.12091" lon="6.3344">
        <ele>944.63</ele>
        <time>2013-05-26T14:01:27Z</time>
      </trkpt>
      <trkpt lat="44.12117" lon="6.3341">
        <ele>946.56</ele>
        <time>2013-05-26T14:01:46Z</time>
      </trkpt>
      <trkpt lat="44.12144" lon="6.33405">
        <ele>949.92</ele>
        <time>2013-05-26T14:02:13Z</time>
      </trkpt>
      <trkpt lat="44.12141" lon="6.334">
        <ele>949.44</ele>
        <time>2013-05-26T14:02:26Z</time>
      </trkpt>
      <trkpt lat="44.1214" lon="6.33413">
        <ele>949.92</ele>
        <time>2013-05-26T14:02:34Z</time>
      </trkpt>
      <trkpt lat="44.12138" lon="6.33422">
        <ele>949.92</ele>
        <time>2013-05-26T14:02:55Z</time>
      </trkpt>
      <trkpt lat="44.12133" lon="6.33423">
        <ele>951.36</ele>
        <time>2013-05-26T14:07:24Z</time>
      </trkpt>
      <trkpt lat="44.12139" lon="6.3341">
        <ele>954.25</ele>
        <time>2013-05-26T14:12:49Z</time>
      </trkpt>
      <trkpt lat="44.12157" lon="6.33416">
        <ele>957.61</ele>
        <time>2013-05-26T14:23:26Z</time>
      </trkpt>
      <trkpt lat="44.12157" lon="6.33411">
        <ele>957.13</ele>
        <time>2013-05-26T14:23:31Z</time>
      </trkpt>
      <trkpt lat="44.12144" lon="6.33413">
        <ele>958.09</ele>
        <time>2013-05-26T14:24:01Z</time>
      </trkpt>
      <trkpt lat="44.12147" lon="6.33405">
        <ele>957.13</ele>
        <time>2013-05-26T14:24:12Z</time>
      </trkpt>
      <trkpt lat="44.12159" lon="6.33395">
        <ele>960.49</ele>
        <time>2013-05-26T14:24:25Z</time>
      </trkpt>
      <trkpt lat="44.12177" lon="6.33405">
        <ele>963.86</ele>
        <time>2013-05-26T14:24:39Z</time>
      </trkpt>
      <trkpt lat="44.12244" lon="6.3343">
        <ele>967.7</ele>
        <time>2013-05-26T14:25:18Z</time>
      </trkpt>
      <trkpt lat="44.12265" lon="6.33433">
        <ele>969.15</ele>
        <time>2013-05-26T14:25:41Z</time>
      </trkpt>
      <trkpt lat="44.12267" lon="6.33433">
        <ele>969.15</ele>
        <time>2013-05-26T14:25:42Z</time>
      </trkpt>
      <trkpt lat="44.12321" lon="6.33423">
        <ele>971.07</ele>
        <time>2013-05-26T14:26:10Z</time>
      </trkpt>
      <trkpt lat="44.12381" lon="6.3341">
        <ele>968.67</ele>
        <time>2013-05-26T14:26:32Z</time>
      </trkpt>
      <trkpt lat="44.12401" lon="6.33424">
        <ele>968.67</ele>
        <time>2013-05-26T14:26:38Z</time>
      </trkpt>
      <trkpt lat="44.12469" lon="6.33445">
        <ele>972.51</ele>
        <time>2013-05-26T14:27:05Z</time>
      </trkpt>
      <trkpt lat="44.12468" lon="6.33446">
        <ele>972.03</ele>
        <time>2013-05-26T14:27:08Z</time>
      </trkpt>
      <trkpt lat="44.12459" lon="6.33482">
        <ele>968.18</ele>
        <time>2013-05-26T14:27:23Z</time>
      </trkpt>
      <trkpt lat="44.12485" lon="6.33536">
        <ele>964.34</ele>
        <time>2013-05-26T14:27:37Z</time>
      </trkpt>
      <trkpt lat="44.12505" lon="6.33557">
        <ele>962.42</ele>
        <time>2013-05-26T14:27:50Z</time>
      </trkpt>
      <trkpt lat="44.12546" lon="6.33583">
        <ele>961.46</ele>
        <time>2013-05-26T14:28:21Z</time>
      </trkpt>
      <trkpt lat="44.12552" lon="6.33582">
        <ele>961.46</ele>
        <time>2013-05-26T14:28:26Z</time>
      </trkpt>
      <trkpt lat="44.12587" lon="6.33591">
        <ele>962.9</ele>
        <time>2013-05-26T14:28:39Z</time>
      </trkpt>
      <trkpt lat="44.12647" lon="6.33646">
        <ele>960.98</ele>
        <time>2013-05-26T14:29:09Z</time>
      </trkpt>
      <trkpt lat="44.12675" lon="6.33664">
        <ele>958.57</ele>
        <time>2013-05-26T14:29:23Z</time>
      </trkpt>
      <trkpt lat="44.12678" lon="6.33665">
        <ele>957.61</ele>
        <time>2013-05-26T14:29:24Z</time>
      </trkpt>
      <trkpt lat="44.12688" lon="6.33687">
        <ele>956.65</ele>
        <time>2013-05-26T14:29:32Z</time>
      </trkpt>
      <trkpt lat="44.12691" lon="6.33725">
        <ele>951.84</ele>
        <time>2013-05-26T14:29:42Z</time>
      </trkpt>
      <trkpt lat="44.12696" lon="6.33731">
        <ele>951.84</ele>
        <time>2013-05-26T14:29:48Z</time>
      </trkpt>
      <trkpt lat="44.12726" lon="6.33734">
        <ele>954.73</ele>
        <time>2013-05-26T14:30:06Z</time>
      </trkpt>
      <trkpt lat="44.12761" lon="6.33721">
        <ele>959.05</ele>
        <time>2013-05-26T14:30:47Z</time>
      </trkpt>
      <trkpt lat="44.12761" lon="6.33719">
        <ele>959.05</ele>
        <time>2013-05-26T14:30:48Z</time>
      </trkpt>
      <trkpt lat="44.12777" lon="6.33719">
        <ele>960.49</ele>
        <time>2013-05-26T14:31:09Z</time>
      </trkpt>
      <trkpt lat="44.12784" lon="6.33715">
        <ele>961.46</ele>
        <time>2013-05-26T14:31:14Z</time>
      </trkpt>
      <trkpt lat="44.128" lon="6.33704">
        <ele>964.82</ele>
        <time>2013-05-26T14:31:26Z</time>
      </trkpt>
      <trkpt lat="44.12824" lon="6.33686">
        <ele>968.67</ele>
        <time>2013-05-26T14:31:48Z</time>
      </trkpt>
      <trkpt lat="44.1285" lon="6.33668">
        <ele>972.99</ele>
        <time>2013-05-26T14:32:25Z</time>
      </trkpt>
      <trkpt lat="44.12867" lon="6.33651">
        <ele>976.36</ele>
        <time>2013-05-26T14:32:40Z</time>
      </trkpt>
      <trkpt lat="44.12892" lon="6.33631">
        <ele>980.2</ele>
        <time>2013-05-26T14:33:02Z</time>
      </trkpt>
      <trkpt lat="44.12927" lon="6.33647">
        <ele>980.2</ele>
        <time>2013-05-26T14:33:28Z</time>
      </trkpt>
      <trkpt lat="44.12993" lon="6.33614">
        <ele>980.2</ele>
        <time>2013-05-26T14:33:57Z</time>
      </trkpt>
      <trkpt lat="44.1304" lon="6.33618">
        <ele>977.8</ele>
        <time>2013-05-26T14:34:16Z</time>
      </trkpt>
      <trkpt lat="44.1309" lon="6.33652">
        <ele>975.39</ele>
        <time>2013-05-26T14:34:27Z</time>
      </trkpt>
      <trkpt lat="44.13095" lon="6.3365">
        <ele>974.91</ele>
        <time>2013-05-26T14:34:28Z</time>
      </trkpt>
      <trkpt lat="44.13103" lon="6.33647">
        <ele>973.95</ele>
        <time>2013-05-26T14:34:30Z</time>
      </trkpt>
      <trkpt lat="44.13137" lon="6.33657">
        <ele>973.47</ele>
        <time>2013-05-26T14:34:38Z</time>
      </trkpt>
      <trkpt lat="44.13147" lon="6.33666">
        <ele>972.99</ele>
        <time>2013-05-26T14:34:40Z</time>
      </trkpt>
      <trkpt lat="44.13172" lon="6.33689">
        <ele>972.03</ele>
        <time>2013-05-26T14:34:45Z</time>
      </trkpt>
      <trkpt lat="44.13215" lon="6.33705">
        <ele>967.7</ele>
        <time>2013-05-26T14:34:51Z</time>
      </trkpt>
      <trkpt lat="44.13229" lon="6.33702">
        <ele>965.78</ele>
        <time>2013-05-26T14:34:53Z</time>
      </trkpt>
      <trkpt lat="44.13292" lon="6.33685">
        <ele>961.46</ele>
        <time>2013-05-26T14:35:02Z</time>
      </trkpt>
      <trkpt lat="44.133" lon="6.33685">
        <ele>961.94</ele>
        <time>2013-05-26T14:35:03Z</time>
      </trkpt>
      <trkpt lat="44.13308" lon="6.33686">
        <ele>961.46</ele>
        <time>2013-05-26T14:35:04Z</time>
      </trkpt>
      <trkpt lat="44.13349" lon="6.33692">
        <ele>959.05</ele>
        <time>2013-05-26T14:35:09Z</time>
      </trkpt>
      <trkpt lat="44.13364" lon="6.33692">
        <ele>958.09</ele>
        <time>2013-05-26T14:35:11Z</time>
      </trkpt>
      <trkpt lat="44.13392" lon="6.33691">
        <ele>954.25</ele>
        <time>2013-05-26T14:35:16Z</time>
      </trkpt>
      <trkpt lat="44.13423" lon="6.33696">
        <ele>949.92</ele>
        <time>2013-05-26T14:35:25Z</time>
      </trkpt>
      <trkpt lat="44.13423" lon="6.33698">
        <ele>950.4</ele>
        <time>2013-05-26T14:35:26Z</time>
      </trkpt>
      <trkpt lat="44.13424" lon="6.33723">
        <ele>949.44</ele>
        <time>2013-05-26T14:36:09Z</time>
      </trkpt>
      <trkpt lat="44.13428" lon="6.33776">
        <ele>946.07</ele>
        <time>2013-05-26T14:36:21Z</time>
      </trkpt>
      <trkpt lat="44.13416" lon="6.33803">
        <ele>941.27</ele>
        <time>2013-05-26T14:36:28Z</time>
      </trkpt>
      <trkpt lat="44.13407" lon="6.33815">
        <ele>938.38</ele>
        <time>2013-05-26T14:36:32Z</time>
      </trkpt>
      <trkpt lat="44.13405" lon="6.33819">
        <ele>938.38</ele>
        <time>2013-05-26T14:36:33Z</time>
      </trkpt>
      <trkpt lat="44.13388" lon="6.33837">
        <ele>933.1</ele>
        <time>2013-05-26T14:36:41Z</time>
      </trkpt>
      <trkpt lat="44.13377" lon="6.33853">
        <ele>928.77</ele>
        <time>2013-05-26T14:36:48Z</time>
      </trkpt>
      <trkpt lat="44.1337" lon="6.33865">
        <ele>925.41</ele>
        <time>2013-05-26T14:36:54Z</time>
      </trkpt>
      <trkpt lat="44.13362" lon="6.33881">
        <ele>922.04</ele>
        <time>2013-05-26T14:37:00Z</time>
      </trkpt>
      <trkpt lat="44.13359" lon="6.33891">
        <ele>920.12</ele>
        <time>2013-05-26T14:37:06Z</time>
      </trkpt>
      <trkpt lat="44.13328" lon="6.33931">
        <ele>916.75</ele>
        <time>2013-05-26T14:37:19Z</time>
      </trkpt>
      <trkpt lat="44.13306" lon="6.33958">
        <ele>910.99</ele>
        <time>2013-05-26T14:37:36Z</time>
      </trkpt>
      <trkpt lat="44.13298" lon="6.33968">
        <ele>907.62</ele>
        <time>2013-05-26T14:37:42Z</time>
      </trkpt>
      <trkpt lat="44.13282" lon="6.33999">
        <ele>901.37</ele>
        <time>2013-05-26T14:37:55Z</time>
      </trkpt>
      <trkpt lat="44.1328" lon="6.34001">
        <ele>901.85</ele>
        <time>2013-05-26T14:37:56Z</time>
      </trkpt>
      <trkpt lat="44.13268" lon="6.34039">
        <ele>896.57</ele>
        <time>2013-05-26T14:38:05Z</time>
      </trkpt>
      <trkpt lat="44.13265" lon="6.34074">
        <ele>892.72</ele>
        <time>2013-05-26T14:38:12Z</time>
      </trkpt>
      <trkpt lat="44.13263" lon="6.34102">
        <ele>888.4</ele>
        <time>2013-05-26T14:38:17Z</time>
      </trkpt>
      <trkpt lat="44.13261" lon="6.34108">
        <ele>888.4</ele>
        <time>2013-05-26T14:38:18Z</time>
      </trkpt>
      <trkpt lat="44.13251" lon="6.34128">
        <ele>885.51</ele>
        <time>2013-05-26T14:38:31Z</time>
      </trkpt>
      <trkpt lat="44.13246" lon="6.34158">
        <ele>881.67</ele>
        <time>2013-05-26T14:38:36Z</time>
      </trkpt>
      <trkpt lat="44.13256" lon="6.34163">
        <ele>878.3</ele>
        <time>2013-05-26T14:38:39Z</time>
      </trkpt>
      <trkpt lat="44.13274" lon="6.34158">
        <ele>874.94</ele>
        <time>2013-05-26T14:38:44Z</time>
      </trkpt>
      <trkpt lat="44.13298" lon="6.34152">
        <ele>871.57</ele>
        <time>2013-05-26T14:38:53Z</time>
      </trkpt>
      <trkpt lat="44.13342" lon="6.34165">
        <ele>866.29</ele>
        <time>2013-05-26T14:39:00Z</time>
      </trkpt>
      <trkpt lat="44.13343" lon="6.34171">
        <ele>866.29</ele>
        <time>2013-05-26T14:39:01Z</time>
      </trkpt>
      <trkpt lat="44.13399" lon="6.34226">
        <ele>869.17</ele>
        <time>2013-05-26T14:39:24Z</time>
      </trkpt>
      <trkpt lat="44.13456" lon="6.34273">
        <ele>874.94</ele>
        <time>2013-05-26T14:39:53Z</time>
      </trkpt>
      <trkpt lat="44.13459" lon="6.34274">
        <ele>875.42</ele>
        <time>2013-05-26T14:39:57Z</time>
      </trkpt>
      <trkpt lat="44.13477" lon="6.34273">
        <ele>875.42</ele>
        <time>2013-05-26T14:40:05Z</time>
      </trkpt>
      <trkpt lat="44.13523" lon="6.34302">
        <ele>869.17</ele>
        <time>2013-05-26T14:40:25Z</time>
      </trkpt>
      <trkpt lat="44.13529" lon="6.34306">
        <ele>869.17</ele>
        <time>2013-05-26T14:40:47Z</time>
      </trkpt>
      <trkpt lat="44.13527" lon="6.34303">
        <ele>869.65</ele>
        <time>2013-05-26T14:40:50Z</time>
      </trkpt>
      <trkpt lat="44.13516" lon="6.34301">
        <ele>870.61</ele>
        <time>2013-05-26T14:40:58Z</time>
      </trkpt>
      <trkpt lat="44.13484" lon="6.34277">
        <ele>874.94</ele>
        <time>2013-05-26T14:41:13Z</time>
      </trkpt>
      <trkpt lat="44.1347" lon="6.34272">
        <ele>876.38</ele>
        <time>2013-05-26T14:41:21Z</time>
      </trkpt>
      <trkpt lat="44.13467" lon="6.34271">
        <ele>875.9</ele>
        <time>2013-05-26T14:41:22Z</time>
      </trkpt>
      <trkpt lat="44.13446" lon="6.34296">
        <ele>876.86</ele>
        <time>2013-05-26T14:41:38Z</time>
      </trkpt>
      <trkpt lat="44.13455" lon="6.34281">
        <ele>877.34</ele>
        <time>2013-05-26T14:41:48Z</time>
      </trkpt>
      <trkpt lat="44.13457" lon="6.3428">
        <ele>876.38</ele>
        <time>2013-05-26T14:41:49Z</time>
      </trkpt>
      <trkpt lat="44.13462" lon="6.34269">
        <ele>875.42</ele>
        <time>2013-05-26T14:42:10Z</time>
      </trkpt>
      <trkpt lat="44.13464" lon="6.3427">
        <ele>875.42</ele>
        <time>2013-05-26T14:42:12Z</time>
      </trkpt>
      <trkpt lat="44.13451" lon="6.34329">
        <ele>877.82</ele>
        <time>2013-05-26T14:42:32Z</time>
      </trkpt>
      <trkpt lat="44.1341" lon="6.34394">
        <ele>878.3</ele>
        <time>2013-05-26T14:42:52Z</time>
      </trkpt>
      <trkpt lat="44.13309" lon="6.34541">
        <ele>876.86</ele>
        <time>2013-05-26T14:43:27Z</time>
      </trkpt>
      <trkpt lat="44.13305" lon="6.34543">
        <ele>876.86</ele>
        <time>2013-05-26T14:43:28Z</time>
      </trkpt>
      <trkpt lat="44.13261" lon="6.34535">
        <ele>876.38</ele>
        <time>2013-05-26T14:43:37Z</time>
      </trkpt>
      <trkpt lat="44.1326" lon="6.34573">
        <ele>879.74</ele>
        <time>2013-05-26T14:43:51Z</time>
      </trkpt>
      <trkpt lat="44.13312" lon="6.34619">
        <ele>882.15</ele>
        <time>2013-05-26T14:44:14Z</time>
      </trkpt>
      <trkpt lat="44.13337" lon="6.3459">
        <ele>885.51</ele>
        <time>2013-05-26T14:44:26Z</time>
      </trkpt>
      <trkpt lat="44.13396" lon="6.34615">
        <ele>892.24</ele>
        <time>2013-05-26T14:44:57Z</time>
      </trkpt>
      <trkpt lat="44.13422" lon="6.34636">
        <ele>895.61</ele>
        <time>2013-05-26T14:45:13Z</time>
      </trkpt>
      <trkpt lat="44.13433" lon="6.34684">
        <ele>897.53</ele>
        <time>2013-05-26T14:45:31Z</time>
      </trkpt>
      <trkpt lat="44.13447" lon="6.34744">
        <ele>903.3</ele>
        <time>2013-05-26T14:46:00Z</time>
      </trkpt>
      <trkpt lat="44.13464" lon="6.3481">
        <ele>909.54</ele>
        <time>2013-05-26T14:46:34Z</time>
      </trkpt>
      <trkpt lat="44.13474" lon="6.34851">
        <ele>911.95</ele>
        <time>2013-05-26T14:46:53Z</time>
      </trkpt>
      <trkpt lat="44.13477" lon="6.34854">
        <ele>911.95</ele>
        <time>2013-05-26T14:46:55Z</time>
      </trkpt>
      <trkpt lat="44.13489" lon="6.34886">
        <ele>915.31</ele>
        <time>2013-05-26T14:47:12Z</time>
      </trkpt>
      <trkpt lat="44.13493" lon="6.34914">
        <ele>918.2</ele>
        <time>2013-05-26T14:47:26Z</time>
      </trkpt>
      <trkpt lat="44.13492" lon="6.34916">
        <ele>918.2</ele>
        <time>2013-05-26T14:47:27Z</time>
      </trkpt>
      <trkpt lat="44.13464" lon="6.34899">
        <ele>920.6</ele>
        <time>2013-05-26T14:47:44Z</time>
      </trkpt>
      <trkpt lat="44.13447" lon="6.34885">
        <ele>923.96</ele>
        <time>2013-05-26T14:47:56Z</time>
      </trkpt>
      <trkpt lat="44.13411" lon="6.34859">
        <ele>926.85</ele>
        <time>2013-05-26T14:48:20Z</time>
      </trkpt>
      <trkpt lat="44.1337" lon="6.34865">
        <ele>930.21</ele>
        <time>2013-05-26T14:48:43Z</time>
      </trkpt>
      <trkpt lat="44.13372" lon="6.34907">
        <ele>934.06</ele>
        <time>2013-05-26T14:49:09Z</time>
      </trkpt>
      <trkpt lat="44.13396" lon="6.3494">
        <ele>936.94</ele>
        <time>2013-05-26T14:49:29Z</time>
      </trkpt>
      <trkpt lat="44.13401" lon="6.3498">
        <ele>940.79</ele>
        <time>2013-05-26T14:49:47Z</time>
      </trkpt>
      <trkpt lat="44.13385" lon="6.35036">
        <ele>944.15</ele>
        <time>2013-05-26T14:50:14Z</time>
      </trkpt>
      <trkpt lat="44.13383" lon="6.35056">
        <ele>944.15</ele>
        <time>2013-05-26T14:50:44Z</time>
      </trkpt>
      <trkpt lat="44.1338" lon="6.35062">
        <ele>945.59</ele>
        <time>2013-05-26T14:50:48Z</time>
      </trkpt>
      <trkpt lat="44.13396" lon="6.35141">
        <ele>948</ele>
        <time>2013-05-26T14:51:18Z</time>
      </trkpt>
      <trkpt lat="44.13431" lon="6.35213">
        <ele>951.84</ele>
        <time>2013-05-26T14:51:52Z</time>
      </trkpt>
      <trkpt lat="44.13437" lon="6.35225">
        <ele>954.25</ele>
        <time>2013-05-26T14:51:59Z</time>
      </trkpt>
      <trkpt lat="44.1344" lon="6.35244">
        <ele>957.61</ele>
        <time>2013-05-26T14:52:08Z</time>
      </trkpt>
      <trkpt lat="44.1344" lon="6.35251">
        <ele>956.17</ele>
        <time>2013-05-26T14:52:11Z</time>
      </trkpt>
      <trkpt lat="44.13423" lon="6.35298">
        <ele>960.01</ele>
        <time>2013-05-26T14:52:33Z</time>
      </trkpt>
      <trkpt lat="44.13389" lon="6.35356">
        <ele>965.3</ele>
        <time>2013-05-26T14:53:12Z</time>
      </trkpt>
      <trkpt lat="44.13391" lon="6.35407">
        <ele>969.15</ele>
        <time>2013-05-26T14:53:35Z</time>
      </trkpt>
      <trkpt lat="44.13392" lon="6.35422">
        <ele>971.07</ele>
        <time>2013-05-26T14:53:42Z</time>
      </trkpt>
      <trkpt lat="44.13367" lon="6.35439">
        <ele>974.91</ele>
        <time>2013-05-26T14:54:04Z</time>
      </trkpt>
      <trkpt lat="44.13366" lon="6.35439">
        <ele>975.39</ele>
        <time>2013-05-26T14:54:40Z</time>
      </trkpt>
      <trkpt lat="44.13365" lon="6.35439">
        <ele>974.91</ele>
        <time>2013-05-26T14:54:43Z</time>
      </trkpt>
      <trkpt lat="44.13339" lon="6.35435">
        <ele>978.76</ele>
        <time>2013-05-26T14:54:58Z</time>
      </trkpt>
      <trkpt lat="44.13337" lon="6.35435">
        <ele>978.76</ele>
        <time>2013-05-26T14:54:59Z</time>
      </trkpt>
      <trkpt lat="44.13286" lon="6.35455">
        <ele>984.05</ele>
        <time>2013-05-26T14:55:31Z</time>
      </trkpt>
      <trkpt lat="44.13228" lon="6.35415">
        <ele>989.33</ele>
        <time>2013-05-26T14:56:11Z</time>
      </trkpt>
      <trkpt lat="44.13208" lon="6.35392">
        <ele>992.7</ele>
        <time>2013-05-26T14:56:27Z</time>
      </trkpt>
      <trkpt lat="44.13149" lon="6.35361">
        <ele>998.47</ele>
        <time>2013-05-26T14:57:04Z</time>
      </trkpt>
      <trkpt lat="44.13148" lon="6.35361">
        <ele>998.47</ele>
        <time>2013-05-26T14:57:05Z</time>
      </trkpt>
      <trkpt lat="44.1305" lon="6.35425">
        <ele>999.91</ele>
        <time>2013-05-26T14:57:52Z</time>
      </trkpt>
      <trkpt lat="44.12981" lon="6.35518">
        <ele>1003.27</ele>
        <time>2013-05-26T14:58:28Z</time>
      </trkpt>
      <trkpt lat="44.12945" lon="6.35524">
        <ele>1006.64</ele>
        <time>2013-05-26T14:58:42Z</time>
      </trkpt>
      <trkpt lat="44.12896" lon="6.35486">
        <ele>1010.96</ele>
        <time>2013-05-26T14:59:11Z</time>
      </trkpt>
      <trkpt lat="44.12858" lon="6.35484">
        <ele>1011.44</ele>
        <time>2013-05-26T14:59:27Z</time>
      </trkpt>
      <trkpt lat="44.12855" lon="6.3546">
        <ele>1012.41</ele>
        <time>2013-05-26T14:59:34Z</time>
      </trkpt>
      <trkpt lat="44.12855" lon="6.3544">
        <ele>1013.85</ele>
        <time>2013-05-26T14:59:41Z</time>
      </trkpt>
      <trkpt lat="44.12859" lon="6.35395">
        <ele>1017.21</ele>
        <time>2013-05-26T15:00:31Z</time>
      </trkpt>
      <trkpt lat="44.12846" lon="6.35368">
        <ele>1019.62</ele>
        <time>2013-05-26T15:00:44Z</time>
      </trkpt>
      <trkpt lat="44.12837" lon="6.35348">
        <ele>1022.5</ele>
        <time>2013-05-26T15:00:54Z</time>
      </trkpt>
      <trkpt lat="44.12835" lon="6.35347">
        <ele>1022.5</ele>
        <time>2013-05-26T15:00:55Z</time>
      </trkpt>
      <trkpt lat="44.12805" lon="6.35345">
        <ele>1025.38</ele>
        <time>2013-05-26T15:01:15Z</time>
      </trkpt>
      <trkpt lat="44.12804" lon="6.35348">
        <ele>1025.38</ele>
        <time>2013-05-26T15:01:16Z</time>
      </trkpt>
      <trkpt lat="44.12734" lon="6.35347">
        <ele>1031.63</ele>
        <time>2013-05-26T15:01:59Z</time>
      </trkpt>
      <trkpt lat="44.12714" lon="6.35353">
        <ele>1033.55</ele>
        <time>2013-05-26T15:02:16Z</time>
      </trkpt>
      <trkpt lat="44.12711" lon="6.3541">
        <ele>1038.84</ele>
        <time>2013-05-26T15:02:45Z</time>
      </trkpt>
      <trkpt lat="44.12704" lon="6.35453">
        <ele>1042.21</ele>
        <time>2013-05-26T15:03:07Z</time>
      </trkpt>
      <trkpt lat="44.127" lon="6.35505">
        <ele>1048.45</ele>
        <time>2013-05-26T15:03:37Z</time>
      </trkpt>
      <trkpt lat="44.12661" lon="6.35481">
        <ele>1052.3</ele>
        <time>2013-05-26T15:04:05Z</time>
      </trkpt>
      <trkpt lat="44.12642" lon="6.35492">
        <ele>1054.7</ele>
        <time>2013-05-26T15:04:22Z</time>
      </trkpt>
      <trkpt lat="44.1264" lon="6.35538">
        <ele>1057.59</ele>
        <time>2013-05-26T15:04:44Z</time>
      </trkpt>
      <trkpt lat="44.1261" lon="6.356">
        <ele>1062.87</ele>
        <time>2013-05-26T15:05:20Z</time>
      </trkpt>
      <trkpt lat="44.12596" lon="6.35624">
        <ele>1066.72</ele>
        <time>2013-05-26T15:05:37Z</time>
      </trkpt>
      <trkpt lat="44.12574" lon="6.35635">
        <ele>1070.08</ele>
        <time>2013-05-26T15:05:54Z</time>
      </trkpt>
      <trkpt lat="44.1254" lon="6.35703">
        <ele>1074.41</ele>
        <time>2013-05-26T15:06:41Z</time>
      </trkpt>
      <trkpt lat="44.12573" lon="6.35727">
        <ele>1077.78</ele>
        <time>2013-05-26T15:07:07Z</time>
      </trkpt>
      <trkpt lat="44.12583" lon="6.35736">
        <ele>1079.22</ele>
        <time>2013-05-26T15:07:15Z</time>
      </trkpt>
      <trkpt lat="44.12566" lon="6.35826">
        <ele>1081.62</ele>
        <time>2013-05-26T15:07:49Z</time>
      </trkpt>
      <trkpt lat="44.12549" lon="6.35926">
        <ele>1085.95</ele>
        <time>2013-05-26T15:08:23Z</time>
      </trkpt>
      <trkpt lat="44.12512" lon="6.35992">
        <ele>1089.79</ele>
        <time>2013-05-26T15:08:51Z</time>
      </trkpt>
      <trkpt lat="44.12527" lon="6.36124">
        <ele>1095.56</ele>
        <time>2013-05-26T15:09:31Z</time>
      </trkpt>
      <trkpt lat="44.12553" lon="6.36192">
        <ele>1100.37</ele>
        <time>2013-05-26T15:10:07Z</time>
      </trkpt>
      <trkpt lat="44.12568" lon="6.36227">
        <ele>1103.73</ele>
        <time>2013-05-26T15:10:48Z</time>
      </trkpt>
      <trkpt lat="44.12571" lon="6.36246">
        <ele>1106.13</ele>
        <time>2013-05-26T15:12:10Z</time>
      </trkpt>
      <trkpt lat="44.1257" lon="6.36249">
        <ele>1106.61</ele>
        <time>2013-05-26T15:13:28Z</time>
      </trkpt>
      <trkpt lat="44.12569" lon="6.36315">
        <ele>1110.94</ele>
        <time>2013-05-26T15:13:59Z</time>
      </trkpt>
      <trkpt lat="44.12587" lon="6.36406">
        <ele>1114.79</ele>
        <time>2013-05-26T15:14:38Z</time>
      </trkpt>
      <trkpt lat="44.12566" lon="6.3642">
        <ele>1114.79</ele>
        <time>2013-05-26T15:14:50Z</time>
      </trkpt>
      <trkpt lat="44.12534" lon="6.3646">
        <ele>1116.23</ele>
        <time>2013-05-26T15:15:10Z</time>
      </trkpt>
      <trkpt lat="44.12525" lon="6.36471">
        <ele>1114.79</ele>
        <time>2013-05-26T15:15:16Z</time>
      </trkpt>
      <trkpt lat="44.12528" lon="6.36494">
        <ele>1116.71</ele>
        <time>2013-05-26T15:15:25Z</time>
      </trkpt>
      <trkpt lat="44.12552" lon="6.36542">
        <ele>1120.07</ele>
        <time>2013-05-26T15:15:46Z</time>
      </trkpt>
      <trkpt lat="44.1256" lon="6.36566">
        <ele>1122</ele>
        <time>2013-05-26T15:15:58Z</time>
      </trkpt>
      <trkpt lat="44.12585" lon="6.3662">
        <ele>1128.24</ele>
        <time>2013-05-26T15:16:25Z</time>
      </trkpt>
      <trkpt lat="44.1259" lon="6.36666">
        <ele>1133.53</ele>
        <time>2013-05-26T15:16:49Z</time>
      </trkpt>
      <trkpt lat="44.12553" lon="6.36715">
        <ele>1141.22</ele>
        <time>2013-05-26T15:17:30Z</time>
      </trkpt>
      <trkpt lat="44.1253" lon="6.36744">
        <ele>1144.11</ele>
        <time>2013-05-26T15:17:54Z</time>
      </trkpt>
      <trkpt lat="44.12497" lon="6.36792">
        <ele>1149.39</ele>
        <time>2013-05-26T15:18:30Z</time>
      </trkpt>
      <trkpt lat="44.12465" lon="6.3679">
        <ele>1153.24</ele>
        <time>2013-05-26T15:18:52Z</time>
      </trkpt>
      <trkpt lat="44.12442" lon="6.36821">
        <ele>1157.56</ele>
        <time>2013-05-26T15:19:17Z</time>
      </trkpt>
      <trkpt lat="44.12413" lon="6.3684">
        <ele>1160.93</ele>
        <time>2013-05-26T15:19:41Z</time>
      </trkpt>
      <trkpt lat="44.12412" lon="6.36841">
        <ele>1160.93</ele>
        <time>2013-05-26T15:19:42Z</time>
      </trkpt>
      <trkpt lat="44.1241" lon="6.36892">
        <ele>1166.22</ele>
        <time>2013-05-26T15:20:10Z</time>
      </trkpt>
      <trkpt lat="44.12407" lon="6.36937">
        <ele>1170.06</ele>
        <time>2013-05-26T15:21:45Z</time>
      </trkpt>
      <trkpt lat="44.12402" lon="6.36975">
        <ele>1173.43</ele>
        <time>2013-05-26T15:22:05Z</time>
      </trkpt>
      <trkpt lat="44.12401" lon="6.36981">
        <ele>1173.43</ele>
        <time>2013-05-26T15:22:08Z</time>
      </trkpt>
      <trkpt lat="44.12395" lon="6.37023">
        <ele>1178.23</ele>
        <time>2013-05-26T15:22:30Z</time>
      </trkpt>
      <trkpt lat="44.12388" lon="6.37082">
        <ele>1183.04</ele>
        <time>2013-05-26T15:23:03Z</time>
      </trkpt>
      <trkpt lat="44.12383" lon="6.37109">
        <ele>1186.4</ele>
        <time>2013-05-26T15:23:22Z</time>
      </trkpt>
      <trkpt lat="44.12377" lon="6.37158">
        <ele>1191.21</ele>
        <time>2013-05-26T15:24:00Z</time>
      </trkpt>
      <trkpt lat="44.12369" lon="6.37172">
        <ele>1193.13</ele>
        <time>2013-05-26T15:25:24Z</time>
      </trkpt>
      <trkpt lat="44.12369" lon="6.37177">
        <ele>1194.09</ele>
        <time>2013-05-26T15:28:48Z</time>
      </trkpt>
      <trkpt lat="44.12369" lon="6.3719">
        <ele>1194.58</ele>
        <time>2013-05-26T15:28:56Z</time>
      </trkpt>
      <trkpt lat="44.12349" lon="6.37211">
        <ele>1198.42</ele>
        <time>2013-05-26T15:29:15Z</time>
      </trkpt>
      <trkpt lat="44.1233" lon="6.37234">
        <ele>1201.79</ele>
        <time>2013-05-26T15:29:35Z</time>
      </trkpt>
      <trkpt lat="44.12316" lon="6.37265">
        <ele>1205.63</ele>
        <time>2013-05-26T15:29:53Z</time>
      </trkpt>
      <trkpt lat="44.12267" lon="6.37297">
        <ele>1209</ele>
        <time>2013-05-26T15:30:30Z</time>
      </trkpt>
      <trkpt lat="44.12233" lon="6.37327">
        <ele>1209.96</ele>
        <time>2013-05-26T15:30:48Z</time>
      </trkpt>
      <trkpt lat="44.12191" lon="6.37368">
        <ele>1205.63</ele>
        <time>2013-05-26T15:30:59Z</time>
      </trkpt>
      <trkpt lat="44.12187" lon="6.37375">
        <ele>1205.63</ele>
        <time>2013-05-26T15:31:00Z</time>
      </trkpt>
      <trkpt lat="44.12178" lon="6.37391">
        <ele>1204.67</ele>
        <time>2013-05-26T15:31:02Z</time>
      </trkpt>
      <trkpt lat="44.12166" lon="6.37413">
        <ele>1203.23</ele>
        <time>2013-05-26T15:31:05Z</time>
      </trkpt>
      <trkpt lat="44.12141" lon="6.37415">
        <ele>1200.82</ele>
        <time>2013-05-26T15:31:09Z</time>
      </trkpt>
      <trkpt lat="44.12136" lon="6.37417">
        <ele>1200.82</ele>
        <time>2013-05-26T15:31:10Z</time>
      </trkpt>
      <trkpt lat="44.12057" lon="6.37447">
        <ele>1194.58</ele>
        <time>2013-05-26T15:31:21Z</time>
      </trkpt>
      <trkpt lat="44.12049" lon="6.37453">
        <ele>1194.58</ele>
        <time>2013-05-26T15:31:22Z</time>
      </trkpt>
      <trkpt lat="44.12012" lon="6.37486">
        <ele>1190.25</ele>
        <time>2013-05-26T15:31:27Z</time>
      </trkpt>
      <trkpt lat="44.12004" lon="6.37493">
        <ele>1191.69</ele>
        <time>2013-05-26T15:31:28Z</time>
      </trkpt>
      <trkpt lat="44.11978" lon="6.37544">
        <ele>1187.85</ele>
        <time>2013-05-26T15:31:35Z</time>
      </trkpt>
      <trkpt lat="44.12018" lon="6.376">
        <ele>1187.85</ele>
        <time>2013-05-26T15:31:51Z</time>
      </trkpt>
      <trkpt lat="44.12042" lon="6.37636">
        <ele>1190.25</ele>
        <time>2013-05-26T15:32:05Z</time>
      </trkpt>
      <trkpt lat="44.12056" lon="6.37668">
        <ele>1192.65</ele>
        <time>2013-05-26T15:32:19Z</time>
      </trkpt>
      <trkpt lat="44.12081" lon="6.37744">
        <ele>1200.34</ele>
        <time>2013-05-26T15:33:03Z</time>
      </trkpt>
      <trkpt lat="44.12084" lon="6.3775">
        <ele>1199.86</ele>
        <time>2013-05-26T15:33:07Z</time>
      </trkpt>
      <trkpt lat="44.12093" lon="6.37786">
        <ele>1203.23</ele>
        <time>2013-05-26T15:33:27Z</time>
      </trkpt>
      <trkpt lat="44.12093" lon="6.37788">
        <ele>1203.23</ele>
        <time>2013-05-26T15:33:28Z</time>
      </trkpt>
      <trkpt lat="44.12104" lon="6.3786">
        <ele>1209.48</ele>
        <time>2013-05-26T15:34:07Z</time>
      </trkpt>
      <trkpt lat="44.12105" lon="6.37919">
        <ele>1215.24</ele>
        <time>2013-05-26T15:34:42Z</time>
      </trkpt>
      <trkpt lat="44.12093" lon="6.37942">
        <ele>1218.61</ele>
        <time>2013-05-26T15:34:59Z</time>
      </trkpt>
      <trkpt lat="44.12074" lon="6.37973">
        <ele>1221.97</ele>
        <time>2013-05-26T15:35:22Z</time>
      </trkpt>
      <trkpt lat="44.12057" lon="6.38012">
        <ele>1224.86</ele>
        <time>2013-05-26T15:35:48Z</time>
      </trkpt>
      <trkpt lat="44.12042" lon="6.38048">
        <ele>1226.78</ele>
        <time>2013-05-26T15:36:09Z</time>
      </trkpt>
      <trkpt lat="44.12051" lon="6.38078">
        <ele>1229.66</ele>
        <time>2013-05-26T15:36:27Z</time>
      </trkpt>
      <trkpt lat="44.12061" lon="6.38112">
        <ele>1233.03</ele>
        <time>2013-05-26T15:36:47Z</time>
      </trkpt>
      <trkpt lat="44.1205" lon="6.38131">
        <ele>1235.43</ele>
        <time>2013-05-26T15:37:18Z</time>
      </trkpt>
      <trkpt lat="44.12026" lon="6.38177">
        <ele>1239.76</ele>
        <time>2013-05-26T15:37:51Z</time>
      </trkpt>
      <trkpt lat="44.11999" lon="6.38244">
        <ele>1245.53</ele>
        <time>2013-05-26T15:38:32Z</time>
      </trkpt>
      <trkpt lat="44.11983" lon="6.3829">
        <ele>1249.37</ele>
        <time>2013-05-26T15:38:59Z</time>
      </trkpt>
      <trkpt lat="44.11981" lon="6.38294">
        <ele>1249.37</ele>
        <time>2013-05-26T15:39:02Z</time>
      </trkpt>
      <trkpt lat="44.11966" lon="6.38327">
        <ele>1252.74</ele>
        <time>2013-05-26T15:39:23Z</time>
      </trkpt>
      <trkpt lat="44.11938" lon="6.38373">
        <ele>1258.02</ele>
        <time>2013-05-26T15:39:56Z</time>
      </trkpt>
      <trkpt lat="44.1192" lon="6.38413">
        <ele>1261.39</ele>
        <time>2013-05-26T15:40:57Z</time>
      </trkpt>
      <trkpt lat="44.11908" lon="6.38436">
        <ele>1263.31</ele>
        <time>2013-05-26T15:41:11Z</time>
      </trkpt>
      <trkpt lat="44.11906" lon="6.38448">
        <ele>1263.31</ele>
        <time>2013-05-26T15:41:18Z</time>
      </trkpt>
      <trkpt lat="44.119" lon="6.38461">
        <ele>1266.67</ele>
        <time>2013-05-26T15:41:28Z</time>
      </trkpt>
      <trkpt lat="44.11897" lon="6.38466">
        <ele>1266.67</ele>
        <time>2013-05-26T15:41:32Z</time>
      </trkpt>
      <trkpt lat="44.11874" lon="6.38507">
        <ele>1270.52</ele>
        <time>2013-05-26T15:42:01Z</time>
      </trkpt>
      <trkpt lat="44.11862" lon="6.38542">
        <ele>1275.33</ele>
        <time>2013-05-26T15:42:25Z</time>
      </trkpt>
      <trkpt lat="44.11862" lon="6.38568">
        <ele>1278.69</ele>
        <time>2013-05-26T15:42:43Z</time>
      </trkpt>
      <trkpt lat="44.11862" lon="6.38595">
        <ele>1280.61</ele>
        <time>2013-05-26T15:42:59Z</time>
      </trkpt>
      <trkpt lat="44.11868" lon="6.38674">
        <ele>1286.38</ele>
        <time>2013-05-26T15:43:45Z</time>
      </trkpt>
      <trkpt lat="44.11866" lon="6.38723">
        <ele>1288.78</ele>
        <time>2013-05-26T15:44:10Z</time>
      </trkpt>
      <trkpt lat="44.11841" lon="6.38747">
        <ele>1291.67</ele>
        <time>2013-05-26T15:44:34Z</time>
      </trkpt>
      <trkpt lat="44.11806" lon="6.38765">
        <ele>1295.51</ele>
        <time>2013-05-26T15:45:11Z</time>
      </trkpt>
      <trkpt lat="44.11802" lon="6.38767">
        <ele>1295.99</ele>
        <time>2013-05-26T15:45:31Z</time>
      </trkpt>
      <trkpt lat="44.11761" lon="6.38757">
        <ele>1300.32</ele>
        <time>2013-05-26T15:46:02Z</time>
      </trkpt>
      <trkpt lat="44.1176" lon="6.38757">
        <ele>1300.32</ele>
        <time>2013-05-26T15:46:03Z</time>
      </trkpt>
      <trkpt lat="44.11752" lon="6.38765">
        <ele>1303.69</ele>
        <time>2013-05-26T15:46:13Z</time>
      </trkpt>
      <trkpt lat="44.11731" lon="6.38794">
        <ele>1305.13</ele>
        <time>2013-05-26T15:46:40Z</time>
      </trkpt>
      <trkpt lat="44.11725" lon="6.38797">
        <ele>1305.13</ele>
        <time>2013-05-26T15:46:46Z</time>
      </trkpt>
      <trkpt lat="44.11712" lon="6.38804">
        <ele>1306.57</ele>
        <time>2013-05-26T15:46:57Z</time>
      </trkpt>
      <trkpt lat="44.11711" lon="6.38806">
        <ele>1306.57</ele>
        <time>2013-05-26T15:46:58Z</time>
      </trkpt>
      <trkpt lat="44.11694" lon="6.38832">
        <ele>1311.38</ele>
        <time>2013-05-26T15:47:55Z</time>
      </trkpt>
      <trkpt lat="44.11657" lon="6.38878">
        <ele>1316.66</ele>
        <time>2013-05-26T15:48:37Z</time>
      </trkpt>
      <trkpt lat="44.11618" lon="6.38903">
        <ele>1321.95</ele>
        <time>2013-05-26T15:49:15Z</time>
      </trkpt>
      <trkpt lat="44.11607" lon="6.38909">
        <ele>1322.91</ele>
        <time>2013-05-26T15:49:26Z</time>
      </trkpt>
      <trkpt lat="44.1156" lon="6.38892">
        <ele>1327.72</ele>
        <time>2013-05-26T15:50:11Z</time>
      </trkpt>
      <trkpt lat="44.1154" lon="6.38913">
        <ele>1331.56</ele>
        <time>2013-05-26T15:50:35Z</time>
      </trkpt>
      <trkpt lat="44.11512" lon="6.38951">
        <ele>1334.93</ele>
        <time>2013-05-26T15:51:05Z</time>
      </trkpt>
      <trkpt lat="44.11511" lon="6.38952">
        <ele>1334.93</ele>
        <time>2013-05-26T15:51:06Z</time>
      </trkpt>
      <trkpt lat="44.11487" lon="6.39004">
        <ele>1339.73</ele>
        <time>2013-05-26T15:51:45Z</time>
      </trkpt>
      <trkpt lat="44.11485" lon="6.39007">
        <ele>1339.73</ele>
        <time>2013-05-26T15:51:48Z</time>
      </trkpt>
      <trkpt lat="44.11454" lon="6.39014">
        <ele>1344.54</ele>
        <time>2013-05-26T15:52:28Z</time>
      </trkpt>
      <trkpt lat="44.11403" lon="6.39002">
        <ele>1349.83</ele>
        <time>2013-05-26T15:53:31Z</time>
      </trkpt>
      <trkpt lat="44.11379" lon="6.39">
        <ele>1353.19</ele>
        <time>2013-05-26T15:53:51Z</time>
      </trkpt>
      <trkpt lat="44.11338" lon="6.38989">
        <ele>1357.04</ele>
        <time>2013-05-26T15:54:27Z</time>
      </trkpt>
      <trkpt lat="44.11321" lon="6.38979">
        <ele>1359.44</ele>
        <time>2013-05-26T15:54:43Z</time>
      </trkpt>
      <trkpt lat="44.11307" lon="6.38954">
        <ele>1363.77</ele>
        <time>2013-05-26T15:55:03Z</time>
      </trkpt>
      <trkpt lat="44.11305" lon="6.38952">
        <ele>1362.33</ele>
        <time>2013-05-26T15:55:05Z</time>
      </trkpt>
      <trkpt lat="44.11295" lon="6.3896">
        <ele>1361.84</ele>
        <time>2013-05-26T15:55:31Z</time>
      </trkpt>
      <trkpt lat="44.11292" lon="6.38962">
        <ele>1360.88</ele>
        <time>2013-05-26T16:01:09Z</time>
      </trkpt>
      <trkpt lat="44.11254" lon="6.38984">
        <ele>1360.88</ele>
        <time>2013-05-26T16:01:32Z</time>
      </trkpt>
      <trkpt lat="44.11212" lon="6.39009">
        <ele>1361.36</ele>
        <time>2013-05-26T16:01:49Z</time>
      </trkpt>
      <trkpt lat="44.11245" lon="6.39059">
        <ele>1365.69</ele>
        <time>2013-05-26T16:02:14Z</time>
      </trkpt>
      <trkpt lat="44.11263" lon="6.39092">
        <ele>1365.69</ele>
        <time>2013-05-26T16:02:32Z</time>
      </trkpt>
      <trkpt lat="44.11285" lon="6.39151">
        <ele>1369.05</ele>
        <time>2013-05-26T16:03:06Z</time>
      </trkpt>
      <trkpt lat="44.11295" lon="6.39168">
        <ele>1369.05</ele>
        <time>2013-05-26T16:03:14Z</time>
      </trkpt>
      <trkpt lat="44.11304" lon="6.39237">
        <ele>1370.98</ele>
        <time>2013-05-26T16:03:39Z</time>
      </trkpt>
      <trkpt lat="44.11319" lon="6.39305">
        <ele>1375.3</ele>
        <time>2013-05-26T16:04:08Z</time>
      </trkpt>
      <trkpt lat="44.11323" lon="6.39314">
        <ele>1374.82</ele>
        <time>2013-05-26T16:04:13Z</time>
      </trkpt>
      <trkpt lat="44.11317" lon="6.39396">
        <ele>1379.15</ele>
        <time>2013-05-26T16:04:46Z</time>
      </trkpt>
      <trkpt lat="44.11308" lon="6.39431">
        <ele>1382.51</ele>
        <time>2013-05-26T16:05:05Z</time>
      </trkpt>
      <trkpt lat="44.11309" lon="6.39424">
        <ele>1383.96</ele>
        <time>2013-05-26T16:10:05Z</time>
      </trkpt>
      <trkpt lat="44.1131" lon="6.39425">
        <ele>1383.47</ele>
        <time>2013-05-26T16:11:50Z</time>
      </trkpt>
      <trkpt lat="44.11296" lon="6.39449">
        <ele>1385.88</ele>
        <time>2013-05-26T16:14:18Z</time>
      </trkpt>
      <trkpt lat="44.11285" lon="6.39471">
        <ele>1387.32</ele>
        <time>2013-05-26T16:14:29Z</time>
      </trkpt>
      <trkpt lat="44.11271" lon="6.39505">
        <ele>1390.68</ele>
        <time>2013-05-26T16:14:47Z</time>
      </trkpt>
      <trkpt lat="44.11277" lon="6.39573">
        <ele>1395.97</ele>
        <time>2013-05-26T16:15:28Z</time>
      </trkpt>
      <trkpt lat="44.1128" lon="6.39577">
        <ele>1395.97</ele>
        <time>2013-05-26T16:15:32Z</time>
      </trkpt>
      <trkpt lat="44.11302" lon="6.39581">
        <ele>1397.89</ele>
        <time>2013-05-26T16:15:47Z</time>
      </trkpt>
      <trkpt lat="44.11319" lon="6.396">
        <ele>1400.78</ele>
        <time>2013-05-26T16:16:05Z</time>
      </trkpt>
      <trkpt lat="44.11342" lon="6.39624">
        <ele>1403.18</ele>
        <time>2013-05-26T16:16:27Z</time>
      </trkpt>
      <trkpt lat="44.11372" lon="6.39614">
        <ele>1406.55</ele>
        <time>2013-05-26T16:16:49Z</time>
      </trkpt>
      <trkpt lat="44.11376" lon="6.39615">
        <ele>1405.58</ele>
        <time>2013-05-26T16:16:52Z</time>
      </trkpt>
      <trkpt lat="44.11368" lon="6.39639">
        <ele>1407.99</ele>
        <time>2013-05-26T16:17:11Z</time>
      </trkpt>
      <trkpt lat="44.11309" lon="6.39646">
        <ele>1413.28</ele>
        <time>2013-05-26T16:17:58Z</time>
      </trkpt>
      <trkpt lat="44.11304" lon="6.39641">
        <ele>1413.28</ele>
        <time>2013-05-26T16:18:03Z</time>
      </trkpt>
      <trkpt lat="44.11298" lon="6.39656">
        <ele>1416.16</ele>
        <time>2013-05-26T16:18:18Z</time>
      </trkpt>
      <trkpt lat="44.11344" lon="6.3969">
        <ele>1421.45</ele>
        <time>2013-05-26T16:18:57Z</time>
      </trkpt>
      <trkpt lat="44.11377" lon="6.3971">
        <ele>1425.29</ele>
        <time>2013-05-26T16:19:27Z</time>
      </trkpt>
      <trkpt lat="44.11415" lon="6.39705">
        <ele>1429.62</ele>
        <time>2013-05-26T16:19:59Z</time>
      </trkpt>
      <trkpt lat="44.11443" lon="6.3967">
        <ele>1432.98</ele>
        <time>2013-05-26T16:20:29Z</time>
      </trkpt>
      <trkpt lat="44.11463" lon="6.39646">
        <ele>1435.87</ele>
        <time>2013-05-26T16:20:53Z</time>
      </trkpt>
      <trkpt lat="44.11465" lon="6.39688">
        <ele>1439.71</ele>
        <time>2013-05-26T16:21:17Z</time>
      </trkpt>
      <trkpt lat="44.11467" lon="6.39729">
        <ele>1442.6</ele>
        <time>2013-05-26T16:21:42Z</time>
      </trkpt>
      <trkpt lat="44.11434" lon="6.39772">
        <ele>1448.36</ele>
        <time>2013-05-26T16:22:20Z</time>
      </trkpt>
      <trkpt lat="44.11392" lon="6.3978">
        <ele>1453.17</ele>
        <time>2013-05-26T16:22:53Z</time>
      </trkpt>
      <trkpt lat="44.11362" lon="6.3978">
        <ele>1457.98</ele>
        <time>2013-05-26T16:23:28Z</time>
      </trkpt>
      <trkpt lat="44.11361" lon="6.39779">
        <ele>1457.5</ele>
        <time>2013-05-26T16:23:29Z</time>
      </trkpt>
      <trkpt lat="44.11329" lon="6.3978">
        <ele>1461.34</ele>
        <time>2013-05-26T16:23:54Z</time>
      </trkpt>
      <trkpt lat="44.11298" lon="6.39785">
        <ele>1464.71</ele>
        <time>2013-05-26T16:24:21Z</time>
      </trkpt>
      <trkpt lat="44.11277" lon="6.39797">
        <ele>1468.55</ele>
        <time>2013-05-26T16:24:47Z</time>
      </trkpt>
      <trkpt lat="44.11245" lon="6.39797">
        <ele>1473.36</ele>
        <time>2013-05-26T16:25:24Z</time>
      </trkpt>
      <trkpt lat="44.11192" lon="6.39807">
        <ele>1480.09</ele>
        <time>2013-05-26T16:26:09Z</time>
      </trkpt>
      <trkpt lat="44.11152" lon="6.3981">
        <ele>1484.41</ele>
        <time>2013-05-26T16:26:44Z</time>
      </trkpt>
      <trkpt lat="44.11136" lon="6.39796">
        <ele>1488.74</ele>
        <time>2013-05-26T16:26:59Z</time>
      </trkpt>
      <trkpt lat="44.11129" lon="6.3979">
        <ele>1488.74</ele>
        <time>2013-05-26T16:27:05Z</time>
      </trkpt>
      <trkpt lat="44.11096" lon="6.39795">
        <ele>1493.06</ele>
        <time>2013-05-26T16:27:36Z</time>
      </trkpt>
      <trkpt lat="44.11073" lon="6.39812">
        <ele>1496.43</ele>
        <time>2013-05-26T16:27:59Z</time>
      </trkpt>
      <trkpt lat="44.11053" lon="6.39836">
        <ele>1499.79</ele>
        <time>2013-05-26T16:28:21Z</time>
      </trkpt>
      <trkpt lat="44.10997" lon="6.39876">
        <ele>1502.2</ele>
        <time>2013-05-26T16:29:07Z</time>
      </trkpt>
      <trkpt lat="44.10989" lon="6.3989">
        <ele>1502.2</ele>
        <time>2013-05-26T16:31:05Z</time>
      </trkpt>
      <trkpt lat="44.10983" lon="6.39892">
        <ele>1501.24</ele>
        <time>2013-05-26T16:32:00Z</time>
      </trkpt>
      <trkpt lat="44.10966" lon="6.39881">
        <ele>1496.91</ele>
        <time>2013-05-26T16:32:09Z</time>
      </trkpt>
      <trkpt lat="44.10941" lon="6.3987">
        <ele>1490.66</ele>
        <time>2013-05-26T16:32:21Z</time>
      </trkpt>
      <trkpt lat="44.10939" lon="6.3987">
        <ele>1490.66</ele>
        <time>2013-05-26T16:32:38Z</time>
      </trkpt>
      <trkpt lat="44.1091" lon="6.39858">
        <ele>1484.89</ele>
        <time>2013-05-26T16:33:23Z</time>
      </trkpt>
      <trkpt lat="44.10884" lon="6.39861">
        <ele>1482.01</ele>
        <time>2013-05-26T16:33:42Z</time>
      </trkpt>
      <trkpt lat="44.1086" lon="6.39867">
        <ele>1478.16</ele>
        <time>2013-05-26T16:33:46Z</time>
      </trkpt>
      <trkpt lat="44.10842" lon="6.39859">
        <ele>1474.8</ele>
        <time>2013-05-26T16:33:50Z</time>
      </trkpt>
      <trkpt lat="44.10795" lon="6.39859">
        <ele>1468.07</ele>
        <time>2013-05-26T16:34:04Z</time>
      </trkpt>
      <trkpt lat="44.10771" lon="6.39861">
        <ele>1465.67</ele>
        <time>2013-05-26T16:34:09Z</time>
      </trkpt>
      <trkpt lat="44.10747" lon="6.39859">
        <ele>1462.3</ele>
        <time>2013-05-26T16:34:14Z</time>
      </trkpt>
      <trkpt lat="44.1073" lon="6.39865">
        <ele>1458.46</ele>
        <time>2013-05-26T16:34:19Z</time>
      </trkpt>
      <trkpt lat="44.10727" lon="6.39863">
        <ele>1458.46</ele>
        <time>2013-05-26T16:34:20Z</time>
      </trkpt>
      <trkpt lat="44.10716" lon="6.39864">
        <ele>1455.09</ele>
        <time>2013-05-26T16:34:23Z</time>
      </trkpt>
      <trkpt lat="44.10707" lon="6.39865">
        <ele>1451.73</ele>
        <time>2013-05-26T16:34:27Z</time>
      </trkpt>
      <trkpt lat="44.10695" lon="6.3986">
        <ele>1448.36</ele>
        <time>2013-05-26T16:34:31Z</time>
      </trkpt>
      <trkpt lat="44.10682" lon="6.39853">
        <ele>1445.48</ele>
        <time>2013-05-26T16:34:36Z</time>
      </trkpt>
      <trkpt lat="44.10679" lon="6.39851">
        <ele>1445.48</ele>
        <time>2013-05-26T16:34:37Z</time>
      </trkpt>
      <trkpt lat="44.10661" lon="6.3984">
        <ele>1442.11</ele>
        <time>2013-05-26T16:34:42Z</time>
      </trkpt>
      <trkpt lat="44.10653" lon="6.39834">
        <ele>1442.11</ele>
        <time>2013-05-26T16:34:46Z</time>
      </trkpt>
      <trkpt lat="44.10634" lon="6.39834">
        <ele>1437.31</ele>
        <time>2013-05-26T16:35:00Z</time>
      </trkpt>
      <trkpt lat="44.10617" lon="6.39832">
        <ele>1433.46</ele>
        <time>2013-05-26T16:35:06Z</time>
      </trkpt>
      <trkpt lat="44.10609" lon="6.39832">
        <ele>1430.1</ele>
        <time>2013-05-26T16:35:10Z</time>
      </trkpt>
      <trkpt lat="44.10597" lon="6.39832">
        <ele>1426.73</ele>
        <time>2013-05-26T16:35:15Z</time>
      </trkpt>
      <trkpt lat="44.10584" lon="6.39831">
        <ele>1423.85</ele>
        <time>2013-05-26T16:35:59Z</time>
      </trkpt>
      <trkpt lat="44.10562" lon="6.39814">
        <ele>1416.64</ele>
        <time>2013-05-26T16:36:08Z</time>
      </trkpt>
      <trkpt lat="44.10542" lon="6.3981">
        <ele>1411.83</ele>
        <time>2013-05-26T16:36:16Z</time>
      </trkpt>
      <trkpt lat="44.10524" lon="6.39812">
        <ele>1407.03</ele>
        <time>2013-05-26T16:36:25Z</time>
      </trkpt>
      <trkpt lat="44.10519" lon="6.39807">
        <ele>1407.51</ele>
        <time>2013-05-26T16:36:36Z</time>
      </trkpt>
      <trkpt lat="44.10497" lon="6.39797">
        <ele>1401.74</ele>
        <time>2013-05-26T16:37:35Z</time>
      </trkpt>
      <trkpt lat="44.1049" lon="6.398">
        <ele>1398.37</ele>
        <time>2013-05-26T16:37:38Z</time>
      </trkpt>
      <trkpt lat="44.10478" lon="6.398">
        <ele>1392.61</ele>
        <time>2013-05-26T16:37:46Z</time>
      </trkpt>
      <trkpt lat="44.10476" lon="6.39797">
        <ele>1391.65</ele>
        <time>2013-05-26T16:38:02Z</time>
      </trkpt>
      <trkpt lat="44.10463" lon="6.3979">
        <ele>1387.32</ele>
        <time>2013-05-26T16:38:12Z</time>
      </trkpt>
      <trkpt lat="44.10457" lon="6.39795">
        <ele>1382.99</ele>
        <time>2013-05-26T16:38:18Z</time>
      </trkpt>
      <trkpt lat="44.10457" lon="6.39796">
        <ele>1382.99</ele>
        <time>2013-05-26T16:38:19Z</time>
      </trkpt>
      <trkpt lat="44.10449" lon="6.3981">
        <ele>1379.63</ele>
        <time>2013-05-26T16:38:45Z</time>
      </trkpt>
      <trkpt lat="44.10447" lon="6.39806">
        <ele>1377.71</ele>
        <time>2013-05-26T16:38:53Z</time>
      </trkpt>
      <trkpt lat="44.10442" lon="6.39782">
        <ele>1373.38</ele>
        <time>2013-05-26T16:39:03Z</time>
      </trkpt>
      <trkpt lat="44.10432" lon="6.39774">
        <ele>1368.57</ele>
        <time>2013-05-26T16:39:10Z</time>
      </trkpt>
      <trkpt lat="44.10428" lon="6.39791">
        <ele>1364.73</ele>
        <time>2013-05-26T16:39:25Z</time>
      </trkpt>
      <trkpt lat="44.10414" lon="6.39778">
        <ele>1358</ele>
        <time>2013-05-26T16:39:42Z</time>
      </trkpt>
      <trkpt lat="44.10402" lon="6.3977">
        <ele>1353.19</ele>
        <time>2013-05-26T16:40:03Z</time>
      </trkpt>
      <trkpt lat="44.10393" lon="6.39767">
        <ele>1351.27</ele>
        <time>2013-05-26T16:40:29Z</time>
      </trkpt>
      <trkpt lat="44.10371" lon="6.39765">
        <ele>1346.46</ele>
        <time>2013-05-26T16:40:37Z</time>
      </trkpt>
      <trkpt lat="44.10345" lon="6.39747">
        <ele>1340.7</ele>
        <time>2013-05-26T16:40:47Z</time>
      </trkpt>
      <trkpt lat="44.10343" lon="6.39742">
        <ele>1341.18</ele>
        <time>2013-05-26T16:40:48Z</time>
      </trkpt>
      <trkpt lat="44.10328" lon="6.39721">
        <ele>1336.37</ele>
        <time>2013-05-26T16:40:55Z</time>
      </trkpt>
      <trkpt lat="44.1031" lon="6.39721">
        <ele>1331.56</ele>
        <time>2013-05-26T16:41:02Z</time>
      </trkpt>
      <trkpt lat="44.10299" lon="6.39719">
        <ele>1328.2</ele>
        <time>2013-05-26T16:41:06Z</time>
      </trkpt>
      <trkpt lat="44.1028" lon="6.39708">
        <ele>1323.39</ele>
        <time>2013-05-26T16:41:12Z</time>
      </trkpt>
      <trkpt lat="44.10262" lon="6.39699">
        <ele>1320.03</ele>
        <time>2013-05-26T16:41:18Z</time>
      </trkpt>
      <trkpt lat="44.10239" lon="6.39694">
        <ele>1320.51</ele>
        <time>2013-05-26T16:41:29Z</time>
      </trkpt>
      <trkpt lat="44.10226" lon="6.39695">
        <ele>1318.59</ele>
        <time>2013-05-26T16:41:40Z</time>
      </trkpt>
      <trkpt lat="44.1022" lon="6.3971">
        <ele>1314.26</ele>
        <time>2013-05-26T16:41:48Z</time>
      </trkpt>
      <trkpt lat="44.10217" lon="6.39708">
        <ele>1314.26</ele>
        <time>2013-05-26T16:41:49Z</time>
      </trkpt>
      <trkpt lat="44.10204" lon="6.39696">
        <ele>1309.93</ele>
        <time>2013-05-26T16:41:53Z</time>
      </trkpt>
      <trkpt lat="44.10172" lon="6.39656">
        <ele>1303.69</ele>
        <time>2013-05-26T16:42:04Z</time>
      </trkpt>
      <trkpt lat="44.10115" lon="6.39639">
        <ele>1295.99</ele>
        <time>2013-05-26T16:42:21Z</time>
      </trkpt>
      <trkpt lat="44.10076" lon="6.39634">
        <ele>1291.67</ele>
        <time>2013-05-26T16:42:29Z</time>
      </trkpt>
      <trkpt lat="44.10044" lon="6.39631">
        <ele>1285.42</ele>
        <time>2013-05-26T16:42:35Z</time>
      </trkpt>
      <trkpt lat="44.10033" lon="6.39621">
        <ele>1283.98</ele>
        <time>2013-05-26T16:42:38Z</time>
      </trkpt>
      <trkpt lat="44.10012" lon="6.39607">
        <ele>1280.13</ele>
        <time>2013-05-26T16:42:42Z</time>
      </trkpt>
      <trkpt lat="44.09995" lon="6.39593">
        <ele>1276.77</ele>
        <time>2013-05-26T16:42:46Z</time>
      </trkpt>
      <trkpt lat="44.09982" lon="6.3957">
        <ele>1272.92</ele>
        <time>2013-05-26T16:42:50Z</time>
      </trkpt>
      <trkpt lat="44.09978" lon="6.39567">
        <ele>1272.92</ele>
        <time>2013-05-26T16:42:51Z</time>
      </trkpt>
      <trkpt lat="44.09954" lon="6.39558">
        <ele>1269.56</ele>
        <time>2013-05-26T16:42:56Z</time>
      </trkpt>
      <trkpt lat="44.09952" lon="6.39553">
        <ele>1269.08</ele>
        <time>2013-05-26T16:43:11Z</time>
      </trkpt>
      <trkpt lat="44.09922" lon="6.39519">
        <ele>1265.71</ele>
        <time>2013-05-26T16:44:19Z</time>
      </trkpt>
      <trkpt lat="44.09901" lon="6.39519">
        <ele>1262.35</ele>
        <time>2013-05-26T16:44:23Z</time>
      </trkpt>
      <trkpt lat="44.09886" lon="6.39518">
        <ele>1258.98</ele>
        <time>2013-05-26T16:44:26Z</time>
      </trkpt>
      <trkpt lat="44.09866" lon="6.3952">
        <ele>1255.62</ele>
        <time>2013-05-26T16:44:30Z</time>
      </trkpt>
      <trkpt lat="44.09821" lon="6.39502">
        <ele>1248.41</ele>
        <time>2013-05-26T16:44:37Z</time>
      </trkpt>
      <trkpt lat="44.09811" lon="6.39501">
        <ele>1246.97</ele>
        <time>2013-05-26T16:44:38Z</time>
      </trkpt>
      <trkpt lat="44.09786" lon="6.39497">
        <ele>1243.12</ele>
        <time>2013-05-26T16:44:41Z</time>
      </trkpt>
      <trkpt lat="44.09778" lon="6.3949">
        <ele>1239.28</ele>
        <time>2013-05-26T16:44:43Z</time>
      </trkpt>
      <trkpt lat="44.0977" lon="6.39473">
        <ele>1236.39</ele>
        <time>2013-05-26T16:44:48Z</time>
      </trkpt>
      <trkpt lat="44.09748" lon="6.39447">
        <ele>1230.62</ele>
        <time>2013-05-26T16:44:56Z</time>
      </trkpt>
      <trkpt lat="44.09725" lon="6.39449">
        <ele>1225.82</ele>
        <time>2013-05-26T16:45:00Z</time>
      </trkpt>
      <trkpt lat="44.09708" lon="6.39438">
        <ele>1222.45</ele>
        <time>2013-05-26T16:45:03Z</time>
      </trkpt>
      <trkpt lat="44.0968" lon="6.39417">
        <ele>1219.09</ele>
        <time>2013-05-26T16:45:07Z</time>
      </trkpt>
      <trkpt lat="44.09619" lon="6.39367">
        <ele>1217.17</ele>
        <time>2013-05-26T16:45:17Z</time>
      </trkpt>
      <trkpt lat="44.09603" lon="6.39366">
        <ele>1215.24</ele>
        <time>2013-05-26T16:45:28Z</time>
      </trkpt>
      <trkpt lat="44.09607" lon="6.39365">
        <ele>1215.72</ele>
        <time>2013-05-26T16:45:34Z</time>
      </trkpt>
      <trkpt lat="44.09628" lon="6.39382">
        <ele>1217.17</ele>
        <time>2013-05-26T16:45:47Z</time>
      </trkpt>
      <trkpt lat="44.09634" lon="6.39381">
        <ele>1217.17</ele>
        <time>2013-05-26T16:46:00Z</time>
      </trkpt>
      <trkpt lat="44.09628" lon="6.39382">
        <ele>1216.21</ele>
        <time>2013-05-26T16:46:44Z</time>
      </trkpt>
      <trkpt lat="44.0963" lon="6.39366">
        <ele>1216.21</ele>
        <time>2013-05-26T16:46:53Z</time>
      </trkpt>
      <trkpt lat="44.09595" lon="6.39338">
        <ele>1212.84</ele>
        <time>2013-05-26T16:47:13Z</time>
      </trkpt>
      <trkpt lat="44.09594" lon="6.39341">
        <ele>1212.84</ele>
        <time>2013-05-26T16:47:15Z</time>
      </trkpt>
      <trkpt lat="44.09599" lon="6.39362">
        <ele>1213.8</ele>
        <time>2013-05-26T16:47:24Z</time>
      </trkpt>
      <trkpt lat="44.09592" lon="6.39369">
        <ele>1213.32</ele>
        <time>2013-05-26T16:48:21Z</time>
      </trkpt>
      <trkpt lat="44.09582" lon="6.39322">
        <ele>1212.36</ele>
        <time>2013-05-26T16:48:36Z</time>
      </trkpt>
      <trkpt lat="44.09578" lon="6.39302">
        <ele>1211.4</ele>
        <time>2013-05-26T16:48:41Z</time>
      </trkpt>
      <trkpt lat="44.0955" lon="6.39286">
        <ele>1206.59</ele>
        <time>2013-05-26T16:48:46Z</time>
      </trkpt>
      <trkpt lat="44.09511" lon="6.39273">
        <ele>1200.34</ele>
        <time>2013-05-26T16:48:53Z</time>
      </trkpt>
      <trkpt lat="44.09477" lon="6.39263">
        <ele>1196.02</ele>
        <time>2013-05-26T16:48:58Z</time>
      </trkpt>
      <trkpt lat="44.0943" lon="6.39277">
        <ele>1185.92</ele>
        <time>2013-05-26T16:49:05Z</time>
      </trkpt>
      <trkpt lat="44.09407" lon="6.3927">
        <ele>1182.56</ele>
        <time>2013-05-26T16:49:08Z</time>
      </trkpt>
      <trkpt lat="44.094" lon="6.39265">
        <ele>1182.08</ele>
        <time>2013-05-26T16:49:09Z</time>
      </trkpt>
      <trkpt lat="44.09393" lon="6.3926">
        <ele>1179.19</ele>
        <time>2013-05-26T16:49:10Z</time>
      </trkpt>
      <trkpt lat="44.09373" lon="6.39254">
        <ele>1175.35</ele>
        <time>2013-05-26T16:49:14Z</time>
      </trkpt>
      <trkpt lat="44.09359" lon="6.39248">
        <ele>1173.43</ele>
        <time>2013-05-26T16:49:18Z</time>
      </trkpt>
      <trkpt lat="44.09319" lon="6.39231">
        <ele>1166.22</ele>
        <time>2013-05-26T16:49:27Z</time>
      </trkpt>
      <trkpt lat="44.09268" lon="6.3921">
        <ele>1162.37</ele>
        <time>2013-05-26T16:49:36Z</time>
      </trkpt>
      <trkpt lat="44.09235" lon="6.39207">
        <ele>1158.05</ele>
        <time>2013-05-26T16:49:43Z</time>
      </trkpt>
      <trkpt lat="44.09233" lon="6.39206">
        <ele>1158.05</ele>
        <time>2013-05-26T16:50:01Z</time>
      </trkpt>
      <trkpt lat="44.09199" lon="6.39176">
        <ele>1155.64</ele>
        <time>2013-05-26T16:50:12Z</time>
      </trkpt>
      <trkpt lat="44.09194" lon="6.39176">
        <ele>1154.68</ele>
        <time>2013-05-26T16:50:13Z</time>
      </trkpt>
      <trkpt lat="44.09143" lon="6.39181">
        <ele>1151.32</ele>
        <time>2013-05-26T16:50:22Z</time>
      </trkpt>
      <trkpt lat="44.09136" lon="6.3918">
        <ele>1151.32</ele>
        <time>2013-05-26T16:50:23Z</time>
      </trkpt>
      <trkpt lat="44.09054" lon="6.39167">
        <ele>1146.03</ele>
        <time>2013-05-26T16:50:35Z</time>
      </trkpt>
      <trkpt lat="44.09039" lon="6.39138">
        <ele>1143.63</ele>
        <time>2013-05-26T16:50:42Z</time>
      </trkpt>
      <trkpt lat="44.09034" lon="6.39109">
        <ele>1143.63</ele>
        <time>2013-05-26T16:50:48Z</time>
      </trkpt>
      <trkpt lat="44.09015" lon="6.3907">
        <ele>1141.7</ele>
        <time>2013-05-26T16:50:55Z</time>
      </trkpt>
      <trkpt lat="44.08999" lon="6.39046">
        <ele>1142.18</ele>
        <time>2013-05-26T16:51:05Z</time>
      </trkpt>
      <trkpt lat="44.08981" lon="6.39029">
        <ele>1138.34</ele>
        <time>2013-05-26T16:51:11Z</time>
      </trkpt>
      <trkpt lat="44.08978" lon="6.39025">
        <ele>1138.34</ele>
        <time>2013-05-26T16:51:12Z</time>
      </trkpt>
      <trkpt lat="44.08967" lon="6.39011">
        <ele>1134.97</ele>
        <time>2013-05-26T16:51:15Z</time>
      </trkpt>
      <trkpt lat="44.08953" lon="6.38911">
        <ele>1131.13</ele>
        <time>2013-05-26T16:51:35Z</time>
      </trkpt>
      <trkpt lat="44.08946" lon="6.38867">
        <ele>1131.13</ele>
        <time>2013-05-26T16:51:42Z</time>
      </trkpt>
      <trkpt lat="44.08945" lon="6.38793">
        <ele>1125.36</ele>
        <time>2013-05-26T16:51:54Z</time>
      </trkpt>
      <trkpt lat="44.0893" lon="6.38759">
        <ele>1121.03</ele>
        <time>2013-05-26T16:51:58Z</time>
      </trkpt>
      <trkpt lat="44.08927" lon="6.38751">
        <ele>1121.03</ele>
        <time>2013-05-26T16:51:59Z</time>
      </trkpt>
      <trkpt lat="44.08927" lon="6.38726">
        <ele>1116.71</ele>
        <time>2013-05-26T16:52:03Z</time>
      </trkpt>
      <trkpt lat="44.0892" lon="6.38725">
        <ele>1115.27</ele>
        <time>2013-05-26T16:52:06Z</time>
      </trkpt>
      <trkpt lat="44.08906" lon="6.38724">
        <ele>1113.34</ele>
        <time>2013-05-26T16:52:09Z</time>
      </trkpt>
      <trkpt lat="44.08894" lon="6.38721">
        <ele>1109.5</ele>
        <time>2013-05-26T16:52:11Z</time>
      </trkpt>
      <trkpt lat="44.08855" lon="6.3869">
        <ele>1106.61</ele>
        <time>2013-05-26T16:52:26Z</time>
      </trkpt>
      <trkpt lat="44.08844" lon="6.38662">
        <ele>1107.58</ele>
        <time>2013-05-26T16:52:59Z</time>
      </trkpt>
      <trkpt lat="44.08849" lon="6.38674">
        <ele>1107.1</ele>
        <time>2013-05-26T16:53:05Z</time>
      </trkpt>
      <trkpt lat="44.08858" lon="6.38694">
        <ele>1105.65</ele>
        <time>2013-05-26T16:53:11Z</time>
      </trkpt>
      <trkpt lat="44.08847" lon="6.38741">
        <ele>1101.81</ele>
        <time>2013-05-26T16:53:22Z</time>
      </trkpt>
      <trkpt lat="44.08834" lon="6.388">
        <ele>1097.96</ele>
        <time>2013-05-26T16:53:30Z</time>
      </trkpt>
      <trkpt lat="44.08834" lon="6.38848">
        <ele>1095.08</ele>
        <time>2013-05-26T16:53:34Z</time>
      </trkpt>
      <trkpt lat="44.08834" lon="6.38902">
        <ele>1090.75</ele>
        <time>2013-05-26T16:53:39Z</time>
      </trkpt>
      <trkpt lat="44.08812" lon="6.38904">
        <ele>1089.31</ele>
        <time>2013-05-26T16:53:44Z</time>
      </trkpt>
      <trkpt lat="44.08809" lon="6.38901">
        <ele>1089.31</ele>
        <time>2013-05-26T16:53:45Z</time>
      </trkpt>
      <trkpt lat="44.08739" lon="6.38815">
        <ele>1089.31</ele>
        <time>2013-05-26T16:54:08Z</time>
      </trkpt>
      <trkpt lat="44.08697" lon="6.38767">
        <ele>1087.39</ele>
        <time>2013-05-26T16:54:18Z</time>
      </trkpt>
      <trkpt lat="44.08625" lon="6.38708">
        <ele>1081.62</ele>
        <time>2013-05-26T16:54:28Z</time>
      </trkpt>
      <trkpt lat="44.08618" lon="6.38698">
        <ele>1081.62</ele>
        <time>2013-05-26T16:54:29Z</time>
      </trkpt>
      <trkpt lat="44.08585" lon="6.38655">
        <ele>1077.29</ele>
        <time>2013-05-26T16:54:34Z</time>
      </trkpt>
      <trkpt lat="44.08577" lon="6.38647">
        <ele>1077.29</ele>
        <time>2013-05-26T16:54:35Z</time>
      </trkpt>
      <trkpt lat="44.08551" lon="6.38625">
        <ele>1074.41</ele>
        <time>2013-05-26T16:54:38Z</time>
      </trkpt>
      <trkpt lat="44.08504" lon="6.38585">
        <ele>1071.53</ele>
        <time>2013-05-26T16:54:43Z</time>
      </trkpt>
      <trkpt lat="44.08496" lon="6.38576">
        <ele>1071.53</ele>
        <time>2013-05-26T16:54:44Z</time>
      </trkpt>
      <trkpt lat="44.08482" lon="6.38559">
        <ele>1069.6</ele>
        <time>2013-05-26T16:54:46Z</time>
      </trkpt>
      <trkpt lat="44.08375" lon="6.38539">
        <ele>1068.16</ele>
        <time>2013-05-26T16:55:00Z</time>
      </trkpt>
      <trkpt lat="44.08353" lon="6.38554">
        <ele>1066.72</ele>
        <time>2013-05-26T16:55:04Z</time>
      </trkpt>
      <trkpt lat="44.08339" lon="6.3857">
        <ele>1066.72</ele>
        <time>2013-05-26T16:55:07Z</time>
      </trkpt>
      <trkpt lat="44.08287" lon="6.38628">
        <ele>1068.64</ele>
        <time>2013-05-26T16:55:28Z</time>
      </trkpt>
      <trkpt lat="44.08246" lon="6.38615">
        <ele>1067.2</ele>
        <time>2013-05-26T16:55:38Z</time>
      </trkpt>
      <trkpt lat="44.08212" lon="6.38576">
        <ele>1063.36</ele>
        <time>2013-05-26T16:55:45Z</time>
      </trkpt>
      <trkpt lat="44.08176" lon="6.38503">
        <ele>1057.11</ele>
        <time>2013-05-26T16:55:55Z</time>
      </trkpt>
      <trkpt lat="44.0816" lon="6.3848">
        <ele>1053.74</ele>
        <time>2013-05-26T16:55:59Z</time>
      </trkpt>
      <trkpt lat="44.08135" lon="6.38506">
        <ele>1048.45</ele>
        <time>2013-05-26T16:56:07Z</time>
      </trkpt>
      <trkpt lat="44.08089" lon="6.38479">
        <ele>1043.17</ele>
        <time>2013-05-26T16:56:16Z</time>
      </trkpt>
      <trkpt lat="44.08064" lon="6.3847">
        <ele>1039.32</ele>
        <time>2013-05-26T16:56:20Z</time>
      </trkpt>
      <trkpt lat="44.08049" lon="6.38451">
        <ele>1035.96</ele>
        <time>2013-05-26T16:56:23Z</time>
      </trkpt>
      <trkpt lat="44.08046" lon="6.38409">
        <ele>1032.11</ele>
        <time>2013-05-26T16:56:28Z</time>
      </trkpt>
      <trkpt lat="44.08068" lon="6.38382">
        <ele>1030.19</ele>
        <time>2013-05-26T16:56:34Z</time>
      </trkpt>
      <trkpt lat="44.08106" lon="6.38363">
        <ele>1026.34</ele>
        <time>2013-05-26T16:56:40Z</time>
      </trkpt>
      <trkpt lat="44.08113" lon="6.3836">
        <ele>1026.83</ele>
        <time>2013-05-26T16:56:41Z</time>
      </trkpt>
      <trkpt lat="44.08139" lon="6.38338">
        <ele>1022.02</ele>
        <time>2013-05-26T16:56:48Z</time>
      </trkpt>
      <trkpt lat="44.08128" lon="6.38334">
        <ele>1021.06</ele>
        <time>2013-05-26T16:56:50Z</time>
      </trkpt>
      <trkpt lat="44.08048" lon="6.38308">
        <ele>1017.21</ele>
        <time>2013-05-26T16:57:03Z</time>
      </trkpt>
      <trkpt lat="44.08041" lon="6.38307">
        <ele>1017.21</ele>
        <time>2013-05-26T16:57:04Z</time>
      </trkpt>
      <trkpt lat="44.08002" lon="6.38305">
        <ele>1012.89</ele>
        <time>2013-05-26T16:57:09Z</time>
      </trkpt>
      <trkpt lat="44.07948" lon="6.38339">
        <ele>1008.08</ele>
        <time>2013-05-26T16:57:16Z</time>
      </trkpt>
      <trkpt lat="44.07917" lon="6.38395">
        <ele>1002.79</ele>
        <time>2013-05-26T16:57:23Z</time>
      </trkpt>
      <trkpt lat="44.07894" lon="6.38403">
        <ele>1000.39</ele>
        <time>2013-05-26T16:57:28Z</time>
      </trkpt>
      <trkpt lat="44.07859" lon="6.38352">
        <ele>996.06</ele>
        <time>2013-05-26T16:59:04Z</time>
      </trkpt>
      <trkpt lat="44.07819" lon="6.38313">
        <ele>996.54</ele>
        <time>2013-05-26T16:59:17Z</time>
      </trkpt>
      <trkpt lat="44.07758" lon="6.38295">
        <ele>994.14</ele>
        <time>2013-05-26T16:59:29Z</time>
      </trkpt>
      <trkpt lat="44.0775" lon="6.38293">
        <ele>993.18</ele>
        <time>2013-05-26T16:59:30Z</time>
      </trkpt>
      <trkpt lat="44.07696" lon="6.38285">
        <ele>989.81</ele>
        <time>2013-05-26T16:59:37Z</time>
      </trkpt>
      <trkpt lat="44.07617" lon="6.3828">
        <ele>984.53</ele>
        <time>2013-05-26T16:59:47Z</time>
      </trkpt>
      <trkpt lat="44.0758" lon="6.38307">
        <ele>982.12</ele>
        <time>2013-05-26T16:59:53Z</time>
      </trkpt>
      <trkpt lat="44.07542" lon="6.3832">
        <ele>980.2</ele>
        <time>2013-05-26T17:00:00Z</time>
      </trkpt>
      <trkpt lat="44.07497" lon="6.38346">
        <ele>978.76</ele>
        <time>2013-05-26T17:00:08Z</time>
      </trkpt>
      <trkpt lat="44.07397" lon="6.38418">
        <ele>977.32</ele>
        <time>2013-05-26T17:00:30Z</time>
      </trkpt>
      <trkpt lat="44.07391" lon="6.3842">
        <ele>977.32</ele>
        <time>2013-05-26T17:00:31Z</time>
      </trkpt>
      <trkpt lat="44.07295" lon="6.38455">
        <ele>976.84</ele>
        <time>2013-05-26T17:00:47Z</time>
      </trkpt>
      <trkpt lat="44.07254" lon="6.38462">
        <ele>975.88</ele>
        <time>2013-05-26T17:00:54Z</time>
      </trkpt>
      <trkpt lat="44.0716" lon="6.38512">
        <ele>973.95</ele>
        <time>2013-05-26T17:01:11Z</time>
      </trkpt>
      <trkpt lat="44.07113" lon="6.38563">
        <ele>971.07</ele>
        <time>2013-05-26T17:01:22Z</time>
      </trkpt>
      <trkpt lat="44.07075" lon="6.38627">
        <ele>965.3</ele>
        <time>2013-05-26T17:01:34Z</time>
      </trkpt>
      <trkpt lat="44.07069" lon="6.38637">
        <ele>965.3</ele>
        <time>2013-05-26T17:01:35Z</time>
      </trkpt>
      <trkpt lat="44.07051" lon="6.3867">
        <ele>962.42</ele>
        <time>2013-05-26T17:01:39Z</time>
      </trkpt>
      <trkpt lat="44.07038" lon="6.38703">
        <ele>958.57</ele>
        <time>2013-05-26T17:01:45Z</time>
      </trkpt>
      <trkpt lat="44.07008" lon="6.38724">
        <ele>956.17</ele>
        <time>2013-05-26T17:01:54Z</time>
      </trkpt>
      <trkpt lat="44.06951" lon="6.38747">
        <ele>953.77</ele>
        <time>2013-05-26T17:02:06Z</time>
      </trkpt>
      <trkpt lat="44.06936" lon="6.38757">
        <ele>953.28</ele>
        <time>2013-05-26T17:02:09Z</time>
      </trkpt>
      <trkpt lat="44.0691" lon="6.38763">
        <ele>952.32</ele>
        <time>2013-05-26T17:02:21Z</time>
      </trkpt>
      <trkpt lat="44.06924" lon="6.38778">
        <ele>953.28</ele>
        <time>2013-05-26T17:02:29Z</time>
      </trkpt>
      <trkpt lat="44.06867" lon="6.38873">
        <ele>951.36</ele>
        <time>2013-05-26T17:02:50Z</time>
      </trkpt>
      <trkpt lat="44.06871" lon="6.38907">
        <ele>949.92</ele>
        <time>2013-05-26T17:02:54Z</time>
      </trkpt>
      <trkpt lat="44.06877" lon="6.38921">
        <ele>949.92</ele>
        <time>2013-05-26T17:02:56Z</time>
      </trkpt>
      <trkpt lat="44.06879" lon="6.38946">
        <ele>950.4</ele>
        <time>2013-05-26T17:03:04Z</time>
      </trkpt>
      <trkpt lat="44.06878" lon="6.38946">
        <ele>949.92</ele>
        <time>2013-05-26T17:03:12Z</time>
      </trkpt>
      <trkpt lat="44.06872" lon="6.38908">
        <ele>949.44</ele>
        <time>2013-05-26T17:03:20Z</time>
      </trkpt>
      <trkpt lat="44.06863" lon="6.3888">
        <ele>949.44</ele>
        <time>2013-05-26T17:03:38Z</time>
      </trkpt>
      <trkpt lat="44.06862" lon="6.3888">
        <ele>949.44</ele>
        <time>2013-05-26T17:03:39Z</time>
      </trkpt>
      <trkpt lat="44.06824" lon="6.38897">
        <ele>948</ele>
        <time>2013-05-26T17:03:52Z</time>
      </trkpt>
      <trkpt lat="44.06749" lon="6.38935">
        <ele>944.63</ele>
        <time>2013-05-26T17:04:04Z</time>
      </trkpt>
      <trkpt lat="44.06666" lon="6.38924">
        <ele>943.67</ele>
        <time>2013-05-26T17:04:28Z</time>
      </trkpt>
      <trkpt lat="44.06664" lon="6.38907">
        <ele>944.15</ele>
        <time>2013-05-26T17:04:45Z</time>
      </trkpt>
      <trkpt lat="44.06669" lon="6.38917">
        <ele>943.67</ele>
        <time>2013-05-26T17:05:14Z</time>
      </trkpt>
      <trkpt lat="44.06665" lon="6.38913">
        <ele>943.19</ele>
        <time>2013-05-26T17:05:43Z</time>
      </trkpt>
      <trkpt lat="44.06665" lon="6.38913">
        <ele>942.23</ele>
        <time>2013-05-26T16:55:53Z</time>
      </trkpt>
      <trkpt lat="44.06665" lon="6.38913">
        <ele>958.09</ele>
        <time>2013-05-26T16:55:54Z</time>
      </trkpt>
      <trkpt lat="44.06676" lon="6.38933">
        <ele>957.61</ele>
        <time>2013-05-27T07:46:01Z</time>
      </trkpt>
      <trkpt lat="44.06664" lon="6.38912">
        <ele>958.09</ele>
        <time>2013-05-27T07:47:02Z</time>
      </trkpt>
      <trkpt lat="44.06674" lon="6.38946">
        <ele>957.61</ele>
        <time>2013-05-27T07:47:30Z</time>
      </trkpt>
      <trkpt lat="44.06673" lon="6.38945">
        <ele>957.13</ele>
        <time>2013-05-27T07:47:57Z</time>
      </trkpt>
      <trkpt lat="44.06668" lon="6.3893">
        <ele>957.61</ele>
        <time>2013-05-27T07:48:12Z</time>
      </trkpt>
      <trkpt lat="44.0671" lon="6.38969">
        <ele>956.17</ele>
        <time>2013-05-27T07:48:35Z</time>
      </trkpt>
      <trkpt lat="44.06661" lon="6.39045">
        <ele>951.84</ele>
        <time>2013-05-27T07:48:58Z</time>
      </trkpt>
      <trkpt lat="44.06611" lon="6.39102">
        <ele>950.4</ele>
        <time>2013-05-27T07:49:12Z</time>
      </trkpt>
      <trkpt lat="44.06594" lon="6.39194">
        <ele>946.07</ele>
        <time>2013-05-27T07:49:24Z</time>
      </trkpt>
      <trkpt lat="44.06558" lon="6.39278">
        <ele>946.07</ele>
        <time>2013-05-27T07:49:40Z</time>
      </trkpt>
      <trkpt lat="44.0654" lon="6.39296">
        <ele>945.11</ele>
        <time>2013-05-27T07:49:49Z</time>
      </trkpt>
      <trkpt lat="44.06517" lon="6.39374">
        <ele>945.11</ele>
        <time>2013-05-27T07:50:10Z</time>
      </trkpt>
      <trkpt lat="44.065" lon="6.39494">
        <ele>948</ele>
        <time>2013-05-27T07:50:44Z</time>
      </trkpt>
      <trkpt lat="44.0644" lon="6.39524">
        <ele>947.04</ele>
        <time>2013-05-27T07:51:08Z</time>
      </trkpt>
      <trkpt lat="44.06388" lon="6.39522">
        <ele>947.04</ele>
        <time>2013-05-27T07:51:25Z</time>
      </trkpt>
      <trkpt lat="44.06341" lon="6.39624">
        <ele>950.4</ele>
        <time>2013-05-27T07:52:02Z</time>
      </trkpt>
      <trkpt lat="44.06321" lon="6.39775">
        <ele>953.77</ele>
        <time>2013-05-27T07:52:42Z</time>
      </trkpt>
      <trkpt lat="44.06327" lon="6.39897">
        <ele>956.65</ele>
        <time>2013-05-27T07:53:14Z</time>
      </trkpt>
      <trkpt lat="44.06291" lon="6.39989">
        <ele>959.53</ele>
        <time>2013-05-27T07:53:39Z</time>
      </trkpt>
      <trkpt lat="44.06274" lon="6.40102">
        <ele>962.9</ele>
        <time>2013-05-27T07:54:09Z</time>
      </trkpt>
      <trkpt lat="44.06262" lon="6.4023">
        <ele>967.7</ele>
        <time>2013-05-27T07:54:44Z</time>
      </trkpt>
      <trkpt lat="44.06283" lon="6.40362">
        <ele>971.55</ele>
        <time>2013-05-27T07:55:21Z</time>
      </trkpt>
      <trkpt lat="44.06321" lon="6.4045">
        <ele>975.39</ele>
        <time>2013-05-27T07:55:52Z</time>
      </trkpt>
      <trkpt lat="44.06336" lon="6.40554">
        <ele>979.24</ele>
        <time>2013-05-27T07:56:29Z</time>
      </trkpt>
      <trkpt lat="44.0634" lon="6.40681">
        <ele>983.09</ele>
        <time>2013-05-27T07:57:20Z</time>
      </trkpt>
      <trkpt lat="44.06331" lon="6.40696">
        <ele>982.6</ele>
        <time>2013-05-27T07:57:35Z</time>
      </trkpt>
      <trkpt lat="44.0632" lon="6.40698">
        <ele>983.09</ele>
        <time>2013-05-27T07:57:47Z</time>
      </trkpt>
      <trkpt lat="44.06294" lon="6.40788">
        <ele>987.41</ele>
        <time>2013-05-27T07:58:34Z</time>
      </trkpt>
      <trkpt lat="44.063" lon="6.40829">
        <ele>990.78</ele>
        <time>2013-05-27T07:58:53Z</time>
      </trkpt>
      <trkpt lat="44.06344" lon="6.40875">
        <ele>992.7</ele>
        <time>2013-05-27T07:59:29Z</time>
      </trkpt>
      <trkpt lat="44.0637" lon="6.40887">
        <ele>992.7</ele>
        <time>2013-05-27T08:00:08Z</time>
      </trkpt>
      <trkpt lat="44.06379" lon="6.40893">
        <ele>992.7</ele>
        <time>2013-05-27T08:00:20Z</time>
      </trkpt>
      <trkpt lat="44.06389" lon="6.40888">
        <ele>992.7</ele>
        <time>2013-05-27T08:00:29Z</time>
      </trkpt>
      <trkpt lat="44.06423" lon="6.40871">
        <ele>989.81</ele>
        <time>2013-05-27T08:00:48Z</time>
      </trkpt>
      <trkpt lat="44.06436" lon="6.40868">
        <ele>991.74</ele>
        <time>2013-05-27T08:01:05Z</time>
      </trkpt>
      <trkpt lat="44.06462" lon="6.40915">
        <ele>993.66</ele>
        <time>2013-05-27T08:01:28Z</time>
      </trkpt>
      <trkpt lat="44.06525" lon="6.40986">
        <ele>998.95</ele>
        <time>2013-05-27T08:02:10Z</time>
      </trkpt>
      <trkpt lat="44.06552" lon="6.41007">
        <ele>1002.31</ele>
        <time>2013-05-27T08:02:27Z</time>
      </trkpt>
      <trkpt lat="44.06596" lon="6.41023">
        <ele>1004.72</ele>
        <time>2013-05-27T08:02:52Z</time>
      </trkpt>
      <trkpt lat="44.06601" lon="6.41025">
        <ele>1004.72</ele>
        <time>2013-05-27T08:02:55Z</time>
      </trkpt>
      <trkpt lat="44.06655" lon="6.41048">
        <ele>1009.04</ele>
        <time>2013-05-27T08:03:27Z</time>
      </trkpt>
      <trkpt lat="44.06662" lon="6.41055">
        <ele>1009.04</ele>
        <time>2013-05-27T08:03:32Z</time>
      </trkpt>
      <trkpt lat="44.06715" lon="6.41128">
        <ele>1014.33</ele>
        <time>2013-05-27T08:04:16Z</time>
      </trkpt>
      <trkpt lat="44.06775" lon="6.41175">
        <ele>1020.1</ele>
        <time>2013-05-27T08:04:58Z</time>
      </trkpt>
      <trkpt lat="44.06837" lon="6.41211">
        <ele>1026.34</ele>
        <time>2013-05-27T08:05:39Z</time>
      </trkpt>
      <trkpt lat="44.0688" lon="6.41241">
        <ele>1030.67</ele>
        <time>2013-05-27T08:06:10Z</time>
      </trkpt>
      <trkpt lat="44.06895" lon="6.41239">
        <ele>1032.11</ele>
        <time>2013-05-27T08:06:20Z</time>
      </trkpt>
      <trkpt lat="44.0692" lon="6.41233">
        <ele>1034.04</ele>
        <time>2013-05-27T08:06:37Z</time>
      </trkpt>
      <trkpt lat="44.06965" lon="6.4125">
        <ele>1038.36</ele>
        <time>2013-05-27T08:07:10Z</time>
      </trkpt>
      <trkpt lat="44.07011" lon="6.41266">
        <ele>1043.65</ele>
        <time>2013-05-27T08:07:46Z</time>
      </trkpt>
      <trkpt lat="44.07024" lon="6.41268">
        <ele>1045.09</ele>
        <time>2013-05-27T08:07:58Z</time>
      </trkpt>
      <trkpt lat="44.07028" lon="6.41268">
        <ele>1045.57</ele>
        <time>2013-05-27T08:08:01Z</time>
      </trkpt>
      <trkpt lat="44.07041" lon="6.4122">
        <ele>1048.94</ele>
        <time>2013-05-27T08:08:28Z</time>
      </trkpt>
      <trkpt lat="44.07015" lon="6.41169">
        <ele>1053.26</ele>
        <time>2013-05-27T08:08:59Z</time>
      </trkpt>
      <trkpt lat="44.07006" lon="6.4115">
        <ele>1054.7</ele>
        <time>2013-05-27T08:09:16Z</time>
      </trkpt>
      <trkpt lat="44.07085" lon="6.41173">
        <ele>1056.63</ele>
        <time>2013-05-27T08:09:50Z</time>
      </trkpt>
      <trkpt lat="44.07085" lon="6.41216">
        <ele>1057.59</ele>
        <time>2013-05-27T08:10:01Z</time>
      </trkpt>
      <trkpt lat="44.07087" lon="6.41225">
        <ele>1057.59</ele>
        <time>2013-05-27T08:10:03Z</time>
      </trkpt>
      <trkpt lat="44.07075" lon="6.41343">
        <ele>1058.07</ele>
        <time>2013-05-27T08:10:36Z</time>
      </trkpt>
      <trkpt lat="44.0704" lon="6.41363">
        <ele>1056.63</ele>
        <time>2013-05-27T08:10:45Z</time>
      </trkpt>
      <trkpt lat="44.06983" lon="6.41513">
        <ele>1054.22</ele>
        <time>2013-05-27T08:11:10Z</time>
      </trkpt>
      <trkpt lat="44.06969" lon="6.41531">
        <ele>1054.7</ele>
        <time>2013-05-27T08:11:14Z</time>
      </trkpt>
      <trkpt lat="44.06899" lon="6.41503">
        <ele>1057.59</ele>
        <time>2013-05-27T08:11:36Z</time>
      </trkpt>
      <trkpt lat="44.06833" lon="6.41544">
        <ele>1063.36</ele>
        <time>2013-05-27T08:12:05Z</time>
      </trkpt>
      <trkpt lat="44.06803" lon="6.41489">
        <ele>1068.16</ele>
        <time>2013-05-27T08:12:30Z</time>
      </trkpt>
      <trkpt lat="44.06765" lon="6.41503">
        <ele>1071.05</ele>
        <time>2013-05-27T08:12:49Z</time>
      </trkpt>
      <trkpt lat="44.06694" lon="6.41506">
        <ele>1076.33</ele>
        <time>2013-05-27T08:13:26Z</time>
      </trkpt>
      <trkpt lat="44.06686" lon="6.4158">
        <ele>1081.14</ele>
        <time>2013-05-27T08:13:54Z</time>
      </trkpt>
      <trkpt lat="44.06604" lon="6.4159">
        <ele>1086.91</ele>
        <time>2013-05-27T08:14:33Z</time>
      </trkpt>
      <trkpt lat="44.06553" lon="6.41652">
        <ele>1092.68</ele>
        <time>2013-05-27T08:15:11Z</time>
      </trkpt>
      <trkpt lat="44.06514" lon="6.41731">
        <ele>1097.48</ele>
        <time>2013-05-27T08:15:45Z</time>
      </trkpt>
      <trkpt lat="44.06494" lon="6.41775">
        <ele>1100.85</ele>
        <time>2013-05-27T08:16:04Z</time>
      </trkpt>
      <trkpt lat="44.06439" lon="6.41896">
        <ele>1108.06</ele>
        <time>2013-05-27T08:16:56Z</time>
      </trkpt>
      <trkpt lat="44.06426" lon="6.41945">
        <ele>1111.42</ele>
        <time>2013-05-27T08:17:15Z</time>
      </trkpt>
      <trkpt lat="44.06389" lon="6.42019">
        <ele>1115.27</ele>
        <time>2013-05-27T08:17:47Z</time>
      </trkpt>
      <trkpt lat="44.06396" lon="6.42038">
        <ele>1115.27</ele>
        <time>2013-05-27T08:19:47Z</time>
      </trkpt>
      <trkpt lat="44.06428" lon="6.41974">
        <ele>1117.19</ele>
        <time>2013-05-27T08:20:12Z</time>
      </trkpt>
      <trkpt lat="44.06478" lon="6.41942">
        <ele>1118.15</ele>
        <time>2013-05-27T08:20:28Z</time>
      </trkpt>
      <trkpt lat="44.06561" lon="6.4187">
        <ele>1122.96</ele>
        <time>2013-05-27T08:21:02Z</time>
      </trkpt>
      <trkpt lat="44.06606" lon="6.41853">
        <ele>1126.32</ele>
        <time>2013-05-27T08:21:19Z</time>
      </trkpt>
      <trkpt lat="44.06654" lon="6.41864">
        <ele>1129.69</ele>
        <time>2013-05-27T08:21:36Z</time>
      </trkpt>
      <trkpt lat="44.06696" lon="6.41852">
        <ele>1133.05</ele>
        <time>2013-05-27T08:21:51Z</time>
      </trkpt>
      <trkpt lat="44.06771" lon="6.41838">
        <ele>1138.34</ele>
        <time>2013-05-27T08:22:25Z</time>
      </trkpt>
      <trkpt lat="44.06753" lon="6.41929">
        <ele>1144.11</ele>
        <time>2013-05-27T08:22:57Z</time>
      </trkpt>
      <trkpt lat="44.06724" lon="6.41971">
        <ele>1147.47</ele>
        <time>2013-05-27T08:23:15Z</time>
      </trkpt>
      <trkpt lat="44.06668" lon="6.42061">
        <ele>1153.24</ele>
        <time>2013-05-27T08:23:51Z</time>
      </trkpt>
      <trkpt lat="44.06635" lon="6.42089">
        <ele>1156.6</ele>
        <time>2013-05-27T08:24:07Z</time>
      </trkpt>
      <trkpt lat="44.06555" lon="6.42143">
        <ele>1162.85</ele>
        <time>2013-05-27T08:24:42Z</time>
      </trkpt>
      <trkpt lat="44.06523" lon="6.4218">
        <ele>1166.22</ele>
        <time>2013-05-27T08:25:00Z</time>
      </trkpt>
      <trkpt lat="44.06507" lon="6.42282">
        <ele>1171.98</ele>
        <time>2013-05-27T08:25:32Z</time>
      </trkpt>
      <trkpt lat="44.06444" lon="6.4233">
        <ele>1177.75</ele>
        <time>2013-05-27T08:26:03Z</time>
      </trkpt>
      <trkpt lat="44.06367" lon="6.42436">
        <ele>1186.88</ele>
        <time>2013-05-27T08:26:51Z</time>
      </trkpt>
      <trkpt lat="44.06341" lon="6.4248">
        <ele>1190.25</ele>
        <time>2013-05-27T08:27:08Z</time>
      </trkpt>
      <trkpt lat="44.06305" lon="6.42504">
        <ele>1193.13</ele>
        <time>2013-05-27T08:27:27Z</time>
      </trkpt>
      <trkpt lat="44.06234" lon="6.42531">
        <ele>1198.9</ele>
        <time>2013-05-27T08:28:05Z</time>
      </trkpt>
      <trkpt lat="44.06199" lon="6.4252">
        <ele>1201.79</ele>
        <time>2013-05-27T08:28:22Z</time>
      </trkpt>
      <trkpt lat="44.06165" lon="6.42538">
        <ele>1205.15</ele>
        <time>2013-05-27T08:28:39Z</time>
      </trkpt>
      <trkpt lat="44.0609" lon="6.42583">
        <ele>1211.4</ele>
        <time>2013-05-27T08:29:14Z</time>
      </trkpt>
      <trkpt lat="44.0606" lon="6.42618">
        <ele>1214.28</ele>
        <time>2013-05-27T08:29:34Z</time>
      </trkpt>
      <trkpt lat="44.05992" lon="6.42643">
        <ele>1219.57</ele>
        <time>2013-05-27T08:30:07Z</time>
      </trkpt>
      <trkpt lat="44.05944" lon="6.42642">
        <ele>1222.93</ele>
        <time>2013-05-27T08:30:26Z</time>
      </trkpt>
      <trkpt lat="44.05903" lon="6.42656">
        <ele>1226.3</ele>
        <time>2013-05-27T08:30:44Z</time>
      </trkpt>
      <trkpt lat="44.05852" lon="6.42661">
        <ele>1228.22</ele>
        <time>2013-05-27T08:31:03Z</time>
      </trkpt>
      <trkpt lat="44.05813" lon="6.42665">
        <ele>1231.59</ele>
        <time>2013-05-27T08:31:18Z</time>
      </trkpt>
      <trkpt lat="44.05748" lon="6.42693">
        <ele>1236.87</ele>
        <time>2013-05-27T08:31:50Z</time>
      </trkpt>
      <trkpt lat="44.0569" lon="6.4268">
        <ele>1241.68</ele>
        <time>2013-05-27T08:32:17Z</time>
      </trkpt>
      <trkpt lat="44.05623" lon="6.42674">
        <ele>1246.97</ele>
        <time>2013-05-27T08:32:52Z</time>
      </trkpt>
      <trkpt lat="44.05597" lon="6.42649">
        <ele>1250.33</ele>
        <time>2013-05-27T08:33:06Z</time>
      </trkpt>
      <trkpt lat="44.0555" lon="6.42599">
        <ele>1255.14</ele>
        <time>2013-05-27T08:33:38Z</time>
      </trkpt>
      <trkpt lat="44.05508" lon="6.42603">
        <ele>1258.5</ele>
        <time>2013-05-27T08:33:58Z</time>
      </trkpt>
      <trkpt lat="44.05449" lon="6.4267">
        <ele>1263.79</ele>
        <time>2013-05-27T08:34:34Z</time>
      </trkpt>
      <trkpt lat="44.0547" lon="6.42701">
        <ele>1267.16</ele>
        <time>2013-05-27T08:35:05Z</time>
      </trkpt>
      <trkpt lat="44.05514" lon="6.42695">
        <ele>1271</ele>
        <time>2013-05-27T08:35:26Z</time>
      </trkpt>
      <trkpt lat="44.05542" lon="6.42711">
        <ele>1274.36</ele>
        <time>2013-05-27T08:35:42Z</time>
      </trkpt>
      <trkpt lat="44.05674" lon="6.42758">
        <ele>1280.13</ele>
        <time>2013-05-27T08:36:45Z</time>
      </trkpt>
      <trkpt lat="44.05743" lon="6.42778">
        <ele>1283.98</ele>
        <time>2013-05-27T08:37:16Z</time>
      </trkpt>
      <trkpt lat="44.0581" lon="6.42788">
        <ele>1282.54</ele>
        <time>2013-05-27T08:37:39Z</time>
      </trkpt>
      <trkpt lat="44.05857" lon="6.42798">
        <ele>1279.65</ele>
        <time>2013-05-27T08:37:50Z</time>
      </trkpt>
      <trkpt lat="44.05912" lon="6.42796">
        <ele>1277.73</ele>
        <time>2013-05-27T08:38:02Z</time>
      </trkpt>
      <trkpt lat="44.05962" lon="6.42828">
        <ele>1276.29</ele>
        <time>2013-05-27T08:38:17Z</time>
      </trkpt>
      <trkpt lat="44.06016" lon="6.42825">
        <ele>1278.69</ele>
        <time>2013-05-27T08:38:38Z</time>
      </trkpt>
      <trkpt lat="44.06066" lon="6.42813">
        <ele>1283.5</ele>
        <time>2013-05-27T08:39:08Z</time>
      </trkpt>
      <trkpt lat="44.0612" lon="6.42818">
        <ele>1287.34</ele>
        <time>2013-05-27T08:39:37Z</time>
      </trkpt>
      <trkpt lat="44.06203" lon="6.42816">
        <ele>1293.11</ele>
        <time>2013-05-27T08:40:23Z</time>
      </trkpt>
      <trkpt lat="44.06252" lon="6.4282">
        <ele>1296.96</ele>
        <time>2013-05-27T08:40:50Z</time>
      </trkpt>
      <trkpt lat="44.06255" lon="6.42821">
        <ele>1296.96</ele>
        <time>2013-05-27T08:40:52Z</time>
      </trkpt>
      <trkpt lat="44.06292" lon="6.42829">
        <ele>1300.32</ele>
        <time>2013-05-27T08:41:13Z</time>
      </trkpt>
      <trkpt lat="44.06353" lon="6.42841">
        <ele>1304.17</ele>
        <time>2013-05-27T08:41:48Z</time>
      </trkpt>
      <trkpt lat="44.06377" lon="6.42853">
        <ele>1308.49</ele>
        <time>2013-05-27T08:42:15Z</time>
      </trkpt>
      <trkpt lat="44.06383" lon="6.42869">
        <ele>1312.82</ele>
        <time>2013-05-27T08:42:42Z</time>
      </trkpt>
      <trkpt lat="44.06393" lon="6.42885">
        <ele>1318.1</ele>
        <time>2013-05-27T08:43:11Z</time>
      </trkpt>
      <trkpt lat="44.06406" lon="6.42903">
        <ele>1321.95</ele>
        <time>2013-05-27T08:43:38Z</time>
      </trkpt>
      <trkpt lat="44.06408" lon="6.42908">
        <ele>1321.95</ele>
        <time>2013-05-27T08:43:41Z</time>
      </trkpt>
      <trkpt lat="44.06418" lon="6.4293">
        <ele>1325.31</ele>
        <time>2013-05-27T08:44:05Z</time>
      </trkpt>
      <trkpt lat="44.06432" lon="6.42938">
        <ele>1330.12</ele>
        <time>2013-05-27T08:44:35Z</time>
      </trkpt>
      <trkpt lat="44.06453" lon="6.42936">
        <ele>1333.97</ele>
        <time>2013-05-27T08:45:01Z</time>
      </trkpt>
      <trkpt lat="44.06454" lon="6.42947">
        <ele>1339.25</ele>
        <time>2013-05-27T08:45:32Z</time>
      </trkpt>
      <trkpt lat="44.06469" lon="6.42963">
        <ele>1343.58</ele>
        <time>2013-05-27T08:46:04Z</time>
      </trkpt>
      <trkpt lat="44.06488" lon="6.42969">
        <ele>1349.35</ele>
        <time>2013-05-27T08:46:36Z</time>
      </trkpt>
      <trkpt lat="44.06512" lon="6.42971">
        <ele>1354.15</ele>
        <time>2013-05-27T08:47:09Z</time>
      </trkpt>
      <trkpt lat="44.06518" lon="6.42973">
        <ele>1354.63</ele>
        <time>2013-05-27T08:48:08Z</time>
      </trkpt>
      <trkpt lat="44.0652" lon="6.42974">
        <ele>1354.15</ele>
        <time>2013-05-27T08:49:53Z</time>
      </trkpt>
      <trkpt lat="44.06536" lon="6.42979">
        <ele>1350.31</ele>
        <time>2013-05-27T08:50:02Z</time>
      </trkpt>
      <trkpt lat="44.06557" lon="6.42986">
        <ele>1346.94</ele>
        <time>2013-05-27T08:50:10Z</time>
      </trkpt>
      <trkpt lat="44.06588" lon="6.42999">
        <ele>1343.58</ele>
        <time>2013-05-27T08:50:16Z</time>
      </trkpt>
      <trkpt lat="44.06594" lon="6.43004">
        <ele>1342.62</ele>
        <time>2013-05-27T08:50:17Z</time>
      </trkpt>
      <trkpt lat="44.06598" lon="6.43009">
        <ele>1342.14</ele>
        <time>2013-05-27T08:50:18Z</time>
      </trkpt>
      <trkpt lat="44.06606" lon="6.43012">
        <ele>1341.66</ele>
        <time>2013-05-27T08:50:19Z</time>
      </trkpt>
      <trkpt lat="44.06668" lon="6.43026">
        <ele>1341.66</ele>
        <time>2013-05-27T08:50:42Z</time>
      </trkpt>
      <trkpt lat="44.06695" lon="6.43033">
        <ele>1340.7</ele>
        <time>2013-05-27T08:50:51Z</time>
      </trkpt>
      <trkpt lat="44.06731" lon="6.43031">
        <ele>1341.18</ele>
        <time>2013-05-27T08:51:11Z</time>
      </trkpt>
      <trkpt lat="44.0674" lon="6.43051">
        <ele>1344.06</ele>
        <time>2013-05-27T08:51:30Z</time>
      </trkpt>
      <trkpt lat="44.06743" lon="6.43125">
        <ele>1347.91</ele>
        <time>2013-05-27T08:52:01Z</time>
      </trkpt>
      <trkpt lat="44.06757" lon="6.43134">
        <ele>1351.75</ele>
        <time>2013-05-27T08:52:18Z</time>
      </trkpt>
      <trkpt lat="44.06777" lon="6.43143">
        <ele>1350.79</ele>
        <time>2013-05-27T08:52:53Z</time>
      </trkpt>
      <trkpt lat="44.06795" lon="6.4314">
        <ele>1348.87</ele>
        <time>2013-05-27T08:52:57Z</time>
      </trkpt>
      <trkpt lat="44.06818" lon="6.43136">
        <ele>1345.5</ele>
        <time>2013-05-27T08:53:01Z</time>
      </trkpt>
      <trkpt lat="44.06841" lon="6.43142">
        <ele>1341.66</ele>
        <time>2013-05-27T08:53:04Z</time>
      </trkpt>
      <trkpt lat="44.06868" lon="6.43173">
        <ele>1337.81</ele>
        <time>2013-05-27T08:53:10Z</time>
      </trkpt>
      <trkpt lat="44.06872" lon="6.43178">
        <ele>1337.81</ele>
        <time>2013-05-27T08:53:11Z</time>
      </trkpt>
      <trkpt lat="44.06891" lon="6.43205">
        <ele>1334.45</ele>
        <time>2013-05-27T08:53:15Z</time>
      </trkpt>
      <trkpt lat="44.06918" lon="6.43244">
        <ele>1333.01</ele>
        <time>2013-05-27T08:53:26Z</time>
      </trkpt>
      <trkpt lat="44.0694" lon="6.43245">
        <ele>1331.08</ele>
        <time>2013-05-27T08:54:17Z</time>
      </trkpt>
      <trkpt lat="44.06961" lon="6.4323">
        <ele>1329.16</ele>
        <time>2013-05-27T08:54:21Z</time>
      </trkpt>
      <trkpt lat="44.07006" lon="6.4322">
        <ele>1320.99</ele>
        <time>2013-05-27T08:54:28Z</time>
      </trkpt>
      <trkpt lat="44.07027" lon="6.43217">
        <ele>1317.14</ele>
        <time>2013-05-27T08:54:32Z</time>
      </trkpt>
      <trkpt lat="44.0706" lon="6.43212">
        <ele>1308.97</ele>
        <time>2013-05-27T08:54:39Z</time>
      </trkpt>
      <trkpt lat="44.07079" lon="6.43219">
        <ele>1305.13</ele>
        <time>2013-05-27T08:54:42Z</time>
      </trkpt>
      <trkpt lat="44.07111" lon="6.4321">
        <ele>1299.36</ele>
        <time>2013-05-27T08:54:48Z</time>
      </trkpt>
      <trkpt lat="44.07129" lon="6.43212">
        <ele>1296.96</ele>
        <time>2013-05-27T08:54:51Z</time>
      </trkpt>
      <trkpt lat="44.07141" lon="6.43213">
        <ele>1294.55</ele>
        <time>2013-05-27T08:54:53Z</time>
      </trkpt>
      <trkpt lat="44.07163" lon="6.43228">
        <ele>1289.75</ele>
        <time>2013-05-27T08:54:57Z</time>
      </trkpt>
      <trkpt lat="44.07183" lon="6.43235">
        <ele>1284.46</ele>
        <time>2013-05-27T08:55:01Z</time>
      </trkpt>
      <trkpt lat="44.07196" lon="6.43252">
        <ele>1279.65</ele>
        <time>2013-05-27T08:55:04Z</time>
      </trkpt>
      <trkpt lat="44.07213" lon="6.43269">
        <ele>1275.33</ele>
        <time>2013-05-27T08:55:08Z</time>
      </trkpt>
      <trkpt lat="44.07225" lon="6.43278">
        <ele>1271.96</ele>
        <time>2013-05-27T08:55:11Z</time>
      </trkpt>
      <trkpt lat="44.0724" lon="6.43279">
        <ele>1267.64</ele>
        <time>2013-05-27T08:55:14Z</time>
      </trkpt>
      <trkpt lat="44.07246" lon="6.43279">
        <ele>1266.67</ele>
        <time>2013-05-27T08:55:15Z</time>
      </trkpt>
      <trkpt lat="44.07261" lon="6.43278">
        <ele>1263.79</ele>
        <time>2013-05-27T08:55:17Z</time>
      </trkpt>
      <trkpt lat="44.07268" lon="6.43276">
        <ele>1263.79</ele>
        <time>2013-05-27T08:55:18Z</time>
      </trkpt>
      <trkpt lat="44.07285" lon="6.43266">
        <ele>1260.43</ele>
        <time>2013-05-27T08:55:21Z</time>
      </trkpt>
      <trkpt lat="44.07291" lon="6.43263">
        <ele>1259.94</ele>
        <time>2013-05-27T08:55:34Z</time>
      </trkpt>
      <trkpt lat="44.0732" lon="6.43258">
        <ele>1258.02</ele>
        <time>2013-05-27T08:55:49Z</time>
      </trkpt>
      <trkpt lat="44.07358" lon="6.4323">
        <ele>1257.54</ele>
        <time>2013-05-27T08:56:10Z</time>
      </trkpt>
      <trkpt lat="44.07362" lon="6.43224">
        <ele>1257.54</ele>
        <time>2013-05-27T08:56:14Z</time>
      </trkpt>
      <trkpt lat="44.07371" lon="6.43211">
        <ele>1258.02</ele>
        <time>2013-05-27T08:56:31Z</time>
      </trkpt>
      <trkpt lat="44.07401" lon="6.43175">
        <ele>1256.58</ele>
        <time>2013-05-27T08:56:53Z</time>
      </trkpt>
      <trkpt lat="44.07404" lon="6.43177">
        <ele>1256.58</ele>
        <time>2013-05-27T08:56:54Z</time>
      </trkpt>
      <trkpt lat="44.07411" lon="6.43238">
        <ele>1255.62</ele>
        <time>2013-05-27T08:57:09Z</time>
      </trkpt>
      <trkpt lat="44.07387" lon="6.43295">
        <ele>1255.14</ele>
        <time>2013-05-27T08:57:26Z</time>
      </trkpt>
      <trkpt lat="44.07391" lon="6.43294">
        <ele>1255.14</ele>
        <time>2013-05-27T08:57:31Z</time>
      </trkpt>
      <trkpt lat="44.074" lon="6.43269">
        <ele>1258.5</ele>
        <time>2013-05-27T08:57:44Z</time>
      </trkpt>
      <trkpt lat="44.07425" lon="6.43297">
        <ele>1263.31</ele>
        <time>2013-05-27T08:58:11Z</time>
      </trkpt>
      <trkpt lat="44.07438" lon="6.4337">
        <ele>1267.16</ele>
        <time>2013-05-27T08:58:45Z</time>
      </trkpt>
      <trkpt lat="44.07459" lon="6.43411">
        <ele>1270.04</ele>
        <time>2013-05-27T08:59:08Z</time>
      </trkpt>
      <trkpt lat="44.07488" lon="6.43475">
        <ele>1275.33</ele>
        <time>2013-05-27T08:59:44Z</time>
      </trkpt>
      <trkpt lat="44.07502" lon="6.435">
        <ele>1278.69</ele>
        <time>2013-05-27T09:00:01Z</time>
      </trkpt>
      <trkpt lat="44.0754" lon="6.43531">
        <ele>1285.9</ele>
        <time>2013-05-27T09:00:33Z</time>
      </trkpt>
      <trkpt lat="44.07562" lon="6.43545">
        <ele>1290.23</ele>
        <time>2013-05-27T09:01:08Z</time>
      </trkpt>
      <trkpt lat="44.07575" lon="6.43483">
        <ele>1294.55</ele>
        <time>2013-05-27T09:01:42Z</time>
      </trkpt>
      <trkpt lat="44.07568" lon="6.43439">
        <ele>1298.4</ele>
        <time>2013-05-27T09:02:04Z</time>
      </trkpt>
      <trkpt lat="44.07566" lon="6.43393">
        <ele>1301.76</ele>
        <time>2013-05-27T09:02:25Z</time>
      </trkpt>
      <trkpt lat="44.07588" lon="6.43355">
        <ele>1305.13</ele>
        <time>2013-05-27T09:02:49Z</time>
      </trkpt>
      <trkpt lat="44.07591" lon="6.43354">
        <ele>1305.13</ele>
        <time>2013-05-27T09:02:51Z</time>
      </trkpt>
      <trkpt lat="44.07622" lon="6.43359">
        <ele>1308.49</ele>
        <time>2013-05-27T09:03:13Z</time>
      </trkpt>
      <trkpt lat="44.0764" lon="6.43331">
        <ele>1312.82</ele>
        <time>2013-05-27T09:03:38Z</time>
      </trkpt>
      <trkpt lat="44.07641" lon="6.43315">
        <ele>1314.74</ele>
        <time>2013-05-27T09:03:53Z</time>
      </trkpt>
      <trkpt lat="44.07675" lon="6.43351">
        <ele>1319.55</ele>
        <time>2013-05-27T09:04:26Z</time>
      </trkpt>
      <trkpt lat="44.07665" lon="6.43392">
        <ele>1323.39</ele>
        <time>2013-05-27T09:04:50Z</time>
      </trkpt>
      <trkpt lat="44.07657" lon="6.43485">
        <ele>1327.24</ele>
        <time>2013-05-27T09:05:25Z</time>
      </trkpt>
      <trkpt lat="44.0764" lon="6.43615">
        <ele>1326.76</ele>
        <time>2013-05-27T09:05:53Z</time>
      </trkpt>
      <trkpt lat="44.07585" lon="6.43746">
        <ele>1328.68</ele>
        <time>2013-05-27T09:06:25Z</time>
      </trkpt>
      <trkpt lat="44.07619" lon="6.43835">
        <ele>1333.49</ele>
        <time>2013-05-27T09:06:58Z</time>
      </trkpt>
      <trkpt lat="44.07632" lon="6.43883">
        <ele>1336.85</ele>
        <time>2013-05-27T09:07:17Z</time>
      </trkpt>
      <trkpt lat="44.07655" lon="6.43919">
        <ele>1339.73</ele>
        <time>2013-05-27T09:07:39Z</time>
      </trkpt>
      <trkpt lat="44.07691" lon="6.43933">
        <ele>1343.1</ele>
        <time>2013-05-27T09:08:01Z</time>
      </trkpt>
      <trkpt lat="44.07729" lon="6.43956">
        <ele>1347.43</ele>
        <time>2013-05-27T09:08:28Z</time>
      </trkpt>
      <trkpt lat="44.07773" lon="6.44011">
        <ele>1353.19</ele>
        <time>2013-05-27T09:09:04Z</time>
      </trkpt>
      <trkpt lat="44.07803" lon="6.44084">
        <ele>1359.44</ele>
        <time>2013-05-27T09:09:43Z</time>
      </trkpt>
      <trkpt lat="44.07822" lon="6.44113">
        <ele>1363.29</ele>
        <time>2013-05-27T09:10:01Z</time>
      </trkpt>
      <trkpt lat="44.07843" lon="6.44142">
        <ele>1366.17</ele>
        <time>2013-05-27T09:10:19Z</time>
      </trkpt>
      <trkpt lat="44.07829" lon="6.4418">
        <ele>1370.5</ele>
        <time>2013-05-27T09:10:45Z</time>
      </trkpt>
      <trkpt lat="44.07807" lon="6.44233">
        <ele>1374.34</ele>
        <time>2013-05-27T09:11:16Z</time>
      </trkpt>
      <trkpt lat="44.07802" lon="6.44273">
        <ele>1378.19</ele>
        <time>2013-05-27T09:11:35Z</time>
      </trkpt>
      <trkpt lat="44.07799" lon="6.44334">
        <ele>1384.44</ele>
        <time>2013-05-27T09:12:02Z</time>
      </trkpt>
      <trkpt lat="44.07814" lon="6.4436">
        <ele>1383.96</ele>
        <time>2013-05-27T09:12:45Z</time>
      </trkpt>
      <trkpt lat="44.07814" lon="6.44361">
        <ele>1384.44</ele>
        <time>2013-05-27T09:13:57Z</time>
      </trkpt>
      <trkpt lat="44.07803" lon="6.44386">
        <ele>1382.51</ele>
        <time>2013-05-27T09:14:08Z</time>
      </trkpt>
      <trkpt lat="44.0781" lon="6.44405">
        <ele>1375.78</ele>
        <time>2013-05-27T09:14:15Z</time>
      </trkpt>
      <trkpt lat="44.07812" lon="6.44409">
        <ele>1373.38</ele>
        <time>2013-05-27T09:14:40Z</time>
      </trkpt>
      <trkpt lat="44.07815" lon="6.44411">
        <ele>1373.86</ele>
        <time>2013-05-27T09:15:08Z</time>
      </trkpt>
      <trkpt lat="44.07822" lon="6.44433">
        <ele>1369.54</ele>
        <time>2013-05-27T09:15:20Z</time>
      </trkpt>
      <trkpt lat="44.07829" lon="6.44447">
        <ele>1365.69</ele>
        <time>2013-05-27T09:15:23Z</time>
      </trkpt>
      <trkpt lat="44.07834" lon="6.44464">
        <ele>1361.84</ele>
        <time>2013-05-27T09:15:26Z</time>
      </trkpt>
      <trkpt lat="44.07842" lon="6.44472">
        <ele>1358.96</ele>
        <time>2013-05-27T09:15:28Z</time>
      </trkpt>
      <trkpt lat="44.07855" lon="6.44485">
        <ele>1356.08</ele>
        <time>2013-05-27T09:15:31Z</time>
      </trkpt>
      <trkpt lat="44.0786" lon="6.44516">
        <ele>1351.27</ele>
        <time>2013-05-27T09:15:35Z</time>
      </trkpt>
      <trkpt lat="44.07861" lon="6.44545">
        <ele>1346.94</ele>
        <time>2013-05-27T09:15:38Z</time>
      </trkpt>
      <trkpt lat="44.07871" lon="6.44566">
        <ele>1341.66</ele>
        <time>2013-05-27T09:15:41Z</time>
      </trkpt>
      <trkpt lat="44.07892" lon="6.44572">
        <ele>1336.85</ele>
        <time>2013-05-27T09:15:44Z</time>
      </trkpt>
      <trkpt lat="44.07907" lon="6.44582">
        <ele>1333.49</ele>
        <time>2013-05-27T09:15:56Z</time>
      </trkpt>
      <trkpt lat="44.07907" lon="6.44584">
        <ele>1333.01</ele>
        <time>2013-05-27T09:16:00Z</time>
      </trkpt>
      <trkpt lat="44.07916" lon="6.44607">
        <ele>1328.2</ele>
        <time>2013-05-27T09:16:06Z</time>
      </trkpt>
      <trkpt lat="44.07932" lon="6.44617">
        <ele>1324.35</ele>
        <time>2013-05-27T09:16:11Z</time>
      </trkpt>
      <trkpt lat="44.07936" lon="6.44619">
        <ele>1322.91</ele>
        <time>2013-05-27T09:16:12Z</time>
      </trkpt>
      <trkpt lat="44.07963" lon="6.44618">
        <ele>1316.18</ele>
        <time>2013-05-27T09:16:17Z</time>
      </trkpt>
      <trkpt lat="44.07978" lon="6.44625">
        <ele>1312.34</ele>
        <time>2013-05-27T09:16:19Z</time>
      </trkpt>
      <trkpt lat="44.07973" lon="6.44647">
        <ele>1308.01</ele>
        <time>2013-05-27T09:16:22Z</time>
      </trkpt>
      <trkpt lat="44.07973" lon="6.44656">
        <ele>1306.57</ele>
        <time>2013-05-27T09:16:23Z</time>
      </trkpt>
      <trkpt lat="44.07972" lon="6.44667">
        <ele>1305.13</ele>
        <time>2013-05-27T09:16:25Z</time>
      </trkpt>
      <trkpt lat="44.07988" lon="6.4471">
        <ele>1298.88</ele>
        <time>2013-05-27T09:16:32Z</time>
      </trkpt>
      <trkpt lat="44.07995" lon="6.44737">
        <ele>1294.07</ele>
        <time>2013-05-27T09:16:38Z</time>
      </trkpt>
      <trkpt lat="44.07996" lon="6.44738">
        <ele>1294.07</ele>
        <time>2013-05-27T09:16:39Z</time>
      </trkpt>
      <trkpt lat="44.07996" lon="6.44767">
        <ele>1290.71</ele>
        <time>2013-05-27T09:16:47Z</time>
      </trkpt>
      <trkpt lat="44.07998" lon="6.44777">
        <ele>1288.3</ele>
        <time>2013-05-27T09:17:03Z</time>
      </trkpt>
      <trkpt lat="44.08003" lon="6.44821">
        <ele>1283.5</ele>
        <time>2013-05-27T09:17:10Z</time>
      </trkpt>
      <trkpt lat="44.08022" lon="6.4485">
        <ele>1277.73</ele>
        <time>2013-05-27T09:17:17Z</time>
      </trkpt>
      <trkpt lat="44.08015" lon="6.44864">
        <ele>1278.69</ele>
        <time>2013-05-27T09:17:29Z</time>
      </trkpt>
      <trkpt lat="44.07999" lon="6.44912">
        <ele>1282.06</ele>
        <time>2013-05-27T09:17:52Z</time>
      </trkpt>
      <trkpt lat="44.07944" lon="6.45148">
        <ele>1287.34</ele>
        <time>2013-05-27T09:19:04Z</time>
      </trkpt>
      <trkpt lat="44.07898" lon="6.45376">
        <ele>1289.75</ele>
        <time>2013-05-27T09:19:56Z</time>
      </trkpt>
      <trkpt lat="44.07873" lon="6.45456">
        <ele>1288.3</ele>
        <time>2013-05-27T09:20:14Z</time>
      </trkpt>
      <trkpt lat="44.07849" lon="6.45503">
        <ele>1286.38</ele>
        <time>2013-05-27T09:20:21Z</time>
      </trkpt>
      <trkpt lat="44.07827" lon="6.45549">
        <ele>1286.86</ele>
        <time>2013-05-27T09:20:31Z</time>
      </trkpt>
      <trkpt lat="44.07769" lon="6.45629">
        <ele>1288.3</ele>
        <time>2013-05-27T09:21:02Z</time>
      </trkpt>
      <trkpt lat="44.07645" lon="6.45742">
        <ele>1290.23</ele>
        <time>2013-05-27T09:21:49Z</time>
      </trkpt>
      <trkpt lat="44.07562" lon="6.45756">
        <ele>1290.23</ele>
        <time>2013-05-27T09:22:16Z</time>
      </trkpt>
      <trkpt lat="44.07564" lon="6.45877">
        <ele>1293.59</ele>
        <time>2013-05-27T09:22:52Z</time>
      </trkpt>
      <trkpt lat="44.07525" lon="6.45973">
        <ele>1296.96</ele>
        <time>2013-05-27T09:23:25Z</time>
      </trkpt>
      <trkpt lat="44.07494" lon="6.46035">
        <ele>1297.92</ele>
        <time>2013-05-27T09:24:29Z</time>
      </trkpt>
      <trkpt lat="44.07495" lon="6.46032">
        <ele>1297.92</ele>
        <time>2013-05-27T09:29:55Z</time>
      </trkpt>
      <trkpt lat="44.07493" lon="6.46034">
        <ele>1299.36</ele>
        <time>2013-05-27T09:31:24Z</time>
      </trkpt>
      <trkpt lat="44.07491" lon="6.46034">
        <ele>1299.36</ele>
        <time>2013-05-27T09:31:25Z</time>
      </trkpt>
      <trkpt lat="44.0746" lon="6.46094">
        <ele>1300.8</ele>
        <time>2013-05-27T09:31:50Z</time>
      </trkpt>
      <trkpt lat="44.07415" lon="6.46184">
        <ele>1303.69</ele>
        <time>2013-05-27T09:32:19Z</time>
      </trkpt>
      <trkpt lat="44.0735" lon="6.46197">
        <ele>1308.97</ele>
        <time>2013-05-27T09:32:50Z</time>
      </trkpt>
      <trkpt lat="44.07349" lon="6.46198">
        <ele>1308.97</ele>
        <time>2013-05-27T09:32:51Z</time>
      </trkpt>
      <trkpt lat="44.07314" lon="6.46232">
        <ele>1313.3</ele>
        <time>2013-05-27T09:33:18Z</time>
      </trkpt>
      <trkpt lat="44.07307" lon="6.46242">
        <ele>1313.3</ele>
        <time>2013-05-27T09:33:25Z</time>
      </trkpt>
      <trkpt lat="44.07284" lon="6.46261">
        <ele>1316.66</ele>
        <time>2013-05-27T09:33:42Z</time>
      </trkpt>
      <trkpt lat="44.07261" lon="6.46288">
        <ele>1315.7</ele>
        <time>2013-05-27T09:33:56Z</time>
      </trkpt>
      <trkpt lat="44.0721" lon="6.46371">
        <ele>1310.41</ele>
        <time>2013-05-27T09:34:14Z</time>
      </trkpt>
      <trkpt lat="44.072" lon="6.46383">
        <ele>1309.93</ele>
        <time>2013-05-27T09:34:16Z</time>
      </trkpt>
      <trkpt lat="44.07184" lon="6.46402">
        <ele>1308.97</ele>
        <time>2013-05-27T09:34:20Z</time>
      </trkpt>
      <trkpt lat="44.07155" lon="6.46429">
        <ele>1305.61</ele>
        <time>2013-05-27T09:34:26Z</time>
      </trkpt>
      <trkpt lat="44.07149" lon="6.46439">
        <ele>1305.13</ele>
        <time>2013-05-27T09:34:27Z</time>
      </trkpt>
      <trkpt lat="44.07116" lon="6.46497">
        <ele>1299.36</ele>
        <time>2013-05-27T09:34:33Z</time>
      </trkpt>
      <trkpt lat="44.07108" lon="6.46506">
        <ele>1299.36</ele>
        <time>2013-05-27T09:34:34Z</time>
      </trkpt>
      <trkpt lat="44.07066" lon="6.46529">
        <ele>1296.96</ele>
        <time>2013-05-27T09:34:39Z</time>
      </trkpt>
      <trkpt lat="44.07027" lon="6.46505">
        <ele>1297.44</ele>
        <time>2013-05-27T09:34:45Z</time>
      </trkpt>
      <trkpt lat="44.07006" lon="6.46478">
        <ele>1300.32</ele>
        <time>2013-05-27T09:34:57Z</time>
      </trkpt>
      <trkpt lat="44.07001" lon="6.46474">
        <ele>1300.8</ele>
        <time>2013-05-27T09:35:00Z</time>
      </trkpt>
      <trkpt lat="44.07" lon="6.46473">
        <ele>1300.8</ele>
        <time>2013-05-27T09:35:01Z</time>
      </trkpt>
      <trkpt lat="44.06982" lon="6.46407">
        <ele>1304.65</ele>
        <time>2013-05-27T09:35:30Z</time>
      </trkpt>
      <trkpt lat="44.06978" lon="6.46358">
        <ele>1304.17</ele>
        <time>2013-05-27T09:35:43Z</time>
      </trkpt>
      <trkpt lat="44.06961" lon="6.46343">
        <ele>1304.17</ele>
        <time>2013-05-27T09:35:50Z</time>
      </trkpt>
      <trkpt lat="44.06924" lon="6.46411">
        <ele>1307.05</ele>
        <time>2013-05-27T09:36:13Z</time>
      </trkpt>
      <trkpt lat="44.06857" lon="6.46413">
        <ele>1303.69</ele>
        <time>2013-05-27T09:36:30Z</time>
      </trkpt>
      <trkpt lat="44.06819" lon="6.46407">
        <ele>1302.24</ele>
        <time>2013-05-27T09:36:37Z</time>
      </trkpt>
      <trkpt lat="44.06814" lon="6.46409">
        <ele>1301.76</ele>
        <time>2013-05-27T09:36:38Z</time>
      </trkpt>
      <trkpt lat="44.06804" lon="6.46413">
        <ele>1298.4</ele>
        <time>2013-05-27T09:36:41Z</time>
      </trkpt>
      <trkpt lat="44.06799" lon="6.46416">
        <ele>1295.51</ele>
        <time>2013-05-27T09:36:45Z</time>
      </trkpt>
      <trkpt lat="44.06815" lon="6.4644">
        <ele>1290.23</ele>
        <time>2013-05-27T09:36:56Z</time>
      </trkpt>
      <trkpt lat="44.06814" lon="6.46437">
        <ele>1290.23</ele>
        <time>2013-05-27T09:37:01Z</time>
      </trkpt>
      <trkpt lat="44.06777" lon="6.4642">
        <ele>1284.94</ele>
        <time>2013-05-27T09:37:19Z</time>
      </trkpt>
      <trkpt lat="44.06771" lon="6.46425">
        <ele>1283.98</ele>
        <time>2013-05-27T09:37:31Z</time>
      </trkpt>
      <trkpt lat="44.06794" lon="6.46447">
        <ele>1280.61</ele>
        <time>2013-05-27T09:37:41Z</time>
      </trkpt>
      <trkpt lat="44.06815" lon="6.46476">
        <ele>1276.29</ele>
        <time>2013-05-27T09:37:46Z</time>
      </trkpt>
      <trkpt lat="44.06838" lon="6.46493">
        <ele>1273.88</ele>
        <time>2013-05-27T09:37:50Z</time>
      </trkpt>
      <trkpt lat="44.06843" lon="6.46497">
        <ele>1272.44</ele>
        <time>2013-05-27T09:37:51Z</time>
      </trkpt>
      <trkpt lat="44.06861" lon="6.4653">
        <ele>1268.12</ele>
        <time>2013-05-27T09:37:56Z</time>
      </trkpt>
      <trkpt lat="44.06878" lon="6.46522">
        <ele>1265.23</ele>
        <time>2013-05-27T09:38:02Z</time>
      </trkpt>
      <trkpt lat="44.06916" lon="6.46489">
        <ele>1259.94</ele>
        <time>2013-05-27T09:38:15Z</time>
      </trkpt>
      <trkpt lat="44.0692" lon="6.46488">
        <ele>1260.43</ele>
        <time>2013-05-27T09:38:16Z</time>
      </trkpt>
      <trkpt lat="44.06932" lon="6.46523">
        <ele>1256.1</ele>
        <time>2013-05-27T09:38:25Z</time>
      </trkpt>
      <trkpt lat="44.06953" lon="6.46585">
        <ele>1250.81</ele>
        <time>2013-05-27T09:38:34Z</time>
      </trkpt>
      <trkpt lat="44.06954" lon="6.46644">
        <ele>1244.56</ele>
        <time>2013-05-27T09:38:43Z</time>
      </trkpt>
      <trkpt lat="44.06961" lon="6.46677">
        <ele>1239.76</ele>
        <time>2013-05-27T09:38:48Z</time>
      </trkpt>
      <trkpt lat="44.06964" lon="6.46735">
        <ele>1230.62</ele>
        <time>2013-05-27T09:38:58Z</time>
      </trkpt>
      <trkpt lat="44.06975" lon="6.4676">
        <ele>1227.26</ele>
        <time>2013-05-27T09:39:02Z</time>
      </trkpt>
      <trkpt lat="44.06979" lon="6.46806">
        <ele>1222.45</ele>
        <time>2013-05-27T09:39:08Z</time>
      </trkpt>
      <trkpt lat="44.06979" lon="6.46816">
        <ele>1221.01</ele>
        <time>2013-05-27T09:39:18Z</time>
      </trkpt>
      <trkpt lat="44.06986" lon="6.46838">
        <ele>1216.69</ele>
        <time>2013-05-27T09:40:04Z</time>
      </trkpt>
      <trkpt lat="44.06996" lon="6.46878">
        <ele>1212.36</ele>
        <time>2013-05-27T09:40:12Z</time>
      </trkpt>
      <trkpt lat="44.07007" lon="6.46909">
        <ele>1208.03</ele>
        <time>2013-05-27T09:40:15Z</time>
      </trkpt>
      <trkpt lat="44.0703" lon="6.4694">
        <ele>1203.23</ele>
        <time>2013-05-27T09:40:19Z</time>
      </trkpt>
      <trkpt lat="44.07043" lon="6.46966">
        <ele>1200.34</ele>
        <time>2013-05-27T09:40:22Z</time>
      </trkpt>
      <trkpt lat="44.07052" lon="6.46983">
        <ele>1197.46</ele>
        <time>2013-05-27T09:40:25Z</time>
      </trkpt>
      <trkpt lat="44.07076" lon="6.46995">
        <ele>1192.17</ele>
        <time>2013-05-27T09:40:30Z</time>
      </trkpt>
      <trkpt lat="44.0709" lon="6.47002">
        <ele>1188.81</ele>
        <time>2013-05-27T09:40:33Z</time>
      </trkpt>
      <trkpt lat="44.07103" lon="6.4701">
        <ele>1183.52</ele>
        <time>2013-05-27T09:40:38Z</time>
      </trkpt>
      <trkpt lat="44.07105" lon="6.47035">
        <ele>1176.79</ele>
        <time>2013-05-27T09:40:45Z</time>
      </trkpt>
      <trkpt lat="44.07108" lon="6.47051">
        <ele>1171.98</ele>
        <time>2013-05-27T09:40:49Z</time>
      </trkpt>
      <trkpt lat="44.07112" lon="6.47076">
        <ele>1168.14</ele>
        <time>2013-05-27T09:40:53Z</time>
      </trkpt>
      <trkpt lat="44.07115" lon="6.47094">
        <ele>1165.26</ele>
        <time>2013-05-27T09:40:56Z</time>
      </trkpt>
      <trkpt lat="44.07114" lon="6.47122">
        <ele>1159.97</ele>
        <time>2013-05-27T09:41:00Z</time>
      </trkpt>
      <trkpt lat="44.0711" lon="6.47143">
        <ele>1155.64</ele>
        <time>2013-05-27T09:41:03Z</time>
      </trkpt>
      <trkpt lat="44.07106" lon="6.47164">
        <ele>1150.84</ele>
        <time>2013-05-27T09:41:07Z</time>
      </trkpt>
      <trkpt lat="44.07105" lon="6.47178">
        <ele>1147.47</ele>
        <time>2013-05-27T09:41:10Z</time>
      </trkpt>
      <trkpt lat="44.07107" lon="6.47209">
        <ele>1141.7</ele>
        <time>2013-05-27T09:41:15Z</time>
      </trkpt>
      <trkpt lat="44.07105" lon="6.47213">
        <ele>1141.7</ele>
        <time>2013-05-27T09:41:16Z</time>
      </trkpt>
      <trkpt lat="44.07116" lon="6.47251">
        <ele>1135.45</ele>
        <time>2013-05-27T09:41:21Z</time>
      </trkpt>
      <trkpt lat="44.0713" lon="6.47274">
        <ele>1131.13</ele>
        <time>2013-05-27T09:41:25Z</time>
      </trkpt>
      <trkpt lat="44.07135" lon="6.47279">
        <ele>1127.76</ele>
        <time>2013-05-27T09:41:28Z</time>
      </trkpt>
      <trkpt lat="44.07139" lon="6.47307">
        <ele>1123.44</ele>
        <time>2013-05-27T09:41:34Z</time>
      </trkpt>
      <trkpt lat="44.07139" lon="6.4733">
        <ele>1118.63</ele>
        <time>2013-05-27T09:41:37Z</time>
      </trkpt>
      <trkpt lat="44.07144" lon="6.47367">
        <ele>1113.82</ele>
        <time>2013-05-27T09:41:41Z</time>
      </trkpt>
      <trkpt lat="44.07155" lon="6.47431">
        <ele>1108.54</ele>
        <time>2013-05-27T09:41:48Z</time>
      </trkpt>
      <trkpt lat="44.07157" lon="6.47449">
        <ele>1105.17</ele>
        <time>2013-05-27T09:41:50Z</time>
      </trkpt>
      <trkpt lat="44.07154" lon="6.47493">
        <ele>1099.4</ele>
        <time>2013-05-27T09:41:56Z</time>
      </trkpt>
      <trkpt lat="44.07154" lon="6.47509">
        <ele>1096.04</ele>
        <time>2013-05-27T09:41:59Z</time>
      </trkpt>
      <trkpt lat="44.07154" lon="6.47523">
        <ele>1092.68</ele>
        <time>2013-05-27T09:42:02Z</time>
      </trkpt>
      <trkpt lat="44.07166" lon="6.47552">
        <ele>1086.91</ele>
        <time>2013-05-27T09:42:11Z</time>
      </trkpt>
      <trkpt lat="44.07182" lon="6.47575">
        <ele>1082.1</ele>
        <time>2013-05-27T09:42:19Z</time>
      </trkpt>
      <trkpt lat="44.07185" lon="6.47611">
        <ele>1076.81</ele>
        <time>2013-05-27T09:42:40Z</time>
      </trkpt>
      <trkpt lat="44.07186" lon="6.47611">
        <ele>1077.29</ele>
        <time>2013-05-27T09:43:36Z</time>
      </trkpt>
      <trkpt lat="44.07244" lon="6.4762">
        <ele>1074.41</ele>
        <time>2013-05-27T09:43:51Z</time>
      </trkpt>
      <trkpt lat="44.07307" lon="6.47723">
        <ele>1072.49</ele>
        <time>2013-05-27T09:44:10Z</time>
      </trkpt>
      <trkpt lat="44.07334" lon="6.47777">
        <ele>1070.57</ele>
        <time>2013-05-27T09:44:21Z</time>
      </trkpt>
      <trkpt lat="44.07344" lon="6.47796">
        <ele>1069.6</ele>
        <time>2013-05-27T09:44:26Z</time>
      </trkpt>
      <trkpt lat="44.07353" lon="6.47797">
        <ele>1070.57</ele>
        <time>2013-05-27T09:44:33Z</time>
      </trkpt>
      <trkpt lat="44.07377" lon="6.47798">
        <ele>1073.45</ele>
        <time>2013-05-27T09:44:47Z</time>
      </trkpt>
      <trkpt lat="44.07378" lon="6.478">
        <ele>1072.97</ele>
        <time>2013-05-27T09:44:48Z</time>
      </trkpt>
      <trkpt lat="44.07399" lon="6.47852">
        <ele>1073.45</ele>
        <time>2013-05-27T09:45:01Z</time>
      </trkpt>
      <trkpt lat="44.07442" lon="6.47882">
        <ele>1075.37</ele>
        <time>2013-05-27T09:45:17Z</time>
      </trkpt>
      <trkpt lat="44.07556" lon="6.47963">
        <ele>1080.66</ele>
        <time>2013-05-27T09:46:01Z</time>
      </trkpt>
      <trkpt lat="44.07588" lon="6.47983">
        <ele>1080.66</ele>
        <time>2013-05-27T09:46:12Z</time>
      </trkpt>
      <trkpt lat="44.07663" lon="6.47968">
        <ele>1081.62</ele>
        <time>2013-05-27T09:46:33Z</time>
      </trkpt>
      <trkpt lat="44.07666" lon="6.47966">
        <ele>1081.62</ele>
        <time>2013-05-27T09:46:34Z</time>
      </trkpt>
      <trkpt lat="44.07679" lon="6.4796">
        <ele>1081.62</ele>
        <time>2013-05-27T09:46:37Z</time>
      </trkpt>
      <trkpt lat="44.07817" lon="6.47977">
        <ele>1084.5</ele>
        <time>2013-05-27T09:47:12Z</time>
      </trkpt>
      <trkpt lat="44.07928" lon="6.47972">
        <ele>1090.27</ele>
        <time>2013-05-27T09:47:43Z</time>
      </trkpt>
      <trkpt lat="44.08071" lon="6.47926">
        <ele>1092.2</ele>
        <time>2013-05-27T09:48:18Z</time>
      </trkpt>
      <trkpt lat="44.08198" lon="6.47895">
        <ele>1092.68</ele>
        <time>2013-05-27T09:48:44Z</time>
      </trkpt>
      <trkpt lat="44.08311" lon="6.4791">
        <ele>1096.04</ele>
        <time>2013-05-27T09:49:17Z</time>
      </trkpt>
      <trkpt lat="44.08401" lon="6.4794">
        <ele>1101.33</ele>
        <time>2013-05-27T09:49:49Z</time>
      </trkpt>
      <trkpt lat="44.08467" lon="6.47953">
        <ele>1099.4</ele>
        <time>2013-05-27T09:50:07Z</time>
      </trkpt>
      <trkpt lat="44.08516" lon="6.47942">
        <ele>1098.92</ele>
        <time>2013-05-27T09:50:20Z</time>
      </trkpt>
      <trkpt lat="44.08602" lon="6.47948">
        <ele>1098.92</ele>
        <time>2013-05-27T09:50:46Z</time>
      </trkpt>
      <trkpt lat="44.08649" lon="6.48002">
        <ele>1097.96</ele>
        <time>2013-05-27T09:51:24Z</time>
      </trkpt>
      <trkpt lat="44.08658" lon="6.48004">
        <ele>1097.96</ele>
        <time>2013-05-27T09:52:20Z</time>
      </trkpt>
      <trkpt lat="44.08692" lon="6.48024">
        <ele>1098.44</ele>
        <time>2013-05-27T09:53:00Z</time>
      </trkpt>
      <trkpt lat="44.0876" lon="6.48046">
        <ele>1102.77</ele>
        <time>2013-05-27T09:53:21Z</time>
      </trkpt>
      <trkpt lat="44.08806" lon="6.48061">
        <ele>1102.29</ele>
        <time>2013-05-27T09:53:36Z</time>
      </trkpt>
      <trkpt lat="44.08852" lon="6.48066">
        <ele>1106.61</ele>
        <time>2013-05-27T09:53:56Z</time>
      </trkpt>
      <trkpt lat="44.08887" lon="6.48071">
        <ele>1107.58</ele>
        <time>2013-05-27T09:54:10Z</time>
      </trkpt>
      <trkpt lat="44.08917" lon="6.48094">
        <ele>1106.61</ele>
        <time>2013-05-27T09:54:20Z</time>
      </trkpt>
      <trkpt lat="44.08972" lon="6.48152">
        <ele>1110.46</ele>
        <time>2013-05-27T09:54:43Z</time>
      </trkpt>
      <trkpt lat="44.09021" lon="6.4819">
        <ele>1112.86</ele>
        <time>2013-05-27T09:55:04Z</time>
      </trkpt>
      <trkpt lat="44.09105" lon="6.48231">
        <ele>1112.86</ele>
        <time>2013-05-27T09:55:34Z</time>
      </trkpt>
      <trkpt lat="44.09167" lon="6.4826">
        <ele>1114.31</ele>
        <time>2013-05-27T09:55:57Z</time>
      </trkpt>
      <trkpt lat="44.09234" lon="6.48333">
        <ele>1113.82</ele>
        <time>2013-05-27T09:56:25Z</time>
      </trkpt>
      <trkpt lat="44.09285" lon="6.48387">
        <ele>1114.31</ele>
        <time>2013-05-27T09:56:56Z</time>
      </trkpt>
      <trkpt lat="44.09301" lon="6.4841">
        <ele>1114.31</ele>
        <time>2013-05-27T09:57:18Z</time>
      </trkpt>
      <trkpt lat="44.09318" lon="6.48414">
        <ele>1118.15</ele>
        <time>2013-05-27T09:57:29Z</time>
      </trkpt>
      <trkpt lat="44.09352" lon="6.48453">
        <ele>1117.67</ele>
        <time>2013-05-27T09:57:47Z</time>
      </trkpt>
      <trkpt lat="44.09383" lon="6.48525">
        <ele>1117.67</ele>
        <time>2013-05-27T09:58:12Z</time>
      </trkpt>
      <trkpt lat="44.09389" lon="6.48547">
        <ele>1119.11</ele>
        <time>2013-05-27T09:58:26Z</time>
      </trkpt>
      <trkpt lat="44.0939" lon="6.48549">
        <ele>1119.11</ele>
        <time>2013-05-27T09:58:27Z</time>
      </trkpt>
      <trkpt lat="44.094" lon="6.48636">
        <ele>1119.11</ele>
        <time>2013-05-27T09:58:58Z</time>
      </trkpt>
      <trkpt lat="44.09405" lon="6.48648">
        <ele>1121.52</ele>
        <time>2013-05-27T09:59:12Z</time>
      </trkpt>
      <trkpt lat="44.09405" lon="6.48649">
        <ele>1121.52</ele>
        <time>2013-05-27T09:59:13Z</time>
      </trkpt>
      <trkpt lat="44.09415" lon="6.48696">
        <ele>1120.55</ele>
        <time>2013-05-27T09:59:36Z</time>
      </trkpt>
      <trkpt lat="44.09447" lon="6.48751">
        <ele>1121.03</ele>
        <time>2013-05-27T10:00:08Z</time>
      </trkpt>
      <trkpt lat="44.09457" lon="6.488">
        <ele>1121.03</ele>
        <time>2013-05-27T10:00:26Z</time>
      </trkpt>
      <trkpt lat="44.09459" lon="6.48815">
        <ele>1121.52</ele>
        <time>2013-05-27T10:00:30Z</time>
      </trkpt>
      <trkpt lat="44.09452" lon="6.48861">
        <ele>1121.52</ele>
        <time>2013-05-27T10:00:45Z</time>
      </trkpt>
      <trkpt lat="44.09445" lon="6.48903">
        <ele>1119.59</ele>
        <time>2013-05-27T10:01:56Z</time>
      </trkpt>
      <trkpt lat="44.09455" lon="6.48932">
        <ele>1121.03</ele>
        <time>2013-05-27T10:02:09Z</time>
      </trkpt>
      <trkpt lat="44.09456" lon="6.48944">
        <ele>1122</ele>
        <time>2013-05-27T10:02:32Z</time>
      </trkpt>
      <trkpt lat="44.09458" lon="6.48982">
        <ele>1121.03</ele>
        <time>2013-05-27T10:03:10Z</time>
      </trkpt>
      <trkpt lat="44.09458" lon="6.48989">
        <ele>1121.52</ele>
        <time>2013-05-27T10:04:31Z</time>
      </trkpt>
      <trkpt lat="44.09457" lon="6.4902">
        <ele>1123.92</ele>
        <time>2013-05-27T10:04:45Z</time>
      </trkpt>
      <trkpt lat="44.09456" lon="6.49029">
        <ele>1123.44</ele>
        <time>2013-05-27T10:04:49Z</time>
      </trkpt>
      <trkpt lat="44.09452" lon="6.49109">
        <ele>1124.4</ele>
        <time>2013-05-27T10:05:14Z</time>
      </trkpt>
      <trkpt lat="44.09456" lon="6.4921">
        <ele>1128.73</ele>
        <time>2013-05-27T10:05:54Z</time>
      </trkpt>
      <trkpt lat="44.0946" lon="6.49237">
        <ele>1134.49</ele>
        <time>2013-05-27T10:06:19Z</time>
      </trkpt>
      <trkpt lat="44.0946" lon="6.49254">
        <ele>1133.53</ele>
        <time>2013-05-27T10:06:32Z</time>
      </trkpt>
      <trkpt lat="44.0948" lon="6.49274">
        <ele>1137.86</ele>
        <time>2013-05-27T10:07:00Z</time>
      </trkpt>
      <trkpt lat="44.09489" lon="6.49285">
        <ele>1141.22</ele>
        <time>2013-05-27T10:07:20Z</time>
      </trkpt>
      <trkpt lat="44.09509" lon="6.493">
        <ele>1146.03</ele>
        <time>2013-05-27T10:07:50Z</time>
      </trkpt>
      <trkpt lat="44.09517" lon="6.4931">
        <ele>1146.03</ele>
        <time>2013-05-27T10:08:06Z</time>
      </trkpt>
      <trkpt lat="44.09512" lon="6.49345">
        <ele>1149.39</ele>
        <time>2013-05-27T10:08:30Z</time>
      </trkpt>
      <trkpt lat="44.09511" lon="6.49357">
        <ele>1152.76</ele>
        <time>2013-05-27T10:08:42Z</time>
      </trkpt>
      <trkpt lat="44.09512" lon="6.49364">
        <ele>1152.76</ele>
        <time>2013-05-27T10:08:54Z</time>
      </trkpt>
      <trkpt lat="44.09515" lon="6.49421">
        <ele>1156.6</ele>
        <time>2013-05-27T10:09:33Z</time>
      </trkpt>
      <trkpt lat="44.09517" lon="6.49471">
        <ele>1159.49</ele>
        <time>2013-05-27T10:09:55Z</time>
      </trkpt>
      <trkpt lat="44.09513" lon="6.49609">
        <ele>1162.37</ele>
        <time>2013-05-27T10:10:45Z</time>
      </trkpt>
      <trkpt lat="44.09512" lon="6.49689">
        <ele>1162.37</ele>
        <time>2013-05-27T10:11:03Z</time>
      </trkpt>
      <trkpt lat="44.09513" lon="6.49773">
        <ele>1161.89</ele>
        <time>2013-05-27T10:11:25Z</time>
      </trkpt>
      <trkpt lat="44.09519" lon="6.49808">
        <ele>1156.6</ele>
        <time>2013-05-27T10:11:30Z</time>
      </trkpt>
      <trkpt lat="44.0953" lon="6.49868">
        <ele>1152.76</ele>
        <time>2013-05-27T10:11:42Z</time>
      </trkpt>
      <trkpt lat="44.09531" lon="6.49912">
        <ele>1151.32</ele>
        <time>2013-05-27T10:11:53Z</time>
      </trkpt>
      <trkpt lat="44.09532" lon="6.49918">
        <ele>1151.8</ele>
        <time>2013-05-27T10:11:54Z</time>
      </trkpt>
      <trkpt lat="44.09549" lon="6.49985">
        <ele>1147.47</ele>
        <time>2013-05-27T10:12:07Z</time>
      </trkpt>
      <trkpt lat="44.09538" lon="6.5">
        <ele>1143.14</ele>
        <time>2013-05-27T10:12:11Z</time>
      </trkpt>
      <trkpt lat="44.09518" lon="6.50007">
        <ele>1140.74</ele>
        <time>2013-05-27T10:12:14Z</time>
      </trkpt>
      <trkpt lat="44.09469" lon="6.50027">
        <ele>1141.7</ele>
        <time>2013-05-27T10:12:26Z</time>
      </trkpt>
      <trkpt lat="44.0943" lon="6.50043">
        <ele>1139.78</ele>
        <time>2013-05-27T10:12:38Z</time>
      </trkpt>
      <trkpt lat="44.09405" lon="6.50021">
        <ele>1138.82</ele>
        <time>2013-05-27T10:12:45Z</time>
      </trkpt>
      <trkpt lat="44.09253" lon="6.49995">
        <ele>1137.38</ele>
        <time>2013-05-27T10:13:14Z</time>
      </trkpt>
      <trkpt lat="44.09187" lon="6.49925">
        <ele>1137.38</ele>
        <time>2013-05-27T10:13:34Z</time>
      </trkpt>
      <trkpt lat="44.09168" lon="6.49927">
        <ele>1137.86</ele>
        <time>2013-05-27T10:13:39Z</time>
      </trkpt>
      <trkpt lat="44.09117" lon="6.49957">
        <ele>1131.61</ele>
        <time>2013-05-27T10:13:54Z</time>
      </trkpt>
      <trkpt lat="44.0909" lon="6.49956">
        <ele>1128.73</ele>
        <time>2013-05-27T10:14:03Z</time>
      </trkpt>
      <trkpt lat="44.09086" lon="6.49954">
        <ele>1128.73</ele>
        <time>2013-05-27T10:14:04Z</time>
      </trkpt>
      <trkpt lat="44.09071" lon="6.49956">
        <ele>1126.32</ele>
        <time>2013-05-27T10:14:31Z</time>
      </trkpt>
      <trkpt lat="44.0907" lon="6.49954">
        <ele>1125.84</ele>
        <time>2013-05-27T10:17:08Z</time>
      </trkpt>
      <trkpt lat="44.09063" lon="6.49934">
        <ele>1127.76</ele>
        <time>2013-05-27T10:22:35Z</time>
      </trkpt>
      <trkpt lat="44.09063" lon="6.49937">
        <ele>1131.13</ele>
        <time>2013-05-27T10:28:06Z</time>
      </trkpt>
      <trkpt lat="44.09065" lon="6.49964">
        <ele>1130.65</ele>
        <time>2013-05-27T10:34:42Z</time>
      </trkpt>
      <trkpt lat="44.09087" lon="6.50083">
        <ele>1130.17</ele>
        <time>2013-05-27T10:35:09Z</time>
      </trkpt>
      <trkpt lat="44.09098" lon="6.50205">
        <ele>1132.57</ele>
        <time>2013-05-27T10:35:42Z</time>
      </trkpt>
      <trkpt lat="44.09064" lon="6.50244">
        <ele>1129.21</ele>
        <time>2013-05-27T10:35:57Z</time>
      </trkpt>
      <trkpt lat="44.09051" lon="6.50259">
        <ele>1128.73</ele>
        <time>2013-05-27T10:36:01Z</time>
      </trkpt>
      <trkpt lat="44.09047" lon="6.50262">
        <ele>1128.24</ele>
        <time>2013-05-27T10:36:02Z</time>
      </trkpt>
      <trkpt lat="44.08988" lon="6.50299">
        <ele>1127.28</ele>
        <time>2013-05-27T10:36:14Z</time>
      </trkpt>
      <trkpt lat="44.08933" lon="6.50299">
        <ele>1124.88</ele>
        <time>2013-05-27T10:36:25Z</time>
      </trkpt>
      <trkpt lat="44.08898" lon="6.50299">
        <ele>1122</ele>
        <time>2013-05-27T10:36:32Z</time>
      </trkpt>
      <trkpt lat="44.08873" lon="6.50306">
        <ele>1118.15</ele>
        <time>2013-05-27T10:36:36Z</time>
      </trkpt>
      <trkpt lat="44.08827" lon="6.50313">
        <ele>1113.82</ele>
        <time>2013-05-27T10:36:43Z</time>
      </trkpt>
      <trkpt lat="44.08799" lon="6.50316">
        <ele>1113.34</ele>
        <time>2013-05-27T10:36:47Z</time>
      </trkpt>
      <trkpt lat="44.08729" lon="6.50343">
        <ele>1111.9</ele>
        <time>2013-05-27T10:36:59Z</time>
      </trkpt>
      <trkpt lat="44.08713" lon="6.50343">
        <ele>1111.42</ele>
        <time>2013-05-27T10:37:02Z</time>
      </trkpt>
      <trkpt lat="44.08708" lon="6.50343">
        <ele>1112.38</ele>
        <time>2013-05-27T10:37:03Z</time>
      </trkpt>
      <trkpt lat="44.0864" lon="6.50318">
        <ele>1112.38</ele>
        <time>2013-05-27T10:37:18Z</time>
      </trkpt>
      <trkpt lat="44.08571" lon="6.50349">
        <ele>1113.82</ele>
        <time>2013-05-27T10:37:39Z</time>
      </trkpt>
      <trkpt lat="44.08509" lon="6.50431">
        <ele>1117.19</ele>
        <time>2013-05-27T10:38:17Z</time>
      </trkpt>
      <trkpt lat="44.08478" lon="6.50478">
        <ele>1120.55</ele>
        <time>2013-05-27T10:38:43Z</time>
      </trkpt>
      <trkpt lat="44.08478" lon="6.5053">
        <ele>1124.88</ele>
        <time>2013-05-27T10:39:20Z</time>
      </trkpt>
      <trkpt lat="44.0849" lon="6.50545">
        <ele>1128.24</ele>
        <time>2013-05-27T10:39:36Z</time>
      </trkpt>
      <trkpt lat="44.08494" lon="6.50554">
        <ele>1129.69</ele>
        <time>2013-05-27T10:41:12Z</time>
      </trkpt>
      <trkpt lat="44.08493" lon="6.50554">
        <ele>1126.32</ele>
        <time>2013-05-27T10:46:12Z</time>
      </trkpt>
      <trkpt lat="44.08493" lon="6.50554">
        <ele>1129.69</ele>
        <time>2013-05-27T10:46:36Z</time>
      </trkpt>
      <trkpt lat="44.08495" lon="6.5056">
        <ele>1131.61</ele>
        <time>2013-05-27T11:31:01Z</time>
      </trkpt>
      <trkpt lat="44.08495" lon="6.5056">
        <ele>1132.57</ele>
        <time>2013-05-27T11:31:28Z</time>
      </trkpt>
      <trkpt lat="44.085" lon="6.50551">
        <ele>1129.21</ele>
        <time>2013-05-27T11:31:34Z</time>
      </trkpt>
      <trkpt lat="44.08501" lon="6.50559">
        <ele>1128.73</ele>
        <time>2013-05-27T11:31:55Z</time>
      </trkpt>
      <trkpt lat="44.08488" lon="6.50621">
        <ele>1127.76</ele>
        <time>2013-05-27T11:33:57Z</time>
      </trkpt>
      <trkpt lat="44.08505" lon="6.50628">
        <ele>1123.92</ele>
        <time>2013-05-27T11:34:02Z</time>
      </trkpt>
      <trkpt lat="44.08523" lon="6.50626">
        <ele>1120.55</ele>
        <time>2013-05-27T11:34:05Z</time>
      </trkpt>
      <trkpt lat="44.0857" lon="6.50618">
        <ele>1117.67</ele>
        <time>2013-05-27T11:34:13Z</time>
      </trkpt>
      <trkpt lat="44.08573" lon="6.50619">
        <ele>1117.67</ele>
        <time>2013-05-27T11:34:14Z</time>
      </trkpt>
      <trkpt lat="44.08576" lon="6.50621">
        <ele>1119.11</ele>
        <time>2013-05-27T11:34:29Z</time>
      </trkpt>
      <trkpt lat="44.08583" lon="6.50657">
        <ele>1116.71</ele>
        <time>2013-05-27T11:34:41Z</time>
      </trkpt>
      <trkpt lat="44.08658" lon="6.50749">
        <ele>1119.11</ele>
        <time>2013-05-27T11:35:44Z</time>
      </trkpt>
      <trkpt lat="44.08769" lon="6.50902">
        <ele>1123.92</ele>
        <time>2013-05-27T11:37:10Z</time>
      </trkpt>
      <trkpt lat="44.08782" lon="6.50947">
        <ele>1125.36</ele>
        <time>2013-05-27T11:37:43Z</time>
      </trkpt>
      <trkpt lat="44.08798" lon="6.51021">
        <ele>1127.28</ele>
        <time>2013-05-27T11:38:08Z</time>
      </trkpt>
      <trkpt lat="44.08767" lon="6.51047">
        <ele>1131.61</ele>
        <time>2013-05-27T11:38:28Z</time>
      </trkpt>
      <trkpt lat="44.08766" lon="6.51047">
        <ele>1131.61</ele>
        <time>2013-05-27T11:38:29Z</time>
      </trkpt>
      <trkpt lat="44.08729" lon="6.51056">
        <ele>1134.97</ele>
        <time>2013-05-27T11:38:51Z</time>
      </trkpt>
      <trkpt lat="44.08703" lon="6.5108">
        <ele>1138.82</ele>
        <time>2013-05-27T11:39:10Z</time>
      </trkpt>
      <trkpt lat="44.08688" lon="6.51097">
        <ele>1139.3</ele>
        <time>2013-05-27T11:39:22Z</time>
      </trkpt>
      <trkpt lat="44.08667" lon="6.51122">
        <ele>1142.18</ele>
        <time>2013-05-27T11:39:38Z</time>
      </trkpt>
      <trkpt lat="44.08636" lon="6.51201">
        <ele>1146.03</ele>
        <time>2013-05-27T11:40:12Z</time>
      </trkpt>
      <trkpt lat="44.08616" lon="6.51212">
        <ele>1148.91</ele>
        <time>2013-05-27T11:40:28Z</time>
      </trkpt>
      <trkpt lat="44.08577" lon="6.51205">
        <ele>1152.76</ele>
        <time>2013-05-27T11:40:55Z</time>
      </trkpt>
      <trkpt lat="44.08576" lon="6.51206">
        <ele>1152.76</ele>
        <time>2013-05-27T11:40:56Z</time>
      </trkpt>
      <trkpt lat="44.08545" lon="6.51214">
        <ele>1156.12</ele>
        <time>2013-05-27T11:41:16Z</time>
      </trkpt>
      <trkpt lat="44.08511" lon="6.51225">
        <ele>1159.97</ele>
        <time>2013-05-27T11:41:43Z</time>
      </trkpt>
      <trkpt lat="44.08444" lon="6.51252">
        <ele>1168.14</ele>
        <time>2013-05-27T11:42:30Z</time>
      </trkpt>
      <trkpt lat="44.08436" lon="6.51255">
        <ele>1168.14</ele>
        <time>2013-05-27T11:42:36Z</time>
      </trkpt>
      <trkpt lat="44.08409" lon="6.51252">
        <ele>1171.98</ele>
        <time>2013-05-27T11:42:58Z</time>
      </trkpt>
      <trkpt lat="44.0839" lon="6.51278">
        <ele>1174.87</ele>
        <time>2013-05-27T11:43:21Z</time>
      </trkpt>
      <trkpt lat="44.08373" lon="6.51297">
        <ele>1178.23</ele>
        <time>2013-05-27T11:43:39Z</time>
      </trkpt>
      <trkpt lat="44.08314" lon="6.51311">
        <ele>1184.96</ele>
        <time>2013-05-27T11:44:25Z</time>
      </trkpt>
      <trkpt lat="44.08299" lon="6.51317">
        <ele>1188.33</ele>
        <time>2013-05-27T11:44:40Z</time>
      </trkpt>
      <trkpt lat="44.08272" lon="6.51314">
        <ele>1191.69</ele>
        <time>2013-05-27T11:45:00Z</time>
      </trkpt>
      <trkpt lat="44.08252" lon="6.51309">
        <ele>1195.06</ele>
        <time>2013-05-27T11:45:17Z</time>
      </trkpt>
      <trkpt lat="44.08221" lon="6.51296">
        <ele>1200.34</ele>
        <time>2013-05-27T11:45:46Z</time>
      </trkpt>
      <trkpt lat="44.08218" lon="6.51294">
        <ele>1200.34</ele>
        <time>2013-05-27T11:45:48Z</time>
      </trkpt>
      <trkpt lat="44.08198" lon="6.51282">
        <ele>1203.23</ele>
        <time>2013-05-27T11:46:07Z</time>
      </trkpt>
      <trkpt lat="44.08197" lon="6.51281">
        <ele>1203.23</ele>
        <time>2013-05-27T11:46:08Z</time>
      </trkpt>
      <trkpt lat="44.0817" lon="6.51267">
        <ele>1206.59</ele>
        <time>2013-05-27T11:46:32Z</time>
      </trkpt>
      <trkpt lat="44.08131" lon="6.5128">
        <ele>1212.36</ele>
        <time>2013-05-27T11:47:07Z</time>
      </trkpt>
      <trkpt lat="44.0811" lon="6.51284">
        <ele>1215.72</ele>
        <time>2013-05-27T11:47:44Z</time>
      </trkpt>
      <trkpt lat="44.08109" lon="6.51281">
        <ele>1216.21</ele>
        <time>2013-05-27T11:47:51Z</time>
      </trkpt>
      <trkpt lat="44.08099" lon="6.51259">
        <ele>1218.61</ele>
        <time>2013-05-27T11:48:05Z</time>
      </trkpt>
      <trkpt lat="44.08063" lon="6.51245">
        <ele>1223.9</ele>
        <time>2013-05-27T11:48:35Z</time>
      </trkpt>
      <trkpt lat="44.08061" lon="6.51221">
        <ele>1225.34</ele>
        <time>2013-05-27T11:48:51Z</time>
      </trkpt>
      <trkpt lat="44.08076" lon="6.51208">
        <ele>1226.78</ele>
        <time>2013-05-27T11:49:06Z</time>
      </trkpt>
      <trkpt lat="44.08077" lon="6.51207">
        <ele>1226.78</ele>
        <time>2013-05-27T11:49:07Z</time>
      </trkpt>
      <trkpt lat="44.08084" lon="6.51142">
        <ele>1230.14</ele>
        <time>2013-05-27T11:49:42Z</time>
      </trkpt>
      <trkpt lat="44.08111" lon="6.51058">
        <ele>1234.95</ele>
        <time>2013-05-27T11:50:22Z</time>
      </trkpt>
      <trkpt lat="44.08115" lon="6.51041">
        <ele>1236.39</ele>
        <time>2013-05-27T11:50:29Z</time>
      </trkpt>
      <trkpt lat="44.08092" lon="6.50978">
        <ele>1239.76</ele>
        <time>2013-05-27T11:50:51Z</time>
      </trkpt>
      <trkpt lat="44.08094" lon="6.5092">
        <ele>1244.08</ele>
        <time>2013-05-27T11:51:21Z</time>
      </trkpt>
      <trkpt lat="44.08095" lon="6.50919">
        <ele>1244.08</ele>
        <time>2013-05-27T11:51:22Z</time>
      </trkpt>
      <trkpt lat="44.08052" lon="6.50902">
        <ele>1249.37</ele>
        <time>2013-05-27T11:52:02Z</time>
      </trkpt>
      <trkpt lat="44.08049" lon="6.50903">
        <ele>1249.37</ele>
        <time>2013-05-27T11:52:04Z</time>
      </trkpt>
      <trkpt lat="44.08002" lon="6.50883">
        <ele>1253.7</ele>
        <time>2013-05-27T11:52:34Z</time>
      </trkpt>
      <trkpt lat="44.07973" lon="6.50865">
        <ele>1257.06</ele>
        <time>2013-05-27T11:52:53Z</time>
      </trkpt>
      <trkpt lat="44.07905" lon="6.50836">
        <ele>1264.27</ele>
        <time>2013-05-27T11:53:39Z</time>
      </trkpt>
      <trkpt lat="44.0786" lon="6.50867">
        <ele>1270.52</ele>
        <time>2013-05-27T11:54:17Z</time>
      </trkpt>
      <trkpt lat="44.07858" lon="6.5087">
        <ele>1269.56</ele>
        <time>2013-05-27T11:54:19Z</time>
      </trkpt>
      <trkpt lat="44.07854" lon="6.509">
        <ele>1274.36</ele>
        <time>2013-05-27T11:54:38Z</time>
      </trkpt>
      <trkpt lat="44.07843" lon="6.50958">
        <ele>1278.69</ele>
        <time>2013-05-27T11:55:18Z</time>
      </trkpt>
      <trkpt lat="44.07825" lon="6.50992">
        <ele>1282.06</ele>
        <time>2013-05-27T11:55:43Z</time>
      </trkpt>
      <trkpt lat="44.07816" lon="6.5101">
        <ele>1283.98</ele>
        <time>2013-05-27T11:55:55Z</time>
      </trkpt>
      <trkpt lat="44.07794" lon="6.51044">
        <ele>1287.82</ele>
        <time>2013-05-27T11:56:22Z</time>
      </trkpt>
      <trkpt lat="44.07791" lon="6.51046">
        <ele>1287.82</ele>
        <time>2013-05-27T11:56:24Z</time>
      </trkpt>
      <trkpt lat="44.07769" lon="6.51052">
        <ele>1289.75</ele>
        <time>2013-05-27T11:56:42Z</time>
      </trkpt>
      <trkpt lat="44.07756" lon="6.51032">
        <ele>1292.63</ele>
        <time>2013-05-27T11:57:00Z</time>
      </trkpt>
      <trkpt lat="44.07733" lon="6.50973">
        <ele>1296.96</ele>
        <time>2013-05-27T11:57:36Z</time>
      </trkpt>
      <trkpt lat="44.07696" lon="6.50969">
        <ele>1303.2</ele>
        <time>2013-05-27T11:58:15Z</time>
      </trkpt>
      <trkpt lat="44.07685" lon="6.51037">
        <ele>1308.01</ele>
        <time>2013-05-27T11:58:56Z</time>
      </trkpt>
      <trkpt lat="44.07712" lon="6.51115">
        <ele>1309.93</ele>
        <time>2013-05-27T11:59:32Z</time>
      </trkpt>
      <trkpt lat="44.07712" lon="6.51119">
        <ele>1309.93</ele>
        <time>2013-05-27T11:59:34Z</time>
      </trkpt>
      <trkpt lat="44.07698" lon="6.51167">
        <ele>1313.78</ele>
        <time>2013-05-27T11:59:59Z</time>
      </trkpt>
      <trkpt lat="44.07671" lon="6.51227">
        <ele>1319.55</ele>
        <time>2013-05-27T12:00:34Z</time>
      </trkpt>
      <trkpt lat="44.07642" lon="6.51239">
        <ele>1322.43</ele>
        <time>2013-05-27T12:01:03Z</time>
      </trkpt>
      <trkpt lat="44.07638" lon="6.51238">
        <ele>1323.87</ele>
        <time>2013-05-27T12:01:46Z</time>
      </trkpt>
      <trkpt lat="44.07636" lon="6.51241">
        <ele>1323.39</ele>
        <time>2013-05-27T12:01:48Z</time>
      </trkpt>
      <trkpt lat="44.07592" lon="6.5122">
        <ele>1328.68</ele>
        <time>2013-05-27T12:02:21Z</time>
      </trkpt>
      <trkpt lat="44.07583" lon="6.51189">
        <ele>1332.04</ele>
        <time>2013-05-27T12:02:36Z</time>
      </trkpt>
      <trkpt lat="44.07558" lon="6.51139">
        <ele>1335.89</ele>
        <time>2013-05-27T12:03:07Z</time>
      </trkpt>
      <trkpt lat="44.07555" lon="6.51101">
        <ele>1338.77</ele>
        <time>2013-05-27T12:03:28Z</time>
      </trkpt>
      <trkpt lat="44.07535" lon="6.51036">
        <ele>1344.54</ele>
        <time>2013-05-27T12:04:04Z</time>
      </trkpt>
      <trkpt lat="44.07499" lon="6.51025">
        <ele>1347.91</ele>
        <time>2013-05-27T12:04:30Z</time>
      </trkpt>
      <trkpt lat="44.0747" lon="6.51009">
        <ele>1351.27</ele>
        <time>2013-05-27T12:04:52Z</time>
      </trkpt>
      <trkpt lat="44.07415" lon="6.50988">
        <ele>1355.6</ele>
        <time>2013-05-27T12:05:32Z</time>
      </trkpt>
      <trkpt lat="44.0738" lon="6.50963">
        <ele>1360.88</ele>
        <time>2013-05-27T12:06:03Z</time>
      </trkpt>
      <trkpt lat="44.07361" lon="6.50929">
        <ele>1364.25</ele>
        <time>2013-05-27T12:06:29Z</time>
      </trkpt>
      <trkpt lat="44.07332" lon="6.50867">
        <ele>1370.98</ele>
        <time>2013-05-27T12:07:14Z</time>
      </trkpt>
      <trkpt lat="44.07306" lon="6.50812">
        <ele>1375.78</ele>
        <time>2013-05-27T12:07:50Z</time>
      </trkpt>
      <trkpt lat="44.07286" lon="6.50749">
        <ele>1380.59</ele>
        <time>2013-05-27T12:08:28Z</time>
      </trkpt>
      <trkpt lat="44.07257" lon="6.50672">
        <ele>1385.4</ele>
        <time>2013-05-27T12:09:11Z</time>
      </trkpt>
      <trkpt lat="44.07257" lon="6.50657">
        <ele>1385.4</ele>
        <time>2013-05-27T12:09:19Z</time>
      </trkpt>
      <trkpt lat="44.07251" lon="6.50608">
        <ele>1389.24</ele>
        <time>2013-05-27T12:09:42Z</time>
      </trkpt>
      <trkpt lat="44.07247" lon="6.50584">
        <ele>1389.24</ele>
        <time>2013-05-27T12:09:54Z</time>
      </trkpt>
      <trkpt lat="44.07244" lon="6.50547">
        <ele>1393.09</ele>
        <time>2013-05-27T12:10:14Z</time>
      </trkpt>
      <trkpt lat="44.0723" lon="6.50523">
        <ele>1395.01</ele>
        <time>2013-05-27T12:10:59Z</time>
      </trkpt>
      <trkpt lat="44.0721" lon="6.50465">
        <ele>1399.82</ele>
        <time>2013-05-27T12:11:34Z</time>
      </trkpt>
      <trkpt lat="44.07201" lon="6.5045">
        <ele>1401.74</ele>
        <time>2013-05-27T12:11:44Z</time>
      </trkpt>
      <trkpt lat="44.07199" lon="6.50443">
        <ele>1401.74</ele>
        <time>2013-05-27T12:11:48Z</time>
      </trkpt>
      <trkpt lat="44.07196" lon="6.50403">
        <ele>1405.58</ele>
        <time>2013-05-27T12:12:11Z</time>
      </trkpt>
      <trkpt lat="44.07177" lon="6.50362">
        <ele>1408.95</ele>
        <time>2013-05-27T12:12:35Z</time>
      </trkpt>
      <trkpt lat="44.07155" lon="6.50322">
        <ele>1413.28</ele>
        <time>2013-05-27T12:13:07Z</time>
      </trkpt>
      <trkpt lat="44.07155" lon="6.50285">
        <ele>1415.68</ele>
        <time>2013-05-27T12:13:29Z</time>
      </trkpt>
      <trkpt lat="44.07148" lon="6.50233">
        <ele>1419.04</ele>
        <time>2013-05-27T12:13:58Z</time>
      </trkpt>
      <trkpt lat="44.07134" lon="6.50181">
        <ele>1423.37</ele>
        <time>2013-05-27T12:14:27Z</time>
      </trkpt>
      <trkpt lat="44.07115" lon="6.50103">
        <ele>1429.62</ele>
        <time>2013-05-27T12:15:13Z</time>
      </trkpt>
      <trkpt lat="44.07111" lon="6.50069">
        <ele>1432.02</ele>
        <time>2013-05-27T12:15:47Z</time>
      </trkpt>
      <trkpt lat="44.07097" lon="6.49981">
        <ele>1438.75</ele>
        <time>2013-05-27T12:16:44Z</time>
      </trkpt>
      <trkpt lat="44.07095" lon="6.4994">
        <ele>1442.11</ele>
        <time>2013-05-27T12:17:09Z</time>
      </trkpt>
      <trkpt lat="44.07089" lon="6.49888">
        <ele>1446.92</ele>
        <time>2013-05-27T12:17:43Z</time>
      </trkpt>
      <trkpt lat="44.07089" lon="6.49884">
        <ele>1446.92</ele>
        <time>2013-05-27T12:17:45Z</time>
      </trkpt>
      <trkpt lat="44.07077" lon="6.49833">
        <ele>1451.73</ele>
        <time>2013-05-27T12:18:19Z</time>
      </trkpt>
      <trkpt lat="44.0705" lon="6.49776">
        <ele>1456.53</ele>
        <time>2013-05-27T12:18:59Z</time>
      </trkpt>
      <trkpt lat="44.07025" lon="6.49725">
        <ele>1459.9</ele>
        <time>2013-05-27T12:19:35Z</time>
      </trkpt>
      <trkpt lat="44.07023" lon="6.49723">
        <ele>1459.9</ele>
        <time>2013-05-27T12:19:49Z</time>
      </trkpt>
      <trkpt lat="44.07009" lon="6.49716">
        <ele>1461.34</ele>
        <time>2013-05-27T12:20:01Z</time>
      </trkpt>
      <trkpt lat="44.06973" lon="6.49698">
        <ele>1465.67</ele>
        <time>2013-05-27T12:20:29Z</time>
      </trkpt>
      <trkpt lat="44.06955" lon="6.49679">
        <ele>1469.99</ele>
        <time>2013-05-27T12:20:47Z</time>
      </trkpt>
      <trkpt lat="44.06922" lon="6.49642">
        <ele>1472.88</ele>
        <time>2013-05-27T12:22:03Z</time>
      </trkpt>
      <trkpt lat="44.06889" lon="6.49638">
        <ele>1476.24</ele>
        <time>2013-05-27T12:22:25Z</time>
      </trkpt>
      <trkpt lat="44.06842" lon="6.49577">
        <ele>1481.05</ele>
        <time>2013-05-27T12:23:08Z</time>
      </trkpt>
      <trkpt lat="44.06782" lon="6.49524">
        <ele>1484.41</ele>
        <time>2013-05-27T12:23:45Z</time>
      </trkpt>
      <trkpt lat="44.06744" lon="6.49475">
        <ele>1488.74</ele>
        <time>2013-05-27T12:24:15Z</time>
      </trkpt>
      <trkpt lat="44.06674" lon="6.49475">
        <ele>1492.1</ele>
        <time>2013-05-27T12:24:54Z</time>
      </trkpt>
      <trkpt lat="44.0661" lon="6.49466">
        <ele>1496.43</ele>
        <time>2013-05-27T12:25:28Z</time>
      </trkpt>
      <trkpt lat="44.06534" lon="6.49411">
        <ele>1498.83</ele>
        <time>2013-05-27T12:26:07Z</time>
      </trkpt>
      <trkpt lat="44.06506" lon="6.49413">
        <ele>1499.31</ele>
        <time>2013-05-27T12:26:44Z</time>
      </trkpt>
      <trkpt lat="44.06506" lon="6.49416">
        <ele>1500.27</ele>
        <time>2013-05-27T12:32:05Z</time>
      </trkpt>
      <trkpt lat="44.06506" lon="6.49416">
        <ele>1499.79</ele>
        <time>2013-05-27T12:33:05Z</time>
      </trkpt>
      <trkpt lat="44.06512" lon="6.49511">
        <ele>1500.27</ele>
        <time>2013-05-27T12:33:35Z</time>
      </trkpt>
      <trkpt lat="44.06503" lon="6.4955">
        <ele>1499.79</ele>
        <time>2013-05-27T12:34:04Z</time>
      </trkpt>
      <trkpt lat="44.06497" lon="6.49571">
        <ele>1499.31</ele>
        <time>2013-05-27T12:34:10Z</time>
      </trkpt>
      <trkpt lat="44.06476" lon="6.49585">
        <ele>1498.35</ele>
        <time>2013-05-27T12:34:16Z</time>
      </trkpt>
      <trkpt lat="44.06388" lon="6.49647">
        <ele>1493.06</ele>
        <time>2013-05-27T12:34:36Z</time>
      </trkpt>
      <trkpt lat="44.06383" lon="6.49655">
        <ele>1492.1</ele>
        <time>2013-05-27T12:34:37Z</time>
      </trkpt>
      <trkpt lat="44.06363" lon="6.49693">
        <ele>1491.14</ele>
        <time>2013-05-27T12:34:42Z</time>
      </trkpt>
      <trkpt lat="44.06359" lon="6.49698">
        <ele>1491.14</ele>
        <time>2013-05-27T12:34:43Z</time>
      </trkpt>
      <trkpt lat="44.06301" lon="6.49828">
        <ele>1494.03</ele>
        <time>2013-05-27T12:35:15Z</time>
      </trkpt>
      <trkpt lat="44.06294" lon="6.49889">
        <ele>1494.03</ele>
        <time>2013-05-27T12:35:26Z</time>
      </trkpt>
      <trkpt lat="44.06296" lon="6.49957">
        <ele>1496.43</ele>
        <time>2013-05-27T12:35:42Z</time>
      </trkpt>
      <trkpt lat="44.06251" lon="6.49996">
        <ele>1496.43</ele>
        <time>2013-05-27T12:36:03Z</time>
      </trkpt>
      <trkpt lat="44.06231" lon="6.49996">
        <ele>1492.58</ele>
        <time>2013-05-27T12:36:06Z</time>
      </trkpt>
      <trkpt lat="44.06194" lon="6.50027">
        <ele>1488.26</ele>
        <time>2013-05-27T12:36:11Z</time>
      </trkpt>
      <trkpt lat="44.06188" lon="6.50037">
        <ele>1488.74</ele>
        <time>2013-05-27T12:36:12Z</time>
      </trkpt>
      <trkpt lat="44.06176" lon="6.50059">
        <ele>1486.82</ele>
        <time>2013-05-27T12:36:14Z</time>
      </trkpt>
      <trkpt lat="44.06131" lon="6.50144">
        <ele>1484.89</ele>
        <time>2013-05-27T12:36:23Z</time>
      </trkpt>
      <trkpt lat="44.06089" lon="6.50207">
        <ele>1483.93</ele>
        <time>2013-05-27T12:36:32Z</time>
      </trkpt>
      <trkpt lat="44.0605" lon="6.50319">
        <ele>1483.45</ele>
        <time>2013-05-27T12:36:48Z</time>
      </trkpt>
      <trkpt lat="44.06011" lon="6.50389">
        <ele>1482.49</ele>
        <time>2013-05-27T12:37:00Z</time>
      </trkpt>
      <trkpt lat="44.05957" lon="6.50478">
        <ele>1481.05</ele>
        <time>2013-05-27T12:37:15Z</time>
      </trkpt>
      <trkpt lat="44.05955" lon="6.50485">
        <ele>1481.05</ele>
        <time>2013-05-27T12:37:16Z</time>
      </trkpt>
      <trkpt lat="44.05899" lon="6.50575">
        <ele>1482.49</ele>
        <time>2013-05-27T12:37:35Z</time>
      </trkpt>
      <trkpt lat="44.05896" lon="6.50579">
        <ele>1482.49</ele>
        <time>2013-05-27T12:37:36Z</time>
      </trkpt>
      <trkpt lat="44.05874" lon="6.50645">
        <ele>1482.01</ele>
        <time>2013-05-27T12:37:50Z</time>
      </trkpt>
      <trkpt lat="44.0586" lon="6.5069">
        <ele>1479.61</ele>
        <time>2013-05-27T12:37:58Z</time>
      </trkpt>
      <trkpt lat="44.05852" lon="6.50736">
        <ele>1476.24</ele>
        <time>2013-05-27T12:38:03Z</time>
      </trkpt>
      <trkpt lat="44.05833" lon="6.50814">
        <ele>1470.47</ele>
        <time>2013-05-27T12:38:12Z</time>
      </trkpt>
      <trkpt lat="44.0583" lon="6.50822">
        <ele>1469.99</ele>
        <time>2013-05-27T12:38:13Z</time>
      </trkpt>
      <trkpt lat="44.05812" lon="6.50864">
        <ele>1464.23</ele>
        <time>2013-05-27T12:38:19Z</time>
      </trkpt>
      <trkpt lat="44.05803" lon="6.50905">
        <ele>1460.86</ele>
        <time>2013-05-27T12:38:24Z</time>
      </trkpt>
      <trkpt lat="44.05809" lon="6.50921">
        <ele>1459.9</ele>
        <time>2013-05-27T12:38:27Z</time>
      </trkpt>
      <trkpt lat="44.05853" lon="6.50967">
        <ele>1454.13</ele>
        <time>2013-05-27T12:38:37Z</time>
      </trkpt>
      <trkpt lat="44.05878" lon="6.50984">
        <ele>1450.77</ele>
        <time>2013-05-27T12:38:42Z</time>
      </trkpt>
      <trkpt lat="44.05919" lon="6.51014">
        <ele>1445</ele>
        <time>2013-05-27T12:38:49Z</time>
      </trkpt>
      <trkpt lat="44.05925" lon="6.51019">
        <ele>1445</ele>
        <time>2013-05-27T12:38:50Z</time>
      </trkpt>
      <trkpt lat="44.05936" lon="6.51029">
        <ele>1443.56</ele>
        <time>2013-05-27T12:38:52Z</time>
      </trkpt>
      <trkpt lat="44.05961" lon="6.51054">
        <ele>1440.19</ele>
        <time>2013-05-27T12:38:56Z</time>
      </trkpt>
      <trkpt lat="44.06012" lon="6.51101">
        <ele>1436.83</ele>
        <time>2013-05-27T12:39:04Z</time>
      </trkpt>
      <trkpt lat="44.06023" lon="6.51115">
        <ele>1435.87</ele>
        <time>2013-05-27T12:39:13Z</time>
      </trkpt>
      <trkpt lat="44.06028" lon="6.51122">
        <ele>1435.87</ele>
        <time>2013-05-27T12:39:23Z</time>
      </trkpt>
      <trkpt lat="44.0603" lon="6.51123">
        <ele>1435.87</ele>
        <time>2013-05-27T12:39:24Z</time>
      </trkpt>
      <trkpt lat="44.06049" lon="6.51154">
        <ele>1436.35</ele>
        <time>2013-05-27T12:39:42Z</time>
      </trkpt>
      <trkpt lat="44.06053" lon="6.51162">
        <ele>1436.35</ele>
        <time>2013-05-27T12:39:46Z</time>
      </trkpt>
      <trkpt lat="44.06047" lon="6.51199">
        <ele>1438.27</ele>
        <time>2013-05-27T12:40:02Z</time>
      </trkpt>
      <trkpt lat="44.0602" lon="6.51183">
        <ele>1442.11</ele>
        <time>2013-05-27T12:40:22Z</time>
      </trkpt>
      <trkpt lat="44.05958" lon="6.51161">
        <ele>1447.88</ele>
        <time>2013-05-27T12:41:06Z</time>
      </trkpt>
      <trkpt lat="44.05921" lon="6.51163">
        <ele>1452.69</ele>
        <time>2013-05-27T12:41:34Z</time>
      </trkpt>
      <trkpt lat="44.05884" lon="6.51187">
        <ele>1458.46</ele>
        <time>2013-05-27T12:42:11Z</time>
      </trkpt>
      <trkpt lat="44.05884" lon="6.51188">
        <ele>1457.98</ele>
        <time>2013-05-27T12:42:12Z</time>
      </trkpt>
      <trkpt lat="44.05866" lon="6.5123">
        <ele>1461.82</ele>
        <time>2013-05-27T12:42:40Z</time>
      </trkpt>
      <trkpt lat="44.05862" lon="6.51262">
        <ele>1465.19</ele>
        <time>2013-05-27T12:42:59Z</time>
      </trkpt>
      <trkpt lat="44.05842" lon="6.51359">
        <ele>1468.55</ele>
        <time>2013-05-27T12:43:42Z</time>
      </trkpt>
      <trkpt lat="44.0581" lon="6.51459">
        <ele>1474.32</ele>
        <time>2013-05-27T12:44:24Z</time>
      </trkpt>
      <trkpt lat="44.05766" lon="6.51442">
        <ele>1477.2</ele>
        <time>2013-05-27T12:44:48Z</time>
      </trkpt>
      <trkpt lat="44.0568" lon="6.51356">
        <ele>1483.93</ele>
        <time>2013-05-27T12:45:46Z</time>
      </trkpt>
      <trkpt lat="44.05604" lon="6.51246">
        <ele>1486.34</ele>
        <time>2013-05-27T12:46:22Z</time>
      </trkpt>
      <trkpt lat="44.05522" lon="6.51213">
        <ele>1490.18</ele>
        <time>2013-05-27T12:46:57Z</time>
      </trkpt>
      <trkpt lat="44.05338" lon="6.51153">
        <ele>1497.87</ele>
        <time>2013-05-27T12:48:13Z</time>
      </trkpt>
      <trkpt lat="44.05161" lon="6.51178">
        <ele>1499.79</ele>
        <time>2013-05-27T12:49:12Z</time>
      </trkpt>
      <trkpt lat="44.05106" lon="6.51188">
        <ele>1498.35</ele>
        <time>2013-05-27T12:49:30Z</time>
      </trkpt>
      <trkpt lat="44.05131" lon="6.51205">
        <ele>1497.87</ele>
        <time>2013-05-27T12:49:38Z</time>
      </trkpt>
      <trkpt lat="44.05097" lon="6.51198">
        <ele>1497.39</ele>
        <time>2013-05-27T12:49:42Z</time>
      </trkpt>
      <trkpt lat="44.05031" lon="6.51197">
        <ele>1496.43</ele>
        <time>2013-05-27T12:49:48Z</time>
      </trkpt>
      <trkpt lat="44.04951" lon="6.51164">
        <ele>1494.51</ele>
        <time>2013-05-27T12:50:04Z</time>
      </trkpt>
      <trkpt lat="44.04842" lon="6.5117">
        <ele>1489.22</ele>
        <time>2013-05-27T12:50:24Z</time>
      </trkpt>
      <trkpt lat="44.04784" lon="6.51166">
        <ele>1489.7</ele>
        <time>2013-05-27T12:50:39Z</time>
      </trkpt>
      <trkpt lat="44.04758" lon="6.51165">
        <ele>1493.06</ele>
        <time>2013-05-27T12:50:53Z</time>
      </trkpt>
      <trkpt lat="44.04737" lon="6.51167">
        <ele>1496.43</ele>
        <time>2013-05-27T12:51:07Z</time>
      </trkpt>
      <trkpt lat="44.04688" lon="6.51173">
        <ele>1502.68</ele>
        <time>2013-05-27T12:51:41Z</time>
      </trkpt>
      <trkpt lat="44.04669" lon="6.51181">
        <ele>1504.6</ele>
        <time>2013-05-27T12:53:17Z</time>
      </trkpt>
      <trkpt lat="44.04633" lon="6.51186">
        <ele>1506.52</ele>
        <time>2013-05-27T12:53:35Z</time>
      </trkpt>
      <trkpt lat="44.04554" lon="6.51187">
        <ele>1507.48</ele>
        <time>2013-05-27T12:54:06Z</time>
      </trkpt>
      <trkpt lat="44.04512" lon="6.51222">
        <ele>1509.89</ele>
        <time>2013-05-27T12:54:27Z</time>
      </trkpt>
      <trkpt lat="44.04457" lon="6.51265">
        <ele>1511.81</ele>
        <time>2013-05-27T12:54:50Z</time>
      </trkpt>
      <trkpt lat="44.04399" lon="6.51347">
        <ele>1506.52</ele>
        <time>2013-05-27T12:55:07Z</time>
      </trkpt>
      <trkpt lat="44.04374" lon="6.51383">
        <ele>1503.16</ele>
        <time>2013-05-27T12:55:11Z</time>
      </trkpt>
      <trkpt lat="44.04345" lon="6.514">
        <ele>1503.16</ele>
        <time>2013-05-27T12:55:15Z</time>
      </trkpt>
      <trkpt lat="44.04313" lon="6.51411">
        <ele>1505.08</ele>
        <time>2013-05-27T12:55:26Z</time>
      </trkpt>
      <trkpt lat="44.04235" lon="6.51436">
        <ele>1510.85</ele>
        <time>2013-05-27T12:56:04Z</time>
      </trkpt>
      <trkpt lat="44.04139" lon="6.51431">
        <ele>1514.69</ele>
        <time>2013-05-27T12:56:47Z</time>
      </trkpt>
      <trkpt lat="44.04088" lon="6.5138">
        <ele>1519.98</ele>
        <time>2013-05-27T12:57:22Z</time>
      </trkpt>
      <trkpt lat="44.04043" lon="6.51373">
        <ele>1525.27</ele>
        <time>2013-05-27T12:58:00Z</time>
      </trkpt>
      <trkpt lat="44.04012" lon="6.51383">
        <ele>1529.59</ele>
        <time>2013-05-27T12:58:28Z</time>
      </trkpt>
      <trkpt lat="44.03991" lon="6.51345">
        <ele>1534.4</ele>
        <time>2013-05-27T12:59:10Z</time>
      </trkpt>
      <trkpt lat="44.03991" lon="6.5134">
        <ele>1535.36</ele>
        <time>2013-05-27T12:59:17Z</time>
      </trkpt>
      <trkpt lat="44.03991" lon="6.51338">
        <ele>1535.36</ele>
        <time>2013-05-27T12:59:18Z</time>
      </trkpt>
      <trkpt lat="44.0399" lon="6.51282">
        <ele>1540.17</ele>
        <time>2013-05-27T12:59:55Z</time>
      </trkpt>
      <trkpt lat="44.03989" lon="6.51279">
        <ele>1540.17</ele>
        <time>2013-05-27T12:59:57Z</time>
      </trkpt>
      <trkpt lat="44.03962" lon="6.51211">
        <ele>1545.46</ele>
        <time>2013-05-27T13:00:45Z</time>
      </trkpt>
      <trkpt lat="44.03961" lon="6.5121">
        <ele>1545.46</ele>
        <time>2013-05-27T13:00:46Z</time>
      </trkpt>
      <trkpt lat="44.03912" lon="6.5117">
        <ele>1551.71</ele>
        <time>2013-05-27T13:01:40Z</time>
      </trkpt>
      <trkpt lat="44.03874" lon="6.51194">
        <ele>1556.51</ele>
        <time>2013-05-27T13:02:17Z</time>
      </trkpt>
      <trkpt lat="44.03846" lon="6.51249">
        <ele>1560.84</ele>
        <time>2013-05-27T13:02:54Z</time>
      </trkpt>
      <trkpt lat="44.03827" lon="6.51279">
        <ele>1564.2</ele>
        <time>2013-05-27T13:03:18Z</time>
      </trkpt>
      <trkpt lat="44.03826" lon="6.51281">
        <ele>1564.2</ele>
        <time>2013-05-27T13:03:19Z</time>
      </trkpt>
      <trkpt lat="44.03821" lon="6.513">
        <ele>1565.64</ele>
        <time>2013-05-27T13:03:31Z</time>
      </trkpt>
      <trkpt lat="44.03805" lon="6.51352">
        <ele>1569.01</ele>
        <time>2013-05-27T13:04:10Z</time>
      </trkpt>
      <trkpt lat="44.0379" lon="6.51398">
        <ele>1569.01</ele>
        <time>2013-05-27T13:04:33Z</time>
      </trkpt>
      <trkpt lat="44.03747" lon="6.51508">
        <ele>1569.01</ele>
        <time>2013-05-27T13:05:07Z</time>
      </trkpt>
      <trkpt lat="44.03708" lon="6.51534">
        <ele>1567.57</ele>
        <time>2013-05-27T13:05:39Z</time>
      </trkpt>
      <trkpt lat="44.03704" lon="6.51534">
        <ele>1567.57</ele>
        <time>2013-05-27T13:06:18Z</time>
      </trkpt>
      <trkpt lat="44.03683" lon="6.51559">
        <ele>1568.05</ele>
        <time>2013-05-27T13:06:36Z</time>
      </trkpt>
      <trkpt lat="44.03649" lon="6.51602">
        <ele>1572.37</ele>
        <time>2013-05-27T13:07:06Z</time>
      </trkpt>
      <trkpt lat="44.03634" lon="6.51631">
        <ele>1575.74</ele>
        <time>2013-05-27T13:07:26Z</time>
      </trkpt>
      <trkpt lat="44.03608" lon="6.51657">
        <ele>1581.51</ele>
        <time>2013-05-27T13:08:02Z</time>
      </trkpt>
      <trkpt lat="44.03587" lon="6.51672">
        <ele>1586.31</ele>
        <time>2013-05-27T13:08:36Z</time>
      </trkpt>
      <trkpt lat="44.03575" lon="6.51675">
        <ele>1589.68</ele>
        <time>2013-05-27T13:08:51Z</time>
      </trkpt>
      <trkpt lat="44.03548" lon="6.51685">
        <ele>1595.45</ele>
        <time>2013-05-27T13:09:27Z</time>
      </trkpt>
      <trkpt lat="44.03531" lon="6.51687">
        <ele>1598.81</ele>
        <time>2013-05-27T13:09:48Z</time>
      </trkpt>
      <trkpt lat="44.0352" lon="6.5169">
        <ele>1602.66</ele>
        <time>2013-05-27T13:10:03Z</time>
      </trkpt>
      <trkpt lat="44.03494" lon="6.51705">
        <ele>1606.5</ele>
        <time>2013-05-27T13:10:37Z</time>
      </trkpt>
      <trkpt lat="44.03493" lon="6.51705">
        <ele>1606.5</ele>
        <time>2013-05-27T13:10:38Z</time>
      </trkpt>
      <trkpt lat="44.03461" lon="6.51721">
        <ele>1611.31</ele>
        <time>2013-05-27T13:11:19Z</time>
      </trkpt>
      <trkpt lat="44.03436" lon="6.51722">
        <ele>1614.67</ele>
        <time>2013-05-27T13:11:48Z</time>
      </trkpt>
      <trkpt lat="44.03418" lon="6.51724">
        <ele>1618.04</ele>
        <time>2013-05-27T13:12:05Z</time>
      </trkpt>
      <trkpt lat="44.03404" lon="6.51711">
        <ele>1619.48</ele>
        <time>2013-05-27T13:12:23Z</time>
      </trkpt>
      <trkpt lat="44.03401" lon="6.51706">
        <ele>1619.48</ele>
        <time>2013-05-27T13:12:27Z</time>
      </trkpt>
      <trkpt lat="44.03387" lon="6.51694">
        <ele>1619.96</ele>
        <time>2013-05-27T13:13:28Z</time>
      </trkpt>
      <trkpt lat="44.03381" lon="6.51701">
        <ele>1620.92</ele>
        <time>2013-05-27T13:14:26Z</time>
      </trkpt>
      <trkpt lat="44.03376" lon="6.51689">
        <ele>1620.44</ele>
        <time>2013-05-27T13:14:42Z</time>
      </trkpt>
      <trkpt lat="44.03397" lon="6.51681">
        <ele>1619.48</ele>
        <time>2013-05-27T13:15:02Z</time>
      </trkpt>
      <trkpt lat="44.03389" lon="6.51693">
        <ele>1619.48</ele>
        <time>2013-05-27T13:15:27Z</time>
      </trkpt>
      <trkpt lat="44.03388" lon="6.51692">
        <ele>1621.4</ele>
        <time>2013-05-27T13:39:55Z</time>
      </trkpt>
      <trkpt lat="44.03382" lon="6.51692">
        <ele>1622.36</ele>
        <time>2013-05-27T13:49:56Z</time>
      </trkpt>
      <trkpt lat="44.03369" lon="6.51755">
        <ele>1621.4</ele>
        <time>2013-05-27T13:50:29Z</time>
      </trkpt>
      <trkpt lat="44.03313" lon="6.51826">
        <ele>1620.44</ele>
        <time>2013-05-27T13:50:58Z</time>
      </trkpt>
      <trkpt lat="44.03249" lon="6.51885">
        <ele>1623.8</ele>
        <time>2013-05-27T13:51:37Z</time>
      </trkpt>
      <trkpt lat="44.03173" lon="6.51926">
        <ele>1627.65</ele>
        <time>2013-05-27T13:52:26Z</time>
      </trkpt>
      <trkpt lat="44.03147" lon="6.51939">
        <ele>1631.01</ele>
        <time>2013-05-27T13:52:44Z</time>
      </trkpt>
      <trkpt lat="44.03111" lon="6.51943">
        <ele>1634.38</ele>
        <time>2013-05-27T13:53:08Z</time>
      </trkpt>
      <trkpt lat="44.0302" lon="6.52022">
        <ele>1637.26</ele>
        <time>2013-05-27T13:54:07Z</time>
      </trkpt>
      <trkpt lat="44.02918" lon="6.52135">
        <ele>1639.19</ele>
        <time>2013-05-27T13:55:05Z</time>
      </trkpt>
      <trkpt lat="44.02877" lon="6.52155">
        <ele>1643.03</ele>
        <time>2013-05-27T13:55:37Z</time>
      </trkpt>
      <trkpt lat="44.02847" lon="6.52163">
        <ele>1647.84</ele>
        <time>2013-05-27T13:55:59Z</time>
      </trkpt>
      <trkpt lat="44.02788" lon="6.52184">
        <ele>1652.16</ele>
        <time>2013-05-27T13:56:43Z</time>
      </trkpt>
      <trkpt lat="44.02737" lon="6.522">
        <ele>1655.53</ele>
        <time>2013-05-27T13:57:19Z</time>
      </trkpt>
      <trkpt lat="44.02703" lon="6.52216">
        <ele>1653.6</ele>
        <time>2013-05-27T13:57:37Z</time>
      </trkpt>
      <trkpt lat="44.02672" lon="6.52257">
        <ele>1651.68</ele>
        <time>2013-05-27T13:57:47Z</time>
      </trkpt>
      <trkpt lat="44.02612" lon="6.52252">
        <ele>1649.76</ele>
        <time>2013-05-27T13:58:06Z</time>
      </trkpt>
      <trkpt lat="44.02585" lon="6.52243">
        <ele>1651.68</ele>
        <time>2013-05-27T13:58:23Z</time>
      </trkpt>
      <trkpt lat="44.02556" lon="6.52263">
        <ele>1656.97</ele>
        <time>2013-05-27T13:58:52Z</time>
      </trkpt>
      <trkpt lat="44.02539" lon="6.52282">
        <ele>1660.81</ele>
        <time>2013-05-27T13:59:18Z</time>
      </trkpt>
      <trkpt lat="44.02538" lon="6.52281">
        <ele>1660.81</ele>
        <time>2013-05-27T13:59:19Z</time>
      </trkpt>
      <trkpt lat="44.02516" lon="6.52294">
        <ele>1666.1</ele>
        <time>2013-05-27T13:59:46Z</time>
      </trkpt>
      <trkpt lat="44.02513" lon="6.52292">
        <ele>1665.62</ele>
        <time>2013-05-27T13:59:50Z</time>
      </trkpt>
      <trkpt lat="44.0249" lon="6.52313">
        <ele>1670.91</ele>
        <time>2013-05-27T14:00:24Z</time>
      </trkpt>
      <trkpt lat="44.02447" lon="6.52328">
        <ele>1677.16</ele>
        <time>2013-05-27T14:01:14Z</time>
      </trkpt>
      <trkpt lat="44.02425" lon="6.52324">
        <ele>1679.56</ele>
        <time>2013-05-27T14:01:37Z</time>
      </trkpt>
      <trkpt lat="44.02407" lon="6.52324">
        <ele>1682.93</ele>
        <time>2013-05-27T14:01:59Z</time>
      </trkpt>
      <trkpt lat="44.0237" lon="6.52333">
        <ele>1688.21</ele>
        <time>2013-05-27T14:02:47Z</time>
      </trkpt>
      <trkpt lat="44.02355" lon="6.52346">
        <ele>1692.54</ele>
        <time>2013-05-27T14:03:12Z</time>
      </trkpt>
      <trkpt lat="44.02341" lon="6.52353">
        <ele>1698.79</ele>
        <time>2013-05-27T14:03:36Z</time>
      </trkpt>
      <trkpt lat="44.02341" lon="6.52353">
        <ele>1696.38</ele>
        <time>2013-05-27T14:03:49Z</time>
      </trkpt>
      <trkpt lat="44.02318" lon="6.52355">
        <ele>1702.63</ele>
        <time>2013-05-27T14:04:59Z</time>
      </trkpt>
      <trkpt lat="44.02291" lon="6.52348">
        <ele>1708.4</ele>
        <time>2013-05-27T14:05:30Z</time>
      </trkpt>
      <trkpt lat="44.02274" lon="6.5235">
        <ele>1711.76</ele>
        <time>2013-05-27T14:05:59Z</time>
      </trkpt>
      <trkpt lat="44.02255" lon="6.52353">
        <ele>1716.09</ele>
        <time>2013-05-27T14:06:27Z</time>
      </trkpt>
      <trkpt lat="44.02235" lon="6.52348">
        <ele>1719.94</ele>
        <time>2013-05-27T14:06:55Z</time>
      </trkpt>
      <trkpt lat="44.02208" lon="6.52353">
        <ele>1725.22</ele>
        <time>2013-05-27T14:07:33Z</time>
      </trkpt>
      <trkpt lat="44.02179" lon="6.52367">
        <ele>1731.47</ele>
        <time>2013-05-27T14:08:16Z</time>
      </trkpt>
      <trkpt lat="44.0216" lon="6.52386">
        <ele>1734.84</ele>
        <time>2013-05-27T14:08:49Z</time>
      </trkpt>
      <trkpt lat="44.02145" lon="6.52385">
        <ele>1737.72</ele>
        <time>2013-05-27T14:09:48Z</time>
      </trkpt>
      <trkpt lat="44.02136" lon="6.52388">
        <ele>1739.64</ele>
        <time>2013-05-27T14:10:20Z</time>
      </trkpt>
      <trkpt lat="44.02087" lon="6.52399">
        <ele>1743.01</ele>
        <time>2013-05-27T14:11:07Z</time>
      </trkpt>
      <trkpt lat="44.02085" lon="6.52398">
        <ele>1742.53</ele>
        <time>2013-05-27T14:11:11Z</time>
      </trkpt>
      <trkpt lat="44.02014" lon="6.524">
        <ele>1741.57</ele>
        <time>2013-05-27T14:11:48Z</time>
      </trkpt>
      <trkpt lat="44.01977" lon="6.52442">
        <ele>1741.08</ele>
        <time>2013-05-27T14:12:15Z</time>
      </trkpt>
      <trkpt lat="44.01984" lon="6.52486">
        <ele>1736.76</ele>
        <time>2013-05-27T14:12:30Z</time>
      </trkpt>
      <trkpt lat="44.01988" lon="6.52497">
        <ele>1736.76</ele>
        <time>2013-05-27T14:12:34Z</time>
      </trkpt>
      <trkpt lat="44.01987" lon="6.52543">
        <ele>1733.39</ele>
        <time>2013-05-27T14:12:46Z</time>
      </trkpt>
      <trkpt lat="44.01985" lon="6.52554">
        <ele>1732.43</ele>
        <time>2013-05-27T14:12:49Z</time>
      </trkpt>
      <trkpt lat="44.01978" lon="6.52592">
        <ele>1729.55</ele>
        <time>2013-05-27T14:12:59Z</time>
      </trkpt>
      <trkpt lat="44.01943" lon="6.52661">
        <ele>1725.22</ele>
        <time>2013-05-27T14:13:12Z</time>
      </trkpt>
      <trkpt lat="44.01919" lon="6.52702">
        <ele>1722.34</ele>
        <time>2013-05-27T14:13:20Z</time>
      </trkpt>
      <trkpt lat="44.0188" lon="6.5271">
        <ele>1718.01</ele>
        <time>2013-05-27T14:13:26Z</time>
      </trkpt>
      <trkpt lat="44.01866" lon="6.52716">
        <ele>1717.05</ele>
        <time>2013-05-27T14:13:28Z</time>
      </trkpt>
      <trkpt lat="44.01828" lon="6.52749">
        <ele>1715.61</ele>
        <time>2013-05-27T14:13:38Z</time>
      </trkpt>
      <trkpt lat="44.01798" lon="6.52778">
        <ele>1717.53</ele>
        <time>2013-05-27T14:14:01Z</time>
      </trkpt>
      <trkpt lat="44.01724" lon="6.52818">
        <ele>1724.26</ele>
        <time>2013-05-27T14:14:58Z</time>
      </trkpt>
      <trkpt lat="44.01641" lon="6.52865">
        <ele>1725.22</ele>
        <time>2013-05-27T14:15:55Z</time>
      </trkpt>
      <trkpt lat="44.01615" lon="6.52845">
        <ele>1722.82</ele>
        <time>2013-05-27T14:16:07Z</time>
      </trkpt>
      <trkpt lat="44.01612" lon="6.52843">
        <ele>1722.82</ele>
        <time>2013-05-27T14:16:08Z</time>
      </trkpt>
      <trkpt lat="44.01567" lon="6.52825">
        <ele>1721.86</ele>
        <time>2013-05-27T14:16:30Z</time>
      </trkpt>
      <trkpt lat="44.01511" lon="6.52805">
        <ele>1727.15</ele>
        <time>2013-05-27T14:17:09Z</time>
      </trkpt>
      <trkpt lat="44.01493" lon="6.528">
        <ele>1730.51</ele>
        <time>2013-05-27T14:17:22Z</time>
      </trkpt>
      <trkpt lat="44.01476" lon="6.52794">
        <ele>1729.55</ele>
        <time>2013-05-27T14:17:35Z</time>
      </trkpt>
      <trkpt lat="44.01417" lon="6.52774">
        <ele>1734.36</ele>
        <time>2013-05-27T14:18:19Z</time>
      </trkpt>
      <trkpt lat="44.01299" lon="6.52714">
        <ele>1736.76</ele>
        <time>2013-05-27T14:19:37Z</time>
      </trkpt>
      <trkpt lat="44.01278" lon="6.52701">
        <ele>1732.91</ele>
        <time>2013-05-27T14:19:46Z</time>
      </trkpt>
      <trkpt lat="44.01243" lon="6.52713">
        <ele>1736.28</ele>
        <time>2013-05-27T14:20:02Z</time>
      </trkpt>
      <trkpt lat="44.01214" lon="6.52736">
        <ele>1739.16</ele>
        <time>2013-05-27T14:20:21Z</time>
      </trkpt>
      <trkpt lat="44.01165" lon="6.52769">
        <ele>1743.49</ele>
        <time>2013-05-27T14:20:57Z</time>
      </trkpt>
      <trkpt lat="44.01142" lon="6.52783">
        <ele>1746.85</ele>
        <time>2013-05-27T14:21:14Z</time>
      </trkpt>
      <trkpt lat="44.01059" lon="6.52799">
        <ele>1751.66</ele>
        <time>2013-05-27T14:22:07Z</time>
      </trkpt>
      <trkpt lat="44.01023" lon="6.52815">
        <ele>1754.54</ele>
        <time>2013-05-27T14:22:32Z</time>
      </trkpt>
      <trkpt lat="44.00994" lon="6.52793">
        <ele>1755.99</ele>
        <time>2013-05-27T14:22:50Z</time>
      </trkpt>
      <trkpt lat="44.00948" lon="6.52682">
        <ele>1757.91</ele>
        <time>2013-05-27T14:23:38Z</time>
      </trkpt>
      <trkpt lat="44.00932" lon="6.5266">
        <ele>1757.43</ele>
        <time>2013-05-27T14:28:06Z</time>
      </trkpt>
      <trkpt lat="44.00904" lon="6.52635">
        <ele>1754.06</ele>
        <time>2013-05-27T14:28:17Z</time>
      </trkpt>
      <trkpt lat="44.00888" lon="6.52605">
        <ele>1750.7</ele>
        <time>2013-05-27T14:28:24Z</time>
      </trkpt>
      <trkpt lat="44.00873" lon="6.5258">
        <ele>1747.33</ele>
        <time>2013-05-27T14:28:29Z</time>
      </trkpt>
      <trkpt lat="44.00861" lon="6.52565">
        <ele>1742.53</ele>
        <time>2013-05-27T14:28:33Z</time>
      </trkpt>
      <trkpt lat="44.0086" lon="6.52561">
        <ele>1743.01</ele>
        <time>2013-05-27T14:28:34Z</time>
      </trkpt>
      <trkpt lat="44.00859" lon="6.5256">
        <ele>1741.08</ele>
        <time>2013-05-27T14:28:50Z</time>
      </trkpt>
      <trkpt lat="44.00852" lon="6.52553">
        <ele>1737.24</ele>
        <time>2013-05-27T14:29:27Z</time>
      </trkpt>
      <trkpt lat="44.00826" lon="6.52541">
        <ele>1731.47</ele>
        <time>2013-05-27T14:29:33Z</time>
      </trkpt>
      <trkpt lat="44.00808" lon="6.5254">
        <ele>1726.67</ele>
        <time>2013-05-27T14:29:39Z</time>
      </trkpt>
      <trkpt lat="44.00807" lon="6.52537">
        <ele>1725.7</ele>
        <time>2013-05-27T14:30:19Z</time>
      </trkpt>
      <trkpt lat="44.00791" lon="6.52524">
        <ele>1721.38</ele>
        <time>2013-05-27T14:30:25Z</time>
      </trkpt>
      <trkpt lat="44.00781" lon="6.52515">
        <ele>1718.49</ele>
        <time>2013-05-27T14:30:28Z</time>
      </trkpt>
      <trkpt lat="44.00769" lon="6.52495">
        <ele>1715.13</ele>
        <time>2013-05-27T14:30:32Z</time>
      </trkpt>
      <trkpt lat="44.00758" lon="6.52489">
        <ele>1711.76</ele>
        <time>2013-05-27T14:30:35Z</time>
      </trkpt>
      <trkpt lat="44.00752" lon="6.52487">
        <ele>1710.8</ele>
        <time>2013-05-27T14:30:36Z</time>
      </trkpt>
      <trkpt lat="44.0074" lon="6.52476">
        <ele>1707.44</ele>
        <time>2013-05-27T14:30:39Z</time>
      </trkpt>
      <trkpt lat="44.00724" lon="6.52472">
        <ele>1703.59</ele>
        <time>2013-05-27T14:30:42Z</time>
      </trkpt>
      <trkpt lat="44.00693" lon="6.52447">
        <ele>1697.83</ele>
        <time>2013-05-27T14:30:52Z</time>
      </trkpt>
      <trkpt lat="44.00669" lon="6.52419">
        <ele>1693.02</ele>
        <time>2013-05-27T14:30:59Z</time>
      </trkpt>
      <trkpt lat="44.00656" lon="6.52407">
        <ele>1689.65</ele>
        <time>2013-05-27T14:31:03Z</time>
      </trkpt>
      <trkpt lat="44.00635" lon="6.52392">
        <ele>1685.81</ele>
        <time>2013-05-27T14:31:08Z</time>
      </trkpt>
      <trkpt lat="44.00611" lon="6.52375">
        <ele>1681.48</ele>
        <time>2013-05-27T14:31:12Z</time>
      </trkpt>
      <trkpt lat="44.0059" lon="6.52364">
        <ele>1677.64</ele>
        <time>2013-05-27T14:31:15Z</time>
      </trkpt>
      <trkpt lat="44.00561" lon="6.52358">
        <ele>1671.87</ele>
        <time>2013-05-27T14:31:20Z</time>
      </trkpt>
      <trkpt lat="44.0054" lon="6.52342">
        <ele>1668.02</ele>
        <time>2013-05-27T14:31:24Z</time>
      </trkpt>
      <trkpt lat="44.00472" lon="6.5231">
        <ele>1661.78</ele>
        <time>2013-05-27T14:31:36Z</time>
      </trkpt>
      <trkpt lat="44.00429" lon="6.52316">
        <ele>1658.41</ele>
        <time>2013-05-27T14:31:52Z</time>
      </trkpt>
      <trkpt lat="44.00414" lon="6.52281">
        <ele>1656.01</ele>
        <time>2013-05-27T14:32:06Z</time>
      </trkpt>
      <trkpt lat="44.00396" lon="6.52252">
        <ele>1651.68</ele>
        <time>2013-05-27T14:32:31Z</time>
      </trkpt>
      <trkpt lat="44.0037" lon="6.52247">
        <ele>1647.36</ele>
        <time>2013-05-27T14:32:36Z</time>
      </trkpt>
      <trkpt lat="44.00353" lon="6.52243">
        <ele>1643.51</ele>
        <time>2013-05-27T14:32:41Z</time>
      </trkpt>
      <trkpt lat="44.00349" lon="6.52242">
        <ele>1641.59</ele>
        <time>2013-05-27T14:32:42Z</time>
      </trkpt>
      <trkpt lat="44.00332" lon="6.52232">
        <ele>1636.3</ele>
        <time>2013-05-27T14:32:46Z</time>
      </trkpt>
      <trkpt lat="44.0031" lon="6.52221">
        <ele>1630.05</ele>
        <time>2013-05-27T14:32:51Z</time>
      </trkpt>
      <trkpt lat="44.0029" lon="6.52215">
        <ele>1624.77</ele>
        <time>2013-05-27T14:32:56Z</time>
      </trkpt>
      <trkpt lat="44.00252" lon="6.52198">
        <ele>1617.07</ele>
        <time>2013-05-27T14:33:04Z</time>
      </trkpt>
      <trkpt lat="44.00242" lon="6.52196">
        <ele>1614.67</ele>
        <time>2013-05-27T14:33:07Z</time>
      </trkpt>
      <trkpt lat="44.00226" lon="6.52193">
        <ele>1610.83</ele>
        <time>2013-05-27T14:33:11Z</time>
      </trkpt>
      <trkpt lat="44.00212" lon="6.52189">
        <ele>1607.46</ele>
        <time>2013-05-27T14:33:15Z</time>
      </trkpt>
      <trkpt lat="44.00203" lon="6.52185">
        <ele>1604.1</ele>
        <time>2013-05-27T14:33:19Z</time>
      </trkpt>
      <trkpt lat="44.00194" lon="6.52178">
        <ele>1600.25</ele>
        <time>2013-05-27T14:33:23Z</time>
      </trkpt>
      <trkpt lat="44.00169" lon="6.52163">
        <ele>1594.48</ele>
        <time>2013-05-27T14:33:29Z</time>
      </trkpt>
      <trkpt lat="44.00167" lon="6.5216">
        <ele>1594</ele>
        <time>2013-05-27T14:33:44Z</time>
      </trkpt>
      <trkpt lat="44.00138" lon="6.52153">
        <ele>1590.64</ele>
        <time>2013-05-27T14:35:08Z</time>
      </trkpt>
      <trkpt lat="44.00114" lon="6.5215">
        <ele>1587.27</ele>
        <time>2013-05-27T14:35:14Z</time>
      </trkpt>
      <trkpt lat="44.00097" lon="6.52149">
        <ele>1582.95</ele>
        <time>2013-05-27T14:35:18Z</time>
      </trkpt>
      <trkpt lat="44.00078" lon="6.52152">
        <ele>1578.14</ele>
        <time>2013-05-27T14:35:23Z</time>
      </trkpt>
      <trkpt lat="44.00066" lon="6.52149">
        <ele>1574.78</ele>
        <time>2013-05-27T14:35:26Z</time>
      </trkpt>
      <trkpt lat="44.00051" lon="6.52143">
        <ele>1571.41</ele>
        <time>2013-05-27T14:35:29Z</time>
      </trkpt>
      <trkpt lat="44.00025" lon="6.52126">
        <ele>1564.2</ele>
        <time>2013-05-27T14:35:44Z</time>
      </trkpt>
      <trkpt lat="44.00008" lon="6.52121">
        <ele>1560.36</ele>
        <time>2013-05-27T14:35:48Z</time>
      </trkpt>
      <trkpt lat="43.99991" lon="6.52117">
        <ele>1557.47</ele>
        <time>2013-05-27T14:35:56Z</time>
      </trkpt>
      <trkpt lat="43.99967" lon="6.52105">
        <ele>1551.71</ele>
        <time>2013-05-27T14:36:08Z</time>
      </trkpt>
      <trkpt lat="43.99964" lon="6.52103">
        <ele>1551.22</ele>
        <time>2013-05-27T14:36:09Z</time>
      </trkpt>
      <trkpt lat="43.99984" lon="6.52073">
        <ele>1545.94</ele>
        <time>2013-05-27T14:36:23Z</time>
      </trkpt>
      <trkpt lat="44.00008" lon="6.52048">
        <ele>1541.13</ele>
        <time>2013-05-27T14:36:28Z</time>
      </trkpt>
      <trkpt lat="44.00025" lon="6.52031">
        <ele>1537.77</ele>
        <time>2013-05-27T14:36:31Z</time>
      </trkpt>
      <trkpt lat="44.00033" lon="6.52027">
        <ele>1537.77</ele>
        <time>2013-05-27T14:36:32Z</time>
      </trkpt>
      <trkpt lat="44.00053" lon="6.52017">
        <ele>1534.4</ele>
        <time>2013-05-27T14:36:35Z</time>
      </trkpt>
      <trkpt lat="44.0007" lon="6.52008">
        <ele>1531.04</ele>
        <time>2013-05-27T14:36:40Z</time>
      </trkpt>
      <trkpt lat="44.00072" lon="6.52001">
        <ele>1529.11</ele>
        <time>2013-05-27T14:37:04Z</time>
      </trkpt>
      <trkpt lat="44.00054" lon="6.51996">
        <ele>1527.67</ele>
        <time>2013-05-27T14:37:36Z</time>
      </trkpt>
      <trkpt lat="44.00028" lon="6.51988">
        <ele>1524.31</ele>
        <time>2013-05-27T14:37:40Z</time>
      </trkpt>
      <trkpt lat="44.0002" lon="6.51986">
        <ele>1524.31</ele>
        <time>2013-05-27T14:37:41Z</time>
      </trkpt>
      <trkpt lat="43.99984" lon="6.51979">
        <ele>1519.5</ele>
        <time>2013-05-27T14:37:45Z</time>
      </trkpt>
      <trkpt lat="43.99938" lon="6.51979">
        <ele>1515.66</ele>
        <time>2013-05-27T14:37:50Z</time>
      </trkpt>
      <trkpt lat="43.99909" lon="6.51977">
        <ele>1512.77</ele>
        <time>2013-05-27T14:37:58Z</time>
      </trkpt>
      <trkpt lat="43.99902" lon="6.51972">
        <ele>1513.73</ele>
        <time>2013-05-27T14:38:04Z</time>
      </trkpt>
      <trkpt lat="43.99899" lon="6.51974">
        <ele>1512.29</ele>
        <time>2013-05-27T14:38:32Z</time>
      </trkpt>
      <trkpt lat="43.99902" lon="6.51976">
        <ele>1512.77</ele>
        <time>2013-05-27T14:39:27Z</time>
      </trkpt>
      <trkpt lat="43.99953" lon="6.51962">
        <ele>1510.85</ele>
        <time>2013-05-27T14:39:50Z</time>
      </trkpt>
      <trkpt lat="43.99997" lon="6.51945">
        <ele>1507.48</ele>
        <time>2013-05-27T14:39:57Z</time>
      </trkpt>
      <trkpt lat="44.00004" lon="6.51935">
        <ele>1503.64</ele>
        <time>2013-05-27T14:40:06Z</time>
      </trkpt>
      <trkpt lat="43.99969" lon="6.51919">
        <ele>1497.87</ele>
        <time>2013-05-27T14:40:13Z</time>
      </trkpt>
      <trkpt lat="43.99963" lon="6.51918">
        <ele>1497.87</ele>
        <time>2013-05-27T14:40:14Z</time>
      </trkpt>
      <trkpt lat="43.99929" lon="6.51914">
        <ele>1492.1</ele>
        <time>2013-05-27T14:40:20Z</time>
      </trkpt>
      <trkpt lat="43.99903" lon="6.5191">
        <ele>1487.78</ele>
        <time>2013-05-27T14:40:24Z</time>
      </trkpt>
      <trkpt lat="43.9989" lon="6.51914">
        <ele>1486.34</ele>
        <time>2013-05-27T14:40:26Z</time>
      </trkpt>
      <trkpt lat="43.99843" lon="6.51929">
        <ele>1480.57</ele>
        <time>2013-05-27T14:40:33Z</time>
      </trkpt>
      <trkpt lat="43.99826" lon="6.5194">
        <ele>1476.72</ele>
        <time>2013-05-27T14:40:36Z</time>
      </trkpt>
      <trkpt lat="43.99813" lon="6.5196">
        <ele>1473.36</ele>
        <time>2013-05-27T14:40:39Z</time>
      </trkpt>
      <trkpt lat="43.99806" lon="6.51992">
        <ele>1470.47</ele>
        <time>2013-05-27T14:40:43Z</time>
      </trkpt>
      <trkpt lat="43.99801" lon="6.5201">
        <ele>1469.03</ele>
        <time>2013-05-27T14:40:46Z</time>
      </trkpt>
      <trkpt lat="43.99797" lon="6.52019">
        <ele>1467.59</ele>
        <time>2013-05-27T14:40:48Z</time>
      </trkpt>
      <trkpt lat="43.99787" lon="6.52042">
        <ele>1464.23</ele>
        <time>2013-05-27T14:40:52Z</time>
      </trkpt>
      <trkpt lat="43.99778" lon="6.52021">
        <ele>1459.42</ele>
        <time>2013-05-27T14:40:59Z</time>
      </trkpt>
      <trkpt lat="43.99751" lon="6.52012">
        <ele>1453.17</ele>
        <time>2013-05-27T14:41:06Z</time>
      </trkpt>
      <trkpt lat="43.99727" lon="6.52014">
        <ele>1445.96</ele>
        <time>2013-05-27T14:41:38Z</time>
      </trkpt>
      <trkpt lat="43.99712" lon="6.52019">
        <ele>1441.63</ele>
        <time>2013-05-27T14:41:41Z</time>
      </trkpt>
      <trkpt lat="43.99687" lon="6.5202">
        <ele>1436.83</ele>
        <time>2013-05-27T14:41:46Z</time>
      </trkpt>
      <trkpt lat="43.99666" lon="6.52016">
        <ele>1433.46</ele>
        <time>2013-05-27T14:41:50Z</time>
      </trkpt>
      <trkpt lat="43.9965" lon="6.52004">
        <ele>1429.62</ele>
        <time>2013-05-27T14:41:54Z</time>
      </trkpt>
      <trkpt lat="43.99634" lon="6.51993">
        <ele>1426.25</ele>
        <time>2013-05-27T14:41:58Z</time>
      </trkpt>
      <trkpt lat="43.99626" lon="6.51992">
        <ele>1422.89</ele>
        <time>2013-05-27T14:42:00Z</time>
      </trkpt>
      <trkpt lat="43.99622" lon="6.51991">
        <ele>1423.37</ele>
        <time>2013-05-27T14:42:01Z</time>
      </trkpt>
      <trkpt lat="43.99603" lon="6.51988">
        <ele>1420</ele>
        <time>2013-05-27T14:42:05Z</time>
      </trkpt>
      <trkpt lat="43.99582" lon="6.51987">
        <ele>1415.2</ele>
        <time>2013-05-27T14:42:08Z</time>
      </trkpt>
      <trkpt lat="43.99544" lon="6.51982">
        <ele>1409.43</ele>
        <time>2013-05-27T14:42:13Z</time>
      </trkpt>
      <trkpt lat="43.99528" lon="6.51979">
        <ele>1406.55</ele>
        <time>2013-05-27T14:42:15Z</time>
      </trkpt>
      <trkpt lat="43.99498" lon="6.51965">
        <ele>1400.3</ele>
        <time>2013-05-27T14:42:19Z</time>
      </trkpt>
      <trkpt lat="43.99487" lon="6.51952">
        <ele>1398.86</ele>
        <time>2013-05-27T14:42:21Z</time>
      </trkpt>
      <trkpt lat="43.9946" lon="6.5192">
        <ele>1393.57</ele>
        <time>2013-05-27T14:42:25Z</time>
      </trkpt>
      <trkpt lat="43.99437" lon="6.51891">
        <ele>1390.2</ele>
        <time>2013-05-27T14:42:28Z</time>
      </trkpt>
      <trkpt lat="43.99414" lon="6.5186">
        <ele>1386.36</ele>
        <time>2013-05-27T14:42:32Z</time>
      </trkpt>
      <trkpt lat="43.99393" lon="6.51845">
        <ele>1382.03</ele>
        <time>2013-05-27T14:42:36Z</time>
      </trkpt>
      <trkpt lat="43.99361" lon="6.51832">
        <ele>1377.71</ele>
        <time>2013-05-27T14:42:40Z</time>
      </trkpt>
      <trkpt lat="43.99347" lon="6.51827">
        <ele>1375.78</ele>
        <time>2013-05-27T14:42:42Z</time>
      </trkpt>
      <trkpt lat="43.99334" lon="6.51819">
        <ele>1371.46</ele>
        <time>2013-05-27T14:42:45Z</time>
      </trkpt>
      <trkpt lat="43.99337" lon="6.51823">
        <ele>1369.54</ele>
        <time>2013-05-27T14:43:02Z</time>
      </trkpt>
      <trkpt lat="43.99336" lon="6.51824">
        <ele>1370.98</ele>
        <time>2013-05-27T14:45:18Z</time>
      </trkpt>
      <trkpt lat="43.99336" lon="6.51824">
        <ele>1371.46</ele>
        <time>2013-05-27T14:45:32Z</time>
      </trkpt>
      <trkpt lat="43.99346" lon="6.51845">
        <ele>1367.13</ele>
        <time>2013-05-27T14:45:42Z</time>
      </trkpt>
      <trkpt lat="43.99328" lon="6.51838">
        <ele>1363.77</ele>
        <time>2013-05-27T14:45:49Z</time>
      </trkpt>
      <trkpt lat="43.99336" lon="6.51858">
        <ele>1358.48</ele>
        <time>2013-05-27T14:45:59Z</time>
      </trkpt>
      <trkpt lat="43.9933" lon="6.51859">
        <ele>1356.56</ele>
        <time>2013-05-27T14:46:24Z</time>
      </trkpt>
      <trkpt lat="43.99313" lon="6.51857">
        <ele>1353.67</ele>
        <time>2013-05-27T14:46:31Z</time>
      </trkpt>
      <trkpt lat="43.9932" lon="6.51869">
        <ele>1351.75</ele>
        <time>2013-05-27T14:46:35Z</time>
      </trkpt>
      <trkpt lat="43.99305" lon="6.51869">
        <ele>1345.98</ele>
        <time>2013-05-27T14:46:49Z</time>
      </trkpt>
      <trkpt lat="43.99305" lon="6.51871">
        <ele>1344.54</ele>
        <time>2013-05-27T14:46:51Z</time>
      </trkpt>
      <trkpt lat="43.99319" lon="6.51892">
        <ele>1340.22</ele>
        <time>2013-05-27T14:46:58Z</time>
      </trkpt>
      <trkpt lat="43.99317" lon="6.51889">
        <ele>1339.73</ele>
        <time>2013-05-27T14:47:13Z</time>
      </trkpt>
      <trkpt lat="43.99291" lon="6.51878">
        <ele>1335.41</ele>
        <time>2013-05-27T14:47:21Z</time>
      </trkpt>
      <trkpt lat="43.99267" lon="6.51867">
        <ele>1331.08</ele>
        <time>2013-05-27T14:47:25Z</time>
      </trkpt>
      <trkpt lat="43.99252" lon="6.5186">
        <ele>1329.64</ele>
        <time>2013-05-27T14:47:27Z</time>
      </trkpt>
      <trkpt lat="43.99241" lon="6.51852">
        <ele>1326.76</ele>
        <time>2013-05-27T14:47:29Z</time>
      </trkpt>
      <trkpt lat="43.99215" lon="6.5183">
        <ele>1321.95</ele>
        <time>2013-05-27T14:47:33Z</time>
      </trkpt>
      <trkpt lat="43.99185" lon="6.51811">
        <ele>1317.62</ele>
        <time>2013-05-27T14:47:37Z</time>
      </trkpt>
      <trkpt lat="43.99166" lon="6.51796">
        <ele>1313.3</ele>
        <time>2013-05-27T14:47:40Z</time>
      </trkpt>
      <trkpt lat="43.99143" lon="6.51766">
        <ele>1309.45</ele>
        <time>2013-05-27T14:47:44Z</time>
      </trkpt>
      <trkpt lat="43.99124" lon="6.51742">
        <ele>1305.13</ele>
        <time>2013-05-27T14:47:47Z</time>
      </trkpt>
      <trkpt lat="43.99114" lon="6.51728">
        <ele>1303.2</ele>
        <time>2013-05-27T14:47:49Z</time>
      </trkpt>
      <trkpt lat="43.99097" lon="6.51714">
        <ele>1297.92</ele>
        <time>2013-05-27T14:47:53Z</time>
      </trkpt>
      <trkpt lat="43.99091" lon="6.51712">
        <ele>1295.99</ele>
        <time>2013-05-27T14:48:26Z</time>
      </trkpt>
      <trkpt lat="43.99098" lon="6.5174">
        <ele>1292.15</ele>
        <time>2013-05-27T14:48:34Z</time>
      </trkpt>
      <trkpt lat="43.99079" lon="6.51733">
        <ele>1287.82</ele>
        <time>2013-05-27T14:48:41Z</time>
      </trkpt>
      <trkpt lat="43.99085" lon="6.5177">
        <ele>1281.57</ele>
        <time>2013-05-27T14:48:50Z</time>
      </trkpt>
      <trkpt lat="43.99074" lon="6.51771">
        <ele>1275.81</ele>
        <time>2013-05-27T14:49:04Z</time>
      </trkpt>
      <trkpt lat="43.99073" lon="6.51767">
        <ele>1276.29</ele>
        <time>2013-05-27T14:49:24Z</time>
      </trkpt>
      <trkpt lat="43.9906" lon="6.51759">
        <ele>1272.44</ele>
        <time>2013-05-27T14:49:59Z</time>
      </trkpt>
      <trkpt lat="43.99043" lon="6.51751">
        <ele>1268.6</ele>
        <time>2013-05-27T14:50:02Z</time>
      </trkpt>
      <trkpt lat="43.99014" lon="6.51734">
        <ele>1265.23</ele>
        <time>2013-05-27T14:50:07Z</time>
      </trkpt>
      <trkpt lat="43.99004" lon="6.51728">
        <ele>1263.31</ele>
        <time>2013-05-27T14:50:09Z</time>
      </trkpt>
      <trkpt lat="43.98982" lon="6.51722">
        <ele>1259.94</ele>
        <time>2013-05-27T14:50:13Z</time>
      </trkpt>
      <trkpt lat="43.98957" lon="6.51709">
        <ele>1256.58</ele>
        <time>2013-05-27T14:50:17Z</time>
      </trkpt>
      <trkpt lat="43.98937" lon="6.51699">
        <ele>1252.74</ele>
        <time>2013-05-27T14:50:20Z</time>
      </trkpt>
      <trkpt lat="43.98906" lon="6.51682">
        <ele>1246.97</ele>
        <time>2013-05-27T14:50:25Z</time>
      </trkpt>
      <trkpt lat="43.98873" lon="6.51668">
        <ele>1240.24</ele>
        <time>2013-05-27T14:50:31Z</time>
      </trkpt>
      <trkpt lat="43.98866" lon="6.51669">
        <ele>1238.8</ele>
        <time>2013-05-27T14:50:32Z</time>
      </trkpt>
      <trkpt lat="43.98839" lon="6.51671">
        <ele>1235.43</ele>
        <time>2013-05-27T14:50:36Z</time>
      </trkpt>
      <trkpt lat="43.98823" lon="6.51672">
        <ele>1232.07</ele>
        <time>2013-05-27T14:50:38Z</time>
      </trkpt>
      <trkpt lat="43.98804" lon="6.51668">
        <ele>1228.7</ele>
        <time>2013-05-27T14:50:41Z</time>
      </trkpt>
      <trkpt lat="43.98787" lon="6.51663">
        <ele>1225.34</ele>
        <time>2013-05-27T14:50:45Z</time>
      </trkpt>
      <trkpt lat="43.98752" lon="6.51649">
        <ele>1218.13</ele>
        <time>2013-05-27T14:50:51Z</time>
      </trkpt>
      <trkpt lat="43.98738" lon="6.51641">
        <ele>1214.76</ele>
        <time>2013-05-27T14:50:54Z</time>
      </trkpt>
      <trkpt lat="43.98721" lon="6.51631">
        <ele>1210.92</ele>
        <time>2013-05-27T14:50:57Z</time>
      </trkpt>
      <trkpt lat="43.98682" lon="6.51617">
        <ele>1204.67</ele>
        <time>2013-05-27T14:51:04Z</time>
      </trkpt>
      <trkpt lat="43.98664" lon="6.51607">
        <ele>1201.3</ele>
        <time>2013-05-27T14:51:08Z</time>
      </trkpt>
      <trkpt lat="43.98637" lon="6.51585">
        <ele>1197.46</ele>
        <time>2013-05-27T14:51:12Z</time>
      </trkpt>
      <trkpt lat="43.98615" lon="6.51568">
        <ele>1192.65</ele>
        <time>2013-05-27T14:51:15Z</time>
      </trkpt>
      <trkpt lat="43.9861" lon="6.51564">
        <ele>1191.21</ele>
        <time>2013-05-27T14:51:16Z</time>
      </trkpt>
      <trkpt lat="43.98586" lon="6.51556">
        <ele>1184.48</ele>
        <time>2013-05-27T14:51:21Z</time>
      </trkpt>
      <trkpt lat="43.98569" lon="6.51546">
        <ele>1180.16</ele>
        <time>2013-05-27T14:51:24Z</time>
      </trkpt>
      <trkpt lat="43.98553" lon="6.51536">
        <ele>1176.31</ele>
        <time>2013-05-27T14:51:27Z</time>
      </trkpt>
      <trkpt lat="43.98537" lon="6.51526">
        <ele>1172.95</ele>
        <time>2013-05-27T14:51:31Z</time>
      </trkpt>
      <trkpt lat="43.98512" lon="6.51515">
        <ele>1166.7</ele>
        <time>2013-05-27T14:51:40Z</time>
      </trkpt>
      <trkpt lat="43.98492" lon="6.51504">
        <ele>1162.37</ele>
        <time>2013-05-27T14:51:46Z</time>
      </trkpt>
      <trkpt lat="43.98477" lon="6.51491">
        <ele>1159.01</ele>
        <time>2013-05-27T14:51:50Z</time>
      </trkpt>
      <trkpt lat="43.98473" lon="6.51487">
        <ele>1158.53</ele>
        <time>2013-05-27T14:52:02Z</time>
      </trkpt>
      <trkpt lat="43.98473" lon="6.51486">
        <ele>1157.08</ele>
        <time>2013-05-27T14:53:34Z</time>
      </trkpt>
      <trkpt lat="43.98469" lon="6.51484">
        <ele>1155.64</ele>
        <time>2013-05-27T14:53:35Z</time>
      </trkpt>
      <trkpt lat="43.98464" lon="6.51483">
        <ele>1155.64</ele>
        <time>2013-05-27T14:53:36Z</time>
      </trkpt>
      <trkpt lat="43.98449" lon="6.5145">
        <ele>1150.84</ele>
        <time>2013-05-27T14:53:44Z</time>
      </trkpt>
      <trkpt lat="43.98452" lon="6.51448">
        <ele>1150.84</ele>
        <time>2013-05-27T14:53:45Z</time>
      </trkpt>
      <trkpt lat="43.98469" lon="6.51444">
        <ele>1149.39</ele>
        <time>2013-05-27T14:53:49Z</time>
      </trkpt>
      <trkpt lat="43.98523" lon="6.51435">
        <ele>1143.14</ele>
        <time>2013-05-27T14:53:56Z</time>
      </trkpt>
      <trkpt lat="43.98551" lon="6.51413">
        <ele>1139.78</ele>
        <time>2013-05-27T14:54:00Z</time>
      </trkpt>
      <trkpt lat="43.98574" lon="6.51319">
        <ele>1138.82</ele>
        <time>2013-05-27T14:54:19Z</time>
      </trkpt>
      <trkpt lat="43.98574" lon="6.51285">
        <ele>1141.7</ele>
        <time>2013-05-27T14:54:37Z</time>
      </trkpt>
      <trkpt lat="43.98577" lon="6.51267">
        <ele>1143.63</ele>
        <time>2013-05-27T14:54:49Z</time>
      </trkpt>
      <trkpt lat="43.98601" lon="6.51246">
        <ele>1143.63</ele>
        <time>2013-05-27T14:55:10Z</time>
      </trkpt>
      <trkpt lat="43.98665" lon="6.51214">
        <ele>1143.63</ele>
        <time>2013-05-27T14:55:30Z</time>
      </trkpt>
      <trkpt lat="43.98815" lon="6.51153">
        <ele>1146.51</ele>
        <time>2013-05-27T14:56:20Z</time>
      </trkpt>
      <trkpt lat="43.98884" lon="6.51132">
        <ele>1151.8</ele>
        <time>2013-05-27T14:57:05Z</time>
      </trkpt>
      <trkpt lat="43.9893" lon="6.51135">
        <ele>1157.08</ele>
        <time>2013-05-27T14:57:38Z</time>
      </trkpt>
      <trkpt lat="43.98962" lon="6.51134">
        <ele>1161.41</ele>
        <time>2013-05-27T14:58:18Z</time>
      </trkpt>
      <trkpt lat="43.99007" lon="6.51136">
        <ele>1162.85</ele>
        <time>2013-05-27T14:58:42Z</time>
      </trkpt>
      <trkpt lat="43.99072" lon="6.5112">
        <ele>1159.97</ele>
        <time>2013-05-27T14:59:09Z</time>
      </trkpt>
      <trkpt lat="43.99081" lon="6.51109">
        <ele>1156.12</ele>
        <time>2013-05-27T14:59:14Z</time>
      </trkpt>
      <trkpt lat="43.99085" lon="6.51107">
        <ele>1156.6</ele>
        <time>2013-05-27T14:59:15Z</time>
      </trkpt>
      <trkpt lat="43.99092" lon="6.51099">
        <ele>1152.76</ele>
        <time>2013-05-27T14:59:17Z</time>
      </trkpt>
      <trkpt lat="43.9915" lon="6.51094">
        <ele>1153.72</ele>
        <time>2013-05-27T14:59:29Z</time>
      </trkpt>
      <trkpt lat="43.99177" lon="6.51093">
        <ele>1158.05</ele>
        <time>2013-05-27T14:59:47Z</time>
      </trkpt>
      <trkpt lat="43.9923" lon="6.51057">
        <ele>1155.64</ele>
        <time>2013-05-27T15:00:06Z</time>
      </trkpt>
      <trkpt lat="43.99297" lon="6.51048">
        <ele>1157.08</ele>
        <time>2013-05-27T15:00:33Z</time>
      </trkpt>
      <trkpt lat="43.99324" lon="6.5104">
        <ele>1157.08</ele>
        <time>2013-05-27T15:00:45Z</time>
      </trkpt>
      <trkpt lat="43.9935" lon="6.51016">
        <ele>1154.68</ele>
        <time>2013-05-27T15:00:52Z</time>
      </trkpt>
      <trkpt lat="43.99376" lon="6.50978">
        <ele>1151.32</ele>
        <time>2013-05-27T15:00:58Z</time>
      </trkpt>
      <trkpt lat="43.99408" lon="6.50948">
        <ele>1147.95</ele>
        <time>2013-05-27T15:01:03Z</time>
      </trkpt>
      <trkpt lat="43.99443" lon="6.50911">
        <ele>1143.14</ele>
        <time>2013-05-27T15:01:08Z</time>
      </trkpt>
      <trkpt lat="43.99449" lon="6.50904">
        <ele>1143.14</ele>
        <time>2013-05-27T15:01:09Z</time>
      </trkpt>
      <trkpt lat="43.9946" lon="6.50892">
        <ele>1140.74</ele>
        <time>2013-05-27T15:01:11Z</time>
      </trkpt>
      <trkpt lat="43.99496" lon="6.50874">
        <ele>1135.94</ele>
        <time>2013-05-27T15:01:17Z</time>
      </trkpt>
      <trkpt lat="43.99529" lon="6.50855">
        <ele>1132.57</ele>
        <time>2013-05-27T15:01:22Z</time>
      </trkpt>
      <trkpt lat="43.99537" lon="6.50853">
        <ele>1133.05</ele>
        <time>2013-05-27T15:01:23Z</time>
      </trkpt>
      <trkpt lat="43.9956" lon="6.50845">
        <ele>1129.69</ele>
        <time>2013-05-27T15:01:26Z</time>
      </trkpt>
      <trkpt lat="43.99577" lon="6.5084">
        <ele>1126.8</ele>
        <time>2013-05-27T15:01:28Z</time>
      </trkpt>
      <trkpt lat="43.9964" lon="6.50812">
        <ele>1121.03</ele>
        <time>2013-05-27T15:01:36Z</time>
      </trkpt>
      <trkpt lat="43.99665" lon="6.50793">
        <ele>1117.19</ele>
        <time>2013-05-27T15:01:39Z</time>
      </trkpt>
      <trkpt lat="43.99691" lon="6.50774">
        <ele>1114.31</ele>
        <time>2013-05-27T15:01:42Z</time>
      </trkpt>
      <trkpt lat="43.99714" lon="6.5076">
        <ele>1110.94</ele>
        <time>2013-05-27T15:01:45Z</time>
      </trkpt>
      <trkpt lat="43.99763" lon="6.50755">
        <ele>1106.13</ele>
        <time>2013-05-27T15:01:51Z</time>
      </trkpt>
      <trkpt lat="43.99808" lon="6.50764">
        <ele>1101.33</ele>
        <time>2013-05-27T15:01:56Z</time>
      </trkpt>
      <trkpt lat="43.99828" lon="6.50762">
        <ele>1097.96</ele>
        <time>2013-05-27T15:01:59Z</time>
      </trkpt>
      <trkpt lat="43.99841" lon="6.50778">
        <ele>1095.08</ele>
        <time>2013-05-27T15:02:05Z</time>
      </trkpt>
      <trkpt lat="43.99841" lon="6.50777">
        <ele>1093.16</ele>
        <time>2013-05-27T15:03:20Z</time>
      </trkpt>
      <trkpt lat="43.99871" lon="6.50726">
        <ele>1089.79</ele>
        <time>2013-05-27T15:03:32Z</time>
      </trkpt>
      <trkpt lat="43.9989" lon="6.50751">
        <ele>1085.95</ele>
        <time>2013-05-27T15:03:40Z</time>
      </trkpt>
      <trkpt lat="43.99897" lon="6.50741">
        <ele>1084.02</ele>
        <time>2013-05-27T15:04:16Z</time>
      </trkpt>
      <trkpt lat="43.99897" lon="6.50741">
        <ele>1082.58</ele>
        <time>2013-05-27T15:04:44Z</time>
      </trkpt>
      <trkpt lat="43.99911" lon="6.50731">
        <ele>1081.14</ele>
        <time>2013-05-27T15:04:53Z</time>
      </trkpt>
      <trkpt lat="43.99938" lon="6.50705">
        <ele>1077.78</ele>
        <time>2013-05-27T15:05:09Z</time>
      </trkpt>
      <trkpt lat="43.99971" lon="6.50627">
        <ele>1072.01</ele>
        <time>2013-05-27T15:05:23Z</time>
      </trkpt>
      <trkpt lat="43.99998" lon="6.50575">
        <ele>1068.64</ele>
        <time>2013-05-27T15:05:29Z</time>
      </trkpt>
      <trkpt lat="44.00012" lon="6.50552">
        <ele>1065.28</ele>
        <time>2013-05-27T15:05:32Z</time>
      </trkpt>
      <trkpt lat="44.00016" lon="6.50544">
        <ele>1065.28</ele>
        <time>2013-05-27T15:05:33Z</time>
      </trkpt>
      <trkpt lat="44.00025" lon="6.50528">
        <ele>1062.87</ele>
        <time>2013-05-27T15:05:35Z</time>
      </trkpt>
      <trkpt lat="44.00043" lon="6.50501">
        <ele>1060.47</ele>
        <time>2013-05-27T15:05:39Z</time>
      </trkpt>
      <trkpt lat="44.0002" lon="6.50515">
        <ele>1055.67</ele>
        <time>2013-05-27T15:05:47Z</time>
      </trkpt>
      <trkpt lat="43.99981" lon="6.50525">
        <ele>1049.42</ele>
        <time>2013-05-27T15:06:17Z</time>
      </trkpt>
      <trkpt lat="43.9998" lon="6.50525">
        <ele>1048.94</ele>
        <time>2013-05-27T15:06:29Z</time>
      </trkpt>
      <trkpt lat="43.99944" lon="6.50518">
        <ele>1046.05</ele>
        <time>2013-05-27T15:06:40Z</time>
      </trkpt>
      <trkpt lat="43.99925" lon="6.50553">
        <ele>1042.69</ele>
        <time>2013-05-27T15:06:47Z</time>
      </trkpt>
      <trkpt lat="43.99919" lon="6.50544">
        <ele>1038.36</ele>
        <time>2013-05-27T15:06:55Z</time>
      </trkpt>
      <trkpt lat="43.99916" lon="6.50544">
        <ele>1039.32</ele>
        <time>2013-05-27T15:07:01Z</time>
      </trkpt>
      <trkpt lat="43.99915" lon="6.50503">
        <ele>1035.96</ele>
        <time>2013-05-27T15:07:10Z</time>
      </trkpt>
      <trkpt lat="43.99904" lon="6.50445">
        <ele>1031.63</ele>
        <time>2013-05-27T15:07:19Z</time>
      </trkpt>
      <trkpt lat="43.99893" lon="6.50427">
        <ele>1029.23</ele>
        <time>2013-05-27T15:07:30Z</time>
      </trkpt>
      <trkpt lat="43.99881" lon="6.50403">
        <ele>1029.71</ele>
        <time>2013-05-27T15:07:44Z</time>
      </trkpt>
      <trkpt lat="43.99817" lon="6.50377">
        <ele>1029.71</ele>
        <time>2013-05-27T15:08:46Z</time>
      </trkpt>
      <trkpt lat="43.99817" lon="6.50371">
        <ele>1030.19</ele>
        <time>2013-05-27T15:13:00Z</time>
      </trkpt>
      <trkpt lat="43.99786" lon="6.50339">
        <ele>1029.71</ele>
        <time>2013-05-27T15:13:44Z</time>
      </trkpt>
      <trkpt lat="43.99756" lon="6.50368">
        <ele>1023.94</ele>
        <time>2013-05-27T15:13:53Z</time>
      </trkpt>
      <trkpt lat="43.99752" lon="6.50371">
        <ele>1023.94</ele>
        <time>2013-05-27T15:13:54Z</time>
      </trkpt>
      <trkpt lat="43.99721" lon="6.50396">
        <ele>1019.62</ele>
        <time>2013-05-27T15:14:00Z</time>
      </trkpt>
      <trkpt lat="43.9969" lon="6.50401">
        <ele>1018.65</ele>
        <time>2013-05-27T15:14:03Z</time>
      </trkpt>
      <trkpt lat="43.99668" lon="6.50401">
        <ele>1014.81</ele>
        <time>2013-05-27T15:14:06Z</time>
      </trkpt>
      <trkpt lat="43.9965" lon="6.50415">
        <ele>1011.44</ele>
        <time>2013-05-27T15:14:10Z</time>
      </trkpt>
      <trkpt lat="43.9964" lon="6.50424">
        <ele>1010</ele>
        <time>2013-05-27T15:14:25Z</time>
      </trkpt>
      <trkpt lat="43.99621" lon="6.50437">
        <ele>1007.12</ele>
        <time>2013-05-27T15:14:35Z</time>
      </trkpt>
      <trkpt lat="43.99646" lon="6.50396">
        <ele>1002.31</ele>
        <time>2013-05-27T15:14:47Z</time>
      </trkpt>
      <trkpt lat="43.99656" lon="6.50386">
        <ele>997.99</ele>
        <time>2013-05-27T15:14:58Z</time>
      </trkpt>
      <trkpt lat="43.9964" lon="6.50396">
        <ele>995.1</ele>
        <time>2013-05-27T15:15:04Z</time>
      </trkpt>
      <trkpt lat="43.99616" lon="6.5041">
        <ele>992.22</ele>
        <time>2013-05-27T15:15:08Z</time>
      </trkpt>
      <trkpt lat="43.99601" lon="6.50436">
        <ele>988.85</ele>
        <time>2013-05-27T15:15:13Z</time>
      </trkpt>
      <trkpt lat="43.99555" lon="6.50442">
        <ele>984.05</ele>
        <time>2013-05-27T15:15:24Z</time>
      </trkpt>
      <trkpt lat="43.99551" lon="6.50446">
        <ele>983.57</ele>
        <time>2013-05-27T15:15:25Z</time>
      </trkpt>
      <trkpt lat="43.99543" lon="6.50457">
        <ele>982.12</ele>
        <time>2013-05-27T15:15:27Z</time>
      </trkpt>
      <trkpt lat="43.99502" lon="6.50496">
        <ele>976.36</ele>
        <time>2013-05-27T15:15:35Z</time>
      </trkpt>
      <trkpt lat="43.99449" lon="6.50508">
        <ele>972.03</ele>
        <time>2013-05-27T15:15:43Z</time>
      </trkpt>
      <trkpt lat="43.99428" lon="6.50508">
        <ele>968.67</ele>
        <time>2013-05-27T15:15:51Z</time>
      </trkpt>
      <trkpt lat="43.99439" lon="6.50497">
        <ele>966.74</ele>
        <time>2013-05-27T15:15:56Z</time>
      </trkpt>
      <trkpt lat="43.99476" lon="6.50463">
        <ele>961.46</ele>
        <time>2013-05-27T15:16:04Z</time>
      </trkpt>
      <trkpt lat="43.99483" lon="6.50444">
        <ele>959.53</ele>
        <time>2013-05-27T15:16:06Z</time>
      </trkpt>
      <trkpt lat="43.9949" lon="6.50427">
        <ele>957.61</ele>
        <time>2013-05-27T15:16:08Z</time>
      </trkpt>
      <trkpt lat="43.99508" lon="6.50418">
        <ele>954.25</ele>
        <time>2013-05-27T15:16:11Z</time>
      </trkpt>
      <trkpt lat="43.99517" lon="6.50401">
        <ele>953.28</ele>
        <time>2013-05-27T15:16:13Z</time>
      </trkpt>
      <trkpt lat="43.99528" lon="6.5038">
        <ele>951.36</ele>
        <time>2013-05-27T15:16:15Z</time>
      </trkpt>
      <trkpt lat="43.9957" lon="6.50311">
        <ele>947.52</ele>
        <time>2013-05-27T15:16:27Z</time>
      </trkpt>
      <trkpt lat="43.99597" lon="6.5029">
        <ele>948.48</ele>
        <time>2013-05-27T15:16:43Z</time>
      </trkpt>
      <trkpt lat="43.99667" lon="6.50223">
        <ele>948.96</ele>
        <time>2013-05-27T15:17:16Z</time>
      </trkpt>
      <trkpt lat="43.99662" lon="6.50192">
        <ele>949.92</ele>
        <time>2013-05-27T15:17:46Z</time>
      </trkpt>
      <trkpt lat="43.9965" lon="6.50201">
        <ele>949.44</ele>
        <time>2013-05-27T15:18:18Z</time>
      </trkpt>
      <trkpt lat="43.99614" lon="6.50218">
        <ele>948.96</ele>
        <time>2013-05-27T15:18:28Z</time>
      </trkpt>
      <trkpt lat="43.99493" lon="6.50284">
        <ele>949.44</ele>
        <time>2013-05-27T15:18:57Z</time>
      </trkpt>
      <trkpt lat="43.99479" lon="6.50274">
        <ele>948.96</ele>
        <time>2013-05-27T15:19:01Z</time>
      </trkpt>
      <trkpt lat="43.9937" lon="6.50306">
        <ele>947.52</ele>
        <time>2013-05-27T15:19:25Z</time>
      </trkpt>
      <trkpt lat="43.99364" lon="6.50308">
        <ele>947.52</ele>
        <time>2013-05-27T15:19:26Z</time>
      </trkpt>
      <trkpt lat="43.99358" lon="6.50308">
        <ele>948</ele>
        <time>2013-05-27T15:19:27Z</time>
      </trkpt>
      <trkpt lat="43.99352" lon="6.50308">
        <ele>947.52</ele>
        <time>2013-05-27T15:19:28Z</time>
      </trkpt>
      <trkpt lat="43.99346" lon="6.50308">
        <ele>947.52</ele>
        <time>2013-05-27T15:19:29Z</time>
      </trkpt>
      <trkpt lat="43.99269" lon="6.50298">
        <ele>948.96</ele>
        <time>2013-05-27T15:19:44Z</time>
      </trkpt>
      <trkpt lat="43.99256" lon="6.50298">
        <ele>948.48</ele>
        <time>2013-05-27T15:19:47Z</time>
      </trkpt>
      <trkpt lat="43.99082" lon="6.50355">
        <ele>946.56</ele>
        <time>2013-05-27T15:20:23Z</time>
      </trkpt>
      <trkpt lat="43.99068" lon="6.50361">
        <ele>946.56</ele>
        <time>2013-05-27T15:20:26Z</time>
      </trkpt>
      <trkpt lat="43.99009" lon="6.50442">
        <ele>945.11</ele>
        <time>2013-05-27T15:20:42Z</time>
      </trkpt>
      <trkpt lat="43.98942" lon="6.50517">
        <ele>943.19</ele>
        <time>2013-05-27T15:20:58Z</time>
      </trkpt>
      <trkpt lat="43.98855" lon="6.50483">
        <ele>940.31</ele>
        <time>2013-05-27T15:21:12Z</time>
      </trkpt>
      <trkpt lat="43.98703" lon="6.50471">
        <ele>935.98</ele>
        <time>2013-05-27T15:21:36Z</time>
      </trkpt>
      <trkpt lat="43.98629" lon="6.50534">
        <ele>934.06</ele>
        <time>2013-05-27T15:21:52Z</time>
      </trkpt>
      <trkpt lat="43.98638" lon="6.50529">
        <ele>933.58</ele>
        <time>2013-05-27T15:21:59Z</time>
      </trkpt>
      <trkpt lat="43.98652" lon="6.50525">
        <ele>933.58</ele>
        <time>2013-05-27T15:22:37Z</time>
      </trkpt>
      <trkpt lat="43.98585" lon="6.50569">
        <ele>932.62</ele>
        <time>2013-05-27T15:23:01Z</time>
      </trkpt>
      <trkpt lat="43.98546" lon="6.50591">
        <ele>931.65</ele>
        <time>2013-05-27T15:23:10Z</time>
      </trkpt>
      <trkpt lat="43.98457" lon="6.50638">
        <ele>930.21</ele>
        <time>2013-05-27T15:23:30Z</time>
      </trkpt>
      <trkpt lat="43.98283" lon="6.50681">
        <ele>926.85</ele>
        <time>2013-05-27T15:24:04Z</time>
      </trkpt>
      <trkpt lat="43.98236" lon="6.50708">
        <ele>925.89</ele>
        <time>2013-05-27T15:24:15Z</time>
      </trkpt>
      <trkpt lat="43.98239" lon="6.50708">
        <ele>925.89</ele>
        <time>2013-05-27T15:24:17Z</time>
      </trkpt>
      <trkpt lat="43.98251" lon="6.50702">
        <ele>925.89</ele>
        <time>2013-05-27T15:24:51Z</time>
      </trkpt>
      <trkpt lat="43.98249" lon="6.50703">
        <ele>925.89</ele>
        <time>2013-05-27T15:24:52Z</time>
      </trkpt>
      <trkpt lat="43.98227" lon="6.50711">
        <ele>925.89</ele>
        <time>2013-05-27T15:25:00Z</time>
      </trkpt>
      <trkpt lat="43.98175" lon="6.50749">
        <ele>924.45</ele>
        <time>2013-05-27T15:25:13Z</time>
      </trkpt>
      <trkpt lat="43.98147" lon="6.50741">
        <ele>923.48</ele>
        <time>2013-05-27T15:25:18Z</time>
      </trkpt>
      <trkpt lat="43.98086" lon="6.50729">
        <ele>923</ele>
        <time>2013-05-27T15:25:29Z</time>
      </trkpt>
      <trkpt lat="43.97987" lon="6.50778">
        <ele>920.6</ele>
        <time>2013-05-27T15:25:48Z</time>
      </trkpt>
      <trkpt lat="43.97969" lon="6.50783">
        <ele>920.6</ele>
        <time>2013-05-27T15:25:51Z</time>
      </trkpt>
      <trkpt lat="43.97881" lon="6.50802">
        <ele>921.08</ele>
        <time>2013-05-27T15:26:08Z</time>
      </trkpt>
      <trkpt lat="43.97812" lon="6.50836">
        <ele>921.08</ele>
        <time>2013-05-27T15:26:26Z</time>
      </trkpt>
      <trkpt lat="43.97685" lon="6.50876">
        <ele>918.2</ele>
        <time>2013-05-27T15:26:54Z</time>
      </trkpt>
      <trkpt lat="43.97663" lon="6.50888">
        <ele>918.68</ele>
        <time>2013-05-27T15:27:00Z</time>
      </trkpt>
      <trkpt lat="43.97614" lon="6.50915">
        <ele>919.16</ele>
        <time>2013-05-27T15:27:14Z</time>
      </trkpt>
      <trkpt lat="43.97522" lon="6.50894">
        <ele>918.2</ele>
        <time>2013-05-27T15:27:50Z</time>
      </trkpt>
      <trkpt lat="43.97397" lon="6.50848">
        <ele>917.72</ele>
        <time>2013-05-27T15:28:25Z</time>
      </trkpt>
      <trkpt lat="43.97353" lon="6.5087">
        <ele>917.24</ele>
        <time>2013-05-27T15:28:37Z</time>
      </trkpt>
      <trkpt lat="43.97335" lon="6.50929">
        <ele>916.27</ele>
        <time>2013-05-27T15:28:48Z</time>
      </trkpt>
      <trkpt lat="43.97306" lon="6.50943">
        <ele>914.83</ele>
        <time>2013-05-27T15:28:55Z</time>
      </trkpt>
      <trkpt lat="43.97279" lon="6.5092">
        <ele>911.47</ele>
        <time>2013-05-27T15:29:02Z</time>
      </trkpt>
      <trkpt lat="43.97283" lon="6.50923">
        <ele>911.95</ele>
        <time>2013-05-27T15:29:15Z</time>
      </trkpt>
      <trkpt lat="43.97263" lon="6.50918">
        <ele>911.47</ele>
        <time>2013-05-27T15:29:23Z</time>
      </trkpt>
      <trkpt lat="43.97218" lon="6.50942">
        <ele>910.99</ele>
        <time>2013-05-27T15:29:35Z</time>
      </trkpt>
      <trkpt lat="43.97176" lon="6.50999">
        <ele>907.62</ele>
        <time>2013-05-27T15:29:46Z</time>
      </trkpt>
      <trkpt lat="43.97171" lon="6.51011">
        <ele>908.1</ele>
        <time>2013-05-27T15:29:48Z</time>
      </trkpt>
      <trkpt lat="43.97108" lon="6.51067">
        <ele>905.22</ele>
        <time>2013-05-27T15:30:02Z</time>
      </trkpt>
      <trkpt lat="43.97102" lon="6.5107">
        <ele>905.7</ele>
        <time>2013-05-27T15:30:03Z</time>
      </trkpt>
      <trkpt lat="43.97048" lon="6.5108">
        <ele>903.3</ele>
        <time>2013-05-27T15:30:21Z</time>
      </trkpt>
      <trkpt lat="43.9704" lon="6.51081">
        <ele>903.3</ele>
        <time>2013-05-27T15:30:32Z</time>
      </trkpt>
      <trkpt lat="43.97" lon="6.51087">
        <ele>902.33</ele>
        <time>2013-05-27T15:30:54Z</time>
      </trkpt>
      <trkpt lat="43.96975" lon="6.51089">
        <ele>902.33</ele>
        <time>2013-05-27T15:31:25Z</time>
      </trkpt>
      <trkpt lat="43.96973" lon="6.51088">
        <ele>902.82</ele>
        <time>2013-05-27T15:31:39Z</time>
      </trkpt>
      <trkpt lat="43.96943" lon="6.51073">
        <ele>902.82</ele>
        <time>2013-05-27T15:31:58Z</time>
      </trkpt>
      <trkpt lat="43.96965" lon="6.51092">
        <ele>902.33</ele>
        <time>2013-05-27T15:32:13Z</time>
      </trkpt>
      <trkpt lat="43.96968" lon="6.51089">
        <ele>902.82</ele>
        <time>2013-05-27T15:32:41Z</time>
      </trkpt>
      <trkpt lat="43.96924" lon="6.51059">
        <ele>902.33</ele>
        <time>2013-05-27T15:32:59Z</time>
      </trkpt>
      <trkpt lat="43.96885" lon="6.51015">
        <ele>901.37</ele>
        <time>2013-05-27T15:33:12Z</time>
      </trkpt>
      <trkpt lat="43.96774" lon="6.50931">
        <ele>899.93</ele>
        <time>2013-05-27T15:33:45Z</time>
      </trkpt>
      <trkpt lat="43.96733" lon="6.50904">
        <ele>898.49</ele>
        <time>2013-05-27T15:34:08Z</time>
      </trkpt>
      <trkpt lat="43.96749" lon="6.50911">
        <ele>898.49</ele>
        <time>2013-05-27T15:34:17Z</time>
      </trkpt>
      <trkpt lat="43.96753" lon="6.50906">
        <ele>898.49</ele>
        <time>2013-05-27T15:34:28Z</time>
      </trkpt>
      <trkpt lat="43.96717" lon="6.50878">
        <ele>898.49</ele>
        <time>2013-05-27T15:34:49Z</time>
      </trkpt>
      <trkpt lat="43.96692" lon="6.50799">
        <ele>899.93</ele>
        <time>2013-05-27T15:35:24Z</time>
      </trkpt>
      <trkpt lat="43.9671" lon="6.5073">
        <ele>901.37</ele>
        <time>2013-05-27T15:35:45Z</time>
      </trkpt>
      <trkpt lat="43.96676" lon="6.50694">
        <ele>901.37</ele>
        <time>2013-05-27T15:36:03Z</time>
      </trkpt>
      <trkpt lat="43.96657" lon="6.50686">
        <ele>901.37</ele>
        <time>2013-05-27T15:36:19Z</time>
      </trkpt>
      <trkpt lat="43.96659" lon="6.50658">
        <ele>902.33</ele>
        <time>2013-05-27T15:36:41Z</time>
      </trkpt>
      <trkpt lat="43.96667" lon="6.50668">
        <ele>901.37</ele>
        <time>2013-05-27T15:40:16Z</time>
      </trkpt>
      <trkpt lat="43.96665" lon="6.50672">
        <ele>900.89</ele>
        <time>2013-05-27T15:43:09Z</time>
      </trkpt>
      <trkpt lat="43.96673" lon="6.50695">
        <ele>900.89</ele>
        <time>2013-05-27T15:43:18Z</time>
      </trkpt>
      <trkpt lat="43.96719" lon="6.50725">
        <ele>900.89</ele>
        <time>2013-05-27T15:43:42Z</time>
      </trkpt>
      <trkpt lat="43.96705" lon="6.50759">
        <ele>899.45</ele>
        <time>2013-05-27T15:43:51Z</time>
      </trkpt>
      <trkpt lat="43.96703" lon="6.50765">
        <ele>899.45</ele>
        <time>2013-05-27T15:43:52Z</time>
      </trkpt>
      <trkpt lat="43.96702" lon="6.50771">
        <ele>898.97</ele>
        <time>2013-05-27T15:43:53Z</time>
      </trkpt>
      <trkpt lat="43.9671" lon="6.50833">
        <ele>898.01</ele>
        <time>2013-05-27T15:44:03Z</time>
      </trkpt>
      <trkpt lat="43.96723" lon="6.50847">
        <ele>898.01</ele>
        <time>2013-05-27T15:44:07Z</time>
      </trkpt>
      <trkpt lat="43.96743" lon="6.5089">
        <ele>896.09</ele>
        <time>2013-05-27T15:44:18Z</time>
      </trkpt>
      <trkpt lat="43.96742" lon="6.50892">
        <ele>896.57</ele>
        <time>2013-05-27T15:48:25Z</time>
      </trkpt>
      <trkpt lat="43.96736" lon="6.50884">
        <ele>897.53</ele>
        <time>2013-05-27T16:07:43Z</time>
      </trkpt>
      <trkpt lat="43.96737" lon="6.5088">
        <ele>895.61</ele>
        <time>2013-05-27T16:10:09Z</time>
      </trkpt>
      <trkpt lat="43.96739" lon="6.50874">
        <ele>894.16</ele>
        <time>2013-05-27T16:34:41Z</time>
      </trkpt>
      <trkpt lat="43.96739" lon="6.50874">
        <ele>894.64</ele>
        <time>2013-05-27T16:34:42Z</time>
      </trkpt>
      <trkpt lat="43.96739" lon="6.50874">
        <ele>892.72</ele>
        <time>2013-05-27T16:37:02Z</time>
      </trkpt>
      <trkpt lat="43.96239" lon="6.50648">
        <ele>890.32</ele>
        <time>2013-05-27T16:37:24Z</time>
      </trkpt>
      <trkpt lat="43.96173" lon="6.50641">
        <ele>888.88</ele>
        <time>2013-05-27T16:37:35Z</time>
      </trkpt>
      <trkpt lat="43.96126" lon="6.50632">
        <ele>889.36</ele>
        <time>2013-05-27T16:37:45Z</time>
      </trkpt>
      <trkpt lat="43.96053" lon="6.50625">
        <ele>888.88</ele>
        <time>2013-05-27T16:38:04Z</time>
      </trkpt>
      <trkpt lat="43.9587" lon="6.50607">
        <ele>890.32</ele>
        <time>2013-05-27T16:39:03Z</time>
      </trkpt>
      <trkpt lat="43.9587" lon="6.50601">
        <ele>891.76</ele>
        <time>2013-05-27T16:39:33Z</time>
      </trkpt>
      <trkpt lat="43.95877" lon="6.50599">
        <ele>892.24</ele>
        <time>2013-05-27T16:40:04Z</time>
      </trkpt>
      <trkpt lat="43.95876" lon="6.50578">
        <ele>891.76</ele>
        <time>2013-05-27T16:40:41Z</time>
      </trkpt>
      <trkpt lat="43.95856" lon="6.50578">
        <ele>891.76</ele>
        <time>2013-05-27T16:41:15Z</time>
      </trkpt>
      <trkpt lat="43.95869" lon="6.50565">
        <ele>891.28</ele>
        <time>2013-05-27T16:41:35Z</time>
      </trkpt>
      <trkpt lat="43.95869" lon="6.50564">
        <ele>885.03</ele>
        <time>2013-05-28T08:43:21Z</time>
      </trkpt>
      <trkpt lat="43.95869" lon="6.50564">
        <ele>920.12</ele>
        <time>2013-05-28T08:43:22Z</time>
      </trkpt>
      <trkpt lat="43.95869" lon="6.50564">
        <ele>923</ele>
        <time>2013-05-28T08:45:30Z</time>
      </trkpt>
      <trkpt lat="43.95798" lon="6.50641">
        <ele>923</ele>
        <time>2013-05-28T08:45:34Z</time>
      </trkpt>
      <trkpt lat="43.95791" lon="6.50641">
        <ele>923.48</ele>
        <time>2013-05-28T08:45:38Z</time>
      </trkpt>
      <trkpt lat="43.95745" lon="6.50659">
        <ele>927.33</ele>
        <time>2013-05-28T08:46:04Z</time>
      </trkpt>
      <trkpt lat="43.95711" lon="6.5067">
        <ele>931.17</ele>
        <time>2013-05-28T08:46:21Z</time>
      </trkpt>
      <trkpt lat="43.95631" lon="6.50717">
        <ele>936.94</ele>
        <time>2013-05-28T08:47:02Z</time>
      </trkpt>
      <trkpt lat="43.95577" lon="6.50773">
        <ele>942.71</ele>
        <time>2013-05-28T08:47:37Z</time>
      </trkpt>
      <trkpt lat="43.95575" lon="6.50774">
        <ele>942.71</ele>
        <time>2013-05-28T08:47:38Z</time>
      </trkpt>
      <trkpt lat="43.95529" lon="6.50803">
        <ele>947.04</ele>
        <time>2013-05-28T08:48:03Z</time>
      </trkpt>
      <trkpt lat="43.95458" lon="6.50815">
        <ele>950.88</ele>
        <time>2013-05-28T08:48:37Z</time>
      </trkpt>
      <trkpt lat="43.95448" lon="6.50768">
        <ele>954.73</ele>
        <time>2013-05-28T08:48:55Z</time>
      </trkpt>
      <trkpt lat="43.95416" lon="6.50781">
        <ele>956.17</ele>
        <time>2013-05-28T08:49:10Z</time>
      </trkpt>
      <trkpt lat="43.95414" lon="6.50801">
        <ele>956.65</ele>
        <time>2013-05-28T08:49:32Z</time>
      </trkpt>
      <trkpt lat="43.95414" lon="6.508">
        <ele>951.36</ele>
        <time>2013-05-28T08:49:34Z</time>
      </trkpt>
      <trkpt lat="43.95414" lon="6.508">
        <ele>946.07</ele>
        <time>2013-05-28T08:49:36Z</time>
      </trkpt>
      <trkpt lat="43.95414" lon="6.508">
        <ele>941.27</ele>
        <time>2013-05-28T08:49:38Z</time>
      </trkpt>
      <trkpt lat="43.95414" lon="6.508">
        <ele>935.5</ele>
        <time>2013-05-28T08:49:40Z</time>
      </trkpt>
      <trkpt lat="43.95414" lon="6.50805">
        <ele>930.69</ele>
        <time>2013-05-28T08:49:43Z</time>
      </trkpt>
      <trkpt lat="43.95412" lon="6.50812">
        <ele>925.89</ele>
        <time>2013-05-28T08:49:46Z</time>
      </trkpt>
      <trkpt lat="43.9541" lon="6.50817">
        <ele>922.04</ele>
        <time>2013-05-28T08:49:48Z</time>
      </trkpt>
      <trkpt lat="43.95407" lon="6.50823">
        <ele>917.72</ele>
        <time>2013-05-28T08:49:51Z</time>
      </trkpt>
      <trkpt lat="43.95402" lon="6.50829">
        <ele>914.35</ele>
        <time>2013-05-28T08:49:54Z</time>
      </trkpt>
      <trkpt lat="43.9536" lon="6.50856">
        <ele>915.31</ele>
        <time>2013-05-28T08:50:16Z</time>
      </trkpt>
      <trkpt lat="43.95359" lon="6.50817">
        <ele>914.35</ele>
        <time>2013-05-28T08:50:43Z</time>
      </trkpt>
      <trkpt lat="43.95338" lon="6.50809">
        <ele>919.64</ele>
        <time>2013-05-28T08:51:15Z</time>
      </trkpt>
      <trkpt lat="43.95313" lon="6.5085">
        <ele>923</ele>
        <time>2013-05-28T08:51:32Z</time>
      </trkpt>
      <trkpt lat="43.95313" lon="6.50795">
        <ele>927.81</ele>
        <time>2013-05-28T08:52:00Z</time>
      </trkpt>
      <trkpt lat="43.95266" lon="6.50788">
        <ele>933.1</ele>
        <time>2013-05-28T08:52:29Z</time>
      </trkpt>
      <trkpt lat="43.95257" lon="6.50829">
        <ele>936.94</ele>
        <time>2013-05-28T08:52:44Z</time>
      </trkpt>
      <trkpt lat="43.95236" lon="6.50827">
        <ele>938.86</ele>
        <time>2013-05-28T08:53:00Z</time>
      </trkpt>
      <trkpt lat="43.95253" lon="6.50714">
        <ele>943.67</ele>
        <time>2013-05-28T08:53:36Z</time>
      </trkpt>
      <trkpt lat="43.95263" lon="6.50696">
        <ele>945.11</ele>
        <time>2013-05-28T08:53:43Z</time>
      </trkpt>
      <trkpt lat="43.95264" lon="6.50693">
        <ele>944.63</ele>
        <time>2013-05-28T08:53:44Z</time>
      </trkpt>
      <trkpt lat="43.95251" lon="6.50685">
        <ele>946.56</ele>
        <time>2013-05-28T08:53:55Z</time>
      </trkpt>
      <trkpt lat="43.95224" lon="6.50737">
        <ele>950.4</ele>
        <time>2013-05-28T08:54:15Z</time>
      </trkpt>
      <trkpt lat="43.95195" lon="6.50771">
        <ele>953.28</ele>
        <time>2013-05-28T08:54:33Z</time>
      </trkpt>
      <trkpt lat="43.95172" lon="6.50799">
        <ele>957.13</ele>
        <time>2013-05-28T08:54:48Z</time>
      </trkpt>
      <trkpt lat="43.95122" lon="6.5083">
        <ele>961.46</ele>
        <time>2013-05-28T08:55:42Z</time>
      </trkpt>
      <trkpt lat="43.95101" lon="6.50818">
        <ele>963.38</ele>
        <time>2013-05-28T08:56:07Z</time>
      </trkpt>
      <trkpt lat="43.95043" lon="6.50792">
        <ele>968.67</ele>
        <time>2013-05-28T08:56:56Z</time>
      </trkpt>
      <trkpt lat="43.9502" lon="6.50778">
        <ele>970.59</ele>
        <time>2013-05-28T08:57:31Z</time>
      </trkpt>
      <trkpt lat="43.94995" lon="6.50758">
        <ele>974.91</ele>
        <time>2013-05-28T08:57:52Z</time>
      </trkpt>
      <trkpt lat="43.95022" lon="6.50758">
        <ele>975.88</ele>
        <time>2013-05-28T08:58:12Z</time>
      </trkpt>
      <trkpt lat="43.95092" lon="6.50727">
        <ele>981.16</ele>
        <time>2013-05-28T08:58:47Z</time>
      </trkpt>
      <trkpt lat="43.95123" lon="6.50682">
        <ele>984.53</ele>
        <time>2013-05-28T08:59:04Z</time>
      </trkpt>
      <trkpt lat="43.95125" lon="6.50681">
        <ele>984.53</ele>
        <time>2013-05-28T08:59:05Z</time>
      </trkpt>
      <trkpt lat="43.9517" lon="6.50648">
        <ele>987.89</ele>
        <time>2013-05-28T08:59:26Z</time>
      </trkpt>
      <trkpt lat="43.95157" lon="6.50636">
        <ele>990.78</ele>
        <time>2013-05-28T08:59:37Z</time>
      </trkpt>
      <trkpt lat="43.9511" lon="6.50665">
        <ele>994.62</ele>
        <time>2013-05-28T08:59:58Z</time>
      </trkpt>
      <trkpt lat="43.95075" lon="6.5068">
        <ele>997.99</ele>
        <time>2013-05-28T09:00:14Z</time>
      </trkpt>
      <trkpt lat="43.95073" lon="6.50682">
        <ele>997.99</ele>
        <time>2013-05-28T09:00:15Z</time>
      </trkpt>
      <trkpt lat="43.95003" lon="6.50689">
        <ele>1003.75</ele>
        <time>2013-05-28T09:00:47Z</time>
      </trkpt>
      <trkpt lat="43.9497" lon="6.50708">
        <ele>1005.68</ele>
        <time>2013-05-28T09:01:01Z</time>
      </trkpt>
      <trkpt lat="43.94937" lon="6.50724">
        <ele>1009.04</ele>
        <time>2013-05-28T09:01:16Z</time>
      </trkpt>
      <trkpt lat="43.94909" lon="6.50736">
        <ele>1012.41</ele>
        <time>2013-05-28T09:01:30Z</time>
      </trkpt>
      <trkpt lat="43.94906" lon="6.50739">
        <ele>1012.41</ele>
        <time>2013-05-28T09:01:32Z</time>
      </trkpt>
      <trkpt lat="43.94899" lon="6.50711">
        <ele>1015.29</ele>
        <time>2013-05-28T09:01:50Z</time>
      </trkpt>
      <trkpt lat="43.94957" lon="6.50662">
        <ele>1021.54</ele>
        <time>2013-05-28T09:02:23Z</time>
      </trkpt>
      <trkpt lat="43.94946" lon="6.50645">
        <ele>1025.86</ele>
        <time>2013-05-28T09:02:44Z</time>
      </trkpt>
      <trkpt lat="43.94882" lon="6.50669">
        <ele>1029.71</ele>
        <time>2013-05-28T09:03:13Z</time>
      </trkpt>
      <trkpt lat="43.94855" lon="6.50683">
        <ele>1033.07</ele>
        <time>2013-05-28T09:03:28Z</time>
      </trkpt>
      <trkpt lat="43.94818" lon="6.50712">
        <ele>1037.4</ele>
        <time>2013-05-28T09:03:52Z</time>
      </trkpt>
      <trkpt lat="43.94785" lon="6.50743">
        <ele>1040.76</ele>
        <time>2013-05-28T09:04:11Z</time>
      </trkpt>
      <trkpt lat="43.94754" lon="6.50756">
        <ele>1044.13</ele>
        <time>2013-05-28T09:04:27Z</time>
      </trkpt>
      <trkpt lat="43.94705" lon="6.5073">
        <ele>1046.05</ele>
        <time>2013-05-28T09:04:49Z</time>
      </trkpt>
      <trkpt lat="43.94613" lon="6.507">
        <ele>1047.97</ele>
        <time>2013-05-28T09:05:16Z</time>
      </trkpt>
      <trkpt lat="43.94444" lon="6.50592">
        <ele>1056.63</ele>
        <time>2013-05-28T09:06:20Z</time>
      </trkpt>
      <trkpt lat="43.94442" lon="6.5059">
        <ele>1056.63</ele>
        <time>2013-05-28T09:06:21Z</time>
      </trkpt>
      <trkpt lat="43.9441" lon="6.50553">
        <ele>1059.99</ele>
        <time>2013-05-28T09:06:38Z</time>
      </trkpt>
      <trkpt lat="43.9434" lon="6.50497">
        <ele>1064.32</ele>
        <time>2013-05-28T09:07:15Z</time>
      </trkpt>
      <trkpt lat="43.94278" lon="6.50467">
        <ele>1070.57</ele>
        <time>2013-05-28T09:07:48Z</time>
      </trkpt>
      <trkpt lat="43.9419" lon="6.50456">
        <ele>1074.89</ele>
        <time>2013-05-28T09:08:27Z</time>
      </trkpt>
      <trkpt lat="43.94166" lon="6.50443">
        <ele>1076.33</ele>
        <time>2013-05-28T09:08:38Z</time>
      </trkpt>
      <trkpt lat="43.94107" lon="6.50418">
        <ele>1080.18</ele>
        <time>2013-05-28T09:09:06Z</time>
      </trkpt>
      <trkpt lat="43.94047" lon="6.50372">
        <ele>1084.5</ele>
        <time>2013-05-28T09:09:39Z</time>
      </trkpt>
      <trkpt lat="43.93992" lon="6.50345">
        <ele>1090.27</ele>
        <time>2013-05-28T09:10:21Z</time>
      </trkpt>
      <trkpt lat="43.93973" lon="6.50314">
        <ele>1098.44</ele>
        <time>2013-05-28T09:11:12Z</time>
      </trkpt>
      <trkpt lat="43.94034" lon="6.50262">
        <ele>1103.73</ele>
        <time>2013-05-28T09:11:46Z</time>
      </trkpt>
      <trkpt lat="43.94041" lon="6.50213">
        <ele>1107.1</ele>
        <time>2013-05-28T09:12:04Z</time>
      </trkpt>
      <trkpt lat="43.94015" lon="6.50221">
        <ele>1108.54</ele>
        <time>2013-05-28T09:12:17Z</time>
      </trkpt>
      <trkpt lat="43.93977" lon="6.50235">
        <ele>1110.46</ele>
        <time>2013-05-28T09:12:35Z</time>
      </trkpt>
      <trkpt lat="43.93976" lon="6.50233">
        <ele>1110.46</ele>
        <time>2013-05-28T09:12:36Z</time>
      </trkpt>
      <trkpt lat="43.93981" lon="6.50212">
        <ele>1112.38</ele>
        <time>2013-05-28T09:12:44Z</time>
      </trkpt>
      <trkpt lat="43.94012" lon="6.50169">
        <ele>1117.19</ele>
        <time>2013-05-28T09:13:06Z</time>
      </trkpt>
      <trkpt lat="43.94016" lon="6.50128">
        <ele>1120.55</ele>
        <time>2013-05-28T09:13:30Z</time>
      </trkpt>
      <trkpt lat="43.93956" lon="6.50159">
        <ele>1127.28</ele>
        <time>2013-05-28T09:14:06Z</time>
      </trkpt>
      <trkpt lat="43.93941" lon="6.50147">
        <ele>1127.76</ele>
        <time>2013-05-28T09:14:18Z</time>
      </trkpt>
      <trkpt lat="43.93979" lon="6.50142">
        <ele>1131.61</ele>
        <time>2013-05-28T09:14:40Z</time>
      </trkpt>
      <trkpt lat="43.9399" lon="6.50133">
        <ele>1133.05</ele>
        <time>2013-05-28T09:15:05Z</time>
      </trkpt>
      <trkpt lat="43.94005" lon="6.50088">
        <ele>1136.42</ele>
        <time>2013-05-28T09:15:22Z</time>
      </trkpt>
      <trkpt lat="43.94021" lon="6.50014">
        <ele>1141.22</ele>
        <time>2013-05-28T09:15:51Z</time>
      </trkpt>
      <trkpt lat="43.94029" lon="6.49969">
        <ele>1145.55</ele>
        <time>2013-05-28T09:16:09Z</time>
      </trkpt>
      <trkpt lat="43.9403" lon="6.49966">
        <ele>1145.55</ele>
        <time>2013-05-28T09:16:10Z</time>
      </trkpt>
      <trkpt lat="43.94019" lon="6.49939">
        <ele>1151.8</ele>
        <time>2013-05-28T09:16:52Z</time>
      </trkpt>
      <trkpt lat="43.93954" lon="6.49968">
        <ele>1158.05</ele>
        <time>2013-05-28T09:17:30Z</time>
      </trkpt>
      <trkpt lat="43.93922" lon="6.49943">
        <ele>1161.41</ele>
        <time>2013-05-28T09:17:49Z</time>
      </trkpt>
      <trkpt lat="43.93891" lon="6.49917">
        <ele>1164.29</ele>
        <time>2013-05-28T09:18:08Z</time>
      </trkpt>
      <trkpt lat="43.93876" lon="6.49851">
        <ele>1168.62</ele>
        <time>2013-05-28T09:18:38Z</time>
      </trkpt>
      <trkpt lat="43.93886" lon="6.49775">
        <ele>1172.47</ele>
        <time>2013-05-28T09:19:10Z</time>
      </trkpt>
      <trkpt lat="43.9384" lon="6.49771">
        <ele>1175.83</ele>
        <time>2013-05-28T09:19:34Z</time>
      </trkpt>
      <trkpt lat="43.9381" lon="6.49784">
        <ele>1179.19</ele>
        <time>2013-05-28T09:19:50Z</time>
      </trkpt>
      <trkpt lat="43.93779" lon="6.49777">
        <ele>1182.56</ele>
        <time>2013-05-28T09:20:07Z</time>
      </trkpt>
      <trkpt lat="43.9377" lon="6.49801">
        <ele>1184.48</ele>
        <time>2013-05-28T09:20:32Z</time>
      </trkpt>
      <trkpt lat="43.93788" lon="6.49857">
        <ele>1188.33</ele>
        <time>2013-05-28T09:21:00Z</time>
      </trkpt>
      <trkpt lat="43.93771" lon="6.49869">
        <ele>1188.33</ele>
        <time>2013-05-28T09:21:15Z</time>
      </trkpt>
      <trkpt lat="43.93749" lon="6.4988">
        <ele>1191.69</ele>
        <time>2013-05-28T09:21:39Z</time>
      </trkpt>
      <trkpt lat="43.93707" lon="6.49907">
        <ele>1195.06</ele>
        <time>2013-05-28T09:22:00Z</time>
      </trkpt>
      <trkpt lat="43.93649" lon="6.49941">
        <ele>1199.86</ele>
        <time>2013-05-28T09:22:28Z</time>
      </trkpt>
      <trkpt lat="43.936" lon="6.49986">
        <ele>1204.19</ele>
        <time>2013-05-28T09:22:55Z</time>
      </trkpt>
      <trkpt lat="43.93604" lon="6.49956">
        <ele>1205.63</ele>
        <time>2013-05-28T09:23:09Z</time>
      </trkpt>
      <trkpt lat="43.93653" lon="6.49881">
        <ele>1212.36</ele>
        <time>2013-05-28T09:23:41Z</time>
      </trkpt>
      <trkpt lat="43.93647" lon="6.49845">
        <ele>1215.24</ele>
        <time>2013-05-28T09:24:04Z</time>
      </trkpt>
      <trkpt lat="43.93586" lon="6.49906">
        <ele>1220.53</ele>
        <time>2013-05-28T09:24:40Z</time>
      </trkpt>
      <trkpt lat="43.93586" lon="6.49907">
        <ele>1221.01</ele>
        <time>2013-05-28T09:25:04Z</time>
      </trkpt>
      <trkpt lat="43.93532" lon="6.49962">
        <ele>1226.78</ele>
        <time>2013-05-28T09:25:48Z</time>
      </trkpt>
      <trkpt lat="43.93467" lon="6.50007">
        <ele>1232.07</ele>
        <time>2013-05-28T09:26:20Z</time>
      </trkpt>
      <trkpt lat="43.93421" lon="6.50034">
        <ele>1236.87</ele>
        <time>2013-05-28T09:26:54Z</time>
      </trkpt>
      <trkpt lat="43.93439" lon="6.49984">
        <ele>1240.24</ele>
        <time>2013-05-28T09:27:14Z</time>
      </trkpt>
      <trkpt lat="43.93461" lon="6.49945">
        <ele>1243.6</ele>
        <time>2013-05-28T09:27:32Z</time>
      </trkpt>
      <trkpt lat="43.93419" lon="6.49897">
        <ele>1248.89</ele>
        <time>2013-05-28T09:28:08Z</time>
      </trkpt>
      <trkpt lat="43.93384" lon="6.49979">
        <ele>1254.66</ele>
        <time>2013-05-28T09:28:42Z</time>
      </trkpt>
      <trkpt lat="43.93372" lon="6.50017">
        <ele>1258.02</ele>
        <time>2013-05-28T09:28:57Z</time>
      </trkpt>
      <trkpt lat="43.93358" lon="6.50065">
        <ele>1261.39</ele>
        <time>2013-05-28T09:29:16Z</time>
      </trkpt>
      <trkpt lat="43.93346" lon="6.50114">
        <ele>1264.75</ele>
        <time>2013-05-28T09:29:36Z</time>
      </trkpt>
      <trkpt lat="43.9338" lon="6.50175">
        <ele>1267.64</ele>
        <time>2013-05-28T09:30:02Z</time>
      </trkpt>
      <trkpt lat="43.93324" lon="6.50164">
        <ele>1271.96</ele>
        <time>2013-05-28T09:30:30Z</time>
      </trkpt>
      <trkpt lat="43.93278" lon="6.50152">
        <ele>1276.29</ele>
        <time>2013-05-28T09:31:01Z</time>
      </trkpt>
      <trkpt lat="43.93284" lon="6.50066">
        <ele>1282.06</ele>
        <time>2013-05-28T09:31:34Z</time>
      </trkpt>
      <trkpt lat="43.93251" lon="6.49986">
        <ele>1286.86</ele>
        <time>2013-05-28T09:32:08Z</time>
      </trkpt>
      <trkpt lat="43.93232" lon="6.4995">
        <ele>1289.27</ele>
        <time>2013-05-28T09:32:25Z</time>
      </trkpt>
      <trkpt lat="43.93222" lon="6.49931">
        <ele>1290.71</ele>
        <time>2013-05-28T09:32:34Z</time>
      </trkpt>
      <trkpt lat="43.93217" lon="6.49929">
        <ele>1290.71</ele>
        <time>2013-05-28T09:32:39Z</time>
      </trkpt>
      <trkpt lat="43.93212" lon="6.4995">
        <ele>1292.15</ele>
        <time>2013-05-28T09:32:49Z</time>
      </trkpt>
      <trkpt lat="43.93225" lon="6.49996">
        <ele>1294.07</ele>
        <time>2013-05-28T09:33:05Z</time>
      </trkpt>
      <trkpt lat="43.93206" lon="6.50069">
        <ele>1298.88</ele>
        <time>2013-05-28T09:33:30Z</time>
      </trkpt>
      <trkpt lat="43.93189" lon="6.50166">
        <ele>1305.13</ele>
        <time>2013-05-28T09:34:08Z</time>
      </trkpt>
      <trkpt lat="43.93179" lon="6.50122">
        <ele>1308.49</ele>
        <time>2013-05-28T09:34:23Z</time>
      </trkpt>
      <trkpt lat="43.93172" lon="6.50111">
        <ele>1308.49</ele>
        <time>2013-05-28T09:34:28Z</time>
      </trkpt>
      <trkpt lat="43.93129" lon="6.50172">
        <ele>1311.38</ele>
        <time>2013-05-28T09:34:53Z</time>
      </trkpt>
      <trkpt lat="43.93083" lon="6.5026">
        <ele>1307.53</ele>
        <time>2013-05-28T09:35:10Z</time>
      </trkpt>
      <trkpt lat="43.93069" lon="6.50352">
        <ele>1308.97</ele>
        <time>2013-05-28T09:35:24Z</time>
      </trkpt>
      <trkpt lat="43.92992" lon="6.50455">
        <ele>1303.2</ele>
        <time>2013-05-28T09:35:44Z</time>
      </trkpt>
      <trkpt lat="43.92861" lon="6.5054">
        <ele>1300.8</ele>
        <time>2013-05-28T09:36:06Z</time>
      </trkpt>
      <trkpt lat="43.92843" lon="6.5055">
        <ele>1300.8</ele>
        <time>2013-05-28T09:36:09Z</time>
      </trkpt>
      <trkpt lat="43.92831" lon="6.5056">
        <ele>1297.92</ele>
        <time>2013-05-28T09:36:11Z</time>
      </trkpt>
      <trkpt lat="43.92789" lon="6.50595">
        <ele>1294.55</ele>
        <time>2013-05-28T09:36:18Z</time>
      </trkpt>
      <trkpt lat="43.92784" lon="6.50601">
        <ele>1294.55</ele>
        <time>2013-05-28T09:36:19Z</time>
      </trkpt>
      <trkpt lat="43.92728" lon="6.50657">
        <ele>1292.15</ele>
        <time>2013-05-28T09:36:29Z</time>
      </trkpt>
      <trkpt lat="43.92705" lon="6.50667">
        <ele>1288.78</ele>
        <time>2013-05-28T09:36:32Z</time>
      </trkpt>
      <trkpt lat="43.92675" lon="6.50687">
        <ele>1287.82</ele>
        <time>2013-05-28T09:36:36Z</time>
      </trkpt>
      <trkpt lat="43.92659" lon="6.5074">
        <ele>1283.98</ele>
        <time>2013-05-28T09:36:41Z</time>
      </trkpt>
      <trkpt lat="43.92656" lon="6.50774">
        <ele>1282.54</ele>
        <time>2013-05-28T09:36:44Z</time>
      </trkpt>
      <trkpt lat="43.92654" lon="6.50784">
        <ele>1282.54</ele>
        <time>2013-05-28T09:36:45Z</time>
      </trkpt>
      <trkpt lat="43.92623" lon="6.50839">
        <ele>1281.57</ele>
        <time>2013-05-28T09:36:52Z</time>
      </trkpt>
      <trkpt lat="43.92588" lon="6.50848">
        <ele>1281.09</ele>
        <time>2013-05-28T09:36:57Z</time>
      </trkpt>
      <trkpt lat="43.92559" lon="6.50854">
        <ele>1282.06</ele>
        <time>2013-05-28T09:37:09Z</time>
      </trkpt>
      <trkpt lat="43.9256" lon="6.50854">
        <ele>1283.5</ele>
        <time>2013-05-28T09:38:26Z</time>
      </trkpt>
      <trkpt lat="43.92537" lon="6.50864">
        <ele>1282.54</ele>
        <time>2013-05-28T09:38:34Z</time>
      </trkpt>
      <trkpt lat="43.92511" lon="6.50888">
        <ele>1281.57</ele>
        <time>2013-05-28T09:38:39Z</time>
      </trkpt>
      <trkpt lat="43.92474" lon="6.50889">
        <ele>1279.17</ele>
        <time>2013-05-28T09:38:45Z</time>
      </trkpt>
      <trkpt lat="43.92468" lon="6.50892">
        <ele>1279.17</ele>
        <time>2013-05-28T09:38:46Z</time>
      </trkpt>
      <trkpt lat="43.92461" lon="6.50895">
        <ele>1279.17</ele>
        <time>2013-05-28T09:38:47Z</time>
      </trkpt>
      <trkpt lat="43.92341" lon="6.50951">
        <ele>1275.33</ele>
        <time>2013-05-28T09:39:07Z</time>
      </trkpt>
      <trkpt lat="43.92246" lon="6.50989">
        <ele>1279.17</ele>
        <time>2013-05-28T09:39:40Z</time>
      </trkpt>
      <trkpt lat="43.9224" lon="6.50992">
        <ele>1279.17</ele>
        <time>2013-05-28T09:39:55Z</time>
      </trkpt>
      <trkpt lat="43.92233" lon="6.50996">
        <ele>1280.61</ele>
        <time>2013-05-28T09:43:19Z</time>
      </trkpt>
      <trkpt lat="43.9223" lon="6.50997">
        <ele>1280.61</ele>
        <time>2013-05-28T09:43:20Z</time>
      </trkpt>
      <trkpt lat="43.92167" lon="6.51002">
        <ele>1276.77</ele>
        <time>2013-05-28T09:43:40Z</time>
      </trkpt>
      <trkpt lat="43.92152" lon="6.51004">
        <ele>1277.25</ele>
        <time>2013-05-28T09:43:43Z</time>
      </trkpt>
      <trkpt lat="43.92062" lon="6.50955">
        <ele>1271.48</ele>
        <time>2013-05-28T09:44:01Z</time>
      </trkpt>
      <trkpt lat="43.92056" lon="6.50951">
        <ele>1271.48</ele>
        <time>2013-05-28T09:44:02Z</time>
      </trkpt>
      <trkpt lat="43.92019" lon="6.50928">
        <ele>1267.64</ele>
        <time>2013-05-28T09:44:12Z</time>
      </trkpt>
      <trkpt lat="43.92008" lon="6.50918">
        <ele>1268.12</ele>
        <time>2013-05-28T09:44:24Z</time>
      </trkpt>
      <trkpt lat="43.91993" lon="6.50931">
        <ele>1268.12</ele>
        <time>2013-05-28T09:44:45Z</time>
      </trkpt>
      <trkpt lat="43.91974" lon="6.50924">
        <ele>1270.52</ele>
        <time>2013-05-28T09:44:57Z</time>
      </trkpt>
      <trkpt lat="43.9194" lon="6.50892">
        <ele>1271</ele>
        <time>2013-05-28T09:45:13Z</time>
      </trkpt>
      <trkpt lat="43.91867" lon="6.50877">
        <ele>1271.48</ele>
        <time>2013-05-28T09:45:31Z</time>
      </trkpt>
      <trkpt lat="43.9177" lon="6.50878">
        <ele>1269.08</ele>
        <time>2013-05-28T09:45:52Z</time>
      </trkpt>
      <trkpt lat="43.91662" lon="6.50888">
        <ele>1263.31</ele>
        <time>2013-05-28T09:46:13Z</time>
      </trkpt>
      <trkpt lat="43.91652" lon="6.50891">
        <ele>1261.87</ele>
        <time>2013-05-28T09:46:15Z</time>
      </trkpt>
      <trkpt lat="43.91594" lon="6.50923">
        <ele>1262.35</ele>
        <time>2013-05-28T09:46:31Z</time>
      </trkpt>
      <trkpt lat="43.91491" lon="6.50919">
        <ele>1263.79</ele>
        <time>2013-05-28T09:47:00Z</time>
      </trkpt>
      <trkpt lat="43.91423" lon="6.50934">
        <ele>1260.91</ele>
        <time>2013-05-28T09:47:19Z</time>
      </trkpt>
      <trkpt lat="43.91397" lon="6.50943">
        <ele>1257.06</ele>
        <time>2013-05-28T09:47:23Z</time>
      </trkpt>
      <trkpt lat="43.9139" lon="6.50945">
        <ele>1257.06</ele>
        <time>2013-05-28T09:47:24Z</time>
      </trkpt>
      <trkpt lat="43.91356" lon="6.50959">
        <ele>1251.29</ele>
        <time>2013-05-28T09:47:29Z</time>
      </trkpt>
      <trkpt lat="43.91351" lon="6.50961">
        <ele>1251.29</ele>
        <time>2013-05-28T09:47:30Z</time>
      </trkpt>
      <trkpt lat="43.91342" lon="6.50962">
        <ele>1246.97</ele>
        <time>2013-05-28T09:47:33Z</time>
      </trkpt>
      <trkpt lat="43.91323" lon="6.50975">
        <ele>1244.56</ele>
        <time>2013-05-28T09:47:44Z</time>
      </trkpt>
      <trkpt lat="43.91321" lon="6.50977">
        <ele>1244.56</ele>
        <time>2013-05-28T09:47:45Z</time>
      </trkpt>
      <trkpt lat="43.91298" lon="6.50988">
        <ele>1241.2</ele>
        <time>2013-05-28T09:47:54Z</time>
      </trkpt>
      <trkpt lat="43.91278" lon="6.50983">
        <ele>1235.91</ele>
        <time>2013-05-28T09:48:11Z</time>
      </trkpt>
      <trkpt lat="43.91252" lon="6.5095">
        <ele>1230.62</ele>
        <time>2013-05-28T09:48:49Z</time>
      </trkpt>
      <trkpt lat="43.91231" lon="6.50942">
        <ele>1224.86</ele>
        <time>2013-05-28T09:48:59Z</time>
      </trkpt>
      <trkpt lat="43.91202" lon="6.50919">
        <ele>1218.61</ele>
        <time>2013-05-28T09:49:09Z</time>
      </trkpt>
      <trkpt lat="43.9119" lon="6.50909">
        <ele>1213.32</ele>
        <time>2013-05-28T09:49:15Z</time>
      </trkpt>
      <trkpt lat="43.91179" lon="6.50903">
        <ele>1209.48</ele>
        <time>2013-05-28T09:49:19Z</time>
      </trkpt>
      <trkpt lat="43.91169" lon="6.50889">
        <ele>1206.11</ele>
        <time>2013-05-28T09:49:50Z</time>
      </trkpt>
      <trkpt lat="43.9116" lon="6.50889">
        <ele>1202.27</ele>
        <time>2013-05-28T09:50:10Z</time>
      </trkpt>
      <trkpt lat="43.91153" lon="6.50887">
        <ele>1204.67</ele>
        <time>2013-05-28T09:50:28Z</time>
      </trkpt>
      <trkpt lat="43.91155" lon="6.50899">
        <ele>1204.67</ele>
        <time>2013-05-28T09:51:49Z</time>
      </trkpt>
      <trkpt lat="43.91133" lon="6.5094">
        <ele>1206.11</ele>
        <time>2013-05-28T09:52:04Z</time>
      </trkpt>
      <trkpt lat="43.91102" lon="6.50999">
        <ele>1209.48</ele>
        <time>2013-05-28T09:52:39Z</time>
      </trkpt>
      <trkpt lat="43.91094" lon="6.51035">
        <ele>1208.51</ele>
        <time>2013-05-28T09:52:48Z</time>
      </trkpt>
      <trkpt lat="43.91081" lon="6.51078">
        <ele>1204.67</ele>
        <time>2013-05-28T09:52:53Z</time>
      </trkpt>
      <trkpt lat="43.91077" lon="6.51087">
        <ele>1204.67</ele>
        <time>2013-05-28T09:52:54Z</time>
      </trkpt>
      <trkpt lat="43.9105" lon="6.51156">
        <ele>1202.75</ele>
        <time>2013-05-28T09:53:03Z</time>
      </trkpt>
      <trkpt lat="43.9104" lon="6.5123">
        <ele>1199.86</ele>
        <time>2013-05-28T09:53:16Z</time>
      </trkpt>
      <trkpt lat="43.91038" lon="6.51235">
        <ele>1199.86</ele>
        <time>2013-05-28T09:53:17Z</time>
      </trkpt>
      <trkpt lat="43.9101" lon="6.51287">
        <ele>1199.86</ele>
        <time>2013-05-28T09:53:32Z</time>
      </trkpt>
      <trkpt lat="43.9097" lon="6.51321">
        <ele>1200.82</ele>
        <time>2013-05-28T09:55:06Z</time>
      </trkpt>
      <trkpt lat="43.90952" lon="6.51334">
        <ele>1202.27</ele>
        <time>2013-05-28T09:55:14Z</time>
      </trkpt>
      <trkpt lat="43.90938" lon="6.51371">
        <ele>1204.67</ele>
        <time>2013-05-28T09:55:28Z</time>
      </trkpt>
      <trkpt lat="43.90861" lon="6.51482">
        <ele>1207.07</ele>
        <time>2013-05-28T09:56:08Z</time>
      </trkpt>
      <trkpt lat="43.90773" lon="6.51567">
        <ele>1205.63</ele>
        <time>2013-05-28T09:56:43Z</time>
      </trkpt>
      <trkpt lat="43.90732" lon="6.51586">
        <ele>1203.71</ele>
        <time>2013-05-28T09:56:57Z</time>
      </trkpt>
      <trkpt lat="43.90702" lon="6.51594">
        <ele>1201.79</ele>
        <time>2013-05-28T09:57:03Z</time>
      </trkpt>
      <trkpt lat="43.90644" lon="6.51608">
        <ele>1200.34</ele>
        <time>2013-05-28T09:57:18Z</time>
      </trkpt>
      <trkpt lat="43.90641" lon="6.51619">
        <ele>1199.38</ele>
        <time>2013-05-28T09:57:22Z</time>
      </trkpt>
      <trkpt lat="43.90639" lon="6.517">
        <ele>1195.54</ele>
        <time>2013-05-28T09:57:40Z</time>
      </trkpt>
      <trkpt lat="43.90605" lon="6.51769">
        <ele>1191.69</ele>
        <time>2013-05-28T09:57:53Z</time>
      </trkpt>
      <trkpt lat="43.90603" lon="6.51774">
        <ele>1192.17</ele>
        <time>2013-05-28T09:57:54Z</time>
      </trkpt>
      <trkpt lat="43.90557" lon="6.5187">
        <ele>1184.96</ele>
        <time>2013-05-28T09:58:09Z</time>
      </trkpt>
      <trkpt lat="43.90523" lon="6.51976">
        <ele>1182.08</ele>
        <time>2013-05-28T09:58:24Z</time>
      </trkpt>
      <trkpt lat="43.905" lon="6.52073">
        <ele>1177.75</ele>
        <time>2013-05-28T09:58:45Z</time>
      </trkpt>
      <trkpt lat="43.90501" lon="6.52071">
        <ele>1178.71</ele>
        <time>2013-05-28T09:59:13Z</time>
      </trkpt>
      <trkpt lat="43.90503" lon="6.52078">
        <ele>1177.75</ele>
        <time>2013-05-28T10:07:29Z</time>
      </trkpt>
      <trkpt lat="43.90492" lon="6.52125">
        <ele>1171.5</ele>
        <time>2013-05-28T10:07:36Z</time>
      </trkpt>
      <trkpt lat="43.90487" lon="6.52144">
        <ele>1167.66</ele>
        <time>2013-05-28T10:07:41Z</time>
      </trkpt>
      <trkpt lat="43.90487" lon="6.52147">
        <ele>1168.14</ele>
        <time>2013-05-28T10:07:42Z</time>
      </trkpt>
      <trkpt lat="43.90474" lon="6.52156">
        <ele>1163.81</ele>
        <time>2013-05-28T10:07:48Z</time>
      </trkpt>
      <trkpt lat="43.9045" lon="6.52158">
        <ele>1160.45</ele>
        <time>2013-05-28T10:07:55Z</time>
      </trkpt>
      <trkpt lat="43.90438" lon="6.52173">
        <ele>1156.6</ele>
        <time>2013-05-28T10:08:14Z</time>
      </trkpt>
      <trkpt lat="43.9042" lon="6.52185">
        <ele>1157.08</ele>
        <time>2013-05-28T10:08:29Z</time>
      </trkpt>
      <trkpt lat="43.90375" lon="6.52183">
        <ele>1156.12</ele>
        <time>2013-05-28T10:08:43Z</time>
      </trkpt>
      <trkpt lat="43.90365" lon="6.52172">
        <ele>1151.8</ele>
        <time>2013-05-28T10:08:49Z</time>
      </trkpt>
      <trkpt lat="43.90358" lon="6.52155">
        <ele>1147.95</ele>
        <time>2013-05-28T10:08:54Z</time>
      </trkpt>
      <trkpt lat="43.90343" lon="6.52125">
        <ele>1141.7</ele>
        <time>2013-05-28T10:09:01Z</time>
      </trkpt>
      <trkpt lat="43.90334" lon="6.5211">
        <ele>1138.34</ele>
        <time>2013-05-28T10:09:05Z</time>
      </trkpt>
      <trkpt lat="43.90331" lon="6.52104">
        <ele>1137.86</ele>
        <time>2013-05-28T10:09:06Z</time>
      </trkpt>
      <trkpt lat="43.90324" lon="6.52089">
        <ele>1136.9</ele>
        <time>2013-05-28T10:09:08Z</time>
      </trkpt>
      <trkpt lat="43.90322" lon="6.52081">
        <ele>1136.9</ele>
        <time>2013-05-28T10:09:09Z</time>
      </trkpt>
      <trkpt lat="43.90305" lon="6.52035">
        <ele>1131.61</ele>
        <time>2013-05-28T10:09:15Z</time>
      </trkpt>
      <trkpt lat="43.90302" lon="6.52031">
        <ele>1132.57</ele>
        <time>2013-05-28T10:09:16Z</time>
      </trkpt>
      <trkpt lat="43.90285" lon="6.52004">
        <ele>1129.21</ele>
        <time>2013-05-28T10:09:23Z</time>
      </trkpt>
      <trkpt lat="43.90269" lon="6.51986">
        <ele>1125.84</ele>
        <time>2013-05-28T10:09:28Z</time>
      </trkpt>
      <trkpt lat="43.9025" lon="6.51962">
        <ele>1121.03</ele>
        <time>2013-05-28T10:10:09Z</time>
      </trkpt>
      <trkpt lat="43.90249" lon="6.51965">
        <ele>1122.48</ele>
        <time>2013-05-28T10:11:19Z</time>
      </trkpt>
      <trkpt lat="43.90233" lon="6.51975">
        <ele>1117.67</ele>
        <time>2013-05-28T10:11:28Z</time>
      </trkpt>
      <trkpt lat="43.90207" lon="6.51972">
        <ele>1114.31</ele>
        <time>2013-05-28T10:11:36Z</time>
      </trkpt>
      <trkpt lat="43.90207" lon="6.51976">
        <ele>1114.31</ele>
        <time>2013-05-28T10:11:37Z</time>
      </trkpt>
      <trkpt lat="43.90221" lon="6.51994">
        <ele>1110.94</ele>
        <time>2013-05-28T10:11:43Z</time>
      </trkpt>
      <trkpt lat="43.90231" lon="6.52036">
        <ele>1105.17</ele>
        <time>2013-05-28T10:11:55Z</time>
      </trkpt>
      <trkpt lat="43.90229" lon="6.52037">
        <ele>1105.17</ele>
        <time>2013-05-28T10:11:56Z</time>
      </trkpt>
      <trkpt lat="43.90221" lon="6.52044">
        <ele>1101.33</ele>
        <time>2013-05-28T10:12:00Z</time>
      </trkpt>
      <trkpt lat="43.90223" lon="6.52055">
        <ele>1101.33</ele>
        <time>2013-05-28T10:12:02Z</time>
      </trkpt>
      <trkpt lat="43.90235" lon="6.52089">
        <ele>1097.96</ele>
        <time>2013-05-28T10:12:07Z</time>
      </trkpt>
      <trkpt lat="43.90234" lon="6.52123">
        <ele>1095.08</ele>
        <time>2013-05-28T10:12:11Z</time>
      </trkpt>
      <trkpt lat="43.90234" lon="6.5213">
        <ele>1095.08</ele>
        <time>2013-05-28T10:12:12Z</time>
      </trkpt>
      <trkpt lat="43.9024" lon="6.52162">
        <ele>1092.68</ele>
        <time>2013-05-28T10:12:19Z</time>
      </trkpt>
      <trkpt lat="43.90239" lon="6.52171">
        <ele>1092.2</ele>
        <time>2013-05-28T10:12:33Z</time>
      </trkpt>
      <trkpt lat="43.90237" lon="6.52173">
        <ele>1092.2</ele>
        <time>2013-05-28T10:15:00Z</time>
      </trkpt>
      <trkpt lat="43.90218" lon="6.52193">
        <ele>1085.95</ele>
        <time>2013-05-28T10:15:15Z</time>
      </trkpt>
      <trkpt lat="43.90205" lon="6.52199">
        <ele>1083.54</ele>
        <time>2013-05-28T10:15:18Z</time>
      </trkpt>
      <trkpt lat="43.90197" lon="6.52203">
        <ele>1080.66</ele>
        <time>2013-05-28T10:15:20Z</time>
      </trkpt>
      <trkpt lat="43.90178" lon="6.52241">
        <ele>1075.85</ele>
        <time>2013-05-28T10:15:27Z</time>
      </trkpt>
      <trkpt lat="43.90173" lon="6.52285">
        <ele>1073.45</ele>
        <time>2013-05-28T10:15:32Z</time>
      </trkpt>
      <trkpt lat="43.90161" lon="6.52305">
        <ele>1069.6</ele>
        <time>2013-05-28T10:15:35Z</time>
      </trkpt>
      <trkpt lat="43.90134" lon="6.52347">
        <ele>1063.36</ele>
        <time>2013-05-28T10:15:46Z</time>
      </trkpt>
      <trkpt lat="43.90127" lon="6.5235">
        <ele>1062.39</ele>
        <time>2013-05-28T10:16:09Z</time>
      </trkpt>
      <trkpt lat="43.90095" lon="6.52357">
        <ele>1059.03</ele>
        <time>2013-05-28T10:16:20Z</time>
      </trkpt>
      <trkpt lat="43.90054" lon="6.52347">
        <ele>1056.63</ele>
        <time>2013-05-28T10:16:26Z</time>
      </trkpt>
      <trkpt lat="43.90026" lon="6.52346">
        <ele>1052.78</ele>
        <time>2013-05-28T10:16:30Z</time>
      </trkpt>
      <trkpt lat="43.90019" lon="6.52347">
        <ele>1052.78</ele>
        <time>2013-05-28T10:16:31Z</time>
      </trkpt>
      <trkpt lat="43.89997" lon="6.52368">
        <ele>1050.86</ele>
        <time>2013-05-28T10:16:35Z</time>
      </trkpt>
      <trkpt lat="43.89976" lon="6.52386">
        <ele>1047.01</ele>
        <time>2013-05-28T10:16:39Z</time>
      </trkpt>
      <trkpt lat="43.8997" lon="6.52388">
        <ele>1045.57</ele>
        <time>2013-05-28T10:16:41Z</time>
      </trkpt>
      <trkpt lat="43.89962" lon="6.5238">
        <ele>1042.21</ele>
        <time>2013-05-28T10:16:47Z</time>
      </trkpt>
      <trkpt lat="43.89953" lon="6.52366">
        <ele>1038.36</ele>
        <time>2013-05-28T10:16:53Z</time>
      </trkpt>
      <trkpt lat="43.89947" lon="6.52374">
        <ele>1036.92</ele>
        <time>2013-05-28T10:17:09Z</time>
      </trkpt>
      <trkpt lat="43.89948" lon="6.52373">
        <ele>1036.92</ele>
        <time>2013-05-28T10:17:50Z</time>
      </trkpt>
      <trkpt lat="43.89947" lon="6.52382">
        <ele>1035.96</ele>
        <time>2013-05-28T10:18:00Z</time>
      </trkpt>
      <trkpt lat="43.89952" lon="6.52456">
        <ele>1035.96</ele>
        <time>2013-05-28T10:18:19Z</time>
      </trkpt>
      <trkpt lat="43.89936" lon="6.52539">
        <ele>1034.52</ele>
        <time>2013-05-28T10:18:31Z</time>
      </trkpt>
      <trkpt lat="43.89936" lon="6.52546">
        <ele>1033.55</ele>
        <time>2013-05-28T10:18:32Z</time>
      </trkpt>
      <trkpt lat="43.89936" lon="6.52624">
        <ele>1035.48</ele>
        <time>2013-05-28T10:18:48Z</time>
      </trkpt>
      <trkpt lat="43.89933" lon="6.52641">
        <ele>1035.48</ele>
        <time>2013-05-28T10:18:56Z</time>
      </trkpt>
      <trkpt lat="43.89945" lon="6.52688">
        <ele>1034.04</ele>
        <time>2013-05-28T10:19:07Z</time>
      </trkpt>
      <trkpt lat="43.89965" lon="6.52746">
        <ele>1034.52</ele>
        <time>2013-05-28T10:19:26Z</time>
      </trkpt>
      <trkpt lat="43.89979" lon="6.52768">
        <ele>1039.8</ele>
        <time>2013-05-28T10:19:48Z</time>
      </trkpt>
      <trkpt lat="43.89977" lon="6.52798">
        <ele>1041.25</ele>
        <time>2013-05-28T10:20:15Z</time>
      </trkpt>
      <trkpt lat="43.89976" lon="6.52799">
        <ele>1041.73</ele>
        <time>2013-05-28T10:22:33Z</time>
      </trkpt>
      <trkpt lat="43.89976" lon="6.52797">
        <ele>1042.69</ele>
        <time>2013-05-28T10:26:00Z</time>
      </trkpt>
      <trkpt lat="43.89978" lon="6.52765">
        <ele>1041.25</ele>
        <time>2013-05-28T10:26:12Z</time>
      </trkpt>
      <trkpt lat="43.89968" lon="6.52749">
        <ele>1037.4</ele>
        <time>2013-05-28T10:26:17Z</time>
      </trkpt>
      <trkpt lat="43.89946" lon="6.52683">
        <ele>1035</ele>
        <time>2013-05-28T10:26:32Z</time>
      </trkpt>
      <trkpt lat="43.89936" lon="6.52642">
        <ele>1038.36</ele>
        <time>2013-05-28T10:26:47Z</time>
      </trkpt>
      <trkpt lat="43.89939" lon="6.5261">
        <ele>1037.88</ele>
        <time>2013-05-28T10:26:57Z</time>
      </trkpt>
      <trkpt lat="43.89939" lon="6.5259">
        <ele>1036.44</ele>
        <time>2013-05-28T10:27:00Z</time>
      </trkpt>
      <trkpt lat="43.89939" lon="6.52513">
        <ele>1036.44</ele>
        <time>2013-05-28T10:27:17Z</time>
      </trkpt>
      <trkpt lat="43.89953" lon="6.52447">
        <ele>1038.36</ele>
        <time>2013-05-28T10:27:36Z</time>
      </trkpt>
      <trkpt lat="43.89946" lon="6.52381">
        <ele>1039.32</ele>
        <time>2013-05-28T10:27:55Z</time>
      </trkpt>
      <trkpt lat="43.89952" lon="6.52359">
        <ele>1040.76</ele>
        <time>2013-05-28T10:28:05Z</time>
      </trkpt>
      <trkpt lat="43.89952" lon="6.5235">
        <ele>1040.76</ele>
        <time>2013-05-28T10:28:09Z</time>
      </trkpt>
      <trkpt lat="43.90003" lon="6.52304">
        <ele>1042.21</ele>
        <time>2013-05-28T10:28:46Z</time>
      </trkpt>
      <trkpt lat="43.90017" lon="6.52294">
        <ele>1043.65</ele>
        <time>2013-05-28T10:29:22Z</time>
      </trkpt>
      <trkpt lat="43.90017" lon="6.52271">
        <ele>1045.57</ele>
        <time>2013-05-28T10:29:31Z</time>
      </trkpt>
      <trkpt lat="43.89993" lon="6.52178">
        <ele>1050.86</ele>
        <time>2013-05-28T10:30:02Z</time>
      </trkpt>
      <trkpt lat="43.89924" lon="6.52077">
        <ele>1055.18</ele>
        <time>2013-05-28T10:30:39Z</time>
      </trkpt>
      <trkpt lat="43.89911" lon="6.52062">
        <ele>1058.55</ele>
        <time>2013-05-28T10:30:49Z</time>
      </trkpt>
      <trkpt lat="43.89909" lon="6.51962">
        <ele>1061.43</ele>
        <time>2013-05-28T10:31:21Z</time>
      </trkpt>
      <trkpt lat="43.89907" lon="6.51819">
        <ele>1062.39</ele>
        <time>2013-05-28T10:31:47Z</time>
      </trkpt>
      <trkpt lat="43.89909" lon="6.51799">
        <ele>1062.39</ele>
        <time>2013-05-28T10:31:50Z</time>
      </trkpt>
      <trkpt lat="43.899" lon="6.51724">
        <ele>1063.36</ele>
        <time>2013-05-28T10:32:04Z</time>
      </trkpt>
      <trkpt lat="43.89871" lon="6.51723">
        <ele>1063.84</ele>
        <time>2013-05-28T10:32:10Z</time>
      </trkpt>
      <trkpt lat="43.89857" lon="6.51739">
        <ele>1064.32</ele>
        <time>2013-05-28T10:32:14Z</time>
      </trkpt>
      <trkpt lat="43.8984" lon="6.51755">
        <ele>1065.28</ele>
        <time>2013-05-28T10:32:19Z</time>
      </trkpt>
      <trkpt lat="43.89758" lon="6.51798">
        <ele>1071.53</ele>
        <time>2013-05-28T10:32:48Z</time>
      </trkpt>
      <trkpt lat="43.89675" lon="6.51789">
        <ele>1076.81</ele>
        <time>2013-05-28T10:33:17Z</time>
      </trkpt>
      <trkpt lat="43.89621" lon="6.5171">
        <ele>1082.58</ele>
        <time>2013-05-28T10:33:50Z</time>
      </trkpt>
      <trkpt lat="43.8962" lon="6.51708">
        <ele>1082.1</ele>
        <time>2013-05-28T10:33:51Z</time>
      </trkpt>
      <trkpt lat="43.89591" lon="6.51676">
        <ele>1086.91</ele>
        <time>2013-05-28T10:34:11Z</time>
      </trkpt>
      <trkpt lat="43.89517" lon="6.51562">
        <ele>1093.16</ele>
        <time>2013-05-28T10:35:00Z</time>
      </trkpt>
      <trkpt lat="43.8947" lon="6.51457">
        <ele>1097.48</ele>
        <time>2013-05-28T10:35:31Z</time>
      </trkpt>
      <trkpt lat="43.89438" lon="6.51352">
        <ele>1101.33</ele>
        <time>2013-05-28T10:36:03Z</time>
      </trkpt>
      <trkpt lat="43.89431" lon="6.51307">
        <ele>1103.25</ele>
        <time>2013-05-28T10:36:17Z</time>
      </trkpt>
      <trkpt lat="43.89393" lon="6.51243">
        <ele>1108.54</ele>
        <time>2013-05-28T10:36:45Z</time>
      </trkpt>
      <trkpt lat="43.89348" lon="6.51181">
        <ele>1113.82</ele>
        <time>2013-05-28T10:37:17Z</time>
      </trkpt>
      <trkpt lat="43.8934" lon="6.51151">
        <ele>1117.19</ele>
        <time>2013-05-28T10:37:30Z</time>
      </trkpt>
      <trkpt lat="43.89293" lon="6.51093">
        <ele>1122.48</ele>
        <time>2013-05-28T10:38:09Z</time>
      </trkpt>
      <trkpt lat="43.89257" lon="6.51048">
        <ele>1125.84</ele>
        <time>2013-05-28T10:38:32Z</time>
      </trkpt>
      <trkpt lat="43.89274" lon="6.51036">
        <ele>1128.24</ele>
        <time>2013-05-28T10:38:51Z</time>
      </trkpt>
      <trkpt lat="43.89275" lon="6.51035">
        <ele>1128.24</ele>
        <time>2013-05-28T10:38:52Z</time>
      </trkpt>
      <trkpt lat="43.89276" lon="6.51034">
        <ele>1128.73</ele>
        <time>2013-05-28T10:38:53Z</time>
      </trkpt>
      <trkpt lat="43.89279" lon="6.51026">
        <ele>1129.69</ele>
        <time>2013-05-28T10:38:59Z</time>
      </trkpt>
      <trkpt lat="43.89283" lon="6.50969">
        <ele>1135.94</ele>
        <time>2013-05-28T10:39:36Z</time>
      </trkpt>
      <trkpt lat="43.89283" lon="6.50968">
        <ele>1135.94</ele>
        <time>2013-05-28T10:39:37Z</time>
      </trkpt>
      <trkpt lat="43.89303" lon="6.50968">
        <ele>1139.3</ele>
        <time>2013-05-28T10:39:56Z</time>
      </trkpt>
      <trkpt lat="43.89321" lon="6.50994">
        <ele>1143.63</ele>
        <time>2013-05-28T10:40:18Z</time>
      </trkpt>
      <trkpt lat="43.89322" lon="6.50994">
        <ele>1143.63</ele>
        <time>2013-05-28T10:40:19Z</time>
      </trkpt>
      <trkpt lat="43.89337" lon="6.50967">
        <ele>1148.43</ele>
        <time>2013-05-28T10:41:22Z</time>
      </trkpt>
      <trkpt lat="43.89354" lon="6.50986">
        <ele>1149.39</ele>
        <time>2013-05-28T10:42:03Z</time>
      </trkpt>
      <trkpt lat="43.89357" lon="6.50986">
        <ele>1151.8</ele>
        <time>2013-05-28T10:42:57Z</time>
      </trkpt>
      <trkpt lat="43.89363" lon="6.50981">
        <ele>1155.16</ele>
        <time>2013-05-28T10:43:12Z</time>
      </trkpt>
      <trkpt lat="43.89364" lon="6.5098">
        <ele>1153.24</ele>
        <time>2013-05-28T10:46:06Z</time>
      </trkpt>
      <trkpt lat="43.89364" lon="6.50982">
        <ele>1154.68</ele>
        <time>2013-05-28T10:58:56Z</time>
      </trkpt>
      <trkpt lat="43.89345" lon="6.50977">
        <ele>1152.28</ele>
        <time>2013-05-28T10:59:08Z</time>
      </trkpt>
      <trkpt lat="43.89344" lon="6.50977">
        <ele>1152.76</ele>
        <time>2013-05-28T10:59:09Z</time>
      </trkpt>
      <trkpt lat="43.89331" lon="6.5097">
        <ele>1149.39</ele>
        <time>2013-05-28T11:00:09Z</time>
      </trkpt>
      <trkpt lat="43.89324" lon="6.50991">
        <ele>1147.47</ele>
        <time>2013-05-28T11:01:12Z</time>
      </trkpt>
      <trkpt lat="43.89303" lon="6.50977">
        <ele>1143.63</ele>
        <time>2013-05-28T11:01:18Z</time>
      </trkpt>
      <trkpt lat="43.89284" lon="6.50968">
        <ele>1140.26</ele>
        <time>2013-05-28T11:01:23Z</time>
      </trkpt>
      <trkpt lat="43.8928" lon="6.50987">
        <ele>1136.9</ele>
        <time>2013-05-28T11:01:27Z</time>
      </trkpt>
      <trkpt lat="43.89277" lon="6.5103">
        <ele>1132.09</ele>
        <time>2013-05-28T11:01:34Z</time>
      </trkpt>
      <trkpt lat="43.89261" lon="6.51037">
        <ele>1130.17</ele>
        <time>2013-05-28T11:01:38Z</time>
      </trkpt>
      <trkpt lat="43.89252" lon="6.50989">
        <ele>1129.21</ele>
        <time>2013-05-28T11:01:54Z</time>
      </trkpt>
      <trkpt lat="43.89224" lon="6.50869">
        <ele>1132.09</ele>
        <time>2013-05-28T11:02:21Z</time>
      </trkpt>
      <trkpt lat="43.89208" lon="6.50799">
        <ele>1132.09</ele>
        <time>2013-05-28T11:02:37Z</time>
      </trkpt>
      <trkpt lat="43.89204" lon="6.50768">
        <ele>1134.97</ele>
        <time>2013-05-28T11:02:45Z</time>
      </trkpt>
      <trkpt lat="43.89236" lon="6.50637">
        <ele>1138.82</ele>
        <time>2013-05-28T11:03:17Z</time>
      </trkpt>
      <trkpt lat="43.89231" lon="6.50536">
        <ele>1138.82</ele>
        <time>2013-05-28T11:03:35Z</time>
      </trkpt>
      <trkpt lat="43.89231" lon="6.5053">
        <ele>1138.82</ele>
        <time>2013-05-28T11:03:36Z</time>
      </trkpt>
      <trkpt lat="43.89229" lon="6.50477">
        <ele>1137.38</ele>
        <time>2013-05-28T11:03:44Z</time>
      </trkpt>
      <trkpt lat="43.89242" lon="6.50403">
        <ele>1136.42</ele>
        <time>2013-05-28T11:03:55Z</time>
      </trkpt>
      <trkpt lat="43.89232" lon="6.50323">
        <ele>1134.01</ele>
        <time>2013-05-28T11:04:04Z</time>
      </trkpt>
      <trkpt lat="43.89233" lon="6.50313">
        <ele>1134.49</ele>
        <time>2013-05-28T11:04:05Z</time>
      </trkpt>
      <trkpt lat="43.89256" lon="6.50277">
        <ele>1133.53</ele>
        <time>2013-05-28T11:04:11Z</time>
      </trkpt>
      <trkpt lat="43.8927" lon="6.50269">
        <ele>1133.53</ele>
        <time>2013-05-28T11:04:19Z</time>
      </trkpt>
      <trkpt lat="43.89283" lon="6.50253">
        <ele>1134.97</ele>
        <time>2013-05-28T11:04:33Z</time>
      </trkpt>
      <trkpt lat="43.89236" lon="6.502">
        <ele>1138.82</ele>
        <time>2013-05-28T11:05:08Z</time>
      </trkpt>
      <trkpt lat="43.89213" lon="6.50183">
        <ele>1140.74</ele>
        <time>2013-05-28T11:05:34Z</time>
      </trkpt>
      <trkpt lat="43.89208" lon="6.50184">
        <ele>1140.74</ele>
        <time>2013-05-28T11:06:06Z</time>
      </trkpt>
      <trkpt lat="43.89213" lon="6.50184">
        <ele>1140.74</ele>
        <time>2013-05-28T11:06:10Z</time>
      </trkpt>
      <trkpt lat="43.8923" lon="6.50194">
        <ele>1140.26</ele>
        <time>2013-05-28T11:06:17Z</time>
      </trkpt>
      <trkpt lat="43.89275" lon="6.50236">
        <ele>1135.45</ele>
        <time>2013-05-28T11:06:27Z</time>
      </trkpt>
      <trkpt lat="43.8928" lon="6.50238">
        <ele>1134.49</ele>
        <time>2013-05-28T11:06:43Z</time>
      </trkpt>
      <trkpt lat="43.89299" lon="6.50227">
        <ele>1134.01</ele>
        <time>2013-05-28T11:07:03Z</time>
      </trkpt>
      <trkpt lat="43.89279" lon="6.50233">
        <ele>1134.01</ele>
        <time>2013-05-28T11:07:20Z</time>
      </trkpt>
      <trkpt lat="43.89278" lon="6.50233">
        <ele>1134.49</ele>
        <time>2013-05-28T11:07:22Z</time>
      </trkpt>
      <trkpt lat="43.89267" lon="6.50226">
        <ele>1135.45</ele>
        <time>2013-05-28T11:07:31Z</time>
      </trkpt>
      <trkpt lat="43.89216" lon="6.50192">
        <ele>1139.78</ele>
        <time>2013-05-28T11:07:59Z</time>
      </trkpt>
      <trkpt lat="43.89207" lon="6.50183">
        <ele>1140.26</ele>
        <time>2013-05-28T11:08:41Z</time>
      </trkpt>
      <trkpt lat="43.89189" lon="6.50179">
        <ele>1137.38</ele>
        <time>2013-05-28T11:09:03Z</time>
      </trkpt>
      <trkpt lat="43.89178" lon="6.50182">
        <ele>1134.01</ele>
        <time>2013-05-28T11:09:06Z</time>
      </trkpt>
      <trkpt lat="43.89164" lon="6.50196">
        <ele>1128.73</ele>
        <time>2013-05-28T11:09:10Z</time>
      </trkpt>
      <trkpt lat="43.89145" lon="6.50189">
        <ele>1125.84</ele>
        <time>2013-05-28T11:09:18Z</time>
      </trkpt>
      <trkpt lat="43.89142" lon="6.50188">
        <ele>1125.84</ele>
        <time>2013-05-28T11:09:19Z</time>
      </trkpt>
      <trkpt lat="43.89061" lon="6.50154">
        <ele>1122</ele>
        <time>2013-05-28T11:09:44Z</time>
      </trkpt>
      <trkpt lat="43.89042" lon="6.50143">
        <ele>1118.15</ele>
        <time>2013-05-28T11:09:51Z</time>
      </trkpt>
      <trkpt lat="43.89039" lon="6.50142">
        <ele>1118.15</ele>
        <time>2013-05-28T11:09:52Z</time>
      </trkpt>
      <trkpt lat="43.89024" lon="6.5014">
        <ele>1114.31</ele>
        <time>2013-05-28T11:09:58Z</time>
      </trkpt>
      <trkpt lat="43.89014" lon="6.50144">
        <ele>1110.46</ele>
        <time>2013-05-28T11:10:03Z</time>
      </trkpt>
      <trkpt lat="43.89002" lon="6.50151">
        <ele>1107.1</ele>
        <time>2013-05-28T11:10:15Z</time>
      </trkpt>
      <trkpt lat="43.8899" lon="6.50166">
        <ele>1102.29</ele>
        <time>2013-05-28T11:10:23Z</time>
      </trkpt>
      <trkpt lat="43.88978" lon="6.50174">
        <ele>1098.44</ele>
        <time>2013-05-28T11:10:30Z</time>
      </trkpt>
      <trkpt lat="43.88963" lon="6.5019">
        <ele>1095.08</ele>
        <time>2013-05-28T11:10:51Z</time>
      </trkpt>
      <trkpt lat="43.88963" lon="6.5019">
        <ele>1095.08</ele>
        <time>2013-05-28T11:11:16Z</time>
      </trkpt>
      <trkpt lat="43.88914" lon="6.50221">
        <ele>1091.71</ele>
        <time>2013-05-28T11:11:38Z</time>
      </trkpt>
      <trkpt lat="43.88889" lon="6.50219">
        <ele>1088.35</ele>
        <time>2013-05-28T11:11:46Z</time>
      </trkpt>
      <trkpt lat="43.88866" lon="6.50188">
        <ele>1084.5</ele>
        <time>2013-05-28T11:12:07Z</time>
      </trkpt>
      <trkpt lat="43.8886" lon="6.50184">
        <ele>1084.5</ele>
        <time>2013-05-28T11:12:26Z</time>
      </trkpt>
      <trkpt lat="43.88859" lon="6.50184">
        <ele>1084.02</ele>
        <time>2013-05-28T11:12:27Z</time>
      </trkpt>
      <trkpt lat="43.88826" lon="6.50194">
        <ele>1081.62</ele>
        <time>2013-05-28T11:13:15Z</time>
      </trkpt>
      <trkpt lat="43.88791" lon="6.50212">
        <ele>1082.1</ele>
        <time>2013-05-28T11:13:38Z</time>
      </trkpt>
      <trkpt lat="43.8874" lon="6.50225">
        <ele>1082.1</ele>
        <time>2013-05-28T11:14:01Z</time>
      </trkpt>
      <trkpt lat="43.88702" lon="6.50209">
        <ele>1076.81</ele>
        <time>2013-05-28T11:14:15Z</time>
      </trkpt>
      <trkpt lat="43.88677" lon="6.50208">
        <ele>1074.41</ele>
        <time>2013-05-28T11:14:32Z</time>
      </trkpt>
      <trkpt lat="43.88613" lon="6.5024">
        <ele>1073.93</ele>
        <time>2013-05-28T11:15:01Z</time>
      </trkpt>
      <trkpt lat="43.88567" lon="6.50275">
        <ele>1072.01</ele>
        <time>2013-05-28T11:15:17Z</time>
      </trkpt>
      <trkpt lat="43.8849" lon="6.50345">
        <ele>1072.97</ele>
        <time>2013-05-28T11:15:40Z</time>
      </trkpt>
      <trkpt lat="43.88473" lon="6.50363">
        <ele>1072.01</ele>
        <time>2013-05-28T11:15:44Z</time>
      </trkpt>
      <trkpt lat="43.88403" lon="6.50487">
        <ele>1072.97</ele>
        <time>2013-05-28T11:16:09Z</time>
      </trkpt>
      <trkpt lat="43.88309" lon="6.50663">
        <ele>1076.81</ele>
        <time>2013-05-28T11:16:54Z</time>
      </trkpt>
      <trkpt lat="43.88278" lon="6.50683">
        <ele>1077.78</ele>
        <time>2013-05-28T11:17:09Z</time>
      </trkpt>
      <trkpt lat="43.88276" lon="6.50682">
        <ele>1077.78</ele>
        <time>2013-05-28T11:17:10Z</time>
      </trkpt>
      <trkpt lat="43.88263" lon="6.5067">
        <ele>1072.97</ele>
        <time>2013-05-28T11:17:16Z</time>
      </trkpt>
      <trkpt lat="43.88251" lon="6.5068">
        <ele>1069.12</ele>
        <time>2013-05-28T11:17:22Z</time>
      </trkpt>
      <trkpt lat="43.88248" lon="6.50676">
        <ele>1067.68</ele>
        <time>2013-05-28T11:18:07Z</time>
      </trkpt>
      <trkpt lat="43.88241" lon="6.50644">
        <ele>1063.84</ele>
        <time>2013-05-28T11:18:18Z</time>
      </trkpt>
      <trkpt lat="43.88218" lon="6.50603">
        <ele>1056.63</ele>
        <time>2013-05-28T11:19:05Z</time>
      </trkpt>
      <trkpt lat="43.88207" lon="6.50588">
        <ele>1053.26</ele>
        <time>2013-05-28T11:19:10Z</time>
      </trkpt>
      <trkpt lat="43.88204" lon="6.50584">
        <ele>1053.26</ele>
        <time>2013-05-28T11:19:11Z</time>
      </trkpt>
      <trkpt lat="43.88191" lon="6.50564">
        <ele>1049.9</ele>
        <time>2013-05-28T11:19:16Z</time>
      </trkpt>
      <trkpt lat="43.88186" lon="6.50549">
        <ele>1046.53</ele>
        <time>2013-05-28T11:19:20Z</time>
      </trkpt>
      <trkpt lat="43.88183" lon="6.50577">
        <ele>1041.25</ele>
        <time>2013-05-28T11:19:30Z</time>
      </trkpt>
      <trkpt lat="43.88184" lon="6.50597">
        <ele>1039.32</ele>
        <time>2013-05-28T11:19:34Z</time>
      </trkpt>
      <trkpt lat="43.88186" lon="6.50612">
        <ele>1034.52</ele>
        <time>2013-05-28T11:19:40Z</time>
      </trkpt>
      <trkpt lat="43.88162" lon="6.50567">
        <ele>1030.67</ele>
        <time>2013-05-28T11:19:53Z</time>
      </trkpt>
      <trkpt lat="43.88148" lon="6.50542">
        <ele>1027.31</ele>
        <time>2013-05-28T11:20:00Z</time>
      </trkpt>
      <trkpt lat="43.88129" lon="6.50523">
        <ele>1022.5</ele>
        <time>2013-05-28T11:20:26Z</time>
      </trkpt>
      <trkpt lat="43.8811" lon="6.50512">
        <ele>1017.69</ele>
        <time>2013-05-28T11:20:33Z</time>
      </trkpt>
      <trkpt lat="43.88102" lon="6.50502">
        <ele>1015.29</ele>
        <time>2013-05-28T11:20:37Z</time>
      </trkpt>
      <trkpt lat="43.88092" lon="6.5049">
        <ele>1010.96</ele>
        <time>2013-05-28T11:20:43Z</time>
      </trkpt>
      <trkpt lat="43.88078" lon="6.5045">
        <ele>1004.23</ele>
        <time>2013-05-28T11:20:54Z</time>
      </trkpt>
      <trkpt lat="43.88078" lon="6.50411">
        <ele>998.95</ele>
        <time>2013-05-28T11:21:04Z</time>
      </trkpt>
      <trkpt lat="43.88076" lon="6.50391">
        <ele>993.66</ele>
        <time>2013-05-28T11:21:09Z</time>
      </trkpt>
      <trkpt lat="43.88076" lon="6.50388">
        <ele>994.14</ele>
        <time>2013-05-28T11:21:10Z</time>
      </trkpt>
      <trkpt lat="43.88074" lon="6.50363">
        <ele>990.3</ele>
        <time>2013-05-28T11:21:17Z</time>
      </trkpt>
      <trkpt lat="43.88072" lon="6.5034">
        <ele>986.93</ele>
        <time>2013-05-28T11:21:23Z</time>
      </trkpt>
      <trkpt lat="43.88074" lon="6.50319">
        <ele>983.57</ele>
        <time>2013-05-28T11:21:28Z</time>
      </trkpt>
      <trkpt lat="43.88076" lon="6.50313">
        <ele>982.12</ele>
        <time>2013-05-28T11:21:48Z</time>
      </trkpt>
      <trkpt lat="43.88075" lon="6.50305">
        <ele>981.16</ele>
        <time>2013-05-28T11:22:35Z</time>
      </trkpt>
      <trkpt lat="43.88066" lon="6.50301">
        <ele>977.32</ele>
        <time>2013-05-28T11:22:41Z</time>
      </trkpt>
      <trkpt lat="43.88062" lon="6.50282">
        <ele>972.99</ele>
        <time>2013-05-28T11:22:49Z</time>
      </trkpt>
      <trkpt lat="43.88053" lon="6.50265">
        <ele>969.15</ele>
        <time>2013-05-28T11:22:54Z</time>
      </trkpt>
      <trkpt lat="43.88032" lon="6.50254">
        <ele>961.94</ele>
        <time>2013-05-28T11:23:02Z</time>
      </trkpt>
      <trkpt lat="43.88012" lon="6.50264">
        <ele>957.13</ele>
        <time>2013-05-28T11:23:06Z</time>
      </trkpt>
      <trkpt lat="43.87967" lon="6.50235">
        <ele>952.32</ele>
        <time>2013-05-28T11:23:21Z</time>
      </trkpt>
      <trkpt lat="43.87962" lon="6.50231">
        <ele>952.32</ele>
        <time>2013-05-28T11:23:22Z</time>
      </trkpt>
      <trkpt lat="43.87914" lon="6.50232">
        <ele>948.96</ele>
        <time>2013-05-28T11:23:29Z</time>
      </trkpt>
      <trkpt lat="43.87902" lon="6.50251">
        <ele>948.96</ele>
        <time>2013-05-28T11:23:31Z</time>
      </trkpt>
      <trkpt lat="43.87882" lon="6.5029">
        <ele>947.04</ele>
        <time>2013-05-28T11:23:35Z</time>
      </trkpt>
      <trkpt lat="43.87833" lon="6.5034">
        <ele>943.19</ele>
        <time>2013-05-28T11:23:42Z</time>
      </trkpt>
      <trkpt lat="43.87795" lon="6.50396">
        <ele>939.83</ele>
        <time>2013-05-28T11:23:48Z</time>
      </trkpt>
      <trkpt lat="43.87755" lon="6.5047">
        <ele>935.98</ele>
        <time>2013-05-28T11:23:55Z</time>
      </trkpt>
      <trkpt lat="43.87697" lon="6.50575">
        <ele>931.17</ele>
        <time>2013-05-28T11:24:05Z</time>
      </trkpt>
      <trkpt lat="43.87692" lon="6.50585">
        <ele>931.17</ele>
        <time>2013-05-28T11:24:06Z</time>
      </trkpt>
      <trkpt lat="43.87634" lon="6.50756">
        <ele>924.45</ele>
        <time>2013-05-28T11:24:21Z</time>
      </trkpt>
      <trkpt lat="43.8757" lon="6.50849">
        <ele>922.04</ele>
        <time>2013-05-28T11:24:32Z</time>
      </trkpt>
      <trkpt lat="43.87542" lon="6.50835">
        <ele>920.12</ele>
        <time>2013-05-28T11:24:36Z</time>
      </trkpt>
      <trkpt lat="43.87501" lon="6.50847">
        <ele>917.72</ele>
        <time>2013-05-28T11:24:42Z</time>
      </trkpt>
      <trkpt lat="43.87434" lon="6.50967">
        <ele>912.91</ele>
        <time>2013-05-28T11:24:55Z</time>
      </trkpt>
      <trkpt lat="43.87378" lon="6.51032">
        <ele>910.03</ele>
        <time>2013-05-28T11:25:03Z</time>
      </trkpt>
      <trkpt lat="43.87295" lon="6.51078">
        <ele>905.22</ele>
        <time>2013-05-28T11:25:13Z</time>
      </trkpt>
      <trkpt lat="43.87218" lon="6.51106">
        <ele>901.85</ele>
        <time>2013-05-28T11:25:22Z</time>
      </trkpt>
      <trkpt lat="43.87138" lon="6.5114">
        <ele>898.49</ele>
        <time>2013-05-28T11:25:32Z</time>
      </trkpt>
      <trkpt lat="43.87108" lon="6.51145">
        <ele>898.49</ele>
        <time>2013-05-28T11:25:36Z</time>
      </trkpt>
      <trkpt lat="43.87076" lon="6.51181">
        <ele>896.57</ele>
        <time>2013-05-28T11:25:42Z</time>
      </trkpt>
      <trkpt lat="43.8699" lon="6.51112">
        <ele>893.2</ele>
        <time>2013-05-28T11:26:02Z</time>
      </trkpt>
      <trkpt lat="43.8695" lon="6.51074">
        <ele>891.28</ele>
        <time>2013-05-28T11:26:10Z</time>
      </trkpt>
      <trkpt lat="43.8693" lon="6.51095">
        <ele>889.36</ele>
        <time>2013-05-28T11:26:15Z</time>
      </trkpt>
      <trkpt lat="43.86903" lon="6.51141">
        <ele>887.43</ele>
        <time>2013-05-28T11:26:22Z</time>
      </trkpt>
      <trkpt lat="43.8687" lon="6.51153">
        <ele>885.03</ele>
        <time>2013-05-28T11:26:28Z</time>
      </trkpt>
      <trkpt lat="43.86864" lon="6.51154">
        <ele>885.03</ele>
        <time>2013-05-28T11:26:29Z</time>
      </trkpt>
      <trkpt lat="43.86842" lon="6.51149">
        <ele>885.51</ele>
        <time>2013-05-28T11:26:36Z</time>
      </trkpt>
      <trkpt lat="43.86842" lon="6.51149">
        <ele>885.99</ele>
        <time>2013-05-28T11:26:44Z</time>
      </trkpt>
      <trkpt lat="43.86866" lon="6.51155">
        <ele>884.07</ele>
        <time>2013-05-28T11:26:53Z</time>
      </trkpt>
      <trkpt lat="43.86846" lon="6.51136">
        <ele>880.71</ele>
        <time>2013-05-28T11:27:01Z</time>
      </trkpt>
      <trkpt lat="43.86835" lon="6.51121">
        <ele>878.3</ele>
        <time>2013-05-28T11:27:15Z</time>
      </trkpt>
      <trkpt lat="43.86809" lon="6.51088">
        <ele>875.42</ele>
        <time>2013-05-28T11:27:26Z</time>
      </trkpt>
      <trkpt lat="43.86804" lon="6.51085">
        <ele>875.42</ele>
        <time>2013-05-28T11:27:27Z</time>
      </trkpt>
      <trkpt lat="43.86712" lon="6.51112">
        <ele>877.34</ele>
        <time>2013-05-28T11:27:51Z</time>
      </trkpt>
      <trkpt lat="43.86701" lon="6.51112">
        <ele>877.34</ele>
        <time>2013-05-28T11:27:54Z</time>
      </trkpt>
      <trkpt lat="43.86592" lon="6.51114">
        <ele>871.09</ele>
        <time>2013-05-28T11:28:13Z</time>
      </trkpt>
      <trkpt lat="43.86521" lon="6.51119">
        <ele>869.17</ele>
        <time>2013-05-28T11:28:23Z</time>
      </trkpt>
      <trkpt lat="43.86509" lon="6.51126">
        <ele>869.17</ele>
        <time>2013-05-28T11:28:25Z</time>
      </trkpt>
      <trkpt lat="43.86484" lon="6.5114">
        <ele>868.69</ele>
        <time>2013-05-28T11:28:29Z</time>
      </trkpt>
      <trkpt lat="43.86428" lon="6.51181">
        <ele>869.65</ele>
        <time>2013-05-28T11:28:42Z</time>
      </trkpt>
      <trkpt lat="43.86368" lon="6.51264">
        <ele>869.65</ele>
        <time>2013-05-28T11:28:59Z</time>
      </trkpt>
      <trkpt lat="43.86313" lon="6.51319">
        <ele>866.29</ele>
        <time>2013-05-28T11:29:11Z</time>
      </trkpt>
      <trkpt lat="43.86265" lon="6.51371">
        <ele>865.32</ele>
        <time>2013-05-28T11:29:21Z</time>
      </trkpt>
      <trkpt lat="43.86259" lon="6.51371">
        <ele>865.32</ele>
        <time>2013-05-28T11:29:22Z</time>
      </trkpt>
      <trkpt lat="43.86248" lon="6.51373">
        <ele>865.32</ele>
        <time>2013-05-28T11:29:24Z</time>
      </trkpt>
      <trkpt lat="43.86209" lon="6.51403">
        <ele>865.8</ele>
        <time>2013-05-28T11:29:33Z</time>
      </trkpt>
      <trkpt lat="43.86151" lon="6.51438">
        <ele>863.88</ele>
        <time>2013-05-28T11:29:46Z</time>
      </trkpt>
      <trkpt lat="43.86145" lon="6.51443">
        <ele>863.88</ele>
        <time>2013-05-28T11:29:47Z</time>
      </trkpt>
      <trkpt lat="43.86072" lon="6.51545">
        <ele>857.63</ele>
        <time>2013-05-28T11:30:02Z</time>
      </trkpt>
      <trkpt lat="43.86023" lon="6.51558">
        <ele>855.23</ele>
        <time>2013-05-28T11:30:12Z</time>
      </trkpt>
      <trkpt lat="43.86023" lon="6.51555">
        <ele>854.27</ele>
        <time>2013-05-28T11:30:25Z</time>
      </trkpt>
      <trkpt lat="43.86005" lon="6.51526">
        <ele>853.79</ele>
        <time>2013-05-28T11:30:31Z</time>
      </trkpt>
      <trkpt lat="43.85966" lon="6.51479">
        <ele>849.94</ele>
        <time>2013-05-28T11:30:38Z</time>
      </trkpt>
      <trkpt lat="43.85924" lon="6.5145">
        <ele>845.62</ele>
        <time>2013-05-28T11:30:46Z</time>
      </trkpt>
      <trkpt lat="43.85878" lon="6.51433">
        <ele>840.81</ele>
        <time>2013-05-28T11:30:53Z</time>
      </trkpt>
      <trkpt lat="43.85859" lon="6.51418">
        <ele>837.45</ele>
        <time>2013-05-28T11:30:56Z</time>
      </trkpt>
      <trkpt lat="43.85838" lon="6.51399">
        <ele>835.04</ele>
        <time>2013-05-28T11:30:59Z</time>
      </trkpt>
      <trkpt lat="43.85827" lon="6.51388">
        <ele>833.12</ele>
        <time>2013-05-28T11:31:01Z</time>
      </trkpt>
      <trkpt lat="43.85818" lon="6.51363">
        <ele>830.72</ele>
        <time>2013-05-28T11:31:05Z</time>
      </trkpt>
      <trkpt lat="43.85788" lon="6.51304">
        <ele>828.31</ele>
        <time>2013-05-28T11:31:14Z</time>
      </trkpt>
      <trkpt lat="43.85778" lon="6.5128">
        <ele>828.79</ele>
        <time>2013-05-28T11:31:29Z</time>
      </trkpt>
      <trkpt lat="43.85729" lon="6.51258">
        <ele>828.31</ele>
        <time>2013-05-28T11:31:57Z</time>
      </trkpt>
      <trkpt lat="43.85707" lon="6.51267">
        <ele>826.87</ele>
        <time>2013-05-28T11:32:01Z</time>
      </trkpt>
      <trkpt lat="43.85687" lon="6.51253">
        <ele>825.43</ele>
        <time>2013-05-28T11:32:06Z</time>
      </trkpt>
      <trkpt lat="43.8568" lon="6.51238">
        <ele>823.99</ele>
        <time>2013-05-28T11:32:08Z</time>
      </trkpt>
      <trkpt lat="43.85677" lon="6.51232">
        <ele>823.99</ele>
        <time>2013-05-28T11:32:09Z</time>
      </trkpt>
      <trkpt lat="43.85656" lon="6.51207">
        <ele>821.1</ele>
        <time>2013-05-28T11:32:17Z</time>
      </trkpt>
      <trkpt lat="43.8564" lon="6.51197">
        <ele>819.18</ele>
        <time>2013-05-28T11:32:36Z</time>
      </trkpt>
      <trkpt lat="43.85619" lon="6.51193">
        <ele>818.22</ele>
        <time>2013-05-28T11:32:59Z</time>
      </trkpt>
      <trkpt lat="43.85583" lon="6.51212">
        <ele>818.22</ele>
        <time>2013-05-28T11:33:10Z</time>
      </trkpt>
      <trkpt lat="43.85567" lon="6.51234">
        <ele>814.37</ele>
        <time>2013-05-28T11:33:15Z</time>
      </trkpt>
      <trkpt lat="43.85557" lon="6.5125">
        <ele>811.01</ele>
        <time>2013-05-28T11:33:19Z</time>
      </trkpt>
      <trkpt lat="43.85554" lon="6.51262">
        <ele>810.53</ele>
        <time>2013-05-28T11:33:21Z</time>
      </trkpt>
      <trkpt lat="43.85548" lon="6.51283">
        <ele>809.09</ele>
        <time>2013-05-28T11:33:25Z</time>
      </trkpt>
      <trkpt lat="43.85549" lon="6.51318">
        <ele>807.64</ele>
        <time>2013-05-28T11:33:36Z</time>
      </trkpt>
      <trkpt lat="43.85566" lon="6.51344">
        <ele>808.13</ele>
        <time>2013-05-28T11:33:50Z</time>
      </trkpt>
      <trkpt lat="43.85576" lon="6.51364">
        <ele>809.09</ele>
        <time>2013-05-28T11:34:01Z</time>
      </trkpt>
      <trkpt lat="43.85584" lon="6.5138">
        <ele>810.53</ele>
        <time>2013-05-28T11:34:09Z</time>
      </trkpt>
      <trkpt lat="43.85571" lon="6.51436">
        <ele>812.45</ele>
        <time>2013-05-28T11:34:29Z</time>
      </trkpt>
      <trkpt lat="43.85579" lon="6.51504">
        <ele>815.34</ele>
        <time>2013-05-28T11:34:56Z</time>
      </trkpt>
      <trkpt lat="43.85573" lon="6.51522">
        <ele>815.34</ele>
        <time>2013-05-28T11:35:25Z</time>
      </trkpt>
      <trkpt lat="43.85552" lon="6.51489">
        <ele>814.85</ele>
        <time>2013-05-28T11:35:42Z</time>
      </trkpt>
      <trkpt lat="43.85523" lon="6.51423">
        <ele>811.97</ele>
        <time>2013-05-28T11:36:24Z</time>
      </trkpt>
      <trkpt lat="43.85491" lon="6.51389">
        <ele>810.05</ele>
        <time>2013-05-28T11:37:00Z</time>
      </trkpt>
      <trkpt lat="43.8546" lon="6.51358">
        <ele>810.53</ele>
        <time>2013-05-28T11:37:18Z</time>
      </trkpt>
      <trkpt lat="43.85457" lon="6.51357">
        <ele>810.53</ele>
        <time>2013-05-28T11:37:20Z</time>
      </trkpt>
      <trkpt lat="43.85437" lon="6.51315">
        <ele>808.13</ele>
        <time>2013-05-28T11:37:33Z</time>
      </trkpt>
      <trkpt lat="43.85389" lon="6.51287">
        <ele>807.64</ele>
        <time>2013-05-28T11:37:47Z</time>
      </trkpt>
      <trkpt lat="43.85354" lon="6.51273">
        <ele>804.28</ele>
        <time>2013-05-28T11:37:55Z</time>
      </trkpt>
      <trkpt lat="43.85324" lon="6.51245">
        <ele>799.95</ele>
        <time>2013-05-28T11:38:03Z</time>
      </trkpt>
      <trkpt lat="43.85295" lon="6.51225">
        <ele>796.59</ele>
        <time>2013-05-28T11:38:11Z</time>
      </trkpt>
      <trkpt lat="43.85282" lon="6.51218">
        <ele>794.67</ele>
        <time>2013-05-28T11:38:14Z</time>
      </trkpt>
      <trkpt lat="43.85263" lon="6.51209">
        <ele>791.78</ele>
        <time>2013-05-28T11:38:18Z</time>
      </trkpt>
      <trkpt lat="43.85205" lon="6.51175">
        <ele>785.05</ele>
        <time>2013-05-28T11:38:32Z</time>
      </trkpt>
      <trkpt lat="43.8518" lon="6.51137">
        <ele>781.69</ele>
        <time>2013-05-28T11:38:40Z</time>
      </trkpt>
      <trkpt lat="43.85169" lon="6.51035">
        <ele>775.92</ele>
        <time>2013-05-28T11:38:58Z</time>
      </trkpt>
      <trkpt lat="43.85155" lon="6.50968">
        <ele>770.15</ele>
        <time>2013-05-28T11:39:08Z</time>
      </trkpt>
      <trkpt lat="43.85153" lon="6.50944">
        <ele>766.79</ele>
        <time>2013-05-28T11:39:11Z</time>
      </trkpt>
      <trkpt lat="43.85149" lon="6.50921">
        <ele>762.94</ele>
        <time>2013-05-28T11:39:14Z</time>
      </trkpt>
      <trkpt lat="43.85136" lon="6.50881">
        <ele>758.62</ele>
        <time>2013-05-28T11:39:20Z</time>
      </trkpt>
      <trkpt lat="43.85125" lon="6.50862">
        <ele>755.25</ele>
        <time>2013-05-28T11:39:24Z</time>
      </trkpt>
      <trkpt lat="43.85121" lon="6.50858">
        <ele>755.25</ele>
        <time>2013-05-28T11:39:25Z</time>
      </trkpt>
      <trkpt lat="43.85096" lon="6.5085">
        <ele>752.37</ele>
        <time>2013-05-28T11:39:30Z</time>
      </trkpt>
      <trkpt lat="43.85083" lon="6.50846">
        <ele>749.97</ele>
        <time>2013-05-28T11:39:33Z</time>
      </trkpt>
      <trkpt lat="43.85064" lon="6.50832">
        <ele>745.64</ele>
        <time>2013-05-28T11:39:38Z</time>
      </trkpt>
      <trkpt lat="43.85064" lon="6.50832">
        <ele>745.64</ele>
        <time>2013-05-28T11:39:59Z</time>
      </trkpt>
      <trkpt lat="43.85061" lon="6.50833">
        <ele>746.12</ele>
        <time>2013-05-28T11:44:41Z</time>
      </trkpt>
      <trkpt lat="43.85108" lon="6.50811">
        <ele>747.56</ele>
        <time>2013-05-28T11:45:00Z</time>
      </trkpt>
      <trkpt lat="43.85169" lon="6.50804">
        <ele>749.49</ele>
        <time>2013-05-28T11:45:22Z</time>
      </trkpt>
      <trkpt lat="43.85155" lon="6.50772">
        <ele>748.52</ele>
        <time>2013-05-28T11:45:30Z</time>
      </trkpt>
      <trkpt lat="43.85141" lon="6.50781">
        <ele>749</ele>
        <time>2013-05-28T11:45:34Z</time>
      </trkpt>
      <trkpt lat="43.85123" lon="6.50798">
        <ele>748.52</ele>
        <time>2013-05-28T11:45:39Z</time>
      </trkpt>
      <trkpt lat="43.84997" lon="6.50863">
        <ele>743.72</ele>
        <time>2013-05-28T11:46:06Z</time>
      </trkpt>
      <trkpt lat="43.84905" lon="6.50913">
        <ele>738.91</ele>
        <time>2013-05-28T11:46:22Z</time>
      </trkpt>
      <trkpt lat="43.84899" lon="6.50918">
        <ele>738.91</ele>
        <time>2013-05-28T11:46:23Z</time>
      </trkpt>
      <trkpt lat="43.84809" lon="6.51078">
        <ele>732.66</ele>
        <time>2013-05-28T11:46:43Z</time>
      </trkpt>
      <trkpt lat="43.84773" lon="6.51164">
        <ele>728.34</ele>
        <time>2013-05-28T11:46:55Z</time>
      </trkpt>
      <trkpt lat="43.8477" lon="6.51173">
        <ele>727.37</ele>
        <time>2013-05-28T11:47:08Z</time>
      </trkpt>
      <trkpt lat="43.84766" lon="6.51188">
        <ele>727.37</ele>
        <time>2013-05-28T11:47:35Z</time>
      </trkpt>
      <trkpt lat="43.84757" lon="6.51198">
        <ele>726.41</ele>
        <time>2013-05-28T11:47:58Z</time>
      </trkpt>
      <trkpt lat="43.84708" lon="6.51215">
        <ele>725.93</ele>
        <time>2013-05-28T11:48:12Z</time>
      </trkpt>
      <trkpt lat="43.84656" lon="6.51261">
        <ele>725.93</ele>
        <time>2013-05-28T11:48:46Z</time>
      </trkpt>
      <trkpt lat="43.84655" lon="6.51268">
        <ele>725.93</ele>
        <time>2013-05-28T11:49:00Z</time>
      </trkpt>
      <trkpt lat="43.84644" lon="6.51261">
        <ele>725.93</ele>
        <time>2013-05-28T11:49:20Z</time>
      </trkpt>
      <trkpt lat="43.84672" lon="6.51248">
        <ele>725.45</ele>
        <time>2013-05-28T11:49:31Z</time>
      </trkpt>
      <trkpt lat="43.84685" lon="6.51234">
        <ele>724.49</ele>
        <time>2013-05-28T11:50:00Z</time>
      </trkpt>
      <trkpt lat="43.84687" lon="6.51242">
        <ele>724.97</ele>
        <time>2013-05-28T11:50:21Z</time>
      </trkpt>
      <trkpt lat="43.84664" lon="6.51243">
        <ele>724.97</ele>
        <time>2013-05-28T11:50:32Z</time>
      </trkpt>
      <trkpt lat="43.84612" lon="6.51235">
        <ele>725.93</ele>
        <time>2013-05-28T11:50:59Z</time>
      </trkpt>
      <trkpt lat="43.84609" lon="6.51257">
        <ele>725.93</ele>
        <time>2013-05-28T11:51:13Z</time>
      </trkpt>
      <trkpt lat="43.84628" lon="6.51267">
        <ele>725.93</ele>
        <time>2013-05-28T11:51:23Z</time>
      </trkpt>
      <trkpt lat="43.84616" lon="6.51265">
        <ele>725.45</ele>
        <time>2013-05-28T11:51:43Z</time>
      </trkpt>
      <trkpt lat="43.84617" lon="6.51196">
        <ele>725.93</ele>
        <time>2013-05-28T11:52:02Z</time>
      </trkpt>
      <trkpt lat="43.84621" lon="6.51028">
        <ele>725.45</ele>
        <time>2013-05-28T11:52:31Z</time>
      </trkpt>
      <trkpt lat="43.84625" lon="6.50873">
        <ele>724.49</ele>
        <time>2013-05-28T11:52:56Z</time>
      </trkpt>
      <trkpt lat="43.84623" lon="6.50866">
        <ele>724.49</ele>
        <time>2013-05-28T11:52:57Z</time>
      </trkpt>
      <trkpt lat="43.84594" lon="6.50713">
        <ele>724.49</ele>
        <time>2013-05-28T11:53:24Z</time>
      </trkpt>
      <trkpt lat="43.84607" lon="6.50705">
        <ele>724.49</ele>
        <time>2013-05-28T11:53:30Z</time>
      </trkpt>
      <trkpt lat="43.84605" lon="6.50694">
        <ele>724.01</ele>
        <time>2013-05-28T11:53:49Z</time>
      </trkpt>
      <trkpt lat="43.84608" lon="6.507">
        <ele>723.53</ele>
        <time>2013-05-28T11:56:03Z</time>
      </trkpt>
      <trkpt lat="43.84634" lon="6.50681">
        <ele>724.01</ele>
        <time>2013-05-28T11:58:50Z</time>
      </trkpt>
      <trkpt lat="43.84653" lon="6.50673">
        <ele>721.61</ele>
        <time>2013-05-29T07:29:47Z</time>
      </trkpt>
      <trkpt lat="43.84653" lon="6.50673">
        <ele>789.86</ele>
        <time>2013-05-29T07:29:48Z</time>
      </trkpt>
      <trkpt lat="43.84653" lon="6.50673">
        <ele>789.86</ele>
        <time>2013-05-29T07:30:30Z</time>
      </trkpt>
      <trkpt lat="43.84653" lon="6.50673">
        <ele>721.61</ele>
        <time>2013-05-29T07:38:16Z</time>
      </trkpt>
      <trkpt lat="43.84653" lon="6.50673">
        <ele>791.3</ele>
        <time>2013-05-29T07:38:30Z</time>
      </trkpt>
      <trkpt lat="43.84653" lon="6.50673">
        <ele>721.61</ele>
        <time>2013-05-29T08:24:35Z</time>
      </trkpt>
      <trkpt lat="43.84653" lon="6.50673">
        <ele>788.42</ele>
        <time>2013-05-29T08:24:36Z</time>
      </trkpt>
      <trkpt lat="43.84664" lon="6.50656">
        <ele>788.42</ele>
        <time>2013-05-29T08:26:24Z</time>
      </trkpt>
      <trkpt lat="43.84657" lon="6.50666">
        <ele>784.57</ele>
        <time>2013-05-29T08:28:09Z</time>
      </trkpt>
      <trkpt lat="43.84656" lon="6.50667">
        <ele>781.21</ele>
        <time>2013-05-29T08:28:11Z</time>
      </trkpt>
      <trkpt lat="43.84656" lon="6.50667">
        <ele>777.84</ele>
        <time>2013-05-29T08:28:13Z</time>
      </trkpt>
      <trkpt lat="43.84656" lon="6.50667">
        <ele>774</ele>
        <time>2013-05-29T08:28:15Z</time>
      </trkpt>
      <trkpt lat="43.84656" lon="6.50667">
        <ele>770.15</ele>
        <time>2013-05-29T08:28:18Z</time>
      </trkpt>
      <trkpt lat="43.84656" lon="6.50667">
        <ele>765.83</ele>
        <time>2013-05-29T08:28:21Z</time>
      </trkpt>
      <trkpt lat="43.84655" lon="6.50667">
        <ele>762.46</ele>
        <time>2013-05-29T08:28:24Z</time>
      </trkpt>
      <trkpt lat="43.84655" lon="6.50667">
        <ele>759.1</ele>
        <time>2013-05-29T08:28:27Z</time>
      </trkpt>
      <trkpt lat="43.84655" lon="6.50668">
        <ele>755.25</ele>
        <time>2013-05-29T08:28:31Z</time>
      </trkpt>
      <trkpt lat="43.84654" lon="6.50669">
        <ele>751.89</ele>
        <time>2013-05-29T08:28:35Z</time>
      </trkpt>
      <trkpt lat="43.84654" lon="6.50669">
        <ele>748.52</ele>
        <time>2013-05-29T08:28:40Z</time>
      </trkpt>
      <trkpt lat="43.84654" lon="6.50669">
        <ele>744.68</ele>
        <time>2013-05-29T08:28:46Z</time>
      </trkpt>
      <trkpt lat="43.84652" lon="6.50667">
        <ele>724.01</ele>
        <time>2013-05-29T08:34:26Z</time>
      </trkpt>
      <trkpt lat="43.84652" lon="6.50667">
        <ele>744.68</ele>
        <time>2013-05-29T08:34:30Z</time>
      </trkpt>
      <trkpt lat="43.84699" lon="6.50659">
        <ele>743.24</ele>
        <time>2013-05-29T08:34:31Z</time>
      </trkpt>
      <trkpt lat="43.8471" lon="6.50651">
        <ele>743.24</ele>
        <time>2013-05-29T08:34:39Z</time>
      </trkpt>
      <trkpt lat="43.84695" lon="6.50658">
        <ele>742.76</ele>
        <time>2013-05-29T08:34:52Z</time>
      </trkpt>
      <trkpt lat="43.84697" lon="6.5066">
        <ele>739.39</ele>
        <time>2013-05-29T08:35:21Z</time>
      </trkpt>
      <trkpt lat="43.84697" lon="6.50662">
        <ele>737.95</ele>
        <time>2013-05-29T08:40:09Z</time>
      </trkpt>
      <trkpt lat="43.84697" lon="6.50661">
        <ele>737.95</ele>
        <time>2013-05-29T08:40:27Z</time>
      </trkpt>
      <trkpt lat="43.84724" lon="6.50646">
        <ele>738.43</ele>
        <time>2013-05-29T08:40:45Z</time>
      </trkpt>
      <trkpt lat="43.84728" lon="6.50641">
        <ele>737.95</ele>
        <time>2013-05-29T08:41:04Z</time>
      </trkpt>
      <trkpt lat="43.84736" lon="6.50669">
        <ele>737.95</ele>
        <time>2013-05-29T08:41:22Z</time>
      </trkpt>
      <trkpt lat="43.84757" lon="6.50707">
        <ele>737.95</ele>
        <time>2013-05-29T08:41:40Z</time>
      </trkpt>
      <trkpt lat="43.84775" lon="6.50715">
        <ele>738.91</ele>
        <time>2013-05-29T08:41:57Z</time>
      </trkpt>
      <trkpt lat="43.84805" lon="6.50707">
        <ele>739.87</ele>
        <time>2013-05-29T08:42:16Z</time>
      </trkpt>
      <trkpt lat="43.84802" lon="6.50624">
        <ele>740.35</ele>
        <time>2013-05-29T08:42:40Z</time>
      </trkpt>
      <trkpt lat="43.84816" lon="6.50635">
        <ele>742.76</ele>
        <time>2013-05-29T08:42:54Z</time>
      </trkpt>
      <trkpt lat="43.84823" lon="6.50718">
        <ele>742.28</ele>
        <time>2013-05-29T08:43:12Z</time>
      </trkpt>
      <trkpt lat="43.84831" lon="6.50803">
        <ele>744.2</ele>
        <time>2013-05-29T08:43:38Z</time>
      </trkpt>
      <trkpt lat="43.84823" lon="6.50895">
        <ele>745.16</ele>
        <time>2013-05-29T08:44:18Z</time>
      </trkpt>
      <trkpt lat="43.84814" lon="6.51068">
        <ele>743.72</ele>
        <time>2013-05-29T08:44:50Z</time>
      </trkpt>
      <trkpt lat="43.84799" lon="6.51106">
        <ele>743.24</ele>
        <time>2013-05-29T08:44:56Z</time>
      </trkpt>
      <trkpt lat="43.84778" lon="6.51158">
        <ele>740.35</ele>
        <time>2013-05-29T08:45:18Z</time>
      </trkpt>
      <trkpt lat="43.84764" lon="6.51187">
        <ele>739.87</ele>
        <time>2013-05-29T08:46:15Z</time>
      </trkpt>
      <trkpt lat="43.84765" lon="6.51196">
        <ele>739.39</ele>
        <time>2013-05-29T08:46:41Z</time>
      </trkpt>
      <trkpt lat="43.8476" lon="6.51195">
        <ele>738.43</ele>
        <time>2013-05-29T08:46:47Z</time>
      </trkpt>
      <trkpt lat="43.84708" lon="6.51211">
        <ele>736.99</ele>
        <time>2013-05-29T08:47:00Z</time>
      </trkpt>
      <trkpt lat="43.84678" lon="6.51238">
        <ele>736.99</ele>
        <time>2013-05-29T08:47:09Z</time>
      </trkpt>
      <trkpt lat="43.84654" lon="6.5126">
        <ele>737.47</ele>
        <time>2013-05-29T08:47:32Z</time>
      </trkpt>
      <trkpt lat="43.84646" lon="6.51274">
        <ele>735.55</ele>
        <time>2013-05-29T08:52:58Z</time>
      </trkpt>
      <trkpt lat="43.84648" lon="6.51274">
        <ele>735.55</ele>
        <time>2013-05-29T08:53:27Z</time>
      </trkpt>
      <trkpt lat="43.84649" lon="6.51273">
        <ele>734.58</ele>
        <time>2013-05-29T08:55:09Z</time>
      </trkpt>
      <trkpt lat="43.84641" lon="6.51252">
        <ele>734.58</ele>
        <time>2013-05-29T08:55:20Z</time>
      </trkpt>
      <trkpt lat="43.84604" lon="6.5124">
        <ele>734.58</ele>
        <time>2013-05-29T08:55:45Z</time>
      </trkpt>
      <trkpt lat="43.84603" lon="6.51242">
        <ele>735.07</ele>
        <time>2013-05-29T08:59:21Z</time>
      </trkpt>
      <trkpt lat="43.84605" lon="6.51246">
        <ele>733.62</ele>
        <time>2013-05-29T09:08:22Z</time>
      </trkpt>
      <trkpt lat="43.84601" lon="6.51276">
        <ele>733.14</ele>
        <time>2013-05-29T09:08:32Z</time>
      </trkpt>
      <trkpt lat="43.84609" lon="6.51283">
        <ele>733.14</ele>
        <time>2013-05-29T09:08:40Z</time>
      </trkpt>
      <trkpt lat="43.84631" lon="6.51282">
        <ele>733.62</ele>
        <time>2013-05-29T09:08:53Z</time>
      </trkpt>
      <trkpt lat="43.84622" lon="6.51294">
        <ele>733.14</ele>
        <time>2013-05-29T09:09:05Z</time>
      </trkpt>
      <trkpt lat="43.84626" lon="6.51286">
        <ele>733.14</ele>
        <time>2013-05-29T09:09:17Z</time>
      </trkpt>
      <trkpt lat="43.84624" lon="6.51288">
        <ele>732.66</ele>
        <time>2013-05-29T09:10:03Z</time>
      </trkpt>
      <trkpt lat="43.84623" lon="6.51294">
        <ele>732.66</ele>
        <time>2013-05-29T09:11:25Z</time>
      </trkpt>
      <trkpt lat="43.84632" lon="6.51281">
        <ele>732.18</ele>
        <time>2013-05-29T09:11:36Z</time>
      </trkpt>
      <trkpt lat="43.84618" lon="6.51272">
        <ele>731.22</ele>
        <time>2013-05-29T09:11:54Z</time>
      </trkpt>
      <trkpt lat="43.84612" lon="6.51279">
        <ele>731.7</ele>
        <time>2013-05-29T09:12:26Z</time>
      </trkpt>
      <trkpt lat="43.84614" lon="6.5131">
        <ele>731.7</ele>
        <time>2013-05-29T09:13:59Z</time>
      </trkpt>
      <trkpt lat="43.84603" lon="6.51323">
        <ele>731.22</ele>
        <time>2013-05-29T09:17:34Z</time>
      </trkpt>
      <trkpt lat="43.84585" lon="6.51345">
        <ele>731.7</ele>
        <time>2013-05-29T09:18:42Z</time>
      </trkpt>
      <trkpt lat="43.84592" lon="6.51346">
        <ele>731.7</ele>
        <time>2013-05-29T09:20:02Z</time>
      </trkpt>
      <trkpt lat="43.84597" lon="6.51348">
        <ele>730.74</ele>
        <time>2013-05-29T09:21:58Z</time>
      </trkpt>
      <trkpt lat="43.84586" lon="6.51365">
        <ele>731.22</ele>
        <time>2013-05-29T09:22:13Z</time>
      </trkpt>
      <trkpt lat="43.84563" lon="6.51417">
        <ele>731.7</ele>
        <time>2013-05-29T09:22:38Z</time>
      </trkpt>
      <trkpt lat="43.84564" lon="6.51431">
        <ele>732.18</ele>
        <time>2013-05-29T09:23:03Z</time>
      </trkpt>
      <trkpt lat="43.84564" lon="6.51431">
        <ele>732.18</ele>
        <time>2013-05-29T09:23:43Z</time>
      </trkpt>
      <trkpt lat="43.8458" lon="6.51388">
        <ele>731.22</ele>
        <time>2013-05-29T09:23:55Z</time>
      </trkpt>
      <trkpt lat="43.84561" lon="6.51341">
        <ele>730.74</ele>
        <time>2013-05-29T09:24:18Z</time>
      </trkpt>
      <trkpt lat="43.84556" lon="6.51329">
        <ele>730.74</ele>
        <time>2013-05-29T09:25:00Z</time>
      </trkpt>
      <trkpt lat="43.84515" lon="6.51194">
        <ele>730.74</ele>
        <time>2013-05-29T09:25:33Z</time>
      </trkpt>
      <trkpt lat="43.84489" lon="6.51066">
        <ele>728.82</ele>
        <time>2013-05-29T09:26:01Z</time>
      </trkpt>
      <trkpt lat="43.84489" lon="6.51072">
        <ele>727.86</ele>
        <time>2013-05-29T09:26:04Z</time>
      </trkpt>
      <trkpt lat="43.84543" lon="6.51087">
        <ele>727.86</ele>
        <time>2013-05-29T09:26:26Z</time>
      </trkpt>
      <trkpt lat="43.84545" lon="6.5107">
        <ele>727.37</ele>
        <time>2013-05-29T09:26:48Z</time>
      </trkpt>
      <trkpt lat="43.84543" lon="6.51066">
        <ele>726.41</ele>
        <time>2013-05-29T09:28:32Z</time>
      </trkpt>
      <trkpt lat="43.84545" lon="6.51073">
        <ele>726.41</ele>
        <time>2013-05-29T09:28:40Z</time>
      </trkpt>
      <trkpt lat="43.84538" lon="6.51072">
        <ele>726.89</ele>
        <time>2013-05-29T09:28:53Z</time>
      </trkpt>
      <trkpt lat="43.84548" lon="6.5107">
        <ele>726.41</ele>
        <time>2013-05-29T09:29:12Z</time>
      </trkpt>
      <trkpt lat="43.84513" lon="6.51087">
        <ele>726.41</ele>
        <time>2013-05-29T09:29:30Z</time>
      </trkpt>
      <trkpt lat="43.8449" lon="6.51083">
        <ele>727.86</ele>
        <time>2013-05-29T09:29:46Z</time>
      </trkpt>
      <trkpt lat="43.84467" lon="6.50998">
        <ele>727.37</ele>
        <time>2013-05-29T09:30:03Z</time>
      </trkpt>
      <trkpt lat="43.84459" lon="6.50972">
        <ele>727.37</ele>
        <time>2013-05-29T09:30:09Z</time>
      </trkpt>
      <trkpt lat="43.84435" lon="6.50972">
        <ele>726.41</ele>
        <time>2013-05-29T09:30:16Z</time>
      </trkpt>
      <trkpt lat="43.84427" lon="6.50973">
        <ele>726.41</ele>
        <time>2013-05-29T09:30:18Z</time>
      </trkpt>
      <trkpt lat="43.84318" lon="6.50731">
        <ele>723.53</ele>
        <time>2013-05-29T09:31:08Z</time>
      </trkpt>
      <trkpt lat="43.84057" lon="6.50102">
        <ele>720.16</ele>
        <time>2013-05-29T09:33:06Z</time>
      </trkpt>
      <trkpt lat="43.84023" lon="6.50043">
        <ele>718.24</ele>
        <time>2013-05-29T09:33:33Z</time>
      </trkpt>
      <trkpt lat="43.83986" lon="6.49995">
        <ele>718.72</ele>
        <time>2013-05-29T09:33:56Z</time>
      </trkpt>
      <trkpt lat="43.83938" lon="6.49937">
        <ele>718.24</ele>
        <time>2013-05-29T09:34:11Z</time>
      </trkpt>
      <trkpt lat="43.83831" lon="6.4982">
        <ele>717.76</ele>
        <time>2013-05-29T09:34:40Z</time>
      </trkpt>
      <trkpt lat="43.83802" lon="6.49789">
        <ele>717.76</ele>
        <time>2013-05-29T09:34:48Z</time>
      </trkpt>
      <trkpt lat="43.83801" lon="6.49756">
        <ele>717.76</ele>
        <time>2013-05-29T09:34:56Z</time>
      </trkpt>
      <trkpt lat="43.83847" lon="6.4976">
        <ele>717.76</ele>
        <time>2013-05-29T09:35:06Z</time>
      </trkpt>
      <trkpt lat="43.839" lon="6.49768">
        <ele>716.8</ele>
        <time>2013-05-29T09:35:18Z</time>
      </trkpt>
      <trkpt lat="43.83967" lon="6.4973">
        <ele>717.76</ele>
        <time>2013-05-29T09:35:33Z</time>
      </trkpt>
      <trkpt lat="43.84164" lon="6.49629">
        <ele>719.68</ele>
        <time>2013-05-29T09:36:21Z</time>
      </trkpt>
      <trkpt lat="43.84177" lon="6.49628">
        <ele>720.65</ele>
        <time>2013-05-29T09:36:27Z</time>
      </trkpt>
      <trkpt lat="43.8417" lon="6.49611">
        <ele>721.13</ele>
        <time>2013-05-29T09:36:32Z</time>
      </trkpt>
      <trkpt lat="43.84077" lon="6.49497">
        <ele>722.57</ele>
        <time>2013-05-29T09:37:06Z</time>
      </trkpt>
      <trkpt lat="43.84005" lon="6.49409">
        <ele>728.34</ele>
        <time>2013-05-29T09:37:41Z</time>
      </trkpt>
      <trkpt lat="43.83951" lon="6.49306">
        <ele>733.62</ele>
        <time>2013-05-29T09:38:17Z</time>
      </trkpt>
      <trkpt lat="43.8387" lon="6.49232">
        <ele>742.76</ele>
        <time>2013-05-29T09:39:03Z</time>
      </trkpt>
      <trkpt lat="43.83821" lon="6.49194">
        <ele>747.56</ele>
        <time>2013-05-29T09:39:33Z</time>
      </trkpt>
      <trkpt lat="43.83802" lon="6.49187">
        <ele>749.97</ele>
        <time>2013-05-29T09:39:45Z</time>
      </trkpt>
      <trkpt lat="43.83783" lon="6.49144">
        <ele>756.69</ele>
        <time>2013-05-29T09:40:18Z</time>
      </trkpt>
      <trkpt lat="43.83777" lon="6.49089">
        <ele>761.02</ele>
        <time>2013-05-29T09:40:50Z</time>
      </trkpt>
      <trkpt lat="43.83806" lon="6.49006">
        <ele>763.9</ele>
        <time>2013-05-29T09:41:27Z</time>
      </trkpt>
      <trkpt lat="43.83823" lon="6.48985">
        <ele>761.98</ele>
        <time>2013-05-29T09:41:31Z</time>
      </trkpt>
      <trkpt lat="43.83859" lon="6.48931">
        <ele>761.02</ele>
        <time>2013-05-29T09:41:39Z</time>
      </trkpt>
      <trkpt lat="43.83857" lon="6.48904">
        <ele>761.02</ele>
        <time>2013-05-29T09:41:45Z</time>
      </trkpt>
      <trkpt lat="43.83832" lon="6.48902">
        <ele>764.39</ele>
        <time>2013-05-29T09:42:03Z</time>
      </trkpt>
      <trkpt lat="43.83817" lon="6.48897">
        <ele>768.23</ele>
        <time>2013-05-29T09:42:15Z</time>
      </trkpt>
      <trkpt lat="43.83794" lon="6.48847">
        <ele>771.6</ele>
        <time>2013-05-29T09:42:45Z</time>
      </trkpt>
      <trkpt lat="43.83769" lon="6.48779">
        <ele>775.44</ele>
        <time>2013-05-29T09:43:20Z</time>
      </trkpt>
      <trkpt lat="43.83757" lon="6.48761">
        <ele>776.88</ele>
        <time>2013-05-29T09:43:42Z</time>
      </trkpt>
      <trkpt lat="43.83695" lon="6.48715">
        <ele>781.69</ele>
        <time>2013-05-29T09:44:17Z</time>
      </trkpt>
      <trkpt lat="43.83655" lon="6.48712">
        <ele>785.05</ele>
        <time>2013-05-29T09:44:37Z</time>
      </trkpt>
      <trkpt lat="43.8362" lon="6.48701">
        <ele>789.38</ele>
        <time>2013-05-29T09:45:01Z</time>
      </trkpt>
      <trkpt lat="43.83633" lon="6.48652">
        <ele>791.78</ele>
        <time>2013-05-29T09:45:20Z</time>
      </trkpt>
      <trkpt lat="43.83648" lon="6.48635">
        <ele>791.78</ele>
        <time>2013-05-29T09:45:33Z</time>
      </trkpt>
      <trkpt lat="43.83647" lon="6.48637">
        <ele>786.5</ele>
        <time>2013-05-29T09:45:49Z</time>
      </trkpt>
      <trkpt lat="43.83647" lon="6.48637">
        <ele>792.74</ele>
        <time>2013-05-29T09:45:50Z</time>
      </trkpt>
      <trkpt lat="43.83675" lon="6.48585">
        <ele>794.67</ele>
        <time>2013-05-29T09:46:11Z</time>
      </trkpt>
      <trkpt lat="43.83677" lon="6.48582">
        <ele>794.67</ele>
        <time>2013-05-29T09:46:12Z</time>
      </trkpt>
      <trkpt lat="43.83681" lon="6.48573">
        <ele>795.63</ele>
        <time>2013-05-29T09:46:16Z</time>
      </trkpt>
      <trkpt lat="43.83678" lon="6.48513">
        <ele>799.47</ele>
        <time>2013-05-29T09:46:39Z</time>
      </trkpt>
      <trkpt lat="43.83668" lon="6.48464">
        <ele>801.88</ele>
        <time>2013-05-29T09:47:44Z</time>
      </trkpt>
      <trkpt lat="43.83658" lon="6.48401">
        <ele>804.76</ele>
        <time>2013-05-29T09:49:13Z</time>
      </trkpt>
      <trkpt lat="43.83623" lon="6.48315">
        <ele>812.93</ele>
        <time>2013-05-29T09:49:41Z</time>
      </trkpt>
      <trkpt lat="43.83597" lon="6.48251">
        <ele>811.97</ele>
        <time>2013-05-29T09:49:59Z</time>
      </trkpt>
      <trkpt lat="43.83549" lon="6.48198">
        <ele>814.85</ele>
        <time>2013-05-29T09:50:30Z</time>
      </trkpt>
      <trkpt lat="43.83491" lon="6.48151">
        <ele>819.18</ele>
        <time>2013-05-29T09:51:04Z</time>
      </trkpt>
      <trkpt lat="43.83469" lon="6.48047">
        <ele>824.47</ele>
        <time>2013-05-29T09:51:34Z</time>
      </trkpt>
      <trkpt lat="43.83455" lon="6.47896">
        <ele>825.91</ele>
        <time>2013-05-29T09:52:09Z</time>
      </trkpt>
      <trkpt lat="43.8344" lon="6.47823">
        <ele>831.68</ele>
        <time>2013-05-29T09:52:32Z</time>
      </trkpt>
      <trkpt lat="43.83421" lon="6.47729">
        <ele>836.48</ele>
        <time>2013-05-29T09:53:05Z</time>
      </trkpt>
      <trkpt lat="43.83399" lon="6.47702">
        <ele>839.85</ele>
        <time>2013-05-29T09:53:21Z</time>
      </trkpt>
      <trkpt lat="43.8339" lon="6.47674">
        <ele>843.21</ele>
        <time>2013-05-29T09:53:33Z</time>
      </trkpt>
      <trkpt lat="43.8339" lon="6.47669">
        <ele>842.25</ele>
        <time>2013-05-29T09:53:35Z</time>
      </trkpt>
      <trkpt lat="43.83384" lon="6.47535">
        <ele>846.58</ele>
        <time>2013-05-29T09:54:23Z</time>
      </trkpt>
      <trkpt lat="43.83388" lon="6.47519">
        <ele>846.58</ele>
        <time>2013-05-29T09:54:39Z</time>
      </trkpt>
      <trkpt lat="43.83388" lon="6.47519">
        <ele>846.58</ele>
        <time>2013-05-29T09:55:39Z</time>
      </trkpt>
      <trkpt lat="43.83388" lon="6.47517">
        <ele>847.06</ele>
        <time>2013-05-29T09:57:06Z</time>
      </trkpt>
      <trkpt lat="43.83404" lon="6.47455">
        <ele>849.46</ele>
        <time>2013-05-29T09:57:27Z</time>
      </trkpt>
      <trkpt lat="43.83392" lon="6.47418">
        <ele>852.35</ele>
        <time>2013-05-29T09:58:20Z</time>
      </trkpt>
      <trkpt lat="43.83397" lon="6.47433">
        <ele>853.79</ele>
        <time>2013-05-29T10:05:54Z</time>
      </trkpt>
      <trkpt lat="43.83403" lon="6.47455">
        <ele>852.83</ele>
        <time>2013-05-29T10:06:00Z</time>
      </trkpt>
      <trkpt lat="43.83397" lon="6.47496">
        <ele>851.38</ele>
        <time>2013-05-29T10:06:06Z</time>
      </trkpt>
      <trkpt lat="43.83376" lon="6.47571">
        <ele>849.46</ele>
        <time>2013-05-29T10:06:18Z</time>
      </trkpt>
      <trkpt lat="43.83394" lon="6.47643">
        <ele>845.14</ele>
        <time>2013-05-29T10:06:27Z</time>
      </trkpt>
      <trkpt lat="43.83394" lon="6.47651">
        <ele>845.14</ele>
        <time>2013-05-29T10:06:28Z</time>
      </trkpt>
      <trkpt lat="43.83402" lon="6.47713">
        <ele>843.21</ele>
        <time>2013-05-29T10:06:38Z</time>
      </trkpt>
      <trkpt lat="43.83424" lon="6.47754">
        <ele>839.37</ele>
        <time>2013-05-29T10:06:45Z</time>
      </trkpt>
      <trkpt lat="43.83427" lon="6.47791">
        <ele>836</ele>
        <time>2013-05-29T10:06:50Z</time>
      </trkpt>
      <trkpt lat="43.83438" lon="6.47871">
        <ele>830.72</ele>
        <time>2013-05-29T10:07:01Z</time>
      </trkpt>
      <trkpt lat="43.83454" lon="6.47911">
        <ele>828.79</ele>
        <time>2013-05-29T10:07:06Z</time>
      </trkpt>
      <trkpt lat="43.83457" lon="6.47921">
        <ele>828.79</ele>
        <time>2013-05-29T10:07:07Z</time>
      </trkpt>
      <trkpt lat="43.83471" lon="6.48034">
        <ele>827.83</ele>
        <time>2013-05-29T10:07:19Z</time>
      </trkpt>
      <trkpt lat="43.83467" lon="6.48076">
        <ele>824.47</ele>
        <time>2013-05-29T10:07:24Z</time>
      </trkpt>
      <trkpt lat="43.83467" lon="6.48085">
        <ele>826.87</ele>
        <time>2013-05-29T10:07:25Z</time>
      </trkpt>
      <trkpt lat="43.83494" lon="6.48168">
        <ele>821.58</ele>
        <time>2013-05-29T10:07:35Z</time>
      </trkpt>
      <trkpt lat="43.83521" lon="6.48189">
        <ele>819.18</ele>
        <time>2013-05-29T10:07:40Z</time>
      </trkpt>
      <trkpt lat="43.83558" lon="6.48214">
        <ele>817.26</ele>
        <time>2013-05-29T10:07:47Z</time>
      </trkpt>
      <trkpt lat="43.83599" lon="6.48262">
        <ele>814.37</ele>
        <time>2013-05-29T10:07:55Z</time>
      </trkpt>
      <trkpt lat="43.83637" lon="6.4835">
        <ele>810.53</ele>
        <time>2013-05-29T10:08:07Z</time>
      </trkpt>
      <trkpt lat="43.83662" lon="6.4843">
        <ele>806.68</ele>
        <time>2013-05-29T10:08:15Z</time>
      </trkpt>
      <trkpt lat="43.83678" lon="6.48515">
        <ele>802.84</ele>
        <time>2013-05-29T10:08:22Z</time>
      </trkpt>
      <trkpt lat="43.83684" lon="6.48549">
        <ele>798.99</ele>
        <time>2013-05-29T10:08:25Z</time>
      </trkpt>
      <trkpt lat="43.83677" lon="6.48591">
        <ele>797.55</ele>
        <time>2013-05-29T10:08:29Z</time>
      </trkpt>
      <trkpt lat="43.83649" lon="6.48634">
        <ele>794.67</ele>
        <time>2013-05-29T10:08:34Z</time>
      </trkpt>
      <trkpt lat="43.83619" lon="6.48697">
        <ele>791.3</ele>
        <time>2013-05-29T10:08:41Z</time>
      </trkpt>
      <trkpt lat="43.8363" lon="6.48715">
        <ele>789.86</ele>
        <time>2013-05-29T10:08:44Z</time>
      </trkpt>
      <trkpt lat="43.83637" lon="6.48717">
        <ele>788.9</ele>
        <time>2013-05-29T10:08:45Z</time>
      </trkpt>
      <trkpt lat="43.83644" lon="6.48719">
        <ele>787.94</ele>
        <time>2013-05-29T10:08:46Z</time>
      </trkpt>
      <trkpt lat="43.83679" lon="6.48725">
        <ele>784.57</ele>
        <time>2013-05-29T10:08:50Z</time>
      </trkpt>
      <trkpt lat="43.83689" lon="6.48726">
        <ele>784.57</ele>
        <time>2013-05-29T10:08:51Z</time>
      </trkpt>
      <trkpt lat="43.83719" lon="6.48734">
        <ele>782.65</ele>
        <time>2013-05-29T10:08:54Z</time>
      </trkpt>
      <trkpt lat="43.83755" lon="6.48764">
        <ele>778.81</ele>
        <time>2013-05-29T10:08:59Z</time>
      </trkpt>
      <trkpt lat="43.83789" lon="6.48842">
        <ele>774</ele>
        <time>2013-05-29T10:09:07Z</time>
      </trkpt>
      <trkpt lat="43.83808" lon="6.48892">
        <ele>770.15</ele>
        <time>2013-05-29T10:09:13Z</time>
      </trkpt>
      <trkpt lat="43.83841" lon="6.48913">
        <ele>763.9</ele>
        <time>2013-05-29T10:09:20Z</time>
      </trkpt>
      <trkpt lat="43.83863" lon="6.48917">
        <ele>760.06</ele>
        <time>2013-05-29T10:09:26Z</time>
      </trkpt>
      <trkpt lat="43.83864" lon="6.48921">
        <ele>760.06</ele>
        <time>2013-05-29T10:09:27Z</time>
      </trkpt>
      <trkpt lat="43.83844" lon="6.4897">
        <ele>759.58</ele>
        <time>2013-05-29T10:09:36Z</time>
      </trkpt>
      <trkpt lat="43.83803" lon="6.49019">
        <ele>763.42</ele>
        <time>2013-05-29T10:09:51Z</time>
      </trkpt>
      <trkpt lat="43.8379" lon="6.49063">
        <ele>763.42</ele>
        <time>2013-05-29T10:10:05Z</time>
      </trkpt>
      <trkpt lat="43.83773" lon="6.49118">
        <ele>759.58</ele>
        <time>2013-05-29T10:10:16Z</time>
      </trkpt>
      <trkpt lat="43.83788" lon="6.49161">
        <ele>755.73</ele>
        <time>2013-05-29T10:10:22Z</time>
      </trkpt>
      <trkpt lat="43.83799" lon="6.49188">
        <ele>751.41</ele>
        <time>2013-05-29T10:10:26Z</time>
      </trkpt>
      <trkpt lat="43.83835" lon="6.49211">
        <ele>747.56</ele>
        <time>2013-05-29T10:10:32Z</time>
      </trkpt>
      <trkpt lat="43.83852" lon="6.49225">
        <ele>745.16</ele>
        <time>2013-05-29T10:10:35Z</time>
      </trkpt>
      <trkpt lat="43.8388" lon="6.49248">
        <ele>741.31</ele>
        <time>2013-05-29T10:10:40Z</time>
      </trkpt>
      <trkpt lat="43.83886" lon="6.49253">
        <ele>741.31</ele>
        <time>2013-05-29T10:10:41Z</time>
      </trkpt>
      <trkpt lat="43.83943" lon="6.49296">
        <ele>735.07</ele>
        <time>2013-05-29T10:10:49Z</time>
      </trkpt>
      <trkpt lat="43.83972" lon="6.4935">
        <ele>731.7</ele>
        <time>2013-05-29T10:10:54Z</time>
      </trkpt>
      <trkpt lat="43.84002" lon="6.49415">
        <ele>728.34</ele>
        <time>2013-05-29T10:11:00Z</time>
      </trkpt>
      <trkpt lat="43.84008" lon="6.49422">
        <ele>728.34</ele>
        <time>2013-05-29T10:11:01Z</time>
      </trkpt>
      <trkpt lat="43.84051" lon="6.49471">
        <ele>724.97</ele>
        <time>2013-05-29T10:11:07Z</time>
      </trkpt>
      <trkpt lat="43.841" lon="6.49536">
        <ele>720.65</ele>
        <time>2013-05-29T10:11:15Z</time>
      </trkpt>
      <trkpt lat="43.84179" lon="6.49635">
        <ele>720.65</ele>
        <time>2013-05-29T10:11:30Z</time>
      </trkpt>
      <trkpt lat="43.84287" lon="6.49874">
        <ele>724.49</ele>
        <time>2013-05-29T10:12:07Z</time>
      </trkpt>
      <trkpt lat="43.84289" lon="6.49882">
        <ele>724.49</ele>
        <time>2013-05-29T10:12:08Z</time>
      </trkpt>
      <trkpt lat="43.84343" lon="6.50114">
        <ele>722.09</ele>
        <time>2013-05-29T10:12:35Z</time>
      </trkpt>
      <trkpt lat="43.84438" lon="6.50291">
        <ele>726.41</ele>
        <time>2013-05-29T10:13:06Z</time>
      </trkpt>
      <trkpt lat="43.8444" lon="6.50296">
        <ele>725.93</ele>
        <time>2013-05-29T10:13:07Z</time>
      </trkpt>
      <trkpt lat="43.8455" lon="6.50592">
        <ele>726.41</ele>
        <time>2013-05-29T10:13:56Z</time>
      </trkpt>
      <trkpt lat="43.8458" lon="6.50705">
        <ele>723.05</ele>
        <time>2013-05-29T10:14:14Z</time>
      </trkpt>
      <trkpt lat="43.84591" lon="6.50719">
        <ele>723.05</ele>
        <time>2013-05-29T10:14:18Z</time>
      </trkpt>
      <trkpt lat="43.84616" lon="6.50707">
        <ele>722.09</ele>
        <time>2013-05-29T10:14:28Z</time>
      </trkpt>
      <trkpt lat="43.84613" lon="6.50696">
        <ele>721.61</ele>
        <time>2013-05-29T10:14:40Z</time>
      </trkpt>
      <trkpt lat="43.84634" lon="6.50684">
        <ele>721.61</ele>
        <time>2013-05-29T10:14:53Z</time>
      </trkpt>
      <trkpt lat="43.84602" lon="6.50708">
        <ele>722.09</ele>
        <time>2013-05-29T10:15:09Z</time>
      </trkpt>
      <trkpt lat="43.84603" lon="6.5076">
        <ele>723.05</ele>
        <time>2013-05-29T10:15:24Z</time>
      </trkpt>
      <trkpt lat="43.84619" lon="6.50881">
        <ele>722.09</ele>
        <time>2013-05-29T10:15:43Z</time>
      </trkpt>
      <trkpt lat="43.84607" lon="6.51189">
        <ele>724.01</ele>
        <time>2013-05-29T10:16:27Z</time>
      </trkpt>
      <trkpt lat="43.84583" lon="6.51349">
        <ele>724.49</ele>
        <time>2013-05-29T10:16:56Z</time>
      </trkpt>
      <trkpt lat="43.84566" lon="6.51412">
        <ele>726.41</ele>
        <time>2013-05-29T10:17:07Z</time>
      </trkpt>
      <trkpt lat="43.84516" lon="6.51476">
        <ele>728.34</ele>
        <time>2013-05-29T10:17:25Z</time>
      </trkpt>
      <trkpt lat="43.84507" lon="6.51607">
        <ele>733.62</ele>
        <time>2013-05-29T10:17:54Z</time>
      </trkpt>
      <trkpt lat="43.84509" lon="6.51703">
        <ele>734.1</ele>
        <time>2013-05-29T10:19:12Z</time>
      </trkpt>
      <trkpt lat="43.84497" lon="6.5176">
        <ele>734.1</ele>
        <time>2013-05-29T10:19:26Z</time>
      </trkpt>
      <trkpt lat="43.84421" lon="6.52032">
        <ele>734.58</ele>
        <time>2013-05-29T10:20:04Z</time>
      </trkpt>
      <trkpt lat="43.84386" lon="6.52106">
        <ele>733.62</ele>
        <time>2013-05-29T10:20:18Z</time>
      </trkpt>
      <trkpt lat="43.84344" lon="6.5217">
        <ele>733.62</ele>
        <time>2013-05-29T10:20:30Z</time>
      </trkpt>
      <trkpt lat="43.84304" lon="6.52291">
        <ele>734.58</ele>
        <time>2013-05-29T10:20:48Z</time>
      </trkpt>
      <trkpt lat="43.842" lon="6.52663">
        <ele>733.62</ele>
        <time>2013-05-29T10:21:38Z</time>
      </trkpt>
      <trkpt lat="43.84217" lon="6.5277">
        <ele>733.62</ele>
        <time>2013-05-29T10:21:52Z</time>
      </trkpt>
      <trkpt lat="43.84256" lon="6.52919">
        <ele>734.58</ele>
        <time>2013-05-29T10:22:15Z</time>
      </trkpt>
      <trkpt lat="43.84316" lon="6.5317">
        <ele>738.91</ele>
        <time>2013-05-29T10:23:00Z</time>
      </trkpt>
      <trkpt lat="43.84373" lon="6.53412">
        <ele>742.76</ele>
        <time>2013-05-29T10:23:47Z</time>
      </trkpt>
      <trkpt lat="43.84369" lon="6.53451">
        <ele>744.2</ele>
        <time>2013-05-29T10:24:06Z</time>
      </trkpt>
      <trkpt lat="43.84365" lon="6.53453">
        <ele>744.68</ele>
        <time>2013-05-29T10:24:21Z</time>
      </trkpt>
      <trkpt lat="43.84324" lon="6.53497">
        <ele>748.04</ele>
        <time>2013-05-29T10:24:40Z</time>
      </trkpt>
      <trkpt lat="43.84269" lon="6.53572">
        <ele>753.33</ele>
        <time>2013-05-29T10:25:08Z</time>
      </trkpt>
      <trkpt lat="43.84226" lon="6.53695">
        <ele>760.06</ele>
        <time>2013-05-29T10:25:43Z</time>
      </trkpt>
      <trkpt lat="43.84199" lon="6.53808">
        <ele>765.83</ele>
        <time>2013-05-29T10:26:14Z</time>
      </trkpt>
      <trkpt lat="43.84202" lon="6.5387">
        <ele>769.19</ele>
        <time>2013-05-29T10:26:31Z</time>
      </trkpt>
      <trkpt lat="43.84256" lon="6.53927">
        <ele>776.88</ele>
        <time>2013-05-29T10:27:13Z</time>
      </trkpt>
      <trkpt lat="43.84293" lon="6.53905">
        <ele>780.25</ele>
        <time>2013-05-29T10:27:30Z</time>
      </trkpt>
      <trkpt lat="43.84367" lon="6.53943">
        <ele>785.53</ele>
        <time>2013-05-29T10:28:03Z</time>
      </trkpt>
      <trkpt lat="43.84452" lon="6.53997">
        <ele>788.9</ele>
        <time>2013-05-29T10:28:34Z</time>
      </trkpt>
      <trkpt lat="43.84504" lon="6.54024">
        <ele>787.94</ele>
        <time>2013-05-29T10:28:50Z</time>
      </trkpt>
      <trkpt lat="43.84599" lon="6.54111">
        <ele>786.5</ele>
        <time>2013-05-29T10:29:26Z</time>
      </trkpt>
      <trkpt lat="43.84599" lon="6.54124">
        <ele>790.34</ele>
        <time>2013-05-29T10:29:29Z</time>
      </trkpt>
      <trkpt lat="43.84624" lon="6.54198">
        <ele>790.34</ele>
        <time>2013-05-29T10:29:44Z</time>
      </trkpt>
      <trkpt lat="43.84603" lon="6.54264">
        <ele>791.3</ele>
        <time>2013-05-29T10:29:54Z</time>
      </trkpt>
      <trkpt lat="43.84611" lon="6.54304">
        <ele>791.78</ele>
        <time>2013-05-29T10:30:01Z</time>
      </trkpt>
      <trkpt lat="43.84661" lon="6.54423">
        <ele>791.78</ele>
        <time>2013-05-29T10:30:31Z</time>
      </trkpt>
      <trkpt lat="43.84667" lon="6.54437">
        <ele>790.34</ele>
        <time>2013-05-29T10:30:51Z</time>
      </trkpt>
      <trkpt lat="43.84678" lon="6.54463">
        <ele>790.82</ele>
        <time>2013-05-29T10:30:59Z</time>
      </trkpt>
      <trkpt lat="43.84717" lon="6.54515">
        <ele>791.78</ele>
        <time>2013-05-29T10:31:14Z</time>
      </trkpt>
      <trkpt lat="43.84771" lon="6.54549">
        <ele>792.26</ele>
        <time>2013-05-29T10:31:29Z</time>
      </trkpt>
      <trkpt lat="43.84802" lon="6.54532">
        <ele>793.22</ele>
        <time>2013-05-29T10:31:51Z</time>
      </trkpt>
      <trkpt lat="43.84898" lon="6.54553">
        <ele>793.71</ele>
        <time>2013-05-29T10:31:57Z</time>
      </trkpt>
      <trkpt lat="43.84899" lon="6.54569">
        <ele>794.67</ele>
        <time>2013-05-29T10:32:07Z</time>
      </trkpt>
      <trkpt lat="43.849" lon="6.5458">
        <ele>794.19</ele>
        <time>2013-05-29T10:32:55Z</time>
      </trkpt>
      <trkpt lat="43.84899" lon="6.54581">
        <ele>797.55</ele>
        <time>2013-05-29T10:33:29Z</time>
      </trkpt>
      <trkpt lat="43.84898" lon="6.54581">
        <ele>797.55</ele>
        <time>2013-05-29T10:33:30Z</time>
      </trkpt>
      <trkpt lat="43.84881" lon="6.54553">
        <ele>795.15</ele>
        <time>2013-05-29T10:34:51Z</time>
      </trkpt>
      <trkpt lat="43.84849" lon="6.54533">
        <ele>795.15</ele>
        <time>2013-05-29T10:35:01Z</time>
      </trkpt>
      <trkpt lat="43.84805" lon="6.54532">
        <ele>795.15</ele>
        <time>2013-05-29T10:35:10Z</time>
      </trkpt>
      <trkpt lat="43.84784" lon="6.54553">
        <ele>795.15</ele>
        <time>2013-05-29T10:35:14Z</time>
      </trkpt>
      <trkpt lat="43.84779" lon="6.54548">
        <ele>795.15</ele>
        <time>2013-05-29T10:35:15Z</time>
      </trkpt>
      <trkpt lat="43.84736" lon="6.54524">
        <ele>794.67</ele>
        <time>2013-05-29T10:35:27Z</time>
      </trkpt>
      <trkpt lat="43.84689" lon="6.54468">
        <ele>792.74</ele>
        <time>2013-05-29T10:35:41Z</time>
      </trkpt>
      <trkpt lat="43.84656" lon="6.54389">
        <ele>792.26</ele>
        <time>2013-05-29T10:35:59Z</time>
      </trkpt>
      <trkpt lat="43.84652" lon="6.54379">
        <ele>792.26</ele>
        <time>2013-05-29T10:36:01Z</time>
      </trkpt>
      <trkpt lat="43.84613" lon="6.54267">
        <ele>791.78</ele>
        <time>2013-05-29T10:36:22Z</time>
      </trkpt>
      <trkpt lat="43.84614" lon="6.54185">
        <ele>791.3</ele>
        <time>2013-05-29T10:36:34Z</time>
      </trkpt>
      <trkpt lat="43.84597" lon="6.54073">
        <ele>790.34</ele>
        <time>2013-05-29T10:36:51Z</time>
      </trkpt>
      <trkpt lat="43.8459" lon="6.54062">
        <ele>791.3</ele>
        <time>2013-05-29T10:36:53Z</time>
      </trkpt>
      <trkpt lat="43.84568" lon="6.54025">
        <ele>789.86</ele>
        <time>2013-05-29T10:37:01Z</time>
      </trkpt>
      <trkpt lat="43.84478" lon="6.54014">
        <ele>788.42</ele>
        <time>2013-05-29T10:37:18Z</time>
      </trkpt>
      <trkpt lat="43.84474" lon="6.54013">
        <ele>788.42</ele>
        <time>2013-05-29T10:37:19Z</time>
      </trkpt>
      <trkpt lat="43.84429" lon="6.53976">
        <ele>789.38</ele>
        <time>2013-05-29T10:37:31Z</time>
      </trkpt>
      <trkpt lat="43.84409" lon="6.53967">
        <ele>788.9</ele>
        <time>2013-05-29T10:37:50Z</time>
      </trkpt>
      <trkpt lat="43.84414" lon="6.53977">
        <ele>789.86</ele>
        <time>2013-05-29T10:37:56Z</time>
      </trkpt>
      <trkpt lat="43.84416" lon="6.54007">
        <ele>793.71</ele>
        <time>2013-05-29T10:38:15Z</time>
      </trkpt>
      <trkpt lat="43.84424" lon="6.54033">
        <ele>798.51</ele>
        <time>2013-05-29T10:38:32Z</time>
      </trkpt>
      <trkpt lat="43.84425" lon="6.54034">
        <ele>798.03</ele>
        <time>2013-05-29T10:38:33Z</time>
      </trkpt>
      <trkpt lat="43.84426" lon="6.54035">
        <ele>798.51</ele>
        <time>2013-05-29T10:38:34Z</time>
      </trkpt>
      <trkpt lat="43.84439" lon="6.54089">
        <ele>804.28</ele>
        <time>2013-05-29T10:39:08Z</time>
      </trkpt>
      <trkpt lat="43.84448" lon="6.54118">
        <ele>808.13</ele>
        <time>2013-05-29T10:39:38Z</time>
      </trkpt>
      <trkpt lat="43.84453" lon="6.54153">
        <ele>811.97</ele>
        <time>2013-05-29T10:40:03Z</time>
      </trkpt>
      <trkpt lat="43.84459" lon="6.54187">
        <ele>816.3</ele>
        <time>2013-05-29T10:40:27Z</time>
      </trkpt>
      <trkpt lat="43.84461" lon="6.54214">
        <ele>819.66</ele>
        <time>2013-05-29T10:40:43Z</time>
      </trkpt>
      <trkpt lat="43.84462" lon="6.54218">
        <ele>819.66</ele>
        <time>2013-05-29T10:40:46Z</time>
      </trkpt>
      <trkpt lat="43.84466" lon="6.54234">
        <ele>822.06</ele>
        <time>2013-05-29T10:40:59Z</time>
      </trkpt>
      <trkpt lat="43.84454" lon="6.54272">
        <ele>825.43</ele>
        <time>2013-05-29T10:41:26Z</time>
      </trkpt>
      <trkpt lat="43.84449" lon="6.54307">
        <ele>828.79</ele>
        <time>2013-05-29T10:41:51Z</time>
      </trkpt>
      <trkpt lat="43.84443" lon="6.54344">
        <ele>833.12</ele>
        <time>2013-05-29T10:42:13Z</time>
      </trkpt>
      <trkpt lat="43.8444" lon="6.54394">
        <ele>837.93</ele>
        <time>2013-05-29T10:42:55Z</time>
      </trkpt>
      <trkpt lat="43.84435" lon="6.54421">
        <ele>841.77</ele>
        <time>2013-05-29T10:43:29Z</time>
      </trkpt>
      <trkpt lat="43.84436" lon="6.54446">
        <ele>845.14</ele>
        <time>2013-05-29T10:43:46Z</time>
      </trkpt>
      <trkpt lat="43.84435" lon="6.54474">
        <ele>849.46</ele>
        <time>2013-05-29T10:44:09Z</time>
      </trkpt>
      <trkpt lat="43.8443" lon="6.54517">
        <ele>855.23</ele>
        <time>2013-05-29T10:44:46Z</time>
      </trkpt>
      <trkpt lat="43.84427" lon="6.54537">
        <ele>858.59</ele>
        <time>2013-05-29T10:45:03Z</time>
      </trkpt>
      <trkpt lat="43.8442" lon="6.54583">
        <ele>863.88</ele>
        <time>2013-05-29T10:45:39Z</time>
      </trkpt>
      <trkpt lat="43.84411" lon="6.54635">
        <ele>867.73</ele>
        <time>2013-05-29T10:46:10Z</time>
      </trkpt>
      <trkpt lat="43.84402" lon="6.54666">
        <ele>871.09</ele>
        <time>2013-05-29T10:46:36Z</time>
      </trkpt>
      <trkpt lat="43.8439" lon="6.54698">
        <ele>874.46</ele>
        <time>2013-05-29T10:47:04Z</time>
      </trkpt>
      <trkpt lat="43.8439" lon="6.54705">
        <ele>874.46</ele>
        <time>2013-05-29T10:47:12Z</time>
      </trkpt>
      <trkpt lat="43.84383" lon="6.54729">
        <ele>878.78</ele>
        <time>2013-05-29T10:47:29Z</time>
      </trkpt>
      <trkpt lat="43.84388" lon="6.54772">
        <ele>884.55</ele>
        <time>2013-05-29T10:48:03Z</time>
      </trkpt>
      <trkpt lat="43.84388" lon="6.54774">
        <ele>884.55</ele>
        <time>2013-05-29T10:48:05Z</time>
      </trkpt>
      <trkpt lat="43.84388" lon="6.54841">
        <ele>892.72</ele>
        <time>2013-05-29T10:48:54Z</time>
      </trkpt>
      <trkpt lat="43.84385" lon="6.54865">
        <ele>896.57</ele>
        <time>2013-05-29T10:49:15Z</time>
      </trkpt>
      <trkpt lat="43.84384" lon="6.549">
        <ele>901.85</ele>
        <time>2013-05-29T10:49:47Z</time>
      </trkpt>
      <trkpt lat="43.84387" lon="6.54933">
        <ele>905.7</ele>
        <time>2013-05-29T10:50:21Z</time>
      </trkpt>
      <trkpt lat="43.84397" lon="6.54957">
        <ele>909.06</ele>
        <time>2013-05-29T10:50:40Z</time>
      </trkpt>
      <trkpt lat="43.84409" lon="6.54998">
        <ele>912.43</ele>
        <time>2013-05-29T10:51:11Z</time>
      </trkpt>
      <trkpt lat="43.84403" lon="6.55038">
        <ele>917.24</ele>
        <time>2013-05-29T10:51:43Z</time>
      </trkpt>
      <trkpt lat="43.84401" lon="6.55069">
        <ele>920.6</ele>
        <time>2013-05-29T10:52:03Z</time>
      </trkpt>
      <trkpt lat="43.844" lon="6.55113">
        <ele>923.96</ele>
        <time>2013-05-29T10:52:33Z</time>
      </trkpt>
      <trkpt lat="43.84398" lon="6.55129">
        <ele>927.33</ele>
        <time>2013-05-29T10:52:45Z</time>
      </trkpt>
      <trkpt lat="43.84403" lon="6.55179">
        <ele>931.65</ele>
        <time>2013-05-29T10:53:24Z</time>
      </trkpt>
      <trkpt lat="43.84409" lon="6.55217">
        <ele>935.98</ele>
        <time>2013-05-29T10:53:57Z</time>
      </trkpt>
      <trkpt lat="43.84411" lon="6.55238">
        <ele>939.35</ele>
        <time>2013-05-29T10:54:15Z</time>
      </trkpt>
      <trkpt lat="43.84418" lon="6.55273">
        <ele>944.63</ele>
        <time>2013-05-29T10:54:49Z</time>
      </trkpt>
      <trkpt lat="43.84426" lon="6.55302">
        <ele>949.44</ele>
        <time>2013-05-29T10:55:17Z</time>
      </trkpt>
      <trkpt lat="43.84436" lon="6.55339">
        <ele>953.28</ele>
        <time>2013-05-29T10:55:53Z</time>
      </trkpt>
      <trkpt lat="43.84435" lon="6.55376">
        <ele>958.09</ele>
        <time>2013-05-29T10:56:25Z</time>
      </trkpt>
      <trkpt lat="43.84438" lon="6.55393">
        <ele>961.46</ele>
        <time>2013-05-29T10:56:42Z</time>
      </trkpt>
      <trkpt lat="43.84439" lon="6.55424">
        <ele>966.74</ele>
        <time>2013-05-29T10:57:16Z</time>
      </trkpt>
      <trkpt lat="43.84444" lon="6.55458">
        <ele>972.03</ele>
        <time>2013-05-29T10:57:47Z</time>
      </trkpt>
      <trkpt lat="43.84461" lon="6.5547">
        <ele>976.36</ele>
        <time>2013-05-29T10:58:14Z</time>
      </trkpt>
      <trkpt lat="43.84459" lon="6.55511">
        <ele>981.16</ele>
        <time>2013-05-29T10:58:50Z</time>
      </trkpt>
      <trkpt lat="43.84456" lon="6.55544">
        <ele>985.01</ele>
        <time>2013-05-29T10:59:17Z</time>
      </trkpt>
      <trkpt lat="43.84451" lon="6.55572">
        <ele>988.37</ele>
        <time>2013-05-29T10:59:49Z</time>
      </trkpt>
      <trkpt lat="43.84442" lon="6.55611">
        <ele>994.14</ele>
        <time>2013-05-29T11:00:20Z</time>
      </trkpt>
      <trkpt lat="43.84437" lon="6.55657">
        <ele>998.95</ele>
        <time>2013-05-29T11:00:59Z</time>
      </trkpt>
      <trkpt lat="43.84441" lon="6.55715">
        <ele>1003.27</ele>
        <time>2013-05-29T11:01:39Z</time>
      </trkpt>
      <trkpt lat="43.84445" lon="6.55798">
        <ele>1007.6</ele>
        <time>2013-05-29T11:02:20Z</time>
      </trkpt>
      <trkpt lat="43.84452" lon="6.559">
        <ele>1013.37</ele>
        <time>2013-05-29T11:03:04Z</time>
      </trkpt>
      <trkpt lat="43.84467" lon="6.5599">
        <ele>1020.1</ele>
        <time>2013-05-29T11:03:48Z</time>
      </trkpt>
      <trkpt lat="43.84476" lon="6.56029">
        <ele>1023.46</ele>
        <time>2013-05-29T11:04:08Z</time>
      </trkpt>
      <trkpt lat="43.84489" lon="6.56104">
        <ele>1028.75</ele>
        <time>2013-05-29T11:04:47Z</time>
      </trkpt>
      <trkpt lat="43.84494" lon="6.56142">
        <ele>1032.59</ele>
        <time>2013-05-29T11:05:07Z</time>
      </trkpt>
      <trkpt lat="43.84502" lon="6.56185">
        <ele>1032.59</ele>
        <time>2013-05-29T11:05:27Z</time>
      </trkpt>
      <trkpt lat="43.84503" lon="6.56203">
        <ele>1036.44</ele>
        <time>2013-05-29T11:05:36Z</time>
      </trkpt>
      <trkpt lat="43.84502" lon="6.56227">
        <ele>1039.8</ele>
        <time>2013-05-29T11:05:51Z</time>
      </trkpt>
      <trkpt lat="43.84515" lon="6.56279">
        <ele>1043.65</ele>
        <time>2013-05-29T11:06:31Z</time>
      </trkpt>
      <trkpt lat="43.84519" lon="6.56316">
        <ele>1047.01</ele>
        <time>2013-05-29T11:06:59Z</time>
      </trkpt>
      <trkpt lat="43.84523" lon="6.5635">
        <ele>1051.34</ele>
        <time>2013-05-29T11:07:28Z</time>
      </trkpt>
      <trkpt lat="43.84531" lon="6.56385">
        <ele>1055.18</ele>
        <time>2013-05-29T11:07:57Z</time>
      </trkpt>
      <trkpt lat="43.84539" lon="6.56424">
        <ele>1061.43</ele>
        <time>2013-05-29T11:08:29Z</time>
      </trkpt>
      <trkpt lat="43.84541" lon="6.56436">
        <ele>1064.8</ele>
        <time>2013-05-29T11:08:41Z</time>
      </trkpt>
      <trkpt lat="43.84542" lon="6.56442">
        <ele>1064.32</ele>
        <time>2013-05-29T11:08:46Z</time>
      </trkpt>
      <trkpt lat="43.8455" lon="6.56484">
        <ele>1069.12</ele>
        <time>2013-05-29T11:09:27Z</time>
      </trkpt>
      <trkpt lat="43.84553" lon="6.56509">
        <ele>1075.37</ele>
        <time>2013-05-29T11:09:54Z</time>
      </trkpt>
      <trkpt lat="43.84559" lon="6.56538">
        <ele>1079.7</ele>
        <time>2013-05-29T11:10:34Z</time>
      </trkpt>
      <trkpt lat="43.84564" lon="6.56549">
        <ele>1083.54</ele>
        <time>2013-05-29T11:10:58Z</time>
      </trkpt>
      <trkpt lat="43.84572" lon="6.56558">
        <ele>1087.39</ele>
        <time>2013-05-29T11:11:44Z</time>
      </trkpt>
      <trkpt lat="43.84582" lon="6.56572">
        <ele>1091.23</ele>
        <time>2013-05-29T11:12:07Z</time>
      </trkpt>
      <trkpt lat="43.84582" lon="6.56573">
        <ele>1091.23</ele>
        <time>2013-05-29T11:12:08Z</time>
      </trkpt>
      <trkpt lat="43.84593" lon="6.56626">
        <ele>1095.56</ele>
        <time>2013-05-29T11:12:42Z</time>
      </trkpt>
      <trkpt lat="43.84597" lon="6.56648">
        <ele>1099.89</ele>
        <time>2013-05-29T11:12:59Z</time>
      </trkpt>
      <trkpt lat="43.84602" lon="6.56663">
        <ele>1103.25</ele>
        <time>2013-05-29T11:13:12Z</time>
      </trkpt>
      <trkpt lat="43.84606" lon="6.56694">
        <ele>1108.06</ele>
        <time>2013-05-29T11:13:42Z</time>
      </trkpt>
      <trkpt lat="43.84618" lon="6.56755">
        <ele>1112.38</ele>
        <time>2013-05-29T11:14:25Z</time>
      </trkpt>
      <trkpt lat="43.84624" lon="6.56795">
        <ele>1115.75</ele>
        <time>2013-05-29T11:14:57Z</time>
      </trkpt>
      <trkpt lat="43.84634" lon="6.56831">
        <ele>1119.59</ele>
        <time>2013-05-29T11:15:27Z</time>
      </trkpt>
      <trkpt lat="43.84633" lon="6.56862">
        <ele>1122.96</ele>
        <time>2013-05-29T11:15:55Z</time>
      </trkpt>
      <trkpt lat="43.84638" lon="6.56901">
        <ele>1127.76</ele>
        <time>2013-05-29T11:16:33Z</time>
      </trkpt>
      <trkpt lat="43.84638" lon="6.56916">
        <ele>1131.13</ele>
        <time>2013-05-29T11:16:47Z</time>
      </trkpt>
      <trkpt lat="43.84638" lon="6.56941">
        <ele>1134.49</ele>
        <time>2013-05-29T11:17:14Z</time>
      </trkpt>
      <trkpt lat="43.8464" lon="6.56945">
        <ele>1134.49</ele>
        <time>2013-05-29T11:17:17Z</time>
      </trkpt>
      <trkpt lat="43.84643" lon="6.5696">
        <ele>1138.34</ele>
        <time>2013-05-29T11:17:33Z</time>
      </trkpt>
      <trkpt lat="43.84649" lon="6.56987">
        <ele>1142.18</ele>
        <time>2013-05-29T11:18:03Z</time>
      </trkpt>
      <trkpt lat="43.84654" lon="6.57012">
        <ele>1146.03</ele>
        <time>2013-05-29T11:18:31Z</time>
      </trkpt>
      <trkpt lat="43.84654" lon="6.57012">
        <ele>1146.03</ele>
        <time>2013-05-29T11:18:32Z</time>
      </trkpt>
      <trkpt lat="43.84654" lon="6.57046">
        <ele>1149.87</ele>
        <time>2013-05-29T11:19:05Z</time>
      </trkpt>
      <trkpt lat="43.84656" lon="6.5706">
        <ele>1153.72</ele>
        <time>2013-05-29T11:19:28Z</time>
      </trkpt>
      <trkpt lat="43.84658" lon="6.5707">
        <ele>1153.72</ele>
        <time>2013-05-29T11:19:42Z</time>
      </trkpt>
      <trkpt lat="43.8466" lon="6.57094">
        <ele>1157.08</ele>
        <time>2013-05-29T11:20:30Z</time>
      </trkpt>
      <trkpt lat="43.8465" lon="6.57117">
        <ele>1160.93</ele>
        <time>2013-05-29T11:21:00Z</time>
      </trkpt>
      <trkpt lat="43.84639" lon="6.57142">
        <ele>1166.7</ele>
        <time>2013-05-29T11:21:28Z</time>
      </trkpt>
      <trkpt lat="43.84625" lon="6.57156">
        <ele>1169.1</ele>
        <time>2013-05-29T11:22:12Z</time>
      </trkpt>
      <trkpt lat="43.84621" lon="6.57175">
        <ele>1174.39</ele>
        <time>2013-05-29T11:22:40Z</time>
      </trkpt>
      <trkpt lat="43.84621" lon="6.57198">
        <ele>1178.23</ele>
        <time>2013-05-29T11:23:05Z</time>
      </trkpt>
      <trkpt lat="43.84629" lon="6.57225">
        <ele>1182.56</ele>
        <time>2013-05-29T11:23:35Z</time>
      </trkpt>
      <trkpt lat="43.84632" lon="6.5725">
        <ele>1186.88</ele>
        <time>2013-05-29T11:24:04Z</time>
      </trkpt>
      <trkpt lat="43.84633" lon="6.57264">
        <ele>1190.25</ele>
        <time>2013-05-29T11:24:21Z</time>
      </trkpt>
      <trkpt lat="43.84634" lon="6.57292">
        <ele>1194.58</ele>
        <time>2013-05-29T11:25:00Z</time>
      </trkpt>
      <trkpt lat="43.84642" lon="6.57318">
        <ele>1200.82</ele>
        <time>2013-05-29T11:25:30Z</time>
      </trkpt>
      <trkpt lat="43.84653" lon="6.5735">
        <ele>1204.67</ele>
        <time>2013-05-29T11:26:03Z</time>
      </trkpt>
      <trkpt lat="43.84674" lon="6.57397">
        <ele>1209.48</ele>
        <time>2013-05-29T11:26:49Z</time>
      </trkpt>
      <trkpt lat="43.84679" lon="6.57413">
        <ele>1208.03</ele>
        <time>2013-05-29T11:27:56Z</time>
      </trkpt>
      <trkpt lat="43.84681" lon="6.57415">
        <ele>1209.96</ele>
        <time>2013-05-29T11:30:22Z</time>
      </trkpt>
      <trkpt lat="43.84682" lon="6.57434">
        <ele>1213.8</ele>
        <time>2013-05-29T11:30:49Z</time>
      </trkpt>
      <trkpt lat="43.84693" lon="6.57482">
        <ele>1219.57</ele>
        <time>2013-05-29T11:31:25Z</time>
      </trkpt>
      <trkpt lat="43.84698" lon="6.57501">
        <ele>1223.42</ele>
        <time>2013-05-29T11:31:41Z</time>
      </trkpt>
      <trkpt lat="43.8471" lon="6.57546">
        <ele>1228.7</ele>
        <time>2013-05-29T11:32:19Z</time>
      </trkpt>
      <trkpt lat="43.84719" lon="6.57582">
        <ele>1233.99</ele>
        <time>2013-05-29T11:32:53Z</time>
      </trkpt>
      <trkpt lat="43.84726" lon="6.57627">
        <ele>1239.76</ele>
        <time>2013-05-29T11:33:32Z</time>
      </trkpt>
      <trkpt lat="43.84728" lon="6.57644">
        <ele>1243.12</ele>
        <time>2013-05-29T11:33:47Z</time>
      </trkpt>
      <trkpt lat="43.84744" lon="6.57684">
        <ele>1249.37</ele>
        <time>2013-05-29T11:34:25Z</time>
      </trkpt>
      <trkpt lat="43.84734" lon="6.57697">
        <ele>1252.74</ele>
        <time>2013-05-29T11:34:44Z</time>
      </trkpt>
      <trkpt lat="43.84736" lon="6.57718">
        <ele>1256.58</ele>
        <time>2013-05-29T11:35:12Z</time>
      </trkpt>
      <trkpt lat="43.84757" lon="6.57751">
        <ele>1259.94</ele>
        <time>2013-05-29T11:35:45Z</time>
      </trkpt>
      <trkpt lat="43.84773" lon="6.57775">
        <ele>1264.75</ele>
        <time>2013-05-29T11:36:11Z</time>
      </trkpt>
      <trkpt lat="43.8479" lon="6.57804">
        <ele>1268.12</ele>
        <time>2013-05-29T11:36:40Z</time>
      </trkpt>
      <trkpt lat="43.8482" lon="6.57848">
        <ele>1271.96</ele>
        <time>2013-05-29T11:37:09Z</time>
      </trkpt>
      <trkpt lat="43.84857" lon="6.57901">
        <ele>1277.73</ele>
        <time>2013-05-29T11:37:44Z</time>
      </trkpt>
      <trkpt lat="43.84885" lon="6.57941">
        <ele>1281.09</ele>
        <time>2013-05-29T11:38:17Z</time>
      </trkpt>
      <trkpt lat="43.84916" lon="6.57978">
        <ele>1284.46</ele>
        <time>2013-05-29T11:38:48Z</time>
      </trkpt>
      <trkpt lat="43.84959" lon="6.5801">
        <ele>1283.02</ele>
        <time>2013-05-29T11:39:11Z</time>
      </trkpt>
      <trkpt lat="43.85004" lon="6.58115">
        <ele>1281.57</ele>
        <time>2013-05-29T11:39:39Z</time>
      </trkpt>
      <trkpt lat="43.85038" lon="6.5818">
        <ele>1278.21</ele>
        <time>2013-05-29T11:39:52Z</time>
      </trkpt>
      <trkpt lat="43.85076" lon="6.58269">
        <ele>1277.25</ele>
        <time>2013-05-29T11:40:10Z</time>
      </trkpt>
      <trkpt lat="43.85143" lon="6.58424">
        <ele>1274.36</ele>
        <time>2013-05-29T11:40:51Z</time>
      </trkpt>
      <trkpt lat="43.85171" lon="6.58519">
        <ele>1269.56</ele>
        <time>2013-05-29T11:41:06Z</time>
      </trkpt>
      <trkpt lat="43.85184" lon="6.58574">
        <ele>1266.67</ele>
        <time>2013-05-29T11:41:11Z</time>
      </trkpt>
      <trkpt lat="43.85208" lon="6.58609">
        <ele>1264.75</ele>
        <time>2013-05-29T11:41:16Z</time>
      </trkpt>
      <trkpt lat="43.8521" lon="6.58618">
        <ele>1263.79</ele>
        <time>2013-05-29T11:41:17Z</time>
      </trkpt>
      <trkpt lat="43.85215" lon="6.58638">
        <ele>1261.87</ele>
        <time>2013-05-29T11:41:24Z</time>
      </trkpt>
      <trkpt lat="43.85248" lon="6.58692">
        <ele>1261.87</ele>
        <time>2013-05-29T11:41:44Z</time>
      </trkpt>
      <trkpt lat="43.85314" lon="6.58808">
        <ele>1263.31</ele>
        <time>2013-05-29T11:42:21Z</time>
      </trkpt>
      <trkpt lat="43.85377" lon="6.58885">
        <ele>1260.43</ele>
        <time>2013-05-29T11:42:43Z</time>
      </trkpt>
      <trkpt lat="43.85434" lon="6.58999">
        <ele>1256.1</ele>
        <time>2013-05-29T11:43:10Z</time>
      </trkpt>
      <trkpt lat="43.85435" lon="6.59003">
        <ele>1256.58</ele>
        <time>2013-05-29T11:43:11Z</time>
      </trkpt>
      <trkpt lat="43.85436" lon="6.59011">
        <ele>1255.62</ele>
        <time>2013-05-29T11:45:37Z</time>
      </trkpt>
      <trkpt lat="43.85434" lon="6.59031">
        <ele>1254.66</ele>
        <time>2013-05-29T11:45:50Z</time>
      </trkpt>
      <trkpt lat="43.85436" lon="6.59049">
        <ele>1251.29</ele>
        <time>2013-05-29T11:46:03Z</time>
      </trkpt>
      <trkpt lat="43.85435" lon="6.59049">
        <ele>1251.29</ele>
        <time>2013-05-29T11:46:30Z</time>
      </trkpt>
      <trkpt lat="43.85435" lon="6.59046">
        <ele>1251.77</ele>
        <time>2013-05-29T11:47:05Z</time>
      </trkpt>
      <trkpt lat="43.8543" lon="6.59026">
        <ele>1255.14</ele>
        <time>2013-05-29T11:47:16Z</time>
      </trkpt>
      <trkpt lat="43.85433" lon="6.5902">
        <ele>1255.14</ele>
        <time>2013-05-29T11:47:19Z</time>
      </trkpt>
      <trkpt lat="43.85423" lon="6.58989">
        <ele>1256.1</ele>
        <time>2013-05-29T11:47:43Z</time>
      </trkpt>
      <trkpt lat="43.85382" lon="6.58922">
        <ele>1258.02</ele>
        <time>2013-05-29T11:48:14Z</time>
      </trkpt>
      <trkpt lat="43.85345" lon="6.58854">
        <ele>1261.39</ele>
        <time>2013-05-29T11:48:40Z</time>
      </trkpt>
      <trkpt lat="43.85283" lon="6.58757">
        <ele>1263.31</ele>
        <time>2013-05-29T11:49:24Z</time>
      </trkpt>
      <trkpt lat="43.8521" lon="6.58611">
        <ele>1262.35</ele>
        <time>2013-05-29T11:50:12Z</time>
      </trkpt>
      <trkpt lat="43.8518" lon="6.58542">
        <ele>1265.71</ele>
        <time>2013-05-29T11:50:40Z</time>
      </trkpt>
      <trkpt lat="43.85167" lon="6.58479">
        <ele>1270.52</ele>
        <time>2013-05-29T11:51:09Z</time>
      </trkpt>
      <trkpt lat="43.85145" lon="6.58397">
        <ele>1273.88</ele>
        <time>2013-05-29T11:51:46Z</time>
      </trkpt>
      <trkpt lat="43.85105" lon="6.58336">
        <ele>1273.88</ele>
        <time>2013-05-29T11:52:08Z</time>
      </trkpt>
      <trkpt lat="43.85097" lon="6.5832">
        <ele>1273.88</ele>
        <time>2013-05-29T11:52:15Z</time>
      </trkpt>
      <trkpt lat="43.85006" lon="6.58129">
        <ele>1280.13</ele>
        <time>2013-05-29T11:53:25Z</time>
      </trkpt>
      <trkpt lat="43.84983" lon="6.58084">
        <ele>1280.13</ele>
        <time>2013-05-29T11:53:46Z</time>
      </trkpt>
      <trkpt lat="43.8493" lon="6.57988">
        <ele>1283.98</ele>
        <time>2013-05-29T11:54:55Z</time>
      </trkpt>
      <trkpt lat="43.84926" lon="6.57991">
        <ele>1284.46</ele>
        <time>2013-05-29T11:56:02Z</time>
      </trkpt>
      <trkpt lat="43.84925" lon="6.57988">
        <ele>1284.46</ele>
        <time>2013-05-29T11:56:16Z</time>
      </trkpt>
      <trkpt lat="43.849" lon="6.57964">
        <ele>1282.54</ele>
        <time>2013-05-29T11:56:39Z</time>
      </trkpt>
      <trkpt lat="43.84899" lon="6.5796">
        <ele>1282.54</ele>
        <time>2013-05-29T11:56:43Z</time>
      </trkpt>
      <trkpt lat="43.84881" lon="6.57934">
        <ele>1279.17</ele>
        <time>2013-05-29T11:57:10Z</time>
      </trkpt>
      <trkpt lat="43.84879" lon="6.57933">
        <ele>1279.17</ele>
        <time>2013-05-29T11:57:12Z</time>
      </trkpt>
      <trkpt lat="43.84866" lon="6.57914">
        <ele>1275.81</ele>
        <time>2013-05-29T11:57:28Z</time>
      </trkpt>
      <trkpt lat="43.84834" lon="6.57881">
        <ele>1271.96</ele>
        <time>2013-05-29T11:57:58Z</time>
      </trkpt>
      <trkpt lat="43.84828" lon="6.57867">
        <ele>1271.96</ele>
        <time>2013-05-29T11:58:05Z</time>
      </trkpt>
      <trkpt lat="43.84809" lon="6.57839">
        <ele>1269.56</ele>
        <time>2013-05-29T11:58:21Z</time>
      </trkpt>
      <trkpt lat="43.84786" lon="6.57807">
        <ele>1266.19</ele>
        <time>2013-05-29T11:58:41Z</time>
      </trkpt>
      <trkpt lat="43.84768" lon="6.57771">
        <ele>1260.91</ele>
        <time>2013-05-29T11:58:59Z</time>
      </trkpt>
      <trkpt lat="43.84749" lon="6.57744">
        <ele>1256.58</ele>
        <time>2013-05-29T11:59:15Z</time>
      </trkpt>
      <trkpt lat="43.84726" lon="6.57704">
        <ele>1251.29</ele>
        <time>2013-05-29T11:59:43Z</time>
      </trkpt>
      <trkpt lat="43.84738" lon="6.57691">
        <ele>1247.93</ele>
        <time>2013-05-29T11:59:59Z</time>
      </trkpt>
      <trkpt lat="43.84733" lon="6.57666">
        <ele>1243.12</ele>
        <time>2013-05-29T12:00:22Z</time>
      </trkpt>
      <trkpt lat="43.84727" lon="6.57641">
        <ele>1239.28</ele>
        <time>2013-05-29T12:00:40Z</time>
      </trkpt>
      <trkpt lat="43.84724" lon="6.57615">
        <ele>1235.43</ele>
        <time>2013-05-29T12:01:02Z</time>
      </trkpt>
      <trkpt lat="43.84716" lon="6.57581">
        <ele>1229.18</ele>
        <time>2013-05-29T12:01:25Z</time>
      </trkpt>
      <trkpt lat="43.84707" lon="6.57548">
        <ele>1224.86</ele>
        <time>2013-05-29T12:01:52Z</time>
      </trkpt>
      <trkpt lat="43.847" lon="6.57522">
        <ele>1221.01</ele>
        <time>2013-05-29T12:02:09Z</time>
      </trkpt>
      <trkpt lat="43.84697" lon="6.57494">
        <ele>1217.17</ele>
        <time>2013-05-29T12:02:46Z</time>
      </trkpt>
      <trkpt lat="43.84696" lon="6.57501">
        <ele>1219.09</ele>
        <time>2013-05-29T12:03:10Z</time>
      </trkpt>
      <trkpt lat="43.84692" lon="6.57493">
        <ele>1217.65</ele>
        <time>2013-05-29T12:03:50Z</time>
      </trkpt>
      <trkpt lat="43.84683" lon="6.57476">
        <ele>1215.24</ele>
        <time>2013-05-29T12:04:02Z</time>
      </trkpt>
      <trkpt lat="43.84677" lon="6.57439">
        <ele>1210.44</ele>
        <time>2013-05-29T12:04:23Z</time>
      </trkpt>
      <trkpt lat="43.84679" lon="6.57442">
        <ele>1211.4</ele>
        <time>2013-05-29T12:04:36Z</time>
      </trkpt>
      <trkpt lat="43.84679" lon="6.57454">
        <ele>1212.36</ele>
        <time>2013-05-29T12:05:11Z</time>
      </trkpt>
      <trkpt lat="43.84691" lon="6.57496">
        <ele>1218.61</ele>
        <time>2013-05-29T12:05:41Z</time>
      </trkpt>
      <trkpt lat="43.84703" lon="6.57537">
        <ele>1224.38</ele>
        <time>2013-05-29T12:06:14Z</time>
      </trkpt>
      <trkpt lat="43.84716" lon="6.57581">
        <ele>1229.18</ele>
        <time>2013-05-29T12:06:49Z</time>
      </trkpt>
      <trkpt lat="43.84719" lon="6.57608">
        <ele>1232.55</ele>
        <time>2013-05-29T12:07:07Z</time>
      </trkpt>
      <trkpt lat="43.84719" lon="6.57609">
        <ele>1232.55</ele>
        <time>2013-05-29T12:07:08Z</time>
      </trkpt>
      <trkpt lat="43.84723" lon="6.57642">
        <ele>1238.8</ele>
        <time>2013-05-29T12:07:39Z</time>
      </trkpt>
      <trkpt lat="43.84737" lon="6.5768">
        <ele>1243.12</ele>
        <time>2013-05-29T12:08:12Z</time>
      </trkpt>
      <trkpt lat="43.84737" lon="6.57693">
        <ele>1246.97</ele>
        <time>2013-05-29T12:08:34Z</time>
      </trkpt>
      <trkpt lat="43.84736" lon="6.57718">
        <ele>1251.77</ele>
        <time>2013-05-29T12:09:03Z</time>
      </trkpt>
      <trkpt lat="43.84749" lon="6.57752">
        <ele>1255.62</ele>
        <time>2013-05-29T12:09:34Z</time>
      </trkpt>
      <trkpt lat="43.84764" lon="6.5777">
        <ele>1260.43</ele>
        <time>2013-05-29T12:09:53Z</time>
      </trkpt>
      <trkpt lat="43.84768" lon="6.57775">
        <ele>1259.46</ele>
        <time>2013-05-29T12:09:58Z</time>
      </trkpt>
      <trkpt lat="43.8478" lon="6.57797">
        <ele>1262.83</ele>
        <time>2013-05-29T12:10:19Z</time>
      </trkpt>
      <trkpt lat="43.84794" lon="6.57819">
        <ele>1266.19</ele>
        <time>2013-05-29T12:10:41Z</time>
      </trkpt>
      <trkpt lat="43.84809" lon="6.5784">
        <ele>1268.6</ele>
        <time>2013-05-29T12:10:59Z</time>
      </trkpt>
      <trkpt lat="43.84809" lon="6.57848">
        <ele>1268.12</ele>
        <time>2013-05-29T12:11:04Z</time>
      </trkpt>
      <trkpt lat="43.8483" lon="6.57871">
        <ele>1269.56</ele>
        <time>2013-05-29T12:11:24Z</time>
      </trkpt>
      <trkpt lat="43.84847" lon="6.57896">
        <ele>1271.96</ele>
        <time>2013-05-29T12:11:45Z</time>
      </trkpt>
      <trkpt lat="43.84872" lon="6.5793">
        <ele>1275.81</ele>
        <time>2013-05-29T12:12:18Z</time>
      </trkpt>
      <trkpt lat="43.84873" lon="6.57933">
        <ele>1275.81</ele>
        <time>2013-05-29T12:12:20Z</time>
      </trkpt>
      <trkpt lat="43.84886" lon="6.57952">
        <ele>1279.17</ele>
        <time>2013-05-29T12:12:38Z</time>
      </trkpt>
      <trkpt lat="43.84929" lon="6.5799">
        <ele>1280.61</ele>
        <time>2013-05-29T12:13:34Z</time>
      </trkpt>
      <trkpt lat="43.84956" lon="6.58002">
        <ele>1280.13</ele>
        <time>2013-05-29T12:14:40Z</time>
      </trkpt>
      <trkpt lat="43.84993" lon="6.58011">
        <ele>1279.65</ele>
        <time>2013-05-29T12:15:12Z</time>
      </trkpt>
      <trkpt lat="43.84994" lon="6.58013">
        <ele>1279.65</ele>
        <time>2013-05-29T12:22:38Z</time>
      </trkpt>
      <trkpt lat="43.84995" lon="6.58009">
        <ele>1278.69</ele>
        <time>2013-05-29T12:42:52Z</time>
      </trkpt>
      <trkpt lat="43.84965" lon="6.58042">
        <ele>1277.25</ele>
        <time>2013-05-29T12:43:15Z</time>
      </trkpt>
      <trkpt lat="43.84982" lon="6.58079">
        <ele>1277.25</ele>
        <time>2013-05-29T12:43:37Z</time>
      </trkpt>
      <trkpt lat="43.85026" lon="6.58169">
        <ele>1273.88</ele>
        <time>2013-05-29T12:44:01Z</time>
      </trkpt>
      <trkpt lat="43.85033" lon="6.58181">
        <ele>1272.92</ele>
        <time>2013-05-29T12:44:03Z</time>
      </trkpt>
      <trkpt lat="43.85035" lon="6.58188">
        <ele>1272.92</ele>
        <time>2013-05-29T12:44:04Z</time>
      </trkpt>
      <trkpt lat="43.85041" lon="6.58206">
        <ele>1272.92</ele>
        <time>2013-05-29T12:44:07Z</time>
      </trkpt>
      <trkpt lat="43.85077" lon="6.58289">
        <ele>1271.96</ele>
        <time>2013-05-29T12:44:24Z</time>
      </trkpt>
      <trkpt lat="43.85148" lon="6.58438">
        <ele>1267.64</ele>
        <time>2013-05-29T12:44:58Z</time>
      </trkpt>
      <trkpt lat="43.85163" lon="6.5851">
        <ele>1264.27</ele>
        <time>2013-05-29T12:45:08Z</time>
      </trkpt>
      <trkpt lat="43.85178" lon="6.58576">
        <ele>1260.91</ele>
        <time>2013-05-29T12:45:14Z</time>
      </trkpt>
      <trkpt lat="43.85206" lon="6.58617">
        <ele>1257.06</ele>
        <time>2013-05-29T12:45:20Z</time>
      </trkpt>
      <trkpt lat="43.85208" lon="6.58625">
        <ele>1257.06</ele>
        <time>2013-05-29T12:45:21Z</time>
      </trkpt>
      <trkpt lat="43.85272" lon="6.58737">
        <ele>1256.58</ele>
        <time>2013-05-29T12:45:49Z</time>
      </trkpt>
      <trkpt lat="43.85298" lon="6.58799">
        <ele>1257.54</ele>
        <time>2013-05-29T12:46:15Z</time>
      </trkpt>
      <trkpt lat="43.85301" lon="6.58805">
        <ele>1257.54</ele>
        <time>2013-05-29T12:46:17Z</time>
      </trkpt>
      <trkpt lat="43.85383" lon="6.58928">
        <ele>1253.22</ele>
        <time>2013-05-29T12:46:49Z</time>
      </trkpt>
      <trkpt lat="43.85428" lon="6.59014">
        <ele>1247.93</ele>
        <time>2013-05-29T12:47:12Z</time>
      </trkpt>
      <trkpt lat="43.85421" lon="6.59049">
        <ele>1246.01</ele>
        <time>2013-05-29T12:47:31Z</time>
      </trkpt>
      <trkpt lat="43.85424" lon="6.59054">
        <ele>1245.04</ele>
        <time>2013-05-29T12:47:46Z</time>
      </trkpt>
      <trkpt lat="43.85434" lon="6.59065">
        <ele>1245.04</ele>
        <time>2013-05-29T12:48:16Z</time>
      </trkpt>
      <trkpt lat="43.85444" lon="6.59065">
        <ele>1243.6</ele>
        <time>2013-05-29T12:48:54Z</time>
      </trkpt>
      <trkpt lat="43.85487" lon="6.59072">
        <ele>1245.53</ele>
        <time>2013-05-29T12:49:16Z</time>
      </trkpt>
      <trkpt lat="43.85521" lon="6.59078">
        <ele>1248.89</ele>
        <time>2013-05-29T12:49:42Z</time>
      </trkpt>
      <trkpt lat="43.85541" lon="6.59072">
        <ele>1253.22</ele>
        <time>2013-05-29T12:50:02Z</time>
      </trkpt>
      <trkpt lat="43.85566" lon="6.59057">
        <ele>1257.06</ele>
        <time>2013-05-29T12:50:32Z</time>
      </trkpt>
      <trkpt lat="43.85579" lon="6.59042">
        <ele>1259.46</ele>
        <time>2013-05-29T12:52:01Z</time>
      </trkpt>
      <trkpt lat="43.85614" lon="6.59029">
        <ele>1263.79</ele>
        <time>2013-05-29T12:52:30Z</time>
      </trkpt>
      <trkpt lat="43.85658" lon="6.59031">
        <ele>1270.04</ele>
        <time>2013-05-29T12:53:03Z</time>
      </trkpt>
      <trkpt lat="43.85662" lon="6.5903">
        <ele>1270.04</ele>
        <time>2013-05-29T12:53:07Z</time>
      </trkpt>
      <trkpt lat="43.85702" lon="6.59005">
        <ele>1273.88</ele>
        <time>2013-05-29T12:53:35Z</time>
      </trkpt>
      <trkpt lat="43.85732" lon="6.58996">
        <ele>1272.92</ele>
        <time>2013-05-29T12:53:49Z</time>
      </trkpt>
      <trkpt lat="43.85779" lon="6.58993">
        <ele>1274.36</ele>
        <time>2013-05-29T12:54:08Z</time>
      </trkpt>
      <trkpt lat="43.85818" lon="6.59008">
        <ele>1276.77</ele>
        <time>2013-05-29T12:54:34Z</time>
      </trkpt>
      <trkpt lat="43.85859" lon="6.59025">
        <ele>1282.06</ele>
        <time>2013-05-29T12:55:01Z</time>
      </trkpt>
      <trkpt lat="43.85971" lon="6.59067">
        <ele>1283.5</ele>
        <time>2013-05-29T12:55:47Z</time>
      </trkpt>
      <trkpt lat="43.86008" lon="6.59103">
        <ele>1287.34</ele>
        <time>2013-05-29T12:56:10Z</time>
      </trkpt>
      <trkpt lat="43.86064" lon="6.59135">
        <ele>1290.71</ele>
        <time>2013-05-29T12:56:39Z</time>
      </trkpt>
      <trkpt lat="43.86112" lon="6.59197">
        <ele>1291.67</ele>
        <time>2013-05-29T12:57:07Z</time>
      </trkpt>
      <trkpt lat="43.8616" lon="6.59255">
        <ele>1291.67</ele>
        <time>2013-05-29T12:57:22Z</time>
      </trkpt>
      <trkpt lat="43.86207" lon="6.59317">
        <ele>1292.15</ele>
        <time>2013-05-29T12:57:44Z</time>
      </trkpt>
      <trkpt lat="43.86237" lon="6.5937">
        <ele>1290.71</ele>
        <time>2013-05-29T12:57:55Z</time>
      </trkpt>
      <trkpt lat="43.86268" lon="6.59334">
        <ele>1293.59</ele>
        <time>2013-05-29T12:58:11Z</time>
      </trkpt>
      <trkpt lat="43.86311" lon="6.59344">
        <ele>1297.92</ele>
        <time>2013-05-29T12:58:33Z</time>
      </trkpt>
      <trkpt lat="43.86335" lon="6.59369">
        <ele>1297.44</ele>
        <time>2013-05-29T12:58:45Z</time>
      </trkpt>
      <trkpt lat="43.86335" lon="6.59413">
        <ele>1294.55</ele>
        <time>2013-05-29T12:58:51Z</time>
      </trkpt>
      <trkpt lat="43.86337" lon="6.59422">
        <ele>1294.55</ele>
        <time>2013-05-29T12:58:52Z</time>
      </trkpt>
      <trkpt lat="43.86355" lon="6.59465">
        <ele>1290.23</ele>
        <time>2013-05-29T12:58:57Z</time>
      </trkpt>
      <trkpt lat="43.86358" lon="6.59474">
        <ele>1289.27</ele>
        <time>2013-05-29T12:59:00Z</time>
      </trkpt>
      <trkpt lat="43.86417" lon="6.59569">
        <ele>1289.75</ele>
        <time>2013-05-29T12:59:29Z</time>
      </trkpt>
      <trkpt lat="43.86443" lon="6.59759">
        <ele>1285.9</ele>
        <time>2013-05-29T12:59:55Z</time>
      </trkpt>
      <trkpt lat="43.86446" lon="6.59799">
        <ele>1284.46</ele>
        <time>2013-05-29T13:00:01Z</time>
      </trkpt>
      <trkpt lat="43.86445" lon="6.59806">
        <ele>1285.42</ele>
        <time>2013-05-29T13:00:02Z</time>
      </trkpt>
      <trkpt lat="43.86439" lon="6.59858">
        <ele>1283.98</ele>
        <time>2013-05-29T13:00:09Z</time>
      </trkpt>
      <trkpt lat="43.86443" lon="6.59937">
        <ele>1281.57</ele>
        <time>2013-05-29T13:00:18Z</time>
      </trkpt>
      <trkpt lat="43.86443" lon="6.59946">
        <ele>1281.57</ele>
        <time>2013-05-29T13:00:19Z</time>
      </trkpt>
      <trkpt lat="43.86457" lon="6.60035">
        <ele>1283.02</ele>
        <time>2013-05-29T13:00:32Z</time>
      </trkpt>
      <trkpt lat="43.86467" lon="6.60124">
        <ele>1284.46</ele>
        <time>2013-05-29T13:00:51Z</time>
      </trkpt>
      <trkpt lat="43.8647" lon="6.60176">
        <ele>1283.98</ele>
        <time>2013-05-29T13:00:59Z</time>
      </trkpt>
      <trkpt lat="43.86475" lon="6.60312">
        <ele>1282.06</ele>
        <time>2013-05-29T13:01:18Z</time>
      </trkpt>
      <trkpt lat="43.86485" lon="6.60422">
        <ele>1282.54</ele>
        <time>2013-05-29T13:01:43Z</time>
      </trkpt>
      <trkpt lat="43.86509" lon="6.60646">
        <ele>1288.3</ele>
        <time>2013-05-29T13:02:33Z</time>
      </trkpt>
      <trkpt lat="43.86512" lon="6.60711">
        <ele>1288.3</ele>
        <time>2013-05-29T13:02:47Z</time>
      </trkpt>
      <trkpt lat="43.86526" lon="6.6101">
        <ele>1291.19</ele>
        <time>2013-05-29T13:03:46Z</time>
      </trkpt>
      <trkpt lat="43.86529" lon="6.61087">
        <ele>1290.71</ele>
        <time>2013-05-29T13:03:59Z</time>
      </trkpt>
      <trkpt lat="43.86527" lon="6.61288">
        <ele>1290.23</ele>
        <time>2013-05-29T13:04:34Z</time>
      </trkpt>
      <trkpt lat="43.8655" lon="6.61397">
        <ele>1291.19</ele>
        <time>2013-05-29T13:04:58Z</time>
      </trkpt>
      <trkpt lat="43.86557" lon="6.61461">
        <ele>1292.63</ele>
        <time>2013-05-29T13:05:30Z</time>
      </trkpt>
      <trkpt lat="43.86572" lon="6.61495">
        <ele>1294.07</ele>
        <time>2013-05-29T13:06:06Z</time>
      </trkpt>
      <trkpt lat="43.86573" lon="6.61498">
        <ele>1294.07</ele>
        <time>2013-05-29T13:06:07Z</time>
      </trkpt>
      <trkpt lat="43.86578" lon="6.61555">
        <ele>1297.44</ele>
        <time>2013-05-29T13:06:24Z</time>
      </trkpt>
      <trkpt lat="43.86584" lon="6.616">
        <ele>1300.8</ele>
        <time>2013-05-29T13:06:41Z</time>
      </trkpt>
      <trkpt lat="43.86592" lon="6.61642">
        <ele>1304.17</ele>
        <time>2013-05-29T13:06:56Z</time>
      </trkpt>
      <trkpt lat="43.86611" lon="6.61718">
        <ele>1308.01</ele>
        <time>2013-05-29T13:07:24Z</time>
      </trkpt>
      <trkpt lat="43.86612" lon="6.6172">
        <ele>1308.01</ele>
        <time>2013-05-29T13:07:25Z</time>
      </trkpt>
      <trkpt lat="43.86618" lon="6.61746">
        <ele>1310.9</ele>
        <time>2013-05-29T13:07:36Z</time>
      </trkpt>
      <trkpt lat="43.86647" lon="6.61893">
        <ele>1319.55</ele>
        <time>2013-05-29T13:08:32Z</time>
      </trkpt>
      <trkpt lat="43.86648" lon="6.61899">
        <ele>1319.55</ele>
        <time>2013-05-29T13:08:35Z</time>
      </trkpt>
      <trkpt lat="43.86656" lon="6.61955">
        <ele>1321.95</ele>
        <time>2013-05-29T13:08:56Z</time>
      </trkpt>
      <trkpt lat="43.8667" lon="6.62047">
        <ele>1326.76</ele>
        <time>2013-05-29T13:09:38Z</time>
      </trkpt>
      <trkpt lat="43.86672" lon="6.62048">
        <ele>1326.76</ele>
        <time>2013-05-29T13:09:39Z</time>
      </trkpt>
      <trkpt lat="43.86678" lon="6.62141">
        <ele>1327.24</ele>
        <time>2013-05-29T13:09:58Z</time>
      </trkpt>
      <trkpt lat="43.86679" lon="6.62294">
        <ele>1329.16</ele>
        <time>2013-05-29T13:10:41Z</time>
      </trkpt>
      <trkpt lat="43.8668" lon="6.62296">
        <ele>1330.6</ele>
        <time>2013-05-29T13:11:27Z</time>
      </trkpt>
      <trkpt lat="43.86684" lon="6.62316">
        <ele>1330.6</ele>
        <time>2013-05-29T13:11:34Z</time>
      </trkpt>
      <trkpt lat="43.86644" lon="6.62464">
        <ele>1333.01</ele>
        <time>2013-05-29T13:12:07Z</time>
      </trkpt>
      <trkpt lat="43.86623" lon="6.6254">
        <ele>1336.37</ele>
        <time>2013-05-29T13:12:23Z</time>
      </trkpt>
      <trkpt lat="43.86582" lon="6.62708">
        <ele>1342.14</ele>
        <time>2013-05-29T13:13:01Z</time>
      </trkpt>
      <trkpt lat="43.86568" lon="6.6282">
        <ele>1346.94</ele>
        <time>2013-05-29T13:13:26Z</time>
      </trkpt>
      <trkpt lat="43.86548" lon="6.62934">
        <ele>1353.67</ele>
        <time>2013-05-29T13:13:54Z</time>
      </trkpt>
      <trkpt lat="43.86533" lon="6.63019">
        <ele>1358.48</ele>
        <time>2013-05-29T13:14:15Z</time>
      </trkpt>
      <trkpt lat="43.86521" lon="6.63081">
        <ele>1362.33</ele>
        <time>2013-05-29T13:14:31Z</time>
      </trkpt>
      <trkpt lat="43.86511" lon="6.63137">
        <ele>1365.69</ele>
        <time>2013-05-29T13:14:52Z</time>
      </trkpt>
      <trkpt lat="43.86521" lon="6.63185">
        <ele>1370.02</ele>
        <time>2013-05-29T13:15:05Z</time>
      </trkpt>
      <trkpt lat="43.86523" lon="6.63188">
        <ele>1370.02</ele>
        <time>2013-05-29T13:15:06Z</time>
      </trkpt>
      <trkpt lat="43.86574" lon="6.63293">
        <ele>1372.42</ele>
        <time>2013-05-29T13:15:37Z</time>
      </trkpt>
      <trkpt lat="43.86626" lon="6.63439">
        <ele>1378.67</ele>
        <time>2013-05-29T13:16:14Z</time>
      </trkpt>
      <trkpt lat="43.86637" lon="6.6351">
        <ele>1382.03</ele>
        <time>2013-05-29T13:16:30Z</time>
      </trkpt>
      <trkpt lat="43.86652" lon="6.63611">
        <ele>1386.36</ele>
        <time>2013-05-29T13:16:53Z</time>
      </trkpt>
      <trkpt lat="43.86657" lon="6.63681">
        <ele>1390.68</ele>
        <time>2013-05-29T13:17:11Z</time>
      </trkpt>
      <trkpt lat="43.86655" lon="6.63755">
        <ele>1395.49</ele>
        <time>2013-05-29T13:17:34Z</time>
      </trkpt>
      <trkpt lat="43.86656" lon="6.63764">
        <ele>1395.97</ele>
        <time>2013-05-29T13:17:37Z</time>
      </trkpt>
      <trkpt lat="43.86685" lon="6.63726">
        <ele>1398.37</ele>
        <time>2013-05-29T13:17:54Z</time>
      </trkpt>
      <trkpt lat="43.8668" lon="6.63571">
        <ele>1402.7</ele>
        <time>2013-05-29T13:18:34Z</time>
      </trkpt>
      <trkpt lat="43.86685" lon="6.63458">
        <ele>1406.55</ele>
        <time>2013-05-29T13:19:06Z</time>
      </trkpt>
      <trkpt lat="43.86692" lon="6.63348">
        <ele>1410.87</ele>
        <time>2013-05-29T13:19:35Z</time>
      </trkpt>
      <trkpt lat="43.867" lon="6.63223">
        <ele>1416.64</ele>
        <time>2013-05-29T13:20:11Z</time>
      </trkpt>
      <trkpt lat="43.86706" lon="6.63159">
        <ele>1419.04</ele>
        <time>2013-05-29T13:20:52Z</time>
      </trkpt>
      <trkpt lat="43.86706" lon="6.63158">
        <ele>1419.52</ele>
        <time>2013-05-29T13:20:53Z</time>
      </trkpt>
      <trkpt lat="43.86718" lon="6.63106">
        <ele>1422.41</ele>
        <time>2013-05-29T13:21:08Z</time>
      </trkpt>
      <trkpt lat="43.86728" lon="6.63069">
        <ele>1425.77</ele>
        <time>2013-05-29T13:21:19Z</time>
      </trkpt>
      <trkpt lat="43.86754" lon="6.62987">
        <ele>1431.06</ele>
        <time>2013-05-29T13:21:47Z</time>
      </trkpt>
      <trkpt lat="43.86791" lon="6.62899">
        <ele>1434.42</ele>
        <time>2013-05-29T13:22:23Z</time>
      </trkpt>
      <trkpt lat="43.86844" lon="6.62818">
        <ele>1440.19</ele>
        <time>2013-05-29T13:23:00Z</time>
      </trkpt>
      <trkpt lat="43.86911" lon="6.62737">
        <ele>1445</ele>
        <time>2013-05-29T13:23:42Z</time>
      </trkpt>
      <trkpt lat="43.8694" lon="6.62714">
        <ele>1448.36</ele>
        <time>2013-05-29T13:23:58Z</time>
      </trkpt>
      <trkpt lat="43.86976" lon="6.62713">
        <ele>1447.88</ele>
        <time>2013-05-29T13:24:16Z</time>
      </trkpt>
      <trkpt lat="43.87004" lon="6.62703">
        <ele>1450.77</ele>
        <time>2013-05-29T13:24:32Z</time>
      </trkpt>
      <trkpt lat="43.87024" lon="6.62687">
        <ele>1454.61</ele>
        <time>2013-05-29T13:24:44Z</time>
      </trkpt>
      <trkpt lat="43.87052" lon="6.62658">
        <ele>1457.98</ele>
        <time>2013-05-29T13:25:03Z</time>
      </trkpt>
      <trkpt lat="43.87088" lon="6.6263">
        <ele>1461.34</ele>
        <time>2013-05-29T13:25:26Z</time>
      </trkpt>
      <trkpt lat="43.87092" lon="6.62627">
        <ele>1460.38</ele>
        <time>2013-05-29T13:25:28Z</time>
      </trkpt>
      <trkpt lat="43.8712" lon="6.62605">
        <ele>1463.74</ele>
        <time>2013-05-29T13:25:43Z</time>
      </trkpt>
      <trkpt lat="43.87152" lon="6.62567">
        <ele>1467.11</ele>
        <time>2013-05-29T13:26:04Z</time>
      </trkpt>
      <trkpt lat="43.87205" lon="6.62483">
        <ele>1472.88</ele>
        <time>2013-05-29T13:26:41Z</time>
      </trkpt>
      <trkpt lat="43.87227" lon="6.62477">
        <ele>1476.24</ele>
        <time>2013-05-29T13:26:51Z</time>
      </trkpt>
      <trkpt lat="43.87229" lon="6.62475">
        <ele>1473.84</ele>
        <time>2013-05-29T13:26:53Z</time>
      </trkpt>
      <trkpt lat="43.87231" lon="6.62475">
        <ele>1474.32</ele>
        <time>2013-05-29T13:27:20Z</time>
      </trkpt>
      <trkpt lat="43.8727" lon="6.6249">
        <ele>1477.68</ele>
        <time>2013-05-29T13:27:39Z</time>
      </trkpt>
      <trkpt lat="43.87331" lon="6.6248">
        <ele>1483.45</ele>
        <time>2013-05-29T13:28:13Z</time>
      </trkpt>
      <trkpt lat="43.87374" lon="6.62466">
        <ele>1488.74</ele>
        <time>2013-05-29T13:28:38Z</time>
      </trkpt>
      <trkpt lat="43.87396" lon="6.62458">
        <ele>1492.1</ele>
        <time>2013-05-29T13:28:52Z</time>
      </trkpt>
      <trkpt lat="43.87398" lon="6.62462">
        <ele>1492.1</ele>
        <time>2013-05-29T13:28:54Z</time>
      </trkpt>
      <trkpt lat="43.87353" lon="6.62497">
        <ele>1496.43</ele>
        <time>2013-05-29T13:29:20Z</time>
      </trkpt>
      <trkpt lat="43.87307" lon="6.6253">
        <ele>1501.24</ele>
        <time>2013-05-29T13:29:45Z</time>
      </trkpt>
      <trkpt lat="43.87278" lon="6.62549">
        <ele>1504.6</ele>
        <time>2013-05-29T13:29:59Z</time>
      </trkpt>
      <trkpt lat="43.8723" lon="6.6256">
        <ele>1507</ele>
        <time>2013-05-29T13:30:21Z</time>
      </trkpt>
      <trkpt lat="43.87221" lon="6.62595">
        <ele>1510.37</ele>
        <time>2013-05-29T13:30:39Z</time>
      </trkpt>
      <trkpt lat="43.87261" lon="6.62594">
        <ele>1514.21</ele>
        <time>2013-05-29T13:30:56Z</time>
      </trkpt>
      <trkpt lat="43.87294" lon="6.62584">
        <ele>1515.66</ele>
        <time>2013-05-29T13:31:11Z</time>
      </trkpt>
      <trkpt lat="43.87345" lon="6.62567">
        <ele>1519.5</ele>
        <time>2013-05-29T13:31:39Z</time>
      </trkpt>
      <trkpt lat="43.87392" lon="6.62548">
        <ele>1522.87</ele>
        <time>2013-05-29T13:32:04Z</time>
      </trkpt>
      <trkpt lat="43.87436" lon="6.62531">
        <ele>1526.71</ele>
        <time>2013-05-29T13:32:34Z</time>
      </trkpt>
      <trkpt lat="43.87458" lon="6.6252">
        <ele>1530.08</ele>
        <time>2013-05-29T13:32:45Z</time>
      </trkpt>
      <trkpt lat="43.87479" lon="6.62499">
        <ele>1532</ele>
        <time>2013-05-29T13:32:58Z</time>
      </trkpt>
      <trkpt lat="43.87479" lon="6.62495">
        <ele>1532</ele>
        <time>2013-05-29T13:33:00Z</time>
      </trkpt>
      <trkpt lat="43.87498" lon="6.62471">
        <ele>1535.36</ele>
        <time>2013-05-29T13:33:16Z</time>
      </trkpt>
      <trkpt lat="43.87538" lon="6.62481">
        <ele>1541.61</ele>
        <time>2013-05-29T13:33:37Z</time>
      </trkpt>
      <trkpt lat="43.87571" lon="6.62562">
        <ele>1545.46</ele>
        <time>2013-05-29T13:34:04Z</time>
      </trkpt>
      <trkpt lat="43.87595" lon="6.62619">
        <ele>1549.78</ele>
        <time>2013-05-29T13:34:26Z</time>
      </trkpt>
      <trkpt lat="43.87609" lon="6.62644">
        <ele>1553.63</ele>
        <time>2013-05-29T13:34:40Z</time>
      </trkpt>
      <trkpt lat="43.87669" lon="6.62719">
        <ele>1558.43</ele>
        <time>2013-05-29T13:35:12Z</time>
      </trkpt>
      <trkpt lat="43.87698" lon="6.62773">
        <ele>1561.8</ele>
        <time>2013-05-29T13:35:33Z</time>
      </trkpt>
      <trkpt lat="43.87723" lon="6.62877">
        <ele>1565.64</ele>
        <time>2013-05-29T13:36:08Z</time>
      </trkpt>
      <trkpt lat="43.87776" lon="6.6287">
        <ele>1567.09</ele>
        <time>2013-05-29T13:36:22Z</time>
      </trkpt>
      <trkpt lat="43.87856" lon="6.62805">
        <ele>1568.53</ele>
        <time>2013-05-29T13:36:53Z</time>
      </trkpt>
      <trkpt lat="43.8787" lon="6.62778">
        <ele>1571.89</ele>
        <time>2013-05-29T13:37:02Z</time>
      </trkpt>
      <trkpt lat="43.87959" lon="6.62765">
        <ele>1575.26</ele>
        <time>2013-05-29T13:37:24Z</time>
      </trkpt>
      <trkpt lat="43.88" lon="6.6278">
        <ele>1580.06</ele>
        <time>2013-05-29T13:37:46Z</time>
      </trkpt>
      <trkpt lat="43.88086" lon="6.62864">
        <ele>1583.43</ele>
        <time>2013-05-29T13:38:26Z</time>
      </trkpt>
      <trkpt lat="43.88184" lon="6.62984">
        <ele>1588.24</ele>
        <time>2013-05-29T13:39:07Z</time>
      </trkpt>
      <trkpt lat="43.88259" lon="6.63068">
        <ele>1592.56</ele>
        <time>2013-05-29T13:39:39Z</time>
      </trkpt>
      <trkpt lat="43.88298" lon="6.63067">
        <ele>1594</ele>
        <time>2013-05-29T13:39:51Z</time>
      </trkpt>
      <trkpt lat="43.88327" lon="6.63057">
        <ele>1597.37</ele>
        <time>2013-05-29T13:40:09Z</time>
      </trkpt>
      <trkpt lat="43.88327" lon="6.63057">
        <ele>1597.37</ele>
        <time>2013-05-29T13:40:33Z</time>
      </trkpt>
      <trkpt lat="43.88347" lon="6.63054">
        <ele>1599.29</ele>
        <time>2013-05-29T13:40:43Z</time>
      </trkpt>
      <trkpt lat="43.88422" lon="6.63148">
        <ele>1604.1</ele>
        <time>2013-05-29T13:41:15Z</time>
      </trkpt>
      <trkpt lat="43.88452" lon="6.63286">
        <ele>1608.9</ele>
        <time>2013-05-29T13:41:47Z</time>
      </trkpt>
      <trkpt lat="43.88493" lon="6.63391">
        <ele>1612.27</ele>
        <time>2013-05-29T13:42:18Z</time>
      </trkpt>
      <trkpt lat="43.88493" lon="6.63391">
        <ele>1612.27</ele>
        <time>2013-05-29T13:42:31Z</time>
      </trkpt>
      <trkpt lat="43.88509" lon="6.63426">
        <ele>1612.75</ele>
        <time>2013-05-29T13:42:46Z</time>
      </trkpt>
      <trkpt lat="43.8852" lon="6.63429">
        <ele>1610.83</ele>
        <time>2013-05-29T13:43:12Z</time>
      </trkpt>
      <trkpt lat="43.88531" lon="6.63436">
        <ele>1610.83</ele>
        <time>2013-05-29T13:43:16Z</time>
      </trkpt>
      <trkpt lat="43.88523" lon="6.63444">
        <ele>1612.27</ele>
        <time>2013-05-29T13:43:59Z</time>
      </trkpt>
      <trkpt lat="43.88517" lon="6.6345">
        <ele>1607.46</ele>
        <time>2013-05-29T13:45:11Z</time>
      </trkpt>
      <trkpt lat="43.88514" lon="6.63453">
        <ele>1611.31</ele>
        <time>2013-05-29T13:45:33Z</time>
      </trkpt>
      <trkpt lat="43.88516" lon="6.63529">
        <ele>1611.31</ele>
        <time>2013-05-29T13:46:05Z</time>
      </trkpt>
      <trkpt lat="43.88516" lon="6.6353">
        <ele>1609.38</ele>
        <time>2013-05-29T13:46:34Z</time>
      </trkpt>
      <trkpt lat="43.88537" lon="6.63647">
        <ele>1609.38</ele>
        <time>2013-05-29T13:47:01Z</time>
      </trkpt>
      <trkpt lat="43.88543" lon="6.63663">
        <ele>1611.79</ele>
        <time>2013-05-29T13:47:26Z</time>
      </trkpt>
      <trkpt lat="43.88529" lon="6.63674">
        <ele>1611.79</ele>
        <time>2013-05-29T13:47:35Z</time>
      </trkpt>
      <trkpt lat="43.88466" lon="6.63715">
        <ele>1607.46</ele>
        <time>2013-05-29T13:48:09Z</time>
      </trkpt>
      <trkpt lat="43.88453" lon="6.63726">
        <ele>1604.1</ele>
        <time>2013-05-29T13:48:13Z</time>
      </trkpt>
      <trkpt lat="43.88429" lon="6.6374">
        <ele>1604.1</ele>
        <time>2013-05-29T13:48:22Z</time>
      </trkpt>
      <trkpt lat="43.88397" lon="6.63763">
        <ele>1603.62</ele>
        <time>2013-05-29T13:48:41Z</time>
      </trkpt>
      <trkpt lat="43.8839" lon="6.63797">
        <ele>1600.25</ele>
        <time>2013-05-29T13:49:15Z</time>
      </trkpt>
      <trkpt lat="43.88383" lon="6.63854">
        <ele>1598.33</ele>
        <time>2013-05-29T13:49:35Z</time>
      </trkpt>
      <trkpt lat="43.88361" lon="6.63931">
        <ele>1602.17</ele>
        <time>2013-05-29T13:50:06Z</time>
      </trkpt>
      <trkpt lat="43.88361" lon="6.63933">
        <ele>1603.62</ele>
        <time>2013-05-29T13:50:21Z</time>
      </trkpt>
      <trkpt lat="43.88351" lon="6.63956">
        <ele>1602.17</ele>
        <time>2013-05-29T13:50:31Z</time>
      </trkpt>
      <trkpt lat="43.88342" lon="6.64024">
        <ele>1600.25</ele>
        <time>2013-05-29T13:50:58Z</time>
      </trkpt>
      <trkpt lat="43.88338" lon="6.64032">
        <ele>1600.73</ele>
        <time>2013-05-29T13:51:05Z</time>
      </trkpt>
      <trkpt lat="43.88335" lon="6.64041">
        <ele>1599.77</ele>
        <time>2013-05-29T13:51:49Z</time>
      </trkpt>
      <trkpt lat="43.88335" lon="6.64048">
        <ele>1599.77</ele>
        <time>2013-05-29T13:53:45Z</time>
      </trkpt>
      <trkpt lat="43.88335" lon="6.64048">
        <ele>1598.33</ele>
        <time>2013-05-29T13:55:29Z</time>
      </trkpt>
      <trkpt lat="43.88359" lon="6.64078">
        <ele>1598.33</ele>
        <time>2013-05-29T13:55:54Z</time>
      </trkpt>
      <trkpt lat="43.88361" lon="6.64085">
        <ele>1599.29</ele>
        <time>2013-05-29T13:56:26Z</time>
      </trkpt>
      <trkpt lat="43.88361" lon="6.64086">
        <ele>1598.81</ele>
        <time>2013-05-29T13:57:08Z</time>
      </trkpt>
      <trkpt lat="43.88367" lon="6.64145">
        <ele>1597.85</ele>
        <time>2013-05-29T13:57:27Z</time>
      </trkpt>
      <trkpt lat="43.88394" lon="6.64183">
        <ele>1596.41</ele>
        <time>2013-05-29T13:57:41Z</time>
      </trkpt>
      <trkpt lat="43.88398" lon="6.64194">
        <ele>1596.41</ele>
        <time>2013-05-29T13:57:48Z</time>
      </trkpt>
      <trkpt lat="43.88405" lon="6.6421">
        <ele>1594.48</ele>
        <time>2013-05-29T13:58:57Z</time>
      </trkpt>
      <trkpt lat="43.88417" lon="6.64232">
        <ele>1590.16</ele>
        <time>2013-05-29T13:59:00Z</time>
      </trkpt>
      <trkpt lat="43.88429" lon="6.64255">
        <ele>1586.79</ele>
        <time>2013-05-29T13:59:03Z</time>
      </trkpt>
      <trkpt lat="43.88442" lon="6.64279">
        <ele>1583.43</ele>
        <time>2013-05-29T13:59:08Z</time>
      </trkpt>
      <trkpt lat="43.88454" lon="6.64311">
        <ele>1579.58</ele>
        <time>2013-05-29T13:59:13Z</time>
      </trkpt>
      <trkpt lat="43.88463" lon="6.64331">
        <ele>1575.74</ele>
        <time>2013-05-29T13:59:16Z</time>
      </trkpt>
      <trkpt lat="43.88467" lon="6.64339">
        <ele>1574.78</ele>
        <time>2013-05-29T13:59:18Z</time>
      </trkpt>
      <trkpt lat="43.88467" lon="6.64348">
        <ele>1570.93</ele>
        <time>2013-05-29T13:59:20Z</time>
      </trkpt>
      <trkpt lat="43.88468" lon="6.64353">
        <ele>1566.61</ele>
        <time>2013-05-29T13:59:27Z</time>
      </trkpt>
      <trkpt lat="43.88496" lon="6.64384">
        <ele>1569.01</ele>
        <time>2013-05-29T13:59:42Z</time>
      </trkpt>
      <trkpt lat="43.88559" lon="6.64453">
        <ele>1568.05</ele>
        <time>2013-05-29T14:00:05Z</time>
      </trkpt>
      <trkpt lat="43.88595" lon="6.645">
        <ele>1564.68</ele>
        <time>2013-05-29T14:00:18Z</time>
      </trkpt>
      <trkpt lat="43.88635" lon="6.6454">
        <ele>1560.84</ele>
        <time>2013-05-29T14:00:27Z</time>
      </trkpt>
      <trkpt lat="43.8864" lon="6.64545">
        <ele>1561.32</ele>
        <time>2013-05-29T14:00:28Z</time>
      </trkpt>
      <trkpt lat="43.88715" lon="6.64623">
        <ele>1558.92</ele>
        <time>2013-05-29T14:00:47Z</time>
      </trkpt>
      <trkpt lat="43.88746" lon="6.64663">
        <ele>1562.76</ele>
        <time>2013-05-29T14:01:02Z</time>
      </trkpt>
      <trkpt lat="43.88748" lon="6.64668">
        <ele>1563.24</ele>
        <time>2013-05-29T14:01:19Z</time>
      </trkpt>
      <trkpt lat="43.88757" lon="6.64691">
        <ele>1558.92</ele>
        <time>2013-05-29T14:01:47Z</time>
      </trkpt>
      <trkpt lat="43.88776" lon="6.64716">
        <ele>1554.59</ele>
        <time>2013-05-29T14:01:56Z</time>
      </trkpt>
      <trkpt lat="43.88801" lon="6.6475">
        <ele>1550.74</ele>
        <time>2013-05-29T14:02:08Z</time>
      </trkpt>
      <trkpt lat="43.88833" lon="6.64806">
        <ele>1546.9</ele>
        <time>2013-05-29T14:02:25Z</time>
      </trkpt>
      <trkpt lat="43.88841" lon="6.6482">
        <ele>1543.05</ele>
        <time>2013-05-29T14:02:29Z</time>
      </trkpt>
      <trkpt lat="43.88898" lon="6.64919">
        <ele>1535.84</ele>
        <time>2013-05-29T14:03:02Z</time>
      </trkpt>
      <trkpt lat="43.88927" lon="6.64993">
        <ele>1532.96</ele>
        <time>2013-05-29T14:03:18Z</time>
      </trkpt>
      <trkpt lat="43.8893" lon="6.65017">
        <ele>1528.15</ele>
        <time>2013-05-29T14:03:22Z</time>
      </trkpt>
      <trkpt lat="43.88936" lon="6.65043">
        <ele>1523.83</ele>
        <time>2013-05-29T14:03:25Z</time>
      </trkpt>
      <trkpt lat="43.8894" lon="6.6505">
        <ele>1523.83</ele>
        <time>2013-05-29T14:03:26Z</time>
      </trkpt>
      <trkpt lat="43.88948" lon="6.65067">
        <ele>1522.87</ele>
        <time>2013-05-29T14:03:29Z</time>
      </trkpt>
      <trkpt lat="43.88959" lon="6.65105">
        <ele>1517.58</ele>
        <time>2013-05-29T14:04:01Z</time>
      </trkpt>
      <trkpt lat="43.88969" lon="6.65134">
        <ele>1513.73</ele>
        <time>2013-05-29T14:04:06Z</time>
      </trkpt>
      <trkpt lat="43.88987" lon="6.65178">
        <ele>1507.97</ele>
        <time>2013-05-29T14:04:13Z</time>
      </trkpt>
      <trkpt lat="43.88991" lon="6.65191">
        <ele>1504.12</ele>
        <time>2013-05-29T14:04:15Z</time>
      </trkpt>
      <trkpt lat="43.88995" lon="6.65207">
        <ele>1500.27</ele>
        <time>2013-05-29T14:04:17Z</time>
      </trkpt>
      <trkpt lat="43.89" lon="6.65223">
        <ele>1496.91</ele>
        <time>2013-05-29T14:04:19Z</time>
      </trkpt>
      <trkpt lat="43.89004" lon="6.65239">
        <ele>1495.47</ele>
        <time>2013-05-29T14:04:21Z</time>
      </trkpt>
      <trkpt lat="43.89017" lon="6.65294">
        <ele>1491.14</ele>
        <time>2013-05-29T14:04:28Z</time>
      </trkpt>
      <trkpt lat="43.89021" lon="6.65323">
        <ele>1486.82</ele>
        <time>2013-05-29T14:04:31Z</time>
      </trkpt>
      <trkpt lat="43.89027" lon="6.65346">
        <ele>1483.45</ele>
        <time>2013-05-29T14:04:34Z</time>
      </trkpt>
      <trkpt lat="43.89031" lon="6.65369">
        <ele>1480.09</ele>
        <time>2013-05-29T14:04:37Z</time>
      </trkpt>
      <trkpt lat="43.89033" lon="6.65396">
        <ele>1476.72</ele>
        <time>2013-05-29T14:04:40Z</time>
      </trkpt>
      <trkpt lat="43.89039" lon="6.6543">
        <ele>1469.99</ele>
        <time>2013-05-29T14:04:46Z</time>
      </trkpt>
      <trkpt lat="43.89047" lon="6.65431">
        <ele>1466.63</ele>
        <time>2013-05-29T14:04:53Z</time>
      </trkpt>
      <trkpt lat="43.89056" lon="6.65445">
        <ele>1464.23</ele>
        <time>2013-05-29T14:04:59Z</time>
      </trkpt>
      <trkpt lat="43.89068" lon="6.6543">
        <ele>1459.42</ele>
        <time>2013-05-29T14:05:05Z</time>
      </trkpt>
      <trkpt lat="43.89084" lon="6.65417">
        <ele>1455.09</ele>
        <time>2013-05-29T14:05:09Z</time>
      </trkpt>
      <trkpt lat="43.89086" lon="6.65414">
        <ele>1455.09</ele>
        <time>2013-05-29T14:05:10Z</time>
      </trkpt>
      <trkpt lat="43.89093" lon="6.65434">
        <ele>1450.29</ele>
        <time>2013-05-29T14:05:16Z</time>
      </trkpt>
      <trkpt lat="43.89094" lon="6.65438">
        <ele>1450.29</ele>
        <time>2013-05-29T14:05:17Z</time>
      </trkpt>
      <trkpt lat="43.89091" lon="6.65441">
        <ele>1450.29</ele>
        <time>2013-05-29T14:05:52Z</time>
      </trkpt>
      <trkpt lat="43.89097" lon="6.65459">
        <ele>1446.44</ele>
        <time>2013-05-29T14:06:18Z</time>
      </trkpt>
      <trkpt lat="43.89099" lon="6.65475">
        <ele>1441.63</ele>
        <time>2013-05-29T14:06:22Z</time>
      </trkpt>
      <trkpt lat="43.89101" lon="6.65496">
        <ele>1437.79</ele>
        <time>2013-05-29T14:06:27Z</time>
      </trkpt>
      <trkpt lat="43.89106" lon="6.65514">
        <ele>1433.94</ele>
        <time>2013-05-29T14:06:32Z</time>
      </trkpt>
      <trkpt lat="43.89108" lon="6.65517">
        <ele>1434.91</ele>
        <time>2013-05-29T14:06:33Z</time>
      </trkpt>
      <trkpt lat="43.89112" lon="6.65532">
        <ele>1431.06</ele>
        <time>2013-05-29T14:06:37Z</time>
      </trkpt>
      <trkpt lat="43.89118" lon="6.65559">
        <ele>1425.77</ele>
        <time>2013-05-29T14:06:46Z</time>
      </trkpt>
      <trkpt lat="43.89123" lon="6.65579">
        <ele>1421.93</ele>
        <time>2013-05-29T14:06:53Z</time>
      </trkpt>
      <trkpt lat="43.89125" lon="6.65579">
        <ele>1420.49</ele>
        <time>2013-05-29T14:06:56Z</time>
      </trkpt>
      <trkpt lat="43.89127" lon="6.65577">
        <ele>1420.49</ele>
        <time>2013-05-29T14:06:57Z</time>
      </trkpt>
      <trkpt lat="43.89137" lon="6.65547">
        <ele>1415.68</ele>
        <time>2013-05-29T14:07:06Z</time>
      </trkpt>
      <trkpt lat="43.89152" lon="6.65513">
        <ele>1408.47</ele>
        <time>2013-05-29T14:07:19Z</time>
      </trkpt>
      <trkpt lat="43.89158" lon="6.65496">
        <ele>1405.1</ele>
        <time>2013-05-29T14:07:24Z</time>
      </trkpt>
      <trkpt lat="43.89159" lon="6.65493">
        <ele>1405.58</ele>
        <time>2013-05-29T14:07:25Z</time>
      </trkpt>
      <trkpt lat="43.89166" lon="6.65478">
        <ele>1405.1</ele>
        <time>2013-05-29T14:07:31Z</time>
      </trkpt>
      <trkpt lat="43.89178" lon="6.65491">
        <ele>1401.26</ele>
        <time>2013-05-29T14:07:37Z</time>
      </trkpt>
      <trkpt lat="43.89184" lon="6.65502">
        <ele>1397.89</ele>
        <time>2013-05-29T14:07:40Z</time>
      </trkpt>
      <trkpt lat="43.89187" lon="6.65511">
        <ele>1394.53</ele>
        <time>2013-05-29T14:08:10Z</time>
      </trkpt>
      <trkpt lat="43.89191" lon="6.65511">
        <ele>1391.17</ele>
        <time>2013-05-29T14:08:17Z</time>
      </trkpt>
      <trkpt lat="43.89192" lon="6.65509">
        <ele>1391.17</ele>
        <time>2013-05-29T14:08:18Z</time>
      </trkpt>
      <trkpt lat="43.89196" lon="6.6547">
        <ele>1387.8</ele>
        <time>2013-05-29T14:09:16Z</time>
      </trkpt>
      <trkpt lat="43.89202" lon="6.65466">
        <ele>1382.51</ele>
        <time>2013-05-29T14:09:26Z</time>
      </trkpt>
      <trkpt lat="43.89203" lon="6.65475">
        <ele>1378.19</ele>
        <time>2013-05-29T14:09:43Z</time>
      </trkpt>
      <trkpt lat="43.89211" lon="6.65492">
        <ele>1372.42</ele>
        <time>2013-05-29T14:10:01Z</time>
      </trkpt>
      <trkpt lat="43.89214" lon="6.65501">
        <ele>1371.94</ele>
        <time>2013-05-29T14:10:21Z</time>
      </trkpt>
      <trkpt lat="43.89218" lon="6.65501">
        <ele>1373.38</ele>
        <time>2013-05-29T14:10:27Z</time>
      </trkpt>
      <trkpt lat="43.89219" lon="6.65502">
        <ele>1373.38</ele>
        <time>2013-05-29T14:10:28Z</time>
      </trkpt>
      <trkpt lat="43.89228" lon="6.65507">
        <ele>1370.98</ele>
        <time>2013-05-29T14:11:01Z</time>
      </trkpt>
      <trkpt lat="43.89242" lon="6.65539">
        <ele>1371.94</ele>
        <time>2013-05-29T14:12:27Z</time>
      </trkpt>
      <trkpt lat="43.89253" lon="6.65567">
        <ele>1375.78</ele>
        <time>2013-05-29T14:12:47Z</time>
      </trkpt>
      <trkpt lat="43.89253" lon="6.65569">
        <ele>1375.3</ele>
        <time>2013-05-29T14:12:48Z</time>
      </trkpt>
      <trkpt lat="43.89258" lon="6.65601">
        <ele>1376.75</ele>
        <time>2013-05-29T14:13:05Z</time>
      </trkpt>
      <trkpt lat="43.89266" lon="6.65612">
        <ele>1381.07</ele>
        <time>2013-05-29T14:13:16Z</time>
      </trkpt>
      <trkpt lat="43.89267" lon="6.65613">
        <ele>1380.11</ele>
        <time>2013-05-29T14:13:17Z</time>
      </trkpt>
      <trkpt lat="43.89297" lon="6.65651">
        <ele>1385.4</ele>
        <time>2013-05-29T14:13:54Z</time>
      </trkpt>
      <trkpt lat="43.89307" lon="6.65678">
        <ele>1384.92</ele>
        <time>2013-05-29T14:14:10Z</time>
      </trkpt>
      <trkpt lat="43.89333" lon="6.65719">
        <ele>1383.96</ele>
        <time>2013-05-29T14:15:35Z</time>
      </trkpt>
      <trkpt lat="43.89371" lon="6.65755">
        <ele>1379.63</ele>
        <time>2013-05-29T14:15:46Z</time>
      </trkpt>
      <trkpt lat="43.89378" lon="6.65757">
        <ele>1381.07</ele>
        <time>2013-05-29T14:15:57Z</time>
      </trkpt>
      <trkpt lat="43.89408" lon="6.65778">
        <ele>1384.44</ele>
        <time>2013-05-29T14:16:26Z</time>
      </trkpt>
      <trkpt lat="43.89461" lon="6.65832">
        <ele>1384.92</ele>
        <time>2013-05-29T14:16:55Z</time>
      </trkpt>
      <trkpt lat="43.89484" lon="6.65862">
        <ele>1384.44</ele>
        <time>2013-05-29T14:17:17Z</time>
      </trkpt>
      <trkpt lat="43.89486" lon="6.65867">
        <ele>1383.96</ele>
        <time>2013-05-29T14:18:28Z</time>
      </trkpt>
      <trkpt lat="43.89544" lon="6.6595">
        <ele>1381.55</ele>
        <time>2013-05-29T14:18:46Z</time>
      </trkpt>
      <trkpt lat="43.89562" lon="6.6598">
        <ele>1382.03</ele>
        <time>2013-05-29T14:18:57Z</time>
      </trkpt>
      <trkpt lat="43.89576" lon="6.65994">
        <ele>1384.92</ele>
        <time>2013-05-29T14:19:13Z</time>
      </trkpt>
      <trkpt lat="43.8958" lon="6.66016">
        <ele>1384.92</ele>
        <time>2013-05-29T14:19:27Z</time>
      </trkpt>
      <trkpt lat="43.89592" lon="6.66049">
        <ele>1386.84</ele>
        <time>2013-05-29T14:19:50Z</time>
      </trkpt>
      <trkpt lat="43.89599" lon="6.66067">
        <ele>1388.28</ele>
        <time>2013-05-29T14:20:04Z</time>
      </trkpt>
      <trkpt lat="43.89599" lon="6.66069">
        <ele>1387.8</ele>
        <time>2013-05-29T14:20:05Z</time>
      </trkpt>
      <trkpt lat="43.89596" lon="6.6609">
        <ele>1382.99</ele>
        <time>2013-05-29T14:20:12Z</time>
      </trkpt>
      <trkpt lat="43.89604" lon="6.66136">
        <ele>1375.3</ele>
        <time>2013-05-29T14:20:23Z</time>
      </trkpt>
      <trkpt lat="43.89605" lon="6.6614">
        <ele>1375.3</ele>
        <time>2013-05-29T14:20:24Z</time>
      </trkpt>
      <trkpt lat="43.89609" lon="6.66158">
        <ele>1372.9</ele>
        <time>2013-05-29T14:20:30Z</time>
      </trkpt>
      <trkpt lat="43.89633" lon="6.66213">
        <ele>1365.21</ele>
        <time>2013-05-29T14:21:16Z</time>
      </trkpt>
      <trkpt lat="43.89643" lon="6.66255">
        <ele>1362.33</ele>
        <time>2013-05-29T14:21:20Z</time>
      </trkpt>
      <trkpt lat="43.89667" lon="6.66326">
        <ele>1353.67</ele>
        <time>2013-05-29T14:21:26Z</time>
      </trkpt>
      <trkpt lat="43.8969" lon="6.66381">
        <ele>1347.43</ele>
        <time>2013-05-29T14:21:30Z</time>
      </trkpt>
      <trkpt lat="43.89699" lon="6.66404">
        <ele>1344.06</ele>
        <time>2013-05-29T14:21:32Z</time>
      </trkpt>
      <trkpt lat="43.89708" lon="6.66426">
        <ele>1340.7</ele>
        <time>2013-05-29T14:21:34Z</time>
      </trkpt>
      <trkpt lat="43.89718" lon="6.6646">
        <ele>1336.85</ele>
        <time>2013-05-29T14:21:37Z</time>
      </trkpt>
      <trkpt lat="43.89726" lon="6.66482">
        <ele>1333.49</ele>
        <time>2013-05-29T14:21:39Z</time>
      </trkpt>
      <trkpt lat="43.89743" lon="6.66536">
        <ele>1326.28</ele>
        <time>2013-05-29T14:21:43Z</time>
      </trkpt>
      <trkpt lat="43.89751" lon="6.66564">
        <ele>1322.43</ele>
        <time>2013-05-29T14:21:45Z</time>
      </trkpt>
      <trkpt lat="43.89762" lon="6.66607">
        <ele>1319.55</ele>
        <time>2013-05-29T14:21:48Z</time>
      </trkpt>
      <trkpt lat="43.89789" lon="6.66684">
        <ele>1314.26</ele>
        <time>2013-05-29T14:21:53Z</time>
      </trkpt>
      <trkpt lat="43.89815" lon="6.66759">
        <ele>1308.01</ele>
        <time>2013-05-29T14:21:58Z</time>
      </trkpt>
      <trkpt lat="43.89828" lon="6.66805">
        <ele>1303.69</ele>
        <time>2013-05-29T14:22:01Z</time>
      </trkpt>
      <trkpt lat="43.89835" lon="6.66833">
        <ele>1299.84</ele>
        <time>2013-05-29T14:22:03Z</time>
      </trkpt>
      <trkpt lat="43.89842" lon="6.66867">
        <ele>1294.55</ele>
        <time>2013-05-29T14:22:06Z</time>
      </trkpt>
      <trkpt lat="43.89848" lon="6.66888">
        <ele>1291.19</ele>
        <time>2013-05-29T14:22:08Z</time>
      </trkpt>
      <trkpt lat="43.89855" lon="6.66943">
        <ele>1285.42</ele>
        <time>2013-05-29T14:22:13Z</time>
      </trkpt>
      <trkpt lat="43.89858" lon="6.66969">
        <ele>1282.06</ele>
        <time>2013-05-29T14:22:15Z</time>
      </trkpt>
      <trkpt lat="43.89864" lon="6.66993">
        <ele>1278.21</ele>
        <time>2013-05-29T14:22:18Z</time>
      </trkpt>
      <trkpt lat="43.89865" lon="6.67">
        <ele>1276.77</ele>
        <time>2013-05-29T14:22:28Z</time>
      </trkpt>
      <trkpt lat="43.89875" lon="6.67037">
        <ele>1273.4</ele>
        <time>2013-05-29T14:22:34Z</time>
      </trkpt>
      <trkpt lat="43.8989" lon="6.67062">
        <ele>1268.6</ele>
        <time>2013-05-29T14:22:37Z</time>
      </trkpt>
      <trkpt lat="43.89912" lon="6.6708">
        <ele>1263.31</ele>
        <time>2013-05-29T14:22:40Z</time>
      </trkpt>
      <trkpt lat="43.89935" lon="6.67096">
        <ele>1261.39</ele>
        <time>2013-05-29T14:22:46Z</time>
      </trkpt>
      <trkpt lat="43.89932" lon="6.67098">
        <ele>1259.94</ele>
        <time>2013-05-29T14:22:50Z</time>
      </trkpt>
      <trkpt lat="43.89922" lon="6.67094">
        <ele>1259.46</ele>
        <time>2013-05-29T14:23:34Z</time>
      </trkpt>
      <trkpt lat="43.89923" lon="6.67094">
        <ele>1262.83</ele>
        <time>2013-05-29T14:23:44Z</time>
      </trkpt>
      <trkpt lat="43.89923" lon="6.67094">
        <ele>1259.46</ele>
        <time>2013-05-29T14:23:56Z</time>
      </trkpt>
      <trkpt lat="43.89883" lon="6.67087">
        <ele>1256.1</ele>
        <time>2013-05-29T14:24:08Z</time>
      </trkpt>
      <trkpt lat="43.89816" lon="6.67041">
        <ele>1252.25</ele>
        <time>2013-05-29T14:24:17Z</time>
      </trkpt>
      <trkpt lat="43.89773" lon="6.66973">
        <ele>1248.41</ele>
        <time>2013-05-29T14:24:27Z</time>
      </trkpt>
      <trkpt lat="43.89758" lon="6.66946">
        <ele>1249.85</ele>
        <time>2013-05-29T14:24:31Z</time>
      </trkpt>
      <trkpt lat="43.89705" lon="6.66888">
        <ele>1248.41</ele>
        <time>2013-05-29T14:24:46Z</time>
      </trkpt>
      <trkpt lat="43.89649" lon="6.66792">
        <ele>1245.04</ele>
        <time>2013-05-29T14:25:10Z</time>
      </trkpt>
      <trkpt lat="43.89636" lon="6.66786">
        <ele>1241.2</ele>
        <time>2013-05-29T14:25:14Z</time>
      </trkpt>
      <trkpt lat="43.89639" lon="6.66806">
        <ele>1238.8</ele>
        <time>2013-05-29T14:25:18Z</time>
      </trkpt>
      <trkpt lat="43.89641" lon="6.66814">
        <ele>1238.8</ele>
        <time>2013-05-29T14:25:19Z</time>
      </trkpt>
      <trkpt lat="43.89661" lon="6.66869">
        <ele>1235.43</ele>
        <time>2013-05-29T14:25:26Z</time>
      </trkpt>
      <trkpt lat="43.89686" lon="6.66925">
        <ele>1231.11</ele>
        <time>2013-05-29T14:25:32Z</time>
      </trkpt>
      <trkpt lat="43.89706" lon="6.66967">
        <ele>1226.3</ele>
        <time>2013-05-29T14:25:37Z</time>
      </trkpt>
      <trkpt lat="43.8971" lon="6.66977">
        <ele>1226.3</ele>
        <time>2013-05-29T14:25:38Z</time>
      </trkpt>
      <trkpt lat="43.89718" lon="6.67003">
        <ele>1222.93</ele>
        <time>2013-05-29T14:25:41Z</time>
      </trkpt>
      <trkpt lat="43.89724" lon="6.67036">
        <ele>1216.69</ele>
        <time>2013-05-29T14:25:46Z</time>
      </trkpt>
      <trkpt lat="43.89729" lon="6.67063">
        <ele>1212.36</ele>
        <time>2013-05-29T14:25:52Z</time>
      </trkpt>
      <trkpt lat="43.89718" lon="6.67072">
        <ele>1207.55</ele>
        <time>2013-05-29T14:26:05Z</time>
      </trkpt>
      <trkpt lat="43.89704" lon="6.67064">
        <ele>1203.23</ele>
        <time>2013-05-29T14:26:17Z</time>
      </trkpt>
      <trkpt lat="43.89697" lon="6.6708">
        <ele>1200.82</ele>
        <time>2013-05-29T14:26:41Z</time>
      </trkpt>
      <trkpt lat="43.89697" lon="6.67077">
        <ele>1201.79</ele>
        <time>2013-05-29T14:26:57Z</time>
      </trkpt>
      <trkpt lat="43.89692" lon="6.67058">
        <ele>1202.75</ele>
        <time>2013-05-29T14:27:28Z</time>
      </trkpt>
      <trkpt lat="43.89704" lon="6.67029">
        <ele>1204.67</ele>
        <time>2013-05-29T14:28:20Z</time>
      </trkpt>
      <trkpt lat="43.89703" lon="6.67037">
        <ele>1202.75</ele>
        <time>2013-05-29T14:29:44Z</time>
      </trkpt>
      <trkpt lat="43.89696" lon="6.67042">
        <ele>1203.71</ele>
        <time>2013-05-29T14:34:54Z</time>
      </trkpt>
      <trkpt lat="43.89687" lon="6.6706">
        <ele>1202.75</ele>
        <time>2013-05-29T14:35:16Z</time>
      </trkpt>
      <trkpt lat="43.89689" lon="6.67099">
        <ele>1199.86</ele>
        <time>2013-05-29T14:35:52Z</time>
      </trkpt>
      <trkpt lat="43.89692" lon="6.67104">
        <ele>1200.34</ele>
        <time>2013-05-29T14:35:55Z</time>
      </trkpt>
      <trkpt lat="43.89696" lon="6.67195">
        <ele>1202.27</ele>
        <time>2013-05-29T14:36:26Z</time>
      </trkpt>
      <trkpt lat="43.89709" lon="6.67205">
        <ele>1201.79</ele>
        <time>2013-05-29T14:36:33Z</time>
      </trkpt>
      <trkpt lat="43.89735" lon="6.67238">
        <ele>1205.15</ele>
        <time>2013-05-29T14:36:51Z</time>
      </trkpt>
      <trkpt lat="43.89749" lon="6.67264">
        <ele>1209</ele>
        <time>2013-05-29T14:37:06Z</time>
      </trkpt>
      <trkpt lat="43.8973" lon="6.6727">
        <ele>1214.28</ele>
        <time>2013-05-29T14:37:21Z</time>
      </trkpt>
      <trkpt lat="43.89729" lon="6.6727">
        <ele>1213.32</ele>
        <time>2013-05-29T14:37:22Z</time>
      </trkpt>
      <trkpt lat="43.89708" lon="6.67256">
        <ele>1216.69</ele>
        <time>2013-05-29T14:37:42Z</time>
      </trkpt>
      <trkpt lat="43.89674" lon="6.67251">
        <ele>1221.49</ele>
        <time>2013-05-29T14:38:17Z</time>
      </trkpt>
      <trkpt lat="43.89671" lon="6.67251">
        <ele>1221.97</ele>
        <time>2013-05-29T14:38:21Z</time>
      </trkpt>
      <trkpt lat="43.89658" lon="6.67257">
        <ele>1225.82</ele>
        <time>2013-05-29T14:38:31Z</time>
      </trkpt>
      <trkpt lat="43.89657" lon="6.67258">
        <ele>1225.82</ele>
        <time>2013-05-29T14:38:32Z</time>
      </trkpt>
      <trkpt lat="43.89609" lon="6.67278">
        <ele>1230.62</ele>
        <time>2013-05-29T14:39:15Z</time>
      </trkpt>
      <trkpt lat="43.89585" lon="6.67282">
        <ele>1234.47</ele>
        <time>2013-05-29T14:39:33Z</time>
      </trkpt>
      <trkpt lat="43.89551" lon="6.67291">
        <ele>1240.72</ele>
        <time>2013-05-29T14:40:05Z</time>
      </trkpt>
      <trkpt lat="43.8953" lon="6.67298">
        <ele>1245.53</ele>
        <time>2013-05-29T14:40:30Z</time>
      </trkpt>
      <trkpt lat="43.89522" lon="6.67309">
        <ele>1248.89</ele>
        <time>2013-05-29T14:40:43Z</time>
      </trkpt>
      <trkpt lat="43.89522" lon="6.67312">
        <ele>1247.93</ele>
        <time>2013-05-29T14:40:46Z</time>
      </trkpt>
      <trkpt lat="43.89533" lon="6.67318">
        <ele>1250.81</ele>
        <time>2013-05-29T14:41:00Z</time>
      </trkpt>
      <trkpt lat="43.89556" lon="6.67326">
        <ele>1254.66</ele>
        <time>2013-05-29T14:41:22Z</time>
      </trkpt>
      <trkpt lat="43.89544" lon="6.67342">
        <ele>1258.02</ele>
        <time>2013-05-29T14:41:36Z</time>
      </trkpt>
      <trkpt lat="43.89503" lon="6.67372">
        <ele>1261.39</ele>
        <time>2013-05-29T14:42:05Z</time>
      </trkpt>
      <trkpt lat="43.8947" lon="6.67395">
        <ele>1260.91</ele>
        <time>2013-05-29T14:42:26Z</time>
      </trkpt>
      <trkpt lat="43.89452" lon="6.67419">
        <ele>1264.75</ele>
        <time>2013-05-29T14:42:42Z</time>
      </trkpt>
      <trkpt lat="43.89437" lon="6.67435">
        <ele>1267.64</ele>
        <time>2013-05-29T14:42:54Z</time>
      </trkpt>
      <trkpt lat="43.89426" lon="6.67484">
        <ele>1266.19</ele>
        <time>2013-05-29T14:43:16Z</time>
      </trkpt>
      <trkpt lat="43.89432" lon="6.67522">
        <ele>1262.35</ele>
        <time>2013-05-29T14:43:20Z</time>
      </trkpt>
      <trkpt lat="43.89444" lon="6.67593">
        <ele>1257.06</ele>
        <time>2013-05-29T14:43:27Z</time>
      </trkpt>
      <trkpt lat="43.89445" lon="6.67597">
        <ele>1253.7</ele>
        <time>2013-05-29T14:43:29Z</time>
      </trkpt>
      <trkpt lat="43.89451" lon="6.67628">
        <ele>1253.7</ele>
        <time>2013-05-29T14:43:39Z</time>
      </trkpt>
      <trkpt lat="43.8943" lon="6.67701">
        <ele>1247.93</ele>
        <time>2013-05-29T14:44:05Z</time>
      </trkpt>
      <trkpt lat="43.89429" lon="6.67703">
        <ele>1247.93</ele>
        <time>2013-05-29T14:44:06Z</time>
      </trkpt>
      <trkpt lat="43.89424" lon="6.67724">
        <ele>1248.89</ele>
        <time>2013-05-29T14:44:17Z</time>
      </trkpt>
      <trkpt lat="43.89398" lon="6.67807">
        <ele>1247.45</ele>
        <time>2013-05-29T14:44:40Z</time>
      </trkpt>
      <trkpt lat="43.89385" lon="6.67921">
        <ele>1244.08</ele>
        <time>2013-05-29T14:45:46Z</time>
      </trkpt>
      <trkpt lat="43.89361" lon="6.68027">
        <ele>1242.16</ele>
        <time>2013-05-29T14:46:14Z</time>
      </trkpt>
      <trkpt lat="43.89346" lon="6.68071">
        <ele>1241.68</ele>
        <time>2013-05-29T14:46:26Z</time>
      </trkpt>
      <trkpt lat="43.89311" lon="6.68077">
        <ele>1243.6</ele>
        <time>2013-05-29T14:46:47Z</time>
      </trkpt>
      <trkpt lat="43.89268" lon="6.68098">
        <ele>1244.56</ele>
        <time>2013-05-29T14:47:14Z</time>
      </trkpt>
      <trkpt lat="43.89262" lon="6.68163">
        <ele>1248.89</ele>
        <time>2013-05-29T14:47:41Z</time>
      </trkpt>
      <trkpt lat="43.89267" lon="6.68225">
        <ele>1255.14</ele>
        <time>2013-05-29T14:48:15Z</time>
      </trkpt>
      <trkpt lat="43.89265" lon="6.68274">
        <ele>1259.46</ele>
        <time>2013-05-29T14:48:49Z</time>
      </trkpt>
      <trkpt lat="43.8928" lon="6.68332">
        <ele>1263.79</ele>
        <time>2013-05-29T14:49:18Z</time>
      </trkpt>
      <trkpt lat="43.89282" lon="6.68397">
        <ele>1267.64</ele>
        <time>2013-05-29T14:49:49Z</time>
      </trkpt>
      <trkpt lat="43.89275" lon="6.68453">
        <ele>1271</ele>
        <time>2013-05-29T14:50:14Z</time>
      </trkpt>
      <trkpt lat="43.89274" lon="6.68454">
        <ele>1270.52</ele>
        <time>2013-05-29T14:50:15Z</time>
      </trkpt>
      <trkpt lat="43.89262" lon="6.68469">
        <ele>1273.88</ele>
        <time>2013-05-29T14:50:28Z</time>
      </trkpt>
      <trkpt lat="43.89253" lon="6.68481">
        <ele>1276.29</ele>
        <time>2013-05-29T14:50:40Z</time>
      </trkpt>
      <trkpt lat="43.89231" lon="6.68504">
        <ele>1277.25</ele>
        <time>2013-05-29T14:51:49Z</time>
      </trkpt>
      <trkpt lat="43.8922" lon="6.68521">
        <ele>1277.73</ele>
        <time>2013-05-29T14:55:01Z</time>
      </trkpt>
      <trkpt lat="43.89178" lon="6.68578">
        <ele>1277.73</ele>
        <time>2013-05-29T14:55:28Z</time>
      </trkpt>
      <trkpt lat="43.89159" lon="6.68582">
        <ele>1281.09</ele>
        <time>2013-05-29T14:55:40Z</time>
      </trkpt>
      <trkpt lat="43.89092" lon="6.68574">
        <ele>1283.98</ele>
        <time>2013-05-29T14:56:14Z</time>
      </trkpt>
      <trkpt lat="43.89052" lon="6.68571">
        <ele>1288.3</ele>
        <time>2013-05-29T14:56:44Z</time>
      </trkpt>
      <trkpt lat="43.88986" lon="6.68572">
        <ele>1288.3</ele>
        <time>2013-05-29T14:57:09Z</time>
      </trkpt>
      <trkpt lat="43.88949" lon="6.68561">
        <ele>1286.38</ele>
        <time>2013-05-29T14:57:20Z</time>
      </trkpt>
      <trkpt lat="43.88913" lon="6.68585">
        <ele>1288.3</ele>
        <time>2013-05-29T14:57:42Z</time>
      </trkpt>
      <trkpt lat="43.88852" lon="6.68628">
        <ele>1290.71</ele>
        <time>2013-05-29T14:58:20Z</time>
      </trkpt>
      <trkpt lat="43.8883" lon="6.68652">
        <ele>1291.67</ele>
        <time>2013-05-29T14:58:44Z</time>
      </trkpt>
      <trkpt lat="43.88832" lon="6.68652">
        <ele>1291.67</ele>
        <time>2013-05-29T14:59:09Z</time>
      </trkpt>
      <trkpt lat="43.88852" lon="6.6862">
        <ele>1290.23</ele>
        <time>2013-05-29T14:59:27Z</time>
      </trkpt>
      <trkpt lat="43.889" lon="6.68594">
        <ele>1289.75</ele>
        <time>2013-05-29T14:59:46Z</time>
      </trkpt>
      <trkpt lat="43.88931" lon="6.68565">
        <ele>1285.9</ele>
        <time>2013-05-29T15:00:01Z</time>
      </trkpt>
      <trkpt lat="43.88947" lon="6.68561">
        <ele>1286.38</ele>
        <time>2013-05-29T15:00:43Z</time>
      </trkpt>
      <trkpt lat="43.88942" lon="6.68566">
        <ele>1286.38</ele>
        <time>2013-05-29T15:00:51Z</time>
      </trkpt>
      <trkpt lat="43.88911" lon="6.68588">
        <ele>1289.75</ele>
        <time>2013-05-29T15:01:09Z</time>
      </trkpt>
      <trkpt lat="43.88804" lon="6.6866">
        <ele>1290.71</ele>
        <time>2013-05-29T15:02:14Z</time>
      </trkpt>
      <trkpt lat="43.88771" lon="6.68695">
        <ele>1288.3</ele>
        <time>2013-05-29T15:02:30Z</time>
      </trkpt>
      <trkpt lat="43.88766" lon="6.68698">
        <ele>1288.3</ele>
        <time>2013-05-29T15:02:31Z</time>
      </trkpt>
      <trkpt lat="43.88698" lon="6.68694">
        <ele>1285.42</ele>
        <time>2013-05-29T15:02:50Z</time>
      </trkpt>
      <trkpt lat="43.88627" lon="6.68704">
        <ele>1288.3</ele>
        <time>2013-05-29T15:03:29Z</time>
      </trkpt>
      <trkpt lat="43.88569" lon="6.68713">
        <ele>1295.03</ele>
        <time>2013-05-29T15:04:19Z</time>
      </trkpt>
      <trkpt lat="43.88568" lon="6.6871">
        <ele>1296.48</ele>
        <time>2013-05-29T15:04:27Z</time>
      </trkpt>
      <trkpt lat="43.88567" lon="6.68712">
        <ele>1295.99</ele>
        <time>2013-05-29T15:04:28Z</time>
      </trkpt>
      <trkpt lat="43.88554" lon="6.68726">
        <ele>1300.32</ele>
        <time>2013-05-29T15:04:53Z</time>
      </trkpt>
      <trkpt lat="43.88541" lon="6.68718">
        <ele>1302.24</ele>
        <time>2013-05-29T15:05:47Z</time>
      </trkpt>
      <trkpt lat="43.88526" lon="6.68704">
        <ele>1298.4</ele>
        <time>2013-05-29T15:06:04Z</time>
      </trkpt>
      <trkpt lat="43.88517" lon="6.68697">
        <ele>1295.03</ele>
        <time>2013-05-29T15:06:06Z</time>
      </trkpt>
      <trkpt lat="43.88499" lon="6.68684">
        <ele>1291.19</ele>
        <time>2013-05-29T15:06:10Z</time>
      </trkpt>
      <trkpt lat="43.88487" lon="6.68668">
        <ele>1286.86</ele>
        <time>2013-05-29T15:06:13Z</time>
      </trkpt>
      <trkpt lat="43.88488" lon="6.6864">
        <ele>1283.5</ele>
        <time>2013-05-29T15:06:17Z</time>
      </trkpt>
      <trkpt lat="43.88484" lon="6.68626">
        <ele>1279.65</ele>
        <time>2013-05-29T15:06:20Z</time>
      </trkpt>
      <trkpt lat="43.88468" lon="6.68617">
        <ele>1274.36</ele>
        <time>2013-05-29T15:06:25Z</time>
      </trkpt>
      <trkpt lat="43.88465" lon="6.68613">
        <ele>1272.92</ele>
        <time>2013-05-29T15:06:30Z</time>
      </trkpt>
      <trkpt lat="43.8847" lon="6.68602">
        <ele>1269.08</ele>
        <time>2013-05-29T15:06:37Z</time>
      </trkpt>
      <trkpt lat="43.8845" lon="6.68592">
        <ele>1264.75</ele>
        <time>2013-05-29T15:06:48Z</time>
      </trkpt>
      <trkpt lat="43.88438" lon="6.68591">
        <ele>1260.91</ele>
        <time>2013-05-29T15:06:53Z</time>
      </trkpt>
      <trkpt lat="43.88422" lon="6.68591">
        <ele>1255.14</ele>
        <time>2013-05-29T15:07:35Z</time>
      </trkpt>
      <trkpt lat="43.88419" lon="6.68579">
        <ele>1251.29</ele>
        <time>2013-05-29T15:07:52Z</time>
      </trkpt>
      <trkpt lat="43.88405" lon="6.6858">
        <ele>1246.97</ele>
        <time>2013-05-29T15:07:59Z</time>
      </trkpt>
      <trkpt lat="43.88391" lon="6.68581">
        <ele>1243.12</ele>
        <time>2013-05-29T15:08:05Z</time>
      </trkpt>
      <trkpt lat="43.88364" lon="6.68574">
        <ele>1237.83</ele>
        <time>2013-05-29T15:08:17Z</time>
      </trkpt>
      <trkpt lat="43.88349" lon="6.68574">
        <ele>1233.03</ele>
        <time>2013-05-29T15:08:25Z</time>
      </trkpt>
      <trkpt lat="43.88325" lon="6.68577">
        <ele>1228.22</ele>
        <time>2013-05-29T15:08:35Z</time>
      </trkpt>
      <trkpt lat="43.88315" lon="6.68576">
        <ele>1224.86</ele>
        <time>2013-05-29T15:08:39Z</time>
      </trkpt>
      <trkpt lat="43.88297" lon="6.68583">
        <ele>1219.09</ele>
        <time>2013-05-29T15:08:48Z</time>
      </trkpt>
      <trkpt lat="43.88287" lon="6.68586">
        <ele>1216.69</ele>
        <time>2013-05-29T15:09:18Z</time>
      </trkpt>
      <trkpt lat="43.88292" lon="6.68594">
        <ele>1215.24</ele>
        <time>2013-05-29T15:09:29Z</time>
      </trkpt>
      <trkpt lat="43.88267" lon="6.6864">
        <ele>1213.32</ele>
        <time>2013-05-29T15:09:47Z</time>
      </trkpt>
      <trkpt lat="43.88259" lon="6.6866">
        <ele>1209.96</ele>
        <time>2013-05-29T15:09:51Z</time>
      </trkpt>
      <trkpt lat="43.88258" lon="6.68664">
        <ele>1209.96</ele>
        <time>2013-05-29T15:09:52Z</time>
      </trkpt>
      <trkpt lat="43.88252" lon="6.68734">
        <ele>1208.51</ele>
        <time>2013-05-29T15:10:06Z</time>
      </trkpt>
      <trkpt lat="43.88231" lon="6.68779">
        <ele>1206.11</ele>
        <time>2013-05-29T15:10:25Z</time>
      </trkpt>
      <trkpt lat="43.88207" lon="6.68798">
        <ele>1202.75</ele>
        <time>2013-05-29T15:10:34Z</time>
      </trkpt>
      <trkpt lat="43.88204" lon="6.6882">
        <ele>1200.34</ele>
        <time>2013-05-29T15:10:41Z</time>
      </trkpt>
      <trkpt lat="43.8818" lon="6.68836">
        <ele>1196.02</ele>
        <time>2013-05-29T15:10:56Z</time>
      </trkpt>
      <trkpt lat="43.88175" lon="6.68835">
        <ele>1195.54</ele>
        <time>2013-05-29T15:10:57Z</time>
      </trkpt>
      <trkpt lat="43.88157" lon="6.68828">
        <ele>1194.09</ele>
        <time>2013-05-29T15:11:00Z</time>
      </trkpt>
      <trkpt lat="43.88151" lon="6.68827">
        <ele>1194.58</ele>
        <time>2013-05-29T15:11:01Z</time>
      </trkpt>
      <trkpt lat="43.88137" lon="6.68832">
        <ele>1190.73</ele>
        <time>2013-05-29T15:11:04Z</time>
      </trkpt>
      <trkpt lat="43.88121" lon="6.68838">
        <ele>1185.44</ele>
        <time>2013-05-29T15:11:10Z</time>
      </trkpt>
      <trkpt lat="43.8812" lon="6.68837">
        <ele>1185.44</ele>
        <time>2013-05-29T15:11:11Z</time>
      </trkpt>
      <trkpt lat="43.88117" lon="6.68836">
        <ele>1184</ele>
        <time>2013-05-29T15:11:19Z</time>
      </trkpt>
      <trkpt lat="43.88115" lon="6.68837">
        <ele>1184</ele>
        <time>2013-05-29T15:11:20Z</time>
      </trkpt>
      <trkpt lat="43.88116" lon="6.68905">
        <ele>1180.64</ele>
        <time>2013-05-29T15:11:39Z</time>
      </trkpt>
      <trkpt lat="43.88119" lon="6.68911">
        <ele>1180.16</ele>
        <time>2013-05-29T15:11:40Z</time>
      </trkpt>
      <trkpt lat="43.88108" lon="6.69003">
        <ele>1177.75</ele>
        <time>2013-05-29T15:12:01Z</time>
      </trkpt>
      <trkpt lat="43.88081" lon="6.69035">
        <ele>1174.87</ele>
        <time>2013-05-29T15:12:16Z</time>
      </trkpt>
      <trkpt lat="43.88085" lon="6.69039">
        <ele>1174.39</ele>
        <time>2013-05-29T15:12:58Z</time>
      </trkpt>
      <trkpt lat="43.88076" lon="6.69057">
        <ele>1174.39</ele>
        <time>2013-05-29T15:13:06Z</time>
      </trkpt>
      <trkpt lat="43.88049" lon="6.69085">
        <ele>1174.39</ele>
        <time>2013-05-29T15:13:21Z</time>
      </trkpt>
      <trkpt lat="43.88047" lon="6.69087">
        <ele>1175.35</ele>
        <time>2013-05-29T15:13:25Z</time>
      </trkpt>
      <trkpt lat="43.88054" lon="6.69075">
        <ele>1176.31</ele>
        <time>2013-05-29T15:13:32Z</time>
      </trkpt>
      <trkpt lat="43.88051" lon="6.69076">
        <ele>1172.47</ele>
        <time>2013-05-29T15:13:33Z</time>
      </trkpt>
      <trkpt lat="43.88047" lon="6.69077">
        <ele>1172.47</ele>
        <time>2013-05-29T15:13:34Z</time>
      </trkpt>
      <trkpt lat="43.88035" lon="6.6908">
        <ele>1171.5</ele>
        <time>2013-05-29T15:13:36Z</time>
      </trkpt>
      <trkpt lat="43.88029" lon="6.69081">
        <ele>1171.02</ele>
        <time>2013-05-29T15:13:37Z</time>
      </trkpt>
      <trkpt lat="43.87998" lon="6.69076">
        <ele>1163.81</ele>
        <time>2013-05-29T15:13:43Z</time>
      </trkpt>
      <trkpt lat="43.87983" lon="6.6907">
        <ele>1159.49</ele>
        <time>2013-05-29T15:13:47Z</time>
      </trkpt>
      <trkpt lat="43.87963" lon="6.69095">
        <ele>1155.16</ele>
        <time>2013-05-29T15:13:55Z</time>
      </trkpt>
      <trkpt lat="43.87959" lon="6.6911">
        <ele>1151.8</ele>
        <time>2013-05-29T15:13:59Z</time>
      </trkpt>
      <trkpt lat="43.87955" lon="6.69137">
        <ele>1146.99</ele>
        <time>2013-05-29T15:14:03Z</time>
      </trkpt>
      <trkpt lat="43.87948" lon="6.69151">
        <ele>1144.59</ele>
        <time>2013-05-29T15:14:05Z</time>
      </trkpt>
      <trkpt lat="43.87942" lon="6.6916">
        <ele>1140.26</ele>
        <time>2013-05-29T15:14:07Z</time>
      </trkpt>
      <trkpt lat="43.87941" lon="6.69164">
        <ele>1141.22</ele>
        <time>2013-05-29T15:14:08Z</time>
      </trkpt>
      <trkpt lat="43.87941" lon="6.69191">
        <ele>1137.86</ele>
        <time>2013-05-29T15:14:15Z</time>
      </trkpt>
      <trkpt lat="43.8794" lon="6.69198">
        <ele>1137.86</ele>
        <time>2013-05-29T15:14:16Z</time>
      </trkpt>
      <trkpt lat="43.87926" lon="6.69255">
        <ele>1136.9</ele>
        <time>2013-05-29T15:14:30Z</time>
      </trkpt>
      <trkpt lat="43.87927" lon="6.69263">
        <ele>1136.42</ele>
        <time>2013-05-29T15:14:32Z</time>
      </trkpt>
      <trkpt lat="43.87927" lon="6.69266">
        <ele>1135.45</ele>
        <time>2013-05-29T15:14:33Z</time>
      </trkpt>
      <trkpt lat="43.87908" lon="6.69289">
        <ele>1131.13</ele>
        <time>2013-05-29T15:14:47Z</time>
      </trkpt>
      <trkpt lat="43.87883" lon="6.69303">
        <ele>1129.21</ele>
        <time>2013-05-29T15:14:51Z</time>
      </trkpt>
      <trkpt lat="43.8786" lon="6.69323">
        <ele>1123.44</ele>
        <time>2013-05-29T15:14:57Z</time>
      </trkpt>
      <trkpt lat="43.87855" lon="6.6934">
        <ele>1119.59</ele>
        <time>2013-05-29T15:15:01Z</time>
      </trkpt>
      <trkpt lat="43.87856" lon="6.69342">
        <ele>1119.59</ele>
        <time>2013-05-29T15:15:02Z</time>
      </trkpt>
      <trkpt lat="43.87854" lon="6.69348">
        <ele>1118.63</ele>
        <time>2013-05-29T15:15:26Z</time>
      </trkpt>
      <trkpt lat="43.87858" lon="6.69342">
        <ele>1119.59</ele>
        <time>2013-05-29T15:16:25Z</time>
      </trkpt>
      <trkpt lat="43.87863" lon="6.69323">
        <ele>1123.92</ele>
        <time>2013-05-29T15:16:37Z</time>
      </trkpt>
      <trkpt lat="43.87863" lon="6.69321">
        <ele>1123.92</ele>
        <time>2013-05-29T15:16:38Z</time>
      </trkpt>
      <trkpt lat="43.8787" lon="6.69315">
        <ele>1126.32</ele>
        <time>2013-05-29T15:16:57Z</time>
      </trkpt>
      <trkpt lat="43.87859" lon="6.69327">
        <ele>1122.48</ele>
        <time>2013-05-29T15:17:03Z</time>
      </trkpt>
      <trkpt lat="43.87857" lon="6.69332">
        <ele>1122.48</ele>
        <time>2013-05-29T15:17:04Z</time>
      </trkpt>
      <trkpt lat="43.87856" lon="6.69336">
        <ele>1118.63</ele>
        <time>2013-05-29T15:17:05Z</time>
      </trkpt>
      <trkpt lat="43.87855" lon="6.6934">
        <ele>1119.11</ele>
        <time>2013-05-29T15:17:06Z</time>
      </trkpt>
      <trkpt lat="43.87832" lon="6.69363">
        <ele>1117.67</ele>
        <time>2013-05-29T15:17:38Z</time>
      </trkpt>
      <trkpt lat="43.87809" lon="6.69379">
        <ele>1113.82</ele>
        <time>2013-05-29T15:18:13Z</time>
      </trkpt>
      <trkpt lat="43.87807" lon="6.69386">
        <ele>1113.82</ele>
        <time>2013-05-29T15:18:14Z</time>
      </trkpt>
      <trkpt lat="43.87792" lon="6.69406">
        <ele>1109.5</ele>
        <time>2013-05-29T15:18:19Z</time>
      </trkpt>
      <trkpt lat="43.87769" lon="6.6946">
        <ele>1104.69</ele>
        <time>2013-05-29T15:18:32Z</time>
      </trkpt>
      <trkpt lat="43.87762" lon="6.69469">
        <ele>1101.33</ele>
        <time>2013-05-29T15:18:35Z</time>
      </trkpt>
      <trkpt lat="43.87751" lon="6.69485">
        <ele>1097.96</ele>
        <time>2013-05-29T15:18:40Z</time>
      </trkpt>
      <trkpt lat="43.87736" lon="6.69502">
        <ele>1095.08</ele>
        <time>2013-05-29T15:18:46Z</time>
      </trkpt>
      <trkpt lat="43.87713" lon="6.69519">
        <ele>1089.79</ele>
        <time>2013-05-29T15:18:54Z</time>
      </trkpt>
      <trkpt lat="43.8771" lon="6.69521">
        <ele>1089.79</ele>
        <time>2013-05-29T15:19:11Z</time>
      </trkpt>
      <trkpt lat="43.87705" lon="6.69522">
        <ele>1087.87</ele>
        <time>2013-05-29T15:20:04Z</time>
      </trkpt>
      <trkpt lat="43.87676" lon="6.69534">
        <ele>1084.02</ele>
        <time>2013-05-29T15:20:11Z</time>
      </trkpt>
      <trkpt lat="43.87661" lon="6.69552">
        <ele>1079.7</ele>
        <time>2013-05-29T15:20:23Z</time>
      </trkpt>
      <trkpt lat="43.87656" lon="6.69553">
        <ele>1077.29</ele>
        <time>2013-05-29T15:20:30Z</time>
      </trkpt>
      <trkpt lat="43.87638" lon="6.69552">
        <ele>1070.08</ele>
        <time>2013-05-29T15:20:41Z</time>
      </trkpt>
      <trkpt lat="43.87623" lon="6.69561">
        <ele>1066.72</ele>
        <time>2013-05-29T15:20:48Z</time>
      </trkpt>
      <trkpt lat="43.87601" lon="6.6957">
        <ele>1058.07</ele>
        <time>2013-05-29T15:21:07Z</time>
      </trkpt>
      <trkpt lat="43.87592" lon="6.69577">
        <ele>1054.22</ele>
        <time>2013-05-29T15:21:13Z</time>
      </trkpt>
      <trkpt lat="43.87575" lon="6.69585">
        <ele>1050.86</ele>
        <time>2013-05-29T15:21:25Z</time>
      </trkpt>
      <trkpt lat="43.87573" lon="6.69586">
        <ele>1052.3</ele>
        <time>2013-05-29T15:21:34Z</time>
      </trkpt>
      <trkpt lat="43.87564" lon="6.69585">
        <ele>1050.86</ele>
        <time>2013-05-29T15:23:22Z</time>
      </trkpt>
      <trkpt lat="43.87556" lon="6.6958">
        <ele>1054.22</ele>
        <time>2013-05-29T15:24:01Z</time>
      </trkpt>
      <trkpt lat="43.87517" lon="6.69583">
        <ele>1061.43</ele>
        <time>2013-05-29T15:24:41Z</time>
      </trkpt>
      <trkpt lat="43.87498" lon="6.69605">
        <ele>1067.68</ele>
        <time>2013-05-29T15:25:17Z</time>
      </trkpt>
      <trkpt lat="43.87492" lon="6.69612">
        <ele>1071.05</ele>
        <time>2013-05-29T15:25:26Z</time>
      </trkpt>
      <trkpt lat="43.87459" lon="6.69629">
        <ele>1074.89</ele>
        <time>2013-05-29T15:26:07Z</time>
      </trkpt>
      <trkpt lat="43.87446" lon="6.69637">
        <ele>1071.53</ele>
        <time>2013-05-29T15:26:12Z</time>
      </trkpt>
      <trkpt lat="43.87392" lon="6.69644">
        <ele>1066.24</ele>
        <time>2013-05-29T15:26:23Z</time>
      </trkpt>
      <trkpt lat="43.87363" lon="6.69641">
        <ele>1069.6</ele>
        <time>2013-05-29T15:26:46Z</time>
      </trkpt>
      <trkpt lat="43.8731" lon="6.69622">
        <ele>1073.45</ele>
        <time>2013-05-29T15:27:32Z</time>
      </trkpt>
      <trkpt lat="43.87251" lon="6.69624">
        <ele>1078.26</ele>
        <time>2013-05-29T15:28:01Z</time>
      </trkpt>
      <trkpt lat="43.87246" lon="6.6962">
        <ele>1077.78</ele>
        <time>2013-05-29T15:28:03Z</time>
      </trkpt>
      <trkpt lat="43.8723" lon="6.6961">
        <ele>1077.29</ele>
        <time>2013-05-29T15:28:14Z</time>
      </trkpt>
      <trkpt lat="43.8718" lon="6.69602">
        <ele>1078.74</ele>
        <time>2013-05-29T15:28:45Z</time>
      </trkpt>
      <trkpt lat="43.87144" lon="6.6962">
        <ele>1083.54</ele>
        <time>2013-05-29T15:29:25Z</time>
      </trkpt>
      <trkpt lat="43.87121" lon="6.69607">
        <ele>1088.83</ele>
        <time>2013-05-29T15:29:56Z</time>
      </trkpt>
      <trkpt lat="43.87123" lon="6.6959">
        <ele>1094.6</ele>
        <time>2013-05-29T15:30:19Z</time>
      </trkpt>
      <trkpt lat="43.87124" lon="6.69589">
        <ele>1094.6</ele>
        <time>2013-05-29T15:30:20Z</time>
      </trkpt>
      <trkpt lat="43.87118" lon="6.69578">
        <ele>1097.96</ele>
        <time>2013-05-29T15:30:36Z</time>
      </trkpt>
      <trkpt lat="43.87117" lon="6.69577">
        <ele>1097.48</ele>
        <time>2013-05-29T15:30:37Z</time>
      </trkpt>
      <trkpt lat="43.87073" lon="6.69559">
        <ele>1100.85</ele>
        <time>2013-05-29T15:31:32Z</time>
      </trkpt>
      <trkpt lat="43.87054" lon="6.6956">
        <ele>1104.21</ele>
        <time>2013-05-29T15:31:51Z</time>
      </trkpt>
      <trkpt lat="43.87028" lon="6.69554">
        <ele>1108.06</ele>
        <time>2013-05-29T15:32:24Z</time>
      </trkpt>
      <trkpt lat="43.87013" lon="6.69518">
        <ele>1110.94</ele>
        <time>2013-05-29T15:32:59Z</time>
      </trkpt>
      <trkpt lat="43.86991" lon="6.69476">
        <ele>1116.71</ele>
        <time>2013-05-29T15:33:36Z</time>
      </trkpt>
      <trkpt lat="43.86977" lon="6.69472">
        <ele>1118.63</ele>
        <time>2013-05-29T15:33:52Z</time>
      </trkpt>
      <trkpt lat="43.86973" lon="6.69475">
        <ele>1117.67</ele>
        <time>2013-05-29T15:33:57Z</time>
      </trkpt>
      <trkpt lat="43.86941" lon="6.69448">
        <ele>1122</ele>
        <time>2013-05-29T15:34:34Z</time>
      </trkpt>
      <trkpt lat="43.86929" lon="6.69439">
        <ele>1126.32</ele>
        <time>2013-05-29T15:35:26Z</time>
      </trkpt>
      <trkpt lat="43.86916" lon="6.69426">
        <ele>1129.69</ele>
        <time>2013-05-29T15:35:46Z</time>
      </trkpt>
      <trkpt lat="43.86916" lon="6.69425">
        <ele>1129.21</ele>
        <time>2013-05-29T15:35:47Z</time>
      </trkpt>
      <trkpt lat="43.86895" lon="6.69405">
        <ele>1133.53</ele>
        <time>2013-05-29T15:36:12Z</time>
      </trkpt>
      <trkpt lat="43.86878" lon="6.69394">
        <ele>1135.45</ele>
        <time>2013-05-29T15:36:41Z</time>
      </trkpt>
      <trkpt lat="43.86881" lon="6.6939">
        <ele>1134.01</ele>
        <time>2013-05-29T15:39:22Z</time>
      </trkpt>
      <trkpt lat="43.86905" lon="6.69379">
        <ele>1134.49</ele>
        <time>2013-05-29T15:39:29Z</time>
      </trkpt>
      <trkpt lat="43.86898" lon="6.69382">
        <ele>1134.49</ele>
        <time>2013-05-29T15:41:18Z</time>
      </trkpt>
      <trkpt lat="43.86847" lon="6.69356">
        <ele>1133.05</ele>
        <time>2013-05-29T15:41:38Z</time>
      </trkpt>
      <trkpt lat="43.86816" lon="6.69323">
        <ele>1129.21</ele>
        <time>2013-05-29T15:41:48Z</time>
      </trkpt>
      <trkpt lat="43.86784" lon="6.69266">
        <ele>1124.4</ele>
        <time>2013-05-29T15:41:57Z</time>
      </trkpt>
      <trkpt lat="43.86754" lon="6.69235">
        <ele>1124.4</ele>
        <time>2013-05-29T15:42:06Z</time>
      </trkpt>
      <trkpt lat="43.86729" lon="6.69199">
        <ele>1128.73</ele>
        <time>2013-05-29T15:42:33Z</time>
      </trkpt>
      <trkpt lat="43.8671" lon="6.69185">
        <ele>1133.53</ele>
        <time>2013-05-29T15:43:01Z</time>
      </trkpt>
      <trkpt lat="43.86682" lon="6.6917">
        <ele>1137.38</ele>
        <time>2013-05-29T15:43:31Z</time>
      </trkpt>
      <trkpt lat="43.86678" lon="6.69169">
        <ele>1137.38</ele>
        <time>2013-05-29T15:43:34Z</time>
      </trkpt>
      <trkpt lat="43.86646" lon="6.69181">
        <ele>1140.74</ele>
        <time>2013-05-29T15:44:08Z</time>
      </trkpt>
      <trkpt lat="43.86584" lon="6.69238">
        <ele>1141.22</ele>
        <time>2013-05-29T15:44:54Z</time>
      </trkpt>
      <trkpt lat="43.86542" lon="6.6921">
        <ele>1141.7</ele>
        <time>2013-05-29T15:45:09Z</time>
      </trkpt>
      <trkpt lat="43.86525" lon="6.69188">
        <ele>1139.78</ele>
        <time>2013-05-29T15:45:55Z</time>
      </trkpt>
      <trkpt lat="43.86508" lon="6.69172">
        <ele>1137.38</ele>
        <time>2013-05-29T15:46:02Z</time>
      </trkpt>
      <trkpt lat="43.86503" lon="6.69168">
        <ele>1137.38</ele>
        <time>2013-05-29T15:46:03Z</time>
      </trkpt>
      <trkpt lat="43.86497" lon="6.69166">
        <ele>1133.05</ele>
        <time>2013-05-29T15:46:05Z</time>
      </trkpt>
      <trkpt lat="43.86488" lon="6.69159">
        <ele>1131.61</ele>
        <time>2013-05-29T15:46:24Z</time>
      </trkpt>
      <trkpt lat="43.86476" lon="6.69167">
        <ele>1127.76</ele>
        <time>2013-05-29T15:46:30Z</time>
      </trkpt>
      <trkpt lat="43.86453" lon="6.6917">
        <ele>1122.96</ele>
        <time>2013-05-29T15:46:35Z</time>
      </trkpt>
      <trkpt lat="43.86437" lon="6.69162">
        <ele>1119.11</ele>
        <time>2013-05-29T15:46:39Z</time>
      </trkpt>
      <trkpt lat="43.86429" lon="6.69151">
        <ele>1115.75</ele>
        <time>2013-05-29T15:46:42Z</time>
      </trkpt>
      <trkpt lat="43.86423" lon="6.69149">
        <ele>1111.9</ele>
        <time>2013-05-29T15:46:44Z</time>
      </trkpt>
      <trkpt lat="43.86418" lon="6.69136">
        <ele>1107.58</ele>
        <time>2013-05-29T15:46:47Z</time>
      </trkpt>
      <trkpt lat="43.86401" lon="6.69113">
        <ele>1101.81</ele>
        <time>2013-05-29T15:46:59Z</time>
      </trkpt>
      <trkpt lat="43.86399" lon="6.69102">
        <ele>1101.81</ele>
        <time>2013-05-29T15:47:10Z</time>
      </trkpt>
      <trkpt lat="43.86375" lon="6.69087">
        <ele>1095.56</ele>
        <time>2013-05-29T15:47:22Z</time>
      </trkpt>
      <trkpt lat="43.8635" lon="6.69056">
        <ele>1092.2</ele>
        <time>2013-05-29T15:47:35Z</time>
      </trkpt>
      <trkpt lat="43.86341" lon="6.69044">
        <ele>1089.79</ele>
        <time>2013-05-29T15:47:56Z</time>
      </trkpt>
      <trkpt lat="43.86335" lon="6.69032">
        <ele>1085.95</ele>
        <time>2013-05-29T15:48:02Z</time>
      </trkpt>
      <trkpt lat="43.86324" lon="6.69036">
        <ele>1082.1</ele>
        <time>2013-05-29T15:48:05Z</time>
      </trkpt>
      <trkpt lat="43.86309" lon="6.6903">
        <ele>1078.26</ele>
        <time>2013-05-29T15:48:09Z</time>
      </trkpt>
      <trkpt lat="43.86302" lon="6.69027">
        <ele>1074.41</ele>
        <time>2013-05-29T15:48:12Z</time>
      </trkpt>
      <trkpt lat="43.86291" lon="6.69018">
        <ele>1070.57</ele>
        <time>2013-05-29T15:48:17Z</time>
      </trkpt>
      <trkpt lat="43.86224" lon="6.6895">
        <ele>1067.2</ele>
        <time>2013-05-29T15:48:34Z</time>
      </trkpt>
      <trkpt lat="43.86205" lon="6.68937">
        <ele>1063.84</ele>
        <time>2013-05-29T15:48:40Z</time>
      </trkpt>
      <trkpt lat="43.86177" lon="6.68905">
        <ele>1063.84</ele>
        <time>2013-05-29T15:48:50Z</time>
      </trkpt>
      <trkpt lat="43.8617" lon="6.68895">
        <ele>1061.91</ele>
        <time>2013-05-29T15:49:04Z</time>
      </trkpt>
      <trkpt lat="43.8617" lon="6.68896">
        <ele>1061.91</ele>
        <time>2013-05-29T15:49:24Z</time>
      </trkpt>
      <trkpt lat="43.86162" lon="6.68947">
        <ele>1055.18</ele>
        <time>2013-05-29T15:49:33Z</time>
      </trkpt>
      <trkpt lat="43.86171" lon="6.6897">
        <ele>1051.82</ele>
        <time>2013-05-29T15:49:38Z</time>
      </trkpt>
      <trkpt lat="43.86178" lon="6.69069">
        <ele>1053.26</ele>
        <time>2013-05-29T15:50:10Z</time>
      </trkpt>
      <trkpt lat="43.86182" lon="6.69121">
        <ele>1054.22</ele>
        <time>2013-05-29T15:50:26Z</time>
      </trkpt>
      <trkpt lat="43.86184" lon="6.69186">
        <ele>1053.74</ele>
        <time>2013-05-29T15:50:45Z</time>
      </trkpt>
      <trkpt lat="43.86175" lon="6.69188">
        <ele>1055.18</ele>
        <time>2013-05-29T15:50:50Z</time>
      </trkpt>
      <trkpt lat="43.8614" lon="6.69213">
        <ele>1058.07</ele>
        <time>2013-05-29T15:51:17Z</time>
      </trkpt>
      <trkpt lat="43.86139" lon="6.69214">
        <ele>1057.59</ele>
        <time>2013-05-29T15:51:18Z</time>
      </trkpt>
      <trkpt lat="43.86136" lon="6.69262">
        <ele>1056.63</ele>
        <time>2013-05-29T15:51:36Z</time>
      </trkpt>
      <trkpt lat="43.86157" lon="6.69366">
        <ele>1059.51</ele>
        <time>2013-05-29T15:52:13Z</time>
      </trkpt>
      <trkpt lat="43.86168" lon="6.69395">
        <ele>1058.07</ele>
        <time>2013-05-29T15:52:19Z</time>
      </trkpt>
      <trkpt lat="43.86168" lon="6.69448">
        <ele>1054.7</ele>
        <time>2013-05-29T15:52:27Z</time>
      </trkpt>
      <trkpt lat="43.86168" lon="6.69453">
        <ele>1054.7</ele>
        <time>2013-05-29T15:52:28Z</time>
      </trkpt>
      <trkpt lat="43.86167" lon="6.69484">
        <ele>1050.86</ele>
        <time>2013-05-29T15:52:34Z</time>
      </trkpt>
      <trkpt lat="43.86183" lon="6.69506">
        <ele>1046.53</ele>
        <time>2013-05-29T15:52:51Z</time>
      </trkpt>
      <trkpt lat="43.86202" lon="6.69536">
        <ele>1046.05</ele>
        <time>2013-05-29T15:53:15Z</time>
      </trkpt>
      <trkpt lat="43.86207" lon="6.69588">
        <ele>1041.25</ele>
        <time>2013-05-29T15:53:22Z</time>
      </trkpt>
      <trkpt lat="43.86199" lon="6.6961">
        <ele>1035.96</ele>
        <time>2013-05-29T15:53:27Z</time>
      </trkpt>
      <trkpt lat="43.86193" lon="6.69623">
        <ele>1032.59</ele>
        <time>2013-05-29T15:53:33Z</time>
      </trkpt>
      <trkpt lat="43.86194" lon="6.69626">
        <ele>1032.59</ele>
        <time>2013-05-29T15:53:34Z</time>
      </trkpt>
      <trkpt lat="43.86203" lon="6.69638">
        <ele>1028.75</ele>
        <time>2013-05-29T15:53:54Z</time>
      </trkpt>
      <trkpt lat="43.86202" lon="6.69639">
        <ele>1029.23</ele>
        <time>2013-05-29T15:53:56Z</time>
      </trkpt>
      <trkpt lat="43.86201" lon="6.69649">
        <ele>1027.79</ele>
        <time>2013-05-29T15:55:38Z</time>
      </trkpt>
      <trkpt lat="43.86211" lon="6.69643">
        <ele>1023.94</ele>
        <time>2013-05-29T15:55:45Z</time>
      </trkpt>
      <trkpt lat="43.86232" lon="6.69648">
        <ele>1021.54</ele>
        <time>2013-05-29T15:55:51Z</time>
      </trkpt>
      <trkpt lat="43.86247" lon="6.69656">
        <ele>1017.21</ele>
        <time>2013-05-29T15:56:03Z</time>
      </trkpt>
      <trkpt lat="43.86247" lon="6.69659">
        <ele>1017.21</ele>
        <time>2013-05-29T15:56:05Z</time>
      </trkpt>
      <trkpt lat="43.8626" lon="6.69703">
        <ele>1011.93</ele>
        <time>2013-05-29T15:56:14Z</time>
      </trkpt>
      <trkpt lat="43.86266" lon="6.69726">
        <ele>1008.08</ele>
        <time>2013-05-29T15:56:20Z</time>
      </trkpt>
      <trkpt lat="43.86257" lon="6.69727">
        <ele>1004.23</ele>
        <time>2013-05-29T15:56:26Z</time>
      </trkpt>
      <trkpt lat="43.86246" lon="6.69725">
        <ele>1002.79</ele>
        <time>2013-05-29T15:56:35Z</time>
      </trkpt>
      <trkpt lat="43.86246" lon="6.69731">
        <ele>1000.87</ele>
        <time>2013-05-29T15:56:40Z</time>
      </trkpt>
      <trkpt lat="43.86239" lon="6.69731">
        <ele>997.51</ele>
        <time>2013-05-29T15:56:48Z</time>
      </trkpt>
      <trkpt lat="43.8624" lon="6.69738">
        <ele>996.06</ele>
        <time>2013-05-29T15:56:50Z</time>
      </trkpt>
      <trkpt lat="43.8624" lon="6.6976">
        <ele>992.22</ele>
        <time>2013-05-29T15:56:57Z</time>
      </trkpt>
      <trkpt lat="43.86265" lon="6.69773">
        <ele>986.93</ele>
        <time>2013-05-29T15:57:08Z</time>
      </trkpt>
      <trkpt lat="43.8627" lon="6.69776">
        <ele>985.01</ele>
        <time>2013-05-29T15:57:16Z</time>
      </trkpt>
      <trkpt lat="43.86268" lon="6.69777">
        <ele>985.01</ele>
        <time>2013-05-29T15:57:17Z</time>
      </trkpt>
      <trkpt lat="43.86258" lon="6.69781">
        <ele>984.05</ele>
        <time>2013-05-29T15:57:35Z</time>
      </trkpt>
      <trkpt lat="43.86257" lon="6.69788">
        <ele>979.72</ele>
        <time>2013-05-29T15:58:03Z</time>
      </trkpt>
      <trkpt lat="43.86263" lon="6.69793">
        <ele>977.8</ele>
        <time>2013-05-29T15:58:14Z</time>
      </trkpt>
      <trkpt lat="43.86265" lon="6.69813">
        <ele>971.55</ele>
        <time>2013-05-29T15:58:30Z</time>
      </trkpt>
      <trkpt lat="43.86277" lon="6.69825">
        <ele>969.63</ele>
        <time>2013-05-29T15:58:50Z</time>
      </trkpt>
      <trkpt lat="43.8628" lon="6.69829">
        <ele>971.55</ele>
        <time>2013-05-29T15:59:02Z</time>
      </trkpt>
      <trkpt lat="43.86313" lon="6.69798">
        <ele>974.43</ele>
        <time>2013-05-29T15:59:32Z</time>
      </trkpt>
      <trkpt lat="43.86317" lon="6.69807">
        <ele>978.76</ele>
        <time>2013-05-29T15:59:57Z</time>
      </trkpt>
      <trkpt lat="43.863" lon="6.6983">
        <ele>984.53</ele>
        <time>2013-05-29T16:00:33Z</time>
      </trkpt>
      <trkpt lat="43.86293" lon="6.69855">
        <ele>986.45</ele>
        <time>2013-05-29T16:00:58Z</time>
      </trkpt>
      <trkpt lat="43.86266" lon="6.69893">
        <ele>983.57</ele>
        <time>2013-05-29T16:01:16Z</time>
      </trkpt>
      <trkpt lat="43.86258" lon="6.69914">
        <ele>986.93</ele>
        <time>2013-05-29T16:01:32Z</time>
      </trkpt>
      <trkpt lat="43.86252" lon="6.69937">
        <ele>991.26</ele>
        <time>2013-05-29T16:01:59Z</time>
      </trkpt>
      <trkpt lat="43.86236" lon="6.69957">
        <ele>994.62</ele>
        <time>2013-05-29T16:02:24Z</time>
      </trkpt>
      <trkpt lat="43.86204" lon="6.70006">
        <ele>995.1</ele>
        <time>2013-05-29T16:02:50Z</time>
      </trkpt>
      <trkpt lat="43.86179" lon="6.70012">
        <ele>999.91</ele>
        <time>2013-05-29T16:03:08Z</time>
      </trkpt>
      <trkpt lat="43.86105" lon="6.70051">
        <ele>1002.79</ele>
        <time>2013-05-29T16:03:57Z</time>
      </trkpt>
      <trkpt lat="43.86105" lon="6.70052">
        <ele>1002.79</ele>
        <time>2013-05-29T16:03:58Z</time>
      </trkpt>
      <trkpt lat="43.86088" lon="6.70133">
        <ele>1006.64</ele>
        <time>2013-05-29T16:04:31Z</time>
      </trkpt>
      <trkpt lat="43.86076" lon="6.70188">
        <ele>1010.96</ele>
        <time>2013-05-29T16:04:50Z</time>
      </trkpt>
      <trkpt lat="43.86073" lon="6.70201">
        <ele>1012.89</ele>
        <time>2013-05-29T16:05:04Z</time>
      </trkpt>
      <trkpt lat="43.86063" lon="6.70174">
        <ele>1008.08</ele>
        <time>2013-05-29T16:05:12Z</time>
      </trkpt>
      <trkpt lat="43.86057" lon="6.70154">
        <ele>1004.72</ele>
        <time>2013-05-29T16:05:15Z</time>
      </trkpt>
      <trkpt lat="43.8605" lon="6.70128">
        <ele>1001.35</ele>
        <time>2013-05-29T16:05:20Z</time>
      </trkpt>
      <trkpt lat="43.86053" lon="6.70063">
        <ele>997.51</ele>
        <time>2013-05-29T16:05:33Z</time>
      </trkpt>
      <trkpt lat="43.86052" lon="6.70027">
        <ele>993.66</ele>
        <time>2013-05-29T16:06:03Z</time>
      </trkpt>
      <trkpt lat="43.86048" lon="6.70005">
        <ele>990.78</ele>
        <time>2013-05-29T16:06:06Z</time>
      </trkpt>
      <trkpt lat="43.86046" lon="6.69998">
        <ele>989.33</ele>
        <time>2013-05-29T16:06:08Z</time>
      </trkpt>
      <trkpt lat="43.86049" lon="6.69961">
        <ele>983.57</ele>
        <time>2013-05-29T16:06:18Z</time>
      </trkpt>
      <trkpt lat="43.8602" lon="6.69928">
        <ele>980.68</ele>
        <time>2013-05-29T16:06:27Z</time>
      </trkpt>
      <trkpt lat="43.86003" lon="6.69916">
        <ele>977.32</ele>
        <time>2013-05-29T16:06:32Z</time>
      </trkpt>
      <trkpt lat="43.85982" lon="6.69896">
        <ele>973.47</ele>
        <time>2013-05-29T16:06:39Z</time>
      </trkpt>
      <trkpt lat="43.8596" lon="6.69875">
        <ele>970.11</ele>
        <time>2013-05-29T16:06:48Z</time>
      </trkpt>
      <trkpt lat="43.8595" lon="6.6986">
        <ele>964.82</ele>
        <time>2013-05-29T16:06:53Z</time>
      </trkpt>
      <trkpt lat="43.85948" lon="6.69853">
        <ele>963.86</ele>
        <time>2013-05-29T16:06:55Z</time>
      </trkpt>
      <trkpt lat="43.85937" lon="6.69841">
        <ele>960.49</ele>
        <time>2013-05-29T16:06:59Z</time>
      </trkpt>
      <trkpt lat="43.85933" lon="6.69838">
        <ele>960.49</ele>
        <time>2013-05-29T16:07:00Z</time>
      </trkpt>
      <trkpt lat="43.85908" lon="6.6982">
        <ele>957.13</ele>
        <time>2013-05-29T16:07:06Z</time>
      </trkpt>
      <trkpt lat="43.85897" lon="6.69816">
        <ele>953.77</ele>
        <time>2013-05-29T16:07:09Z</time>
      </trkpt>
      <trkpt lat="43.85879" lon="6.69824">
        <ele>950.4</ele>
        <time>2013-05-29T16:07:17Z</time>
      </trkpt>
      <trkpt lat="43.85868" lon="6.69822">
        <ele>949.92</ele>
        <time>2013-05-29T16:07:35Z</time>
      </trkpt>
      <trkpt lat="43.85867" lon="6.69814">
        <ele>951.36</ele>
        <time>2013-05-29T16:08:37Z</time>
      </trkpt>
      <trkpt lat="43.85861" lon="6.69787">
        <ele>954.73</ele>
        <time>2013-05-29T16:09:18Z</time>
      </trkpt>
      <trkpt lat="43.85865" lon="6.69774">
        <ele>957.61</ele>
        <time>2013-05-29T16:09:32Z</time>
      </trkpt>
      <trkpt lat="43.85867" lon="6.69774">
        <ele>957.61</ele>
        <time>2013-05-29T16:09:33Z</time>
      </trkpt>
      <trkpt lat="43.85877" lon="6.69767">
        <ele>962.42</ele>
        <time>2013-05-29T16:09:53Z</time>
      </trkpt>
      <trkpt lat="43.85889" lon="6.69745">
        <ele>968.18</ele>
        <time>2013-05-29T16:10:29Z</time>
      </trkpt>
      <trkpt lat="43.85903" lon="6.69718">
        <ele>973.47</ele>
        <time>2013-05-29T16:11:11Z</time>
      </trkpt>
      <trkpt lat="43.85902" lon="6.69704">
        <ele>977.32</ele>
        <time>2013-05-29T16:11:26Z</time>
      </trkpt>
      <trkpt lat="43.85904" lon="6.69697">
        <ele>981.16</ele>
        <time>2013-05-29T16:11:46Z</time>
      </trkpt>
      <trkpt lat="43.85905" lon="6.69665">
        <ele>987.41</ele>
        <time>2013-05-29T16:12:27Z</time>
      </trkpt>
      <trkpt lat="43.85901" lon="6.69657">
        <ele>990.78</ele>
        <time>2013-05-29T16:12:40Z</time>
      </trkpt>
      <trkpt lat="43.85899" lon="6.69647">
        <ele>994.62</ele>
        <time>2013-05-29T16:13:13Z</time>
      </trkpt>
      <trkpt lat="43.85899" lon="6.69649">
        <ele>994.62</ele>
        <time>2013-05-29T16:13:21Z</time>
      </trkpt>
      <trkpt lat="43.85892" lon="6.69631">
        <ele>999.43</ele>
        <time>2013-05-29T16:14:09Z</time>
      </trkpt>
      <trkpt lat="43.85891" lon="6.69619">
        <ele>1003.27</ele>
        <time>2013-05-29T16:14:36Z</time>
      </trkpt>
      <trkpt lat="43.859" lon="6.69604">
        <ele>1007.12</ele>
        <time>2013-05-29T16:14:53Z</time>
      </trkpt>
      <trkpt lat="43.85892" lon="6.69592">
        <ele>1011.93</ele>
        <time>2013-05-29T16:15:21Z</time>
      </trkpt>
      <trkpt lat="43.85901" lon="6.69554">
        <ele>1019.13</ele>
        <time>2013-05-29T16:15:59Z</time>
      </trkpt>
      <trkpt lat="43.85901" lon="6.6954">
        <ele>1022.98</ele>
        <time>2013-05-29T16:16:20Z</time>
      </trkpt>
      <trkpt lat="43.859" lon="6.6954">
        <ele>1021.54</ele>
        <time>2013-05-29T16:17:16Z</time>
      </trkpt>
      <trkpt lat="43.85898" lon="6.69542">
        <ele>1020.1</ele>
        <time>2013-05-29T16:18:02Z</time>
      </trkpt>
      <trkpt lat="43.85895" lon="6.69567">
        <ele>1015.77</ele>
        <time>2013-05-29T16:18:13Z</time>
      </trkpt>
      <trkpt lat="43.85895" lon="6.69596">
        <ele>1008.56</ele>
        <time>2013-05-29T16:18:44Z</time>
      </trkpt>
      <trkpt lat="43.85896" lon="6.69604">
        <ele>1006.64</ele>
        <time>2013-05-29T16:18:47Z</time>
      </trkpt>
      <trkpt lat="43.85892" lon="6.69616">
        <ele>1003.27</ele>
        <time>2013-05-29T16:18:52Z</time>
      </trkpt>
      <trkpt lat="43.85889" lon="6.69628">
        <ele>999.91</ele>
        <time>2013-05-29T16:18:57Z</time>
      </trkpt>
      <trkpt lat="43.85894" lon="6.69644">
        <ele>994.62</ele>
        <time>2013-05-29T16:19:05Z</time>
      </trkpt>
      <trkpt lat="43.85898" lon="6.69651">
        <ele>990.78</ele>
        <time>2013-05-29T16:19:09Z</time>
      </trkpt>
      <trkpt lat="43.85899" lon="6.69652">
        <ele>990.78</ele>
        <time>2013-05-29T16:19:10Z</time>
      </trkpt>
      <trkpt lat="43.85903" lon="6.69657">
        <ele>987.41</ele>
        <time>2013-05-29T16:19:14Z</time>
      </trkpt>
      <trkpt lat="43.85915" lon="6.69668">
        <ele>982.12</ele>
        <time>2013-05-29T16:19:21Z</time>
      </trkpt>
      <trkpt lat="43.85917" lon="6.69678">
        <ele>978.76</ele>
        <time>2013-05-29T16:19:25Z</time>
      </trkpt>
      <trkpt lat="43.85917" lon="6.69681">
        <ele>978.76</ele>
        <time>2013-05-29T16:19:26Z</time>
      </trkpt>
      <trkpt lat="43.85912" lon="6.69695">
        <ele>973.95</ele>
        <time>2013-05-29T16:19:32Z</time>
      </trkpt>
      <trkpt lat="43.85904" lon="6.69712">
        <ele>970.59</ele>
        <time>2013-05-29T16:19:37Z</time>
      </trkpt>
      <trkpt lat="43.85893" lon="6.69734">
        <ele>966.26</ele>
        <time>2013-05-29T16:19:42Z</time>
      </trkpt>
      <trkpt lat="43.85883" lon="6.69757">
        <ele>960.01</ele>
        <time>2013-05-29T16:19:49Z</time>
      </trkpt>
      <trkpt lat="43.85875" lon="6.69768">
        <ele>956.65</ele>
        <time>2013-05-29T16:19:54Z</time>
      </trkpt>
      <trkpt lat="43.85872" lon="6.69775">
        <ele>953.77</ele>
        <time>2013-05-29T16:19:57Z</time>
      </trkpt>
      <trkpt lat="43.85871" lon="6.69777">
        <ele>953.77</ele>
        <time>2013-05-29T16:19:58Z</time>
      </trkpt>
      <trkpt lat="43.85852" lon="6.69791">
        <ele>949.92</ele>
        <time>2013-05-29T16:20:16Z</time>
      </trkpt>
      <trkpt lat="43.85854" lon="6.69797">
        <ele>946.56</ele>
        <time>2013-05-29T16:20:42Z</time>
      </trkpt>
      <trkpt lat="43.85854" lon="6.69799">
        <ele>946.56</ele>
        <time>2013-05-29T16:20:45Z</time>
      </trkpt>
      <trkpt lat="43.85856" lon="6.69812">
        <ele>945.11</ele>
        <time>2013-05-29T16:21:25Z</time>
      </trkpt>
      <trkpt lat="43.85864" lon="6.69822">
        <ele>945.59</ele>
        <time>2013-05-29T16:21:47Z</time>
      </trkpt>
      <trkpt lat="43.85862" lon="6.69821">
        <ele>945.59</ele>
        <time>2013-05-29T16:22:26Z</time>
      </trkpt>
      <trkpt lat="43.85835" lon="6.69805">
        <ele>946.07</ele>
        <time>2013-05-29T16:22:52Z</time>
      </trkpt>
      <trkpt lat="43.85825" lon="6.698">
        <ele>947.52</ele>
        <time>2013-05-29T16:23:26Z</time>
      </trkpt>
      <trkpt lat="43.85811" lon="6.69816">
        <ele>947.04</ele>
        <time>2013-05-29T16:23:36Z</time>
      </trkpt>
      <trkpt lat="43.85797" lon="6.6986">
        <ele>943.19</ele>
        <time>2013-05-29T16:23:49Z</time>
      </trkpt>
      <trkpt lat="43.85791" lon="6.69881">
        <ele>942.23</ele>
        <time>2013-05-29T16:23:56Z</time>
      </trkpt>
      <trkpt lat="43.85761" lon="6.69941">
        <ele>941.75</ele>
        <time>2013-05-29T16:24:14Z</time>
      </trkpt>
      <trkpt lat="43.85759" lon="6.69989">
        <ele>938.86</ele>
        <time>2013-05-29T16:24:26Z</time>
      </trkpt>
      <trkpt lat="43.85754" lon="6.70029">
        <ele>938.38</ele>
        <time>2013-05-29T16:24:42Z</time>
      </trkpt>
      <trkpt lat="43.85735" lon="6.70069">
        <ele>939.83</ele>
        <time>2013-05-29T16:24:54Z</time>
      </trkpt>
      <trkpt lat="43.85704" lon="6.70101">
        <ele>937.42</ele>
        <time>2013-05-29T16:25:03Z</time>
      </trkpt>
      <trkpt lat="43.85693" lon="6.70131">
        <ele>935.5</ele>
        <time>2013-05-29T16:25:07Z</time>
      </trkpt>
      <trkpt lat="43.8569" lon="6.7017">
        <ele>931.65</ele>
        <time>2013-05-29T16:25:12Z</time>
      </trkpt>
      <trkpt lat="43.85674" lon="6.70237">
        <ele>932.62</ele>
        <time>2013-05-29T16:25:31Z</time>
      </trkpt>
      <trkpt lat="43.85651" lon="6.70273">
        <ele>931.17</ele>
        <time>2013-05-29T16:25:43Z</time>
      </trkpt>
      <trkpt lat="43.85662" lon="6.70391">
        <ele>927.81</ele>
        <time>2013-05-29T16:26:06Z</time>
      </trkpt>
      <trkpt lat="43.85684" lon="6.7041">
        <ele>924.93</ele>
        <time>2013-05-29T16:26:11Z</time>
      </trkpt>
      <trkpt lat="43.85718" lon="6.70468">
        <ele>920.12</ele>
        <time>2013-05-29T16:26:26Z</time>
      </trkpt>
      <trkpt lat="43.85718" lon="6.70471">
        <ele>920.6</ele>
        <time>2013-05-29T16:26:27Z</time>
      </trkpt>
      <trkpt lat="43.85719" lon="6.7051">
        <ele>919.64</ele>
        <time>2013-05-29T16:26:38Z</time>
      </trkpt>
      <trkpt lat="43.85703" lon="6.70527">
        <ele>920.12</ele>
        <time>2013-05-29T16:26:59Z</time>
      </trkpt>
      <trkpt lat="43.85687" lon="6.7056">
        <ele>923.96</ele>
        <time>2013-05-29T16:27:24Z</time>
      </trkpt>
      <trkpt lat="43.85687" lon="6.70563">
        <ele>923.48</ele>
        <time>2013-05-29T16:27:25Z</time>
      </trkpt>
      <trkpt lat="43.85691" lon="6.70624">
        <ele>924.45</ele>
        <time>2013-05-29T16:27:44Z</time>
      </trkpt>
      <trkpt lat="43.85708" lon="6.70683">
        <ele>924.45</ele>
        <time>2013-05-29T16:28:00Z</time>
      </trkpt>
      <trkpt lat="43.85707" lon="6.70693">
        <ele>924.93</ele>
        <time>2013-05-29T16:28:02Z</time>
      </trkpt>
      <trkpt lat="43.85699" lon="6.70758">
        <ele>921.08</ele>
        <time>2013-05-29T16:28:16Z</time>
      </trkpt>
      <trkpt lat="43.85702" lon="6.70766">
        <ele>921.08</ele>
        <time>2013-05-29T16:28:17Z</time>
      </trkpt>
      <trkpt lat="43.8572" lon="6.70817">
        <ele>919.64</ele>
        <time>2013-05-29T16:28:24Z</time>
      </trkpt>
      <trkpt lat="43.85719" lon="6.70881">
        <ele>917.24</ele>
        <time>2013-05-29T16:28:32Z</time>
      </trkpt>
      <trkpt lat="43.85718" lon="6.70973">
        <ele>913.87</ele>
        <time>2013-05-29T16:28:45Z</time>
      </trkpt>
      <trkpt lat="43.8573" lon="6.70997">
        <ele>913.87</ele>
        <time>2013-05-29T16:28:54Z</time>
      </trkpt>
      <trkpt lat="43.85724" lon="6.71084">
        <ele>913.39</ele>
        <time>2013-05-29T16:29:19Z</time>
      </trkpt>
      <trkpt lat="43.85725" lon="6.71229">
        <ele>912.91</ele>
        <time>2013-05-29T16:29:47Z</time>
      </trkpt>
      <trkpt lat="43.85752" lon="6.71307">
        <ele>914.35</ele>
        <time>2013-05-29T16:30:03Z</time>
      </trkpt>
      <trkpt lat="43.85752" lon="6.71385">
        <ele>911.95</ele>
        <time>2013-05-29T16:30:17Z</time>
      </trkpt>
      <trkpt lat="43.85748" lon="6.71481">
        <ele>908.1</ele>
        <time>2013-05-29T16:30:29Z</time>
      </trkpt>
      <trkpt lat="43.85749" lon="6.7149">
        <ele>908.58</ele>
        <time>2013-05-29T16:30:30Z</time>
      </trkpt>
      <trkpt lat="43.85753" lon="6.7154">
        <ele>906.66</ele>
        <time>2013-05-29T16:30:36Z</time>
      </trkpt>
      <trkpt lat="43.85778" lon="6.71647">
        <ele>904.26</ele>
        <time>2013-05-29T16:30:49Z</time>
      </trkpt>
      <trkpt lat="43.85784" lon="6.71661">
        <ele>904.26</ele>
        <time>2013-05-29T16:30:51Z</time>
      </trkpt>
      <trkpt lat="43.85792" lon="6.71711">
        <ele>901.85</ele>
        <time>2013-05-29T16:31:02Z</time>
      </trkpt>
      <trkpt lat="43.8578" lon="6.71738">
        <ele>901.85</ele>
        <time>2013-05-29T16:31:13Z</time>
      </trkpt>
      <trkpt lat="43.85748" lon="6.71815">
        <ele>900.41</ele>
        <time>2013-05-29T16:31:51Z</time>
      </trkpt>
      <trkpt lat="43.8575" lon="6.71814">
        <ele>897.53</ele>
        <time>2013-05-29T16:33:25Z</time>
      </trkpt>
      <trkpt lat="43.85749" lon="6.71815">
        <ele>901.37</ele>
        <time>2013-05-29T16:35:24Z</time>
      </trkpt>
      <trkpt lat="43.8575" lon="6.71834">
        <ele>901.37</ele>
        <time>2013-05-29T16:35:42Z</time>
      </trkpt>
      <trkpt lat="43.85773" lon="6.71831">
        <ele>903.78</ele>
        <time>2013-05-29T16:35:57Z</time>
      </trkpt>
      <trkpt lat="43.85785" lon="6.71859">
        <ele>904.26</ele>
        <time>2013-05-29T16:36:11Z</time>
      </trkpt>
      <trkpt lat="43.85754" lon="6.71909">
        <ele>901.37</ele>
        <time>2013-05-29T16:36:20Z</time>
      </trkpt>
      <trkpt lat="43.8575" lon="6.71913">
        <ele>901.85</ele>
        <time>2013-05-29T16:36:21Z</time>
      </trkpt>
      <trkpt lat="43.85736" lon="6.71922">
        <ele>901.37</ele>
        <time>2013-05-29T16:36:24Z</time>
      </trkpt>
      <trkpt lat="43.8573" lon="6.71946">
        <ele>901.37</ele>
        <time>2013-05-29T16:36:28Z</time>
      </trkpt>
      <trkpt lat="43.8573" lon="6.72043">
        <ele>904.74</ele>
        <time>2013-05-29T16:36:45Z</time>
      </trkpt>
      <trkpt lat="43.85732" lon="6.72062">
        <ele>904.74</ele>
        <time>2013-05-29T16:36:49Z</time>
      </trkpt>
      <trkpt lat="43.85717" lon="6.71985">
        <ele>909.06</ele>
        <time>2013-05-29T16:37:13Z</time>
      </trkpt>
      <trkpt lat="43.85708" lon="6.72049">
        <ele>911.95</ele>
        <time>2013-05-29T16:37:32Z</time>
      </trkpt>
      <trkpt lat="43.85704" lon="6.72114">
        <ele>915.31</ele>
        <time>2013-05-29T16:37:45Z</time>
      </trkpt>
      <trkpt lat="43.85692" lon="6.72186">
        <ele>916.75</ele>
        <time>2013-05-29T16:38:00Z</time>
      </trkpt>
      <trkpt lat="43.85686" lon="6.72219">
        <ele>918.2</ele>
        <time>2013-05-29T16:38:08Z</time>
      </trkpt>
      <trkpt lat="43.85682" lon="6.72164">
        <ele>923</ele>
        <time>2013-05-29T16:38:26Z</time>
      </trkpt>
      <trkpt lat="43.85674" lon="6.72026">
        <ele>926.85</ele>
        <time>2013-05-29T16:39:02Z</time>
      </trkpt>
      <trkpt lat="43.85667" lon="6.72076">
        <ele>929.25</ele>
        <time>2013-05-29T16:39:22Z</time>
      </trkpt>
      <trkpt lat="43.85656" lon="6.72133">
        <ele>932.14</ele>
        <time>2013-05-29T16:39:38Z</time>
      </trkpt>
      <trkpt lat="43.85627" lon="6.7222">
        <ele>936.94</ele>
        <time>2013-05-29T16:40:18Z</time>
      </trkpt>
      <trkpt lat="43.85636" lon="6.72178">
        <ele>938.38</ele>
        <time>2013-05-29T16:40:33Z</time>
      </trkpt>
      <trkpt lat="43.85635" lon="6.72102">
        <ele>943.19</ele>
        <time>2013-05-29T16:40:58Z</time>
      </trkpt>
      <trkpt lat="43.85634" lon="6.71994">
        <ele>947.04</ele>
        <time>2013-05-29T16:41:30Z</time>
      </trkpt>
      <trkpt lat="43.85634" lon="6.71943">
        <ele>948.96</ele>
        <time>2013-05-29T16:41:47Z</time>
      </trkpt>
      <trkpt lat="43.8563" lon="6.71983">
        <ele>950.4</ele>
        <time>2013-05-29T16:42:06Z</time>
      </trkpt>
      <trkpt lat="43.85625" lon="6.72097">
        <ele>955.69</ele>
        <time>2013-05-29T16:42:39Z</time>
      </trkpt>
      <trkpt lat="43.85625" lon="6.72104">
        <ele>955.69</ele>
        <time>2013-05-29T16:42:42Z</time>
      </trkpt>
      <trkpt lat="43.85598" lon="6.722">
        <ele>957.61</ele>
        <time>2013-05-29T16:43:11Z</time>
      </trkpt>
      <trkpt lat="43.85571" lon="6.72286">
        <ele>961.46</ele>
        <time>2013-05-29T16:43:39Z</time>
      </trkpt>
      <trkpt lat="43.85554" lon="6.7233">
        <ele>964.34</ele>
        <time>2013-05-29T16:43:57Z</time>
      </trkpt>
      <trkpt lat="43.85491" lon="6.72367">
        <ele>964.82</ele>
        <time>2013-05-29T16:44:04Z</time>
      </trkpt>
      <trkpt lat="43.85469" lon="6.72403">
        <ele>965.3</ele>
        <time>2013-05-29T16:44:16Z</time>
      </trkpt>
      <trkpt lat="43.85425" lon="6.72466">
        <ele>968.67</ele>
        <time>2013-05-29T16:44:43Z</time>
      </trkpt>
      <trkpt lat="43.85382" lon="6.72562">
        <ele>972.51</ele>
        <time>2013-05-29T16:45:18Z</time>
      </trkpt>
      <trkpt lat="43.85357" lon="6.72687">
        <ele>974.91</ele>
        <time>2013-05-29T16:45:46Z</time>
      </trkpt>
      <trkpt lat="43.85355" lon="6.7265">
        <ele>976.84</ele>
        <time>2013-05-29T16:45:56Z</time>
      </trkpt>
      <trkpt lat="43.85323" lon="6.72642">
        <ele>979.24</ele>
        <time>2013-05-29T16:46:41Z</time>
      </trkpt>
      <trkpt lat="43.85247" lon="6.72711">
        <ele>978.76</ele>
        <time>2013-05-29T16:46:53Z</time>
      </trkpt>
      <trkpt lat="43.8525" lon="6.72745">
        <ele>980.2</ele>
        <time>2013-05-29T16:47:01Z</time>
      </trkpt>
      <trkpt lat="43.85212" lon="6.72763">
        <ele>981.64</ele>
        <time>2013-05-29T16:47:17Z</time>
      </trkpt>
      <trkpt lat="43.85236" lon="6.72789">
        <ele>982.12</ele>
        <time>2013-05-29T16:47:27Z</time>
      </trkpt>
      <trkpt lat="43.85191" lon="6.72761">
        <ele>981.64</ele>
        <time>2013-05-29T16:47:39Z</time>
      </trkpt>
      <trkpt lat="43.85166" lon="6.72766">
        <ele>981.64</ele>
        <time>2013-05-29T16:48:22Z</time>
      </trkpt>
      <trkpt lat="43.85111" lon="6.72759">
        <ele>982.6</ele>
        <time>2013-05-29T16:48:45Z</time>
      </trkpt>
      <trkpt lat="43.85043" lon="6.72808">
        <ele>984.53</ele>
        <time>2013-05-29T16:49:10Z</time>
      </trkpt>
      <trkpt lat="43.85032" lon="6.72871">
        <ele>987.89</ele>
        <time>2013-05-29T16:49:26Z</time>
      </trkpt>
      <trkpt lat="43.85031" lon="6.72874">
        <ele>987.89</ele>
        <time>2013-05-29T16:49:27Z</time>
      </trkpt>
      <trkpt lat="43.85044" lon="6.7288">
        <ele>986.93</ele>
        <time>2013-05-29T16:49:33Z</time>
      </trkpt>
      <trkpt lat="43.85161" lon="6.72895">
        <ele>986.45</ele>
        <time>2013-05-29T16:50:06Z</time>
      </trkpt>
      <trkpt lat="43.85132" lon="6.72871">
        <ele>985.97</ele>
        <time>2013-05-29T16:50:22Z</time>
      </trkpt>
      <trkpt lat="43.85137" lon="6.72888">
        <ele>985.49</ele>
        <time>2013-05-29T16:50:39Z</time>
      </trkpt>
      <trkpt lat="43.85094" lon="6.72901">
        <ele>987.41</ele>
        <time>2013-05-29T16:50:47Z</time>
      </trkpt>
      <trkpt lat="43.85088" lon="6.72945">
        <ele>988.37</ele>
        <time>2013-05-29T16:51:00Z</time>
      </trkpt>
      <trkpt lat="43.85074" lon="6.72959">
        <ele>991.26</ele>
        <time>2013-05-29T16:51:15Z</time>
      </trkpt>
      <trkpt lat="43.85058" lon="6.73045">
        <ele>995.1</ele>
        <time>2013-05-29T16:51:32Z</time>
      </trkpt>
      <trkpt lat="43.85057" lon="6.73049">
        <ele>995.1</ele>
        <time>2013-05-29T16:51:33Z</time>
      </trkpt>
      <trkpt lat="43.85011" lon="6.73093">
        <ele>997.02</ele>
        <time>2013-05-29T16:51:51Z</time>
      </trkpt>
      <trkpt lat="43.84981" lon="6.73102">
        <ele>999.91</ele>
        <time>2013-05-29T16:52:05Z</time>
      </trkpt>
      <trkpt lat="43.84921" lon="6.73101">
        <ele>1000.39</ele>
        <time>2013-05-29T16:52:19Z</time>
      </trkpt>
      <trkpt lat="43.849" lon="6.73099">
        <ele>1001.83</ele>
        <time>2013-05-29T16:52:26Z</time>
      </trkpt>
      <trkpt lat="43.84894" lon="6.73111">
        <ele>1001.83</ele>
        <time>2013-05-29T16:52:30Z</time>
      </trkpt>
      <trkpt lat="43.84779" lon="6.73157">
        <ele>1001.83</ele>
        <time>2013-05-29T16:53:05Z</time>
      </trkpt>
      <trkpt lat="43.84732" lon="6.7322">
        <ele>1003.75</ele>
        <time>2013-05-29T16:53:32Z</time>
      </trkpt>
      <trkpt lat="43.84736" lon="6.73222">
        <ele>1004.72</ele>
        <time>2013-05-29T16:56:25Z</time>
      </trkpt>
      <trkpt lat="43.84743" lon="6.73204">
        <ele>1005.68</ele>
        <time>2013-05-29T16:56:32Z</time>
      </trkpt>
      <trkpt lat="43.84772" lon="6.7316">
        <ele>1003.75</ele>
        <time>2013-05-29T16:56:44Z</time>
      </trkpt>
      <trkpt lat="43.84882" lon="6.73123">
        <ele>1001.83</ele>
        <time>2013-05-29T16:57:14Z</time>
      </trkpt>
      <trkpt lat="43.84898" lon="6.73109">
        <ele>1002.31</ele>
        <time>2013-05-29T16:57:18Z</time>
      </trkpt>
      <trkpt lat="43.84895" lon="6.73103">
        <ele>1003.75</ele>
        <time>2013-05-29T16:57:21Z</time>
      </trkpt>
      <trkpt lat="43.84888" lon="6.73094">
        <ele>1004.72</ele>
        <time>2013-05-29T16:57:25Z</time>
      </trkpt>
      <trkpt lat="43.84836" lon="6.73053">
        <ele>1008.56</ele>
        <time>2013-05-29T16:57:43Z</time>
      </trkpt>
      <trkpt lat="43.84817" lon="6.73022">
        <ele>1010.48</ele>
        <time>2013-05-29T16:57:52Z</time>
      </trkpt>
      <trkpt lat="43.84764" lon="6.72935">
        <ele>1015.29</ele>
        <time>2013-05-29T16:58:20Z</time>
      </trkpt>
      <trkpt lat="43.84722" lon="6.72861">
        <ele>1019.13</ele>
        <time>2013-05-29T16:58:44Z</time>
      </trkpt>
      <trkpt lat="43.84683" lon="6.72801">
        <ele>1019.13</ele>
        <time>2013-05-29T16:59:02Z</time>
      </trkpt>
      <trkpt lat="43.84664" lon="6.72783">
        <ele>1019.13</ele>
        <time>2013-05-29T16:59:42Z</time>
      </trkpt>
      <trkpt lat="43.84664" lon="6.72785">
        <ele>1017.69</ele>
        <time>2013-05-29T17:00:03Z</time>
      </trkpt>
      <trkpt lat="43.84624" lon="6.72785">
        <ele>1019.13</ele>
        <time>2013-05-29T17:00:14Z</time>
      </trkpt>
      <trkpt lat="43.84556" lon="6.72849">
        <ele>1014.33</ele>
        <time>2013-05-29T17:00:27Z</time>
      </trkpt>
      <trkpt lat="43.84447" lon="6.73019">
        <ele>1010.48</ele>
        <time>2013-05-29T17:00:59Z</time>
      </trkpt>
      <trkpt lat="43.84449" lon="6.7305">
        <ele>1010.96</ele>
        <time>2013-05-29T17:01:04Z</time>
      </trkpt>
      <trkpt lat="43.84452" lon="6.73063">
        <ele>1010.96</ele>
        <time>2013-05-29T17:01:06Z</time>
      </trkpt>
      <trkpt lat="43.84474" lon="6.73133">
        <ele>1013.37</ele>
        <time>2013-05-29T17:01:17Z</time>
      </trkpt>
      <trkpt lat="43.84475" lon="6.73139">
        <ele>1013.37</ele>
        <time>2013-05-29T17:01:18Z</time>
      </trkpt>
      <trkpt lat="43.84476" lon="6.73197">
        <ele>1016.73</ele>
        <time>2013-05-29T17:01:28Z</time>
      </trkpt>
      <trkpt lat="43.84476" lon="6.73226">
        <ele>1020.58</ele>
        <time>2013-05-29T17:01:34Z</time>
      </trkpt>
      <trkpt lat="43.84476" lon="6.73253">
        <ele>1017.69</ele>
        <time>2013-05-29T17:01:40Z</time>
      </trkpt>
      <trkpt lat="43.84476" lon="6.73258">
        <ele>1017.21</ele>
        <time>2013-05-29T17:01:41Z</time>
      </trkpt>
      <trkpt lat="43.84457" lon="6.73204">
        <ele>1022.98</ele>
        <time>2013-05-29T17:01:59Z</time>
      </trkpt>
      <trkpt lat="43.84427" lon="6.73124">
        <ele>1025.86</ele>
        <time>2013-05-29T17:02:22Z</time>
      </trkpt>
      <trkpt lat="43.8441" lon="6.73069">
        <ele>1029.23</ele>
        <time>2013-05-29T17:02:38Z</time>
      </trkpt>
      <trkpt lat="43.84401" lon="6.73061">
        <ele>1028.75</ele>
        <time>2013-05-29T17:02:42Z</time>
      </trkpt>
      <trkpt lat="43.84384" lon="6.73061">
        <ele>1028.27</ele>
        <time>2013-05-29T17:02:46Z</time>
      </trkpt>
      <trkpt lat="43.84371" lon="6.73137">
        <ele>1033.55</ele>
        <time>2013-05-29T17:03:12Z</time>
      </trkpt>
      <trkpt lat="43.84371" lon="6.7315">
        <ele>1035.48</ele>
        <time>2013-05-29T17:03:21Z</time>
      </trkpt>
      <trkpt lat="43.84377" lon="6.7317">
        <ele>1037.88</ele>
        <time>2013-05-29T17:03:41Z</time>
      </trkpt>
      <trkpt lat="43.84378" lon="6.73182">
        <ele>1039.8</ele>
        <time>2013-05-29T17:04:09Z</time>
      </trkpt>
      <trkpt lat="43.84378" lon="6.73183">
        <ele>1049.9</ele>
        <time>2013-05-29T16:55:53Z</time>
      </trkpt>
      <trkpt lat="43.84378" lon="6.73183">
        <ele>1138.34</ele>
        <time>2013-05-29T16:55:54Z</time>
      </trkpt>
      <trkpt lat="43.84386" lon="6.73183">
        <ele>1138.34</ele>
        <time>2013-05-30T08:28:05Z</time>
      </trkpt>
      <trkpt lat="43.84383" lon="6.73177">
        <ele>1133.53</ele>
        <time>2013-05-30T08:30:34Z</time>
      </trkpt>
      <trkpt lat="43.8438" lon="6.73187">
        <ele>1131.61</ele>
        <time>2013-05-30T08:32:19Z</time>
      </trkpt>
      <trkpt lat="43.84377" lon="6.73194">
        <ele>1131.61</ele>
        <time>2013-05-30T08:32:24Z</time>
      </trkpt>
      <trkpt lat="43.84374" lon="6.73201">
        <ele>1131.61</ele>
        <time>2013-05-30T08:32:27Z</time>
      </trkpt>
      <trkpt lat="43.84371" lon="6.73172">
        <ele>1131.61</ele>
        <time>2013-05-30T08:32:37Z</time>
      </trkpt>
      <trkpt lat="43.84372" lon="6.73164">
        <ele>1131.61</ele>
        <time>2013-05-30T08:32:38Z</time>
      </trkpt>
      <trkpt lat="43.84378" lon="6.73111">
        <ele>1124.88</ele>
        <time>2013-05-30T08:32:44Z</time>
      </trkpt>
      <trkpt lat="43.84377" lon="6.73102">
        <ele>1122.48</ele>
        <time>2013-05-30T08:32:47Z</time>
      </trkpt>
      <trkpt lat="43.84377" lon="6.73087">
        <ele>1122</ele>
        <time>2013-05-30T08:32:50Z</time>
      </trkpt>
      <trkpt lat="43.84402" lon="6.7308">
        <ele>1119.11</ele>
        <time>2013-05-30T08:32:57Z</time>
      </trkpt>
      <trkpt lat="43.84415" lon="6.73113">
        <ele>1117.67</ele>
        <time>2013-05-30T08:33:01Z</time>
      </trkpt>
      <trkpt lat="43.84446" lon="6.73188">
        <ele>1113.82</ele>
        <time>2013-05-30T08:33:09Z</time>
      </trkpt>
      <trkpt lat="43.8445" lon="6.73198">
        <ele>1113.82</ele>
        <time>2013-05-30T08:33:10Z</time>
      </trkpt>
      <trkpt lat="43.84466" lon="6.73238">
        <ele>1111.9</ele>
        <time>2013-05-30T08:33:14Z</time>
      </trkpt>
      <trkpt lat="43.84469" lon="6.73248">
        <ele>1111.9</ele>
        <time>2013-05-30T08:33:15Z</time>
      </trkpt>
      <trkpt lat="43.84477" lon="6.73272">
        <ele>1108.54</ele>
        <time>2013-05-30T08:33:19Z</time>
      </trkpt>
      <trkpt lat="43.84478" lon="6.73274">
        <ele>1108.06</ele>
        <time>2013-05-30T08:33:30Z</time>
      </trkpt>
      <trkpt lat="43.8448" lon="6.73249">
        <ele>1107.58</ele>
        <time>2013-05-30T08:33:37Z</time>
      </trkpt>
      <trkpt lat="43.84475" lon="6.73163">
        <ele>1104.21</ele>
        <time>2013-05-30T08:33:49Z</time>
      </trkpt>
      <trkpt lat="43.84473" lon="6.73135">
        <ele>1103.25</ele>
        <time>2013-05-30T08:33:52Z</time>
      </trkpt>
      <trkpt lat="43.84471" lon="6.73126">
        <ele>1103.25</ele>
        <time>2013-05-30T08:33:53Z</time>
      </trkpt>
      <trkpt lat="43.84452" lon="6.72994">
        <ele>1100.37</ele>
        <time>2013-05-30T08:34:08Z</time>
      </trkpt>
      <trkpt lat="43.84576" lon="6.72832">
        <ele>1100.85</ele>
        <time>2013-05-30T08:34:42Z</time>
      </trkpt>
      <trkpt lat="43.84638" lon="6.72772">
        <ele>1104.21</ele>
        <time>2013-05-30T08:35:08Z</time>
      </trkpt>
      <trkpt lat="43.84639" lon="6.72772">
        <ele>1104.21</ele>
        <time>2013-05-30T08:35:09Z</time>
      </trkpt>
      <trkpt lat="43.8469" lon="6.72799">
        <ele>1104.21</ele>
        <time>2013-05-30T08:36:07Z</time>
      </trkpt>
      <trkpt lat="43.84691" lon="6.72799">
        <ele>1100.85</ele>
        <time>2013-05-30T08:37:18Z</time>
      </trkpt>
      <trkpt lat="43.84691" lon="6.72798">
        <ele>1094.6</ele>
        <time>2013-05-30T08:40:16Z</time>
      </trkpt>
      <trkpt lat="43.84691" lon="6.72799">
        <ele>1088.35</ele>
        <time>2013-05-30T08:43:53Z</time>
      </trkpt>
      <trkpt lat="43.84699" lon="6.7282">
        <ele>1085.95</ele>
        <time>2013-05-30T08:45:24Z</time>
      </trkpt>
      <trkpt lat="43.847" lon="6.72822">
        <ele>1085.95</ele>
        <time>2013-05-30T08:45:25Z</time>
      </trkpt>
      <trkpt lat="43.84726" lon="6.72881">
        <ele>1084.99</ele>
        <time>2013-05-30T08:45:41Z</time>
      </trkpt>
      <trkpt lat="43.84791" lon="6.72992">
        <ele>1079.7</ele>
        <time>2013-05-30T08:46:00Z</time>
      </trkpt>
      <trkpt lat="43.84831" lon="6.73058">
        <ele>1076.81</ele>
        <time>2013-05-30T08:46:08Z</time>
      </trkpt>
      <trkpt lat="43.84887" lon="6.73099">
        <ele>1072.49</ele>
        <time>2013-05-30T08:46:16Z</time>
      </trkpt>
      <trkpt lat="43.84896" lon="6.73125">
        <ele>1069.12</ele>
        <time>2013-05-30T08:46:21Z</time>
      </trkpt>
      <trkpt lat="43.84808" lon="6.73158">
        <ele>1069.12</ele>
        <time>2013-05-30T08:46:43Z</time>
      </trkpt>
      <trkpt lat="43.84723" lon="6.73256">
        <ele>1069.6</ele>
        <time>2013-05-30T08:47:13Z</time>
      </trkpt>
      <trkpt lat="43.84619" lon="6.73584">
        <ele>1071.05</ele>
        <time>2013-05-30T08:48:18Z</time>
      </trkpt>
      <trkpt lat="43.84504" lon="6.73765">
        <ele>1071.53</ele>
        <time>2013-05-30T08:49:00Z</time>
      </trkpt>
      <trkpt lat="43.84468" lon="6.7388">
        <ele>1073.45</ele>
        <time>2013-05-30T08:49:30Z</time>
      </trkpt>
      <trkpt lat="43.84441" lon="6.73952">
        <ele>1073.45</ele>
        <time>2013-05-30T08:49:45Z</time>
      </trkpt>
      <trkpt lat="43.84384" lon="6.74211">
        <ele>1074.89</ele>
        <time>2013-05-30T08:50:34Z</time>
      </trkpt>
      <trkpt lat="43.8429" lon="6.74331">
        <ele>1077.78</ele>
        <time>2013-05-30T08:51:07Z</time>
      </trkpt>
      <trkpt lat="43.84272" lon="6.74362">
        <ele>1077.78</ele>
        <time>2013-05-30T08:51:21Z</time>
      </trkpt>
      <trkpt lat="43.84221" lon="6.74396">
        <ele>1077.29</ele>
        <time>2013-05-30T08:51:41Z</time>
      </trkpt>
      <trkpt lat="43.84169" lon="6.74416">
        <ele>1077.29</ele>
        <time>2013-05-30T08:52:22Z</time>
      </trkpt>
      <trkpt lat="43.84191" lon="6.74413">
        <ele>1075.85</ele>
        <time>2013-05-30T08:52:35Z</time>
      </trkpt>
      <trkpt lat="43.84202" lon="6.74415">
        <ele>1075.37</ele>
        <time>2013-05-30T08:52:51Z</time>
      </trkpt>
      <trkpt lat="43.84189" lon="6.74408">
        <ele>1074.41</ele>
        <time>2013-05-30T08:53:17Z</time>
      </trkpt>
      <trkpt lat="43.84195" lon="6.74411">
        <ele>1073.93</ele>
        <time>2013-05-30T08:53:39Z</time>
      </trkpt>
      <trkpt lat="43.84195" lon="6.74411">
        <ele>1074.41</ele>
        <time>2013-05-30T08:53:40Z</time>
      </trkpt>
      <trkpt lat="43.8415" lon="6.74427">
        <ele>1075.37</ele>
        <time>2013-05-30T08:54:00Z</time>
      </trkpt>
      <trkpt lat="43.84017" lon="6.74499">
        <ele>1076.81</ele>
        <time>2013-05-30T08:54:41Z</time>
      </trkpt>
      <trkpt lat="43.83915" lon="6.74513">
        <ele>1082.58</ele>
        <time>2013-05-30T08:55:16Z</time>
      </trkpt>
      <trkpt lat="43.83811" lon="6.74488">
        <ele>1082.58</ele>
        <time>2013-05-30T08:55:50Z</time>
      </trkpt>
      <trkpt lat="43.83797" lon="6.74507">
        <ele>1082.1</ele>
        <time>2013-05-30T08:55:59Z</time>
      </trkpt>
      <trkpt lat="43.83828" lon="6.74504">
        <ele>1084.5</ele>
        <time>2013-05-30T08:56:14Z</time>
      </trkpt>
      <trkpt lat="43.83868" lon="6.74523">
        <ele>1087.87</ele>
        <time>2013-05-30T08:56:36Z</time>
      </trkpt>
      <trkpt lat="43.83913" lon="6.7459">
        <ele>1091.23</ele>
        <time>2013-05-30T08:57:08Z</time>
      </trkpt>
      <trkpt lat="43.83913" lon="6.74592">
        <ele>1091.71</ele>
        <time>2013-05-30T08:57:09Z</time>
      </trkpt>
      <trkpt lat="43.8392" lon="6.74609">
        <ele>1092.2</ele>
        <time>2013-05-30T08:57:27Z</time>
      </trkpt>
      <trkpt lat="43.83932" lon="6.7465">
        <ele>1094.6</ele>
        <time>2013-05-30T08:57:48Z</time>
      </trkpt>
      <trkpt lat="43.83938" lon="6.74689">
        <ele>1096.04</ele>
        <time>2013-05-30T08:58:05Z</time>
      </trkpt>
      <trkpt lat="43.83965" lon="6.74782">
        <ele>1100.85</ele>
        <time>2013-05-30T08:58:44Z</time>
      </trkpt>
      <trkpt lat="43.83971" lon="6.74799">
        <ele>1101.81</ele>
        <time>2013-05-30T08:58:52Z</time>
      </trkpt>
      <trkpt lat="43.83994" lon="6.74867">
        <ele>1105.65</ele>
        <time>2013-05-30T08:59:24Z</time>
      </trkpt>
      <trkpt lat="43.84012" lon="6.74925">
        <ele>1108.54</ele>
        <time>2013-05-30T08:59:48Z</time>
      </trkpt>
      <trkpt lat="43.84013" lon="6.74926">
        <ele>1108.54</ele>
        <time>2013-05-30T08:59:49Z</time>
      </trkpt>
      <trkpt lat="43.84031" lon="6.74975">
        <ele>1111.9</ele>
        <time>2013-05-30T09:00:13Z</time>
      </trkpt>
      <trkpt lat="43.84032" lon="6.74977">
        <ele>1111.9</ele>
        <time>2013-05-30T09:00:14Z</time>
      </trkpt>
      <trkpt lat="43.84043" lon="6.75014">
        <ele>1112.86</ele>
        <time>2013-05-30T09:00:29Z</time>
      </trkpt>
      <trkpt lat="43.84047" lon="6.75076">
        <ele>1117.19</ele>
        <time>2013-05-30T09:00:58Z</time>
      </trkpt>
      <trkpt lat="43.84025" lon="6.75124">
        <ele>1119.59</ele>
        <time>2013-05-30T09:01:22Z</time>
      </trkpt>
      <trkpt lat="43.84038" lon="6.75166">
        <ele>1122.48</ele>
        <time>2013-05-30T09:01:43Z</time>
      </trkpt>
      <trkpt lat="43.84037" lon="6.75172">
        <ele>1122.48</ele>
        <time>2013-05-30T09:01:45Z</time>
      </trkpt>
      <trkpt lat="43.84042" lon="6.75206">
        <ele>1124.4</ele>
        <time>2013-05-30T09:02:01Z</time>
      </trkpt>
      <trkpt lat="43.84044" lon="6.75211">
        <ele>1124.88</ele>
        <time>2013-05-30T09:02:04Z</time>
      </trkpt>
      <trkpt lat="43.84044" lon="6.75252">
        <ele>1127.28</ele>
        <time>2013-05-30T09:02:22Z</time>
      </trkpt>
      <trkpt lat="43.84045" lon="6.75259">
        <ele>1127.28</ele>
        <time>2013-05-30T09:02:28Z</time>
      </trkpt>
      <trkpt lat="43.84049" lon="6.75319">
        <ele>1130.17</ele>
        <time>2013-05-30T09:02:53Z</time>
      </trkpt>
      <trkpt lat="43.84051" lon="6.75361">
        <ele>1132.57</ele>
        <time>2013-05-30T09:03:15Z</time>
      </trkpt>
      <trkpt lat="43.84042" lon="6.75394">
        <ele>1134.49</ele>
        <time>2013-05-30T09:03:29Z</time>
      </trkpt>
      <trkpt lat="43.84032" lon="6.75437">
        <ele>1137.86</ele>
        <time>2013-05-30T09:03:49Z</time>
      </trkpt>
      <trkpt lat="43.84019" lon="6.75496">
        <ele>1141.7</ele>
        <time>2013-05-30T09:04:19Z</time>
      </trkpt>
      <trkpt lat="43.84019" lon="6.75506">
        <ele>1143.14</ele>
        <time>2013-05-30T09:04:25Z</time>
      </trkpt>
      <trkpt lat="43.84017" lon="6.75511">
        <ele>1143.14</ele>
        <time>2013-05-30T09:04:27Z</time>
      </trkpt>
      <trkpt lat="43.84003" lon="6.7554">
        <ele>1145.55</ele>
        <time>2013-05-30T09:04:47Z</time>
      </trkpt>
      <trkpt lat="43.83979" lon="6.75599">
        <ele>1148.91</ele>
        <time>2013-05-30T09:05:23Z</time>
      </trkpt>
      <trkpt lat="43.83969" lon="6.75676">
        <ele>1153.24</ele>
        <time>2013-05-30T09:05:57Z</time>
      </trkpt>
      <trkpt lat="43.83959" lon="6.75727">
        <ele>1156.6</ele>
        <time>2013-05-30T09:06:22Z</time>
      </trkpt>
      <trkpt lat="43.83954" lon="6.75762">
        <ele>1159.97</ele>
        <time>2013-05-30T09:06:41Z</time>
      </trkpt>
      <trkpt lat="43.83946" lon="6.7583">
        <ele>1164.29</ele>
        <time>2013-05-30T09:07:14Z</time>
      </trkpt>
      <trkpt lat="43.83949" lon="6.75918">
        <ele>1170.54</ele>
        <time>2013-05-30T09:08:02Z</time>
      </trkpt>
      <trkpt lat="43.83957" lon="6.76017">
        <ele>1174.39</ele>
        <time>2013-05-30T09:09:22Z</time>
      </trkpt>
      <trkpt lat="43.83951" lon="6.7609">
        <ele>1174.87</ele>
        <time>2013-05-30T09:09:47Z</time>
      </trkpt>
      <trkpt lat="43.83943" lon="6.76182">
        <ele>1178.23</ele>
        <time>2013-05-30T09:10:19Z</time>
      </trkpt>
      <trkpt lat="43.8394" lon="6.76236">
        <ele>1182.56</ele>
        <time>2013-05-30T09:10:42Z</time>
      </trkpt>
      <trkpt lat="43.83945" lon="6.76319">
        <ele>1186.88</ele>
        <time>2013-05-30T09:11:21Z</time>
      </trkpt>
      <trkpt lat="43.83948" lon="6.76377">
        <ele>1190.73</ele>
        <time>2013-05-30T09:11:51Z</time>
      </trkpt>
      <trkpt lat="43.8395" lon="6.76433">
        <ele>1193.61</ele>
        <time>2013-05-30T09:12:16Z</time>
      </trkpt>
      <trkpt lat="43.83954" lon="6.76481">
        <ele>1197.46</ele>
        <time>2013-05-30T09:12:41Z</time>
      </trkpt>
      <trkpt lat="43.83961" lon="6.76549">
        <ele>1202.75</ele>
        <time>2013-05-30T09:13:17Z</time>
      </trkpt>
      <trkpt lat="43.83959" lon="6.76559">
        <ele>1203.23</ele>
        <time>2013-05-30T09:13:21Z</time>
      </trkpt>
      <trkpt lat="43.83965" lon="6.76599">
        <ele>1205.15</ele>
        <time>2013-05-30T09:13:39Z</time>
      </trkpt>
      <trkpt lat="43.83967" lon="6.7663">
        <ele>1207.07</ele>
        <time>2013-05-30T09:13:54Z</time>
      </trkpt>
      <trkpt lat="43.83973" lon="6.76692">
        <ele>1210.92</ele>
        <time>2013-05-30T09:14:26Z</time>
      </trkpt>
      <trkpt lat="43.83994" lon="6.76779">
        <ele>1216.21</ele>
        <time>2013-05-30T09:15:09Z</time>
      </trkpt>
      <trkpt lat="43.84014" lon="6.76821">
        <ele>1219.57</ele>
        <time>2013-05-30T09:15:34Z</time>
      </trkpt>
      <trkpt lat="43.84035" lon="6.76861">
        <ele>1222.93</ele>
        <time>2013-05-30T09:15:59Z</time>
      </trkpt>
      <trkpt lat="43.84052" lon="6.76895">
        <ele>1224.38</ele>
        <time>2013-05-30T09:16:18Z</time>
      </trkpt>
      <trkpt lat="43.84054" lon="6.76936">
        <ele>1228.7</ele>
        <time>2013-05-30T09:16:44Z</time>
      </trkpt>
      <trkpt lat="43.84064" lon="6.76972">
        <ele>1230.14</ele>
        <time>2013-05-30T09:17:05Z</time>
      </trkpt>
      <trkpt lat="43.84071" lon="6.76995">
        <ele>1230.14</ele>
        <time>2013-05-30T09:17:15Z</time>
      </trkpt>
      <trkpt lat="43.84104" lon="6.77095">
        <ele>1235.91</ele>
        <time>2013-05-30T09:18:05Z</time>
      </trkpt>
      <trkpt lat="43.84126" lon="6.77173">
        <ele>1240.72</ele>
        <time>2013-05-30T09:18:50Z</time>
      </trkpt>
      <trkpt lat="43.84112" lon="6.77167">
        <ele>1243.12</ele>
        <time>2013-05-30T09:19:03Z</time>
      </trkpt>
      <trkpt lat="43.84091" lon="6.77104">
        <ele>1245.04</ele>
        <time>2013-05-30T09:19:34Z</time>
      </trkpt>
      <trkpt lat="43.84058" lon="6.77063">
        <ele>1248.89</ele>
        <time>2013-05-30T09:20:07Z</time>
      </trkpt>
      <trkpt lat="43.84047" lon="6.77046">
        <ele>1248.89</ele>
        <time>2013-05-30T09:20:17Z</time>
      </trkpt>
      <trkpt lat="43.8402" lon="6.77004">
        <ele>1252.25</ele>
        <time>2013-05-30T09:20:45Z</time>
      </trkpt>
      <trkpt lat="43.83978" lon="6.76957">
        <ele>1255.62</ele>
        <time>2013-05-30T09:21:23Z</time>
      </trkpt>
      <trkpt lat="43.8395" lon="6.76905">
        <ele>1260.43</ele>
        <time>2013-05-30T09:21:56Z</time>
      </trkpt>
      <trkpt lat="43.83939" lon="6.76919">
        <ele>1263.31</ele>
        <time>2013-05-30T09:22:34Z</time>
      </trkpt>
      <trkpt lat="43.83943" lon="6.7694">
        <ele>1264.75</ele>
        <time>2013-05-30T09:22:56Z</time>
      </trkpt>
      <trkpt lat="43.83944" lon="6.76942">
        <ele>1264.75</ele>
        <time>2013-05-30T09:22:57Z</time>
      </trkpt>
      <trkpt lat="43.8396" lon="6.77001">
        <ele>1268.6</ele>
        <time>2013-05-30T09:23:28Z</time>
      </trkpt>
      <trkpt lat="43.83995" lon="6.77085">
        <ele>1271.96</ele>
        <time>2013-05-30T09:24:07Z</time>
      </trkpt>
      <trkpt lat="43.84023" lon="6.77131">
        <ele>1274.36</ele>
        <time>2013-05-30T09:24:29Z</time>
      </trkpt>
      <trkpt lat="43.84059" lon="6.77204">
        <ele>1275.33</ele>
        <time>2013-05-30T09:24:55Z</time>
      </trkpt>
      <trkpt lat="43.84105" lon="6.7732">
        <ele>1273.88</ele>
        <time>2013-05-30T09:25:28Z</time>
      </trkpt>
      <trkpt lat="43.84115" lon="6.77389">
        <ele>1277.25</ele>
        <time>2013-05-30T09:25:53Z</time>
      </trkpt>
      <trkpt lat="43.84093" lon="6.77437">
        <ele>1282.06</ele>
        <time>2013-05-30T09:26:22Z</time>
      </trkpt>
      <trkpt lat="43.84096" lon="6.77462">
        <ele>1285.42</ele>
        <time>2013-05-30T09:26:46Z</time>
      </trkpt>
      <trkpt lat="43.8412" lon="6.77457">
        <ele>1288.78</ele>
        <time>2013-05-30T09:27:07Z</time>
      </trkpt>
      <trkpt lat="43.84163" lon="6.77464">
        <ele>1294.07</ele>
        <time>2013-05-30T09:27:46Z</time>
      </trkpt>
      <trkpt lat="43.84191" lon="6.77468">
        <ele>1297.44</ele>
        <time>2013-05-30T09:28:11Z</time>
      </trkpt>
      <trkpt lat="43.84195" lon="6.77464">
        <ele>1296.96</ele>
        <time>2013-05-30T09:28:15Z</time>
      </trkpt>
      <trkpt lat="43.84248" lon="6.77436">
        <ele>1300.8</ele>
        <time>2013-05-30T09:28:56Z</time>
      </trkpt>
      <trkpt lat="43.84275" lon="6.77439">
        <ele>1302.24</ele>
        <time>2013-05-30T09:29:27Z</time>
      </trkpt>
      <trkpt lat="43.84277" lon="6.7744">
        <ele>1302.72</ele>
        <time>2013-05-30T09:29:52Z</time>
      </trkpt>
      <trkpt lat="43.84349" lon="6.7749">
        <ele>1306.09</ele>
        <time>2013-05-30T09:30:27Z</time>
      </trkpt>
      <trkpt lat="43.84371" lon="6.77513">
        <ele>1304.65</ele>
        <time>2013-05-30T09:31:46Z</time>
      </trkpt>
      <trkpt lat="43.84389" lon="6.77548">
        <ele>1300.8</ele>
        <time>2013-05-30T09:31:55Z</time>
      </trkpt>
      <trkpt lat="43.84397" lon="6.77574">
        <ele>1296.96</ele>
        <time>2013-05-30T09:32:03Z</time>
      </trkpt>
      <trkpt lat="43.8441" lon="6.77604">
        <ele>1293.11</ele>
        <time>2013-05-30T09:32:10Z</time>
      </trkpt>
      <trkpt lat="43.84427" lon="6.77642">
        <ele>1287.34</ele>
        <time>2013-05-30T09:32:21Z</time>
      </trkpt>
      <trkpt lat="43.84447" lon="6.77689">
        <ele>1281.57</ele>
        <time>2013-05-30T09:32:33Z</time>
      </trkpt>
      <trkpt lat="43.84453" lon="6.77703">
        <ele>1279.65</ele>
        <time>2013-05-30T09:32:35Z</time>
      </trkpt>
      <trkpt lat="43.84469" lon="6.77721">
        <ele>1275.33</ele>
        <time>2013-05-30T09:32:41Z</time>
      </trkpt>
      <trkpt lat="43.84477" lon="6.77728">
        <ele>1273.88</ele>
        <time>2013-05-30T09:33:18Z</time>
      </trkpt>
      <trkpt lat="43.84507" lon="6.7774">
        <ele>1269.56</ele>
        <time>2013-05-30T09:33:26Z</time>
      </trkpt>
      <trkpt lat="43.84514" lon="6.77745">
        <ele>1268.6</ele>
        <time>2013-05-30T09:33:28Z</time>
      </trkpt>
      <trkpt lat="43.84517" lon="6.7775">
        <ele>1268.6</ele>
        <time>2013-05-30T09:33:29Z</time>
      </trkpt>
      <trkpt lat="43.84527" lon="6.77762">
        <ele>1266.67</ele>
        <time>2013-05-30T09:33:32Z</time>
      </trkpt>
      <trkpt lat="43.84518" lon="6.77773">
        <ele>1262.83</ele>
        <time>2013-05-30T09:33:36Z</time>
      </trkpt>
      <trkpt lat="43.84498" lon="6.77773">
        <ele>1259.46</ele>
        <time>2013-05-30T09:33:41Z</time>
      </trkpt>
      <trkpt lat="43.84491" lon="6.77805">
        <ele>1257.54</ele>
        <time>2013-05-30T09:33:52Z</time>
      </trkpt>
      <trkpt lat="43.84521" lon="6.77911">
        <ele>1257.06</ele>
        <time>2013-05-30T09:34:20Z</time>
      </trkpt>
      <trkpt lat="43.84587" lon="6.78024">
        <ele>1253.22</ele>
        <time>2013-05-30T09:34:42Z</time>
      </trkpt>
      <trkpt lat="43.84651" lon="6.78073">
        <ele>1253.7</ele>
        <time>2013-05-30T09:34:58Z</time>
      </trkpt>
      <trkpt lat="43.84693" lon="6.7809">
        <ele>1255.62</ele>
        <time>2013-05-30T09:35:12Z</time>
      </trkpt>
      <trkpt lat="43.84738" lon="6.78147">
        <ele>1256.1</ele>
        <time>2013-05-30T09:35:28Z</time>
      </trkpt>
      <trkpt lat="43.84754" lon="6.78165">
        <ele>1255.14</ele>
        <time>2013-05-30T09:35:34Z</time>
      </trkpt>
      <trkpt lat="43.84781" lon="6.78164">
        <ele>1251.77</ele>
        <time>2013-05-30T09:35:39Z</time>
      </trkpt>
      <trkpt lat="43.84801" lon="6.78177">
        <ele>1248.41</ele>
        <time>2013-05-30T09:35:44Z</time>
      </trkpt>
      <trkpt lat="43.84815" lon="6.78198">
        <ele>1244.08</ele>
        <time>2013-05-30T09:35:53Z</time>
      </trkpt>
      <trkpt lat="43.8484" lon="6.78238">
        <ele>1238.32</ele>
        <time>2013-05-30T09:36:23Z</time>
      </trkpt>
      <trkpt lat="43.84843" lon="6.78243">
        <ele>1238.32</ele>
        <time>2013-05-30T09:36:24Z</time>
      </trkpt>
      <trkpt lat="43.84856" lon="6.78282">
        <ele>1233.99</ele>
        <time>2013-05-30T09:36:29Z</time>
      </trkpt>
      <trkpt lat="43.84861" lon="6.78309">
        <ele>1230.62</ele>
        <time>2013-05-30T09:36:32Z</time>
      </trkpt>
      <trkpt lat="43.84863" lon="6.78317">
        <ele>1230.62</ele>
        <time>2013-05-30T09:36:33Z</time>
      </trkpt>
      <trkpt lat="43.84881" lon="6.78382">
        <ele>1226.78</ele>
        <time>2013-05-30T09:36:39Z</time>
      </trkpt>
      <trkpt lat="43.84888" lon="6.78409">
        <ele>1224.38</ele>
        <time>2013-05-30T09:36:41Z</time>
      </trkpt>
      <trkpt lat="43.84943" lon="6.78518">
        <ele>1218.61</ele>
        <time>2013-05-30T09:36:52Z</time>
      </trkpt>
      <trkpt lat="43.84962" lon="6.78553">
        <ele>1215.24</ele>
        <time>2013-05-30T09:36:56Z</time>
      </trkpt>
      <trkpt lat="43.84966" lon="6.78564">
        <ele>1215.24</ele>
        <time>2013-05-30T09:36:57Z</time>
      </trkpt>
      <trkpt lat="43.84979" lon="6.7858">
        <ele>1212.84</ele>
        <time>2013-05-30T09:37:01Z</time>
      </trkpt>
      <trkpt lat="43.84996" lon="6.78578">
        <ele>1211.88</ele>
        <time>2013-05-30T09:37:06Z</time>
      </trkpt>
      <trkpt lat="43.8505" lon="6.78548">
        <ele>1213.32</ele>
        <time>2013-05-30T09:37:23Z</time>
      </trkpt>
      <trkpt lat="43.8509" lon="6.78514">
        <ele>1215.24</ele>
        <time>2013-05-30T09:37:42Z</time>
      </trkpt>
      <trkpt lat="43.85092" lon="6.78515">
        <ele>1214.76</ele>
        <time>2013-05-30T09:37:43Z</time>
      </trkpt>
      <trkpt lat="43.85108" lon="6.78555">
        <ele>1208.51</ele>
        <time>2013-05-30T09:37:52Z</time>
      </trkpt>
      <trkpt lat="43.85116" lon="6.78574">
        <ele>1205.15</ele>
        <time>2013-05-30T09:37:57Z</time>
      </trkpt>
      <trkpt lat="43.85118" lon="6.78576">
        <ele>1204.67</ele>
        <time>2013-05-30T09:37:58Z</time>
      </trkpt>
      <trkpt lat="43.85113" lon="6.78615">
        <ele>1200.82</ele>
        <time>2013-05-30T09:38:07Z</time>
      </trkpt>
      <trkpt lat="43.85122" lon="6.7864">
        <ele>1196.5</ele>
        <time>2013-05-30T09:38:21Z</time>
      </trkpt>
      <trkpt lat="43.85127" lon="6.78656">
        <ele>1194.09</ele>
        <time>2013-05-30T09:38:44Z</time>
      </trkpt>
      <trkpt lat="43.85132" lon="6.78664">
        <ele>1191.21</ele>
        <time>2013-05-30T09:38:50Z</time>
      </trkpt>
      <trkpt lat="43.85132" lon="6.78661">
        <ele>1191.21</ele>
        <time>2013-05-30T09:38:51Z</time>
      </trkpt>
      <trkpt lat="43.85133" lon="6.78643">
        <ele>1187.37</ele>
        <time>2013-05-30T09:38:59Z</time>
      </trkpt>
      <trkpt lat="43.85136" lon="6.7865">
        <ele>1185.92</ele>
        <time>2013-05-30T09:39:01Z</time>
      </trkpt>
      <trkpt lat="43.85139" lon="6.78655">
        <ele>1185.92</ele>
        <time>2013-05-30T09:39:02Z</time>
      </trkpt>
      <trkpt lat="43.85151" lon="6.78677">
        <ele>1182.08</ele>
        <time>2013-05-30T09:39:06Z</time>
      </trkpt>
      <trkpt lat="43.85165" lon="6.78735">
        <ele>1176.31</ele>
        <time>2013-05-30T09:39:14Z</time>
      </trkpt>
      <trkpt lat="43.85175" lon="6.78749">
        <ele>1172.95</ele>
        <time>2013-05-30T09:39:19Z</time>
      </trkpt>
      <trkpt lat="43.85179" lon="6.78747">
        <ele>1171.02</ele>
        <time>2013-05-30T09:39:23Z</time>
      </trkpt>
      <trkpt lat="43.85182" lon="6.78709">
        <ele>1165.26</ele>
        <time>2013-05-30T09:39:34Z</time>
      </trkpt>
      <trkpt lat="43.85189" lon="6.78683">
        <ele>1161.41</ele>
        <time>2013-05-30T09:39:40Z</time>
      </trkpt>
      <trkpt lat="43.85183" lon="6.78654">
        <ele>1158.05</ele>
        <time>2013-05-30T09:39:46Z</time>
      </trkpt>
      <trkpt lat="43.85173" lon="6.78621">
        <ele>1153.72</ele>
        <time>2013-05-30T09:39:53Z</time>
      </trkpt>
      <trkpt lat="43.85173" lon="6.786">
        <ele>1150.35</ele>
        <time>2013-05-30T09:39:58Z</time>
      </trkpt>
      <trkpt lat="43.85179" lon="6.78577">
        <ele>1146.51</ele>
        <time>2013-05-30T09:40:06Z</time>
      </trkpt>
      <trkpt lat="43.8518" lon="6.78576">
        <ele>1146.51</ele>
        <time>2013-05-30T09:40:07Z</time>
      </trkpt>
      <trkpt lat="43.85179" lon="6.78574">
        <ele>1145.55</ele>
        <time>2013-05-30T09:40:31Z</time>
      </trkpt>
      <trkpt lat="43.85179" lon="6.78574">
        <ele>1145.55</ele>
        <time>2013-05-30T09:41:11Z</time>
      </trkpt>
      <trkpt lat="43.85184" lon="6.78611">
        <ele>1142.18</ele>
        <time>2013-05-30T09:41:24Z</time>
      </trkpt>
      <trkpt lat="43.852" lon="6.78643">
        <ele>1135.94</ele>
        <time>2013-05-30T09:41:31Z</time>
      </trkpt>
      <trkpt lat="43.85212" lon="6.7866">
        <ele>1132.57</ele>
        <time>2013-05-30T09:41:36Z</time>
      </trkpt>
      <trkpt lat="43.8522" lon="6.78678">
        <ele>1130.17</ele>
        <time>2013-05-30T09:41:40Z</time>
      </trkpt>
      <trkpt lat="43.85223" lon="6.78704">
        <ele>1126.8</ele>
        <time>2013-05-30T09:41:44Z</time>
      </trkpt>
      <trkpt lat="43.85226" lon="6.78713">
        <ele>1125.84</ele>
        <time>2013-05-30T09:41:46Z</time>
      </trkpt>
      <trkpt lat="43.85232" lon="6.78737">
        <ele>1121.52</ele>
        <time>2013-05-30T09:41:52Z</time>
      </trkpt>
      <trkpt lat="43.85241" lon="6.78764">
        <ele>1117.19</ele>
        <time>2013-05-30T09:41:59Z</time>
      </trkpt>
      <trkpt lat="43.85248" lon="6.78775">
        <ele>1114.31</ele>
        <time>2013-05-30T09:42:21Z</time>
      </trkpt>
      <trkpt lat="43.85252" lon="6.78777">
        <ele>1113.82</ele>
        <time>2013-05-30T09:42:30Z</time>
      </trkpt>
      <trkpt lat="43.85273" lon="6.788">
        <ele>1108.06</ele>
        <time>2013-05-30T09:42:46Z</time>
      </trkpt>
      <trkpt lat="43.85285" lon="6.78826">
        <ele>1104.21</ele>
        <time>2013-05-30T09:42:53Z</time>
      </trkpt>
      <trkpt lat="43.85293" lon="6.78846">
        <ele>1100.37</ele>
        <time>2013-05-30T09:42:58Z</time>
      </trkpt>
      <trkpt lat="43.85292" lon="6.78848">
        <ele>1100.37</ele>
        <time>2013-05-30T09:42:59Z</time>
      </trkpt>
      <trkpt lat="43.85292" lon="6.7885">
        <ele>1099.89</ele>
        <time>2013-05-30T09:43:00Z</time>
      </trkpt>
      <trkpt lat="43.85287" lon="6.78862">
        <ele>1094.6</ele>
        <time>2013-05-30T09:43:10Z</time>
      </trkpt>
      <trkpt lat="43.85289" lon="6.78862">
        <ele>1094.6</ele>
        <time>2013-05-30T09:43:11Z</time>
      </trkpt>
      <trkpt lat="43.853" lon="6.78863">
        <ele>1091.23</ele>
        <time>2013-05-30T09:43:23Z</time>
      </trkpt>
      <trkpt lat="43.85305" lon="6.78846">
        <ele>1088.83</ele>
        <time>2013-05-30T09:43:44Z</time>
      </trkpt>
      <trkpt lat="43.85305" lon="6.78851">
        <ele>1086.43</ele>
        <time>2013-05-30T09:43:57Z</time>
      </trkpt>
      <trkpt lat="43.85306" lon="6.78854">
        <ele>1086.91</ele>
        <time>2013-05-30T09:43:58Z</time>
      </trkpt>
      <trkpt lat="43.85302" lon="6.78861">
        <ele>1085.95</ele>
        <time>2013-05-30T09:44:00Z</time>
      </trkpt>
      <trkpt lat="43.85296" lon="6.78869">
        <ele>1083.54</ele>
        <time>2013-05-30T09:44:04Z</time>
      </trkpt>
      <trkpt lat="43.85298" lon="6.78868">
        <ele>1083.54</ele>
        <time>2013-05-30T09:44:05Z</time>
      </trkpt>
      <trkpt lat="43.85312" lon="6.78858">
        <ele>1079.7</ele>
        <time>2013-05-30T09:44:21Z</time>
      </trkpt>
      <trkpt lat="43.85318" lon="6.78873">
        <ele>1077.29</ele>
        <time>2013-05-30T09:44:50Z</time>
      </trkpt>
      <trkpt lat="43.85324" lon="6.78852">
        <ele>1069.12</ele>
        <time>2013-05-30T09:45:07Z</time>
      </trkpt>
      <trkpt lat="43.8534" lon="6.78876">
        <ele>1065.76</ele>
        <time>2013-05-30T09:45:15Z</time>
      </trkpt>
      <trkpt lat="43.85347" lon="6.7889">
        <ele>1062.39</ele>
        <time>2013-05-30T09:45:20Z</time>
      </trkpt>
      <trkpt lat="43.85359" lon="6.78885">
        <ele>1059.03</ele>
        <time>2013-05-30T09:45:29Z</time>
      </trkpt>
      <trkpt lat="43.85369" lon="6.78904">
        <ele>1054.7</ele>
        <time>2013-05-30T09:45:41Z</time>
      </trkpt>
      <trkpt lat="43.85376" lon="6.78891">
        <ele>1050.86</ele>
        <time>2013-05-30T09:45:51Z</time>
      </trkpt>
      <trkpt lat="43.85379" lon="6.78892">
        <ele>1048.94</ele>
        <time>2013-05-30T09:46:48Z</time>
      </trkpt>
      <trkpt lat="43.85385" lon="6.78911">
        <ele>1045.57</ele>
        <time>2013-05-30T09:46:57Z</time>
      </trkpt>
      <trkpt lat="43.85396" lon="6.78909">
        <ele>1042.21</ele>
        <time>2013-05-30T09:47:07Z</time>
      </trkpt>
      <trkpt lat="43.85401" lon="6.78883">
        <ele>1038.36</ele>
        <time>2013-05-30T09:47:14Z</time>
      </trkpt>
      <trkpt lat="43.85409" lon="6.78896">
        <ele>1035</ele>
        <time>2013-05-30T09:47:21Z</time>
      </trkpt>
      <trkpt lat="43.85416" lon="6.78923">
        <ele>1031.15</ele>
        <time>2013-05-30T09:47:28Z</time>
      </trkpt>
      <trkpt lat="43.85426" lon="6.78902">
        <ele>1027.79</ele>
        <time>2013-05-30T09:47:36Z</time>
      </trkpt>
      <trkpt lat="43.85428" lon="6.78871">
        <ele>1023.94</ele>
        <time>2013-05-30T09:47:43Z</time>
      </trkpt>
      <trkpt lat="43.85436" lon="6.78887">
        <ele>1017.69</ele>
        <time>2013-05-30T09:47:58Z</time>
      </trkpt>
      <trkpt lat="43.85448" lon="6.78922">
        <ele>1013.37</ele>
        <time>2013-05-30T09:48:05Z</time>
      </trkpt>
      <trkpt lat="43.85466" lon="6.78891">
        <ele>1006.64</ele>
        <time>2013-05-30T09:48:18Z</time>
      </trkpt>
      <trkpt lat="43.85469" lon="6.78886">
        <ele>1005.2</ele>
        <time>2013-05-30T09:48:28Z</time>
      </trkpt>
      <trkpt lat="43.85469" lon="6.78886">
        <ele>1005.2</ele>
        <time>2013-05-30T09:48:31Z</time>
      </trkpt>
      <trkpt lat="43.85476" lon="6.78909">
        <ele>1002.31</ele>
        <time>2013-05-30T09:48:37Z</time>
      </trkpt>
      <trkpt lat="43.85481" lon="6.78927">
        <ele>998.95</ele>
        <time>2013-05-30T09:48:40Z</time>
      </trkpt>
      <trkpt lat="43.8548" lon="6.78948">
        <ele>996.06</ele>
        <time>2013-05-30T09:48:46Z</time>
      </trkpt>
      <trkpt lat="43.85479" lon="6.78946">
        <ele>995.1</ele>
        <time>2013-05-30T09:48:48Z</time>
      </trkpt>
      <trkpt lat="43.85495" lon="6.78909">
        <ele>990.78</ele>
        <time>2013-05-30T09:48:56Z</time>
      </trkpt>
      <trkpt lat="43.85504" lon="6.78885">
        <ele>987.41</ele>
        <time>2013-05-30T09:49:01Z</time>
      </trkpt>
      <trkpt lat="43.85507" lon="6.78872">
        <ele>983.09</ele>
        <time>2013-05-30T09:49:10Z</time>
      </trkpt>
      <trkpt lat="43.85522" lon="6.78909">
        <ele>977.8</ele>
        <time>2013-05-30T09:49:20Z</time>
      </trkpt>
      <trkpt lat="43.8553" lon="6.78926">
        <ele>973.95</ele>
        <time>2013-05-30T09:49:24Z</time>
      </trkpt>
      <trkpt lat="43.85545" lon="6.78958">
        <ele>969.63</ele>
        <time>2013-05-30T09:49:31Z</time>
      </trkpt>
      <trkpt lat="43.85529" lon="6.78992">
        <ele>963.38</ele>
        <time>2013-05-30T09:49:42Z</time>
      </trkpt>
      <trkpt lat="43.85524" lon="6.78994">
        <ele>963.38</ele>
        <time>2013-05-30T09:49:43Z</time>
      </trkpt>
      <trkpt lat="43.85493" lon="6.79013">
        <ele>959.05</ele>
        <time>2013-05-30T09:49:52Z</time>
      </trkpt>
      <trkpt lat="43.85451" lon="6.79047">
        <ele>955.21</ele>
        <time>2013-05-30T09:50:06Z</time>
      </trkpt>
      <trkpt lat="43.85433" lon="6.79065">
        <ele>954.25</ele>
        <time>2013-05-30T09:50:10Z</time>
      </trkpt>
      <trkpt lat="43.85417" lon="6.79084">
        <ele>951.36</ele>
        <time>2013-05-30T09:50:14Z</time>
      </trkpt>
      <trkpt lat="43.8541" lon="6.79091">
        <ele>951.36</ele>
        <time>2013-05-30T09:50:16Z</time>
      </trkpt>
      <trkpt lat="43.85389" lon="6.7911">
        <ele>949.44</ele>
        <time>2013-05-30T09:50:29Z</time>
      </trkpt>
      <trkpt lat="43.85384" lon="6.79125">
        <ele>950.4</ele>
        <time>2013-05-30T09:50:44Z</time>
      </trkpt>
      <trkpt lat="43.85386" lon="6.79132">
        <ele>950.88</ele>
        <time>2013-05-30T09:51:16Z</time>
      </trkpt>
      <trkpt lat="43.85397" lon="6.79172">
        <ele>952.8</ele>
        <time>2013-05-30T09:51:34Z</time>
      </trkpt>
      <trkpt lat="43.85408" lon="6.7919">
        <ele>953.77</ele>
        <time>2013-05-30T09:51:42Z</time>
      </trkpt>
      <trkpt lat="43.85419" lon="6.79194">
        <ele>954.73</ele>
        <time>2013-05-30T09:51:48Z</time>
      </trkpt>
      <trkpt lat="43.85467" lon="6.79215">
        <ele>956.17</ele>
        <time>2013-05-30T09:52:13Z</time>
      </trkpt>
      <trkpt lat="43.8551" lon="6.7928">
        <ele>959.05</ele>
        <time>2013-05-30T09:52:42Z</time>
      </trkpt>
      <trkpt lat="43.85562" lon="6.79334">
        <ele>961.94</ele>
        <time>2013-05-30T09:53:08Z</time>
      </trkpt>
      <trkpt lat="43.85616" lon="6.79376">
        <ele>958.09</ele>
        <time>2013-05-30T09:53:37Z</time>
      </trkpt>
      <trkpt lat="43.85624" lon="6.79384">
        <ele>952.32</ele>
        <time>2013-05-30T09:53:44Z</time>
      </trkpt>
      <trkpt lat="43.8565" lon="6.794">
        <ele>947.52</ele>
        <time>2013-05-30T09:53:50Z</time>
      </trkpt>
      <trkpt lat="43.85665" lon="6.79405">
        <ele>946.56</ele>
        <time>2013-05-30T09:53:51Z</time>
      </trkpt>
      <trkpt lat="43.85684" lon="6.79412">
        <ele>943.67</ele>
        <time>2013-05-30T09:53:55Z</time>
      </trkpt>
      <trkpt lat="43.85707" lon="6.79411">
        <ele>940.31</ele>
        <time>2013-05-30T09:54:00Z</time>
      </trkpt>
      <trkpt lat="43.85741" lon="6.79411">
        <ele>934.06</ele>
        <time>2013-05-30T09:54:13Z</time>
      </trkpt>
      <trkpt lat="43.8578" lon="6.79379">
        <ele>928.29</ele>
        <time>2013-05-30T09:54:25Z</time>
      </trkpt>
      <trkpt lat="43.85794" lon="6.79385">
        <ele>924.45</ele>
        <time>2013-05-30T09:54:49Z</time>
      </trkpt>
      <trkpt lat="43.85822" lon="6.79374">
        <ele>916.75</ele>
        <time>2013-05-30T09:55:10Z</time>
      </trkpt>
      <trkpt lat="43.85831" lon="6.79393">
        <ele>913.39</ele>
        <time>2013-05-30T09:55:17Z</time>
      </trkpt>
      <trkpt lat="43.85852" lon="6.79376">
        <ele>909.06</ele>
        <time>2013-05-30T09:55:27Z</time>
      </trkpt>
      <trkpt lat="43.8587" lon="6.79386">
        <ele>903.78</ele>
        <time>2013-05-30T09:55:36Z</time>
      </trkpt>
      <trkpt lat="43.85879" lon="6.79414">
        <ele>899.93</ele>
        <time>2013-05-30T09:55:42Z</time>
      </trkpt>
      <trkpt lat="43.85906" lon="6.79389">
        <ele>894.64</ele>
        <time>2013-05-30T09:55:52Z</time>
      </trkpt>
      <trkpt lat="43.85909" lon="6.79387">
        <ele>894.64</ele>
        <time>2013-05-30T09:55:53Z</time>
      </trkpt>
      <trkpt lat="43.85916" lon="6.79411">
        <ele>890.32</ele>
        <time>2013-05-30T09:56:00Z</time>
      </trkpt>
      <trkpt lat="43.85916" lon="6.79416">
        <ele>889.84</ele>
        <time>2013-05-30T09:56:01Z</time>
      </trkpt>
      <trkpt lat="43.85918" lon="6.79445">
        <ele>886.47</ele>
        <time>2013-05-30T09:56:07Z</time>
      </trkpt>
      <trkpt lat="43.85917" lon="6.79447">
        <ele>886.47</ele>
        <time>2013-05-30T09:56:08Z</time>
      </trkpt>
      <trkpt lat="43.85927" lon="6.79453">
        <ele>884.07</ele>
        <time>2013-05-30T09:57:01Z</time>
      </trkpt>
      <trkpt lat="43.85937" lon="6.79447">
        <ele>879.74</ele>
        <time>2013-05-30T09:57:23Z</time>
      </trkpt>
      <trkpt lat="43.85938" lon="6.79448">
        <ele>880.22</ele>
        <time>2013-05-30T09:57:24Z</time>
      </trkpt>
      <trkpt lat="43.85952" lon="6.79447">
        <ele>876.38</ele>
        <time>2013-05-30T09:57:31Z</time>
      </trkpt>
      <trkpt lat="43.85954" lon="6.7945">
        <ele>876.38</ele>
        <time>2013-05-30T09:57:33Z</time>
      </trkpt>
      <trkpt lat="43.85981" lon="6.79448">
        <ele>869.65</ele>
        <time>2013-05-30T09:57:44Z</time>
      </trkpt>
      <trkpt lat="43.85988" lon="6.79451">
        <ele>868.21</ele>
        <time>2013-05-30T09:57:47Z</time>
      </trkpt>
      <trkpt lat="43.86003" lon="6.79458">
        <ele>864.36</ele>
        <time>2013-05-30T09:57:54Z</time>
      </trkpt>
      <trkpt lat="43.86026" lon="6.7947">
        <ele>859.56</ele>
        <time>2013-05-30T09:58:03Z</time>
      </trkpt>
      <trkpt lat="43.86036" lon="6.79472">
        <ele>857.63</ele>
        <time>2013-05-30T09:58:07Z</time>
      </trkpt>
      <trkpt lat="43.8605" lon="6.79488">
        <ele>853.79</ele>
        <time>2013-05-30T09:58:15Z</time>
      </trkpt>
      <trkpt lat="43.86066" lon="6.79507">
        <ele>848.02</ele>
        <time>2013-05-30T09:58:27Z</time>
      </trkpt>
      <trkpt lat="43.86074" lon="6.79521">
        <ele>845.62</ele>
        <time>2013-05-30T09:58:44Z</time>
      </trkpt>
      <trkpt lat="43.86087" lon="6.79549">
        <ele>842.25</ele>
        <time>2013-05-30T09:58:52Z</time>
      </trkpt>
      <trkpt lat="43.86091" lon="6.79569">
        <ele>837.93</ele>
        <time>2013-05-30T09:59:00Z</time>
      </trkpt>
      <trkpt lat="43.86089" lon="6.79568">
        <ele>837.93</ele>
        <time>2013-05-30T09:59:01Z</time>
      </trkpt>
      <trkpt lat="43.86081" lon="6.79573">
        <ele>833.6</ele>
        <time>2013-05-30T09:59:09Z</time>
      </trkpt>
      <trkpt lat="43.86088" lon="6.79598">
        <ele>829.76</ele>
        <time>2013-05-30T09:59:39Z</time>
      </trkpt>
      <trkpt lat="43.86089" lon="6.796">
        <ele>828.79</ele>
        <time>2013-05-30T10:00:14Z</time>
      </trkpt>
      <trkpt lat="43.86067" lon="6.796">
        <ele>824.95</ele>
        <time>2013-05-30T10:00:25Z</time>
      </trkpt>
      <trkpt lat="43.86075" lon="6.79614">
        <ele>821.58</ele>
        <time>2013-05-30T10:00:33Z</time>
      </trkpt>
      <trkpt lat="43.86084" lon="6.79628">
        <ele>817.74</ele>
        <time>2013-05-30T10:00:41Z</time>
      </trkpt>
      <trkpt lat="43.86098" lon="6.79642">
        <ele>812.93</ele>
        <time>2013-05-30T10:01:05Z</time>
      </trkpt>
      <trkpt lat="43.86107" lon="6.79653">
        <ele>810.53</ele>
        <time>2013-05-30T10:01:34Z</time>
      </trkpt>
      <trkpt lat="43.86089" lon="6.79659">
        <ele>807.16</ele>
        <time>2013-05-30T10:01:42Z</time>
      </trkpt>
      <trkpt lat="43.86088" lon="6.7966">
        <ele>807.16</ele>
        <time>2013-05-30T10:01:43Z</time>
      </trkpt>
      <trkpt lat="43.8608" lon="6.79668">
        <ele>803.8</ele>
        <time>2013-05-30T10:02:01Z</time>
      </trkpt>
      <trkpt lat="43.86071" lon="6.7967">
        <ele>801.88</ele>
        <time>2013-05-30T10:02:12Z</time>
      </trkpt>
      <trkpt lat="43.86091" lon="6.79694">
        <ele>796.11</ele>
        <time>2013-05-30T10:02:25Z</time>
      </trkpt>
      <trkpt lat="43.861" lon="6.79727">
        <ele>791.3</ele>
        <time>2013-05-30T10:02:35Z</time>
      </trkpt>
      <trkpt lat="43.86102" lon="6.79732">
        <ele>791.3</ele>
        <time>2013-05-30T10:02:36Z</time>
      </trkpt>
      <trkpt lat="43.86114" lon="6.7976">
        <ele>786.98</ele>
        <time>2013-05-30T10:02:44Z</time>
      </trkpt>
      <trkpt lat="43.86123" lon="6.7978">
        <ele>782.17</ele>
        <time>2013-05-30T10:02:58Z</time>
      </trkpt>
      <trkpt lat="43.86108" lon="6.79773">
        <ele>779.29</ele>
        <time>2013-05-30T10:03:19Z</time>
      </trkpt>
      <trkpt lat="43.861" lon="6.79771">
        <ele>778.32</ele>
        <time>2013-05-30T10:03:30Z</time>
      </trkpt>
      <trkpt lat="43.86094" lon="6.7979">
        <ele>774.96</ele>
        <time>2013-05-30T10:03:40Z</time>
      </trkpt>
      <trkpt lat="43.86118" lon="6.79818">
        <ele>777.36</ele>
        <time>2013-05-30T10:03:59Z</time>
      </trkpt>
      <trkpt lat="43.86152" lon="6.79869">
        <ele>774.48</ele>
        <time>2013-05-30T10:04:17Z</time>
      </trkpt>
      <trkpt lat="43.86154" lon="6.79874">
        <ele>774.48</ele>
        <time>2013-05-30T10:04:18Z</time>
      </trkpt>
      <trkpt lat="43.86167" lon="6.79915">
        <ele>771.11</ele>
        <time>2013-05-30T10:04:25Z</time>
      </trkpt>
      <trkpt lat="43.86173" lon="6.79931">
        <ele>769.19</ele>
        <time>2013-05-30T10:04:29Z</time>
      </trkpt>
      <trkpt lat="43.86197" lon="6.79963">
        <ele>764.39</ele>
        <time>2013-05-30T10:04:39Z</time>
      </trkpt>
      <trkpt lat="43.86202" lon="6.79983">
        <ele>761.98</ele>
        <time>2013-05-30T10:04:43Z</time>
      </trkpt>
      <trkpt lat="43.86212" lon="6.80022">
        <ele>758.62</ele>
        <time>2013-05-30T10:04:51Z</time>
      </trkpt>
      <trkpt lat="43.86218" lon="6.80029">
        <ele>758.62</ele>
        <time>2013-05-30T10:05:15Z</time>
      </trkpt>
      <trkpt lat="43.86234" lon="6.80078">
        <ele>758.14</ele>
        <time>2013-05-30T10:05:56Z</time>
      </trkpt>
      <trkpt lat="43.86236" lon="6.80093">
        <ele>757.18</ele>
        <time>2013-05-30T10:05:58Z</time>
      </trkpt>
      <trkpt lat="43.86238" lon="6.80126">
        <ele>756.69</ele>
        <time>2013-05-30T10:06:03Z</time>
      </trkpt>
      <trkpt lat="43.86245" lon="6.80189">
        <ele>753.33</ele>
        <time>2013-05-30T10:06:12Z</time>
      </trkpt>
      <trkpt lat="43.86245" lon="6.80212">
        <ele>751.89</ele>
        <time>2013-05-30T10:06:15Z</time>
      </trkpt>
      <trkpt lat="43.86246" lon="6.80218">
        <ele>751.89</ele>
        <time>2013-05-30T10:06:16Z</time>
      </trkpt>
      <trkpt lat="43.86262" lon="6.80225">
        <ele>749</ele>
        <time>2013-05-30T10:06:21Z</time>
      </trkpt>
      <trkpt lat="43.86274" lon="6.80239">
        <ele>744.68</ele>
        <time>2013-05-30T10:06:27Z</time>
      </trkpt>
      <trkpt lat="43.86273" lon="6.80263">
        <ele>741.31</ele>
        <time>2013-05-30T10:06:33Z</time>
      </trkpt>
      <trkpt lat="43.86273" lon="6.80309">
        <ele>737.95</ele>
        <time>2013-05-30T10:06:43Z</time>
      </trkpt>
      <trkpt lat="43.86265" lon="6.8035">
        <ele>736.99</ele>
        <time>2013-05-30T10:07:00Z</time>
      </trkpt>
      <trkpt lat="43.86245" lon="6.80533">
        <ele>736.99</ele>
        <time>2013-05-30T10:07:49Z</time>
      </trkpt>
      <trkpt lat="43.86247" lon="6.80647">
        <ele>730.74</ele>
        <time>2013-05-30T10:08:16Z</time>
      </trkpt>
      <trkpt lat="43.86244" lon="6.80697">
        <ele>730.74</ele>
        <time>2013-05-30T10:08:27Z</time>
      </trkpt>
      <trkpt lat="43.86228" lon="6.80718">
        <ele>732.66</ele>
        <time>2013-05-30T10:08:35Z</time>
      </trkpt>
      <trkpt lat="43.86182" lon="6.80709">
        <ele>735.55</ele>
        <time>2013-05-30T10:08:53Z</time>
      </trkpt>
      <trkpt lat="43.86183" lon="6.80726">
        <ele>736.03</ele>
        <time>2013-05-30T10:08:59Z</time>
      </trkpt>
      <trkpt lat="43.86164" lon="6.80769">
        <ele>739.87</ele>
        <time>2013-05-30T10:09:27Z</time>
      </trkpt>
      <trkpt lat="43.86146" lon="6.80768">
        <ele>738.91</ele>
        <time>2013-05-30T10:09:33Z</time>
      </trkpt>
      <trkpt lat="43.86132" lon="6.80787">
        <ele>738.43</ele>
        <time>2013-05-30T10:09:37Z</time>
      </trkpt>
      <trkpt lat="43.86107" lon="6.80819">
        <ele>740.83</ele>
        <time>2013-05-30T10:09:55Z</time>
      </trkpt>
      <trkpt lat="43.86079" lon="6.80849">
        <ele>744.68</ele>
        <time>2013-05-30T10:10:19Z</time>
      </trkpt>
      <trkpt lat="43.86076" lon="6.80851">
        <ele>744.68</ele>
        <time>2013-05-30T10:10:20Z</time>
      </trkpt>
      <trkpt lat="43.86038" lon="6.80889">
        <ele>747.56</ele>
        <time>2013-05-30T10:10:45Z</time>
      </trkpt>
      <trkpt lat="43.86018" lon="6.80924">
        <ele>751.89</ele>
        <time>2013-05-30T10:11:09Z</time>
      </trkpt>
      <trkpt lat="43.86004" lon="6.81002">
        <ele>754.77</ele>
        <time>2013-05-30T10:11:44Z</time>
      </trkpt>
      <trkpt lat="43.85992" lon="6.81048">
        <ele>759.58</ele>
        <time>2013-05-30T10:12:11Z</time>
      </trkpt>
      <trkpt lat="43.85981" lon="6.81071">
        <ele>762.94</ele>
        <time>2013-05-30T10:12:29Z</time>
      </trkpt>
      <trkpt lat="43.85967" lon="6.81136">
        <ele>767.75</ele>
        <time>2013-05-30T10:13:01Z</time>
      </trkpt>
      <trkpt lat="43.85963" lon="6.81145">
        <ele>767.27</ele>
        <time>2013-05-30T10:13:04Z</time>
      </trkpt>
      <trkpt lat="43.85958" lon="6.81195">
        <ele>765.83</ele>
        <time>2013-05-30T10:13:14Z</time>
      </trkpt>
      <trkpt lat="43.85911" lon="6.81261">
        <ele>763.9</ele>
        <time>2013-05-30T10:13:30Z</time>
      </trkpt>
      <trkpt lat="43.85878" lon="6.81294">
        <ele>760.54</ele>
        <time>2013-05-30T10:13:36Z</time>
      </trkpt>
      <trkpt lat="43.85854" lon="6.81292">
        <ele>759.1</ele>
        <time>2013-05-30T10:13:39Z</time>
      </trkpt>
      <trkpt lat="43.85812" lon="6.81262">
        <ele>756.69</ele>
        <time>2013-05-30T10:13:45Z</time>
      </trkpt>
      <trkpt lat="43.85808" lon="6.81264">
        <ele>756.69</ele>
        <time>2013-05-30T10:13:46Z</time>
      </trkpt>
      <trkpt lat="43.85807" lon="6.81277">
        <ele>756.21</ele>
        <time>2013-05-30T10:13:49Z</time>
      </trkpt>
      <trkpt lat="43.85829" lon="6.81323">
        <ele>760.06</ele>
        <time>2013-05-30T10:14:10Z</time>
      </trkpt>
      <trkpt lat="43.85828" lon="6.81352">
        <ele>760.06</ele>
        <time>2013-05-30T10:14:18Z</time>
      </trkpt>
      <trkpt lat="43.85842" lon="6.81444">
        <ele>758.62</ele>
        <time>2013-05-30T10:14:36Z</time>
      </trkpt>
      <trkpt lat="43.85846" lon="6.81554">
        <ele>754.77</ele>
        <time>2013-05-30T10:14:52Z</time>
      </trkpt>
      <trkpt lat="43.8584" lon="6.81625">
        <ele>753.33</ele>
        <time>2013-05-30T10:14:59Z</time>
      </trkpt>
      <trkpt lat="43.85828" lon="6.81664">
        <ele>751.41</ele>
        <time>2013-05-30T10:15:13Z</time>
      </trkpt>
      <trkpt lat="43.85825" lon="6.81658">
        <ele>751.41</ele>
        <time>2013-05-30T10:15:46Z</time>
      </trkpt>
      <trkpt lat="43.8582" lon="6.81688">
        <ele>749.97</ele>
        <time>2013-05-30T10:17:28Z</time>
      </trkpt>
      <trkpt lat="43.85801" lon="6.81727">
        <ele>748.04</ele>
        <time>2013-05-30T10:17:34Z</time>
      </trkpt>
      <trkpt lat="43.85787" lon="6.81757">
        <ele>745.16</ele>
        <time>2013-05-30T10:17:38Z</time>
      </trkpt>
      <trkpt lat="43.85787" lon="6.81775">
        <ele>746.12</ele>
        <time>2013-05-30T10:17:40Z</time>
      </trkpt>
      <trkpt lat="43.85787" lon="6.81786">
        <ele>745.64</ele>
        <time>2013-05-30T10:17:41Z</time>
      </trkpt>
      <trkpt lat="43.85781" lon="6.81821">
        <ele>745.16</ele>
        <time>2013-05-30T10:17:46Z</time>
      </trkpt>
      <trkpt lat="43.85758" lon="6.81842">
        <ele>745.16</ele>
        <time>2013-05-30T10:17:52Z</time>
      </trkpt>
      <trkpt lat="43.85753" lon="6.8187">
        <ele>747.08</ele>
        <time>2013-05-30T10:18:02Z</time>
      </trkpt>
      <trkpt lat="43.85745" lon="6.81944">
        <ele>752.85</ele>
        <time>2013-05-30T10:18:29Z</time>
      </trkpt>
      <trkpt lat="43.8575" lon="6.81968">
        <ele>751.89</ele>
        <time>2013-05-30T10:18:35Z</time>
      </trkpt>
      <trkpt lat="43.85768" lon="6.82058">
        <ele>744.68</ele>
        <time>2013-05-30T10:18:44Z</time>
      </trkpt>
      <trkpt lat="43.8577" lon="6.82071">
        <ele>744.2</ele>
        <time>2013-05-30T10:18:45Z</time>
      </trkpt>
      <trkpt lat="43.85774" lon="6.8213">
        <ele>742.76</ele>
        <time>2013-05-30T10:18:51Z</time>
      </trkpt>
      <trkpt lat="43.85778" lon="6.82155">
        <ele>742.76</ele>
        <time>2013-05-30T10:18:54Z</time>
      </trkpt>
      <trkpt lat="43.85776" lon="6.82312">
        <ele>736.51</ele>
        <time>2013-05-30T10:19:13Z</time>
      </trkpt>
      <trkpt lat="43.85772" lon="6.82351">
        <ele>735.07</ele>
        <time>2013-05-30T10:19:22Z</time>
      </trkpt>
      <trkpt lat="43.85774" lon="6.8236">
        <ele>735.55</ele>
        <time>2013-05-30T10:19:25Z</time>
      </trkpt>
      <trkpt lat="43.85793" lon="6.82462">
        <ele>735.55</ele>
        <time>2013-05-30T10:19:54Z</time>
      </trkpt>
      <trkpt lat="43.85786" lon="6.82483">
        <ele>734.58</ele>
        <time>2013-05-30T10:19:57Z</time>
      </trkpt>
      <trkpt lat="43.85779" lon="6.82509">
        <ele>734.58</ele>
        <time>2013-05-30T10:20:02Z</time>
      </trkpt>
      <trkpt lat="43.85755" lon="6.82548">
        <ele>734.58</ele>
        <time>2013-05-30T10:20:11Z</time>
      </trkpt>
      <trkpt lat="43.8576" lon="6.82562">
        <ele>734.58</ele>
        <time>2013-05-30T10:20:14Z</time>
      </trkpt>
      <trkpt lat="43.85787" lon="6.82614">
        <ele>731.22</ele>
        <time>2013-05-30T10:20:23Z</time>
      </trkpt>
      <trkpt lat="43.8581" lon="6.82652">
        <ele>728.34</ele>
        <time>2013-05-30T10:20:28Z</time>
      </trkpt>
      <trkpt lat="43.85833" lon="6.82686">
        <ele>724.49</ele>
        <time>2013-05-30T10:20:32Z</time>
      </trkpt>
      <trkpt lat="43.85856" lon="6.82759">
        <ele>720.16</ele>
        <time>2013-05-30T10:20:41Z</time>
      </trkpt>
      <trkpt lat="43.85873" lon="6.82789">
        <ele>716.8</ele>
        <time>2013-05-30T10:20:46Z</time>
      </trkpt>
      <trkpt lat="43.85882" lon="6.82817">
        <ele>712.95</ele>
        <time>2013-05-30T10:20:50Z</time>
      </trkpt>
      <trkpt lat="43.85904" lon="6.82853">
        <ele>709.11</ele>
        <time>2013-05-30T10:20:57Z</time>
      </trkpt>
      <trkpt lat="43.85925" lon="6.82888">
        <ele>704.78</ele>
        <time>2013-05-30T10:21:04Z</time>
      </trkpt>
      <trkpt lat="43.85952" lon="6.82921">
        <ele>700.94</ele>
        <time>2013-05-30T10:21:10Z</time>
      </trkpt>
      <trkpt lat="43.85968" lon="6.82944">
        <ele>699.02</ele>
        <time>2013-05-30T10:21:14Z</time>
      </trkpt>
      <trkpt lat="43.8602" lon="6.83015">
        <ele>696.61</ele>
        <time>2013-05-30T10:21:29Z</time>
      </trkpt>
      <trkpt lat="43.86088" lon="6.83109">
        <ele>692.29</ele>
        <time>2013-05-30T10:21:47Z</time>
      </trkpt>
      <trkpt lat="43.8609" lon="6.83114">
        <ele>692.29</ele>
        <time>2013-05-30T10:21:48Z</time>
      </trkpt>
      <trkpt lat="43.86105" lon="6.83145">
        <ele>690.84</ele>
        <time>2013-05-30T10:21:53Z</time>
      </trkpt>
      <trkpt lat="43.86113" lon="6.83225">
        <ele>689.4</ele>
        <time>2013-05-30T10:22:03Z</time>
      </trkpt>
      <trkpt lat="43.86114" lon="6.83272">
        <ele>688.44</ele>
        <time>2013-05-30T10:22:10Z</time>
      </trkpt>
      <trkpt lat="43.86115" lon="6.83319">
        <ele>687</ele>
        <time>2013-05-30T10:22:17Z</time>
      </trkpt>
      <trkpt lat="43.86118" lon="6.83324">
        <ele>687</ele>
        <time>2013-05-30T10:22:18Z</time>
      </trkpt>
      <trkpt lat="43.8613" lon="6.83368">
        <ele>687.48</ele>
        <time>2013-05-30T10:22:26Z</time>
      </trkpt>
      <trkpt lat="43.86124" lon="6.83411">
        <ele>685.08</ele>
        <time>2013-05-30T10:22:35Z</time>
      </trkpt>
      <trkpt lat="43.86124" lon="6.83438">
        <ele>686.04</ele>
        <time>2013-05-30T10:22:53Z</time>
      </trkpt>
      <trkpt lat="43.86125" lon="6.83443">
        <ele>687.48</ele>
        <time>2013-05-30T10:23:11Z</time>
      </trkpt>
      <trkpt lat="43.86134" lon="6.83442">
        <ele>684.6</ele>
        <time>2013-05-30T10:24:39Z</time>
      </trkpt>
      <trkpt lat="43.8614" lon="6.83435">
        <ele>684.12</ele>
        <time>2013-05-30T10:26:09Z</time>
      </trkpt>
      <trkpt lat="43.8614" lon="6.83433">
        <ele>686.52</ele>
        <time>2013-05-30T10:32:44Z</time>
      </trkpt>
      <trkpt lat="43.86146" lon="6.83428">
        <ele>686.52</ele>
        <time>2013-05-30T10:33:01Z</time>
      </trkpt>
      <trkpt lat="43.86143" lon="6.83437">
        <ele>686.52</ele>
        <time>2013-05-30T10:33:42Z</time>
      </trkpt>
      <trkpt lat="43.86142" lon="6.8342">
        <ele>686.52</ele>
        <time>2013-05-30T10:34:41Z</time>
      </trkpt>
      <trkpt lat="43.86134" lon="6.83395">
        <ele>687.48</ele>
        <time>2013-05-30T10:35:55Z</time>
      </trkpt>
      <trkpt lat="43.86133" lon="6.8342">
        <ele>687</ele>
        <time>2013-05-30T10:36:46Z</time>
      </trkpt>
      <trkpt lat="43.86132" lon="6.83442">
        <ele>690.36</ele>
        <time>2013-05-30T10:37:01Z</time>
      </trkpt>
      <trkpt lat="43.86132" lon="6.8346">
        <ele>695.17</ele>
        <time>2013-05-30T10:37:22Z</time>
      </trkpt>
      <trkpt lat="43.86128" lon="6.83479">
        <ele>698.53</ele>
        <time>2013-05-30T10:37:42Z</time>
      </trkpt>
      <trkpt lat="43.86134" lon="6.8349">
        <ele>698.53</ele>
        <time>2013-05-30T10:37:50Z</time>
      </trkpt>
      <trkpt lat="43.86143" lon="6.83532">
        <ele>698.05</ele>
        <time>2013-05-30T10:38:06Z</time>
      </trkpt>
      <trkpt lat="43.86159" lon="6.83601">
        <ele>700.46</ele>
        <time>2013-05-30T10:38:49Z</time>
      </trkpt>
      <trkpt lat="43.86159" lon="6.83609">
        <ele>701.42</ele>
        <time>2013-05-30T10:38:57Z</time>
      </trkpt>
      <trkpt lat="43.86162" lon="6.83631">
        <ele>700.46</ele>
        <time>2013-05-30T10:39:08Z</time>
      </trkpt>
      <trkpt lat="43.86154" lon="6.83652">
        <ele>702.38</ele>
        <time>2013-05-30T10:39:24Z</time>
      </trkpt>
      <trkpt lat="43.86154" lon="6.83671">
        <ele>701.42</ele>
        <time>2013-05-30T10:39:34Z</time>
      </trkpt>
      <trkpt lat="43.86179" lon="6.83729">
        <ele>698.05</ele>
        <time>2013-05-30T10:40:30Z</time>
      </trkpt>
      <trkpt lat="43.86187" lon="6.83749">
        <ele>694.69</ele>
        <time>2013-05-30T10:40:38Z</time>
      </trkpt>
      <trkpt lat="43.86199" lon="6.83748">
        <ele>690.84</ele>
        <time>2013-05-30T10:40:45Z</time>
      </trkpt>
      <trkpt lat="43.86207" lon="6.83747">
        <ele>688.92</ele>
        <time>2013-05-30T10:40:50Z</time>
      </trkpt>
      <trkpt lat="43.86219" lon="6.8376">
        <ele>684.12</ele>
        <time>2013-05-30T10:40:57Z</time>
      </trkpt>
      <trkpt lat="43.86245" lon="6.83783">
        <ele>683.15</ele>
        <time>2013-05-30T10:41:23Z</time>
      </trkpt>
      <trkpt lat="43.86244" lon="6.83782">
        <ele>682.67</ele>
        <time>2013-05-30T10:43:24Z</time>
      </trkpt>
      <trkpt lat="43.86263" lon="6.83813">
        <ele>682.19</ele>
        <time>2013-05-30T10:44:02Z</time>
      </trkpt>
      <trkpt lat="43.86289" lon="6.83864">
        <ele>680.27</ele>
        <time>2013-05-30T10:44:19Z</time>
      </trkpt>
      <trkpt lat="43.86297" lon="6.83903">
        <ele>680.75</ele>
        <time>2013-05-30T10:44:32Z</time>
      </trkpt>
      <trkpt lat="43.86284" lon="6.83942">
        <ele>683.63</ele>
        <time>2013-05-30T10:44:52Z</time>
      </trkpt>
      <trkpt lat="43.86285" lon="6.83956">
        <ele>683.15</ele>
        <time>2013-05-30T10:44:57Z</time>
      </trkpt>
      <trkpt lat="43.86308" lon="6.84021">
        <ele>682.67</ele>
        <time>2013-05-30T10:45:14Z</time>
      </trkpt>
      <trkpt lat="43.86325" lon="6.84052">
        <ele>681.71</ele>
        <time>2013-05-30T10:45:28Z</time>
      </trkpt>
      <trkpt lat="43.86325" lon="6.84073">
        <ele>681.71</ele>
        <time>2013-05-30T10:45:56Z</time>
      </trkpt>
      <trkpt lat="43.86345" lon="6.84105">
        <ele>683.15</ele>
        <time>2013-05-30T10:46:07Z</time>
      </trkpt>
      <trkpt lat="43.86371" lon="6.84157">
        <ele>684.12</ele>
        <time>2013-05-30T10:46:25Z</time>
      </trkpt>
      <trkpt lat="43.86403" lon="6.84209">
        <ele>680.75</ele>
        <time>2013-05-30T10:46:36Z</time>
      </trkpt>
      <trkpt lat="43.86422" lon="6.84247">
        <ele>680.27</ele>
        <time>2013-05-30T10:46:53Z</time>
      </trkpt>
      <trkpt lat="43.86456" lon="6.84292">
        <ele>678.83</ele>
        <time>2013-05-30T10:47:12Z</time>
      </trkpt>
      <trkpt lat="43.86466" lon="6.84304">
        <ele>679.31</ele>
        <time>2013-05-30T10:47:17Z</time>
      </trkpt>
      <trkpt lat="43.86477" lon="6.84339">
        <ele>678.83</ele>
        <time>2013-05-30T10:47:57Z</time>
      </trkpt>
      <trkpt lat="43.86505" lon="6.84367">
        <ele>678.35</ele>
        <time>2013-05-30T10:48:23Z</time>
      </trkpt>
      <trkpt lat="43.86507" lon="6.84392">
        <ele>681.23</ele>
        <time>2013-05-30T10:48:43Z</time>
      </trkpt>
      <trkpt lat="43.86524" lon="6.84439">
        <ele>684.12</ele>
        <time>2013-05-30T10:49:08Z</time>
      </trkpt>
      <trkpt lat="43.86519" lon="6.84464">
        <ele>683.63</ele>
        <time>2013-05-30T10:49:21Z</time>
      </trkpt>
      <trkpt lat="43.86517" lon="6.84469">
        <ele>684.12</ele>
        <time>2013-05-30T10:49:32Z</time>
      </trkpt>
      <trkpt lat="43.86522" lon="6.84496">
        <ele>687.48</ele>
        <time>2013-05-30T10:49:50Z</time>
      </trkpt>
      <trkpt lat="43.86518" lon="6.84514">
        <ele>690.84</ele>
        <time>2013-05-30T10:50:04Z</time>
      </trkpt>
      <trkpt lat="43.86518" lon="6.84516">
        <ele>690.84</ele>
        <time>2013-05-30T10:50:05Z</time>
      </trkpt>
      <trkpt lat="43.86517" lon="6.84537">
        <ele>695.17</ele>
        <time>2013-05-30T10:50:26Z</time>
      </trkpt>
      <trkpt lat="43.86521" lon="6.84553">
        <ele>698.53</ele>
        <time>2013-05-30T10:50:42Z</time>
      </trkpt>
      <trkpt lat="43.86523" lon="6.84585">
        <ele>702.38</ele>
        <time>2013-05-30T10:51:18Z</time>
      </trkpt>
      <trkpt lat="43.86521" lon="6.84634">
        <ele>707.19</ele>
        <time>2013-05-30T10:52:02Z</time>
      </trkpt>
      <trkpt lat="43.86504" lon="6.84653">
        <ele>711.51</ele>
        <time>2013-05-30T10:52:28Z</time>
      </trkpt>
      <trkpt lat="43.86499" lon="6.84664">
        <ele>714.88</ele>
        <time>2013-05-30T10:52:43Z</time>
      </trkpt>
      <trkpt lat="43.86494" lon="6.84689">
        <ele>719.68</ele>
        <time>2013-05-30T10:53:19Z</time>
      </trkpt>
      <trkpt lat="43.86494" lon="6.84691">
        <ele>719.68</ele>
        <time>2013-05-30T10:53:21Z</time>
      </trkpt>
      <trkpt lat="43.8649" lon="6.84725">
        <ele>724.01</ele>
        <time>2013-05-30T10:53:47Z</time>
      </trkpt>
      <trkpt lat="43.86488" lon="6.84738">
        <ele>724.97</ele>
        <time>2013-05-30T10:53:57Z</time>
      </trkpt>
      <trkpt lat="43.86485" lon="6.84754">
        <ele>725.93</ele>
        <time>2013-05-30T10:54:06Z</time>
      </trkpt>
      <trkpt lat="43.8648" lon="6.84818">
        <ele>728.82</ele>
        <time>2013-05-30T10:54:40Z</time>
      </trkpt>
      <trkpt lat="43.86477" lon="6.84853">
        <ele>731.7</ele>
        <time>2013-05-30T10:54:59Z</time>
      </trkpt>
      <trkpt lat="43.86474" lon="6.84857">
        <ele>731.7</ele>
        <time>2013-05-30T10:55:03Z</time>
      </trkpt>
      <trkpt lat="43.86459" lon="6.84906">
        <ele>734.58</ele>
        <time>2013-05-30T10:55:40Z</time>
      </trkpt>
      <trkpt lat="43.86453" lon="6.8493">
        <ele>736.51</ele>
        <time>2013-05-30T10:55:58Z</time>
      </trkpt>
      <trkpt lat="43.86449" lon="6.84939">
        <ele>736.51</ele>
        <time>2013-05-30T10:56:04Z</time>
      </trkpt>
      <trkpt lat="43.86464" lon="6.84974">
        <ele>735.55</ele>
        <time>2013-05-30T10:56:17Z</time>
      </trkpt>
      <trkpt lat="43.8647" lon="6.85014">
        <ele>736.51</ele>
        <time>2013-05-30T10:56:32Z</time>
      </trkpt>
      <trkpt lat="43.86474" lon="6.85071">
        <ele>739.87</ele>
        <time>2013-05-30T10:56:55Z</time>
      </trkpt>
      <trkpt lat="43.86475" lon="6.85079">
        <ele>739.87</ele>
        <time>2013-05-30T10:56:59Z</time>
      </trkpt>
      <trkpt lat="43.86478" lon="6.85084">
        <ele>739.87</ele>
        <time>2013-05-30T10:57:02Z</time>
      </trkpt>
      <trkpt lat="43.86471" lon="6.85131">
        <ele>741.79</ele>
        <time>2013-05-30T10:57:23Z</time>
      </trkpt>
      <trkpt lat="43.86516" lon="6.85146">
        <ele>744.68</ele>
        <time>2013-05-30T10:57:47Z</time>
      </trkpt>
      <trkpt lat="43.8653" lon="6.8515">
        <ele>744.68</ele>
        <time>2013-05-30T10:57:52Z</time>
      </trkpt>
      <trkpt lat="43.8655" lon="6.85188">
        <ele>743.72</ele>
        <time>2013-05-30T10:58:11Z</time>
      </trkpt>
      <trkpt lat="43.86557" lon="6.85209">
        <ele>748.52</ele>
        <time>2013-05-30T10:58:40Z</time>
      </trkpt>
      <trkpt lat="43.86561" lon="6.85232">
        <ele>750.93</ele>
        <time>2013-05-30T10:59:17Z</time>
      </trkpt>
      <trkpt lat="43.86548" lon="6.8526">
        <ele>753.33</ele>
        <time>2013-05-30T10:59:36Z</time>
      </trkpt>
      <trkpt lat="43.86541" lon="6.85283">
        <ele>756.69</ele>
        <time>2013-05-30T10:59:56Z</time>
      </trkpt>
      <trkpt lat="43.86524" lon="6.85326">
        <ele>759.1</ele>
        <time>2013-05-30T11:00:24Z</time>
      </trkpt>
      <trkpt lat="43.86514" lon="6.85347">
        <ele>761.98</ele>
        <time>2013-05-30T11:00:40Z</time>
      </trkpt>
      <trkpt lat="43.86514" lon="6.85386">
        <ele>765.83</ele>
        <time>2013-05-30T11:01:04Z</time>
      </trkpt>
      <trkpt lat="43.86505" lon="6.85414">
        <ele>766.79</ele>
        <time>2013-05-30T11:01:17Z</time>
      </trkpt>
      <trkpt lat="43.86481" lon="6.85521">
        <ele>773.04</ele>
        <time>2013-05-30T11:02:08Z</time>
      </trkpt>
      <trkpt lat="43.86472" lon="6.85566">
        <ele>773.52</ele>
        <time>2013-05-30T11:03:16Z</time>
      </trkpt>
      <trkpt lat="43.86474" lon="6.85566">
        <ele>774.48</ele>
        <time>2013-05-30T11:03:52Z</time>
      </trkpt>
      <trkpt lat="43.86438" lon="6.85569">
        <ele>775.92</ele>
        <time>2013-05-30T11:04:15Z</time>
      </trkpt>
      <trkpt lat="43.86411" lon="6.85568">
        <ele>781.69</ele>
        <time>2013-05-30T11:04:39Z</time>
      </trkpt>
      <trkpt lat="43.86394" lon="6.85564">
        <ele>785.05</ele>
        <time>2013-05-30T11:04:57Z</time>
      </trkpt>
      <trkpt lat="43.86365" lon="6.8556">
        <ele>790.82</ele>
        <time>2013-05-30T11:05:32Z</time>
      </trkpt>
      <trkpt lat="43.8636" lon="6.8556">
        <ele>793.71</ele>
        <time>2013-05-30T11:05:57Z</time>
      </trkpt>
      <trkpt lat="43.86365" lon="6.85561">
        <ele>793.71</ele>
        <time>2013-05-30T11:06:34Z</time>
      </trkpt>
      <trkpt lat="43.86377" lon="6.85565">
        <ele>790.34</ele>
        <time>2013-05-30T11:06:41Z</time>
      </trkpt>
      <trkpt lat="43.86396" lon="6.85565">
        <ele>785.53</ele>
        <time>2013-05-30T11:06:49Z</time>
      </trkpt>
      <trkpt lat="43.86422" lon="6.85569">
        <ele>778.81</ele>
        <time>2013-05-30T11:06:56Z</time>
      </trkpt>
      <trkpt lat="43.86445" lon="6.85569">
        <ele>774.48</ele>
        <time>2013-05-30T11:07:04Z</time>
      </trkpt>
      <trkpt lat="43.86448" lon="6.85569">
        <ele>774.48</ele>
        <time>2013-05-30T11:07:05Z</time>
      </trkpt>
      <trkpt lat="43.86472" lon="6.85568">
        <ele>773.52</ele>
        <time>2013-05-30T11:10:48Z</time>
      </trkpt>
      <trkpt lat="43.86436" lon="6.8557">
        <ele>775.92</ele>
        <time>2013-05-30T11:11:14Z</time>
      </trkpt>
      <trkpt lat="43.86416" lon="6.85568">
        <ele>780.73</ele>
        <time>2013-05-30T11:11:35Z</time>
      </trkpt>
      <trkpt lat="43.86397" lon="6.85565">
        <ele>784.09</ele>
        <time>2013-05-30T11:11:57Z</time>
      </trkpt>
      <trkpt lat="43.86374" lon="6.8556">
        <ele>790.34</ele>
        <time>2013-05-30T11:12:31Z</time>
      </trkpt>
      <trkpt lat="43.86355" lon="6.85556">
        <ele>796.11</ele>
        <time>2013-05-30T11:13:01Z</time>
      </trkpt>
      <trkpt lat="43.86324" lon="6.85555">
        <ele>802.84</ele>
        <time>2013-05-30T11:14:02Z</time>
      </trkpt>
      <trkpt lat="43.86299" lon="6.85557">
        <ele>806.68</ele>
        <time>2013-05-30T11:14:29Z</time>
      </trkpt>
      <trkpt lat="43.8626" lon="6.85567">
        <ele>804.76</ele>
        <time>2013-05-30T11:14:49Z</time>
      </trkpt>
      <trkpt lat="43.86225" lon="6.8558">
        <ele>805.24</ele>
        <time>2013-05-30T11:15:02Z</time>
      </trkpt>
      <trkpt lat="43.86216" lon="6.85631">
        <ele>805.72</ele>
        <time>2013-05-30T11:15:19Z</time>
      </trkpt>
      <trkpt lat="43.86244" lon="6.85698">
        <ele>807.16</ele>
        <time>2013-05-30T11:15:44Z</time>
      </trkpt>
      <trkpt lat="43.86244" lon="6.85701">
        <ele>807.16</ele>
        <time>2013-05-30T11:15:45Z</time>
      </trkpt>
      <trkpt lat="43.86246" lon="6.85721">
        <ele>807.64</ele>
        <time>2013-05-30T11:16:18Z</time>
      </trkpt>
      <trkpt lat="43.86251" lon="6.8572">
        <ele>811.01</ele>
        <time>2013-05-30T11:30:51Z</time>
      </trkpt>
      <trkpt lat="43.86252" lon="6.8572">
        <ele>811.01</ele>
        <time>2013-05-30T11:32:07Z</time>
      </trkpt>
      <trkpt lat="43.8624" lon="6.85712">
        <ele>812.45</ele>
        <time>2013-05-30T11:51:12Z</time>
      </trkpt>
      <trkpt lat="43.86241" lon="6.85717">
        <ele>811.01</ele>
        <time>2013-05-30T11:58:12Z</time>
      </trkpt>
      <trkpt lat="43.86245" lon="6.85748">
        <ele>812.93</ele>
        <time>2013-05-30T12:03:24Z</time>
      </trkpt>
      <trkpt lat="43.86245" lon="6.8575">
        <ele>812.93</ele>
        <time>2013-05-30T12:03:25Z</time>
      </trkpt>
      <trkpt lat="43.86252" lon="6.85814">
        <ele>811.01</ele>
        <time>2013-05-30T12:03:44Z</time>
      </trkpt>
      <trkpt lat="43.86251" lon="6.85825">
        <ele>809.09</ele>
        <time>2013-05-30T12:04:00Z</time>
      </trkpt>
      <trkpt lat="43.86253" lon="6.85831">
        <ele>809.09</ele>
        <time>2013-05-30T12:04:02Z</time>
      </trkpt>
      <trkpt lat="43.86253" lon="6.85852">
        <ele>805.24</ele>
        <time>2013-05-30T12:04:05Z</time>
      </trkpt>
      <trkpt lat="43.86248" lon="6.8588">
        <ele>801.4</ele>
        <time>2013-05-30T12:04:10Z</time>
      </trkpt>
      <trkpt lat="43.86246" lon="6.85906">
        <ele>798.03</ele>
        <time>2013-05-30T12:04:14Z</time>
      </trkpt>
      <trkpt lat="43.86239" lon="6.85957">
        <ele>794.67</ele>
        <time>2013-05-30T12:04:22Z</time>
      </trkpt>
      <trkpt lat="43.86232" lon="6.85982">
        <ele>794.67</ele>
        <time>2013-05-30T12:04:27Z</time>
      </trkpt>
      <trkpt lat="43.86218" lon="6.86012">
        <ele>796.59</ele>
        <time>2013-05-30T12:04:41Z</time>
      </trkpt>
      <trkpt lat="43.86187" lon="6.86067">
        <ele>798.99</ele>
        <time>2013-05-30T12:05:10Z</time>
      </trkpt>
      <trkpt lat="43.86189" lon="6.86125">
        <ele>801.88</ele>
        <time>2013-05-30T12:05:35Z</time>
      </trkpt>
      <trkpt lat="43.86199" lon="6.86171">
        <ele>804.28</ele>
        <time>2013-05-30T12:06:07Z</time>
      </trkpt>
      <trkpt lat="43.86231" lon="6.86232">
        <ele>805.72</ele>
        <time>2013-05-30T12:07:04Z</time>
      </trkpt>
      <trkpt lat="43.86239" lon="6.86238">
        <ele>803.32</ele>
        <time>2013-05-30T12:09:05Z</time>
      </trkpt>
      <trkpt lat="43.86239" lon="6.86239">
        <ele>800.92</ele>
        <time>2013-05-30T12:15:40Z</time>
      </trkpt>
      <trkpt lat="43.86229" lon="6.8628">
        <ele>798.51</ele>
        <time>2013-05-30T12:15:50Z</time>
      </trkpt>
      <trkpt lat="43.86225" lon="6.86284">
        <ele>797.55</ele>
        <time>2013-05-30T12:15:51Z</time>
      </trkpt>
      <trkpt lat="43.86213" lon="6.86295">
        <ele>797.07</ele>
        <time>2013-05-30T12:15:54Z</time>
      </trkpt>
      <trkpt lat="43.86191" lon="6.86326">
        <ele>792.74</ele>
        <time>2013-05-30T12:15:59Z</time>
      </trkpt>
      <trkpt lat="43.86176" lon="6.86364">
        <ele>786.5</ele>
        <time>2013-05-30T12:16:05Z</time>
      </trkpt>
      <trkpt lat="43.8619" lon="6.86405">
        <ele>784.09</ele>
        <time>2013-05-30T12:16:16Z</time>
      </trkpt>
      <trkpt lat="43.86179" lon="6.86436">
        <ele>786.02</ele>
        <time>2013-05-30T12:16:35Z</time>
      </trkpt>
      <trkpt lat="43.86165" lon="6.86477">
        <ele>790.82</ele>
        <time>2013-05-30T12:17:04Z</time>
      </trkpt>
      <trkpt lat="43.86157" lon="6.86493">
        <ele>794.19</ele>
        <time>2013-05-30T12:17:19Z</time>
      </trkpt>
      <trkpt lat="43.86149" lon="6.86523">
        <ele>800.44</ele>
        <time>2013-05-30T12:17:46Z</time>
      </trkpt>
      <trkpt lat="43.86144" lon="6.86549">
        <ele>804.28</ele>
        <time>2013-05-30T12:18:09Z</time>
      </trkpt>
      <trkpt lat="43.8614" lon="6.86547">
        <ele>804.76</ele>
        <time>2013-05-30T12:18:13Z</time>
      </trkpt>
      <trkpt lat="43.86136" lon="6.86539">
        <ele>805.72</ele>
        <time>2013-05-30T12:18:19Z</time>
      </trkpt>
      <trkpt lat="43.86105" lon="6.86484">
        <ele>809.57</ele>
        <time>2013-05-30T12:18:57Z</time>
      </trkpt>
      <trkpt lat="43.86108" lon="6.8644">
        <ele>811.01</ele>
        <time>2013-05-30T12:19:19Z</time>
      </trkpt>
      <trkpt lat="43.86081" lon="6.86387">
        <ele>812.93</ele>
        <time>2013-05-30T12:19:42Z</time>
      </trkpt>
      <trkpt lat="43.86095" lon="6.86319">
        <ele>816.3</ele>
        <time>2013-05-30T12:20:02Z</time>
      </trkpt>
      <trkpt lat="43.86118" lon="6.86277">
        <ele>820.14</ele>
        <time>2013-05-30T12:20:24Z</time>
      </trkpt>
      <trkpt lat="43.86145" lon="6.86259">
        <ele>823.51</ele>
        <time>2013-05-30T12:20:40Z</time>
      </trkpt>
      <trkpt lat="43.86157" lon="6.86205">
        <ele>828.31</ele>
        <time>2013-05-30T12:21:11Z</time>
      </trkpt>
      <trkpt lat="43.86118" lon="6.86148">
        <ele>833.6</ele>
        <time>2013-05-30T12:21:47Z</time>
      </trkpt>
      <trkpt lat="43.86106" lon="6.86118">
        <ele>836.96</ele>
        <time>2013-05-30T12:22:06Z</time>
      </trkpt>
      <trkpt lat="43.86096" lon="6.8607">
        <ele>840.33</ele>
        <time>2013-05-30T12:22:31Z</time>
      </trkpt>
      <trkpt lat="43.86091" lon="6.85991">
        <ele>846.1</ele>
        <time>2013-05-30T12:23:10Z</time>
      </trkpt>
      <trkpt lat="43.86089" lon="6.85912">
        <ele>850.9</ele>
        <time>2013-05-30T12:23:46Z</time>
      </trkpt>
      <trkpt lat="43.86087" lon="6.85868">
        <ele>854.27</ele>
        <time>2013-05-30T12:24:05Z</time>
      </trkpt>
      <trkpt lat="43.86085" lon="6.85837">
        <ele>856.19</ele>
        <time>2013-05-30T12:24:22Z</time>
      </trkpt>
      <trkpt lat="43.86074" lon="6.85807">
        <ele>858.59</ele>
        <time>2013-05-30T12:24:38Z</time>
      </trkpt>
      <trkpt lat="43.86059" lon="6.85771">
        <ele>861.96</ele>
        <time>2013-05-30T12:25:01Z</time>
      </trkpt>
      <trkpt lat="43.86051" lon="6.85737">
        <ele>864.36</ele>
        <time>2013-05-30T12:25:19Z</time>
      </trkpt>
      <trkpt lat="43.86047" lon="6.85777">
        <ele>866.29</ele>
        <time>2013-05-30T12:25:42Z</time>
      </trkpt>
      <trkpt lat="43.8604" lon="6.85811">
        <ele>866.77</ele>
        <time>2013-05-30T12:25:56Z</time>
      </trkpt>
      <trkpt lat="43.86008" lon="6.85905">
        <ele>870.61</ele>
        <time>2013-05-30T12:26:39Z</time>
      </trkpt>
      <trkpt lat="43.86014" lon="6.85973">
        <ele>873.98</ele>
        <time>2013-05-30T12:27:05Z</time>
      </trkpt>
      <trkpt lat="43.86016" lon="6.86033">
        <ele>879.74</ele>
        <time>2013-05-30T12:27:32Z</time>
      </trkpt>
      <trkpt lat="43.86001" lon="6.86126">
        <ele>885.03</ele>
        <time>2013-05-30T12:28:18Z</time>
      </trkpt>
      <trkpt lat="43.86" lon="6.86136">
        <ele>885.03</ele>
        <time>2013-05-30T12:28:22Z</time>
      </trkpt>
      <trkpt lat="43.85982" lon="6.86178">
        <ele>888.88</ele>
        <time>2013-05-30T12:28:49Z</time>
      </trkpt>
      <trkpt lat="43.85946" lon="6.86221">
        <ele>893.2</ele>
        <time>2013-05-30T12:29:21Z</time>
      </trkpt>
      <trkpt lat="43.85947" lon="6.86227">
        <ele>893.2</ele>
        <time>2013-05-30T12:29:39Z</time>
      </trkpt>
      <trkpt lat="43.85944" lon="6.86228">
        <ele>894.16</ele>
        <time>2013-05-30T12:29:50Z</time>
      </trkpt>
      <trkpt lat="43.85934" lon="6.8629">
        <ele>898.01</ele>
        <time>2013-05-30T12:30:10Z</time>
      </trkpt>
      <trkpt lat="43.85914" lon="6.86356">
        <ele>902.82</ele>
        <time>2013-05-30T12:30:42Z</time>
      </trkpt>
      <trkpt lat="43.85914" lon="6.86392">
        <ele>906.18</ele>
        <time>2013-05-30T12:30:58Z</time>
      </trkpt>
      <trkpt lat="43.85906" lon="6.86443">
        <ele>907.62</ele>
        <time>2013-05-30T12:31:17Z</time>
      </trkpt>
      <trkpt lat="43.85904" lon="6.8646">
        <ele>907.62</ele>
        <time>2013-05-30T12:31:24Z</time>
      </trkpt>
      <trkpt lat="43.85925" lon="6.86508">
        <ele>910.99</ele>
        <time>2013-05-30T12:31:47Z</time>
      </trkpt>
      <trkpt lat="43.85929" lon="6.86541">
        <ele>914.35</ele>
        <time>2013-05-30T12:32:02Z</time>
      </trkpt>
      <trkpt lat="43.85929" lon="6.86552">
        <ele>914.35</ele>
        <time>2013-05-30T12:32:07Z</time>
      </trkpt>
      <trkpt lat="43.8591" lon="6.86593">
        <ele>918.2</ele>
        <time>2013-05-30T12:32:30Z</time>
      </trkpt>
      <trkpt lat="43.85896" lon="6.86642">
        <ele>923</ele>
        <time>2013-05-30T12:32:58Z</time>
      </trkpt>
      <trkpt lat="43.85906" lon="6.86668">
        <ele>924.45</ele>
        <time>2013-05-30T12:33:11Z</time>
      </trkpt>
      <trkpt lat="43.85921" lon="6.86742">
        <ele>929.25</ele>
        <time>2013-05-30T12:33:45Z</time>
      </trkpt>
      <trkpt lat="43.85892" lon="6.86809">
        <ele>934.54</ele>
        <time>2013-05-30T12:34:19Z</time>
      </trkpt>
      <trkpt lat="43.85909" lon="6.86856">
        <ele>937.42</ele>
        <time>2013-05-30T12:34:42Z</time>
      </trkpt>
      <trkpt lat="43.8591" lon="6.86917">
        <ele>940.31</ele>
        <time>2013-05-30T12:35:16Z</time>
      </trkpt>
      <trkpt lat="43.85905" lon="6.86959">
        <ele>942.71</ele>
        <time>2013-05-30T12:35:37Z</time>
      </trkpt>
      <trkpt lat="43.85917" lon="6.86994">
        <ele>947.52</ele>
        <time>2013-05-30T12:35:54Z</time>
      </trkpt>
      <trkpt lat="43.85921" lon="6.87001">
        <ele>947.52</ele>
        <time>2013-05-30T12:35:58Z</time>
      </trkpt>
      <trkpt lat="43.85963" lon="6.8712">
        <ele>955.69</ele>
        <time>2013-05-30T12:37:00Z</time>
      </trkpt>
      <trkpt lat="43.85937" lon="6.87157">
        <ele>957.61</ele>
        <time>2013-05-30T12:37:36Z</time>
      </trkpt>
      <trkpt lat="43.8593" lon="6.8714">
        <ele>957.61</ele>
        <time>2013-05-30T12:38:15Z</time>
      </trkpt>
      <trkpt lat="43.85935" lon="6.8717">
        <ele>958.57</ele>
        <time>2013-05-30T12:39:08Z</time>
      </trkpt>
      <trkpt lat="43.85935" lon="6.87181">
        <ele>960.01</ele>
        <time>2013-05-30T12:39:13Z</time>
      </trkpt>
      <trkpt lat="43.85941" lon="6.87249">
        <ele>964.82</ele>
        <time>2013-05-30T12:39:43Z</time>
      </trkpt>
      <trkpt lat="43.85942" lon="6.87253">
        <ele>964.82</ele>
        <time>2013-05-30T12:39:45Z</time>
      </trkpt>
      <trkpt lat="43.85948" lon="6.87333">
        <ele>969.63</ele>
        <time>2013-05-30T12:40:23Z</time>
      </trkpt>
      <trkpt lat="43.85949" lon="6.87341">
        <ele>969.63</ele>
        <time>2013-05-30T12:40:26Z</time>
      </trkpt>
      <trkpt lat="43.85951" lon="6.87395">
        <ele>972.03</ele>
        <time>2013-05-30T12:40:46Z</time>
      </trkpt>
      <trkpt lat="43.85953" lon="6.87446">
        <ele>975.88</ele>
        <time>2013-05-30T12:41:08Z</time>
      </trkpt>
      <trkpt lat="43.8597" lon="6.87503">
        <ele>979.72</ele>
        <time>2013-05-30T12:41:39Z</time>
      </trkpt>
      <trkpt lat="43.85986" lon="6.87647">
        <ele>985.49</ele>
        <time>2013-05-30T12:42:39Z</time>
      </trkpt>
      <trkpt lat="43.86005" lon="6.87734">
        <ele>989.81</ele>
        <time>2013-05-30T12:43:18Z</time>
      </trkpt>
      <trkpt lat="43.86019" lon="6.878">
        <ele>996.54</ele>
        <time>2013-05-30T12:43:53Z</time>
      </trkpt>
      <trkpt lat="43.86019" lon="6.87802">
        <ele>996.06</ele>
        <time>2013-05-30T12:43:54Z</time>
      </trkpt>
      <trkpt lat="43.8602" lon="6.87824">
        <ele>999.43</ele>
        <time>2013-05-30T12:44:09Z</time>
      </trkpt>
      <trkpt lat="43.8602" lon="6.87857">
        <ele>1002.79</ele>
        <time>2013-05-30T12:44:22Z</time>
      </trkpt>
      <trkpt lat="43.86035" lon="6.8798">
        <ele>1007.6</ele>
        <time>2013-05-30T12:45:15Z</time>
      </trkpt>
      <trkpt lat="43.86045" lon="6.8801">
        <ele>1007.12</ele>
        <time>2013-05-30T12:45:29Z</time>
      </trkpt>
      <trkpt lat="43.86054" lon="6.88012">
        <ele>1006.16</ele>
        <time>2013-05-30T12:45:44Z</time>
      </trkpt>
      <trkpt lat="43.86072" lon="6.88071">
        <ele>1003.75</ele>
        <time>2013-05-30T12:46:19Z</time>
      </trkpt>
      <trkpt lat="43.86087" lon="6.88132">
        <ele>1001.83</ele>
        <time>2013-05-30T12:46:30Z</time>
      </trkpt>
      <trkpt lat="43.86092" lon="6.88138">
        <ele>1001.83</ele>
        <time>2013-05-30T12:46:31Z</time>
      </trkpt>
      <trkpt lat="43.86107" lon="6.88193">
        <ele>998.95</ele>
        <time>2013-05-30T12:46:38Z</time>
      </trkpt>
      <trkpt lat="43.86117" lon="6.88225">
        <ele>995.58</ele>
        <time>2013-05-30T12:46:41Z</time>
      </trkpt>
      <trkpt lat="43.86118" lon="6.88235">
        <ele>996.06</ele>
        <time>2013-05-30T12:46:42Z</time>
      </trkpt>
      <trkpt lat="43.86133" lon="6.88291">
        <ele>991.74</ele>
        <time>2013-05-30T12:46:48Z</time>
      </trkpt>
      <trkpt lat="43.86137" lon="6.883">
        <ele>991.74</ele>
        <time>2013-05-30T12:46:49Z</time>
      </trkpt>
      <trkpt lat="43.86144" lon="6.8835">
        <ele>988.37</ele>
        <time>2013-05-30T12:46:54Z</time>
      </trkpt>
      <trkpt lat="43.86155" lon="6.88382">
        <ele>986.45</ele>
        <time>2013-05-30T12:46:57Z</time>
      </trkpt>
      <trkpt lat="43.86173" lon="6.88437">
        <ele>982.6</ele>
        <time>2013-05-30T12:47:02Z</time>
      </trkpt>
      <trkpt lat="43.86178" lon="6.88448">
        <ele>982.6</ele>
        <time>2013-05-30T12:47:03Z</time>
      </trkpt>
      <trkpt lat="43.86195" lon="6.88503">
        <ele>979.24</ele>
        <time>2013-05-30T12:47:08Z</time>
      </trkpt>
      <trkpt lat="43.86221" lon="6.88578">
        <ele>977.8</ele>
        <time>2013-05-30T12:47:16Z</time>
      </trkpt>
      <trkpt lat="43.86222" lon="6.88586">
        <ele>977.8</ele>
        <time>2013-05-30T12:47:17Z</time>
      </trkpt>
      <trkpt lat="43.86249" lon="6.887">
        <ele>979.72</ele>
        <time>2013-05-30T12:47:37Z</time>
      </trkpt>
      <trkpt lat="43.86265" lon="6.88729">
        <ele>984.53</ele>
        <time>2013-05-30T12:47:54Z</time>
      </trkpt>
      <trkpt lat="43.86227" lon="6.88839">
        <ele>985.97</ele>
        <time>2013-05-30T12:48:01Z</time>
      </trkpt>
      <trkpt lat="43.86178" lon="6.88983">
        <ele>988.85</ele>
        <time>2013-05-30T12:48:16Z</time>
      </trkpt>
      <trkpt lat="43.86187" lon="6.88993">
        <ele>990.3</ele>
        <time>2013-05-30T12:48:25Z</time>
      </trkpt>
      <trkpt lat="43.86198" lon="6.89052">
        <ele>994.62</ele>
        <time>2013-05-30T12:48:58Z</time>
      </trkpt>
      <trkpt lat="43.86181" lon="6.89062">
        <ele>996.54</ele>
        <time>2013-05-30T12:49:20Z</time>
      </trkpt>
      <trkpt lat="43.86169" lon="6.8908">
        <ele>1002.31</ele>
        <time>2013-05-30T12:50:00Z</time>
      </trkpt>
      <trkpt lat="43.86156" lon="6.8909">
        <ele>1006.16</ele>
        <time>2013-05-30T12:50:29Z</time>
      </trkpt>
      <trkpt lat="43.86158" lon="6.89065">
        <ele>1010.48</ele>
        <time>2013-05-30T12:51:04Z</time>
      </trkpt>
      <trkpt lat="43.86153" lon="6.89073">
        <ele>1015.29</ele>
        <time>2013-05-30T12:51:47Z</time>
      </trkpt>
      <trkpt lat="43.86146" lon="6.89077">
        <ele>1019.13</ele>
        <time>2013-05-30T12:52:20Z</time>
      </trkpt>
      <trkpt lat="43.86141" lon="6.89089">
        <ele>1022.5</ele>
        <time>2013-05-30T12:52:46Z</time>
      </trkpt>
      <trkpt lat="43.86136" lon="6.89101">
        <ele>1025.86</ele>
        <time>2013-05-30T12:53:02Z</time>
      </trkpt>
      <trkpt lat="43.86138" lon="6.89131">
        <ele>1030.67</ele>
        <time>2013-05-30T12:53:45Z</time>
      </trkpt>
      <trkpt lat="43.86138" lon="6.89132">
        <ele>1030.67</ele>
        <time>2013-05-30T12:53:46Z</time>
      </trkpt>
      <trkpt lat="43.86132" lon="6.89152">
        <ele>1035.96</ele>
        <time>2013-05-30T12:54:18Z</time>
      </trkpt>
      <trkpt lat="43.86128" lon="6.89154">
        <ele>1035.96</ele>
        <time>2013-05-30T12:54:33Z</time>
      </trkpt>
      <trkpt lat="43.86125" lon="6.89143">
        <ele>1039.32</ele>
        <time>2013-05-30T12:54:50Z</time>
      </trkpt>
      <trkpt lat="43.86104" lon="6.89136">
        <ele>1045.57</ele>
        <time>2013-05-30T12:55:20Z</time>
      </trkpt>
      <trkpt lat="43.861" lon="6.89134">
        <ele>1045.57</ele>
        <time>2013-05-30T12:55:35Z</time>
      </trkpt>
      <trkpt lat="43.86071" lon="6.8915">
        <ele>1048.94</ele>
        <time>2013-05-30T12:56:01Z</time>
      </trkpt>
      <trkpt lat="43.8607" lon="6.89158">
        <ele>1052.78</ele>
        <time>2013-05-30T12:56:32Z</time>
      </trkpt>
      <trkpt lat="43.86067" lon="6.89159">
        <ele>1057.59</ele>
        <time>2013-05-30T12:57:08Z</time>
      </trkpt>
      <trkpt lat="43.86058" lon="6.89162">
        <ele>1062.39</ele>
        <time>2013-05-30T12:57:45Z</time>
      </trkpt>
      <trkpt lat="43.86056" lon="6.89198">
        <ele>1065.76</ele>
        <time>2013-05-30T12:58:16Z</time>
      </trkpt>
      <trkpt lat="43.86055" lon="6.89221">
        <ele>1070.08</ele>
        <time>2013-05-30T12:58:40Z</time>
      </trkpt>
      <trkpt lat="43.86054" lon="6.89229">
        <ele>1073.45</ele>
        <time>2013-05-30T12:58:58Z</time>
      </trkpt>
      <trkpt lat="43.86059" lon="6.89254">
        <ele>1077.78</ele>
        <time>2013-05-30T12:59:35Z</time>
      </trkpt>
      <trkpt lat="43.86057" lon="6.89261">
        <ele>1081.14</ele>
        <time>2013-05-30T13:00:08Z</time>
      </trkpt>
      <trkpt lat="43.86052" lon="6.89291">
        <ele>1082.58</ele>
        <time>2013-05-30T13:00:53Z</time>
      </trkpt>
      <trkpt lat="43.86045" lon="6.89342">
        <ele>1084.5</ele>
        <time>2013-05-30T13:01:22Z</time>
      </trkpt>
      <trkpt lat="43.86037" lon="6.89373">
        <ele>1089.79</ele>
        <time>2013-05-30T13:01:48Z</time>
      </trkpt>
      <trkpt lat="43.86033" lon="6.89398">
        <ele>1094.6</ele>
        <time>2013-05-30T13:02:20Z</time>
      </trkpt>
      <trkpt lat="43.86031" lon="6.89407">
        <ele>1097.96</ele>
        <time>2013-05-30T13:02:35Z</time>
      </trkpt>
      <trkpt lat="43.86024" lon="6.89393">
        <ele>1103.25</ele>
        <time>2013-05-30T13:03:07Z</time>
      </trkpt>
      <trkpt lat="43.86019" lon="6.89391">
        <ele>1106.61</ele>
        <time>2013-05-30T13:03:23Z</time>
      </trkpt>
      <trkpt lat="43.86008" lon="6.89411">
        <ele>1110.94</ele>
        <time>2013-05-30T13:03:55Z</time>
      </trkpt>
      <trkpt lat="43.86005" lon="6.89419">
        <ele>1114.31</ele>
        <time>2013-05-30T13:04:11Z</time>
      </trkpt>
      <trkpt lat="43.85996" lon="6.89443">
        <ele>1118.63</ele>
        <time>2013-05-30T13:04:44Z</time>
      </trkpt>
      <trkpt lat="43.85984" lon="6.89461">
        <ele>1123.92</ele>
        <time>2013-05-30T13:05:11Z</time>
      </trkpt>
      <trkpt lat="43.85951" lon="6.89475">
        <ele>1129.69</ele>
        <time>2013-05-30T13:05:58Z</time>
      </trkpt>
      <trkpt lat="43.85939" lon="6.89477">
        <ele>1133.05</ele>
        <time>2013-05-30T13:06:14Z</time>
      </trkpt>
      <trkpt lat="43.85919" lon="6.89498">
        <ele>1135.94</ele>
        <time>2013-05-30T13:07:00Z</time>
      </trkpt>
      <trkpt lat="43.8592" lon="6.89505">
        <ele>1138.34</ele>
        <time>2013-05-30T13:09:17Z</time>
      </trkpt>
      <trkpt lat="43.85912" lon="6.89509">
        <ele>1137.38</ele>
        <time>2013-05-30T13:09:24Z</time>
      </trkpt>
      <trkpt lat="43.85881" lon="6.89462">
        <ele>1133.05</ele>
        <time>2013-05-30T13:09:40Z</time>
      </trkpt>
      <trkpt lat="43.85861" lon="6.89446">
        <ele>1128.24</ele>
        <time>2013-05-30T13:09:46Z</time>
      </trkpt>
      <trkpt lat="43.85848" lon="6.89425">
        <ele>1124.88</ele>
        <time>2013-05-30T13:09:50Z</time>
      </trkpt>
      <trkpt lat="43.85831" lon="6.89406">
        <ele>1120.55</ele>
        <time>2013-05-30T13:09:56Z</time>
      </trkpt>
      <trkpt lat="43.8583" lon="6.89404">
        <ele>1120.55</ele>
        <time>2013-05-30T13:09:57Z</time>
      </trkpt>
      <trkpt lat="43.85828" lon="6.89404">
        <ele>1120.07</ele>
        <time>2013-05-30T13:10:09Z</time>
      </trkpt>
      <trkpt lat="43.85817" lon="6.89413">
        <ele>1116.23</ele>
        <time>2013-05-30T13:10:21Z</time>
      </trkpt>
      <trkpt lat="43.85806" lon="6.89415">
        <ele>1111.42</ele>
        <time>2013-05-30T13:10:42Z</time>
      </trkpt>
      <trkpt lat="43.85794" lon="6.89387">
        <ele>1107.58</ele>
        <time>2013-05-30T13:10:52Z</time>
      </trkpt>
      <trkpt lat="43.85783" lon="6.89369">
        <ele>1104.21</ele>
        <time>2013-05-30T13:11:01Z</time>
      </trkpt>
      <trkpt lat="43.85772" lon="6.89353">
        <ele>1098.92</ele>
        <time>2013-05-30T13:11:08Z</time>
      </trkpt>
      <trkpt lat="43.85766" lon="6.89334">
        <ele>1095.08</ele>
        <time>2013-05-30T13:11:13Z</time>
      </trkpt>
      <trkpt lat="43.85759" lon="6.89322">
        <ele>1091.71</ele>
        <time>2013-05-30T13:11:17Z</time>
      </trkpt>
      <trkpt lat="43.85757" lon="6.89321">
        <ele>1091.71</ele>
        <time>2013-05-30T13:11:18Z</time>
      </trkpt>
      <trkpt lat="43.85748" lon="6.89313">
        <ele>1088.35</ele>
        <time>2013-05-30T13:11:22Z</time>
      </trkpt>
      <trkpt lat="43.85747" lon="6.8931">
        <ele>1088.83</ele>
        <time>2013-05-30T13:11:23Z</time>
      </trkpt>
      <trkpt lat="43.85737" lon="6.89296">
        <ele>1084.99</ele>
        <time>2013-05-30T13:11:43Z</time>
      </trkpt>
      <trkpt lat="43.8573" lon="6.89298">
        <ele>1080.66</ele>
        <time>2013-05-30T13:11:59Z</time>
      </trkpt>
      <trkpt lat="43.85728" lon="6.89301">
        <ele>1079.22</ele>
        <time>2013-05-30T13:12:02Z</time>
      </trkpt>
      <trkpt lat="43.85721" lon="6.89302">
        <ele>1074.89</ele>
        <time>2013-05-30T13:12:08Z</time>
      </trkpt>
      <trkpt lat="43.85715" lon="6.89309">
        <ele>1071.53</ele>
        <time>2013-05-30T13:12:14Z</time>
      </trkpt>
      <trkpt lat="43.8571" lon="6.89315">
        <ele>1069.6</ele>
        <time>2013-05-30T13:12:18Z</time>
      </trkpt>
      <trkpt lat="43.85709" lon="6.89347">
        <ele>1063.36</ele>
        <time>2013-05-30T13:12:24Z</time>
      </trkpt>
      <trkpt lat="43.85702" lon="6.89368">
        <ele>1056.63</ele>
        <time>2013-05-30T13:12:29Z</time>
      </trkpt>
      <trkpt lat="43.85695" lon="6.8938">
        <ele>1053.26</ele>
        <time>2013-05-30T13:12:32Z</time>
      </trkpt>
      <trkpt lat="43.85692" lon="6.89401">
        <ele>1049.9</ele>
        <time>2013-05-30T13:12:35Z</time>
      </trkpt>
      <trkpt lat="43.85696" lon="6.89413">
        <ele>1046.05</ele>
        <time>2013-05-30T13:12:38Z</time>
      </trkpt>
      <trkpt lat="43.85695" lon="6.8942">
        <ele>1042.21</ele>
        <time>2013-05-30T13:12:40Z</time>
      </trkpt>
      <trkpt lat="43.85691" lon="6.89449">
        <ele>1038.84</ele>
        <time>2013-05-30T13:12:44Z</time>
      </trkpt>
      <trkpt lat="43.85695" lon="6.89463">
        <ele>1035.48</ele>
        <time>2013-05-30T13:12:48Z</time>
      </trkpt>
      <trkpt lat="43.85694" lon="6.89501">
        <ele>1029.23</ele>
        <time>2013-05-30T13:12:56Z</time>
      </trkpt>
      <trkpt lat="43.8569" lon="6.89523">
        <ele>1024.42</ele>
        <time>2013-05-30T13:13:02Z</time>
      </trkpt>
      <trkpt lat="43.8569" lon="6.89532">
        <ele>1024.42</ele>
        <time>2013-05-30T13:13:03Z</time>
      </trkpt>
      <trkpt lat="43.8569" lon="6.89544">
        <ele>1020.1</ele>
        <time>2013-05-30T13:13:13Z</time>
      </trkpt>
      <trkpt lat="43.85683" lon="6.89552">
        <ele>1017.69</ele>
        <time>2013-05-30T13:13:29Z</time>
      </trkpt>
      <trkpt lat="43.85683" lon="6.89557">
        <ele>1016.73</ele>
        <time>2013-05-30T13:14:30Z</time>
      </trkpt>
      <trkpt lat="43.85681" lon="6.89592">
        <ele>1010.48</ele>
        <time>2013-05-30T13:14:40Z</time>
      </trkpt>
      <trkpt lat="43.85667" lon="6.89588">
        <ele>1005.68</ele>
        <time>2013-05-30T13:14:51Z</time>
      </trkpt>
      <trkpt lat="43.85658" lon="6.89592">
        <ele>1001.35</ele>
        <time>2013-05-30T13:15:00Z</time>
      </trkpt>
      <trkpt lat="43.8565" lon="6.89578">
        <ele>996.54</ele>
        <time>2013-05-30T13:15:24Z</time>
      </trkpt>
      <trkpt lat="43.85644" lon="6.89582">
        <ele>994.14</ele>
        <time>2013-05-30T13:15:38Z</time>
      </trkpt>
      <trkpt lat="43.8564" lon="6.89564">
        <ele>989.81</ele>
        <time>2013-05-30T13:15:49Z</time>
      </trkpt>
      <trkpt lat="43.85634" lon="6.89562">
        <ele>987.89</ele>
        <time>2013-05-30T13:16:15Z</time>
      </trkpt>
      <trkpt lat="43.85632" lon="6.8956">
        <ele>988.37</ele>
        <time>2013-05-30T13:16:26Z</time>
      </trkpt>
      <trkpt lat="43.8563" lon="6.89547">
        <ele>983.57</ele>
        <time>2013-05-30T13:16:40Z</time>
      </trkpt>
      <trkpt lat="43.85625" lon="6.89532">
        <ele>979.24</ele>
        <time>2013-05-30T13:16:56Z</time>
      </trkpt>
      <trkpt lat="43.85615" lon="6.89518">
        <ele>973.95</ele>
        <time>2013-05-30T13:17:09Z</time>
      </trkpt>
      <trkpt lat="43.85596" lon="6.89501">
        <ele>970.11</ele>
        <time>2013-05-30T13:17:31Z</time>
      </trkpt>
      <trkpt lat="43.85583" lon="6.89492">
        <ele>966.74</ele>
        <time>2013-05-30T13:17:36Z</time>
      </trkpt>
      <trkpt lat="43.85577" lon="6.89489">
        <ele>964.82</ele>
        <time>2013-05-30T13:17:44Z</time>
      </trkpt>
      <trkpt lat="43.85564" lon="6.89489">
        <ele>961.46</ele>
        <time>2013-05-30T13:17:50Z</time>
      </trkpt>
      <trkpt lat="43.85553" lon="6.89487">
        <ele>957.61</ele>
        <time>2013-05-30T13:17:56Z</time>
      </trkpt>
      <trkpt lat="43.8555" lon="6.89483">
        <ele>956.65</ele>
        <time>2013-05-30T13:17:59Z</time>
      </trkpt>
      <trkpt lat="43.85533" lon="6.89461">
        <ele>951.36</ele>
        <time>2013-05-30T13:18:08Z</time>
      </trkpt>
      <trkpt lat="43.85534" lon="6.89501">
        <ele>947.52</ele>
        <time>2013-05-30T13:18:18Z</time>
      </trkpt>
      <trkpt lat="43.85536" lon="6.89513">
        <ele>946.07</ele>
        <time>2013-05-30T13:18:20Z</time>
      </trkpt>
      <trkpt lat="43.85541" lon="6.89527">
        <ele>941.75</ele>
        <time>2013-05-30T13:18:24Z</time>
      </trkpt>
      <trkpt lat="43.85541" lon="6.89531">
        <ele>941.75</ele>
        <time>2013-05-30T13:18:25Z</time>
      </trkpt>
      <trkpt lat="43.85554" lon="6.8954">
        <ele>936.46</ele>
        <time>2013-05-30T13:18:33Z</time>
      </trkpt>
      <trkpt lat="43.85556" lon="6.89538">
        <ele>936.94</ele>
        <time>2013-05-30T13:18:39Z</time>
      </trkpt>
      <trkpt lat="43.85555" lon="6.89538">
        <ele>936.94</ele>
        <time>2013-05-30T13:21:20Z</time>
      </trkpt>
      <trkpt lat="43.85564" lon="6.89551">
        <ele>933.1</ele>
        <time>2013-05-30T13:21:29Z</time>
      </trkpt>
      <trkpt lat="43.85565" lon="6.89553">
        <ele>933.1</ele>
        <time>2013-05-30T13:21:30Z</time>
      </trkpt>
      <trkpt lat="43.85567" lon="6.89574">
        <ele>928.29</ele>
        <time>2013-05-30T13:21:36Z</time>
      </trkpt>
      <trkpt lat="43.85569" lon="6.89605">
        <ele>924.45</ele>
        <time>2013-05-30T13:21:43Z</time>
      </trkpt>
      <trkpt lat="43.85569" lon="6.89619">
        <ele>923</ele>
        <time>2013-05-30T13:21:46Z</time>
      </trkpt>
      <trkpt lat="43.85585" lon="6.89666">
        <ele>918.2</ele>
        <time>2013-05-30T13:21:58Z</time>
      </trkpt>
      <trkpt lat="43.85599" lon="6.89681">
        <ele>913.39</ele>
        <time>2013-05-30T13:22:11Z</time>
      </trkpt>
      <trkpt lat="43.85598" lon="6.89685">
        <ele>910.03</ele>
        <time>2013-05-30T13:22:26Z</time>
      </trkpt>
      <trkpt lat="43.85597" lon="6.89685">
        <ele>910.03</ele>
        <time>2013-05-30T13:22:27Z</time>
      </trkpt>
      <trkpt lat="43.85575" lon="6.89675">
        <ele>906.66</ele>
        <time>2013-05-30T13:22:35Z</time>
      </trkpt>
      <trkpt lat="43.8556" lon="6.89672">
        <ele>900.89</ele>
        <time>2013-05-30T13:22:41Z</time>
      </trkpt>
      <trkpt lat="43.85556" lon="6.89678">
        <ele>897.53</ele>
        <time>2013-05-30T13:22:50Z</time>
      </trkpt>
      <trkpt lat="43.8556" lon="6.89685">
        <ele>895.12</ele>
        <time>2013-05-30T13:23:03Z</time>
      </trkpt>
      <trkpt lat="43.85561" lon="6.89687">
        <ele>894.16</ele>
        <time>2013-05-30T13:23:04Z</time>
      </trkpt>
      <trkpt lat="43.85566" lon="6.89701">
        <ele>890.8</ele>
        <time>2013-05-30T13:23:13Z</time>
      </trkpt>
      <trkpt lat="43.85564" lon="6.89703">
        <ele>888.4</ele>
        <time>2013-05-30T13:23:26Z</time>
      </trkpt>
      <trkpt lat="43.85572" lon="6.89719">
        <ele>884.55</ele>
        <time>2013-05-30T13:23:33Z</time>
      </trkpt>
      <trkpt lat="43.85585" lon="6.89733">
        <ele>880.71</ele>
        <time>2013-05-30T13:23:41Z</time>
      </trkpt>
      <trkpt lat="43.85586" lon="6.89737">
        <ele>880.22</ele>
        <time>2013-05-30T13:23:46Z</time>
      </trkpt>
      <trkpt lat="43.85588" lon="6.8976">
        <ele>875.9</ele>
        <time>2013-05-30T13:23:52Z</time>
      </trkpt>
      <trkpt lat="43.85592" lon="6.89778">
        <ele>872.53</ele>
        <time>2013-05-30T13:24:30Z</time>
      </trkpt>
      <trkpt lat="43.85567" lon="6.89763">
        <ele>867.25</ele>
        <time>2013-05-30T13:24:38Z</time>
      </trkpt>
      <trkpt lat="43.85556" lon="6.89766">
        <ele>863.88</ele>
        <time>2013-05-30T13:24:42Z</time>
      </trkpt>
      <trkpt lat="43.85542" lon="6.89758">
        <ele>858.59</ele>
        <time>2013-05-30T13:24:47Z</time>
      </trkpt>
      <trkpt lat="43.85532" lon="6.89757">
        <ele>855.23</ele>
        <time>2013-05-30T13:24:51Z</time>
      </trkpt>
      <trkpt lat="43.85522" lon="6.89756">
        <ele>852.35</ele>
        <time>2013-05-30T13:24:56Z</time>
      </trkpt>
      <trkpt lat="43.85534" lon="6.89768">
        <ele>848.98</ele>
        <time>2013-05-30T13:25:11Z</time>
      </trkpt>
      <trkpt lat="43.85534" lon="6.89772">
        <ele>848.98</ele>
        <time>2013-05-30T13:25:18Z</time>
      </trkpt>
      <trkpt lat="43.85552" lon="6.89794">
        <ele>847.54</ele>
        <time>2013-05-30T13:25:25Z</time>
      </trkpt>
      <trkpt lat="43.85564" lon="6.89823">
        <ele>842.25</ele>
        <time>2013-05-30T13:25:32Z</time>
      </trkpt>
      <trkpt lat="43.85566" lon="6.89846">
        <ele>838.41</ele>
        <time>2013-05-30T13:25:37Z</time>
      </trkpt>
      <trkpt lat="43.85572" lon="6.89873">
        <ele>834.56</ele>
        <time>2013-05-30T13:25:43Z</time>
      </trkpt>
      <trkpt lat="43.85575" lon="6.89896">
        <ele>830.72</ele>
        <time>2013-05-30T13:25:49Z</time>
      </trkpt>
      <trkpt lat="43.8558" lon="6.89916">
        <ele>827.35</ele>
        <time>2013-05-30T13:25:55Z</time>
      </trkpt>
      <trkpt lat="43.85582" lon="6.89929">
        <ele>823.51</ele>
        <time>2013-05-30T13:25:59Z</time>
      </trkpt>
      <trkpt lat="43.85584" lon="6.89942">
        <ele>820.14</ele>
        <time>2013-05-30T13:26:03Z</time>
      </trkpt>
      <trkpt lat="43.85586" lon="6.89955">
        <ele>816.78</ele>
        <time>2013-05-30T13:26:08Z</time>
      </trkpt>
      <trkpt lat="43.85584" lon="6.89958">
        <ele>816.78</ele>
        <time>2013-05-30T13:27:07Z</time>
      </trkpt>
      <trkpt lat="43.85564" lon="6.89952">
        <ele>812.45</ele>
        <time>2013-05-30T13:27:18Z</time>
      </trkpt>
      <trkpt lat="43.85571" lon="6.8998">
        <ele>808.61</ele>
        <time>2013-05-30T13:27:26Z</time>
      </trkpt>
      <trkpt lat="43.85573" lon="6.89988">
        <ele>805.24</ele>
        <time>2013-05-30T13:27:29Z</time>
      </trkpt>
      <trkpt lat="43.85572" lon="6.89989">
        <ele>805.72</ele>
        <time>2013-05-30T13:27:30Z</time>
      </trkpt>
      <trkpt lat="43.8557" lon="6.89989">
        <ele>805.72</ele>
        <time>2013-05-30T13:27:31Z</time>
      </trkpt>
      <trkpt lat="43.85555" lon="6.89989">
        <ele>801.4</ele>
        <time>2013-05-30T13:27:41Z</time>
      </trkpt>
      <trkpt lat="43.85546" lon="6.9">
        <ele>795.63</ele>
        <time>2013-05-30T13:28:04Z</time>
      </trkpt>
      <trkpt lat="43.85545" lon="6.90001">
        <ele>795.63</ele>
        <time>2013-05-30T13:28:06Z</time>
      </trkpt>
      <trkpt lat="43.85534" lon="6.90007">
        <ele>791.78</ele>
        <time>2013-05-30T13:28:17Z</time>
      </trkpt>
      <trkpt lat="43.85523" lon="6.90017">
        <ele>786.5</ele>
        <time>2013-05-30T13:28:25Z</time>
      </trkpt>
      <trkpt lat="43.85522" lon="6.90017">
        <ele>786.5</ele>
        <time>2013-05-30T13:28:26Z</time>
      </trkpt>
      <trkpt lat="43.85513" lon="6.90019">
        <ele>783.13</ele>
        <time>2013-05-30T13:28:38Z</time>
      </trkpt>
      <trkpt lat="43.85511" lon="6.90032">
        <ele>779.29</ele>
        <time>2013-05-30T13:29:01Z</time>
      </trkpt>
      <trkpt lat="43.85508" lon="6.90026">
        <ele>780.25</ele>
        <time>2013-05-30T13:29:46Z</time>
      </trkpt>
      <trkpt lat="43.85493" lon="6.89999">
        <ele>779.29</ele>
        <time>2013-05-30T13:30:01Z</time>
      </trkpt>
      <trkpt lat="43.85498" lon="6.90013">
        <ele>778.81</ele>
        <time>2013-05-30T13:30:04Z</time>
      </trkpt>
      <trkpt lat="43.85519" lon="6.90087">
        <ele>774.96</ele>
        <time>2013-05-30T13:30:13Z</time>
      </trkpt>
      <trkpt lat="43.85527" lon="6.90109">
        <ele>771.11</ele>
        <time>2013-05-30T13:30:15Z</time>
      </trkpt>
      <trkpt lat="43.85534" lon="6.90135">
        <ele>766.79</ele>
        <time>2013-05-30T13:30:18Z</time>
      </trkpt>
      <trkpt lat="43.85539" lon="6.90151">
        <ele>764.39</ele>
        <time>2013-05-30T13:30:20Z</time>
      </trkpt>
      <trkpt lat="43.85555" lon="6.9017">
        <ele>760.54</ele>
        <time>2013-05-30T13:30:24Z</time>
      </trkpt>
      <trkpt lat="43.85573" lon="6.90191">
        <ele>754.77</ele>
        <time>2013-05-30T13:30:28Z</time>
      </trkpt>
      <trkpt lat="43.85574" lon="6.90198">
        <ele>753.81</ele>
        <time>2013-05-30T13:30:30Z</time>
      </trkpt>
      <trkpt lat="43.85561" lon="6.90196">
        <ele>751.41</ele>
        <time>2013-05-30T13:30:35Z</time>
      </trkpt>
      <trkpt lat="43.85549" lon="6.90193">
        <ele>750.45</ele>
        <time>2013-05-30T13:30:59Z</time>
      </trkpt>
      <trkpt lat="43.85543" lon="6.90202">
        <ele>748.52</ele>
        <time>2013-05-30T13:31:12Z</time>
      </trkpt>
      <trkpt lat="43.8555" lon="6.90209">
        <ele>744.2</ele>
        <time>2013-05-30T13:31:35Z</time>
      </trkpt>
      <trkpt lat="43.85548" lon="6.90211">
        <ele>744.2</ele>
        <time>2013-05-30T13:31:37Z</time>
      </trkpt>
      <trkpt lat="43.85507" lon="6.902">
        <ele>739.39</ele>
        <time>2013-05-30T13:31:49Z</time>
      </trkpt>
      <trkpt lat="43.85482" lon="6.90191">
        <ele>734.1</ele>
        <time>2013-05-30T13:31:54Z</time>
      </trkpt>
      <trkpt lat="43.85467" lon="6.90187">
        <ele>730.74</ele>
        <time>2013-05-30T13:31:58Z</time>
      </trkpt>
      <trkpt lat="43.85449" lon="6.90156">
        <ele>729.78</ele>
        <time>2013-05-30T13:32:06Z</time>
      </trkpt>
      <trkpt lat="43.85431" lon="6.90136">
        <ele>724.97</ele>
        <time>2013-05-30T13:32:11Z</time>
      </trkpt>
      <trkpt lat="43.85424" lon="6.90129">
        <ele>721.61</ele>
        <time>2013-05-30T13:32:13Z</time>
      </trkpt>
      <trkpt lat="43.854" lon="6.90093">
        <ele>715.84</ele>
        <time>2013-05-30T13:32:19Z</time>
      </trkpt>
      <trkpt lat="43.85394" lon="6.90074">
        <ele>713.44</ele>
        <time>2013-05-30T13:32:22Z</time>
      </trkpt>
      <trkpt lat="43.85393" lon="6.90068">
        <ele>713.44</ele>
        <time>2013-05-30T13:32:23Z</time>
      </trkpt>
      <trkpt lat="43.85388" lon="6.90051">
        <ele>710.07</ele>
        <time>2013-05-30T13:32:26Z</time>
      </trkpt>
      <trkpt lat="43.85387" lon="6.90046">
        <ele>709.11</ele>
        <time>2013-05-30T13:32:27Z</time>
      </trkpt>
      <trkpt lat="43.85374" lon="6.90016">
        <ele>705.75</ele>
        <time>2013-05-30T13:32:32Z</time>
      </trkpt>
      <trkpt lat="43.85355" lon="6.89998">
        <ele>699.98</ele>
        <time>2013-05-30T13:32:38Z</time>
      </trkpt>
      <trkpt lat="43.85331" lon="6.89976">
        <ele>693.25</ele>
        <time>2013-05-30T13:32:46Z</time>
      </trkpt>
      <trkpt lat="43.85314" lon="6.89961">
        <ele>689.4</ele>
        <time>2013-05-30T13:32:51Z</time>
      </trkpt>
      <trkpt lat="43.85282" lon="6.8992">
        <ele>683.63</ele>
        <time>2013-05-30T13:33:05Z</time>
      </trkpt>
      <trkpt lat="43.85257" lon="6.89923">
        <ele>676.91</ele>
        <time>2013-05-30T13:33:13Z</time>
      </trkpt>
      <trkpt lat="43.85243" lon="6.89926">
        <ele>673.06</ele>
        <time>2013-05-30T13:33:17Z</time>
      </trkpt>
      <trkpt lat="43.8523" lon="6.89926">
        <ele>669.22</ele>
        <time>2013-05-30T13:33:20Z</time>
      </trkpt>
      <trkpt lat="43.85212" lon="6.89928">
        <ele>663.93</ele>
        <time>2013-05-30T13:33:25Z</time>
      </trkpt>
      <trkpt lat="43.85209" lon="6.89927">
        <ele>663.93</ele>
        <time>2013-05-30T13:33:26Z</time>
      </trkpt>
      <trkpt lat="43.85201" lon="6.89915">
        <ele>661.52</ele>
        <time>2013-05-30T13:33:39Z</time>
      </trkpt>
      <trkpt lat="43.85194" lon="6.89912">
        <ele>664.41</ele>
        <time>2013-05-30T13:34:45Z</time>
      </trkpt>
      <trkpt lat="43.85188" lon="6.89923">
        <ele>661.04</ele>
        <time>2013-05-30T13:35:08Z</time>
      </trkpt>
      <trkpt lat="43.85189" lon="6.89932">
        <ele>657.2</ele>
        <time>2013-05-30T13:35:22Z</time>
      </trkpt>
      <trkpt lat="43.85187" lon="6.89931">
        <ele>656.72</ele>
        <time>2013-05-30T13:35:29Z</time>
      </trkpt>
      <trkpt lat="43.85178" lon="6.89935">
        <ele>653.35</ele>
        <time>2013-05-30T13:35:35Z</time>
      </trkpt>
      <trkpt lat="43.85169" lon="6.89932">
        <ele>649.03</ele>
        <time>2013-05-30T13:35:42Z</time>
      </trkpt>
      <trkpt lat="43.85165" lon="6.89911">
        <ele>644.7</ele>
        <time>2013-05-30T13:35:59Z</time>
      </trkpt>
      <trkpt lat="43.85161" lon="6.89906">
        <ele>642.78</ele>
        <time>2013-05-30T13:36:09Z</time>
      </trkpt>
      <trkpt lat="43.85145" lon="6.89927">
        <ele>636.53</ele>
        <time>2013-05-30T13:36:17Z</time>
      </trkpt>
      <trkpt lat="43.85142" lon="6.8993">
        <ele>635.57</ele>
        <time>2013-05-30T13:36:19Z</time>
      </trkpt>
      <trkpt lat="43.85132" lon="6.89941">
        <ele>631.24</ele>
        <time>2013-05-30T13:36:23Z</time>
      </trkpt>
      <trkpt lat="43.85128" lon="6.89958">
        <ele>632.68</ele>
        <time>2013-05-30T13:36:46Z</time>
      </trkpt>
      <trkpt lat="43.85127" lon="6.89982">
        <ele>632.68</ele>
        <time>2013-05-30T13:37:18Z</time>
      </trkpt>
      <trkpt lat="43.85134" lon="6.89971">
        <ele>633.17</ele>
        <time>2013-05-30T13:38:04Z</time>
      </trkpt>
      <trkpt lat="43.85134" lon="6.89974">
        <ele>632.68</ele>
        <time>2013-05-30T13:38:25Z</time>
      </trkpt>
      <trkpt lat="43.85167" lon="6.89979">
        <ele>631.72</ele>
        <time>2013-05-30T13:38:37Z</time>
      </trkpt>
      <trkpt lat="43.85194" lon="6.89988">
        <ele>629.8</ele>
        <time>2013-05-30T13:38:42Z</time>
      </trkpt>
      <trkpt lat="43.85228" lon="6.90047">
        <ele>625.96</ele>
        <time>2013-05-30T13:38:50Z</time>
      </trkpt>
      <trkpt lat="43.85225" lon="6.90105">
        <ele>623.07</ele>
        <time>2013-05-30T13:38:55Z</time>
      </trkpt>
      <trkpt lat="43.85231" lon="6.9019">
        <ele>620.19</ele>
        <time>2013-05-30T13:39:02Z</time>
      </trkpt>
      <trkpt lat="43.8525" lon="6.9022">
        <ele>617.78</ele>
        <time>2013-05-30T13:39:05Z</time>
      </trkpt>
      <trkpt lat="43.85267" lon="6.90284">
        <ele>614.9</ele>
        <time>2013-05-30T13:39:10Z</time>
      </trkpt>
      <trkpt lat="43.85298" lon="6.90386">
        <ele>610.09</ele>
        <time>2013-05-30T13:39:18Z</time>
      </trkpt>
      <trkpt lat="43.85303" lon="6.90399">
        <ele>608.65</ele>
        <time>2013-05-30T13:39:19Z</time>
      </trkpt>
      <trkpt lat="43.85307" lon="6.90411">
        <ele>608.17</ele>
        <time>2013-05-30T13:39:20Z</time>
      </trkpt>
      <trkpt lat="43.85368" lon="6.90524">
        <ele>603.85</ele>
        <time>2013-05-30T13:39:30Z</time>
      </trkpt>
      <trkpt lat="43.85393" lon="6.9059">
        <ele>599.04</ele>
        <time>2013-05-30T13:39:35Z</time>
      </trkpt>
      <trkpt lat="43.85404" lon="6.9062">
        <ele>595.19</ele>
        <time>2013-05-30T13:39:41Z</time>
      </trkpt>
      <trkpt lat="43.85405" lon="6.9062">
        <ele>595.19</ele>
        <time>2013-05-30T13:39:42Z</time>
      </trkpt>
      <trkpt lat="43.85393" lon="6.90606">
        <ele>595.19</ele>
        <time>2013-05-30T13:39:53Z</time>
      </trkpt>
      <trkpt lat="43.85391" lon="6.90625">
        <ele>591.83</ele>
        <time>2013-05-30T13:39:59Z</time>
      </trkpt>
      <trkpt lat="43.85395" lon="6.90674">
        <ele>586.06</ele>
        <time>2013-05-30T13:40:13Z</time>
      </trkpt>
      <trkpt lat="43.85394" lon="6.90696">
        <ele>581.73</ele>
        <time>2013-05-30T13:40:16Z</time>
      </trkpt>
      <trkpt lat="43.85397" lon="6.90725">
        <ele>577.89</ele>
        <time>2013-05-30T13:40:19Z</time>
      </trkpt>
      <trkpt lat="43.85399" lon="6.90743">
        <ele>574.53</ele>
        <time>2013-05-30T13:40:21Z</time>
      </trkpt>
      <trkpt lat="43.85391" lon="6.90764">
        <ele>570.2</ele>
        <time>2013-05-30T13:40:24Z</time>
      </trkpt>
      <trkpt lat="43.85396" lon="6.90788">
        <ele>565.87</ele>
        <time>2013-05-30T13:40:27Z</time>
      </trkpt>
      <trkpt lat="43.85405" lon="6.90818">
        <ele>560.59</ele>
        <time>2013-05-30T13:40:30Z</time>
      </trkpt>
      <trkpt lat="43.85412" lon="6.90844">
        <ele>555.78</ele>
        <time>2013-05-30T13:40:33Z</time>
      </trkpt>
      <trkpt lat="43.85411" lon="6.90867">
        <ele>551.93</ele>
        <time>2013-05-30T13:40:35Z</time>
      </trkpt>
      <trkpt lat="43.85407" lon="6.90896">
        <ele>546.65</ele>
        <time>2013-05-30T13:40:38Z</time>
      </trkpt>
      <trkpt lat="43.85403" lon="6.90911">
        <ele>543.28</ele>
        <time>2013-05-30T13:40:40Z</time>
      </trkpt>
      <trkpt lat="43.85397" lon="6.90944">
        <ele>539.44</ele>
        <time>2013-05-30T13:40:43Z</time>
      </trkpt>
      <trkpt lat="43.85394" lon="6.90966">
        <ele>535.59</ele>
        <time>2013-05-30T13:40:45Z</time>
      </trkpt>
      <trkpt lat="43.85397" lon="6.90982">
        <ele>533.67</ele>
        <time>2013-05-30T13:40:53Z</time>
      </trkpt>
      <trkpt lat="43.85393" lon="6.91009">
        <ele>528.86</ele>
        <time>2013-05-30T13:41:04Z</time>
      </trkpt>
      <trkpt lat="43.85393" lon="6.91008">
        <ele>528.86</ele>
        <time>2013-05-30T13:41:09Z</time>
      </trkpt>
      <trkpt lat="43.85394" lon="6.91031">
        <ele>527.42</ele>
        <time>2013-05-30T13:41:14Z</time>
      </trkpt>
      <trkpt lat="43.85408" lon="6.91068">
        <ele>524.06</ele>
        <time>2013-05-30T13:41:20Z</time>
      </trkpt>
      <trkpt lat="43.85414" lon="6.91079">
        <ele>520.69</ele>
        <time>2013-05-30T13:41:22Z</time>
      </trkpt>
      <trkpt lat="43.85428" lon="6.911">
        <ele>516.85</ele>
        <time>2013-05-30T13:41:26Z</time>
      </trkpt>
      <trkpt lat="43.85434" lon="6.91114">
        <ele>513</ele>
        <time>2013-05-30T13:41:28Z</time>
      </trkpt>
      <trkpt lat="43.85448" lon="6.9112">
        <ele>509.16</ele>
        <time>2013-05-30T13:41:33Z</time>
      </trkpt>
      <trkpt lat="43.85449" lon="6.91121">
        <ele>508.67</ele>
        <time>2013-05-30T13:41:34Z</time>
      </trkpt>
      <trkpt lat="43.85446" lon="6.91143">
        <ele>504.83</ele>
        <time>2013-05-30T13:41:44Z</time>
      </trkpt>
      <trkpt lat="43.85446" lon="6.91144">
        <ele>504.83</ele>
        <time>2013-05-30T13:41:45Z</time>
      </trkpt>
      <trkpt lat="43.8545" lon="6.9114">
        <ele>504.35</ele>
        <time>2013-05-30T13:42:00Z</time>
      </trkpt>
      <trkpt lat="43.8542" lon="6.91155">
        <ele>498.1</ele>
        <time>2013-05-30T13:42:09Z</time>
      </trkpt>
      <trkpt lat="43.85407" lon="6.91168">
        <ele>494.26</ele>
        <time>2013-05-30T13:42:13Z</time>
      </trkpt>
      <trkpt lat="43.85394" lon="6.91181">
        <ele>490.41</ele>
        <time>2013-05-30T13:42:19Z</time>
      </trkpt>
      <trkpt lat="43.85375" lon="6.91204">
        <ele>484.16</ele>
        <time>2013-05-30T13:42:24Z</time>
      </trkpt>
      <trkpt lat="43.85365" lon="6.91215">
        <ele>482.72</ele>
        <time>2013-05-30T13:42:26Z</time>
      </trkpt>
      <trkpt lat="43.85348" lon="6.91223">
        <ele>477.43</ele>
        <time>2013-05-30T13:42:30Z</time>
      </trkpt>
      <trkpt lat="43.85339" lon="6.91244">
        <ele>470.7</ele>
        <time>2013-05-30T13:42:37Z</time>
      </trkpt>
      <trkpt lat="43.85338" lon="6.91254">
        <ele>467.34</ele>
        <time>2013-05-30T13:42:40Z</time>
      </trkpt>
      <trkpt lat="43.85341" lon="6.91257">
        <ele>467.34</ele>
        <time>2013-05-30T13:42:41Z</time>
      </trkpt>
      <trkpt lat="43.85349" lon="6.91273">
        <ele>463.49</ele>
        <time>2013-05-30T13:42:44Z</time>
      </trkpt>
      <trkpt lat="43.85365" lon="6.91284">
        <ele>462.05</ele>
        <time>2013-05-30T13:42:47Z</time>
      </trkpt>
      <trkpt lat="43.8537" lon="6.91286">
        <ele>462.05</ele>
        <time>2013-05-30T13:42:48Z</time>
      </trkpt>
      <trkpt lat="43.85399" lon="6.91298">
        <ele>458.69</ele>
        <time>2013-05-30T13:43:00Z</time>
      </trkpt>
      <trkpt lat="43.85399" lon="6.91317">
        <ele>456.28</ele>
        <time>2013-05-30T13:43:08Z</time>
      </trkpt>
      <trkpt lat="43.85378" lon="6.91346">
        <ele>451.96</ele>
        <time>2013-05-30T13:43:19Z</time>
      </trkpt>
      <trkpt lat="43.85369" lon="6.9136">
        <ele>451.48</ele>
        <time>2013-05-30T13:43:32Z</time>
      </trkpt>
      <trkpt lat="43.85369" lon="6.91373">
        <ele>453.88</ele>
        <time>2013-05-30T13:45:14Z</time>
      </trkpt>
      <trkpt lat="43.85367" lon="6.91422">
        <ele>459.17</ele>
        <time>2013-05-30T13:52:33Z</time>
      </trkpt>
      <trkpt lat="43.85361" lon="6.91446">
        <ele>462.53</ele>
        <time>2013-05-30T13:52:51Z</time>
      </trkpt>
      <trkpt lat="43.8536" lon="6.91447">
        <ele>462.05</ele>
        <time>2013-05-30T13:52:52Z</time>
      </trkpt>
      <trkpt lat="43.85362" lon="6.91478">
        <ele>465.9</ele>
        <time>2013-05-30T13:53:13Z</time>
      </trkpt>
      <trkpt lat="43.85364" lon="6.91503">
        <ele>469.26</ele>
        <time>2013-05-30T13:53:30Z</time>
      </trkpt>
      <trkpt lat="43.85364" lon="6.91549">
        <ele>475.03</ele>
        <time>2013-05-30T13:54:03Z</time>
      </trkpt>
      <trkpt lat="43.85366" lon="6.91551">
        <ele>475.03</ele>
        <time>2013-05-30T13:54:05Z</time>
      </trkpt>
      <trkpt lat="43.85375" lon="6.91526">
        <ele>478.87</ele>
        <time>2013-05-30T13:54:31Z</time>
      </trkpt>
      <trkpt lat="43.85392" lon="6.91499">
        <ele>482.72</ele>
        <time>2013-05-30T13:54:56Z</time>
      </trkpt>
      <trkpt lat="43.85403" lon="6.91495">
        <ele>483.68</ele>
        <time>2013-05-30T13:55:57Z</time>
      </trkpt>
      <trkpt lat="43.85417" lon="6.91472">
        <ele>487.53</ele>
        <time>2013-05-30T13:56:20Z</time>
      </trkpt>
      <trkpt lat="43.85453" lon="6.91448">
        <ele>493.77</ele>
        <time>2013-05-30T13:56:56Z</time>
      </trkpt>
      <trkpt lat="43.8549" lon="6.91453">
        <ele>499.06</ele>
        <time>2013-05-30T13:57:28Z</time>
      </trkpt>
      <trkpt lat="43.85488" lon="6.91465">
        <ele>502.43</ele>
        <time>2013-05-30T13:57:53Z</time>
      </trkpt>
      <trkpt lat="43.85448" lon="6.91498">
        <ele>507.71</ele>
        <time>2013-05-30T13:58:30Z</time>
      </trkpt>
      <trkpt lat="43.85443" lon="6.91562">
        <ele>513</ele>
        <time>2013-05-30T13:59:04Z</time>
      </trkpt>
      <trkpt lat="43.85456" lon="6.91571">
        <ele>517.81</ele>
        <time>2013-05-30T13:59:35Z</time>
      </trkpt>
      <trkpt lat="43.85461" lon="6.91541">
        <ele>521.17</ele>
        <time>2013-05-30T13:59:51Z</time>
      </trkpt>
      <trkpt lat="43.85518" lon="6.91528">
        <ele>527.42</ele>
        <time>2013-05-30T14:00:32Z</time>
      </trkpt>
      <trkpt lat="43.85562" lon="6.91522">
        <ele>533.19</ele>
        <time>2013-05-30T14:01:03Z</time>
      </trkpt>
      <trkpt lat="43.8558" lon="6.91519">
        <ele>536.55</ele>
        <time>2013-05-30T14:01:20Z</time>
      </trkpt>
      <trkpt lat="43.85588" lon="6.91524">
        <ele>539.44</ele>
        <time>2013-05-30T14:01:36Z</time>
      </trkpt>
      <trkpt lat="43.8557" lon="6.91539">
        <ele>542.32</ele>
        <time>2013-05-30T14:01:53Z</time>
      </trkpt>
      <trkpt lat="43.85548" lon="6.91564">
        <ele>546.17</ele>
        <time>2013-05-30T14:02:27Z</time>
      </trkpt>
      <trkpt lat="43.85529" lon="6.9159">
        <ele>550.01</ele>
        <time>2013-05-30T14:02:58Z</time>
      </trkpt>
      <trkpt lat="43.85528" lon="6.91633">
        <ele>554.82</ele>
        <time>2013-05-30T14:03:29Z</time>
      </trkpt>
      <trkpt lat="43.85528" lon="6.91649">
        <ele>557.22</ele>
        <time>2013-05-30T14:04:15Z</time>
      </trkpt>
      <trkpt lat="43.85538" lon="6.91674">
        <ele>560.59</ele>
        <time>2013-05-30T14:04:31Z</time>
      </trkpt>
      <trkpt lat="43.85548" lon="6.91706">
        <ele>564.43</ele>
        <time>2013-05-30T14:04:52Z</time>
      </trkpt>
      <trkpt lat="43.85548" lon="6.91708">
        <ele>563.95</ele>
        <time>2013-05-30T14:04:54Z</time>
      </trkpt>
      <trkpt lat="43.85557" lon="6.9173">
        <ele>566.35</ele>
        <time>2013-05-30T14:05:09Z</time>
      </trkpt>
      <trkpt lat="43.8554" lon="6.91764">
        <ele>571.64</ele>
        <time>2013-05-30T14:05:36Z</time>
      </trkpt>
      <trkpt lat="43.85537" lon="6.91768">
        <ele>571.64</ele>
        <time>2013-05-30T14:05:40Z</time>
      </trkpt>
      <trkpt lat="43.85518" lon="6.91794">
        <ele>575.97</ele>
        <time>2013-05-30T14:06:04Z</time>
      </trkpt>
      <trkpt lat="43.85503" lon="6.9184">
        <ele>581.25</ele>
        <time>2013-05-30T14:06:39Z</time>
      </trkpt>
      <trkpt lat="43.85503" lon="6.91842">
        <ele>580.77</ele>
        <time>2013-05-30T14:06:40Z</time>
      </trkpt>
      <trkpt lat="43.85494" lon="6.91873">
        <ele>584.62</ele>
        <time>2013-05-30T14:07:04Z</time>
      </trkpt>
      <trkpt lat="43.85485" lon="6.9191">
        <ele>587.98</ele>
        <time>2013-05-30T14:07:27Z</time>
      </trkpt>
      <trkpt lat="43.85466" lon="6.91928">
        <ele>592.31</ele>
        <time>2013-05-30T14:07:51Z</time>
      </trkpt>
      <trkpt lat="43.85443" lon="6.91942">
        <ele>595.67</ele>
        <time>2013-05-30T14:08:14Z</time>
      </trkpt>
      <trkpt lat="43.85442" lon="6.92002">
        <ele>594.71</ele>
        <time>2013-05-30T14:08:43Z</time>
      </trkpt>
      <trkpt lat="43.85454" lon="6.92035">
        <ele>594.71</ele>
        <time>2013-05-30T14:08:52Z</time>
      </trkpt>
      <trkpt lat="43.85489" lon="6.92034">
        <ele>592.79</ele>
        <time>2013-05-30T14:08:59Z</time>
      </trkpt>
      <trkpt lat="43.85524" lon="6.92055">
        <ele>590.87</ele>
        <time>2013-05-30T14:09:05Z</time>
      </trkpt>
      <trkpt lat="43.85573" lon="6.92093">
        <ele>587.5</ele>
        <time>2013-05-30T14:09:12Z</time>
      </trkpt>
      <trkpt lat="43.85601" lon="6.92142">
        <ele>584.14</ele>
        <time>2013-05-30T14:09:18Z</time>
      </trkpt>
      <trkpt lat="43.85599" lon="6.92152">
        <ele>583.18</ele>
        <time>2013-05-30T14:09:19Z</time>
      </trkpt>
      <trkpt lat="43.85598" lon="6.92165">
        <ele>584.14</ele>
        <time>2013-05-30T14:09:20Z</time>
      </trkpt>
      <trkpt lat="43.85534" lon="6.92274">
        <ele>575.01</ele>
        <time>2013-05-30T14:09:31Z</time>
      </trkpt>
      <trkpt lat="43.85522" lon="6.92314">
        <ele>573.56</ele>
        <time>2013-05-30T14:09:41Z</time>
      </trkpt>
      <trkpt lat="43.85525" lon="6.92318">
        <ele>574.04</ele>
        <time>2013-05-30T14:10:36Z</time>
      </trkpt>
      <trkpt lat="43.85515" lon="6.92346">
        <ele>575.97</ele>
        <time>2013-05-30T14:11:10Z</time>
      </trkpt>
      <trkpt lat="43.85505" lon="6.92369">
        <ele>577.89</ele>
        <time>2013-05-30T14:11:26Z</time>
      </trkpt>
      <trkpt lat="43.85503" lon="6.9237">
        <ele>577.89</ele>
        <time>2013-05-30T14:11:27Z</time>
      </trkpt>
      <trkpt lat="43.85482" lon="6.92404">
        <ele>578.85</ele>
        <time>2013-05-30T14:11:53Z</time>
      </trkpt>
      <trkpt lat="43.85477" lon="6.92431">
        <ele>580.29</ele>
        <time>2013-05-30T14:12:40Z</time>
      </trkpt>
      <trkpt lat="43.85471" lon="6.9243">
        <ele>580.77</ele>
        <time>2013-05-30T14:15:33Z</time>
      </trkpt>
      <trkpt lat="43.85483" lon="6.92401">
        <ele>578.85</ele>
        <time>2013-05-30T14:15:51Z</time>
      </trkpt>
      <trkpt lat="43.8551" lon="6.92351">
        <ele>576.45</ele>
        <time>2013-05-30T14:16:14Z</time>
      </trkpt>
      <trkpt lat="43.85575" lon="6.92244">
        <ele>576.93</ele>
        <time>2013-05-30T14:16:46Z</time>
      </trkpt>
      <trkpt lat="43.85603" lon="6.92193">
        <ele>579.81</ele>
        <time>2013-05-30T14:17:01Z</time>
      </trkpt>
      <trkpt lat="43.85595" lon="6.9212">
        <ele>583.18</ele>
        <time>2013-05-30T14:17:21Z</time>
      </trkpt>
      <trkpt lat="43.85523" lon="6.9205">
        <ele>587.98</ele>
        <time>2013-05-30T14:17:48Z</time>
      </trkpt>
      <trkpt lat="43.85437" lon="6.92022">
        <ele>595.19</ele>
        <time>2013-05-30T14:18:21Z</time>
      </trkpt>
      <trkpt lat="43.85444" lon="6.91954">
        <ele>594.71</ele>
        <time>2013-05-30T14:18:38Z</time>
      </trkpt>
      <trkpt lat="43.85444" lon="6.91947">
        <ele>594.71</ele>
        <time>2013-05-30T14:18:45Z</time>
      </trkpt>
      <trkpt lat="43.85466" lon="6.91944">
        <ele>595.67</ele>
        <time>2013-05-30T14:18:54Z</time>
      </trkpt>
      <trkpt lat="43.85531" lon="6.91875">
        <ele>599.52</ele>
        <time>2013-05-30T14:19:24Z</time>
      </trkpt>
      <trkpt lat="43.85607" lon="6.91791">
        <ele>604.81</ele>
        <time>2013-05-30T14:19:51Z</time>
      </trkpt>
      <trkpt lat="43.85629" lon="6.91682">
        <ele>608.65</ele>
        <time>2013-05-30T14:20:13Z</time>
      </trkpt>
      <trkpt lat="43.85674" lon="6.91652">
        <ele>611.06</ele>
        <time>2013-05-30T14:20:28Z</time>
      </trkpt>
      <trkpt lat="43.8575" lon="6.91541">
        <ele>615.86</ele>
        <time>2013-05-30T14:21:01Z</time>
      </trkpt>
      <trkpt lat="43.85773" lon="6.91493">
        <ele>616.34</ele>
        <time>2013-05-30T14:21:14Z</time>
      </trkpt>
      <trkpt lat="43.85781" lon="6.91477">
        <ele>616.34</ele>
        <time>2013-05-30T14:21:19Z</time>
      </trkpt>
      <trkpt lat="43.85808" lon="6.91478">
        <ele>615.38</ele>
        <time>2013-05-30T14:21:30Z</time>
      </trkpt>
      <trkpt lat="43.85781" lon="6.91478">
        <ele>616.82</ele>
        <time>2013-05-30T14:21:47Z</time>
      </trkpt>
      <trkpt lat="43.8578" lon="6.9149">
        <ele>616.34</ele>
        <time>2013-05-30T14:21:52Z</time>
      </trkpt>
      <trkpt lat="43.85783" lon="6.91485">
        <ele>618.75</ele>
        <time>2013-05-30T14:22:03Z</time>
      </trkpt>
      <trkpt lat="43.85768" lon="6.91486">
        <ele>621.15</ele>
        <time>2013-05-30T14:24:16Z</time>
      </trkpt>
      <trkpt lat="43.85794" lon="6.91501">
        <ele>619.23</ele>
        <time>2013-05-30T14:24:53Z</time>
      </trkpt>
      <trkpt lat="43.85794" lon="6.91501">
        <ele>614.9</ele>
        <time>2013-05-30T14:30:20Z</time>
      </trkpt>
      <trkpt lat="43.85794" lon="6.91501">
        <ele>619.23</ele>
        <time>2013-05-30T14:40:26Z</time>
      </trkpt>
      <trkpt lat="43.85764" lon="6.91475">
        <ele>619.71</ele>
        <time>2013-05-30T14:41:39Z</time>
      </trkpt>
      <trkpt lat="43.85771" lon="6.9147">
        <ele>618.75</ele>
        <time>2013-05-30T14:42:05Z</time>
      </trkpt>
      <trkpt lat="43.8576" lon="6.91488">
        <ele>619.71</ele>
        <time>2013-05-30T14:44:54Z</time>
      </trkpt>
      <trkpt lat="43.85757" lon="6.91471">
        <ele>662.49</ele>
        <time>2013-05-30T15:18:23Z</time>
      </trkpt>
      <trkpt lat="43.85757" lon="6.91471">
        <ele>703.34</ele>
        <time>2013-05-30T15:18:24Z</time>
      </trkpt>
      <trkpt lat="43.85757" lon="6.91471">
        <ele>702.38</ele>
        <time>2013-05-30T15:19:25Z</time>
      </trkpt>
      <trkpt lat="43.85757" lon="6.91471">
        <ele>699.02</ele>
        <time>2013-05-30T15:20:33Z</time>
      </trkpt>
      <trkpt lat="43.85757" lon="6.91471">
        <ele>695.65</ele>
        <time>2013-05-30T15:21:32Z</time>
      </trkpt>
      <trkpt lat="43.8569" lon="6.91573">
        <ele>695.65</ele>
        <time>2013-05-30T15:21:44Z</time>
      </trkpt>
      <trkpt lat="43.85687" lon="6.91574">
        <ele>690.84</ele>
        <time>2013-05-30T15:21:54Z</time>
      </trkpt>
      <trkpt lat="43.85687" lon="6.91574">
        <ele>686.52</ele>
        <time>2013-05-30T15:21:56Z</time>
      </trkpt>
      <trkpt lat="43.85687" lon="6.91573">
        <ele>682.67</ele>
        <time>2013-05-30T15:21:58Z</time>
      </trkpt>
      <trkpt lat="43.85687" lon="6.91573">
        <ele>678.83</ele>
        <time>2013-05-30T15:22:00Z</time>
      </trkpt>
      <trkpt lat="43.85686" lon="6.91573">
        <ele>675.46</ele>
        <time>2013-05-30T15:22:02Z</time>
      </trkpt>
      <trkpt lat="43.85687" lon="6.91574">
        <ele>673.54</ele>
        <time>2013-05-30T15:22:03Z</time>
      </trkpt>
      <trkpt lat="43.85684" lon="6.91581">
        <ele>669.22</ele>
        <time>2013-05-30T15:22:06Z</time>
      </trkpt>
      <trkpt lat="43.85682" lon="6.9159">
        <ele>665.85</ele>
        <time>2013-05-30T15:22:08Z</time>
      </trkpt>
      <trkpt lat="43.85678" lon="6.91607">
        <ele>662.01</ele>
        <time>2013-05-30T15:22:11Z</time>
      </trkpt>
      <trkpt lat="43.85673" lon="6.91628">
        <ele>657.68</ele>
        <time>2013-05-30T15:22:14Z</time>
      </trkpt>
      <trkpt lat="43.85664" lon="6.91646">
        <ele>653.83</ele>
        <time>2013-05-30T15:22:17Z</time>
      </trkpt>
      <trkpt lat="43.85643" lon="6.9166">
        <ele>649.03</ele>
        <time>2013-05-30T15:22:21Z</time>
      </trkpt>
      <trkpt lat="43.8562" lon="6.9167">
        <ele>645.66</ele>
        <time>2013-05-30T15:22:25Z</time>
      </trkpt>
      <trkpt lat="43.85605" lon="6.91695">
        <ele>641.82</ele>
        <time>2013-05-30T15:22:29Z</time>
      </trkpt>
      <trkpt lat="43.85604" lon="6.91705">
        <ele>641.82</ele>
        <time>2013-05-30T15:22:30Z</time>
      </trkpt>
      <trkpt lat="43.85603" lon="6.91715">
        <ele>640.86</ele>
        <time>2013-05-30T15:22:31Z</time>
      </trkpt>
      <trkpt lat="43.85603" lon="6.91765">
        <ele>636.53</ele>
        <time>2013-05-30T15:22:36Z</time>
      </trkpt>
      <trkpt lat="43.85587" lon="6.91793">
        <ele>632.68</ele>
        <time>2013-05-30T15:22:40Z</time>
      </trkpt>
      <trkpt lat="43.85581" lon="6.91797">
        <ele>631.72</ele>
        <time>2013-05-30T15:22:41Z</time>
      </trkpt>
      <trkpt lat="43.85562" lon="6.91813">
        <ele>628.36</ele>
        <time>2013-05-30T15:22:45Z</time>
      </trkpt>
      <trkpt lat="43.85542" lon="6.91833">
        <ele>627.88</ele>
        <time>2013-05-30T15:22:49Z</time>
      </trkpt>
      <trkpt lat="43.85524" lon="6.91862">
        <ele>624.51</ele>
        <time>2013-05-30T15:22:53Z</time>
      </trkpt>
      <trkpt lat="43.85492" lon="6.91929">
        <ele>619.23</ele>
        <time>2013-05-30T15:23:01Z</time>
      </trkpt>
      <trkpt lat="43.85456" lon="6.91937">
        <ele>615.86</ele>
        <time>2013-05-30T15:23:06Z</time>
      </trkpt>
      <trkpt lat="43.85449" lon="6.91938">
        <ele>615.86</ele>
        <time>2013-05-30T15:23:07Z</time>
      </trkpt>
      <trkpt lat="43.85429" lon="6.91971">
        <ele>612.98</ele>
        <time>2013-05-30T15:23:11Z</time>
      </trkpt>
      <trkpt lat="43.85442" lon="6.92031">
        <ele>609.61</ele>
        <time>2013-05-30T15:23:19Z</time>
      </trkpt>
      <trkpt lat="43.85457" lon="6.92031">
        <ele>608.17</ele>
        <time>2013-05-30T15:23:21Z</time>
      </trkpt>
      <trkpt lat="43.85471" lon="6.92031">
        <ele>607.21</ele>
        <time>2013-05-30T15:23:23Z</time>
      </trkpt>
      <trkpt lat="43.85501" lon="6.92052">
        <ele>604.81</ele>
        <time>2013-05-30T15:23:27Z</time>
      </trkpt>
      <trkpt lat="43.85551" lon="6.9209">
        <ele>601.44</ele>
        <time>2013-05-30T15:23:33Z</time>
      </trkpt>
      <trkpt lat="43.85588" lon="6.92136">
        <ele>597.6</ele>
        <time>2013-05-30T15:23:38Z</time>
      </trkpt>
      <trkpt lat="43.85588" lon="6.92189">
        <ele>595.19</ele>
        <time>2013-05-30T15:23:41Z</time>
      </trkpt>
      <trkpt lat="43.8554" lon="6.92266">
        <ele>589.91</ele>
        <time>2013-05-30T15:23:49Z</time>
      </trkpt>
      <trkpt lat="43.85514" lon="6.92309">
        <ele>586.06</ele>
        <time>2013-05-30T15:23:55Z</time>
      </trkpt>
      <trkpt lat="43.85512" lon="6.92314">
        <ele>586.54</ele>
        <time>2013-05-30T15:23:56Z</time>
      </trkpt>
      <trkpt lat="43.85505" lon="6.92339">
        <ele>588.46</ele>
        <time>2013-05-30T15:24:15Z</time>
      </trkpt>
      <trkpt lat="43.85484" lon="6.92385">
        <ele>590.87</ele>
        <time>2013-05-30T15:24:58Z</time>
      </trkpt>
      <trkpt lat="43.85474" lon="6.92451">
        <ele>593.75</ele>
        <time>2013-05-30T15:25:33Z</time>
      </trkpt>
      <trkpt lat="43.85474" lon="6.92453">
        <ele>593.75</ele>
        <time>2013-05-30T15:25:34Z</time>
      </trkpt>
      <trkpt lat="43.85475" lon="6.92455">
        <ele>593.27</ele>
        <time>2013-05-30T15:25:35Z</time>
      </trkpt>
      <trkpt lat="43.85467" lon="6.925">
        <ele>594.23</ele>
        <time>2013-05-30T15:25:53Z</time>
      </trkpt>
      <trkpt lat="43.85466" lon="6.92531">
        <ele>594.23</ele>
        <time>2013-05-30T15:26:09Z</time>
      </trkpt>
      <trkpt lat="43.85482" lon="6.92564">
        <ele>590.87</ele>
        <time>2013-05-30T15:26:16Z</time>
      </trkpt>
      <trkpt lat="43.85483" lon="6.92603">
        <ele>589.43</ele>
        <time>2013-05-30T15:26:27Z</time>
      </trkpt>
      <trkpt lat="43.8548" lon="6.92655">
        <ele>590.39</ele>
        <time>2013-05-30T15:27:32Z</time>
      </trkpt>
      <trkpt lat="43.85475" lon="6.92672">
        <ele>591.35</ele>
        <time>2013-05-30T15:27:50Z</time>
      </trkpt>
      <trkpt lat="43.85472" lon="6.92694">
        <ele>592.79</ele>
        <time>2013-05-30T15:28:00Z</time>
      </trkpt>
      <trkpt lat="43.8547" lon="6.92712">
        <ele>594.23</ele>
        <time>2013-05-30T15:28:10Z</time>
      </trkpt>
      <trkpt lat="43.85468" lon="6.92723">
        <ele>594.23</ele>
        <time>2013-05-30T15:28:15Z</time>
      </trkpt>
      <trkpt lat="43.85487" lon="6.92774">
        <ele>598.56</ele>
        <time>2013-05-30T15:28:45Z</time>
      </trkpt>
      <trkpt lat="43.85488" lon="6.92775">
        <ele>598.56</ele>
        <time>2013-05-30T15:28:46Z</time>
      </trkpt>
      <trkpt lat="43.85518" lon="6.92776">
        <ele>598.08</ele>
        <time>2013-05-30T15:29:06Z</time>
      </trkpt>
      <trkpt lat="43.85586" lon="6.92817">
        <ele>597.12</ele>
        <time>2013-05-30T15:29:31Z</time>
      </trkpt>
      <trkpt lat="43.8562" lon="6.92858">
        <ele>593.27</ele>
        <time>2013-05-30T15:29:43Z</time>
      </trkpt>
      <trkpt lat="43.85633" lon="6.92871">
        <ele>589.91</ele>
        <time>2013-05-30T15:29:48Z</time>
      </trkpt>
      <trkpt lat="43.85636" lon="6.92873">
        <ele>589.91</ele>
        <time>2013-05-30T15:29:49Z</time>
      </trkpt>
      <trkpt lat="43.85653" lon="6.92869">
        <ele>586.54</ele>
        <time>2013-05-30T15:29:56Z</time>
      </trkpt>
      <trkpt lat="43.8568" lon="6.92882">
        <ele>583.66</ele>
        <time>2013-05-30T15:30:16Z</time>
      </trkpt>
      <trkpt lat="43.85686" lon="6.92888">
        <ele>581.73</ele>
        <time>2013-05-30T15:31:30Z</time>
      </trkpt>
      <trkpt lat="43.85712" lon="6.92923">
        <ele>578.85</ele>
        <time>2013-05-30T15:32:01Z</time>
      </trkpt>
      <trkpt lat="43.85713" lon="6.92926">
        <ele>578.85</ele>
        <time>2013-05-30T15:32:04Z</time>
      </trkpt>
      <trkpt lat="43.85733" lon="6.92984">
        <ele>574.53</ele>
        <time>2013-05-30T15:32:21Z</time>
      </trkpt>
      <trkpt lat="43.85735" lon="6.9299">
        <ele>574.53</ele>
        <time>2013-05-30T15:32:22Z</time>
      </trkpt>
      <trkpt lat="43.8574" lon="6.93012">
        <ele>572.6</ele>
        <time>2013-05-30T15:32:27Z</time>
      </trkpt>
      <trkpt lat="43.85769" lon="6.93036">
        <ele>568.28</ele>
        <time>2013-05-30T15:32:52Z</time>
      </trkpt>
      <trkpt lat="43.85775" lon="6.93042">
        <ele>566.83</ele>
        <time>2013-05-30T15:32:58Z</time>
      </trkpt>
      <trkpt lat="43.85804" lon="6.93051">
        <ele>567.32</ele>
        <time>2013-05-30T15:33:09Z</time>
      </trkpt>
      <trkpt lat="43.85828" lon="6.93069">
        <ele>568.28</ele>
        <time>2013-05-30T15:33:26Z</time>
      </trkpt>
      <trkpt lat="43.85839" lon="6.9311">
        <ele>567.32</ele>
        <time>2013-05-30T15:33:38Z</time>
      </trkpt>
      <trkpt lat="43.8585" lon="6.93163">
        <ele>569.72</ele>
        <time>2013-05-30T15:34:01Z</time>
      </trkpt>
      <trkpt lat="43.85902" lon="6.9326">
        <ele>565.39</ele>
        <time>2013-05-30T15:34:33Z</time>
      </trkpt>
      <trkpt lat="43.85907" lon="6.93273">
        <ele>565.39</ele>
        <time>2013-05-30T15:34:37Z</time>
      </trkpt>
      <trkpt lat="43.85925" lon="6.93309">
        <ele>562.03</ele>
        <time>2013-05-30T15:35:03Z</time>
      </trkpt>
      <trkpt lat="43.85935" lon="6.93319">
        <ele>560.59</ele>
        <time>2013-05-30T15:35:17Z</time>
      </trkpt>
      <trkpt lat="43.85949" lon="6.93329">
        <ele>557.7</ele>
        <time>2013-05-30T15:35:22Z</time>
      </trkpt>
      <trkpt lat="43.85964" lon="6.93339">
        <ele>553.38</ele>
        <time>2013-05-30T15:35:27Z</time>
      </trkpt>
      <trkpt lat="43.85971" lon="6.93342">
        <ele>551.93</ele>
        <time>2013-05-30T15:35:29Z</time>
      </trkpt>
      <trkpt lat="43.85987" lon="6.93322">
        <ele>549.05</ele>
        <time>2013-05-30T15:35:35Z</time>
      </trkpt>
      <trkpt lat="43.86001" lon="6.93312">
        <ele>547.13</ele>
        <time>2013-05-30T15:35:48Z</time>
      </trkpt>
      <trkpt lat="43.8601" lon="6.93334">
        <ele>544.72</ele>
        <time>2013-05-30T15:35:56Z</time>
      </trkpt>
      <trkpt lat="43.86011" lon="6.93336">
        <ele>544.72</ele>
        <time>2013-05-30T15:35:57Z</time>
      </trkpt>
      <trkpt lat="43.8603" lon="6.93338">
        <ele>540.4</ele>
        <time>2013-05-30T15:36:05Z</time>
      </trkpt>
      <trkpt lat="43.86041" lon="6.93345">
        <ele>540.4</ele>
        <time>2013-05-30T15:36:09Z</time>
      </trkpt>
      <trkpt lat="43.86089" lon="6.93405">
        <ele>543.28</ele>
        <time>2013-05-30T15:36:37Z</time>
      </trkpt>
      <trkpt lat="43.86107" lon="6.93467">
        <ele>540.4</ele>
        <time>2013-05-30T15:37:28Z</time>
      </trkpt>
      <trkpt lat="43.86118" lon="6.93486">
        <ele>536.07</ele>
        <time>2013-05-30T15:37:35Z</time>
      </trkpt>
      <trkpt lat="43.86128" lon="6.93505">
        <ele>532.23</ele>
        <time>2013-05-30T15:37:42Z</time>
      </trkpt>
      <trkpt lat="43.86138" lon="6.93509">
        <ele>527.42</ele>
        <time>2013-05-30T15:37:47Z</time>
      </trkpt>
      <trkpt lat="43.86146" lon="6.93506">
        <ele>525.02</ele>
        <time>2013-05-30T15:37:50Z</time>
      </trkpt>
      <trkpt lat="43.86169" lon="6.93492">
        <ele>519.73</ele>
        <time>2013-05-30T15:37:57Z</time>
      </trkpt>
      <trkpt lat="43.86182" lon="6.93456">
        <ele>519.73</ele>
        <time>2013-05-30T15:38:11Z</time>
      </trkpt>
      <trkpt lat="43.86188" lon="6.93454">
        <ele>519.73</ele>
        <time>2013-05-30T15:38:25Z</time>
      </trkpt>
      <trkpt lat="43.86199" lon="6.93454">
        <ele>519.25</ele>
        <time>2013-05-30T15:38:44Z</time>
      </trkpt>
      <trkpt lat="43.8626" lon="6.93524">
        <ele>516.85</ele>
        <time>2013-05-30T15:39:22Z</time>
      </trkpt>
      <trkpt lat="43.86266" lon="6.93542">
        <ele>513.96</ele>
        <time>2013-05-30T15:39:25Z</time>
      </trkpt>
      <trkpt lat="43.86268" lon="6.93547">
        <ele>513</ele>
        <time>2013-05-30T15:39:26Z</time>
      </trkpt>
      <trkpt lat="43.8628" lon="6.9357">
        <ele>509.64</ele>
        <time>2013-05-30T15:39:31Z</time>
      </trkpt>
      <trkpt lat="43.86282" lon="6.93572">
        <ele>509.64</ele>
        <time>2013-05-30T15:39:32Z</time>
      </trkpt>
      <trkpt lat="43.86311" lon="6.93588">
        <ele>510.6</ele>
        <time>2013-05-30T15:39:52Z</time>
      </trkpt>
      <trkpt lat="43.86315" lon="6.93618">
        <ele>507.71</ele>
        <time>2013-05-30T15:40:01Z</time>
      </trkpt>
      <trkpt lat="43.86318" lon="6.93637">
        <ele>508.67</ele>
        <time>2013-05-30T15:40:20Z</time>
      </trkpt>
      <trkpt lat="43.86304" lon="6.93672">
        <ele>508.19</ele>
        <time>2013-05-30T15:40:33Z</time>
      </trkpt>
      <trkpt lat="43.86272" lon="6.93702">
        <ele>505.31</ele>
        <time>2013-05-30T15:40:48Z</time>
      </trkpt>
      <trkpt lat="43.86292" lon="6.93764">
        <ele>504.35</ele>
        <time>2013-05-30T15:41:07Z</time>
      </trkpt>
      <trkpt lat="43.86308" lon="6.93804">
        <ele>500.98</ele>
        <time>2013-05-30T15:41:16Z</time>
      </trkpt>
      <trkpt lat="43.86304" lon="6.93826">
        <ele>497.62</ele>
        <time>2013-05-30T15:41:28Z</time>
      </trkpt>
      <trkpt lat="43.86304" lon="6.93825">
        <ele>497.14</ele>
        <time>2013-05-30T15:42:16Z</time>
      </trkpt>
      <trkpt lat="43.8631" lon="6.93848">
        <ele>490.89</ele>
        <time>2013-05-30T15:42:25Z</time>
      </trkpt>
      <trkpt lat="43.86312" lon="6.93856">
        <ele>487.05</ele>
        <time>2013-05-30T15:42:30Z</time>
      </trkpt>
      <trkpt lat="43.86339" lon="6.93852">
        <ele>484.64</ele>
        <time>2013-05-30T15:42:51Z</time>
      </trkpt>
      <trkpt lat="43.86343" lon="6.93851">
        <ele>484.64</ele>
        <time>2013-05-30T15:43:19Z</time>
      </trkpt>
      <trkpt lat="43.86341" lon="6.93884">
        <ele>480.32</ele>
        <time>2013-05-30T15:43:29Z</time>
      </trkpt>
      <trkpt lat="43.86338" lon="6.93908">
        <ele>476.95</ele>
        <time>2013-05-30T15:43:35Z</time>
      </trkpt>
      <trkpt lat="43.86335" lon="6.93929">
        <ele>472.63</ele>
        <time>2013-05-30T15:43:40Z</time>
      </trkpt>
      <trkpt lat="43.86328" lon="6.93997">
        <ele>469.26</ele>
        <time>2013-05-30T15:43:55Z</time>
      </trkpt>
      <trkpt lat="43.86326" lon="6.94023">
        <ele>465.9</ele>
        <time>2013-05-30T15:44:02Z</time>
      </trkpt>
      <trkpt lat="43.86322" lon="6.94121">
        <ele>463.01</ele>
        <time>2013-05-30T15:44:22Z</time>
      </trkpt>
      <trkpt lat="43.86312" lon="6.94137">
        <ele>463.97</ele>
        <time>2013-05-30T15:44:55Z</time>
      </trkpt>
      <trkpt lat="43.86312" lon="6.94139">
        <ele>463.97</ele>
        <time>2013-05-30T15:45:08Z</time>
      </trkpt>
      <trkpt lat="43.86301" lon="6.94172">
        <ele>460.61</ele>
        <time>2013-05-30T15:45:14Z</time>
      </trkpt>
      <trkpt lat="43.86302" lon="6.94193">
        <ele>459.65</ele>
        <time>2013-05-30T15:45:16Z</time>
      </trkpt>
      <trkpt lat="43.86305" lon="6.94216">
        <ele>456.76</ele>
        <time>2013-05-30T15:45:18Z</time>
      </trkpt>
      <trkpt lat="43.86303" lon="6.94249">
        <ele>453.4</ele>
        <time>2013-05-30T15:45:22Z</time>
      </trkpt>
      <trkpt lat="43.863" lon="6.94256">
        <ele>453.4</ele>
        <time>2013-05-30T15:45:23Z</time>
      </trkpt>
      <trkpt lat="43.86287" lon="6.94273">
        <ele>452.44</ele>
        <time>2013-05-30T15:45:26Z</time>
      </trkpt>
      <trkpt lat="43.86261" lon="6.94302">
        <ele>448.11</ele>
        <time>2013-05-30T15:45:33Z</time>
      </trkpt>
      <trkpt lat="43.86247" lon="6.94318">
        <ele>444.27</ele>
        <time>2013-05-30T15:45:37Z</time>
      </trkpt>
      <trkpt lat="43.86242" lon="6.9432">
        <ele>444.75</ele>
        <time>2013-05-30T15:45:38Z</time>
      </trkpt>
      <trkpt lat="43.86229" lon="6.9433">
        <ele>440.9</ele>
        <time>2013-05-30T15:45:42Z</time>
      </trkpt>
      <trkpt lat="43.86208" lon="6.94371">
        <ele>437.54</ele>
        <time>2013-05-30T15:45:50Z</time>
      </trkpt>
      <trkpt lat="43.86234" lon="6.94402">
        <ele>435.13</ele>
        <time>2013-05-30T15:45:56Z</time>
      </trkpt>
      <trkpt lat="43.86248" lon="6.94406">
        <ele>434.17</ele>
        <time>2013-05-30T15:45:58Z</time>
      </trkpt>
      <trkpt lat="43.86262" lon="6.94412">
        <ele>433.21</ele>
        <time>2013-05-30T15:46:00Z</time>
      </trkpt>
      <trkpt lat="43.86277" lon="6.9442">
        <ele>431.77</ele>
        <time>2013-05-30T15:46:02Z</time>
      </trkpt>
      <trkpt lat="43.8632" lon="6.9444">
        <ele>428.4</ele>
        <time>2013-05-30T15:46:08Z</time>
      </trkpt>
      <trkpt lat="43.86363" lon="6.94409">
        <ele>425.04</ele>
        <time>2013-05-30T15:46:14Z</time>
      </trkpt>
      <trkpt lat="43.86389" lon="6.94358">
        <ele>422.16</ele>
        <time>2013-05-30T15:46:19Z</time>
      </trkpt>
      <trkpt lat="43.86396" lon="6.94343">
        <ele>420.23</ele>
        <time>2013-05-30T15:46:22Z</time>
      </trkpt>
      <trkpt lat="43.86408" lon="6.94368">
        <ele>417.83</ele>
        <time>2013-05-30T15:46:26Z</time>
      </trkpt>
      <trkpt lat="43.86448" lon="6.94429">
        <ele>413.5</ele>
        <time>2013-05-30T15:46:36Z</time>
      </trkpt>
      <trkpt lat="43.86444" lon="6.94452">
        <ele>412.06</ele>
        <time>2013-05-30T15:46:39Z</time>
      </trkpt>
      <trkpt lat="43.86405" lon="6.94489">
        <ele>410.62</ele>
        <time>2013-05-30T15:46:46Z</time>
      </trkpt>
      <trkpt lat="43.864" lon="6.94496">
        <ele>410.14</ele>
        <time>2013-05-30T15:46:47Z</time>
      </trkpt>
      <trkpt lat="43.86388" lon="6.9452">
        <ele>409.66</ele>
        <time>2013-05-30T15:46:50Z</time>
      </trkpt>
      <trkpt lat="43.86399" lon="6.94551">
        <ele>408.22</ele>
        <time>2013-05-30T15:46:54Z</time>
      </trkpt>
      <trkpt lat="43.86404" lon="6.94553">
        <ele>407.74</ele>
        <time>2013-05-30T15:46:55Z</time>
      </trkpt>
      <trkpt lat="43.86442" lon="6.94565">
        <ele>407.26</ele>
        <time>2013-05-30T15:47:01Z</time>
      </trkpt>
      <trkpt lat="43.86481" lon="6.94627">
        <ele>405.33</ele>
        <time>2013-05-30T15:47:15Z</time>
      </trkpt>
      <trkpt lat="43.86482" lon="6.94644">
        <ele>405.81</ele>
        <time>2013-05-30T15:48:05Z</time>
      </trkpt>
      <trkpt lat="43.86503" lon="6.94694">
        <ele>404.37</ele>
        <time>2013-05-30T15:48:16Z</time>
      </trkpt>
      <trkpt lat="43.86512" lon="6.94758">
        <ele>403.41</ele>
        <time>2013-05-30T15:48:27Z</time>
      </trkpt>
      <trkpt lat="43.86508" lon="6.94778">
        <ele>403.41</ele>
        <time>2013-05-30T15:48:30Z</time>
      </trkpt>
      <trkpt lat="43.86525" lon="6.94906">
        <ele>401.49</ele>
        <time>2013-05-30T15:48:48Z</time>
      </trkpt>
      <trkpt lat="43.8649" lon="6.94922">
        <ele>401.01</ele>
        <time>2013-05-30T15:48:51Z</time>
      </trkpt>
      <trkpt lat="43.86356" lon="6.94914">
        <ele>399.08</ele>
        <time>2013-05-30T15:49:00Z</time>
      </trkpt>
      <trkpt lat="43.86571" lon="6.94929">
        <ele>398.12</ele>
        <time>2013-05-30T15:49:04Z</time>
      </trkpt>
      <trkpt lat="43.86578" lon="6.94963">
        <ele>397.16</ele>
        <time>2013-05-30T15:49:06Z</time>
      </trkpt>
      <trkpt lat="43.86609" lon="6.95011">
        <ele>397.16</ele>
        <time>2013-05-30T15:49:11Z</time>
      </trkpt>
      <trkpt lat="43.8664" lon="6.95015">
        <ele>395.24</ele>
        <time>2013-05-30T15:49:16Z</time>
      </trkpt>
      <trkpt lat="43.86653" lon="6.95009">
        <ele>395.24</ele>
        <time>2013-05-30T15:49:18Z</time>
      </trkpt>
      <trkpt lat="43.86658" lon="6.95004">
        <ele>394.76</ele>
        <time>2013-05-30T15:49:19Z</time>
      </trkpt>
      <trkpt lat="43.86682" lon="6.94984">
        <ele>394.28</ele>
        <time>2013-05-30T15:49:23Z</time>
      </trkpt>
      <trkpt lat="43.8672" lon="6.94989">
        <ele>392.36</ele>
        <time>2013-05-30T15:49:29Z</time>
      </trkpt>
      <trkpt lat="43.86723" lon="6.94999">
        <ele>392.36</ele>
        <time>2013-05-30T15:49:31Z</time>
      </trkpt>
      <trkpt lat="43.86704" lon="6.95063">
        <ele>393.32</ele>
        <time>2013-05-30T15:49:45Z</time>
      </trkpt>
      <trkpt lat="43.86627" lon="6.95104">
        <ele>396.2</ele>
        <time>2013-05-30T15:50:04Z</time>
      </trkpt>
      <trkpt lat="43.86623" lon="6.95106">
        <ele>396.2</ele>
        <time>2013-05-30T15:50:05Z</time>
      </trkpt>
      <trkpt lat="43.86576" lon="6.95098">
        <ele>397.64</ele>
        <time>2013-05-30T15:50:19Z</time>
      </trkpt>
      <trkpt lat="43.86568" lon="6.95119">
        <ele>394.76</ele>
        <time>2013-05-30T15:50:23Z</time>
      </trkpt>
      <trkpt lat="43.86569" lon="6.95126">
        <ele>394.76</ele>
        <time>2013-05-30T15:50:24Z</time>
      </trkpt>
      <trkpt lat="43.86577" lon="6.95169">
        <ele>391.39</ele>
        <time>2013-05-30T15:50:30Z</time>
      </trkpt>
      <trkpt lat="43.86583" lon="6.95184">
        <ele>390.43</ele>
        <time>2013-05-30T15:50:32Z</time>
      </trkpt>
      <trkpt lat="43.86613" lon="6.95271">
        <ele>387.07</ele>
        <time>2013-05-30T15:50:42Z</time>
      </trkpt>
      <trkpt lat="43.8662" lon="6.95358">
        <ele>384.66</ele>
        <time>2013-05-30T15:50:51Z</time>
      </trkpt>
      <trkpt lat="43.86617" lon="6.95408">
        <ele>383.7</ele>
        <time>2013-05-30T15:50:56Z</time>
      </trkpt>
      <trkpt lat="43.86624" lon="6.95519">
        <ele>380.82</ele>
        <time>2013-05-30T15:51:08Z</time>
      </trkpt>
      <trkpt lat="43.86621" lon="6.95528">
        <ele>380.82</ele>
        <time>2013-05-30T15:51:09Z</time>
      </trkpt>
      <trkpt lat="43.86527" lon="6.9564">
        <ele>378.42</ele>
        <time>2013-05-30T15:51:31Z</time>
      </trkpt>
      <trkpt lat="43.86509" lon="6.95671">
        <ele>377.94</ele>
        <time>2013-05-30T15:51:39Z</time>
      </trkpt>
      <trkpt lat="43.86517" lon="6.95698">
        <ele>377.94</ele>
        <time>2013-05-30T15:51:44Z</time>
      </trkpt>
      <trkpt lat="43.86547" lon="6.95823">
        <ele>377.45</ele>
        <time>2013-05-30T15:52:03Z</time>
      </trkpt>
      <trkpt lat="43.86577" lon="6.95965">
        <ele>376.97</ele>
        <time>2013-05-30T15:52:25Z</time>
      </trkpt>
      <trkpt lat="43.86578" lon="6.95976">
        <ele>376.97</ele>
        <time>2013-05-30T15:52:32Z</time>
      </trkpt>
      <trkpt lat="43.86534" lon="6.95992">
        <ele>375.53</ele>
        <time>2013-05-30T15:52:43Z</time>
      </trkpt>
      <trkpt lat="43.8653" lon="6.96021">
        <ele>375.53</ele>
        <time>2013-05-30T15:52:49Z</time>
      </trkpt>
      <trkpt lat="43.86543" lon="6.961">
        <ele>376.49</ele>
        <time>2013-05-30T15:53:06Z</time>
      </trkpt>
      <trkpt lat="43.86552" lon="6.96103">
        <ele>376.49</ele>
        <time>2013-05-30T15:53:09Z</time>
      </trkpt>
      <trkpt lat="43.86573" lon="6.96114">
        <ele>379.38</ele>
        <time>2013-05-30T15:53:18Z</time>
      </trkpt>
      <trkpt lat="43.86574" lon="6.96115">
        <ele>378.9</ele>
        <time>2013-05-30T15:53:19Z</time>
      </trkpt>
      <trkpt lat="43.86583" lon="6.96134">
        <ele>381.3</ele>
        <time>2013-05-30T15:53:36Z</time>
      </trkpt>
      <trkpt lat="43.86563" lon="6.96103">
        <ele>378.9</ele>
        <time>2013-05-30T15:53:44Z</time>
      </trkpt>
      <trkpt lat="43.86545" lon="6.96104">
        <ele>377.45</ele>
        <time>2013-05-30T15:53:56Z</time>
      </trkpt>
      <trkpt lat="43.86548" lon="6.96128">
        <ele>381.78</ele>
        <time>2013-05-30T15:54:12Z</time>
      </trkpt>
      <trkpt lat="43.86548" lon="6.9613">
        <ele>381.78</ele>
        <time>2013-05-30T15:54:13Z</time>
      </trkpt>
      <trkpt lat="43.86554" lon="6.96151">
        <ele>384.18</ele>
        <time>2013-05-30T15:54:38Z</time>
      </trkpt>
      <trkpt lat="43.86555" lon="6.96154">
        <ele>384.18</ele>
        <time>2013-05-30T15:54:40Z</time>
      </trkpt>
      <trkpt lat="43.86538" lon="6.96197">
        <ele>387.07</ele>
        <time>2013-05-30T15:55:00Z</time>
      </trkpt>
      <trkpt lat="43.86506" lon="6.96223">
        <ele>392.36</ele>
        <time>2013-05-30T15:55:29Z</time>
      </trkpt>
      <trkpt lat="43.86488" lon="6.96244">
        <ele>397.16</ele>
        <time>2013-05-30T15:56:00Z</time>
      </trkpt>
      <trkpt lat="43.86475" lon="6.96262">
        <ele>402.45</ele>
        <time>2013-05-30T15:56:28Z</time>
      </trkpt>
      <trkpt lat="43.86461" lon="6.96281">
        <ele>408.7</ele>
        <time>2013-05-30T15:57:01Z</time>
      </trkpt>
      <trkpt lat="43.86437" lon="6.96283">
        <ele>413.5</ele>
        <time>2013-05-30T15:57:42Z</time>
      </trkpt>
      <trkpt lat="43.86418" lon="6.96297">
        <ele>418.79</ele>
        <time>2013-05-30T15:58:18Z</time>
      </trkpt>
      <trkpt lat="43.86421" lon="6.96307">
        <ele>422.16</ele>
        <time>2013-05-30T15:58:35Z</time>
      </trkpt>
      <trkpt lat="43.86404" lon="6.96332">
        <ele>426.96</ele>
        <time>2013-05-30T15:59:13Z</time>
      </trkpt>
      <trkpt lat="43.86383" lon="6.96345">
        <ele>430.81</ele>
        <time>2013-05-30T15:59:46Z</time>
      </trkpt>
      <trkpt lat="43.86363" lon="6.96364">
        <ele>436.58</ele>
        <time>2013-05-30T16:00:27Z</time>
      </trkpt>
      <trkpt lat="43.86327" lon="6.9635">
        <ele>442.82</ele>
        <time>2013-05-30T16:01:13Z</time>
      </trkpt>
      <trkpt lat="43.86328" lon="6.96357">
        <ele>443.79</ele>
        <time>2013-05-30T16:01:53Z</time>
      </trkpt>
      <trkpt lat="43.86326" lon="6.96361">
        <ele>444.75</ele>
        <time>2013-05-30T16:02:11Z</time>
      </trkpt>
      <trkpt lat="43.86322" lon="6.96392">
        <ele>447.15</ele>
        <time>2013-05-30T16:02:28Z</time>
      </trkpt>
      <trkpt lat="43.8631" lon="6.96428">
        <ele>448.11</ele>
        <time>2013-05-30T16:02:45Z</time>
      </trkpt>
      <trkpt lat="43.86304" lon="6.96448">
        <ele>448.11</ele>
        <time>2013-05-30T16:02:52Z</time>
      </trkpt>
      <trkpt lat="43.86298" lon="6.96498">
        <ele>450.03</ele>
        <time>2013-05-30T16:03:13Z</time>
      </trkpt>
      <trkpt lat="43.86281" lon="6.96541">
        <ele>454.84</ele>
        <time>2013-05-30T16:03:53Z</time>
      </trkpt>
      <trkpt lat="43.86276" lon="6.96574">
        <ele>456.76</ele>
        <time>2013-05-30T16:04:21Z</time>
      </trkpt>
      <trkpt lat="43.86277" lon="6.96616">
        <ele>456.28</ele>
        <time>2013-05-30T16:04:38Z</time>
      </trkpt>
      <trkpt lat="43.86277" lon="6.96668">
        <ele>459.65</ele>
        <time>2013-05-30T16:05:09Z</time>
      </trkpt>
      <trkpt lat="43.86283" lon="6.96711">
        <ele>460.61</ele>
        <time>2013-05-30T16:05:25Z</time>
      </trkpt>
      <trkpt lat="43.86275" lon="6.96789">
        <ele>465.42</ele>
        <time>2013-05-30T16:06:03Z</time>
      </trkpt>
      <trkpt lat="43.86297" lon="6.96834">
        <ele>468.78</ele>
        <time>2013-05-30T16:06:20Z</time>
      </trkpt>
      <trkpt lat="43.8629" lon="6.96887">
        <ele>470.7</ele>
        <time>2013-05-30T16:06:52Z</time>
      </trkpt>
      <trkpt lat="43.86279" lon="6.97004">
        <ele>465.42</ele>
        <time>2013-05-30T16:07:03Z</time>
      </trkpt>
      <trkpt lat="43.86343" lon="6.97102">
        <ele>465.9</ele>
        <time>2013-05-30T16:07:28Z</time>
      </trkpt>
      <trkpt lat="43.86362" lon="6.97111">
        <ele>466.86</ele>
        <time>2013-05-30T16:07:34Z</time>
      </trkpt>
      <trkpt lat="43.86398" lon="6.97127">
        <ele>472.63</ele>
        <time>2013-05-30T16:07:59Z</time>
      </trkpt>
      <trkpt lat="43.86399" lon="6.97129">
        <ele>472.63</ele>
        <time>2013-05-30T16:08:00Z</time>
      </trkpt>
      <trkpt lat="43.86405" lon="6.97142">
        <ele>473.59</ele>
        <time>2013-05-30T16:08:07Z</time>
      </trkpt>
      <trkpt lat="43.86413" lon="6.97166">
        <ele>475.03</ele>
        <time>2013-05-30T16:08:19Z</time>
      </trkpt>
      <trkpt lat="43.86417" lon="6.9718">
        <ele>477.43</ele>
        <time>2013-05-30T16:08:26Z</time>
      </trkpt>
      <trkpt lat="43.86418" lon="6.97182">
        <ele>476.95</ele>
        <time>2013-05-30T16:08:27Z</time>
      </trkpt>
      <trkpt lat="43.86437" lon="6.9724">
        <ele>478.39</ele>
        <time>2013-05-30T16:08:52Z</time>
      </trkpt>
      <trkpt lat="43.86439" lon="6.97258">
        <ele>478.39</ele>
        <time>2013-05-30T16:09:10Z</time>
      </trkpt>
      <trkpt lat="43.86455" lon="6.9728">
        <ele>479.35</ele>
        <time>2013-05-30T16:09:38Z</time>
      </trkpt>
      <trkpt lat="43.86455" lon="6.97286">
        <ele>478.39</ele>
        <time>2013-05-30T16:14:51Z</time>
      </trkpt>
      <trkpt lat="43.86476" lon="6.97327">
        <ele>479.84</ele>
        <time>2013-05-30T16:23:57Z</time>
      </trkpt>
      <trkpt lat="43.86493" lon="6.97426">
        <ele>480.8</ele>
        <time>2013-05-30T16:24:21Z</time>
      </trkpt>
      <trkpt lat="43.86499" lon="6.97452">
        <ele>481.28</ele>
        <time>2013-05-30T16:24:29Z</time>
      </trkpt>
      <trkpt lat="43.86483" lon="6.97484">
        <ele>482.24</ele>
        <time>2013-05-30T16:24:47Z</time>
      </trkpt>
      <trkpt lat="43.86497" lon="6.97489">
        <ele>480.8</ele>
        <time>2013-05-30T16:24:50Z</time>
      </trkpt>
      <trkpt lat="43.86503" lon="6.97494">
        <ele>479.35</ele>
        <time>2013-05-30T16:24:52Z</time>
      </trkpt>
      <trkpt lat="43.86513" lon="6.97527">
        <ele>476.47</ele>
        <time>2013-05-30T16:24:58Z</time>
      </trkpt>
      <trkpt lat="43.86515" lon="6.97561">
        <ele>474.55</ele>
        <time>2013-05-30T16:25:04Z</time>
      </trkpt>
      <trkpt lat="43.86553" lon="6.97595">
        <ele>475.03</ele>
        <time>2013-05-30T16:25:19Z</time>
      </trkpt>
      <trkpt lat="43.86642" lon="6.97729">
        <ele>475.03</ele>
        <time>2013-05-30T16:25:53Z</time>
      </trkpt>
      <trkpt lat="43.86652" lon="6.97745">
        <ele>473.59</ele>
        <time>2013-05-30T16:25:56Z</time>
      </trkpt>
      <trkpt lat="43.86654" lon="6.9775">
        <ele>473.59</ele>
        <time>2013-05-30T16:25:57Z</time>
      </trkpt>
      <trkpt lat="43.86686" lon="6.97841">
        <ele>467.82</ele>
        <time>2013-05-30T16:26:17Z</time>
      </trkpt>
      <trkpt lat="43.86688" lon="6.9785">
        <ele>467.34</ele>
        <time>2013-05-30T16:26:30Z</time>
      </trkpt>
      <trkpt lat="43.86717" lon="6.97885">
        <ele>466.86</ele>
        <time>2013-05-30T16:26:40Z</time>
      </trkpt>
      <trkpt lat="43.86723" lon="6.97894">
        <ele>466.38</ele>
        <time>2013-05-30T16:26:42Z</time>
      </trkpt>
      <trkpt lat="43.8676" lon="6.97951">
        <ele>464.93</ele>
        <time>2013-05-30T16:27:07Z</time>
      </trkpt>
      <trkpt lat="43.86776" lon="6.98015">
        <ele>464.93</ele>
        <time>2013-05-30T16:27:29Z</time>
      </trkpt>
      <trkpt lat="43.868" lon="6.98078">
        <ele>467.82</ele>
        <time>2013-05-30T16:27:45Z</time>
      </trkpt>
      <trkpt lat="43.86808" lon="6.98105">
        <ele>469.74</ele>
        <time>2013-05-30T16:27:55Z</time>
      </trkpt>
      <trkpt lat="43.86823" lon="6.98167">
        <ele>471.18</ele>
        <time>2013-05-30T16:28:13Z</time>
      </trkpt>
      <trkpt lat="43.86817" lon="6.98201">
        <ele>470.7</ele>
        <time>2013-05-30T16:28:23Z</time>
      </trkpt>
      <trkpt lat="43.86824" lon="6.98252">
        <ele>467.82</ele>
        <time>2013-05-30T16:28:36Z</time>
      </trkpt>
      <trkpt lat="43.8682" lon="6.98259">
        <ele>468.3</ele>
        <time>2013-05-30T16:28:40Z</time>
      </trkpt>
      <trkpt lat="43.86824" lon="6.98317">
        <ele>463.01</ele>
        <time>2013-05-30T16:28:56Z</time>
      </trkpt>
      <trkpt lat="43.86819" lon="6.98354">
        <ele>459.65</ele>
        <time>2013-05-30T16:29:01Z</time>
      </trkpt>
      <trkpt lat="43.86807" lon="6.9839">
        <ele>455.32</ele>
        <time>2013-05-30T16:29:07Z</time>
      </trkpt>
      <trkpt lat="43.86816" lon="6.98382">
        <ele>451.48</ele>
        <time>2013-05-30T16:29:15Z</time>
      </trkpt>
      <trkpt lat="43.86817" lon="6.98382">
        <ele>451.48</ele>
        <time>2013-05-30T16:29:18Z</time>
      </trkpt>
      <trkpt lat="43.8681" lon="6.98421">
        <ele>447.63</ele>
        <time>2013-05-30T16:29:26Z</time>
      </trkpt>
      <trkpt lat="43.8682" lon="6.98424">
        <ele>441.86</ele>
        <time>2013-05-30T16:29:34Z</time>
      </trkpt>
      <trkpt lat="43.86833" lon="6.9842">
        <ele>438.5</ele>
        <time>2013-05-30T16:29:40Z</time>
      </trkpt>
      <trkpt lat="43.86813" lon="6.98456">
        <ele>434.65</ele>
        <time>2013-05-30T16:29:49Z</time>
      </trkpt>
      <trkpt lat="43.86816" lon="6.9846">
        <ele>430.81</ele>
        <time>2013-05-30T16:29:56Z</time>
      </trkpt>
      <trkpt lat="43.86835" lon="6.98443">
        <ele>426.48</ele>
        <time>2013-05-30T16:30:01Z</time>
      </trkpt>
      <trkpt lat="43.86842" lon="6.98444">
        <ele>425.52</ele>
        <time>2013-05-30T16:31:38Z</time>
      </trkpt>
      <trkpt lat="43.86842" lon="6.98444">
        <ele>425.04</ele>
        <time>2013-05-30T16:31:48Z</time>
      </trkpt>
      <trkpt lat="43.86837" lon="6.98478">
        <ele>421.19</ele>
        <time>2013-05-30T16:31:56Z</time>
      </trkpt>
      <trkpt lat="43.86835" lon="6.98484">
        <ele>421.19</ele>
        <time>2013-05-30T16:31:57Z</time>
      </trkpt>
      <trkpt lat="43.86824" lon="6.98518">
        <ele>416.39</ele>
        <time>2013-05-30T16:32:03Z</time>
      </trkpt>
      <trkpt lat="43.8682" lon="6.98523">
        <ele>415.43</ele>
        <time>2013-05-30T16:32:16Z</time>
      </trkpt>
      <trkpt lat="43.86821" lon="6.98523">
        <ele>414.95</ele>
        <time>2013-05-30T16:32:18Z</time>
      </trkpt>
      <trkpt lat="43.86848" lon="6.98503">
        <ele>409.18</ele>
        <time>2013-05-30T16:32:29Z</time>
      </trkpt>
      <trkpt lat="43.86851" lon="6.98501">
        <ele>409.18</ele>
        <time>2013-05-30T16:32:30Z</time>
      </trkpt>
      <trkpt lat="43.86864" lon="6.98487">
        <ele>405.33</ele>
        <time>2013-05-30T16:32:36Z</time>
      </trkpt>
      <trkpt lat="43.86868" lon="6.98488">
        <ele>403.89</ele>
        <time>2013-05-30T16:32:40Z</time>
      </trkpt>
      <trkpt lat="43.8686" lon="6.98506">
        <ele>400.05</ele>
        <time>2013-05-30T16:32:51Z</time>
      </trkpt>
      <trkpt lat="43.86872" lon="6.98506">
        <ele>396.2</ele>
        <time>2013-05-30T16:32:58Z</time>
      </trkpt>
      <trkpt lat="43.86877" lon="6.98513">
        <ele>392.84</ele>
        <time>2013-05-30T16:33:14Z</time>
      </trkpt>
      <trkpt lat="43.86896" lon="6.98532">
        <ele>388.51</ele>
        <time>2013-05-30T16:33:21Z</time>
      </trkpt>
      <trkpt lat="43.86898" lon="6.98549">
        <ele>385.15</ele>
        <time>2013-05-30T16:33:26Z</time>
      </trkpt>
      <trkpt lat="43.86904" lon="6.9856">
        <ele>381.78</ele>
        <time>2013-05-30T16:33:31Z</time>
      </trkpt>
      <trkpt lat="43.86903" lon="6.98562">
        <ele>381.78</ele>
        <time>2013-05-30T16:33:32Z</time>
      </trkpt>
      <trkpt lat="43.86897" lon="6.98578">
        <ele>378.9</ele>
        <time>2013-05-30T16:34:19Z</time>
      </trkpt>
      <trkpt lat="43.86917" lon="6.98545">
        <ele>373.13</ele>
        <time>2013-05-30T16:34:33Z</time>
      </trkpt>
      <trkpt lat="43.86918" lon="6.9858">
        <ele>368.8</ele>
        <time>2013-05-30T16:34:44Z</time>
      </trkpt>
      <trkpt lat="43.86919" lon="6.98581">
        <ele>369.28</ele>
        <time>2013-05-30T16:34:45Z</time>
      </trkpt>
      <trkpt lat="43.86928" lon="6.98573">
        <ele>365.44</ele>
        <time>2013-05-30T16:34:51Z</time>
      </trkpt>
      <trkpt lat="43.86925" lon="6.98585">
        <ele>364</ele>
        <time>2013-05-30T16:35:03Z</time>
      </trkpt>
      <trkpt lat="43.86928" lon="6.98587">
        <ele>359.67</ele>
        <time>2013-05-30T16:40:49Z</time>
      </trkpt>
      <trkpt lat="43.86926" lon="6.98601">
        <ele>357.75</ele>
        <time>2013-05-30T16:51:16Z</time>
      </trkpt>
      <trkpt lat="43.86928" lon="6.98606">
        <ele>357.75</ele>
        <time>2013-05-30T16:51:20Z</time>
      </trkpt>
      <trkpt lat="43.86937" lon="6.98613">
        <ele>356.79</ele>
        <time>2013-05-30T16:51:32Z</time>
      </trkpt>
      <trkpt lat="43.86979" lon="6.98626">
        <ele>354.86</ele>
        <time>2013-05-30T16:51:43Z</time>
      </trkpt>
      <trkpt lat="43.8702" lon="6.98657">
        <ele>352.46</ele>
        <time>2013-05-30T16:51:52Z</time>
      </trkpt>
      <trkpt lat="43.87106" lon="6.98752">
        <ele>351.02</ele>
        <time>2013-05-30T16:52:19Z</time>
      </trkpt>
      <trkpt lat="43.87159" lon="6.98785">
        <ele>351.02</ele>
        <time>2013-05-30T16:52:32Z</time>
      </trkpt>
      <trkpt lat="43.87199" lon="6.98802">
        <ele>353.9</ele>
        <time>2013-05-30T16:52:47Z</time>
      </trkpt>
      <trkpt lat="43.87242" lon="6.98823">
        <ele>357.27</ele>
        <time>2013-05-30T16:53:09Z</time>
      </trkpt>
      <trkpt lat="43.87295" lon="6.98849">
        <ele>360.15</ele>
        <time>2013-05-30T16:53:29Z</time>
      </trkpt>
      <trkpt lat="43.87316" lon="6.98892">
        <ele>363.04</ele>
        <time>2013-05-30T16:53:42Z</time>
      </trkpt>
      <trkpt lat="43.8736" lon="6.99001">
        <ele>367.84</ele>
        <time>2013-05-30T16:54:16Z</time>
      </trkpt>
      <trkpt lat="43.87396" lon="6.99044">
        <ele>366.88</ele>
        <time>2013-05-30T16:54:28Z</time>
      </trkpt>
      <trkpt lat="43.87422" lon="6.99166">
        <ele>366.4</ele>
        <time>2013-05-30T16:54:40Z</time>
      </trkpt>
      <trkpt lat="43.8742" lon="6.9918">
        <ele>358.23</ele>
        <time>2013-05-30T16:54:41Z</time>
      </trkpt>
      <trkpt lat="43.87418" lon="6.99207">
        <ele>354.38</ele>
        <time>2013-05-30T16:54:43Z</time>
      </trkpt>
      <trkpt lat="43.87417" lon="6.99238">
        <ele>350.54</ele>
        <time>2013-05-30T16:54:46Z</time>
      </trkpt>
      <trkpt lat="43.87417" lon="6.99265">
        <ele>345.73</ele>
        <time>2013-05-30T16:54:49Z</time>
      </trkpt>
      <trkpt lat="43.87422" lon="6.99292">
        <ele>341.89</ele>
        <time>2013-05-30T16:54:53Z</time>
      </trkpt>
      <trkpt lat="43.87425" lon="6.99285">
        <ele>338.52</ele>
        <time>2013-05-30T16:55:04Z</time>
      </trkpt>
      <trkpt lat="43.87423" lon="6.99284">
        <ele>339</ele>
        <time>2013-05-30T16:55:06Z</time>
      </trkpt>
      <trkpt lat="43.87421" lon="6.99285">
        <ele>339.48</ele>
        <time>2013-05-30T16:55:11Z</time>
      </trkpt>
      <trkpt lat="43.87674" lon="6.99318">
        <ele>338.52</ele>
        <time>2013-05-30T16:55:16Z</time>
      </trkpt>
      <trkpt lat="43.87786" lon="6.99334">
        <ele>339.48</ele>
        <time>2013-05-30T16:55:19Z</time>
      </trkpt>
      <trkpt lat="43.87486" lon="6.99294">
        <ele>339.48</ele>
        <time>2013-05-30T16:55:28Z</time>
      </trkpt>
      <trkpt lat="43.87543" lon="6.99308">
        <ele>339</ele>
        <time>2013-05-30T16:55:31Z</time>
      </trkpt>
      <trkpt lat="43.87457" lon="6.99309">
        <ele>339</ele>
        <time>2013-05-30T16:55:36Z</time>
      </trkpt>
      <trkpt lat="43.87431" lon="6.99281">
        <ele>338.52</ele>
        <time>2013-05-30T16:55:38Z</time>
      </trkpt>
      <trkpt lat="43.87427" lon="6.99289">
        <ele>336.12</ele>
        <time>2013-05-30T16:55:46Z</time>
      </trkpt>
      <trkpt lat="43.87424" lon="6.9935">
        <ele>331.79</ele>
        <time>2013-05-30T16:55:56Z</time>
      </trkpt>
      <trkpt lat="43.87409" lon="6.99385">
        <ele>327.47</ele>
        <time>2013-05-30T16:56:00Z</time>
      </trkpt>
      <trkpt lat="43.87398" lon="6.99418">
        <ele>323.62</ele>
        <time>2013-05-30T16:56:04Z</time>
      </trkpt>
      <trkpt lat="43.87382" lon="6.99469">
        <ele>319.3</ele>
        <time>2013-05-30T16:56:09Z</time>
      </trkpt>
      <trkpt lat="43.87347" lon="6.99664">
        <ele>318.33</ele>
        <time>2013-05-30T16:56:32Z</time>
      </trkpt>
      <trkpt lat="43.87341" lon="6.9979">
        <ele>316.41</ele>
        <time>2013-05-30T16:56:47Z</time>
      </trkpt>
      <trkpt lat="43.87327" lon="6.99928">
        <ele>316.89</ele>
        <time>2013-05-30T16:57:04Z</time>
      </trkpt>
      <trkpt lat="43.87318" lon="6.99966">
        <ele>317.37</ele>
        <time>2013-05-30T16:57:10Z</time>
      </trkpt>
      <trkpt lat="43.873" lon="7.00046">
        <ele>316.41</ele>
        <time>2013-05-30T16:57:20Z</time>
      </trkpt>
      <trkpt lat="43.87268" lon="7.00157">
        <ele>312.57</ele>
        <time>2013-05-30T16:57:34Z</time>
      </trkpt>
      <trkpt lat="43.87259" lon="7.00227">
        <ele>313.53</ele>
        <time>2013-05-30T16:57:43Z</time>
      </trkpt>
      <trkpt lat="43.87258" lon="7.00276">
        <ele>315.45</ele>
        <time>2013-05-30T16:57:53Z</time>
      </trkpt>
      <trkpt lat="43.87258" lon="7.00285">
        <ele>315.45</ele>
        <time>2013-05-30T16:57:55Z</time>
      </trkpt>
      <trkpt lat="43.87257" lon="7.0031">
        <ele>314.49</ele>
        <time>2013-05-30T16:58:00Z</time>
      </trkpt>
      <trkpt lat="43.87263" lon="7.00401">
        <ele>310.64</ele>
        <time>2013-05-30T16:58:12Z</time>
      </trkpt>
      <trkpt lat="43.87251" lon="7.00461">
        <ele>306.8</ele>
        <time>2013-05-30T16:58:45Z</time>
      </trkpt>
      <trkpt lat="43.87249" lon="7.00474">
        <ele>305.36</ele>
        <time>2013-05-30T16:58:55Z</time>
      </trkpt>
      <trkpt lat="43.87252" lon="7.00518">
        <ele>303.91</ele>
        <time>2013-05-30T16:59:01Z</time>
      </trkpt>
      <trkpt lat="43.87258" lon="7.00588">
        <ele>301.99</ele>
        <time>2013-05-30T16:59:11Z</time>
      </trkpt>
      <trkpt lat="43.87283" lon="7.00594">
        <ele>302.95</ele>
        <time>2013-05-30T16:59:22Z</time>
      </trkpt>
      <trkpt lat="43.8733" lon="7.0061">
        <ele>301.99</ele>
        <time>2013-05-30T16:59:36Z</time>
      </trkpt>
      <trkpt lat="43.87355" lon="7.00643">
        <ele>301.99</ele>
        <time>2013-05-30T16:59:43Z</time>
      </trkpt>
      <trkpt lat="43.87396" lon="7.00687">
        <ele>302.47</ele>
        <time>2013-05-30T16:59:59Z</time>
      </trkpt>
      <trkpt lat="43.874" lon="7.00683">
        <ele>302.47</ele>
        <time>2013-05-30T17:00:21Z</time>
      </trkpt>
      <trkpt lat="43.87422" lon="7.00736">
        <ele>303.91</ele>
        <time>2013-05-30T17:00:57Z</time>
      </trkpt>
      <trkpt lat="43.8746" lon="7.00826">
        <ele>306.32</ele>
        <time>2013-05-30T17:01:14Z</time>
      </trkpt>
      <trkpt lat="43.87477" lon="7.00901">
        <ele>308.72</ele>
        <time>2013-05-30T17:01:31Z</time>
      </trkpt>
      <trkpt lat="43.8746" lon="7.00923">
        <ele>308.72</ele>
        <time>2013-05-30T17:01:40Z</time>
      </trkpt>
      <trkpt lat="43.87421" lon="7.00936">
        <ele>308.24</ele>
        <time>2013-05-30T17:01:49Z</time>
      </trkpt>
      <trkpt lat="43.87358" lon="7.00863">
        <ele>309.68</ele>
        <time>2013-05-30T17:02:09Z</time>
      </trkpt>
      <trkpt lat="43.87343" lon="7.00841">
        <ele>309.68</ele>
        <time>2013-05-30T17:02:14Z</time>
      </trkpt>
      <trkpt lat="43.87335" lon="7.00826">
        <ele>310.16</ele>
        <time>2013-05-30T17:02:18Z</time>
      </trkpt>
      <trkpt lat="43.87268" lon="7.00761">
        <ele>310.64</ele>
        <time>2013-05-30T17:02:37Z</time>
      </trkpt>
      <trkpt lat="43.87222" lon="7.00675">
        <ele>311.6</ele>
        <time>2013-05-30T17:02:51Z</time>
      </trkpt>
      <trkpt lat="43.87171" lon="7.00647">
        <ele>312.57</ele>
        <time>2013-05-30T17:03:06Z</time>
      </trkpt>
      <trkpt lat="43.8715" lon="7.00657">
        <ele>313.05</ele>
        <time>2013-05-30T17:03:11Z</time>
      </trkpt>
      <trkpt lat="43.87144" lon="7.00662">
        <ele>313.05</ele>
        <time>2013-05-30T17:03:12Z</time>
      </trkpt>
      <trkpt lat="43.87085" lon="7.007">
        <ele>313.05</ele>
        <time>2013-05-30T17:03:19Z</time>
      </trkpt>
      <trkpt lat="43.87012" lon="7.00789">
        <ele>314.49</ele>
        <time>2013-05-30T17:03:36Z</time>
      </trkpt>
      <trkpt lat="43.86957" lon="7.00962">
        <ele>315.45</ele>
        <time>2013-05-30T17:04:02Z</time>
      </trkpt>
      <trkpt lat="43.86871" lon="7.01171">
        <ele>317.85</ele>
        <time>2013-05-30T17:04:38Z</time>
      </trkpt>
      <trkpt lat="43.86868" lon="7.01289">
        <ele>319.78</ele>
        <time>2013-05-30T17:04:58Z</time>
      </trkpt>
      <trkpt lat="43.86866" lon="7.013">
        <ele>319.78</ele>
        <time>2013-05-30T17:05:00Z</time>
      </trkpt>
      <trkpt lat="43.86869" lon="7.01338">
        <ele>319.78</ele>
        <time>2013-05-30T17:05:05Z</time>
      </trkpt>
      <trkpt lat="43.8687" lon="7.01359">
        <ele>319.78</ele>
        <time>2013-05-30T17:05:08Z</time>
      </trkpt>
      <trkpt lat="43.86846" lon="7.01391">
        <ele>320.26</ele>
        <time>2013-05-30T17:05:15Z</time>
      </trkpt>
      <trkpt lat="43.86791" lon="7.01398">
        <ele>321.22</ele>
        <time>2013-05-30T17:05:25Z</time>
      </trkpt>
      <trkpt lat="43.86762" lon="7.01437">
        <ele>321.7</ele>
        <time>2013-05-30T17:05:34Z</time>
      </trkpt>
      <trkpt lat="43.86754" lon="7.01475">
        <ele>321.22</ele>
        <time>2013-05-30T17:05:40Z</time>
      </trkpt>
      <trkpt lat="43.86718" lon="7.01527">
        <ele>322.66</ele>
        <time>2013-05-30T17:05:51Z</time>
      </trkpt>
      <trkpt lat="43.86715" lon="7.01531">
        <ele>322.66</ele>
        <time>2013-05-30T17:05:52Z</time>
      </trkpt>
      <trkpt lat="43.86688" lon="7.01577">
        <ele>323.14</ele>
        <time>2013-05-30T17:06:01Z</time>
      </trkpt>
      <trkpt lat="43.86615" lon="7.01627">
        <ele>325.06</ele>
        <time>2013-05-30T17:06:18Z</time>
      </trkpt>
      <trkpt lat="43.86596" lon="7.01669">
        <ele>325.06</ele>
        <time>2013-05-30T17:06:29Z</time>
      </trkpt>
      <trkpt lat="43.86595" lon="7.01671">
        <ele>325.54</ele>
        <time>2013-05-30T17:06:48Z</time>
      </trkpt>
      <trkpt lat="43.86578" lon="7.01715">
        <ele>327.95</ele>
        <time>2013-05-30T17:09:34Z</time>
      </trkpt>
      <trkpt lat="43.86543" lon="7.01755">
        <ele>328.43</ele>
        <time>2013-05-30T17:09:43Z</time>
      </trkpt>
      <trkpt lat="43.86455" lon="7.01825">
        <ele>330.83</ele>
        <time>2013-05-30T17:10:03Z</time>
      </trkpt>
      <trkpt lat="43.86449" lon="7.01835">
        <ele>330.83</ele>
        <time>2013-05-30T17:10:05Z</time>
      </trkpt>
      <trkpt lat="43.8639" lon="7.01874">
        <ele>331.31</ele>
        <time>2013-05-30T17:10:18Z</time>
      </trkpt>
      <trkpt lat="43.86288" lon="7.01891">
        <ele>332.75</ele>
        <time>2013-05-30T17:10:38Z</time>
      </trkpt>
      <trkpt lat="43.86208" lon="7.01875">
        <ele>334.68</ele>
        <time>2013-05-30T17:10:53Z</time>
      </trkpt>
      <trkpt lat="43.86183" lon="7.0188">
        <ele>334.68</ele>
        <time>2013-05-30T17:10:58Z</time>
      </trkpt>
      <trkpt lat="43.86178" lon="7.0188">
        <ele>334.68</ele>
        <time>2013-05-30T17:10:59Z</time>
      </trkpt>
      <trkpt lat="43.86151" lon="7.0188">
        <ele>335.16</ele>
        <time>2013-05-30T17:11:04Z</time>
      </trkpt>
      <trkpt lat="43.86063" lon="7.01952">
        <ele>337.08</ele>
        <time>2013-05-30T17:11:23Z</time>
      </trkpt>
      <trkpt lat="43.86042" lon="7.01994">
        <ele>337.56</ele>
        <time>2013-05-30T17:11:29Z</time>
      </trkpt>
      <trkpt lat="43.86006" lon="7.02065">
        <ele>338.52</ele>
        <time>2013-05-30T17:11:39Z</time>
      </trkpt>
      <trkpt lat="43.86007" lon="7.02126">
        <ele>339</ele>
        <time>2013-05-30T17:11:46Z</time>
      </trkpt>
      <trkpt lat="43.86009" lon="7.02133">
        <ele>339.48</ele>
        <time>2013-05-30T17:11:47Z</time>
      </trkpt>
      <trkpt lat="43.8606" lon="7.02262">
        <ele>340.44</ele>
        <time>2013-05-30T17:12:04Z</time>
      </trkpt>
      <trkpt lat="43.86087" lon="7.02389">
        <ele>341.41</ele>
        <time>2013-05-30T17:12:20Z</time>
      </trkpt>
      <trkpt lat="43.8608" lon="7.02424">
        <ele>339</ele>
        <time>2013-05-30T17:12:25Z</time>
      </trkpt>
      <trkpt lat="43.86075" lon="7.0245">
        <ele>335.64</ele>
        <time>2013-05-30T17:12:28Z</time>
      </trkpt>
      <trkpt lat="43.8607" lon="7.02477">
        <ele>332.27</ele>
        <time>2013-05-30T17:12:31Z</time>
      </trkpt>
      <trkpt lat="43.8606" lon="7.02509">
        <ele>328.91</ele>
        <time>2013-05-30T17:12:35Z</time>
      </trkpt>
      <trkpt lat="43.86043" lon="7.02587">
        <ele>323.62</ele>
        <time>2013-05-30T17:12:44Z</time>
      </trkpt>
      <trkpt lat="43.86039" lon="7.02605">
        <ele>319.78</ele>
        <time>2013-05-30T17:12:47Z</time>
      </trkpt>
      <trkpt lat="43.86038" lon="7.02608">
        <ele>319.3</ele>
        <time>2013-05-30T17:12:48Z</time>
      </trkpt>
      <trkpt lat="43.86035" lon="7.02581">
        <ele>316.41</ele>
        <time>2013-05-30T17:12:55Z</time>
      </trkpt>
      <trkpt lat="43.86036" lon="7.02563">
        <ele>315.45</ele>
        <time>2013-05-30T17:12:57Z</time>
      </trkpt>
      <trkpt lat="43.86042" lon="7.02448">
        <ele>313.53</ele>
        <time>2013-05-30T17:13:20Z</time>
      </trkpt>
      <trkpt lat="43.8604" lon="7.0245">
        <ele>313.05</ele>
        <time>2013-05-30T17:14:20Z</time>
      </trkpt>
      <trkpt lat="43.86039" lon="7.02451">
        <ele>313.05</ele>
        <time>2013-05-30T17:14:21Z</time>
      </trkpt>
      <trkpt lat="43.86049" lon="7.02462">
        <ele>315.93</ele>
        <time>2013-05-30T17:14:41Z</time>
      </trkpt>
      <trkpt lat="43.86053" lon="7.02453">
        <ele>323.62</ele>
        <time>2013-05-30T19:50:20Z</time>
      </trkpt>
      <trkpt lat="43.86053" lon="7.02453">
        <ele>305.36</ele>
        <time>2013-05-30T19:50:21Z</time>
      </trkpt>
      <trkpt lat="43.86053" lon="7.02453">
        <ele>305.36</ele>
        <time>2013-05-30T19:50:36Z</time>
      </trkpt>
      <trkpt lat="43.86053" lon="7.02453">
        <ele>323.62</ele>
        <time>2013-05-31T05:52:08Z</time>
      </trkpt>
      <trkpt lat="43.86053" lon="7.02453">
        <ele>348.13</ele>
        <time>2013-05-31T05:52:09Z</time>
      </trkpt>
      <trkpt lat="43.86053" lon="7.02453">
        <ele>323.62</ele>
        <time>2013-05-31T07:30:38Z</time>
      </trkpt>
      <trkpt lat="43.86053" lon="7.02453">
        <ele>358.23</ele>
        <time>2013-05-31T07:30:39Z</time>
      </trkpt>
      <trkpt lat="43.86055" lon="7.02453">
        <ele>358.23</ele>
        <time>2013-05-31T07:31:58Z</time>
      </trkpt>
      <trkpt lat="43.86051" lon="7.02461">
        <ele>352.94</ele>
        <time>2013-05-31T07:33:23Z</time>
      </trkpt>
      <trkpt lat="43.86051" lon="7.02469">
        <ele>352.94</ele>
        <time>2013-05-31T07:33:37Z</time>
      </trkpt>
      <trkpt lat="43.86039" lon="7.025">
        <ele>349.58</ele>
        <time>2013-05-31T07:35:38Z</time>
      </trkpt>
      <trkpt lat="43.86034" lon="7.02558">
        <ele>351.02</ele>
        <time>2013-05-31T07:35:51Z</time>
      </trkpt>
      <trkpt lat="43.8603" lon="7.02601">
        <ele>355.34</ele>
        <time>2013-05-31T07:36:05Z</time>
      </trkpt>
      <trkpt lat="43.86046" lon="7.02581">
        <ele>360.15</ele>
        <time>2013-05-31T07:36:27Z</time>
      </trkpt>
      <trkpt lat="43.86064" lon="7.02505">
        <ele>366.4</ele>
        <time>2013-05-31T07:37:00Z</time>
      </trkpt>
      <trkpt lat="43.86071" lon="7.02477">
        <ele>369.76</ele>
        <time>2013-05-31T07:37:15Z</time>
      </trkpt>
      <trkpt lat="43.86076" lon="7.02403">
        <ele>375.53</ele>
        <time>2013-05-31T07:37:46Z</time>
      </trkpt>
      <trkpt lat="43.86085" lon="7.02298">
        <ele>379.86</ele>
        <time>2013-05-31T07:38:21Z</time>
      </trkpt>
      <trkpt lat="43.86011" lon="7.02103">
        <ele>378.9</ele>
        <time>2013-05-31T07:38:50Z</time>
      </trkpt>
      <trkpt lat="43.86007" lon="7.02033">
        <ele>378.9</ele>
        <time>2013-05-31T07:38:59Z</time>
      </trkpt>
      <trkpt lat="43.86038" lon="7.01983">
        <ele>379.86</ele>
        <time>2013-05-31T07:39:08Z</time>
      </trkpt>
      <trkpt lat="43.86149" lon="7.01863">
        <ele>377.94</ele>
        <time>2013-05-31T07:39:34Z</time>
      </trkpt>
      <trkpt lat="43.86154" lon="7.01862">
        <ele>377.94</ele>
        <time>2013-05-31T07:39:35Z</time>
      </trkpt>
      <trkpt lat="43.86231" lon="7.01863">
        <ele>377.45</ele>
        <time>2013-05-31T07:39:48Z</time>
      </trkpt>
      <trkpt lat="43.86276" lon="7.01879">
        <ele>376.97</ele>
        <time>2013-05-31T07:39:55Z</time>
      </trkpt>
      <trkpt lat="43.86322" lon="7.0188">
        <ele>376.49</ele>
        <time>2013-05-31T07:40:03Z</time>
      </trkpt>
      <trkpt lat="43.8642" lon="7.01852">
        <ele>375.53</ele>
        <time>2013-05-31T07:40:22Z</time>
      </trkpt>
      <trkpt lat="43.86439" lon="7.01841">
        <ele>376.01</ele>
        <time>2013-05-31T07:40:26Z</time>
      </trkpt>
      <trkpt lat="43.86454" lon="7.01827">
        <ele>376.01</ele>
        <time>2013-05-31T07:40:29Z</time>
      </trkpt>
      <trkpt lat="43.86497" lon="7.01786">
        <ele>375.53</ele>
        <time>2013-05-31T07:40:38Z</time>
      </trkpt>
      <trkpt lat="43.86599" lon="7.01659">
        <ele>374.57</ele>
        <time>2013-05-31T07:41:02Z</time>
      </trkpt>
      <trkpt lat="43.86627" lon="7.01617">
        <ele>373.61</ele>
        <time>2013-05-31T07:41:11Z</time>
      </trkpt>
      <trkpt lat="43.86682" lon="7.01579">
        <ele>373.13</ele>
        <time>2013-05-31T07:41:20Z</time>
      </trkpt>
      <trkpt lat="43.86703" lon="7.01545">
        <ele>371.21</ele>
        <time>2013-05-31T07:41:31Z</time>
      </trkpt>
      <trkpt lat="43.86715" lon="7.01526">
        <ele>371.21</ele>
        <time>2013-05-31T07:42:32Z</time>
      </trkpt>
      <trkpt lat="43.86746" lon="7.01487">
        <ele>371.69</ele>
        <time>2013-05-31T07:42:40Z</time>
      </trkpt>
      <trkpt lat="43.8679" lon="7.01397">
        <ele>370.73</ele>
        <time>2013-05-31T07:42:53Z</time>
      </trkpt>
      <trkpt lat="43.86816" lon="7.01394">
        <ele>370.24</ele>
        <time>2013-05-31T07:42:57Z</time>
      </trkpt>
      <trkpt lat="43.8686" lon="7.01367">
        <ele>368.8</ele>
        <time>2013-05-31T07:43:06Z</time>
      </trkpt>
      <trkpt lat="43.86859" lon="7.0135">
        <ele>368.8</ele>
        <time>2013-05-31T07:43:08Z</time>
      </trkpt>
      <trkpt lat="43.86857" lon="7.01316">
        <ele>368.8</ele>
        <time>2013-05-31T07:43:12Z</time>
      </trkpt>
      <trkpt lat="43.86898" lon="7.01217">
        <ele>367.36</ele>
        <time>2013-05-31T07:43:25Z</time>
      </trkpt>
      <trkpt lat="43.86938" lon="7.01137">
        <ele>367.36</ele>
        <time>2013-05-31T07:43:37Z</time>
      </trkpt>
      <trkpt lat="43.86948" lon="7.01117">
        <ele>366.88</ele>
        <time>2013-05-31T07:43:40Z</time>
      </trkpt>
      <trkpt lat="43.87006" lon="7.00972">
        <ele>366.4</ele>
        <time>2013-05-31T07:44:01Z</time>
      </trkpt>
      <trkpt lat="43.87126" lon="7.00671">
        <ele>363.04</ele>
        <time>2013-05-31T07:44:45Z</time>
      </trkpt>
      <trkpt lat="43.8713" lon="7.00666">
        <ele>363.04</ele>
        <time>2013-05-31T07:44:46Z</time>
      </trkpt>
      <trkpt lat="43.87175" lon="7.00657">
        <ele>362.07</ele>
        <time>2013-05-31T07:44:54Z</time>
      </trkpt>
      <trkpt lat="43.87208" lon="7.00686">
        <ele>362.55</ele>
        <time>2013-05-31T07:45:01Z</time>
      </trkpt>
      <trkpt lat="43.87212" lon="7.00693">
        <ele>362.55</ele>
        <time>2013-05-31T07:45:02Z</time>
      </trkpt>
      <trkpt lat="43.87231" lon="7.00727">
        <ele>361.59</ele>
        <time>2013-05-31T07:45:07Z</time>
      </trkpt>
      <trkpt lat="43.87245" lon="7.00798">
        <ele>360.63</ele>
        <time>2013-05-31T07:45:16Z</time>
      </trkpt>
      <trkpt lat="43.87265" lon="7.00809">
        <ele>361.11</ele>
        <time>2013-05-31T07:45:19Z</time>
      </trkpt>
      <trkpt lat="43.87274" lon="7.00812">
        <ele>361.11</ele>
        <time>2013-05-31T07:45:21Z</time>
      </trkpt>
      <trkpt lat="43.8731" lon="7.00825">
        <ele>360.15</ele>
        <time>2013-05-31T07:45:28Z</time>
      </trkpt>
      <trkpt lat="43.87348" lon="7.00864">
        <ele>359.67</ele>
        <time>2013-05-31T07:45:36Z</time>
      </trkpt>
      <trkpt lat="43.87395" lon="7.00925">
        <ele>359.19</ele>
        <time>2013-05-31T07:45:47Z</time>
      </trkpt>
      <trkpt lat="43.87415" lon="7.00949">
        <ele>359.19</ele>
        <time>2013-05-31T07:45:52Z</time>
      </trkpt>
      <trkpt lat="43.8748" lon="7.00935">
        <ele>359.19</ele>
        <time>2013-05-31T07:46:05Z</time>
      </trkpt>
      <trkpt lat="43.87494" lon="7.00891">
        <ele>360.15</ele>
        <time>2013-05-31T07:46:14Z</time>
      </trkpt>
      <trkpt lat="43.87446" lon="7.00736">
        <ele>364</ele>
        <time>2013-05-31T07:46:47Z</time>
      </trkpt>
      <trkpt lat="43.87422" lon="7.00662">
        <ele>366.4</ele>
        <time>2013-05-31T07:47:03Z</time>
      </trkpt>
      <trkpt lat="43.87421" lon="7.00596">
        <ele>367.84</ele>
        <time>2013-05-31T07:47:18Z</time>
      </trkpt>
      <trkpt lat="43.87427" lon="7.00508">
        <ele>369.28</ele>
        <time>2013-05-31T07:48:02Z</time>
      </trkpt>
      <trkpt lat="43.87427" lon="7.0051">
        <ele>368.8</ele>
        <time>2013-05-31T07:48:35Z</time>
      </trkpt>
      <trkpt lat="43.87422" lon="7.0044">
        <ele>369.76</ele>
        <time>2013-05-31T07:48:55Z</time>
      </trkpt>
      <trkpt lat="43.87416" lon="7.00341">
        <ele>371.69</ele>
        <time>2013-05-31T07:49:24Z</time>
      </trkpt>
      <trkpt lat="43.87407" lon="7.00329">
        <ele>372.17</ele>
        <time>2013-05-31T07:49:43Z</time>
      </trkpt>
      <trkpt lat="43.87429" lon="7.00329">
        <ele>371.69</ele>
        <time>2013-05-31T07:50:22Z</time>
      </trkpt>
      <trkpt lat="43.87421" lon="7.00332">
        <ele>372.65</ele>
        <time>2013-05-31T07:55:58Z</time>
      </trkpt>
      <trkpt lat="43.87425" lon="7.00368">
        <ele>371.21</ele>
        <time>2013-05-31T07:56:11Z</time>
      </trkpt>
      <trkpt lat="43.87422" lon="7.00429">
        <ele>369.76</ele>
        <time>2013-05-31T07:56:22Z</time>
      </trkpt>
      <trkpt lat="43.87436" lon="7.00434">
        <ele>367.84</ele>
        <time>2013-05-31T07:59:44Z</time>
      </trkpt>
      <trkpt lat="43.87436" lon="7.0044">
        <ele>367.84</ele>
        <time>2013-05-31T07:59:47Z</time>
      </trkpt>
      <trkpt lat="43.87423" lon="7.00492">
        <ele>366.88</ele>
        <time>2013-05-31T08:00:00Z</time>
      </trkpt>
      <trkpt lat="43.87416" lon="7.00578">
        <ele>363.52</ele>
        <time>2013-05-31T08:00:22Z</time>
      </trkpt>
      <trkpt lat="43.87422" lon="7.00573">
        <ele>360.15</ele>
        <time>2013-05-31T08:04:10Z</time>
      </trkpt>
      <trkpt lat="43.87422" lon="7.00581">
        <ele>359.19</ele>
        <time>2013-05-31T08:10:08Z</time>
      </trkpt>
      <trkpt lat="43.87424" lon="7.00593">
        <ele>358.23</ele>
        <time>2013-05-31T08:10:52Z</time>
      </trkpt>
      <trkpt lat="43.87425" lon="7.00597">
        <ele>358.23</ele>
        <time>2013-05-31T08:10:54Z</time>
      </trkpt>
      <trkpt lat="43.87423" lon="7.00633">
        <ele>357.75</ele>
        <time>2013-05-31T08:11:19Z</time>
      </trkpt>
      <trkpt lat="43.87424" lon="7.00683">
        <ele>355.83</ele>
        <time>2013-05-31T08:11:52Z</time>
      </trkpt>
      <trkpt lat="43.87457" lon="7.00769">
        <ele>353.42</ele>
        <time>2013-05-31T08:12:16Z</time>
      </trkpt>
      <trkpt lat="43.87487" lon="7.00865">
        <ele>350.54</ele>
        <time>2013-05-31T08:12:29Z</time>
      </trkpt>
      <trkpt lat="43.87484" lon="7.00884">
        <ele>347.17</ele>
        <time>2013-05-31T08:12:44Z</time>
      </trkpt>
      <trkpt lat="43.87414" lon="7.00717">
        <ele>342.37</ele>
        <time>2013-05-31T08:13:12Z</time>
      </trkpt>
      <trkpt lat="43.87356" lon="7.00654">
        <ele>339.96</ele>
        <time>2013-05-31T08:13:34Z</time>
      </trkpt>
      <trkpt lat="43.87356" lon="7.00654">
        <ele>339.96</ele>
        <time>2013-05-31T08:13:54Z</time>
      </trkpt>
      <trkpt lat="43.87342" lon="7.00644">
        <ele>339.48</ele>
        <time>2013-05-31T08:14:09Z</time>
      </trkpt>
      <trkpt lat="43.87342" lon="7.00642">
        <ele>339</ele>
        <time>2013-05-31T08:14:35Z</time>
      </trkpt>
      <trkpt lat="43.87316" lon="7.00613">
        <ele>340.44</ele>
        <time>2013-05-31T08:14:48Z</time>
      </trkpt>
      <trkpt lat="43.87253" lon="7.00606">
        <ele>340.92</ele>
        <time>2013-05-31T08:15:04Z</time>
      </trkpt>
      <trkpt lat="43.8721" lon="7.00582">
        <ele>339.48</ele>
        <time>2013-05-31T08:15:23Z</time>
      </trkpt>
      <trkpt lat="43.87212" lon="7.00586">
        <ele>339.96</ele>
        <time>2013-05-31T08:15:26Z</time>
      </trkpt>
      <trkpt lat="43.8725" lon="7.00609">
        <ele>339.48</ele>
        <time>2013-05-31T08:15:39Z</time>
      </trkpt>
      <trkpt lat="43.87257" lon="7.00598">
        <ele>339</ele>
        <time>2013-05-31T08:15:52Z</time>
      </trkpt>
      <trkpt lat="43.87257" lon="7.00546">
        <ele>338.52</ele>
        <time>2013-05-31T08:16:05Z</time>
      </trkpt>
      <trkpt lat="43.87257" lon="7.00548">
        <ele>338.04</ele>
        <time>2013-05-31T08:16:06Z</time>
      </trkpt>
      <trkpt lat="43.8726" lon="7.00566">
        <ele>337.56</ele>
        <time>2013-05-31T08:16:12Z</time>
      </trkpt>
      <trkpt lat="43.87208" lon="7.00582">
        <ele>339.48</ele>
        <time>2013-05-31T08:16:42Z</time>
      </trkpt>
      <trkpt lat="43.87167" lon="7.00547">
        <ele>340.44</ele>
        <time>2013-05-31T08:16:58Z</time>
      </trkpt>
      <trkpt lat="43.87081" lon="7.0047">
        <ele>344.77</ele>
        <time>2013-05-31T08:17:34Z</time>
      </trkpt>
      <trkpt lat="43.87003" lon="7.0043">
        <ele>349.1</ele>
        <time>2013-05-31T08:18:04Z</time>
      </trkpt>
      <trkpt lat="43.86887" lon="7.0045">
        <ele>354.38</ele>
        <time>2013-05-31T08:18:50Z</time>
      </trkpt>
      <trkpt lat="43.86807" lon="7.00468">
        <ele>360.63</ele>
        <time>2013-05-31T08:19:26Z</time>
      </trkpt>
      <trkpt lat="43.86762" lon="7.00486">
        <ele>365.92</ele>
        <time>2013-05-31T08:19:54Z</time>
      </trkpt>
      <trkpt lat="43.86746" lon="7.00497">
        <ele>368.32</ele>
        <time>2013-05-31T08:20:06Z</time>
      </trkpt>
      <trkpt lat="43.86725" lon="7.00498">
        <ele>371.21</ele>
        <time>2013-05-31T08:20:22Z</time>
      </trkpt>
      <trkpt lat="43.8671" lon="7.00518">
        <ele>374.57</ele>
        <time>2013-05-31T08:20:37Z</time>
      </trkpt>
      <trkpt lat="43.86694" lon="7.00531">
        <ele>377.94</ele>
        <time>2013-05-31T08:20:54Z</time>
      </trkpt>
      <trkpt lat="43.86641" lon="7.00526">
        <ele>383.7</ele>
        <time>2013-05-31T08:21:33Z</time>
      </trkpt>
      <trkpt lat="43.86595" lon="7.00517">
        <ele>389.47</ele>
        <time>2013-05-31T08:22:09Z</time>
      </trkpt>
      <trkpt lat="43.86573" lon="7.00496">
        <ele>393.32</ele>
        <time>2013-05-31T08:22:33Z</time>
      </trkpt>
      <trkpt lat="43.86568" lon="7.00547">
        <ele>397.16</ele>
        <time>2013-05-31T08:23:08Z</time>
      </trkpt>
      <trkpt lat="43.86579" lon="7.00593">
        <ele>401.01</ele>
        <time>2013-05-31T08:23:34Z</time>
      </trkpt>
      <trkpt lat="43.86578" lon="7.00654">
        <ele>406.77</ele>
        <time>2013-05-31T08:24:12Z</time>
      </trkpt>
      <trkpt lat="43.86556" lon="7.00667">
        <ele>410.14</ele>
        <time>2013-05-31T08:24:32Z</time>
      </trkpt>
      <trkpt lat="43.86539" lon="7.00683">
        <ele>413.5</ele>
        <time>2013-05-31T08:24:52Z</time>
      </trkpt>
      <trkpt lat="43.86548" lon="7.00742">
        <ele>417.83</ele>
        <time>2013-05-31T08:25:23Z</time>
      </trkpt>
      <trkpt lat="43.86542" lon="7.00766">
        <ele>419.75</ele>
        <time>2013-05-31T08:25:37Z</time>
      </trkpt>
      <trkpt lat="43.8654" lon="7.00775">
        <ele>420.23</ele>
        <time>2013-05-31T08:25:42Z</time>
      </trkpt>
      <trkpt lat="43.86504" lon="7.00816">
        <ele>426</ele>
        <time>2013-05-31T08:26:19Z</time>
      </trkpt>
      <trkpt lat="43.86474" lon="7.00831">
        <ele>429.85</ele>
        <time>2013-05-31T08:26:46Z</time>
      </trkpt>
      <trkpt lat="43.86493" lon="7.0088">
        <ele>433.69</ele>
        <time>2013-05-31T08:27:17Z</time>
      </trkpt>
      <trkpt lat="43.86503" lon="7.0092">
        <ele>438.02</ele>
        <time>2013-05-31T08:27:42Z</time>
      </trkpt>
      <trkpt lat="43.86494" lon="7.00958">
        <ele>441.86</ele>
        <time>2013-05-31T08:28:07Z</time>
      </trkpt>
      <trkpt lat="43.86479" lon="7.01001">
        <ele>446.19</ele>
        <time>2013-05-31T08:28:35Z</time>
      </trkpt>
      <trkpt lat="43.86459" lon="7.01041">
        <ele>451</ele>
        <time>2013-05-31T08:29:07Z</time>
      </trkpt>
      <trkpt lat="43.86458" lon="7.01043">
        <ele>450.52</ele>
        <time>2013-05-31T08:29:08Z</time>
      </trkpt>
      <trkpt lat="43.86436" lon="7.01074">
        <ele>454.36</ele>
        <time>2013-05-31T08:29:34Z</time>
      </trkpt>
      <trkpt lat="43.86435" lon="7.01076">
        <ele>454.36</ele>
        <time>2013-05-31T08:29:35Z</time>
      </trkpt>
      <trkpt lat="43.86417" lon="7.01131">
        <ele>459.65</ele>
        <time>2013-05-31T08:30:10Z</time>
      </trkpt>
      <trkpt lat="43.86398" lon="7.01151">
        <ele>463.01</ele>
        <time>2013-05-31T08:30:29Z</time>
      </trkpt>
      <trkpt lat="43.86389" lon="7.01186">
        <ele>466.38</ele>
        <time>2013-05-31T08:30:54Z</time>
      </trkpt>
      <trkpt lat="43.86379" lon="7.01239">
        <ele>471.18</ele>
        <time>2013-05-31T08:31:26Z</time>
      </trkpt>
      <trkpt lat="43.86359" lon="7.01255">
        <ele>474.55</ele>
        <time>2013-05-31T08:31:44Z</time>
      </trkpt>
      <trkpt lat="43.8633" lon="7.01286">
        <ele>479.84</ele>
        <time>2013-05-31T08:32:14Z</time>
      </trkpt>
      <trkpt lat="43.86315" lon="7.01308">
        <ele>482.24</ele>
        <time>2013-05-31T08:33:17Z</time>
      </trkpt>
      <trkpt lat="43.86301" lon="7.0133">
        <ele>485.6</ele>
        <time>2013-05-31T08:33:42Z</time>
      </trkpt>
      <trkpt lat="43.86301" lon="7.01331">
        <ele>485.6</ele>
        <time>2013-05-31T08:33:43Z</time>
      </trkpt>
      <trkpt lat="43.86309" lon="7.01384">
        <ele>491.37</ele>
        <time>2013-05-31T08:34:13Z</time>
      </trkpt>
      <trkpt lat="43.86288" lon="7.01414">
        <ele>496.66</ele>
        <time>2013-05-31T08:34:46Z</time>
      </trkpt>
      <trkpt lat="43.86255" lon="7.01371">
        <ele>501.46</ele>
        <time>2013-05-31T08:35:17Z</time>
      </trkpt>
      <trkpt lat="43.86242" lon="7.01341">
        <ele>504.83</ele>
        <time>2013-05-31T08:35:37Z</time>
      </trkpt>
      <trkpt lat="43.86202" lon="7.01314">
        <ele>510.12</ele>
        <time>2013-05-31T08:36:12Z</time>
      </trkpt>
      <trkpt lat="43.86197" lon="7.01312">
        <ele>510.6</ele>
        <time>2013-05-31T08:36:16Z</time>
      </trkpt>
      <trkpt lat="43.86161" lon="7.01296">
        <ele>516.37</ele>
        <time>2013-05-31T08:36:48Z</time>
      </trkpt>
      <trkpt lat="43.86131" lon="7.01275">
        <ele>520.21</ele>
        <time>2013-05-31T08:37:17Z</time>
      </trkpt>
      <trkpt lat="43.86118" lon="7.01246">
        <ele>523.58</ele>
        <time>2013-05-31T08:37:37Z</time>
      </trkpt>
      <trkpt lat="43.86121" lon="7.01217">
        <ele>525.5</ele>
        <time>2013-05-31T08:37:53Z</time>
      </trkpt>
      <trkpt lat="43.86125" lon="7.01178">
        <ele>529.34</ele>
        <time>2013-05-31T08:38:15Z</time>
      </trkpt>
      <trkpt lat="43.86124" lon="7.01171">
        <ele>529.34</ele>
        <time>2013-05-31T08:38:19Z</time>
      </trkpt>
      <trkpt lat="43.86107" lon="7.01067">
        <ele>536.07</ele>
        <time>2013-05-31T08:39:09Z</time>
      </trkpt>
      <trkpt lat="43.86104" lon="7.00989">
        <ele>540.4</ele>
        <time>2013-05-31T08:39:44Z</time>
      </trkpt>
      <trkpt lat="43.86073" lon="7.00968">
        <ele>543.76</ele>
        <time>2013-05-31T08:40:05Z</time>
      </trkpt>
      <trkpt lat="43.86049" lon="7.00928">
        <ele>547.13</ele>
        <time>2013-05-31T08:40:25Z</time>
      </trkpt>
      <trkpt lat="43.86037" lon="7.00897">
        <ele>550.97</ele>
        <time>2013-05-31T08:40:44Z</time>
      </trkpt>
      <trkpt lat="43.8602" lon="7.00874">
        <ele>554.34</ele>
        <time>2013-05-31T08:41:01Z</time>
      </trkpt>
      <trkpt lat="43.85999" lon="7.00829">
        <ele>558.66</ele>
        <time>2013-05-31T08:41:25Z</time>
      </trkpt>
      <trkpt lat="43.85982" lon="7.00781">
        <ele>563.95</ele>
        <time>2013-05-31T08:42:00Z</time>
      </trkpt>
      <trkpt lat="43.85969" lon="7.00764">
        <ele>566.35</ele>
        <time>2013-05-31T08:42:17Z</time>
      </trkpt>
      <trkpt lat="43.85955" lon="7.00741">
        <ele>569.72</ele>
        <time>2013-05-31T08:42:34Z</time>
      </trkpt>
      <trkpt lat="43.85952" lon="7.0073">
        <ele>571.16</ele>
        <time>2013-05-31T08:42:41Z</time>
      </trkpt>
      <trkpt lat="43.8593" lon="7.00694">
        <ele>575.01</ele>
        <time>2013-05-31T08:43:07Z</time>
      </trkpt>
      <trkpt lat="43.85926" lon="7.00669">
        <ele>577.89</ele>
        <time>2013-05-31T08:43:22Z</time>
      </trkpt>
      <trkpt lat="43.85932" lon="7.00607">
        <ele>581.73</ele>
        <time>2013-05-31T08:43:49Z</time>
      </trkpt>
      <trkpt lat="43.85933" lon="7.00563">
        <ele>585.58</ele>
        <time>2013-05-31T08:44:09Z</time>
      </trkpt>
      <trkpt lat="43.85917" lon="7.00494">
        <ele>588.95</ele>
        <time>2013-05-31T08:44:42Z</time>
      </trkpt>
      <trkpt lat="43.85887" lon="7.00441">
        <ele>590.39</ele>
        <time>2013-05-31T08:45:05Z</time>
      </trkpt>
      <trkpt lat="43.85877" lon="7.00427">
        <ele>590.87</ele>
        <time>2013-05-31T08:45:11Z</time>
      </trkpt>
      <trkpt lat="43.85875" lon="7.00362">
        <ele>594.23</ele>
        <time>2013-05-31T08:45:36Z</time>
      </trkpt>
      <trkpt lat="43.85798" lon="7.00319">
        <ele>600</ele>
        <time>2013-05-31T08:46:18Z</time>
      </trkpt>
      <trkpt lat="43.85764" lon="7.00264">
        <ele>606.25</ele>
        <time>2013-05-31T08:46:53Z</time>
      </trkpt>
      <trkpt lat="43.85741" lon="7.00191">
        <ele>614.9</ele>
        <time>2013-05-31T08:47:39Z</time>
      </trkpt>
      <trkpt lat="43.8574" lon="7.0019">
        <ele>614.9</ele>
        <time>2013-05-31T08:47:40Z</time>
      </trkpt>
      <trkpt lat="43.85719" lon="7.00203">
        <ele>618.75</ele>
        <time>2013-05-31T08:48:04Z</time>
      </trkpt>
      <trkpt lat="43.85703" lon="7.00235">
        <ele>623.07</ele>
        <time>2013-05-31T08:48:42Z</time>
      </trkpt>
      <trkpt lat="43.85701" lon="7.00231">
        <ele>623.07</ele>
        <time>2013-05-31T08:48:52Z</time>
      </trkpt>
      <trkpt lat="43.85684" lon="7.00221">
        <ele>626.44</ele>
        <time>2013-05-31T08:49:20Z</time>
      </trkpt>
      <trkpt lat="43.85697" lon="7.0022">
        <ele>628.36</ele>
        <time>2013-05-31T08:49:31Z</time>
      </trkpt>
      <trkpt lat="43.85707" lon="7.00183">
        <ele>632.68</ele>
        <time>2013-05-31T08:49:53Z</time>
      </trkpt>
      <trkpt lat="43.85719" lon="7.00152">
        <ele>636.05</ele>
        <time>2013-05-31T08:50:14Z</time>
      </trkpt>
      <trkpt lat="43.85741" lon="7.00127">
        <ele>639.41</ele>
        <time>2013-05-31T08:50:38Z</time>
      </trkpt>
      <trkpt lat="43.85778" lon="7.00159">
        <ele>643.74</ele>
        <time>2013-05-31T08:51:09Z</time>
      </trkpt>
      <trkpt lat="43.85818" lon="7.00207">
        <ele>649.03</ele>
        <time>2013-05-31T08:51:45Z</time>
      </trkpt>
      <trkpt lat="43.85843" lon="7.00217">
        <ele>652.39</ele>
        <time>2013-05-31T08:52:05Z</time>
      </trkpt>
      <trkpt lat="43.85891" lon="7.00205">
        <ele>658.16</ele>
        <time>2013-05-31T08:52:39Z</time>
      </trkpt>
      <trkpt lat="43.85949" lon="7.00226">
        <ele>663.45</ele>
        <time>2013-05-31T08:53:20Z</time>
      </trkpt>
      <trkpt lat="43.85971" lon="7.00255">
        <ele>666.81</ele>
        <time>2013-05-31T08:53:39Z</time>
      </trkpt>
      <trkpt lat="43.86027" lon="7.00306">
        <ele>672.58</ele>
        <time>2013-05-31T08:54:19Z</time>
      </trkpt>
      <trkpt lat="43.86052" lon="7.00286">
        <ele>676.42</ele>
        <time>2013-05-31T08:54:44Z</time>
      </trkpt>
      <trkpt lat="43.8602" lon="7.00278">
        <ele>679.31</ele>
        <time>2013-05-31T08:55:05Z</time>
      </trkpt>
      <trkpt lat="43.85967" lon="7.002">
        <ele>680.75</ele>
        <time>2013-05-31T08:55:33Z</time>
      </trkpt>
      <trkpt lat="43.85889" lon="7.00123">
        <ele>684.12</ele>
        <time>2013-05-31T08:56:08Z</time>
      </trkpt>
      <trkpt lat="43.85849" lon="7.0003">
        <ele>688.92</ele>
        <time>2013-05-31T08:56:37Z</time>
      </trkpt>
      <trkpt lat="43.85843" lon="7.00022">
        <ele>688.92</ele>
        <time>2013-05-31T08:56:53Z</time>
      </trkpt>
      <trkpt lat="43.858" lon="6.99912">
        <ele>692.29</ele>
        <time>2013-05-31T08:58:01Z</time>
      </trkpt>
      <trkpt lat="43.85752" lon="6.99873">
        <ele>693.73</ele>
        <time>2013-05-31T08:58:22Z</time>
      </trkpt>
      <trkpt lat="43.85716" lon="6.99846">
        <ele>695.17</ele>
        <time>2013-05-31T08:58:37Z</time>
      </trkpt>
      <trkpt lat="43.8575" lon="6.99761">
        <ele>698.53</ele>
        <time>2013-05-31T08:59:02Z</time>
      </trkpt>
      <trkpt lat="43.85755" lon="6.99703">
        <ele>698.53</ele>
        <time>2013-05-31T08:59:17Z</time>
      </trkpt>
      <trkpt lat="43.85688" lon="6.99611">
        <ele>702.86</ele>
        <time>2013-05-31T08:59:49Z</time>
      </trkpt>
      <trkpt lat="43.85634" lon="6.99605">
        <ele>706.71</ele>
        <time>2013-05-31T09:00:13Z</time>
      </trkpt>
      <trkpt lat="43.85615" lon="6.99614">
        <ele>707.19</ele>
        <time>2013-05-31T09:00:58Z</time>
      </trkpt>
      <trkpt lat="43.85609" lon="6.99617">
        <ele>708.15</ele>
        <time>2013-05-31T09:01:35Z</time>
      </trkpt>
      <trkpt lat="43.85565" lon="6.99649">
        <ele>710.55</ele>
        <time>2013-05-31T09:02:01Z</time>
      </trkpt>
      <trkpt lat="43.85554" lon="6.99661">
        <ele>710.55</ele>
        <time>2013-05-31T09:02:06Z</time>
      </trkpt>
      <trkpt lat="43.85511" lon="6.99665">
        <ele>711.51</ele>
        <time>2013-05-31T09:02:20Z</time>
      </trkpt>
      <trkpt lat="43.85477" lon="6.99717">
        <ele>712.95</ele>
        <time>2013-05-31T09:02:37Z</time>
      </trkpt>
      <trkpt lat="43.8537" lon="6.99784">
        <ele>714.4</ele>
        <time>2013-05-31T09:03:12Z</time>
      </trkpt>
      <trkpt lat="43.85378" lon="6.99788">
        <ele>713.92</ele>
        <time>2013-05-31T09:03:28Z</time>
      </trkpt>
      <trkpt lat="43.85379" lon="6.99787">
        <ele>712.95</ele>
        <time>2013-05-31T09:04:44Z</time>
      </trkpt>
      <trkpt lat="43.85364" lon="6.9978">
        <ele>714.88</ele>
        <time>2013-05-31T09:04:55Z</time>
      </trkpt>
      <trkpt lat="43.85296" lon="6.99759">
        <ele>719.68</ele>
        <time>2013-05-31T09:05:25Z</time>
      </trkpt>
      <trkpt lat="43.85232" lon="6.99718">
        <ele>725.45</ele>
        <time>2013-05-31T09:05:56Z</time>
      </trkpt>
      <trkpt lat="43.85195" lon="6.99687">
        <ele>729.3</ele>
        <time>2013-05-31T09:06:16Z</time>
      </trkpt>
      <trkpt lat="43.85198" lon="6.99604">
        <ele>734.1</ele>
        <time>2013-05-31T09:06:48Z</time>
      </trkpt>
      <trkpt lat="43.85213" lon="6.99546">
        <ele>738.43</ele>
        <time>2013-05-31T09:07:12Z</time>
      </trkpt>
      <trkpt lat="43.85203" lon="6.99498">
        <ele>741.79</ele>
        <time>2013-05-31T09:07:31Z</time>
      </trkpt>
      <trkpt lat="43.85169" lon="6.99448">
        <ele>747.56</ele>
        <time>2013-05-31T09:08:02Z</time>
      </trkpt>
      <trkpt lat="43.85152" lon="6.99405">
        <ele>752.37</ele>
        <time>2013-05-31T09:08:28Z</time>
      </trkpt>
      <trkpt lat="43.85147" lon="6.99368">
        <ele>755.73</ele>
        <time>2013-05-31T09:08:47Z</time>
      </trkpt>
      <trkpt lat="43.8516" lon="6.99324">
        <ele>759.1</ele>
        <time>2013-05-31T09:09:11Z</time>
      </trkpt>
      <trkpt lat="43.85188" lon="6.99227">
        <ele>764.39</ele>
        <time>2013-05-31T09:09:54Z</time>
      </trkpt>
      <trkpt lat="43.85167" lon="6.99155">
        <ele>770.15</ele>
        <time>2013-05-31T09:10:30Z</time>
      </trkpt>
      <trkpt lat="43.85135" lon="6.99109">
        <ele>774.96</ele>
        <time>2013-05-31T09:11:02Z</time>
      </trkpt>
      <trkpt lat="43.85123" lon="6.99059">
        <ele>778.81</ele>
        <time>2013-05-31T09:11:31Z</time>
      </trkpt>
      <trkpt lat="43.85128" lon="6.99016">
        <ele>781.21</ele>
        <time>2013-05-31T09:11:51Z</time>
      </trkpt>
      <trkpt lat="43.85145" lon="6.98949">
        <ele>786.02</ele>
        <time>2013-05-31T09:12:21Z</time>
      </trkpt>
      <trkpt lat="43.85148" lon="6.98946">
        <ele>786.02</ele>
        <time>2013-05-31T09:12:23Z</time>
      </trkpt>
      <trkpt lat="43.85138" lon="6.98933">
        <ele>790.82</ele>
        <time>2013-05-31T09:12:56Z</time>
      </trkpt>
      <trkpt lat="43.85128" lon="6.98953">
        <ele>792.74</ele>
        <time>2013-05-31T09:13:07Z</time>
      </trkpt>
      <trkpt lat="43.85105" lon="6.99003">
        <ele>796.59</ele>
        <time>2013-05-31T09:13:35Z</time>
      </trkpt>
      <trkpt lat="43.85087" lon="6.9907">
        <ele>800.92</ele>
        <time>2013-05-31T09:14:13Z</time>
      </trkpt>
      <trkpt lat="43.85082" lon="6.99121">
        <ele>804.76</ele>
        <time>2013-05-31T09:14:37Z</time>
      </trkpt>
      <trkpt lat="43.85095" lon="6.99164">
        <ele>808.13</ele>
        <time>2013-05-31T09:14:58Z</time>
      </trkpt>
      <trkpt lat="43.85105" lon="6.99203">
        <ele>811.49</ele>
        <time>2013-05-31T09:15:18Z</time>
      </trkpt>
      <trkpt lat="43.85079" lon="6.99247">
        <ele>815.34</ele>
        <time>2013-05-31T09:15:47Z</time>
      </trkpt>
      <trkpt lat="43.85062" lon="6.99263">
        <ele>816.78</ele>
        <time>2013-05-31T09:16:01Z</time>
      </trkpt>
      <trkpt lat="43.85031" lon="6.99354">
        <ele>824.47</ele>
        <time>2013-05-31T09:16:49Z</time>
      </trkpt>
      <trkpt lat="43.85027" lon="6.99425">
        <ele>829.76</ele>
        <time>2013-05-31T09:17:35Z</time>
      </trkpt>
      <trkpt lat="43.85027" lon="6.99459">
        <ele>833.6</ele>
        <time>2013-05-31T09:17:53Z</time>
      </trkpt>
      <trkpt lat="43.85034" lon="6.99525">
        <ele>838.41</ele>
        <time>2013-05-31T09:18:26Z</time>
      </trkpt>
      <trkpt lat="43.85026" lon="6.9953">
        <ele>841.29</ele>
        <time>2013-05-31T09:18:43Z</time>
      </trkpt>
      <trkpt lat="43.85011" lon="6.99452">
        <ele>845.14</ele>
        <time>2013-05-31T09:19:12Z</time>
      </trkpt>
      <trkpt lat="43.84996" lon="6.99356">
        <ele>850.42</ele>
        <time>2013-05-31T09:19:51Z</time>
      </trkpt>
      <trkpt lat="43.85" lon="6.99299">
        <ele>853.79</ele>
        <time>2013-05-31T09:20:55Z</time>
      </trkpt>
      <trkpt lat="43.85007" lon="6.99253">
        <ele>856.19</ele>
        <time>2013-05-31T09:21:30Z</time>
      </trkpt>
      <trkpt lat="43.85016" lon="6.99196">
        <ele>860.52</ele>
        <time>2013-05-31T09:21:55Z</time>
      </trkpt>
      <trkpt lat="43.85001" lon="6.99093">
        <ele>868.21</ele>
        <time>2013-05-31T09:22:38Z</time>
      </trkpt>
      <trkpt lat="43.85005" lon="6.99009">
        <ele>873.01</ele>
        <time>2013-05-31T09:23:11Z</time>
      </trkpt>
      <trkpt lat="43.85015" lon="6.98949">
        <ele>876.38</ele>
        <time>2013-05-31T09:23:39Z</time>
      </trkpt>
      <trkpt lat="43.85015" lon="6.98949">
        <ele>876.38</ele>
        <time>2013-05-31T09:23:46Z</time>
      </trkpt>
      <trkpt lat="43.85019" lon="6.98917">
        <ele>878.3</ele>
        <time>2013-05-31T09:24:15Z</time>
      </trkpt>
      <trkpt lat="43.85035" lon="6.98858">
        <ele>883.11</ele>
        <time>2013-05-31T09:25:05Z</time>
      </trkpt>
      <trkpt lat="43.85041" lon="6.98814">
        <ele>886.47</ele>
        <time>2013-05-31T09:25:23Z</time>
      </trkpt>
      <trkpt lat="43.85027" lon="6.98727">
        <ele>891.28</ele>
        <time>2013-05-31T09:25:56Z</time>
      </trkpt>
      <trkpt lat="43.85" lon="6.98705">
        <ele>893.2</ele>
        <time>2013-05-31T09:26:24Z</time>
      </trkpt>
      <trkpt lat="43.84988" lon="6.9872">
        <ele>891.76</ele>
        <time>2013-05-31T09:26:27Z</time>
      </trkpt>
      <trkpt lat="43.84929" lon="6.98773">
        <ele>889.84</ele>
        <time>2013-05-31T09:26:39Z</time>
      </trkpt>
      <trkpt lat="43.84867" lon="6.9886">
        <ele>890.32</ele>
        <time>2013-05-31T09:27:00Z</time>
      </trkpt>
      <trkpt lat="43.84798" lon="6.98918">
        <ele>890.8</ele>
        <time>2013-05-31T09:27:22Z</time>
      </trkpt>
      <trkpt lat="43.84784" lon="6.98978">
        <ele>890.32</ele>
        <time>2013-05-31T09:27:32Z</time>
      </trkpt>
      <trkpt lat="43.84732" lon="6.99033">
        <ele>895.12</ele>
        <time>2013-05-31T09:27:55Z</time>
      </trkpt>
      <trkpt lat="43.84724" lon="6.99075">
        <ele>894.16</ele>
        <time>2013-05-31T09:28:06Z</time>
      </trkpt>
      <trkpt lat="43.84692" lon="6.99159">
        <ele>891.76</ele>
        <time>2013-05-31T09:28:19Z</time>
      </trkpt>
      <trkpt lat="43.84656" lon="6.99201">
        <ele>890.8</ele>
        <time>2013-05-31T09:28:32Z</time>
      </trkpt>
      <trkpt lat="43.84621" lon="6.99254">
        <ele>887.91</ele>
        <time>2013-05-31T09:28:42Z</time>
      </trkpt>
      <trkpt lat="43.84593" lon="6.99324">
        <ele>884.55</ele>
        <time>2013-05-31T09:28:50Z</time>
      </trkpt>
      <trkpt lat="43.84562" lon="6.99379">
        <ele>879.26</ele>
        <time>2013-05-31T09:28:57Z</time>
      </trkpt>
      <trkpt lat="43.8452" lon="6.99383">
        <ele>876.86</ele>
        <time>2013-05-31T09:29:03Z</time>
      </trkpt>
      <trkpt lat="43.84503" lon="6.99355">
        <ele>873.98</ele>
        <time>2013-05-31T09:29:07Z</time>
      </trkpt>
      <trkpt lat="43.84502" lon="6.9935">
        <ele>873.98</ele>
        <time>2013-05-31T09:29:08Z</time>
      </trkpt>
      <trkpt lat="43.84495" lon="6.99343">
        <ele>873.5</ele>
        <time>2013-05-31T09:29:22Z</time>
      </trkpt>
      <trkpt lat="43.84455" lon="6.99321">
        <ele>869.65</ele>
        <time>2013-05-31T09:29:35Z</time>
      </trkpt>
      <trkpt lat="43.8445" lon="6.99294">
        <ele>868.21</ele>
        <time>2013-05-31T09:29:38Z</time>
      </trkpt>
      <trkpt lat="43.84449" lon="6.99285">
        <ele>868.21</ele>
        <time>2013-05-31T09:29:39Z</time>
      </trkpt>
      <trkpt lat="43.8443" lon="6.99241">
        <ele>865.32</ele>
        <time>2013-05-31T09:29:44Z</time>
      </trkpt>
      <trkpt lat="43.84424" lon="6.99232">
        <ele>861.96</ele>
        <time>2013-05-31T09:32:02Z</time>
      </trkpt>
      <trkpt lat="43.84422" lon="6.99234">
        <ele>861.96</ele>
        <time>2013-05-31T09:32:16Z</time>
      </trkpt>
      <trkpt lat="43.8442" lon="6.99234">
        <ele>861.96</ele>
        <time>2013-05-31T09:32:30Z</time>
      </trkpt>
      <trkpt lat="43.84409" lon="6.99247">
        <ele>861.96</ele>
        <time>2013-05-31T09:32:38Z</time>
      </trkpt>
      <trkpt lat="43.84395" lon="6.99276">
        <ele>860.04</ele>
        <time>2013-05-31T09:32:45Z</time>
      </trkpt>
      <trkpt lat="43.84396" lon="6.9932">
        <ele>856.67</ele>
        <time>2013-05-31T09:32:50Z</time>
      </trkpt>
      <trkpt lat="43.84368" lon="6.99346">
        <ele>852.83</ele>
        <time>2013-05-31T09:32:55Z</time>
      </trkpt>
      <trkpt lat="43.84333" lon="6.99361">
        <ele>848.98</ele>
        <time>2013-05-31T09:33:01Z</time>
      </trkpt>
      <trkpt lat="43.84315" lon="6.99404">
        <ele>845.62</ele>
        <time>2013-05-31T09:33:07Z</time>
      </trkpt>
      <trkpt lat="43.8431" lon="6.99409">
        <ele>846.1</ele>
        <time>2013-05-31T09:33:08Z</time>
      </trkpt>
      <trkpt lat="43.84278" lon="6.99464">
        <ele>843.69</ele>
        <time>2013-05-31T09:33:18Z</time>
      </trkpt>
      <trkpt lat="43.84258" lon="6.99558">
        <ele>840.81</ele>
        <time>2013-05-31T09:33:34Z</time>
      </trkpt>
      <trkpt lat="43.84242" lon="6.99607">
        <ele>839.85</ele>
        <time>2013-05-31T09:33:43Z</time>
      </trkpt>
      <trkpt lat="43.84209" lon="6.99709">
        <ele>840.33</ele>
        <time>2013-05-31T09:34:03Z</time>
      </trkpt>
      <trkpt lat="43.84186" lon="6.99768">
        <ele>839.85</ele>
        <time>2013-05-31T09:34:15Z</time>
      </trkpt>
      <trkpt lat="43.84148" lon="6.99881">
        <ele>838.89</ele>
        <time>2013-05-31T09:34:38Z</time>
      </trkpt>
      <trkpt lat="43.84113" lon="6.99965">
        <ele>838.89</ele>
        <time>2013-05-31T09:34:55Z</time>
      </trkpt>
      <trkpt lat="43.84073" lon="7.00069">
        <ele>839.37</ele>
        <time>2013-05-31T09:35:15Z</time>
      </trkpt>
      <trkpt lat="43.84044" lon="7.00194">
        <ele>839.85</ele>
        <time>2013-05-31T09:35:37Z</time>
      </trkpt>
      <trkpt lat="43.84032" lon="7.00356">
        <ele>839.37</ele>
        <time>2013-05-31T09:36:04Z</time>
      </trkpt>
      <trkpt lat="43.84013" lon="7.0063">
        <ele>838.41</ele>
        <time>2013-05-31T09:36:52Z</time>
      </trkpt>
      <trkpt lat="43.8402" lon="7.00666">
        <ele>838.89</ele>
        <time>2013-05-31T09:36:58Z</time>
      </trkpt>
      <trkpt lat="43.84028" lon="7.00814">
        <ele>838.89</ele>
        <time>2013-05-31T09:37:23Z</time>
      </trkpt>
      <trkpt lat="43.84035" lon="7.01063">
        <ele>838.89</ele>
        <time>2013-05-31T09:38:04Z</time>
      </trkpt>
      <trkpt lat="43.84038" lon="7.011">
        <ele>838.41</ele>
        <time>2013-05-31T09:38:10Z</time>
      </trkpt>
      <trkpt lat="43.84034" lon="7.01239">
        <ele>838.41</ele>
        <time>2013-05-31T09:38:32Z</time>
      </trkpt>
      <trkpt lat="43.84002" lon="7.01474">
        <ele>837.93</ele>
        <time>2013-05-31T09:39:11Z</time>
      </trkpt>
      <trkpt lat="43.83974" lon="7.0157">
        <ele>838.89</ele>
        <time>2013-05-31T09:39:28Z</time>
      </trkpt>
      <trkpt lat="43.83942" lon="7.01738">
        <ele>837.93</ele>
        <time>2013-05-31T09:39:56Z</time>
      </trkpt>
      <trkpt lat="43.83928" lon="7.01885">
        <ele>837.93</ele>
        <time>2013-05-31T09:40:21Z</time>
      </trkpt>
      <trkpt lat="43.83896" lon="7.01981">
        <ele>837.93</ele>
        <time>2013-05-31T09:40:39Z</time>
      </trkpt>
      <trkpt lat="43.83901" lon="7.02057">
        <ele>837.45</ele>
        <time>2013-05-31T09:40:54Z</time>
      </trkpt>
      <trkpt lat="43.8388" lon="7.0215">
        <ele>837.93</ele>
        <time>2013-05-31T09:41:18Z</time>
      </trkpt>
      <trkpt lat="43.83864" lon="7.02283">
        <ele>837.93</ele>
        <time>2013-05-31T09:41:42Z</time>
      </trkpt>
      <trkpt lat="43.83836" lon="7.02417">
        <ele>837.45</ele>
        <time>2013-05-31T09:42:08Z</time>
      </trkpt>
      <trkpt lat="43.83848" lon="7.02458">
        <ele>838.41</ele>
        <time>2013-05-31T09:42:21Z</time>
      </trkpt>
      <trkpt lat="43.83853" lon="7.02511">
        <ele>837.45</ele>
        <time>2013-05-31T09:42:28Z</time>
      </trkpt>
      <trkpt lat="43.83845" lon="7.02542">
        <ele>838.41</ele>
        <time>2013-05-31T09:42:34Z</time>
      </trkpt>
      <trkpt lat="43.83842" lon="7.02553">
        <ele>837.45</ele>
        <time>2013-05-31T09:42:36Z</time>
      </trkpt>
      <trkpt lat="43.83834" lon="7.02597">
        <ele>837.45</ele>
        <time>2013-05-31T09:42:44Z</time>
      </trkpt>
      <trkpt lat="43.83812" lon="7.02619">
        <ele>837.93</ele>
        <time>2013-05-31T09:42:51Z</time>
      </trkpt>
      <trkpt lat="43.83759" lon="7.0271">
        <ele>837.45</ele>
        <time>2013-05-31T09:43:10Z</time>
      </trkpt>
      <trkpt lat="43.83746" lon="7.02801">
        <ele>837.45</ele>
        <time>2013-05-31T09:43:26Z</time>
      </trkpt>
      <trkpt lat="43.83759" lon="7.02818">
        <ele>837.45</ele>
        <time>2013-05-31T09:43:31Z</time>
      </trkpt>
      <trkpt lat="43.83775" lon="7.02901">
        <ele>837.45</ele>
        <time>2013-05-31T09:43:50Z</time>
      </trkpt>
      <trkpt lat="43.83744" lon="7.02982">
        <ele>836.48</ele>
        <time>2013-05-31T09:44:08Z</time>
      </trkpt>
      <trkpt lat="43.83746" lon="7.03026">
        <ele>836</ele>
        <time>2013-05-31T09:44:18Z</time>
      </trkpt>
      <trkpt lat="43.83742" lon="7.03157">
        <ele>836.96</ele>
        <time>2013-05-31T09:44:43Z</time>
      </trkpt>
      <trkpt lat="43.83708" lon="7.03194">
        <ele>836.96</ele>
        <time>2013-05-31T09:44:56Z</time>
      </trkpt>
      <trkpt lat="43.83698" lon="7.03281">
        <ele>836.48</ele>
        <time>2013-05-31T09:45:13Z</time>
      </trkpt>
      <trkpt lat="43.83728" lon="7.03407">
        <ele>837.45</ele>
        <time>2013-05-31T09:45:37Z</time>
      </trkpt>
      <trkpt lat="43.83725" lon="7.03505">
        <ele>836.96</ele>
        <time>2013-05-31T09:45:54Z</time>
      </trkpt>
      <trkpt lat="43.83708" lon="7.03583">
        <ele>837.45</ele>
        <time>2013-05-31T09:46:08Z</time>
      </trkpt>
      <trkpt lat="43.83715" lon="7.03624">
        <ele>836.96</ele>
        <time>2013-05-31T09:46:15Z</time>
      </trkpt>
      <trkpt lat="43.83727" lon="7.03691">
        <ele>836.96</ele>
        <time>2013-05-31T09:46:26Z</time>
      </trkpt>
      <trkpt lat="43.83723" lon="7.03815">
        <ele>836.96</ele>
        <time>2013-05-31T09:46:47Z</time>
      </trkpt>
      <trkpt lat="43.83707" lon="7.0395">
        <ele>836.96</ele>
        <time>2013-05-31T09:47:09Z</time>
      </trkpt>
      <trkpt lat="43.83698" lon="7.04172">
        <ele>836</ele>
        <time>2013-05-31T09:47:50Z</time>
      </trkpt>
      <trkpt lat="43.83697" lon="7.04176">
        <ele>835.52</ele>
        <time>2013-05-31T09:48:07Z</time>
      </trkpt>
      <trkpt lat="43.83695" lon="7.04183">
        <ele>835.52</ele>
        <time>2013-05-31T09:49:04Z</time>
      </trkpt>
      <trkpt lat="43.83691" lon="7.04252">
        <ele>836.48</ele>
        <time>2013-05-31T09:49:18Z</time>
      </trkpt>
      <trkpt lat="43.83677" lon="7.04383">
        <ele>836</ele>
        <time>2013-05-31T09:49:40Z</time>
      </trkpt>
      <trkpt lat="43.83677" lon="7.04471">
        <ele>836</ele>
        <time>2013-05-31T09:49:54Z</time>
      </trkpt>
      <trkpt lat="43.83679" lon="7.04542">
        <ele>835.52</ele>
        <time>2013-05-31T09:50:05Z</time>
      </trkpt>
      <trkpt lat="43.83667" lon="7.04627">
        <ele>835.52</ele>
        <time>2013-05-31T09:50:18Z</time>
      </trkpt>
      <trkpt lat="43.83656" lon="7.04657">
        <ele>835.52</ele>
        <time>2013-05-31T09:50:23Z</time>
      </trkpt>
      <trkpt lat="43.83652" lon="7.04715">
        <ele>836</ele>
        <time>2013-05-31T09:50:32Z</time>
      </trkpt>
      <trkpt lat="43.83656" lon="7.04782">
        <ele>835.04</ele>
        <time>2013-05-31T09:50:49Z</time>
      </trkpt>
      <trkpt lat="43.83645" lon="7.04832">
        <ele>835.04</ele>
        <time>2013-05-31T09:51:02Z</time>
      </trkpt>
      <trkpt lat="43.83624" lon="7.04956">
        <ele>834.56</ele>
        <time>2013-05-31T09:51:30Z</time>
      </trkpt>
      <trkpt lat="43.83608" lon="7.0509">
        <ele>834.56</ele>
        <time>2013-05-31T09:52:01Z</time>
      </trkpt>
      <trkpt lat="43.83604" lon="7.05161">
        <ele>834.08</ele>
        <time>2013-05-31T09:52:12Z</time>
      </trkpt>
      <trkpt lat="43.83591" lon="7.05299">
        <ele>834.08</ele>
        <time>2013-05-31T09:52:33Z</time>
      </trkpt>
      <trkpt lat="43.83595" lon="7.05379">
        <ele>834.08</ele>
        <time>2013-05-31T09:52:46Z</time>
      </trkpt>
      <trkpt lat="43.83586" lon="7.05484">
        <ele>833.12</ele>
        <time>2013-05-31T09:53:04Z</time>
      </trkpt>
      <trkpt lat="43.83578" lon="7.05583">
        <ele>833.12</ele>
        <time>2013-05-31T09:53:22Z</time>
      </trkpt>
      <trkpt lat="43.83568" lon="7.05739">
        <ele>832.64</ele>
        <time>2013-05-31T09:53:48Z</time>
      </trkpt>
      <trkpt lat="43.83574" lon="7.05841">
        <ele>832.64</ele>
        <time>2013-05-31T09:54:05Z</time>
      </trkpt>
      <trkpt lat="43.83594" lon="7.0605">
        <ele>832.64</ele>
        <time>2013-05-31T09:54:43Z</time>
      </trkpt>
      <trkpt lat="43.83577" lon="7.06187">
        <ele>832.16</ele>
        <time>2013-05-31T09:55:09Z</time>
      </trkpt>
      <trkpt lat="43.83577" lon="7.06205">
        <ele>832.16</ele>
        <time>2013-05-31T09:55:12Z</time>
      </trkpt>
      <trkpt lat="43.83575" lon="7.06321">
        <ele>831.68</ele>
        <time>2013-05-31T09:55:35Z</time>
      </trkpt>
      <trkpt lat="43.83583" lon="7.06439">
        <ele>831.2</ele>
        <time>2013-05-31T09:55:57Z</time>
      </trkpt>
      <trkpt lat="43.83622" lon="7.06687">
        <ele>831.2</ele>
        <time>2013-05-31T09:56:44Z</time>
      </trkpt>
      <trkpt lat="43.83579" lon="7.06833">
        <ele>830.72</ele>
        <time>2013-05-31T09:57:14Z</time>
      </trkpt>
      <trkpt lat="43.83555" lon="7.06965">
        <ele>830.72</ele>
        <time>2013-05-31T09:57:40Z</time>
      </trkpt>
      <trkpt lat="43.83537" lon="7.07132">
        <ele>830.24</ele>
        <time>2013-05-31T09:58:12Z</time>
      </trkpt>
      <trkpt lat="43.83546" lon="7.07281">
        <ele>830.72</ele>
        <time>2013-05-31T09:58:38Z</time>
      </trkpt>
      <trkpt lat="43.83598" lon="7.07483">
        <ele>830.72</ele>
        <time>2013-05-31T09:59:16Z</time>
      </trkpt>
      <trkpt lat="43.83608" lon="7.07589">
        <ele>830.24</ele>
        <time>2013-05-31T09:59:36Z</time>
      </trkpt>
      <trkpt lat="43.8358" lon="7.07874">
        <ele>830.24</ele>
        <time>2013-05-31T10:00:27Z</time>
      </trkpt>
      <trkpt lat="43.83575" lon="7.07909">
        <ele>830.24</ele>
        <time>2013-05-31T10:00:33Z</time>
      </trkpt>
      <trkpt lat="43.83571" lon="7.07926">
        <ele>830.24</ele>
        <time>2013-05-31T10:00:36Z</time>
      </trkpt>
      <trkpt lat="43.83565" lon="7.07955">
        <ele>830.24</ele>
        <time>2013-05-31T10:00:41Z</time>
      </trkpt>
      <trkpt lat="43.83559" lon="7.08177">
        <ele>829.76</ele>
        <time>2013-05-31T10:01:19Z</time>
      </trkpt>
      <trkpt lat="43.83587" lon="7.08384">
        <ele>829.76</ele>
        <time>2013-05-31T10:01:57Z</time>
      </trkpt>
      <trkpt lat="43.83603" lon="7.08547">
        <ele>829.27</ele>
        <time>2013-05-31T10:02:36Z</time>
      </trkpt>
      <trkpt lat="43.83625" lon="7.08761">
        <ele>829.76</ele>
        <time>2013-05-31T10:03:18Z</time>
      </trkpt>
      <trkpt lat="43.83602" lon="7.08831">
        <ele>829.76</ele>
        <time>2013-05-31T10:03:33Z</time>
      </trkpt>
      <trkpt lat="43.83629" lon="7.08936">
        <ele>829.27</ele>
        <time>2013-05-31T10:04:00Z</time>
      </trkpt>
      <trkpt lat="43.83661" lon="7.09022">
        <ele>830.72</ele>
        <time>2013-05-31T10:04:18Z</time>
      </trkpt>
      <trkpt lat="43.83651" lon="7.09106">
        <ele>830.24</ele>
        <time>2013-05-31T10:04:33Z</time>
      </trkpt>
      <trkpt lat="43.8365" lon="7.0913">
        <ele>829.27</ele>
        <time>2013-05-31T10:04:37Z</time>
      </trkpt>
      <trkpt lat="43.83657" lon="7.09303">
        <ele>828.31</ele>
        <time>2013-05-31T10:05:06Z</time>
      </trkpt>
      <trkpt lat="43.83713" lon="7.09332">
        <ele>828.31</ele>
        <time>2013-05-31T10:05:27Z</time>
      </trkpt>
      <trkpt lat="43.83724" lon="7.09337">
        <ele>827.35</ele>
        <time>2013-05-31T10:05:51Z</time>
      </trkpt>
      <trkpt lat="43.83723" lon="7.09335">
        <ele>826.39</ele>
        <time>2013-05-31T10:14:06Z</time>
      </trkpt>
      <trkpt lat="43.83725" lon="7.09332">
        <ele>825.91</ele>
        <time>2013-05-31T10:15:37Z</time>
      </trkpt>
      <trkpt lat="43.83737" lon="7.09328">
        <ele>822.55</ele>
        <time>2013-05-31T10:15:43Z</time>
      </trkpt>
      <trkpt lat="43.8374" lon="7.09327">
        <ele>822.55</ele>
        <time>2013-05-31T10:15:44Z</time>
      </trkpt>
      <trkpt lat="43.83761" lon="7.09322">
        <ele>817.26</ele>
        <time>2013-05-31T10:15:56Z</time>
      </trkpt>
      <trkpt lat="43.83787" lon="7.09327">
        <ele>810.53</ele>
        <time>2013-05-31T10:16:11Z</time>
      </trkpt>
      <trkpt lat="43.83788" lon="7.09325">
        <ele>810.53</ele>
        <time>2013-05-31T10:16:12Z</time>
      </trkpt>
      <trkpt lat="43.83773" lon="7.09296">
        <ele>806.68</ele>
        <time>2013-05-31T10:16:26Z</time>
      </trkpt>
      <trkpt lat="43.83761" lon="7.09286">
        <ele>803.32</ele>
        <time>2013-05-31T10:16:35Z</time>
      </trkpt>
      <trkpt lat="43.83771" lon="7.0927">
        <ele>799.47</ele>
        <time>2013-05-31T10:16:45Z</time>
      </trkpt>
      <trkpt lat="43.838" lon="7.09258">
        <ele>795.15</ele>
        <time>2013-05-31T10:16:57Z</time>
      </trkpt>
      <trkpt lat="43.83827" lon="7.09257">
        <ele>790.82</ele>
        <time>2013-05-31T10:17:09Z</time>
      </trkpt>
      <trkpt lat="43.8385" lon="7.09275">
        <ele>786.98</ele>
        <time>2013-05-31T10:17:21Z</time>
      </trkpt>
      <trkpt lat="43.83872" lon="7.09295">
        <ele>781.69</ele>
        <time>2013-05-31T10:17:54Z</time>
      </trkpt>
      <trkpt lat="43.8388" lon="7.09307">
        <ele>780.73</ele>
        <time>2013-05-31T10:18:01Z</time>
      </trkpt>
      <trkpt lat="43.83875" lon="7.09273">
        <ele>777.84</ele>
        <time>2013-05-31T10:18:18Z</time>
      </trkpt>
      <trkpt lat="43.83868" lon="7.09245">
        <ele>777.84</ele>
        <time>2013-05-31T10:18:30Z</time>
      </trkpt>
      <trkpt lat="43.83848" lon="7.0921">
        <ele>775.44</ele>
        <time>2013-05-31T10:19:03Z</time>
      </trkpt>
      <trkpt lat="43.83826" lon="7.09176">
        <ele>771.11</ele>
        <time>2013-05-31T10:19:20Z</time>
      </trkpt>
      <trkpt lat="43.83824" lon="7.09161">
        <ele>767.75</ele>
        <time>2013-05-31T10:19:51Z</time>
      </trkpt>
      <trkpt lat="43.83849" lon="7.09156">
        <ele>764.39</ele>
        <time>2013-05-31T10:20:08Z</time>
      </trkpt>
      <trkpt lat="43.83883" lon="7.09138">
        <ele>760.54</ele>
        <time>2013-05-31T10:20:23Z</time>
      </trkpt>
      <trkpt lat="43.83897" lon="7.09135">
        <ele>758.62</ele>
        <time>2013-05-31T10:20:36Z</time>
      </trkpt>
      <trkpt lat="43.83914" lon="7.09148">
        <ele>753.81</ele>
        <time>2013-05-31T10:20:53Z</time>
      </trkpt>
      <trkpt lat="43.83933" lon="7.09181">
        <ele>749.49</ele>
        <time>2013-05-31T10:21:20Z</time>
      </trkpt>
      <trkpt lat="43.83951" lon="7.09218">
        <ele>745.16</ele>
        <time>2013-05-31T10:21:47Z</time>
      </trkpt>
      <trkpt lat="43.83967" lon="7.09241">
        <ele>741.31</ele>
        <time>2013-05-31T10:22:05Z</time>
      </trkpt>
      <trkpt lat="43.83981" lon="7.09263">
        <ele>737.95</ele>
        <time>2013-05-31T10:22:22Z</time>
      </trkpt>
      <trkpt lat="43.83998" lon="7.09302">
        <ele>733.62</ele>
        <time>2013-05-31T10:22:49Z</time>
      </trkpt>
      <trkpt lat="43.83999" lon="7.09303">
        <ele>734.1</ele>
        <time>2013-05-31T10:22:50Z</time>
      </trkpt>
      <trkpt lat="43.84007" lon="7.09312">
        <ele>730.74</ele>
        <time>2013-05-31T10:23:00Z</time>
      </trkpt>
      <trkpt lat="43.8402" lon="7.0933">
        <ele>726.89</ele>
        <time>2013-05-31T10:23:17Z</time>
      </trkpt>
      <trkpt lat="43.84031" lon="7.09345">
        <ele>723.53</ele>
        <time>2013-05-31T10:23:34Z</time>
      </trkpt>
      <trkpt lat="43.84039" lon="7.09358">
        <ele>720.16</ele>
        <time>2013-05-31T10:23:45Z</time>
      </trkpt>
      <trkpt lat="43.8405" lon="7.09375">
        <ele>716.32</ele>
        <time>2013-05-31T10:24:01Z</time>
      </trkpt>
      <trkpt lat="43.84073" lon="7.09406">
        <ele>708.15</ele>
        <time>2013-05-31T10:24:32Z</time>
      </trkpt>
      <trkpt lat="43.84095" lon="7.09437">
        <ele>703.34</ele>
        <time>2013-05-31T10:24:59Z</time>
      </trkpt>
      <trkpt lat="43.84111" lon="7.09459">
        <ele>699.98</ele>
        <time>2013-05-31T10:25:23Z</time>
      </trkpt>
      <trkpt lat="43.84112" lon="7.09463">
        <ele>699.98</ele>
        <time>2013-05-31T10:25:25Z</time>
      </trkpt>
      <trkpt lat="43.84126" lon="7.09492">
        <ele>696.61</ele>
        <time>2013-05-31T10:25:45Z</time>
      </trkpt>
      <trkpt lat="43.84132" lon="7.09518">
        <ele>692.77</ele>
        <time>2013-05-31T10:26:00Z</time>
      </trkpt>
      <trkpt lat="43.84136" lon="7.09522">
        <ele>692.77</ele>
        <time>2013-05-31T10:26:03Z</time>
      </trkpt>
      <trkpt lat="43.8415" lon="7.09542">
        <ele>688.44</ele>
        <time>2013-05-31T10:26:22Z</time>
      </trkpt>
      <trkpt lat="43.84162" lon="7.09548">
        <ele>685.08</ele>
        <time>2013-05-31T10:26:29Z</time>
      </trkpt>
      <trkpt lat="43.84191" lon="7.09558">
        <ele>681.23</ele>
        <time>2013-05-31T10:26:47Z</time>
      </trkpt>
      <trkpt lat="43.8421" lon="7.09558">
        <ele>676.91</ele>
        <time>2013-05-31T10:27:02Z</time>
      </trkpt>
      <trkpt lat="43.84206" lon="7.09543">
        <ele>673.54</ele>
        <time>2013-05-31T10:27:14Z</time>
      </trkpt>
      <trkpt lat="43.84204" lon="7.09539">
        <ele>673.54</ele>
        <time>2013-05-31T10:27:17Z</time>
      </trkpt>
      <trkpt lat="43.84201" lon="7.09533">
        <ele>673.06</ele>
        <time>2013-05-31T10:27:21Z</time>
      </trkpt>
      <trkpt lat="43.84216" lon="7.09528">
        <ele>669.22</ele>
        <time>2013-05-31T10:27:32Z</time>
      </trkpt>
      <trkpt lat="43.8422" lon="7.09526">
        <ele>668.25</ele>
        <time>2013-05-31T10:27:39Z</time>
      </trkpt>
      <trkpt lat="43.8422" lon="7.09523">
        <ele>668.25</ele>
        <time>2013-05-31T10:27:41Z</time>
      </trkpt>
      <trkpt lat="43.84209" lon="7.09503">
        <ele>663.45</ele>
        <time>2013-05-31T10:28:02Z</time>
      </trkpt>
      <trkpt lat="43.84216" lon="7.09483">
        <ele>659.12</ele>
        <time>2013-05-31T10:28:26Z</time>
      </trkpt>
      <trkpt lat="43.84235" lon="7.09488">
        <ele>654.31</ele>
        <time>2013-05-31T10:28:39Z</time>
      </trkpt>
      <trkpt lat="43.84242" lon="7.09469">
        <ele>650.95</ele>
        <time>2013-05-31T10:28:55Z</time>
      </trkpt>
      <trkpt lat="43.84243" lon="7.09465">
        <ele>649.99</ele>
        <time>2013-05-31T10:29:00Z</time>
      </trkpt>
      <trkpt lat="43.84252" lon="7.09486">
        <ele>646.62</ele>
        <time>2013-05-31T10:29:14Z</time>
      </trkpt>
      <trkpt lat="43.84252" lon="7.09489">
        <ele>646.62</ele>
        <time>2013-05-31T10:29:16Z</time>
      </trkpt>
      <trkpt lat="43.84265" lon="7.09513">
        <ele>641.82</ele>
        <time>2013-05-31T10:29:38Z</time>
      </trkpt>
      <trkpt lat="43.84286" lon="7.09534">
        <ele>636.53</ele>
        <time>2013-05-31T10:29:59Z</time>
      </trkpt>
      <trkpt lat="43.84304" lon="7.09547">
        <ele>632.2</ele>
        <time>2013-05-31T10:30:16Z</time>
      </trkpt>
      <trkpt lat="43.84307" lon="7.09542">
        <ele>631.72</ele>
        <time>2013-05-31T10:30:31Z</time>
      </trkpt>
      <trkpt lat="43.84336" lon="7.09527">
        <ele>628.36</ele>
        <time>2013-05-31T10:30:51Z</time>
      </trkpt>
      <trkpt lat="43.84337" lon="7.09528">
        <ele>630.28</ele>
        <time>2013-05-31T10:36:14Z</time>
      </trkpt>
      <trkpt lat="43.84336" lon="7.09528">
        <ele>631.72</ele>
        <time>2013-05-31T10:43:12Z</time>
      </trkpt>
      <trkpt lat="43.8435" lon="7.09498">
        <ele>628.36</ele>
        <time>2013-05-31T10:43:21Z</time>
      </trkpt>
      <trkpt lat="43.84377" lon="7.09467">
        <ele>623.55</ele>
        <time>2013-05-31T10:43:26Z</time>
      </trkpt>
      <trkpt lat="43.84438" lon="7.09382">
        <ele>616.82</ele>
        <time>2013-05-31T10:43:39Z</time>
      </trkpt>
      <trkpt lat="43.84456" lon="7.09361">
        <ele>613.46</ele>
        <time>2013-05-31T10:43:43Z</time>
      </trkpt>
      <trkpt lat="43.84476" lon="7.09345">
        <ele>608.17</ele>
        <time>2013-05-31T10:43:48Z</time>
      </trkpt>
      <trkpt lat="43.84485" lon="7.09338">
        <ele>607.69</ele>
        <time>2013-05-31T10:43:50Z</time>
      </trkpt>
      <trkpt lat="43.84494" lon="7.09332">
        <ele>604.33</ele>
        <time>2013-05-31T10:43:52Z</time>
      </trkpt>
      <trkpt lat="43.84529" lon="7.09278">
        <ele>603.85</ele>
        <time>2013-05-31T10:44:10Z</time>
      </trkpt>
      <trkpt lat="43.84585" lon="7.09298">
        <ele>608.17</ele>
        <time>2013-05-31T10:44:41Z</time>
      </trkpt>
      <trkpt lat="43.84601" lon="7.09315">
        <ele>610.57</ele>
        <time>2013-05-31T10:44:51Z</time>
      </trkpt>
      <trkpt lat="43.84652" lon="7.09365">
        <ele>615.86</ele>
        <time>2013-05-31T10:45:22Z</time>
      </trkpt>
      <trkpt lat="43.84697" lon="7.09427">
        <ele>621.15</ele>
        <time>2013-05-31T10:45:55Z</time>
      </trkpt>
      <trkpt lat="43.84699" lon="7.09427">
        <ele>621.15</ele>
        <time>2013-05-31T10:45:56Z</time>
      </trkpt>
      <trkpt lat="43.84683" lon="7.09373">
        <ele>624.51</ele>
        <time>2013-05-31T10:46:18Z</time>
      </trkpt>
      <trkpt lat="43.8466" lon="7.09312">
        <ele>629.8</ele>
        <time>2013-05-31T10:46:46Z</time>
      </trkpt>
      <trkpt lat="43.84662" lon="7.0925">
        <ele>635.09</ele>
        <time>2013-05-31T10:47:10Z</time>
      </trkpt>
      <trkpt lat="43.84673" lon="7.0925">
        <ele>636.05</ele>
        <time>2013-05-31T10:47:22Z</time>
      </trkpt>
      <trkpt lat="43.84665" lon="7.09243">
        <ele>635.09</ele>
        <time>2013-05-31T10:47:51Z</time>
      </trkpt>
      <trkpt lat="43.84663" lon="7.09244">
        <ele>636.53</ele>
        <time>2013-05-31T11:00:41Z</time>
      </trkpt>
      <trkpt lat="43.84678" lon="7.09249">
        <ele>639.41</ele>
        <time>2013-05-31T11:14:45Z</time>
      </trkpt>
      <trkpt lat="43.84672" lon="7.09252">
        <ele>639.41</ele>
        <time>2013-05-31T11:14:52Z</time>
      </trkpt>
      <trkpt lat="43.84693" lon="7.09353">
        <ele>643.26</ele>
        <time>2013-05-31T11:15:29Z</time>
      </trkpt>
      <trkpt lat="43.84692" lon="7.09358">
        <ele>643.26</ele>
        <time>2013-05-31T11:15:32Z</time>
      </trkpt>
      <trkpt lat="43.84694" lon="7.09365">
        <ele>642.78</ele>
        <time>2013-05-31T11:16:34Z</time>
      </trkpt>
      <trkpt lat="43.84696" lon="7.09366">
        <ele>639.41</ele>
        <time>2013-05-31T11:52:31Z</time>
      </trkpt>
      <trkpt lat="43.84692" lon="7.09347">
        <ele>639.89</ele>
        <time>2013-05-31T11:52:42Z</time>
      </trkpt>
      <trkpt lat="43.84678" lon="7.09296">
        <ele>639.89</ele>
        <time>2013-05-31T11:52:54Z</time>
      </trkpt>
      <trkpt lat="43.84675" lon="7.09248">
        <ele>636.53</ele>
        <time>2013-05-31T11:53:02Z</time>
      </trkpt>
      <trkpt lat="43.84662" lon="7.09243">
        <ele>635.09</ele>
        <time>2013-05-31T11:53:19Z</time>
      </trkpt>
      <trkpt lat="43.84662" lon="7.09245">
        <ele>633.65</ele>
        <time>2013-05-31T12:01:50Z</time>
      </trkpt>
      <trkpt lat="43.84663" lon="7.09247">
        <ele>633.65</ele>
        <time>2013-05-31T12:01:52Z</time>
      </trkpt>
      <trkpt lat="43.84664" lon="7.09242">
        <ele>634.13</ele>
        <time>2013-05-31T12:02:00Z</time>
      </trkpt>
      <trkpt lat="43.84654" lon="7.09282">
        <ele>633.65</ele>
        <time>2013-05-31T12:02:10Z</time>
      </trkpt>
      <trkpt lat="43.84671" lon="7.09356">
        <ele>628.36</ele>
        <time>2013-05-31T12:02:18Z</time>
      </trkpt>
      <trkpt lat="43.84694" lon="7.09405">
        <ele>624.51</ele>
        <time>2013-05-31T12:02:23Z</time>
      </trkpt>
      <trkpt lat="43.847" lon="7.09418">
        <ele>620.19</ele>
        <time>2013-05-31T12:02:25Z</time>
      </trkpt>
      <trkpt lat="43.84689" lon="7.09409">
        <ele>618.26</ele>
        <time>2013-05-31T12:02:29Z</time>
      </trkpt>
      <trkpt lat="43.84673" lon="7.09385">
        <ele>616.34</ele>
        <time>2013-05-31T12:02:33Z</time>
      </trkpt>
      <trkpt lat="43.84663" lon="7.0937">
        <ele>614.9</ele>
        <time>2013-05-31T12:02:37Z</time>
      </trkpt>
      <trkpt lat="43.84586" lon="7.09297">
        <ele>609.13</ele>
        <time>2013-05-31T12:02:50Z</time>
      </trkpt>
      <trkpt lat="43.84534" lon="7.09275">
        <ele>608.17</ele>
        <time>2013-05-31T12:02:56Z</time>
      </trkpt>
      <trkpt lat="43.84504" lon="7.09278">
        <ele>603.36</ele>
        <time>2013-05-31T12:03:06Z</time>
      </trkpt>
      <trkpt lat="43.84503" lon="7.09269">
        <ele>601.44</ele>
        <time>2013-05-31T12:03:31Z</time>
      </trkpt>
      <trkpt lat="43.84505" lon="7.09271">
        <ele>601.92</ele>
        <time>2013-05-31T12:03:36Z</time>
      </trkpt>
      <trkpt lat="43.8448" lon="7.09356">
        <ele>601.92</ele>
        <time>2013-05-31T12:03:59Z</time>
      </trkpt>
      <trkpt lat="43.84487" lon="7.09368">
        <ele>599.52</ele>
        <time>2013-05-31T12:04:10Z</time>
      </trkpt>
      <trkpt lat="43.84478" lon="7.09394">
        <ele>595.67</ele>
        <time>2013-05-31T12:04:14Z</time>
      </trkpt>
      <trkpt lat="43.84473" lon="7.09408">
        <ele>594.23</ele>
        <time>2013-05-31T12:04:16Z</time>
      </trkpt>
      <trkpt lat="43.84468" lon="7.0944">
        <ele>589.43</ele>
        <time>2013-05-31T12:04:20Z</time>
      </trkpt>
      <trkpt lat="43.84464" lon="7.09465">
        <ele>586.06</ele>
        <time>2013-05-31T12:04:23Z</time>
      </trkpt>
      <trkpt lat="43.8447" lon="7.095">
        <ele>580.77</ele>
        <time>2013-05-31T12:04:27Z</time>
      </trkpt>
      <trkpt lat="43.84462" lon="7.09524">
        <ele>577.41</ele>
        <time>2013-05-31T12:04:30Z</time>
      </trkpt>
      <trkpt lat="43.84449" lon="7.09587">
        <ele>570.68</ele>
        <time>2013-05-31T12:04:37Z</time>
      </trkpt>
      <trkpt lat="43.84448" lon="7.09596">
        <ele>569.72</ele>
        <time>2013-05-31T12:04:38Z</time>
      </trkpt>
      <trkpt lat="43.84451" lon="7.09625">
        <ele>566.35</ele>
        <time>2013-05-31T12:04:41Z</time>
      </trkpt>
      <trkpt lat="43.8446" lon="7.09656">
        <ele>564.43</ele>
        <time>2013-05-31T12:04:50Z</time>
      </trkpt>
      <trkpt lat="43.84467" lon="7.09666">
        <ele>564.43</ele>
        <time>2013-05-31T12:05:06Z</time>
      </trkpt>
      <trkpt lat="43.84486" lon="7.09736">
        <ele>562.03</ele>
        <time>2013-05-31T12:05:22Z</time>
      </trkpt>
      <trkpt lat="43.84498" lon="7.09785">
        <ele>558.66</ele>
        <time>2013-05-31T12:05:27Z</time>
      </trkpt>
      <trkpt lat="43.84514" lon="7.09871">
        <ele>552.41</ele>
        <time>2013-05-31T12:05:37Z</time>
      </trkpt>
      <trkpt lat="43.84502" lon="7.09872">
        <ele>551.45</ele>
        <time>2013-05-31T12:05:39Z</time>
      </trkpt>
      <trkpt lat="43.84474" lon="7.09895">
        <ele>547.13</ele>
        <time>2013-05-31T12:05:44Z</time>
      </trkpt>
      <trkpt lat="43.84481" lon="7.09942">
        <ele>544.72</ele>
        <time>2013-05-31T12:05:49Z</time>
      </trkpt>
      <trkpt lat="43.84494" lon="7.09987">
        <ele>540.4</ele>
        <time>2013-05-31T12:06:34Z</time>
      </trkpt>
      <trkpt lat="43.845" lon="7.10007">
        <ele>538.96</ele>
        <time>2013-05-31T12:06:37Z</time>
      </trkpt>
      <trkpt lat="43.84522" lon="7.1004">
        <ele>535.59</ele>
        <time>2013-05-31T12:06:42Z</time>
      </trkpt>
      <trkpt lat="43.84531" lon="7.10059">
        <ele>532.71</ele>
        <time>2013-05-31T12:06:44Z</time>
      </trkpt>
      <trkpt lat="43.84536" lon="7.10069">
        <ele>530.79</ele>
        <time>2013-05-31T12:06:45Z</time>
      </trkpt>
      <trkpt lat="43.84547" lon="7.10115">
        <ele>525.98</ele>
        <time>2013-05-31T12:06:49Z</time>
      </trkpt>
      <trkpt lat="43.84555" lon="7.10144">
        <ele>522.61</ele>
        <time>2013-05-31T12:06:52Z</time>
      </trkpt>
      <trkpt lat="43.84563" lon="7.10171">
        <ele>518.29</ele>
        <time>2013-05-31T12:06:55Z</time>
      </trkpt>
      <trkpt lat="43.84564" lon="7.10183">
        <ele>518.29</ele>
        <time>2013-05-31T12:06:56Z</time>
      </trkpt>
      <trkpt lat="43.84569" lon="7.10218">
        <ele>513.96</ele>
        <time>2013-05-31T12:06:59Z</time>
      </trkpt>
      <trkpt lat="43.84562" lon="7.10243">
        <ele>509.16</ele>
        <time>2013-05-31T12:07:04Z</time>
      </trkpt>
      <trkpt lat="43.84559" lon="7.10263">
        <ele>503.87</ele>
        <time>2013-05-31T12:07:12Z</time>
      </trkpt>
      <trkpt lat="43.8458" lon="7.10256">
        <ele>500.5</ele>
        <time>2013-05-31T12:07:17Z</time>
      </trkpt>
      <trkpt lat="43.84592" lon="7.10257">
        <ele>497.14</ele>
        <time>2013-05-31T12:07:22Z</time>
      </trkpt>
      <trkpt lat="43.8459" lon="7.10262">
        <ele>497.14</ele>
        <time>2013-05-31T12:07:23Z</time>
      </trkpt>
      <trkpt lat="43.84584" lon="7.10272">
        <ele>496.66</ele>
        <time>2013-05-31T12:07:25Z</time>
      </trkpt>
      <trkpt lat="43.84576" lon="7.10285">
        <ele>495.22</ele>
        <time>2013-05-31T12:07:27Z</time>
      </trkpt>
      <trkpt lat="43.84557" lon="7.10287">
        <ele>493.29</ele>
        <time>2013-05-31T12:07:30Z</time>
      </trkpt>
      <trkpt lat="43.84547" lon="7.10355">
        <ele>489.93</ele>
        <time>2013-05-31T12:07:39Z</time>
      </trkpt>
      <trkpt lat="43.8455" lon="7.10404">
        <ele>487.53</ele>
        <time>2013-05-31T12:07:47Z</time>
      </trkpt>
      <trkpt lat="43.84573" lon="7.1043">
        <ele>483.68</ele>
        <time>2013-05-31T12:08:00Z</time>
      </trkpt>
      <trkpt lat="43.84584" lon="7.10452">
        <ele>480.32</ele>
        <time>2013-05-31T12:08:05Z</time>
      </trkpt>
      <trkpt lat="43.84605" lon="7.10536">
        <ele>474.55</ele>
        <time>2013-05-31T12:08:14Z</time>
      </trkpt>
      <trkpt lat="43.8461" lon="7.10553">
        <ele>474.55</ele>
        <time>2013-05-31T12:08:16Z</time>
      </trkpt>
      <trkpt lat="43.84613" lon="7.1059">
        <ele>475.51</ele>
        <time>2013-05-31T12:08:25Z</time>
      </trkpt>
      <trkpt lat="43.84617" lon="7.10633">
        <ele>476.47</ele>
        <time>2013-05-31T12:08:40Z</time>
      </trkpt>
      <trkpt lat="43.84619" lon="7.10636">
        <ele>476.47</ele>
        <time>2013-05-31T12:08:41Z</time>
      </trkpt>
      <trkpt lat="43.84643" lon="7.10654">
        <ele>473.11</ele>
        <time>2013-05-31T12:08:48Z</time>
      </trkpt>
      <trkpt lat="43.84652" lon="7.10675">
        <ele>471.66</ele>
        <time>2013-05-31T12:08:51Z</time>
      </trkpt>
      <trkpt lat="43.8467" lon="7.10751">
        <ele>469.26</ele>
        <time>2013-05-31T12:09:02Z</time>
      </trkpt>
      <trkpt lat="43.84673" lon="7.10769">
        <ele>467.82</ele>
        <time>2013-05-31T12:09:17Z</time>
      </trkpt>
      <trkpt lat="43.84685" lon="7.10833">
        <ele>467.34</ele>
        <time>2013-05-31T12:09:29Z</time>
      </trkpt>
      <trkpt lat="43.84699" lon="7.10883">
        <ele>465.42</ele>
        <time>2013-05-31T12:09:36Z</time>
      </trkpt>
      <trkpt lat="43.84709" lon="7.10942">
        <ele>461.57</ele>
        <time>2013-05-31T12:09:43Z</time>
      </trkpt>
      <trkpt lat="43.84717" lon="7.10975">
        <ele>458.21</ele>
        <time>2013-05-31T12:09:46Z</time>
      </trkpt>
      <trkpt lat="43.84732" lon="7.11029">
        <ele>454.84</ele>
        <time>2013-05-31T12:09:50Z</time>
      </trkpt>
      <trkpt lat="43.84748" lon="7.11069">
        <ele>451.48</ele>
        <time>2013-05-31T12:09:53Z</time>
      </trkpt>
      <trkpt lat="43.8477" lon="7.11103">
        <ele>446.67</ele>
        <time>2013-05-31T12:09:57Z</time>
      </trkpt>
      <trkpt lat="43.84772" lon="7.11113">
        <ele>445.71</ele>
        <time>2013-05-31T12:09:58Z</time>
      </trkpt>
      <trkpt lat="43.84782" lon="7.11146">
        <ele>442.82</ele>
        <time>2013-05-31T12:10:01Z</time>
      </trkpt>
      <trkpt lat="43.84797" lon="7.11176">
        <ele>437.54</ele>
        <time>2013-05-31T12:10:04Z</time>
      </trkpt>
      <trkpt lat="43.84806" lon="7.11193">
        <ele>433.69</ele>
        <time>2013-05-31T12:10:06Z</time>
      </trkpt>
      <trkpt lat="43.84818" lon="7.1122">
        <ele>430.33</ele>
        <time>2013-05-31T12:10:10Z</time>
      </trkpt>
      <trkpt lat="43.84834" lon="7.11254">
        <ele>426.48</ele>
        <time>2013-05-31T12:10:15Z</time>
      </trkpt>
      <trkpt lat="43.84859" lon="7.11291">
        <ele>419.75</ele>
        <time>2013-05-31T12:10:21Z</time>
      </trkpt>
      <trkpt lat="43.84867" lon="7.11319">
        <ele>415.91</ele>
        <time>2013-05-31T12:10:25Z</time>
      </trkpt>
      <trkpt lat="43.84869" lon="7.11328">
        <ele>415.43</ele>
        <time>2013-05-31T12:10:26Z</time>
      </trkpt>
      <trkpt lat="43.84878" lon="7.11378">
        <ele>411.1</ele>
        <time>2013-05-31T12:10:32Z</time>
      </trkpt>
      <trkpt lat="43.8488" lon="7.11391">
        <ele>408.22</ele>
        <time>2013-05-31T12:10:47Z</time>
      </trkpt>
      <trkpt lat="43.84901" lon="7.11494">
        <ele>404.37</ele>
        <time>2013-05-31T12:11:48Z</time>
      </trkpt>
      <trkpt lat="43.84904" lon="7.11514">
        <ele>402.45</ele>
        <time>2013-05-31T12:11:51Z</time>
      </trkpt>
      <trkpt lat="43.84905" lon="7.11522">
        <ele>402.93</ele>
        <time>2013-05-31T12:11:52Z</time>
      </trkpt>
      <trkpt lat="43.84889" lon="7.11669">
        <ele>403.41</ele>
        <time>2013-05-31T12:12:13Z</time>
      </trkpt>
      <trkpt lat="43.84903" lon="7.11785">
        <ele>400.53</ele>
        <time>2013-05-31T12:12:31Z</time>
      </trkpt>
      <trkpt lat="43.84928" lon="7.11924">
        <ele>401.49</ele>
        <time>2013-05-31T12:12:55Z</time>
      </trkpt>
      <trkpt lat="43.84933" lon="7.11965">
        <ele>399.57</ele>
        <time>2013-05-31T12:13:00Z</time>
      </trkpt>
      <trkpt lat="43.84922" lon="7.12036">
        <ele>396.2</ele>
        <time>2013-05-31T12:13:08Z</time>
      </trkpt>
      <trkpt lat="43.84941" lon="7.12099">
        <ele>390.91</ele>
        <time>2013-05-31T12:13:15Z</time>
      </trkpt>
      <trkpt lat="43.84958" lon="7.1216">
        <ele>387.07</ele>
        <time>2013-05-31T12:13:20Z</time>
      </trkpt>
      <trkpt lat="43.84985" lon="7.12223">
        <ele>380.82</ele>
        <time>2013-05-31T12:13:25Z</time>
      </trkpt>
      <trkpt lat="43.85011" lon="7.12289">
        <ele>372.17</ele>
        <time>2013-05-31T12:13:30Z</time>
      </trkpt>
      <trkpt lat="43.85022" lon="7.12358">
        <ele>367.36</ele>
        <time>2013-05-31T12:13:35Z</time>
      </trkpt>
      <trkpt lat="43.85026" lon="7.1238">
        <ele>363.52</ele>
        <time>2013-05-31T12:13:39Z</time>
      </trkpt>
      <trkpt lat="43.85027" lon="7.12383">
        <ele>363.52</ele>
        <time>2013-05-31T12:13:50Z</time>
      </trkpt>
      <trkpt lat="43.85028" lon="7.12383">
        <ele>363.52</ele>
        <time>2013-05-31T12:14:02Z</time>
      </trkpt>
      <trkpt lat="43.85037" lon="7.12413">
        <ele>361.59</ele>
        <time>2013-05-31T12:14:08Z</time>
      </trkpt>
      <trkpt lat="43.85043" lon="7.12439">
        <ele>358.23</ele>
        <time>2013-05-31T12:14:11Z</time>
      </trkpt>
      <trkpt lat="43.85047" lon="7.12493">
        <ele>354.38</ele>
        <time>2013-05-31T12:14:17Z</time>
      </trkpt>
      <trkpt lat="43.8505" lon="7.12503">
        <ele>354.38</ele>
        <time>2013-05-31T12:14:18Z</time>
      </trkpt>
      <trkpt lat="43.85054" lon="7.12526">
        <ele>351.02</ele>
        <time>2013-05-31T12:14:21Z</time>
      </trkpt>
      <trkpt lat="43.85064" lon="7.12479">
        <ele>346.69</ele>
        <time>2013-05-31T12:14:30Z</time>
      </trkpt>
      <trkpt lat="43.85077" lon="7.12429">
        <ele>341.89</ele>
        <time>2013-05-31T12:14:35Z</time>
      </trkpt>
      <trkpt lat="43.85081" lon="7.12388">
        <ele>338.04</ele>
        <time>2013-05-31T12:14:39Z</time>
      </trkpt>
      <trkpt lat="43.85082" lon="7.12349">
        <ele>334.2</ele>
        <time>2013-05-31T12:14:43Z</time>
      </trkpt>
      <trkpt lat="43.85085" lon="7.12341">
        <ele>334.2</ele>
        <time>2013-05-31T12:14:44Z</time>
      </trkpt>
      <trkpt lat="43.85089" lon="7.12323">
        <ele>330.83</ele>
        <time>2013-05-31T12:14:46Z</time>
      </trkpt>
      <trkpt lat="43.85095" lon="7.12287">
        <ele>327.47</ele>
        <time>2013-05-31T12:14:50Z</time>
      </trkpt>
      <trkpt lat="43.85124" lon="7.12262">
        <ele>322.18</ele>
        <time>2013-05-31T12:14:55Z</time>
      </trkpt>
      <trkpt lat="43.85133" lon="7.12237">
        <ele>319.78</ele>
        <time>2013-05-31T12:14:59Z</time>
      </trkpt>
      <trkpt lat="43.8514" lon="7.12229">
        <ele>316.89</ele>
        <time>2013-05-31T12:15:05Z</time>
      </trkpt>
      <trkpt lat="43.85143" lon="7.12246">
        <ele>314.49</ele>
        <time>2013-05-31T12:15:40Z</time>
      </trkpt>
      <trkpt lat="43.85142" lon="7.1228">
        <ele>310.64</ele>
        <time>2013-05-31T12:15:47Z</time>
      </trkpt>
      <trkpt lat="43.85141" lon="7.12286">
        <ele>310.64</ele>
        <time>2013-05-31T12:15:48Z</time>
      </trkpt>
      <trkpt lat="43.85141" lon="7.12319">
        <ele>307.28</ele>
        <time>2013-05-31T12:15:54Z</time>
      </trkpt>
      <trkpt lat="43.85151" lon="7.12365">
        <ele>302.47</ele>
        <time>2013-05-31T12:16:05Z</time>
      </trkpt>
      <trkpt lat="43.85165" lon="7.12381">
        <ele>299.11</ele>
        <time>2013-05-31T12:16:13Z</time>
      </trkpt>
      <trkpt lat="43.85166" lon="7.12353">
        <ele>296.22</ele>
        <time>2013-05-31T12:16:18Z</time>
      </trkpt>
      <trkpt lat="43.8517" lon="7.12337">
        <ele>294.78</ele>
        <time>2013-05-31T12:16:21Z</time>
      </trkpt>
      <trkpt lat="43.85185" lon="7.12286">
        <ele>289.01</ele>
        <time>2013-05-31T12:16:28Z</time>
      </trkpt>
      <trkpt lat="43.85186" lon="7.12279">
        <ele>289.01</ele>
        <time>2013-05-31T12:16:29Z</time>
      </trkpt>
      <trkpt lat="43.85191" lon="7.12221">
        <ele>285.17</ele>
        <time>2013-05-31T12:16:36Z</time>
      </trkpt>
      <trkpt lat="43.85202" lon="7.1224">
        <ele>283.25</ele>
        <time>2013-05-31T12:16:42Z</time>
      </trkpt>
      <trkpt lat="43.85215" lon="7.12287">
        <ele>278.44</ele>
        <time>2013-05-31T12:16:48Z</time>
      </trkpt>
      <trkpt lat="43.85224" lon="7.12326">
        <ele>274.11</ele>
        <time>2013-05-31T12:16:52Z</time>
      </trkpt>
      <trkpt lat="43.85223" lon="7.12357">
        <ele>271.23</ele>
        <time>2013-05-31T12:16:56Z</time>
      </trkpt>
      <trkpt lat="43.85241" lon="7.12411">
        <ele>265.46</ele>
        <time>2013-05-31T12:17:04Z</time>
      </trkpt>
      <trkpt lat="43.85241" lon="7.12413">
        <ele>265.46</ele>
        <time>2013-05-31T12:17:05Z</time>
      </trkpt>
      <trkpt lat="43.85248" lon="7.12451">
        <ele>262.1</ele>
        <time>2013-05-31T12:17:22Z</time>
      </trkpt>
      <trkpt lat="43.85249" lon="7.12487">
        <ele>258.25</ele>
        <time>2013-05-31T12:17:28Z</time>
      </trkpt>
      <trkpt lat="43.85251" lon="7.12526">
        <ele>253.93</ele>
        <time>2013-05-31T12:17:37Z</time>
      </trkpt>
      <trkpt lat="43.8526" lon="7.12516">
        <ele>250.08</ele>
        <time>2013-05-31T12:17:41Z</time>
      </trkpt>
      <trkpt lat="43.85261" lon="7.12511">
        <ele>250.56</ele>
        <time>2013-05-31T12:17:42Z</time>
      </trkpt>
      <trkpt lat="43.85288" lon="7.12459">
        <ele>245.75</ele>
        <time>2013-05-31T12:17:50Z</time>
      </trkpt>
      <trkpt lat="43.85299" lon="7.12426">
        <ele>241.43</ele>
        <time>2013-05-31T12:17:55Z</time>
      </trkpt>
      <trkpt lat="43.85305" lon="7.12393">
        <ele>238.06</ele>
        <time>2013-05-31T12:18:01Z</time>
      </trkpt>
      <trkpt lat="43.85314" lon="7.12392">
        <ele>235.18</ele>
        <time>2013-05-31T12:18:10Z</time>
      </trkpt>
      <trkpt lat="43.85333" lon="7.12445">
        <ele>230.37</ele>
        <time>2013-05-31T12:18:19Z</time>
      </trkpt>
      <trkpt lat="43.85329" lon="7.12487">
        <ele>226.53</ele>
        <time>2013-05-31T12:18:24Z</time>
      </trkpt>
      <trkpt lat="43.85333" lon="7.12505">
        <ele>222.2</ele>
        <time>2013-05-31T12:18:46Z</time>
      </trkpt>
      <trkpt lat="43.85333" lon="7.12502">
        <ele>221.72</ele>
        <time>2013-05-31T12:19:32Z</time>
      </trkpt>
      <trkpt lat="43.85346" lon="7.12461">
        <ele>220.28</ele>
        <time>2013-05-31T12:19:48Z</time>
      </trkpt>
      <trkpt lat="43.8536" lon="7.12436">
        <ele>216.91</ele>
        <time>2013-05-31T12:19:52Z</time>
      </trkpt>
      <trkpt lat="43.85369" lon="7.12432">
        <ele>214.99</ele>
        <time>2013-05-31T12:19:58Z</time>
      </trkpt>
      <trkpt lat="43.8537" lon="7.12456">
        <ele>212.59</ele>
        <time>2013-05-31T12:20:02Z</time>
      </trkpt>
      <trkpt lat="43.8537" lon="7.12544">
        <ele>208.26</ele>
        <time>2013-05-31T12:20:13Z</time>
      </trkpt>
      <trkpt lat="43.85371" lon="7.12567">
        <ele>205.86</ele>
        <time>2013-05-31T12:20:38Z</time>
      </trkpt>
      <trkpt lat="43.85372" lon="7.12584">
        <ele>206.82</ele>
        <time>2013-05-31T12:22:00Z</time>
      </trkpt>
      <trkpt lat="43.85369" lon="7.12611">
        <ele>210.19</ele>
        <time>2013-05-31T12:22:14Z</time>
      </trkpt>
      <trkpt lat="43.85376" lon="7.12626">
        <ele>212.11</ele>
        <time>2013-05-31T12:22:24Z</time>
      </trkpt>
      <trkpt lat="43.85364" lon="7.12634">
        <ele>215.47</ele>
        <time>2013-05-31T12:22:46Z</time>
      </trkpt>
      <trkpt lat="43.85353" lon="7.1263">
        <ele>218.84</ele>
        <time>2013-05-31T12:23:05Z</time>
      </trkpt>
      <trkpt lat="43.85331" lon="7.12612">
        <ele>223.64</ele>
        <time>2013-05-31T12:23:34Z</time>
      </trkpt>
      <trkpt lat="43.8532" lon="7.12599">
        <ele>227.01</ele>
        <time>2013-05-31T12:23:50Z</time>
      </trkpt>
      <trkpt lat="43.85319" lon="7.12599">
        <ele>227.01</ele>
        <time>2013-05-31T12:23:51Z</time>
      </trkpt>
      <trkpt lat="43.85324" lon="7.12633">
        <ele>232.78</ele>
        <time>2013-05-31T12:24:20Z</time>
      </trkpt>
      <trkpt lat="43.85325" lon="7.12648">
        <ele>236.14</ele>
        <time>2013-05-31T12:24:32Z</time>
      </trkpt>
      <trkpt lat="43.85331" lon="7.12755">
        <ele>239.99</ele>
        <time>2013-05-31T12:25:20Z</time>
      </trkpt>
      <trkpt lat="43.85358" lon="7.1281">
        <ele>240.47</ele>
        <time>2013-05-31T12:25:35Z</time>
      </trkpt>
      <trkpt lat="43.85348" lon="7.12829">
        <ele>242.39</ele>
        <time>2013-05-31T12:25:45Z</time>
      </trkpt>
      <trkpt lat="43.85328" lon="7.12824">
        <ele>246.23</ele>
        <time>2013-05-31T12:26:01Z</time>
      </trkpt>
      <trkpt lat="43.85327" lon="7.12823">
        <ele>246.23</ele>
        <time>2013-05-31T12:26:02Z</time>
      </trkpt>
      <trkpt lat="43.85298" lon="7.1281">
        <ele>251.52</ele>
        <time>2013-05-31T12:26:27Z</time>
      </trkpt>
      <trkpt lat="43.85258" lon="7.12788">
        <ele>257.77</ele>
        <time>2013-05-31T12:27:02Z</time>
      </trkpt>
      <trkpt lat="43.85241" lon="7.12758">
        <ele>262.1</ele>
        <time>2013-05-31T12:27:26Z</time>
      </trkpt>
      <trkpt lat="43.85238" lon="7.12793">
        <ele>266.42</ele>
        <time>2013-05-31T12:27:47Z</time>
      </trkpt>
      <trkpt lat="43.85237" lon="7.12797">
        <ele>266.9</ele>
        <time>2013-05-31T12:27:49Z</time>
      </trkpt>
      <trkpt lat="43.85248" lon="7.1282">
        <ele>270.27</ele>
        <time>2013-05-31T12:28:06Z</time>
      </trkpt>
      <trkpt lat="43.85231" lon="7.12836">
        <ele>276.04</ele>
        <time>2013-05-31T12:28:29Z</time>
      </trkpt>
      <trkpt lat="43.85216" lon="7.12856">
        <ele>280.36</ele>
        <time>2013-05-31T12:29:01Z</time>
      </trkpt>
      <trkpt lat="43.85229" lon="7.12861">
        <ele>284.69</ele>
        <time>2013-05-31T12:29:13Z</time>
      </trkpt>
      <trkpt lat="43.85231" lon="7.12866">
        <ele>285.65</ele>
        <time>2013-05-31T12:29:18Z</time>
      </trkpt>
      <trkpt lat="43.85221" lon="7.12891">
        <ele>289.49</ele>
        <time>2013-05-31T12:29:36Z</time>
      </trkpt>
      <trkpt lat="43.8522" lon="7.12895">
        <ele>289.97</ele>
        <time>2013-05-31T12:29:39Z</time>
      </trkpt>
      <trkpt lat="43.85218" lon="7.12898">
        <ele>289.97</ele>
        <time>2013-05-31T12:29:41Z</time>
      </trkpt>
      <trkpt lat="43.85227" lon="7.12921">
        <ele>292.86</ele>
        <time>2013-05-31T12:29:59Z</time>
      </trkpt>
      <trkpt lat="43.85246" lon="7.12954">
        <ele>296.7</ele>
        <time>2013-05-31T12:30:27Z</time>
      </trkpt>
      <trkpt lat="43.85266" lon="7.13001">
        <ele>302.47</ele>
        <time>2013-05-31T12:31:03Z</time>
      </trkpt>
      <trkpt lat="43.85297" lon="7.13078">
        <ele>305.84</ele>
        <time>2013-05-31T12:31:55Z</time>
      </trkpt>
      <trkpt lat="43.85328" lon="7.13128">
        <ele>305.84</ele>
        <time>2013-05-31T12:32:10Z</time>
      </trkpt>
      <trkpt lat="43.85361" lon="7.13185">
        <ele>305.36</ele>
        <time>2013-05-31T12:32:26Z</time>
      </trkpt>
      <trkpt lat="43.85357" lon="7.13231">
        <ele>309.2</ele>
        <time>2013-05-31T12:32:44Z</time>
      </trkpt>
      <trkpt lat="43.8534" lon="7.13262">
        <ele>314.01</ele>
        <time>2013-05-31T12:33:01Z</time>
      </trkpt>
      <trkpt lat="43.8535" lon="7.13311">
        <ele>317.37</ele>
        <time>2013-05-31T12:33:20Z</time>
      </trkpt>
      <trkpt lat="43.85369" lon="7.13349">
        <ele>319.3</ele>
        <time>2013-05-31T12:33:36Z</time>
      </trkpt>
      <trkpt lat="43.85373" lon="7.13356">
        <ele>319.3</ele>
        <time>2013-05-31T12:33:39Z</time>
      </trkpt>
      <trkpt lat="43.85405" lon="7.13269">
        <ele>322.18</ele>
        <time>2013-05-31T12:34:06Z</time>
      </trkpt>
      <trkpt lat="43.85432" lon="7.13205">
        <ele>325.54</ele>
        <time>2013-05-31T12:34:32Z</time>
      </trkpt>
      <trkpt lat="43.85468" lon="7.13227">
        <ele>331.79</ele>
        <time>2013-05-31T12:34:59Z</time>
      </trkpt>
      <trkpt lat="43.85503" lon="7.13241">
        <ele>337.56</ele>
        <time>2013-05-31T12:35:29Z</time>
      </trkpt>
      <trkpt lat="43.85519" lon="7.13257">
        <ele>340.92</ele>
        <time>2013-05-31T12:35:46Z</time>
      </trkpt>
      <trkpt lat="43.85523" lon="7.13267">
        <ele>341.41</ele>
        <time>2013-05-31T12:35:52Z</time>
      </trkpt>
      <trkpt lat="43.85529" lon="7.13284">
        <ele>343.81</ele>
        <time>2013-05-31T12:36:03Z</time>
      </trkpt>
      <trkpt lat="43.85519" lon="7.13374">
        <ele>349.58</ele>
        <time>2013-05-31T12:36:44Z</time>
      </trkpt>
      <trkpt lat="43.85508" lon="7.13374">
        <ele>351.02</ele>
        <time>2013-05-31T12:36:52Z</time>
      </trkpt>
      <trkpt lat="43.85481" lon="7.13373">
        <ele>354.38</ele>
        <time>2013-05-31T12:37:12Z</time>
      </trkpt>
      <trkpt lat="43.85477" lon="7.13374">
        <ele>354.86</ele>
        <time>2013-05-31T12:37:15Z</time>
      </trkpt>
      <trkpt lat="43.85471" lon="7.13425">
        <ele>360.15</ele>
        <time>2013-05-31T12:37:51Z</time>
      </trkpt>
      <trkpt lat="43.85478" lon="7.13456">
        <ele>363.52</ele>
        <time>2013-05-31T12:38:11Z</time>
      </trkpt>
      <trkpt lat="43.85487" lon="7.13501">
        <ele>368.8</ele>
        <time>2013-05-31T12:38:41Z</time>
      </trkpt>
      <trkpt lat="43.85493" lon="7.13533">
        <ele>372.17</ele>
        <time>2013-05-31T12:39:04Z</time>
      </trkpt>
      <trkpt lat="43.85502" lon="7.13556">
        <ele>375.53</ele>
        <time>2013-05-31T12:39:21Z</time>
      </trkpt>
      <trkpt lat="43.85515" lon="7.13601">
        <ele>380.82</ele>
        <time>2013-05-31T12:39:54Z</time>
      </trkpt>
      <trkpt lat="43.85549" lon="7.13649">
        <ele>384.18</ele>
        <time>2013-05-31T12:40:25Z</time>
      </trkpt>
      <trkpt lat="43.85584" lon="7.13674">
        <ele>390.43</ele>
        <time>2013-05-31T12:40:55Z</time>
      </trkpt>
      <trkpt lat="43.85594" lon="7.13677">
        <ele>389.47</ele>
        <time>2013-05-31T12:41:09Z</time>
      </trkpt>
      <trkpt lat="43.85586" lon="7.13698">
        <ele>390.91</ele>
        <time>2013-05-31T12:41:28Z</time>
      </trkpt>
      <trkpt lat="43.85502" lon="7.13669">
        <ele>395.24</ele>
        <time>2013-05-31T12:41:58Z</time>
      </trkpt>
      <trkpt lat="43.8545" lon="7.13744">
        <ele>401.49</ele>
        <time>2013-05-31T12:42:26Z</time>
      </trkpt>
      <trkpt lat="43.85416" lon="7.13845">
        <ele>406.77</ele>
        <time>2013-05-31T12:42:57Z</time>
      </trkpt>
      <trkpt lat="43.8539" lon="7.13924">
        <ele>410.14</ele>
        <time>2013-05-31T12:43:20Z</time>
      </trkpt>
      <trkpt lat="43.85353" lon="7.14039">
        <ele>415.43</ele>
        <time>2013-05-31T12:43:50Z</time>
      </trkpt>
      <trkpt lat="43.85346" lon="7.14049">
        <ele>415.43</ele>
        <time>2013-05-31T12:43:54Z</time>
      </trkpt>
      <trkpt lat="43.85341" lon="7.14043">
        <ele>415.91</ele>
        <time>2013-05-31T12:44:19Z</time>
      </trkpt>
      <trkpt lat="43.85334" lon="7.14032">
        <ele>415.91</ele>
        <time>2013-05-31T12:44:30Z</time>
      </trkpt>
      <trkpt lat="43.85311" lon="7.13972">
        <ele>420.23</ele>
        <time>2013-05-31T12:44:57Z</time>
      </trkpt>
      <trkpt lat="43.85306" lon="7.13988">
        <ele>423.12</ele>
        <time>2013-05-31T12:45:25Z</time>
      </trkpt>
      <trkpt lat="43.85311" lon="7.14028">
        <ele>424.56</ele>
        <time>2013-05-31T12:45:43Z</time>
      </trkpt>
      <trkpt lat="43.85315" lon="7.14053">
        <ele>426</ele>
        <time>2013-05-31T12:45:53Z</time>
      </trkpt>
      <trkpt lat="43.85303" lon="7.14085">
        <ele>428.89</ele>
        <time>2013-05-31T12:46:03Z</time>
      </trkpt>
      <trkpt lat="43.85299" lon="7.14129">
        <ele>431.77</ele>
        <time>2013-05-31T12:46:28Z</time>
      </trkpt>
      <trkpt lat="43.853" lon="7.14132">
        <ele>431.29</ele>
        <time>2013-05-31T12:46:55Z</time>
      </trkpt>
      <trkpt lat="43.85295" lon="7.1414">
        <ele>426.48</ele>
        <time>2013-05-31T12:54:08Z</time>
      </trkpt>
      <trkpt lat="43.85295" lon="7.14141">
        <ele>429.85</ele>
        <time>2013-05-31T12:58:22Z</time>
      </trkpt>
      <trkpt lat="43.85295" lon="7.14158">
        <ele>430.33</ele>
        <time>2013-05-31T12:58:40Z</time>
      </trkpt>
      <trkpt lat="43.85309" lon="7.14206">
        <ele>425.52</ele>
        <time>2013-05-31T12:58:57Z</time>
      </trkpt>
      <trkpt lat="43.85306" lon="7.14226">
        <ele>420.23</ele>
        <time>2013-05-31T12:59:05Z</time>
      </trkpt>
      <trkpt lat="43.85305" lon="7.14232">
        <ele>418.79</ele>
        <time>2013-05-31T12:59:10Z</time>
      </trkpt>
      <trkpt lat="43.85314" lon="7.14242">
        <ele>414.47</ele>
        <time>2013-05-31T12:59:16Z</time>
      </trkpt>
      <trkpt lat="43.85322" lon="7.14251">
        <ele>410.62</ele>
        <time>2013-05-31T12:59:25Z</time>
      </trkpt>
      <trkpt lat="43.85329" lon="7.14261">
        <ele>407.26</ele>
        <time>2013-05-31T12:59:30Z</time>
      </trkpt>
      <trkpt lat="43.85343" lon="7.1428">
        <ele>401.97</ele>
        <time>2013-05-31T12:59:37Z</time>
      </trkpt>
      <trkpt lat="43.85347" lon="7.14298">
        <ele>400.05</ele>
        <time>2013-05-31T12:59:39Z</time>
      </trkpt>
      <trkpt lat="43.85353" lon="7.14312">
        <ele>398.6</ele>
        <time>2013-05-31T12:59:50Z</time>
      </trkpt>
      <trkpt lat="43.85345" lon="7.14305">
        <ele>398.12</ele>
        <time>2013-05-31T13:00:07Z</time>
      </trkpt>
      <trkpt lat="43.8535" lon="7.14323">
        <ele>394.28</ele>
        <time>2013-05-31T13:00:12Z</time>
      </trkpt>
      <trkpt lat="43.85355" lon="7.14329">
        <ele>389.95</ele>
        <time>2013-05-31T13:00:20Z</time>
      </trkpt>
      <trkpt lat="43.85355" lon="7.1433">
        <ele>389.47</ele>
        <time>2013-05-31T13:00:21Z</time>
      </trkpt>
      <trkpt lat="43.8536" lon="7.14344">
        <ele>385.15</ele>
        <time>2013-05-31T13:00:28Z</time>
      </trkpt>
      <trkpt lat="43.85373" lon="7.14395">
        <ele>378.9</ele>
        <time>2013-05-31T13:00:38Z</time>
      </trkpt>
      <trkpt lat="43.85375" lon="7.14407">
        <ele>378.9</ele>
        <time>2013-05-31T13:00:39Z</time>
      </trkpt>
      <trkpt lat="43.8538" lon="7.14434">
        <ele>374.57</ele>
        <time>2013-05-31T13:00:43Z</time>
      </trkpt>
      <trkpt lat="43.85381" lon="7.1444">
        <ele>374.57</ele>
        <time>2013-05-31T13:00:44Z</time>
      </trkpt>
      <trkpt lat="43.85377" lon="7.14462">
        <ele>370.24</ele>
        <time>2013-05-31T13:00:51Z</time>
      </trkpt>
      <trkpt lat="43.85384" lon="7.14489">
        <ele>366.4</ele>
        <time>2013-05-31T13:00:59Z</time>
      </trkpt>
      <trkpt lat="43.85406" lon="7.14533">
        <ele>360.15</ele>
        <time>2013-05-31T13:01:11Z</time>
      </trkpt>
      <trkpt lat="43.85411" lon="7.14553">
        <ele>357.27</ele>
        <time>2013-05-31T13:01:14Z</time>
      </trkpt>
      <trkpt lat="43.85417" lon="7.14581">
        <ele>353.9</ele>
        <time>2013-05-31T13:01:18Z</time>
      </trkpt>
      <trkpt lat="43.85423" lon="7.14599">
        <ele>350.06</ele>
        <time>2013-05-31T13:01:21Z</time>
      </trkpt>
      <trkpt lat="43.8543" lon="7.14622">
        <ele>348.13</ele>
        <time>2013-05-31T13:01:40Z</time>
      </trkpt>
      <trkpt lat="43.85425" lon="7.14638">
        <ele>346.69</ele>
        <time>2013-05-31T13:02:43Z</time>
      </trkpt>
      <trkpt lat="43.85427" lon="7.1464">
        <ele>345.73</ele>
        <time>2013-05-31T13:02:45Z</time>
      </trkpt>
      <trkpt lat="43.85431" lon="7.14663">
        <ele>342.37</ele>
        <time>2013-05-31T13:02:50Z</time>
      </trkpt>
      <trkpt lat="43.85428" lon="7.14689">
        <ele>338.04</ele>
        <time>2013-05-31T13:02:55Z</time>
      </trkpt>
      <trkpt lat="43.85427" lon="7.14695">
        <ele>337.56</ele>
        <time>2013-05-31T13:02:56Z</time>
      </trkpt>
      <trkpt lat="43.85424" lon="7.14705">
        <ele>334.2</ele>
        <time>2013-05-31T13:03:01Z</time>
      </trkpt>
      <trkpt lat="43.85434" lon="7.1471">
        <ele>329.87</ele>
        <time>2013-05-31T13:03:10Z</time>
      </trkpt>
      <trkpt lat="43.85444" lon="7.14719">
        <ele>324.1</ele>
        <time>2013-05-31T13:03:18Z</time>
      </trkpt>
      <trkpt lat="43.85446" lon="7.14722">
        <ele>321.7</ele>
        <time>2013-05-31T13:03:25Z</time>
      </trkpt>
      <trkpt lat="43.85449" lon="7.1471">
        <ele>317.37</ele>
        <time>2013-05-31T13:03:28Z</time>
      </trkpt>
      <trkpt lat="43.85451" lon="7.14707">
        <ele>317.37</ele>
        <time>2013-05-31T13:03:29Z</time>
      </trkpt>
      <trkpt lat="43.85453" lon="7.14701">
        <ele>315.45</ele>
        <time>2013-05-31T13:03:32Z</time>
      </trkpt>
      <trkpt lat="43.85459" lon="7.14709">
        <ele>311.6</ele>
        <time>2013-05-31T13:03:38Z</time>
      </trkpt>
      <trkpt lat="43.85471" lon="7.14737">
        <ele>306.32</ele>
        <time>2013-05-31T13:03:50Z</time>
      </trkpt>
      <trkpt lat="43.85468" lon="7.14765">
        <ele>300.55</ele>
        <time>2013-05-31T13:03:56Z</time>
      </trkpt>
      <trkpt lat="43.85475" lon="7.14769">
        <ele>300.55</ele>
        <time>2013-05-31T13:03:59Z</time>
      </trkpt>
      <trkpt lat="43.85478" lon="7.14778">
        <ele>299.59</ele>
        <time>2013-05-31T13:04:23Z</time>
      </trkpt>
      <trkpt lat="43.85479" lon="7.14824">
        <ele>301.03</ele>
        <time>2013-05-31T13:05:05Z</time>
      </trkpt>
      <trkpt lat="43.85474" lon="7.1488">
        <ele>301.03</ele>
        <time>2013-05-31T13:07:01Z</time>
      </trkpt>
      <trkpt lat="43.85471" lon="7.14907">
        <ele>300.55</ele>
        <time>2013-05-31T13:07:13Z</time>
      </trkpt>
      <trkpt lat="43.8547" lon="7.14961">
        <ele>298.15</ele>
        <time>2013-05-31T13:07:41Z</time>
      </trkpt>
      <trkpt lat="43.85496" lon="7.15">
        <ele>294.3</ele>
        <time>2013-05-31T13:07:52Z</time>
      </trkpt>
      <trkpt lat="43.85502" lon="7.15007">
        <ele>293.34</ele>
        <time>2013-05-31T13:07:54Z</time>
      </trkpt>
      <trkpt lat="43.85514" lon="7.1502">
        <ele>291.9</ele>
        <time>2013-05-31T13:08:00Z</time>
      </trkpt>
      <trkpt lat="43.85509" lon="7.1504">
        <ele>292.38</ele>
        <time>2013-05-31T13:08:12Z</time>
      </trkpt>
      <trkpt lat="43.85506" lon="7.15042">
        <ele>292.86</ele>
        <time>2013-05-31T13:08:22Z</time>
      </trkpt>
      <trkpt lat="43.85484" lon="7.15075">
        <ele>294.3</ele>
        <time>2013-05-31T13:08:41Z</time>
      </trkpt>
      <trkpt lat="43.85452" lon="7.15137">
        <ele>296.7</ele>
        <time>2013-05-31T13:09:09Z</time>
      </trkpt>
      <trkpt lat="43.85424" lon="7.15162">
        <ele>299.59</ele>
        <time>2013-05-31T13:09:25Z</time>
      </trkpt>
      <trkpt lat="43.85382" lon="7.15248">
        <ele>295.26</ele>
        <time>2013-05-31T13:09:55Z</time>
      </trkpt>
      <trkpt lat="43.8538" lon="7.15251">
        <ele>295.26</ele>
        <time>2013-05-31T13:09:56Z</time>
      </trkpt>
      <trkpt lat="43.85377" lon="7.15255">
        <ele>294.78</ele>
        <time>2013-05-31T13:10:28Z</time>
      </trkpt>
      <trkpt lat="43.85354" lon="7.15325">
        <ele>293.82</ele>
        <time>2013-05-31T13:10:49Z</time>
      </trkpt>
      <trkpt lat="43.8537" lon="7.15445">
        <ele>293.34</ele>
        <time>2013-05-31T13:11:30Z</time>
      </trkpt>
      <trkpt lat="43.85392" lon="7.15473">
        <ele>293.82</ele>
        <time>2013-05-31T13:11:55Z</time>
      </trkpt>
      <trkpt lat="43.85412" lon="7.15521">
        <ele>294.78</ele>
        <time>2013-05-31T13:12:22Z</time>
      </trkpt>
      <trkpt lat="43.85438" lon="7.15533">
        <ele>295.74</ele>
        <time>2013-05-31T13:12:47Z</time>
      </trkpt>
      <trkpt lat="43.85451" lon="7.15542">
        <ele>294.78</ele>
        <time>2013-05-31T13:13:05Z</time>
      </trkpt>
      <trkpt lat="43.8545" lon="7.15551">
        <ele>294.3</ele>
        <time>2013-05-31T13:13:19Z</time>
      </trkpt>
      <trkpt lat="43.85451" lon="7.15592">
        <ele>294.78</ele>
        <time>2013-05-31T13:13:31Z</time>
      </trkpt>
      <trkpt lat="43.85468" lon="7.15645">
        <ele>295.74</ele>
        <time>2013-05-31T13:13:54Z</time>
      </trkpt>
      <trkpt lat="43.85469" lon="7.15648">
        <ele>295.74</ele>
        <time>2013-05-31T13:13:56Z</time>
      </trkpt>
      <trkpt lat="43.85486" lon="7.15677">
        <ele>292.38</ele>
        <time>2013-05-31T13:14:13Z</time>
      </trkpt>
      <trkpt lat="43.85488" lon="7.15679">
        <ele>292.38</ele>
        <time>2013-05-31T13:14:14Z</time>
      </trkpt>
      <trkpt lat="43.85498" lon="7.15696">
        <ele>289.01</ele>
        <time>2013-05-31T13:14:19Z</time>
      </trkpt>
      <trkpt lat="43.85504" lon="7.1572">
        <ele>285.65</ele>
        <time>2013-05-31T13:14:24Z</time>
      </trkpt>
      <trkpt lat="43.85507" lon="7.15734">
        <ele>281.8</ele>
        <time>2013-05-31T13:14:32Z</time>
      </trkpt>
      <trkpt lat="43.85504" lon="7.15745">
        <ele>278.44</ele>
        <time>2013-05-31T13:14:37Z</time>
      </trkpt>
      <trkpt lat="43.85505" lon="7.15779">
        <ele>274.59</ele>
        <time>2013-05-31T13:14:53Z</time>
      </trkpt>
      <trkpt lat="43.85497" lon="7.15809">
        <ele>274.11</ele>
        <time>2013-05-31T13:15:28Z</time>
      </trkpt>
      <trkpt lat="43.85491" lon="7.15815">
        <ele>273.63</ele>
        <time>2013-05-31T13:17:22Z</time>
      </trkpt>
      <trkpt lat="43.85482" lon="7.15817">
        <ele>277</ele>
        <time>2013-05-31T13:17:38Z</time>
      </trkpt>
      <trkpt lat="43.85482" lon="7.15832">
        <ele>282.28</ele>
        <time>2013-05-31T13:18:11Z</time>
      </trkpt>
      <trkpt lat="43.85478" lon="7.15838">
        <ele>285.65</ele>
        <time>2013-05-31T13:18:25Z</time>
      </trkpt>
      <trkpt lat="43.85468" lon="7.15858">
        <ele>290.94</ele>
        <time>2013-05-31T13:18:58Z</time>
      </trkpt>
      <trkpt lat="43.85474" lon="7.15878">
        <ele>294.3</ele>
        <time>2013-05-31T13:19:21Z</time>
      </trkpt>
      <trkpt lat="43.85483" lon="7.15885">
        <ele>296.22</ele>
        <time>2013-05-31T13:20:11Z</time>
      </trkpt>
      <trkpt lat="43.85494" lon="7.15909">
        <ele>301.51</ele>
        <time>2013-05-31T13:21:10Z</time>
      </trkpt>
      <trkpt lat="43.85498" lon="7.1591">
        <ele>303.91</ele>
        <time>2013-05-31T13:22:53Z</time>
      </trkpt>
      <trkpt lat="43.85499" lon="7.15911">
        <ele>303.43</ele>
        <time>2013-05-31T13:22:54Z</time>
      </trkpt>
      <trkpt lat="43.85517" lon="7.15927">
        <ele>306.8</ele>
        <time>2013-05-31T13:23:13Z</time>
      </trkpt>
      <trkpt lat="43.85517" lon="7.1596">
        <ele>312.09</ele>
        <time>2013-05-31T13:23:49Z</time>
      </trkpt>
      <trkpt lat="43.85507" lon="7.15957">
        <ele>315.45</ele>
        <time>2013-05-31T13:24:07Z</time>
      </trkpt>
      <trkpt lat="43.85513" lon="7.15972">
        <ele>319.78</ele>
        <time>2013-05-31T13:24:30Z</time>
      </trkpt>
      <trkpt lat="43.85517" lon="7.15978">
        <ele>323.14</ele>
        <time>2013-05-31T13:24:45Z</time>
      </trkpt>
      <trkpt lat="43.85517" lon="7.15985">
        <ele>324.1</ele>
        <time>2013-05-31T13:25:04Z</time>
      </trkpt>
      <trkpt lat="43.85503" lon="7.15992">
        <ele>327.47</ele>
        <time>2013-05-31T13:25:19Z</time>
      </trkpt>
      <trkpt lat="43.85492" lon="7.15996">
        <ele>330.35</ele>
        <time>2013-05-31T13:25:38Z</time>
      </trkpt>
      <trkpt lat="43.85511" lon="7.16014">
        <ele>334.2</ele>
        <time>2013-05-31T13:25:58Z</time>
      </trkpt>
      <trkpt lat="43.85521" lon="7.16033">
        <ele>338.04</ele>
        <time>2013-05-31T13:26:22Z</time>
      </trkpt>
      <trkpt lat="43.85533" lon="7.16052">
        <ele>342.85</ele>
        <time>2013-05-31T13:26:52Z</time>
      </trkpt>
      <trkpt lat="43.85514" lon="7.16059">
        <ele>348.62</ele>
        <time>2013-05-31T13:27:30Z</time>
      </trkpt>
      <trkpt lat="43.8549" lon="7.16047">
        <ele>352.46</ele>
        <time>2013-05-31T13:27:59Z</time>
      </trkpt>
      <trkpt lat="43.85462" lon="7.16031">
        <ele>359.67</ele>
        <time>2013-05-31T13:28:44Z</time>
      </trkpt>
      <trkpt lat="43.85433" lon="7.16016">
        <ele>364</ele>
        <time>2013-05-31T13:29:24Z</time>
      </trkpt>
      <trkpt lat="43.85417" lon="7.16016">
        <ele>367.36</ele>
        <time>2013-05-31T13:29:54Z</time>
      </trkpt>
      <trkpt lat="43.85404" lon="7.16018">
        <ele>372.17</ele>
        <time>2013-05-31T13:30:24Z</time>
      </trkpt>
      <trkpt lat="43.85404" lon="7.16029">
        <ele>376.97</ele>
        <time>2013-05-31T13:30:52Z</time>
      </trkpt>
      <trkpt lat="43.85407" lon="7.1604">
        <ele>382.74</ele>
        <time>2013-05-31T13:31:21Z</time>
      </trkpt>
      <trkpt lat="43.85401" lon="7.16043">
        <ele>382.74</ele>
        <time>2013-05-31T13:31:32Z</time>
      </trkpt>
      <trkpt lat="43.854" lon="7.16053">
        <ele>386.59</ele>
        <time>2013-05-31T13:33:24Z</time>
      </trkpt>
      <trkpt lat="43.85383" lon="7.16066">
        <ele>391.87</ele>
        <time>2013-05-31T13:33:55Z</time>
      </trkpt>
      <trkpt lat="43.85353" lon="7.16088">
        <ele>397.64</ele>
        <time>2013-05-31T13:35:21Z</time>
      </trkpt>
      <trkpt lat="43.8531" lon="7.16144">
        <ele>402.45</ele>
        <time>2013-05-31T13:35:56Z</time>
      </trkpt>
      <trkpt lat="43.85278" lon="7.16212">
        <ele>405.81</ele>
        <time>2013-05-31T13:36:27Z</time>
      </trkpt>
      <trkpt lat="43.85242" lon="7.16267">
        <ele>409.18</ele>
        <time>2013-05-31T13:36:50Z</time>
      </trkpt>
      <trkpt lat="43.85178" lon="7.16272">
        <ele>413.98</ele>
        <time>2013-05-31T13:37:19Z</time>
      </trkpt>
      <trkpt lat="43.85173" lon="7.16268">
        <ele>415.43</ele>
        <time>2013-05-31T13:37:28Z</time>
      </trkpt>
      <trkpt lat="43.85185" lon="7.16265">
        <ele>411.58</ele>
        <time>2013-05-31T13:37:34Z</time>
      </trkpt>
      <trkpt lat="43.85206" lon="7.16266">
        <ele>407.74</ele>
        <time>2013-05-31T13:37:39Z</time>
      </trkpt>
      <trkpt lat="43.85208" lon="7.16266">
        <ele>407.74</ele>
        <time>2013-05-31T13:37:40Z</time>
      </trkpt>
      <trkpt lat="43.85212" lon="7.16255">
        <ele>404.37</ele>
        <time>2013-05-31T13:37:44Z</time>
      </trkpt>
      <trkpt lat="43.85215" lon="7.16242">
        <ele>401.49</ele>
        <time>2013-05-31T13:37:47Z</time>
      </trkpt>
      <trkpt lat="43.8522" lon="7.16226">
        <ele>398.12</ele>
        <time>2013-05-31T13:37:51Z</time>
      </trkpt>
      <trkpt lat="43.85225" lon="7.16195">
        <ele>391.87</ele>
        <time>2013-05-31T13:38:01Z</time>
      </trkpt>
      <trkpt lat="43.85228" lon="7.16196">
        <ele>388.51</ele>
        <time>2013-05-31T13:38:06Z</time>
      </trkpt>
      <trkpt lat="43.8523" lon="7.16194">
        <ele>388.51</ele>
        <time>2013-05-31T13:38:07Z</time>
      </trkpt>
      <trkpt lat="43.85242" lon="7.16154">
        <ele>385.15</ele>
        <time>2013-05-31T13:38:17Z</time>
      </trkpt>
      <trkpt lat="43.85256" lon="7.16126">
        <ele>385.63</ele>
        <time>2013-05-31T13:38:25Z</time>
      </trkpt>
      <trkpt lat="43.85263" lon="7.1611">
        <ele>388.03</ele>
        <time>2013-05-31T13:38:35Z</time>
      </trkpt>
      <trkpt lat="43.85262" lon="7.16107">
        <ele>388.03</ele>
        <time>2013-05-31T13:38:36Z</time>
      </trkpt>
      <trkpt lat="43.85252" lon="7.16094">
        <ele>389.47</ele>
        <time>2013-05-31T13:38:48Z</time>
      </trkpt>
      <trkpt lat="43.85252" lon="7.16068">
        <ele>389.47</ele>
        <time>2013-05-31T13:38:56Z</time>
      </trkpt>
      <trkpt lat="43.85242" lon="7.16006">
        <ele>382.74</ele>
        <time>2013-05-31T13:39:20Z</time>
      </trkpt>
      <trkpt lat="43.85248" lon="7.15987">
        <ele>379.38</ele>
        <time>2013-05-31T13:39:28Z</time>
      </trkpt>
      <trkpt lat="43.85267" lon="7.15932">
        <ele>373.61</ele>
        <time>2013-05-31T13:39:46Z</time>
      </trkpt>
      <trkpt lat="43.85283" lon="7.1589">
        <ele>368.8</ele>
        <time>2013-05-31T13:39:53Z</time>
      </trkpt>
      <trkpt lat="43.85291" lon="7.15868">
        <ele>365.44</ele>
        <time>2013-05-31T13:39:58Z</time>
      </trkpt>
      <trkpt lat="43.85292" lon="7.15833">
        <ele>361.59</ele>
        <time>2013-05-31T13:40:10Z</time>
      </trkpt>
      <trkpt lat="43.85309" lon="7.15787">
        <ele>357.75</ele>
        <time>2013-05-31T13:40:18Z</time>
      </trkpt>
      <trkpt lat="43.85317" lon="7.15756">
        <ele>356.31</ele>
        <time>2013-05-31T13:40:27Z</time>
      </trkpt>
      <trkpt lat="43.85313" lon="7.15736">
        <ele>359.19</ele>
        <time>2013-05-31T13:40:43Z</time>
      </trkpt>
      <trkpt lat="43.85291" lon="7.15712">
        <ele>356.79</ele>
        <time>2013-05-31T13:41:19Z</time>
      </trkpt>
      <trkpt lat="43.85287" lon="7.15709">
        <ele>355.83</ele>
        <time>2013-05-31T13:41:22Z</time>
      </trkpt>
      <trkpt lat="43.8527" lon="7.15688">
        <ele>351.02</ele>
        <time>2013-05-31T13:41:37Z</time>
      </trkpt>
      <trkpt lat="43.85269" lon="7.15678">
        <ele>347.65</ele>
        <time>2013-05-31T13:41:45Z</time>
      </trkpt>
      <trkpt lat="43.85259" lon="7.15693">
        <ele>347.65</ele>
        <time>2013-05-31T13:41:46Z</time>
      </trkpt>
      <trkpt lat="43.85237" lon="7.15725">
        <ele>349.1</ele>
        <time>2013-05-31T13:41:48Z</time>
      </trkpt>
      <trkpt lat="43.85265" lon="7.15677">
        <ele>349.58</ele>
        <time>2013-05-31T13:42:06Z</time>
      </trkpt>
      <trkpt lat="43.85269" lon="7.15675">
        <ele>349.58</ele>
        <time>2013-05-31T13:43:02Z</time>
      </trkpt>
      <trkpt lat="43.85255" lon="7.15648">
        <ele>344.29</ele>
        <time>2013-05-31T13:43:12Z</time>
      </trkpt>
      <trkpt lat="43.85255" lon="7.15646">
        <ele>344.29</ele>
        <time>2013-05-31T13:43:13Z</time>
      </trkpt>
      <trkpt lat="43.85224" lon="7.15619">
        <ele>338.52</ele>
        <time>2013-05-31T13:43:28Z</time>
      </trkpt>
      <trkpt lat="43.85156" lon="7.15549">
        <ele>333.71</ele>
        <time>2013-05-31T13:44:03Z</time>
      </trkpt>
      <trkpt lat="43.85149" lon="7.15542">
        <ele>334.2</ele>
        <time>2013-05-31T13:44:07Z</time>
      </trkpt>
      <trkpt lat="43.85117" lon="7.15526">
        <ele>329.39</ele>
        <time>2013-05-31T13:44:20Z</time>
      </trkpt>
      <trkpt lat="43.85092" lon="7.15472">
        <ele>324.1</ele>
        <time>2013-05-31T13:44:34Z</time>
      </trkpt>
      <trkpt lat="43.85087" lon="7.15458">
        <ele>323.62</ele>
        <time>2013-05-31T13:44:49Z</time>
      </trkpt>
      <trkpt lat="43.85068" lon="7.15432">
        <ele>318.81</ele>
        <time>2013-05-31T13:45:05Z</time>
      </trkpt>
      <trkpt lat="43.85073" lon="7.15417">
        <ele>316.89</ele>
        <time>2013-05-31T13:45:11Z</time>
      </trkpt>
      <trkpt lat="43.85079" lon="7.15407">
        <ele>317.37</ele>
        <time>2013-05-31T13:45:16Z</time>
      </trkpt>
      <trkpt lat="43.85086" lon="7.15367">
        <ele>314.49</ele>
        <time>2013-05-31T13:45:31Z</time>
      </trkpt>
      <trkpt lat="43.85094" lon="7.15345">
        <ele>310.64</ele>
        <time>2013-05-31T13:45:40Z</time>
      </trkpt>
      <trkpt lat="43.85096" lon="7.15333">
        <ele>309.2</ele>
        <time>2013-05-31T13:45:44Z</time>
      </trkpt>
      <trkpt lat="43.85097" lon="7.15331">
        <ele>309.2</ele>
        <time>2013-05-31T13:45:45Z</time>
      </trkpt>
      <trkpt lat="43.85111" lon="7.15307">
        <ele>305.36</ele>
        <time>2013-05-31T13:45:55Z</time>
      </trkpt>
      <trkpt lat="43.85123" lon="7.15274">
        <ele>301.99</ele>
        <time>2013-05-31T13:46:09Z</time>
      </trkpt>
      <trkpt lat="43.85127" lon="7.15257">
        <ele>298.15</ele>
        <time>2013-05-31T13:46:16Z</time>
      </trkpt>
      <trkpt lat="43.85119" lon="7.15214">
        <ele>297.18</ele>
        <time>2013-05-31T13:46:37Z</time>
      </trkpt>
      <trkpt lat="43.85105" lon="7.1521">
        <ele>293.82</ele>
        <time>2013-05-31T13:46:44Z</time>
      </trkpt>
      <trkpt lat="43.85054" lon="7.15188">
        <ele>285.65</ele>
        <time>2013-05-31T13:47:11Z</time>
      </trkpt>
      <trkpt lat="43.85051" lon="7.15184">
        <ele>284.69</ele>
        <time>2013-05-31T13:47:13Z</time>
      </trkpt>
      <trkpt lat="43.85044" lon="7.15172">
        <ele>280.84</ele>
        <time>2013-05-31T13:47:18Z</time>
      </trkpt>
      <trkpt lat="43.85042" lon="7.1517">
        <ele>280.84</ele>
        <time>2013-05-31T13:47:19Z</time>
      </trkpt>
      <trkpt lat="43.85023" lon="7.15153">
        <ele>276.04</ele>
        <time>2013-05-31T13:47:29Z</time>
      </trkpt>
      <trkpt lat="43.85021" lon="7.15146">
        <ele>273.15</ele>
        <time>2013-05-31T13:48:24Z</time>
      </trkpt>
      <trkpt lat="43.8504" lon="7.1514">
        <ele>268.83</ele>
        <time>2013-05-31T13:48:33Z</time>
      </trkpt>
      <trkpt lat="43.85033" lon="7.15138">
        <ele>266.42</ele>
        <time>2013-05-31T13:48:45Z</time>
      </trkpt>
      <trkpt lat="43.85033" lon="7.15146">
        <ele>266.9</ele>
        <time>2013-05-31T13:49:03Z</time>
      </trkpt>
      <trkpt lat="43.8503" lon="7.15142">
        <ele>266.9</ele>
        <time>2013-05-31T13:50:04Z</time>
      </trkpt>
      <trkpt lat="43.85032" lon="7.15145">
        <ele>266.42</ele>
        <time>2013-05-31T13:51:07Z</time>
      </trkpt>
      <trkpt lat="43.85033" lon="7.15127">
        <ele>263.54</ele>
        <time>2013-05-31T13:51:20Z</time>
      </trkpt>
      <trkpt lat="43.85039" lon="7.15122">
        <ele>260.65</ele>
        <time>2013-05-31T13:51:28Z</time>
      </trkpt>
      <trkpt lat="43.85027" lon="7.15106">
        <ele>253.44</ele>
        <time>2013-05-31T13:51:48Z</time>
      </trkpt>
      <trkpt lat="43.85025" lon="7.15115">
        <ele>253.44</ele>
        <time>2013-05-31T13:52:50Z</time>
      </trkpt>
      <trkpt lat="43.85014" lon="7.15105">
        <ele>246.72</ele>
        <time>2013-05-31T13:53:06Z</time>
      </trkpt>
      <trkpt lat="43.85008" lon="7.15099">
        <ele>241.91</ele>
        <time>2013-05-31T13:53:22Z</time>
      </trkpt>
      <trkpt lat="43.85017" lon="7.1509">
        <ele>239.02</ele>
        <time>2013-05-31T13:53:39Z</time>
      </trkpt>
      <trkpt lat="43.85023" lon="7.15074">
        <ele>234.7</ele>
        <time>2013-05-31T13:53:53Z</time>
      </trkpt>
      <trkpt lat="43.85012" lon="7.15076">
        <ele>232.3</ele>
        <time>2013-05-31T13:54:09Z</time>
      </trkpt>
      <trkpt lat="43.85004" lon="7.15076">
        <ele>229.89</ele>
        <time>2013-05-31T13:54:17Z</time>
      </trkpt>
      <trkpt lat="43.84974" lon="7.15055">
        <ele>224.61</ele>
        <time>2013-05-31T13:54:47Z</time>
      </trkpt>
      <trkpt lat="43.84962" lon="7.15069">
        <ele>219.32</ele>
        <time>2013-05-31T13:55:15Z</time>
      </trkpt>
      <trkpt lat="43.84955" lon="7.15071">
        <ele>217.88</ele>
        <time>2013-05-31T13:55:23Z</time>
      </trkpt>
      <trkpt lat="43.8494" lon="7.15074">
        <ele>212.11</ele>
        <time>2013-05-31T13:55:35Z</time>
      </trkpt>
      <trkpt lat="43.84949" lon="7.15063">
        <ele>208.26</ele>
        <time>2013-05-31T13:56:06Z</time>
      </trkpt>
      <trkpt lat="43.84948" lon="7.15062">
        <ele>208.26</ele>
        <time>2013-05-31T13:56:12Z</time>
      </trkpt>
      <trkpt lat="43.84935" lon="7.15048">
        <ele>204.42</ele>
        <time>2013-05-31T13:56:21Z</time>
      </trkpt>
      <trkpt lat="43.84899" lon="7.15037">
        <ele>206.82</ele>
        <time>2013-05-31T13:56:41Z</time>
      </trkpt>
      <trkpt lat="43.84887" lon="7.1505">
        <ele>210.19</ele>
        <time>2013-05-31T13:56:59Z</time>
      </trkpt>
      <trkpt lat="43.84886" lon="7.1505">
        <ele>209.7</ele>
        <time>2013-05-31T13:57:00Z</time>
      </trkpt>
      <trkpt lat="43.84861" lon="7.15075">
        <ele>204.9</ele>
        <time>2013-05-31T13:57:15Z</time>
      </trkpt>
      <trkpt lat="43.84854" lon="7.15088">
        <ele>201.53</ele>
        <time>2013-05-31T13:57:21Z</time>
      </trkpt>
      <trkpt lat="43.84839" lon="7.15114">
        <ele>199.13</ele>
        <time>2013-05-31T13:57:50Z</time>
      </trkpt>
      <trkpt lat="43.84824" lon="7.15129">
        <ele>195.77</ele>
        <time>2013-05-31T13:58:26Z</time>
      </trkpt>
      <trkpt lat="43.84806" lon="7.15129">
        <ele>192.4</ele>
        <time>2013-05-31T13:58:34Z</time>
      </trkpt>
      <trkpt lat="43.84792" lon="7.15147">
        <ele>188.56</ele>
        <time>2013-05-31T13:58:43Z</time>
      </trkpt>
      <trkpt lat="43.84798" lon="7.15145">
        <ele>186.15</ele>
        <time>2013-05-31T13:58:51Z</time>
      </trkpt>
      <trkpt lat="43.84796" lon="7.15134">
        <ele>182.31</ele>
        <time>2013-05-31T13:59:17Z</time>
      </trkpt>
      <trkpt lat="43.84797" lon="7.15122">
        <ele>177.5</ele>
        <time>2013-05-31T13:59:30Z</time>
      </trkpt>
      <trkpt lat="43.84804" lon="7.15114">
        <ele>172.21</ele>
        <time>2013-05-31T13:59:46Z</time>
      </trkpt>
      <trkpt lat="43.84806" lon="7.15111">
        <ele>172.21</ele>
        <time>2013-05-31T13:59:48Z</time>
      </trkpt>
      <trkpt lat="43.84795" lon="7.15117">
        <ele>169.33</ele>
        <time>2013-05-31T13:59:59Z</time>
      </trkpt>
      <trkpt lat="43.84797" lon="7.15113">
        <ele>167.41</ele>
        <time>2013-05-31T14:00:11Z</time>
      </trkpt>
      <trkpt lat="43.84798" lon="7.1511">
        <ele>168.37</ele>
        <time>2013-05-31T14:00:13Z</time>
      </trkpt>
      <trkpt lat="43.84805" lon="7.15098">
        <ele>165</ele>
        <time>2013-05-31T14:00:20Z</time>
      </trkpt>
      <trkpt lat="43.84824" lon="7.15076">
        <ele>157.31</ele>
        <time>2013-05-31T14:00:35Z</time>
      </trkpt>
      <trkpt lat="43.84834" lon="7.1506">
        <ele>152.51</ele>
        <time>2013-05-31T14:00:46Z</time>
      </trkpt>
      <trkpt lat="43.84856" lon="7.15024">
        <ele>149.14</ele>
        <time>2013-05-31T14:00:58Z</time>
      </trkpt>
      <trkpt lat="43.84888" lon="7.14971">
        <ele>148.66</ele>
        <time>2013-05-31T14:01:24Z</time>
      </trkpt>
      <trkpt lat="43.8489" lon="7.14962">
        <ele>148.66</ele>
        <time>2013-05-31T14:01:48Z</time>
      </trkpt>
      <trkpt lat="43.84867" lon="7.14989">
        <ele>148.18</ele>
        <time>2013-05-31T14:02:04Z</time>
      </trkpt>
      <trkpt lat="43.84866" lon="7.14993">
        <ele>148.66</ele>
        <time>2013-05-31T14:02:35Z</time>
      </trkpt>
      <trkpt lat="43.84872" lon="7.14988">
        <ele>149.14</ele>
        <time>2013-05-31T14:02:52Z</time>
      </trkpt>
      <trkpt lat="43.8489" lon="7.1496">
        <ele>148.66</ele>
        <time>2013-05-31T14:03:08Z</time>
      </trkpt>
      <trkpt lat="43.84866" lon="7.14945">
        <ele>147.22</ele>
        <time>2013-05-31T14:03:17Z</time>
      </trkpt>
      <trkpt lat="43.84821" lon="7.14916">
        <ele>145.3</ele>
        <time>2013-05-31T14:03:30Z</time>
      </trkpt>
      <trkpt lat="43.84832" lon="7.14882">
        <ele>146.74</ele>
        <time>2013-05-31T14:03:43Z</time>
      </trkpt>
      <trkpt lat="43.84914" lon="7.14732">
        <ele>145.3</ele>
        <time>2013-05-31T14:04:25Z</time>
      </trkpt>
      <trkpt lat="43.84941" lon="7.14683">
        <ele>144.82</ele>
        <time>2013-05-31T14:04:44Z</time>
      </trkpt>
      <trkpt lat="43.84954" lon="7.14641">
        <ele>144.34</ele>
        <time>2013-05-31T14:04:54Z</time>
      </trkpt>
      <trkpt lat="43.84955" lon="7.14605">
        <ele>146.74</ele>
        <time>2013-05-31T14:05:07Z</time>
      </trkpt>
      <trkpt lat="43.84943" lon="7.14564">
        <ele>145.78</ele>
        <time>2013-05-31T14:05:19Z</time>
      </trkpt>
      <trkpt lat="43.84896" lon="7.14508">
        <ele>146.26</ele>
        <time>2013-05-31T14:05:39Z</time>
      </trkpt>
      <trkpt lat="43.84862" lon="7.14498">
        <ele>146.74</ele>
        <time>2013-05-31T14:05:50Z</time>
      </trkpt>
      <trkpt lat="43.84783" lon="7.14505">
        <ele>145.3</ele>
        <time>2013-05-31T14:06:12Z</time>
      </trkpt>
      <trkpt lat="43.84766" lon="7.14526">
        <ele>144.34</ele>
        <time>2013-05-31T14:06:21Z</time>
      </trkpt>
      <trkpt lat="43.84707" lon="7.14617">
        <ele>144.34</ele>
        <time>2013-05-31T14:06:52Z</time>
      </trkpt>
      <trkpt lat="43.84694" lon="7.14634">
        <ele>145.3</ele>
        <time>2013-05-31T14:07:11Z</time>
      </trkpt>
      <trkpt lat="43.84683" lon="7.14665">
        <ele>145.78</ele>
        <time>2013-05-31T14:07:52Z</time>
      </trkpt>
      <trkpt lat="43.84699" lon="7.14634">
        <ele>145.3</ele>
        <time>2013-05-31T14:08:14Z</time>
      </trkpt>
      <trkpt lat="43.847" lon="7.14628">
        <ele>145.78</ele>
        <time>2013-05-31T14:09:42Z</time>
      </trkpt>
      <trkpt lat="43.8471" lon="7.14605">
        <ele>142.89</ele>
        <time>2013-05-31T14:10:04Z</time>
      </trkpt>
      <trkpt lat="43.84719" lon="7.146">
        <ele>143.85</ele>
        <time>2013-05-31T14:10:31Z</time>
      </trkpt>
      <trkpt lat="43.84719" lon="7.146">
        <ele>143.85</ele>
        <time>2013-05-31T14:10:37Z</time>
      </trkpt>
      <trkpt lat="43.84688" lon="7.14644">
        <ele>145.3</ele>
        <time>2013-05-31T14:10:56Z</time>
      </trkpt>
      <trkpt lat="43.84664" lon="7.14673">
        <ele>145.3</ele>
        <time>2013-05-31T14:11:07Z</time>
      </trkpt>
      <trkpt lat="43.84658" lon="7.1467">
        <ele>144.34</ele>
        <time>2013-05-31T14:11:24Z</time>
      </trkpt>
      <trkpt lat="43.84641" lon="7.14663">
        <ele>143.37</ele>
        <time>2013-05-31T14:17:49Z</time>
      </trkpt>
      <trkpt lat="43.8465" lon="7.14675">
        <ele>146.26</ele>
        <time>2013-05-31T14:24:19Z</time>
      </trkpt>
      <trkpt lat="43.8465" lon="7.14675">
        <ele>145.3</ele>
        <time>2013-05-31T14:24:22Z</time>
      </trkpt>
      <trkpt lat="43.84647" lon="7.14672">
        <ele>146.74</ele>
        <time>2013-05-31T14:31:12Z</time>
      </trkpt>
      <trkpt lat="43.84658" lon="7.14672">
        <ele>147.22</ele>
        <time>2013-05-31T14:31:25Z</time>
      </trkpt>
      <trkpt lat="43.84665" lon="7.14682">
        <ele>148.18</ele>
        <time>2013-05-31T14:31:42Z</time>
      </trkpt>
      <trkpt lat="43.84681" lon="7.14688">
        <ele>144.82</ele>
        <time>2013-05-31T14:32:03Z</time>
      </trkpt>
      <trkpt lat="43.84686" lon="7.14691">
        <ele>144.82</ele>
        <time>2013-05-31T14:32:06Z</time>
      </trkpt>
      <trkpt lat="43.84687" lon="7.14708">
        <ele>144.34</ele>
        <time>2013-05-31T14:32:27Z</time>
      </trkpt>
      <trkpt lat="43.84665" lon="7.14684">
        <ele>147.7</ele>
        <time>2013-05-31T14:32:40Z</time>
      </trkpt>
      <trkpt lat="43.84664" lon="7.14682">
        <ele>147.7</ele>
        <time>2013-05-31T14:32:41Z</time>
      </trkpt>
      <trkpt lat="43.8466" lon="7.14675">
        <ele>147.22</ele>
        <time>2013-05-31T14:32:43Z</time>
      </trkpt>
      <trkpt lat="43.84678" lon="7.14692">
        <ele>147.22</ele>
        <time>2013-05-31T14:32:53Z</time>
      </trkpt>
      <trkpt lat="43.84685" lon="7.14703">
        <ele>146.26</ele>
        <time>2013-05-31T14:32:55Z</time>
      </trkpt>
      <trkpt lat="43.84695" lon="7.14772">
        <ele>145.3</ele>
        <time>2013-05-31T14:33:08Z</time>
      </trkpt>
      <trkpt lat="43.84662" lon="7.14938">
        <ele>143.37</ele>
        <time>2013-05-31T14:33:40Z</time>
      </trkpt>
      <trkpt lat="43.84598" lon="7.15021">
        <ele>142.41</ele>
        <time>2013-05-31T14:33:58Z</time>
      </trkpt>
      <trkpt lat="43.84579" lon="7.15048">
        <ele>142.89</ele>
        <time>2013-05-31T14:34:04Z</time>
      </trkpt>
      <trkpt lat="43.84563" lon="7.15102">
        <ele>141.93</ele>
        <time>2013-05-31T14:34:13Z</time>
      </trkpt>
      <trkpt lat="43.84539" lon="7.15239">
        <ele>145.78</ele>
        <time>2013-05-31T14:34:40Z</time>
      </trkpt>
      <trkpt lat="43.84487" lon="7.15302">
        <ele>143.37</ele>
        <time>2013-05-31T14:34:58Z</time>
      </trkpt>
      <trkpt lat="43.84491" lon="7.15326">
        <ele>144.34</ele>
        <time>2013-05-31T14:35:03Z</time>
      </trkpt>
      <trkpt lat="43.84522" lon="7.15384">
        <ele>143.85</ele>
        <time>2013-05-31T14:35:12Z</time>
      </trkpt>
      <trkpt lat="43.84608" lon="7.15504">
        <ele>143.37</ele>
        <time>2013-05-31T14:35:33Z</time>
      </trkpt>
      <trkpt lat="43.84631" lon="7.15544">
        <ele>143.37</ele>
        <time>2013-05-31T14:35:42Z</time>
      </trkpt>
      <trkpt lat="43.84612" lon="7.15635">
        <ele>142.89</ele>
        <time>2013-05-31T14:35:57Z</time>
      </trkpt>
      <trkpt lat="43.84573" lon="7.15748">
        <ele>141.45</ele>
        <time>2013-05-31T14:36:16Z</time>
      </trkpt>
      <trkpt lat="43.84571" lon="7.15754">
        <ele>141.93</ele>
        <time>2013-05-31T14:36:17Z</time>
      </trkpt>
      <trkpt lat="43.84507" lon="7.15812">
        <ele>140.01</ele>
        <time>2013-05-31T14:36:33Z</time>
      </trkpt>
      <trkpt lat="43.84422" lon="7.15895">
        <ele>139.53</ele>
        <time>2013-05-31T14:36:55Z</time>
      </trkpt>
      <trkpt lat="43.84419" lon="7.15902">
        <ele>139.53</ele>
        <time>2013-05-31T14:36:56Z</time>
      </trkpt>
      <trkpt lat="43.84409" lon="7.1593">
        <ele>140.01</ele>
        <time>2013-05-31T14:37:00Z</time>
      </trkpt>
      <trkpt lat="43.84368" lon="7.15975">
        <ele>138.09</ele>
        <time>2013-05-31T14:37:09Z</time>
      </trkpt>
      <trkpt lat="43.84321" lon="7.16027">
        <ele>136.16</ele>
        <time>2013-05-31T14:37:21Z</time>
      </trkpt>
      <trkpt lat="43.84314" lon="7.16085">
        <ele>136.64</ele>
        <time>2013-05-31T14:37:29Z</time>
      </trkpt>
      <trkpt lat="43.84324" lon="7.16213">
        <ele>138.57</ele>
        <time>2013-05-31T14:37:46Z</time>
      </trkpt>
      <trkpt lat="43.84305" lon="7.16315">
        <ele>136.16</ele>
        <time>2013-05-31T14:38:03Z</time>
      </trkpt>
      <trkpt lat="43.84248" lon="7.16349">
        <ele>135.2</ele>
        <time>2013-05-31T14:38:15Z</time>
      </trkpt>
      <trkpt lat="43.84177" lon="7.16376">
        <ele>133.28</ele>
        <time>2013-05-31T14:38:30Z</time>
      </trkpt>
      <trkpt lat="43.84107" lon="7.16418">
        <ele>133.76</ele>
        <time>2013-05-31T14:38:44Z</time>
      </trkpt>
      <trkpt lat="43.84085" lon="7.16468">
        <ele>134.24</ele>
        <time>2013-05-31T14:38:52Z</time>
      </trkpt>
      <trkpt lat="43.84084" lon="7.16476">
        <ele>134.24</ele>
        <time>2013-05-31T14:38:53Z</time>
      </trkpt>
      <trkpt lat="43.84067" lon="7.16639">
        <ele>133.76</ele>
        <time>2013-05-31T14:39:14Z</time>
      </trkpt>
      <trkpt lat="43.84061" lon="7.16746">
        <ele>131.84</ele>
        <time>2013-05-31T14:39:28Z</time>
      </trkpt>
      <trkpt lat="43.84019" lon="7.16848">
        <ele>131.36</ele>
        <time>2013-05-31T14:39:42Z</time>
      </trkpt>
      <trkpt lat="43.83969" lon="7.16888">
        <ele>127.99</ele>
        <time>2013-05-31T14:39:52Z</time>
      </trkpt>
      <trkpt lat="43.83964" lon="7.16892">
        <ele>128.95</ele>
        <time>2013-05-31T14:39:53Z</time>
      </trkpt>
      <trkpt lat="43.83908" lon="7.16939">
        <ele>128.95</ele>
        <time>2013-05-31T14:40:03Z</time>
      </trkpt>
      <trkpt lat="43.8387" lon="7.17023">
        <ele>130.4</ele>
        <time>2013-05-31T14:40:15Z</time>
      </trkpt>
      <trkpt lat="43.83849" lon="7.17045">
        <ele>129.92</ele>
        <time>2013-05-31T14:40:20Z</time>
      </trkpt>
      <trkpt lat="43.83827" lon="7.17082">
        <ele>130.4</ele>
        <time>2013-05-31T14:40:26Z</time>
      </trkpt>
      <trkpt lat="43.83798" lon="7.17114">
        <ele>129.92</ele>
        <time>2013-05-31T14:40:34Z</time>
      </trkpt>
      <trkpt lat="43.83727" lon="7.17137">
        <ele>128.95</ele>
        <time>2013-05-31T14:40:51Z</time>
      </trkpt>
      <trkpt lat="43.83648" lon="7.17138">
        <ele>128.95</ele>
        <time>2013-05-31T14:41:04Z</time>
      </trkpt>
      <trkpt lat="43.83622" lon="7.1717">
        <ele>128.47</ele>
        <time>2013-05-31T14:41:12Z</time>
      </trkpt>
      <trkpt lat="43.83629" lon="7.17195">
        <ele>127.99</ele>
        <time>2013-05-31T14:41:16Z</time>
      </trkpt>
      <trkpt lat="43.83632" lon="7.17202">
        <ele>127.03</ele>
        <time>2013-05-31T14:41:17Z</time>
      </trkpt>
      <trkpt lat="43.83647" lon="7.17238">
        <ele>127.03</ele>
        <time>2013-05-31T14:41:21Z</time>
      </trkpt>
      <trkpt lat="43.83626" lon="7.17296">
        <ele>125.59</ele>
        <time>2013-05-31T14:41:28Z</time>
      </trkpt>
      <trkpt lat="43.83616" lon="7.17305">
        <ele>125.59</ele>
        <time>2013-05-31T14:41:30Z</time>
      </trkpt>
      <trkpt lat="43.83483" lon="7.17374">
        <ele>125.59</ele>
        <time>2013-05-31T14:41:54Z</time>
      </trkpt>
      <trkpt lat="43.83452" lon="7.17391">
        <ele>124.63</ele>
        <time>2013-05-31T14:42:00Z</time>
      </trkpt>
      <trkpt lat="43.83119" lon="7.17678">
        <ele>119.34</ele>
        <time>2013-05-31T14:43:11Z</time>
      </trkpt>
      <trkpt lat="43.82934" lon="7.17849">
        <ele>118.38</ele>
        <time>2013-05-31T14:43:48Z</time>
      </trkpt>
      <trkpt lat="43.82651" lon="7.18107">
        <ele>114.53</ele>
        <time>2013-05-31T14:44:46Z</time>
      </trkpt>
      <trkpt lat="43.82646" lon="7.18117">
        <ele>115.5</ele>
        <time>2013-05-31T14:44:48Z</time>
      </trkpt>
      <trkpt lat="43.8258" lon="7.1813">
        <ele>116.46</ele>
        <time>2013-05-31T14:45:05Z</time>
      </trkpt>
      <trkpt lat="43.82551" lon="7.18161">
        <ele>116.46</ele>
        <time>2013-05-31T14:45:15Z</time>
      </trkpt>
      <trkpt lat="43.82528" lon="7.18199">
        <ele>115.98</ele>
        <time>2013-05-31T14:45:24Z</time>
      </trkpt>
      <trkpt lat="43.82517" lon="7.18216">
        <ele>115.5</ele>
        <time>2013-05-31T14:45:27Z</time>
      </trkpt>
      <trkpt lat="43.82419" lon="7.18277">
        <ele>114.05</ele>
        <time>2013-05-31T14:45:46Z</time>
      </trkpt>
      <trkpt lat="43.82337" lon="7.18318">
        <ele>114.05</ele>
        <time>2013-05-31T14:46:02Z</time>
      </trkpt>
      <trkpt lat="43.82098" lon="7.18397">
        <ele>111.17</ele>
        <time>2013-05-31T14:46:44Z</time>
      </trkpt>
      <trkpt lat="43.81759" lon="7.1844">
        <ele>108.29</ele>
        <time>2013-05-31T14:47:39Z</time>
      </trkpt>
      <trkpt lat="43.81444" lon="7.18488">
        <ele>105.4</ele>
        <time>2013-05-31T14:48:28Z</time>
      </trkpt>
      <trkpt lat="43.81218" lon="7.18585">
        <ele>103.48</ele>
        <time>2013-05-31T14:49:04Z</time>
      </trkpt>
      <trkpt lat="43.81203" lon="7.18595">
        <ele>102.52</ele>
        <time>2013-05-31T14:49:06Z</time>
      </trkpt>
      <trkpt lat="43.81071" lon="7.18689">
        <ele>101.56</ele>
        <time>2013-05-31T14:49:28Z</time>
      </trkpt>
      <trkpt lat="43.8085" lon="7.18923">
        <ele>98.19</ele>
        <time>2013-05-31T14:50:09Z</time>
      </trkpt>
      <trkpt lat="43.80625" lon="7.19182">
        <ele>97.71</ele>
        <time>2013-05-31T14:50:50Z</time>
      </trkpt>
      <trkpt lat="43.80256" lon="7.19609">
        <ele>92.42</ele>
        <time>2013-05-31T14:52:03Z</time>
      </trkpt>
      <trkpt lat="43.79811" lon="7.20105">
        <ele>88.1</ele>
        <time>2013-05-31T14:53:28Z</time>
      </trkpt>
      <trkpt lat="43.79716" lon="7.20209">
        <ele>87.14</ele>
        <time>2013-05-31T14:53:50Z</time>
      </trkpt>
      <trkpt lat="43.79544" lon="7.20409">
        <ele>85.69</ele>
        <time>2013-05-31T14:54:34Z</time>
      </trkpt>
      <trkpt lat="43.79324" lon="7.20662">
        <ele>84.73</ele>
        <time>2013-05-31T14:55:24Z</time>
      </trkpt>
      <trkpt lat="43.78795" lon="7.21223">
        <ele>80.41</ele>
        <time>2013-05-31T14:57:21Z</time>
      </trkpt>
      <trkpt lat="43.78776" lon="7.21239">
        <ele>79.45</ele>
        <time>2013-05-31T14:57:25Z</time>
      </trkpt>
      <trkpt lat="43.78695" lon="7.21278">
        <ele>78.97</ele>
        <time>2013-05-31T14:57:41Z</time>
      </trkpt>
      <trkpt lat="43.78539" lon="7.21358">
        <ele>78.97</ele>
        <time>2013-05-31T14:58:12Z</time>
      </trkpt>
      <trkpt lat="43.7835" lon="7.2141">
        <ele>78.48</ele>
        <time>2013-05-31T14:58:50Z</time>
      </trkpt>
      <trkpt lat="43.78335" lon="7.21412">
        <ele>77.52</ele>
        <time>2013-05-31T14:58:53Z</time>
      </trkpt>
      <trkpt lat="43.78234" lon="7.21427">
        <ele>76.08</ele>
        <time>2013-05-31T14:59:12Z</time>
      </trkpt>
      <trkpt lat="43.78131" lon="7.2143">
        <ele>76.08</ele>
        <time>2013-05-31T14:59:31Z</time>
      </trkpt>
      <trkpt lat="43.77852" lon="7.21386">
        <ele>72.24</ele>
        <time>2013-05-31T15:00:15Z</time>
      </trkpt>
      <trkpt lat="43.77558" lon="7.21245">
        <ele>69.83</ele>
        <time>2013-05-31T15:01:05Z</time>
      </trkpt>
      <trkpt lat="43.77341" lon="7.21066">
        <ele>67.91</ele>
        <time>2013-05-31T15:01:47Z</time>
      </trkpt>
      <trkpt lat="43.77233" lon="7.20952">
        <ele>67.43</ele>
        <time>2013-05-31T15:02:09Z</time>
      </trkpt>
      <trkpt lat="43.77173" lon="7.20888">
        <ele>66.47</ele>
        <time>2013-05-31T15:02:23Z</time>
      </trkpt>
      <trkpt lat="43.77104" lon="7.20828">
        <ele>66.47</ele>
        <time>2013-05-31T15:02:37Z</time>
      </trkpt>
      <trkpt lat="43.76983" lon="7.20729">
        <ele>66.47</ele>
        <time>2013-05-31T15:03:01Z</time>
      </trkpt>
      <trkpt lat="43.76926" lon="7.20665">
        <ele>70.79</ele>
        <time>2013-05-31T15:03:19Z</time>
      </trkpt>
      <trkpt lat="43.76938" lon="7.20645">
        <ele>70.79</ele>
        <time>2013-05-31T15:03:26Z</time>
      </trkpt>
      <trkpt lat="43.76943" lon="7.20634">
        <ele>70.31</ele>
        <time>2013-05-31T15:04:33Z</time>
      </trkpt>
      <trkpt lat="43.76893" lon="7.20573">
        <ele>66.95</ele>
        <time>2013-05-31T15:04:48Z</time>
      </trkpt>
      <trkpt lat="43.76726" lon="7.20393">
        <ele>63.58</ele>
        <time>2013-05-31T15:05:23Z</time>
      </trkpt>
      <trkpt lat="43.76624" lon="7.20219">
        <ele>63.1</ele>
        <time>2013-05-31T15:05:51Z</time>
      </trkpt>
      <trkpt lat="43.76593" lon="7.20197">
        <ele>63.1</ele>
        <time>2013-05-31T15:06:00Z</time>
      </trkpt>
      <trkpt lat="43.76585" lon="7.20207">
        <ele>62.14</ele>
        <time>2013-05-31T15:06:08Z</time>
      </trkpt>
      <trkpt lat="43.76607" lon="7.20198">
        <ele>62.62</ele>
        <time>2013-05-31T15:06:17Z</time>
      </trkpt>
      <trkpt lat="43.76624" lon="7.20217">
        <ele>62.62</ele>
        <time>2013-05-31T15:06:22Z</time>
      </trkpt>
      <trkpt lat="43.76628" lon="7.20272">
        <ele>62.14</ele>
        <time>2013-05-31T15:06:33Z</time>
      </trkpt>
      <trkpt lat="43.76604" lon="7.20246">
        <ele>60.7</ele>
        <time>2013-05-31T15:06:39Z</time>
      </trkpt>
      <trkpt lat="43.76554" lon="7.20194">
        <ele>59.26</ele>
        <time>2013-05-31T15:06:48Z</time>
      </trkpt>
      <trkpt lat="43.7655" lon="7.20188">
        <ele>59.74</ele>
        <time>2013-05-31T15:06:49Z</time>
      </trkpt>
      <trkpt lat="43.76487" lon="7.2013">
        <ele>60.7</ele>
        <time>2013-05-31T15:07:05Z</time>
      </trkpt>
      <trkpt lat="43.76354" lon="7.20006">
        <ele>58.3</ele>
        <time>2013-05-31T15:07:39Z</time>
      </trkpt>
      <trkpt lat="43.7609" lon="7.19721">
        <ele>56.86</ele>
        <time>2013-05-31T15:08:39Z</time>
      </trkpt>
      <trkpt lat="43.76074" lon="7.19683">
        <ele>55.41</ele>
        <time>2013-05-31T15:08:47Z</time>
      </trkpt>
      <trkpt lat="43.76094" lon="7.19642">
        <ele>53.01</ele>
        <time>2013-05-31T15:08:54Z</time>
      </trkpt>
      <trkpt lat="43.76097" lon="7.19634">
        <ele>53.97</ele>
        <time>2013-05-31T15:08:55Z</time>
      </trkpt>
      <trkpt lat="43.76088" lon="7.19595">
        <ele>54.93</ele>
        <time>2013-05-31T15:09:03Z</time>
      </trkpt>
      <trkpt lat="43.76083" lon="7.19588">
        <ele>54.93</ele>
        <time>2013-05-31T15:09:05Z</time>
      </trkpt>
      <trkpt lat="43.76081" lon="7.19584">
        <ele>54.93</ele>
        <time>2013-05-31T15:09:06Z</time>
      </trkpt>
      <trkpt lat="43.76011" lon="7.19504">
        <ele>55.41</ele>
        <time>2013-05-31T15:09:24Z</time>
      </trkpt>
      <trkpt lat="43.75908" lon="7.1939">
        <ele>53.97</ele>
        <time>2013-05-31T15:09:47Z</time>
      </trkpt>
      <trkpt lat="43.75778" lon="7.19272">
        <ele>53.01</ele>
        <time>2013-05-31T15:10:12Z</time>
      </trkpt>
      <trkpt lat="43.75338" lon="7.18903">
        <ele>49.16</ele>
        <time>2013-05-31T15:11:35Z</time>
      </trkpt>
      <trkpt lat="43.75082" lon="7.18642">
        <ele>46.28</ele>
        <time>2013-05-31T15:12:26Z</time>
      </trkpt>
      <trkpt lat="43.74803" lon="7.18382">
        <ele>44.84</ele>
        <time>2013-05-31T15:13:21Z</time>
      </trkpt>
      <trkpt lat="43.7448" lon="7.18159">
        <ele>42.44</ele>
        <time>2013-05-31T15:14:20Z</time>
      </trkpt>
      <trkpt lat="43.74181" lon="7.1804">
        <ele>40.99</ele>
        <time>2013-05-31T15:15:15Z</time>
      </trkpt>
      <trkpt lat="43.73907" lon="7.17983">
        <ele>40.03</ele>
        <time>2013-05-31T15:16:02Z</time>
      </trkpt>
      <trkpt lat="43.73652" lon="7.17976">
        <ele>37.15</ele>
        <time>2013-05-31T15:16:44Z</time>
      </trkpt>
      <trkpt lat="43.73504" lon="7.17996">
        <ele>37.63</ele>
        <time>2013-05-31T15:17:07Z</time>
      </trkpt>
      <trkpt lat="43.73104" lon="7.18051">
        <ele>35.71</ele>
        <time>2013-05-31T15:18:15Z</time>
      </trkpt>
      <trkpt lat="43.72643" lon="7.1812">
        <ele>31.86</ele>
        <time>2013-05-31T15:19:33Z</time>
      </trkpt>
      <trkpt lat="43.72553" lon="7.18125">
        <ele>31.86</ele>
        <time>2013-05-31T15:19:48Z</time>
      </trkpt>
      <trkpt lat="43.72294" lon="7.18165">
        <ele>29.94</ele>
        <time>2013-05-31T15:20:30Z</time>
      </trkpt>
      <trkpt lat="43.7205" lon="7.18189">
        <ele>28.5</ele>
        <time>2013-05-31T15:21:13Z</time>
      </trkpt>
      <trkpt lat="43.71996" lon="7.182">
        <ele>27.53</ele>
        <time>2013-05-31T15:21:23Z</time>
      </trkpt>
      <trkpt lat="43.71985" lon="7.18145">
        <ele>27.05</ele>
        <time>2013-05-31T15:21:31Z</time>
      </trkpt>
      <trkpt lat="43.71969" lon="7.17944">
        <ele>29.94</ele>
        <time>2013-05-31T15:22:06Z</time>
      </trkpt>
      <trkpt lat="43.71962" lon="7.17918">
        <ele>30.42</ele>
        <time>2013-05-31T15:22:15Z</time>
      </trkpt>
      <trkpt lat="43.71946" lon="7.1792">
        <ele>30.42</ele>
        <time>2013-05-31T15:22:24Z</time>
      </trkpt>
      <trkpt lat="43.71931" lon="7.17925">
        <ele>30.9</ele>
        <time>2013-05-31T15:22:49Z</time>
      </trkpt>
      <trkpt lat="43.71884" lon="7.17938">
        <ele>29.94</ele>
        <time>2013-05-31T15:23:36Z</time>
      </trkpt>
      <trkpt lat="43.71814" lon="7.17927">
        <ele>29.46</ele>
        <time>2013-05-31T15:23:53Z</time>
      </trkpt>
      <trkpt lat="43.71747" lon="7.17854">
        <ele>28.98</ele>
        <time>2013-05-31T15:24:08Z</time>
      </trkpt>
      <trkpt lat="43.71596" lon="7.17777">
        <ele>27.53</ele>
        <time>2013-05-31T15:24:35Z</time>
      </trkpt>
      <trkpt lat="43.71552" lon="7.17752">
        <ele>27.05</ele>
        <time>2013-05-31T15:24:49Z</time>
      </trkpt>
      <trkpt lat="43.71499" lon="7.17707">
        <ele>27.53</ele>
        <time>2013-05-31T15:25:05Z</time>
      </trkpt>
      <trkpt lat="43.71458" lon="7.17703">
        <ele>27.05</ele>
        <time>2013-05-31T15:25:14Z</time>
      </trkpt>
      <trkpt lat="43.71369" lon="7.17776">
        <ele>28.5</ele>
        <time>2013-05-31T15:25:33Z</time>
      </trkpt>
      <trkpt lat="43.71307" lon="7.17827">
        <ele>28.5</ele>
        <time>2013-05-31T15:25:45Z</time>
      </trkpt>
      <trkpt lat="43.71278" lon="7.17829">
        <ele>28.5</ele>
        <time>2013-05-31T15:25:50Z</time>
      </trkpt>
      <trkpt lat="43.71088" lon="7.1779">
        <ele>29.46</ele>
        <time>2013-05-31T15:26:23Z</time>
      </trkpt>
      <trkpt lat="43.70906" lon="7.17798">
        <ele>28.5</ele>
        <time>2013-05-31T15:26:53Z</time>
      </trkpt>
      <trkpt lat="43.70731" lon="7.1784">
        <ele>28.02</ele>
        <time>2013-05-31T15:27:21Z</time>
      </trkpt>
      <trkpt lat="43.70602" lon="7.17807">
        <ele>28.98</ele>
        <time>2013-05-31T15:27:42Z</time>
      </trkpt>
      <trkpt lat="43.70533" lon="7.17762">
        <ele>29.94</ele>
        <time>2013-05-31T15:27:55Z</time>
      </trkpt>
      <trkpt lat="43.70515" lon="7.17766">
        <ele>28.98</ele>
        <time>2013-05-31T15:27:58Z</time>
      </trkpt>
      <trkpt lat="43.70407" lon="7.17799">
        <ele>28.98</ele>
        <time>2013-05-31T15:28:15Z</time>
      </trkpt>
      <trkpt lat="43.70185" lon="7.1792">
        <ele>27.05</ele>
        <time>2013-05-31T15:28:49Z</time>
      </trkpt>
      <trkpt lat="43.70122" lon="7.18027">
        <ele>28.02</ele>
        <time>2013-05-31T15:29:04Z</time>
      </trkpt>
      <trkpt lat="43.70058" lon="7.1812">
        <ele>24.17</ele>
        <time>2013-05-31T15:29:16Z</time>
      </trkpt>
      <trkpt lat="43.70051" lon="7.18126">
        <ele>24.65</ele>
        <time>2013-05-31T15:29:17Z</time>
      </trkpt>
      <trkpt lat="43.69977" lon="7.18141">
        <ele>22.25</ele>
        <time>2013-05-31T15:29:27Z</time>
      </trkpt>
      <trkpt lat="43.69924" lon="7.18142">
        <ele>23.21</ele>
        <time>2013-05-31T15:29:35Z</time>
      </trkpt>
      <trkpt lat="43.69878" lon="7.18156">
        <ele>24.65</ele>
        <time>2013-05-31T15:29:43Z</time>
      </trkpt>
      <trkpt lat="43.69846" lon="7.18158">
        <ele>25.13</ele>
        <time>2013-05-31T15:29:49Z</time>
      </trkpt>
      <trkpt lat="43.69791" lon="7.18177">
        <ele>25.13</ele>
        <time>2013-05-31T15:30:01Z</time>
      </trkpt>
      <trkpt lat="43.69743" lon="7.18222">
        <ele>24.65</ele>
        <time>2013-05-31T15:30:11Z</time>
      </trkpt>
      <trkpt lat="43.69608" lon="7.18319">
        <ele>22.25</ele>
        <time>2013-05-31T15:30:34Z</time>
      </trkpt>
      <trkpt lat="43.69577" lon="7.18301">
        <ele>21.77</ele>
        <time>2013-05-31T15:30:43Z</time>
      </trkpt>
      <trkpt lat="43.69578" lon="7.18318">
        <ele>21.77</ele>
        <time>2013-05-31T15:32:20Z</time>
      </trkpt>
      <trkpt lat="43.69575" lon="7.18313">
        <ele>25.61</ele>
        <time>2013-05-31T15:46:41Z</time>
      </trkpt>
      <trkpt lat="43.69575" lon="7.18305">
        <ele>25.13</ele>
        <time>2013-05-31T15:49:46Z</time>
      </trkpt>
      <trkpt lat="43.69577" lon="7.183">
        <ele>25.61</ele>
        <time>2013-05-31T15:51:02Z</time>
      </trkpt>
      <trkpt lat="43.69574" lon="7.183">
        <ele>26.09</ele>
        <time>2013-05-31T15:53:08Z</time>
      </trkpt>
      <trkpt lat="43.69507" lon="7.18308">
        <ele>26.09</ele>
        <time>2013-05-31T15:53:35Z</time>
      </trkpt>
      <trkpt lat="43.69501" lon="7.18307">
        <ele>25.61</ele>
        <time>2013-05-31T15:53:47Z</time>
      </trkpt>
      <trkpt lat="43.69513" lon="7.18315">
        <ele>26.09</ele>
        <time>2013-05-31T15:54:02Z</time>
      </trkpt>
      <trkpt lat="43.69467" lon="7.18302">
        <ele>27.05</ele>
        <time>2013-05-31T15:54:21Z</time>
      </trkpt>
      <trkpt lat="43.6937" lon="7.18345">
        <ele>27.53</ele>
        <time>2013-05-31T15:54:51Z</time>
      </trkpt>
      <trkpt lat="43.6924" lon="7.18371">
        <ele>28.5</ele>
        <time>2013-05-31T15:55:19Z</time>
      </trkpt>
      <trkpt lat="43.69159" lon="7.18392">
        <ele>31.86</ele>
        <time>2013-05-31T15:55:37Z</time>
      </trkpt>
      <trkpt lat="43.69101" lon="7.18404">
        <ele>30.42</ele>
        <time>2013-05-31T15:55:49Z</time>
      </trkpt>
      <trkpt lat="43.68976" lon="7.18339">
        <ele>30.9</ele>
        <time>2013-05-31T15:56:14Z</time>
      </trkpt>
      <trkpt lat="43.68881" lon="7.18327">
        <ele>30.9</ele>
        <time>2013-05-31T15:56:32Z</time>
      </trkpt>
      <trkpt lat="43.68854" lon="7.1834">
        <ele>31.86</ele>
        <time>2013-05-31T15:56:38Z</time>
      </trkpt>
      <trkpt lat="43.68839" lon="7.18353">
        <ele>31.86</ele>
        <time>2013-05-31T15:56:42Z</time>
      </trkpt>
      <trkpt lat="43.68758" lon="7.18379">
        <ele>33.78</ele>
        <time>2013-05-31T15:57:02Z</time>
      </trkpt>
      <trkpt lat="43.68702" lon="7.18398">
        <ele>32.34</ele>
        <time>2013-05-31T15:57:12Z</time>
      </trkpt>
      <trkpt lat="43.68642" lon="7.18435">
        <ele>30.9</ele>
        <time>2013-05-31T15:57:21Z</time>
      </trkpt>
      <trkpt lat="43.68495" lon="7.18526">
        <ele>29.46</ele>
        <time>2013-05-31T15:57:46Z</time>
      </trkpt>
      <trkpt lat="43.68482" lon="7.1853">
        <ele>30.9</ele>
        <time>2013-05-31T15:57:49Z</time>
      </trkpt>
      <trkpt lat="43.6841" lon="7.18558">
        <ele>32.82</ele>
        <time>2013-05-31T15:58:07Z</time>
      </trkpt>
      <trkpt lat="43.68349" lon="7.18609">
        <ele>32.82</ele>
        <time>2013-05-31T15:58:21Z</time>
      </trkpt>
      <trkpt lat="43.68321" lon="7.18639">
        <ele>29.46</ele>
        <time>2013-05-31T15:58:26Z</time>
      </trkpt>
      <trkpt lat="43.68235" lon="7.1867">
        <ele>27.53</ele>
        <time>2013-05-31T15:58:38Z</time>
      </trkpt>
      <trkpt lat="43.68224" lon="7.18693">
        <ele>27.53</ele>
        <time>2013-05-31T15:58:41Z</time>
      </trkpt>
      <trkpt lat="43.68153" lon="7.18749">
        <ele>27.05</ele>
        <time>2013-05-31T15:58:56Z</time>
      </trkpt>
      <trkpt lat="43.68094" lon="7.18758">
        <ele>26.09</ele>
        <time>2013-05-31T15:59:06Z</time>
      </trkpt>
      <trkpt lat="43.68032" lon="7.18745">
        <ele>25.61</ele>
        <time>2013-05-31T15:59:17Z</time>
      </trkpt>
      <trkpt lat="43.67985" lon="7.18768">
        <ele>25.13</ele>
        <time>2013-05-31T15:59:29Z</time>
      </trkpt>
      <trkpt lat="43.67963" lon="7.188">
        <ele>25.13</ele>
        <time>2013-05-31T15:59:35Z</time>
      </trkpt>
      <trkpt lat="43.67881" lon="7.18866">
        <ele>24.17</ele>
        <time>2013-05-31T15:59:51Z</time>
      </trkpt>
      <trkpt lat="43.67788" lon="7.18866">
        <ele>22.73</ele>
        <time>2013-05-31T16:00:07Z</time>
      </trkpt>
      <trkpt lat="43.67783" lon="7.18866">
        <ele>22.73</ele>
        <time>2013-05-31T16:00:08Z</time>
      </trkpt>
      <trkpt lat="43.67708" lon="7.18858">
        <ele>25.61</ele>
        <time>2013-05-31T16:00:29Z</time>
      </trkpt>
      <trkpt lat="43.67705" lon="7.18861">
        <ele>25.61</ele>
        <time>2013-05-31T16:00:31Z</time>
      </trkpt>
      <trkpt lat="43.67666" lon="7.18853">
        <ele>26.57</ele>
        <time>2013-05-31T16:00:44Z</time>
      </trkpt>
      <trkpt lat="43.67582" lon="7.18853">
        <ele>23.21</ele>
        <time>2013-05-31T16:01:16Z</time>
      </trkpt>
      <trkpt lat="43.67549" lon="7.18852">
        <ele>23.69</ele>
        <time>2013-05-31T16:01:26Z</time>
      </trkpt>
      <trkpt lat="43.67533" lon="7.18877">
        <ele>22.25</ele>
        <time>2013-05-31T16:01:36Z</time>
      </trkpt>
      <trkpt lat="43.67497" lon="7.18902">
        <ele>22.73</ele>
        <time>2013-05-31T16:01:45Z</time>
      </trkpt>
      <trkpt lat="43.67437" lon="7.18943">
        <ele>22.25</ele>
        <time>2013-05-31T16:01:59Z</time>
      </trkpt>
      <trkpt lat="43.67331" lon="7.19015">
        <ele>20.32</ele>
        <time>2013-05-31T16:02:24Z</time>
      </trkpt>
      <trkpt lat="43.67277" lon="7.19019">
        <ele>20.81</ele>
        <time>2013-05-31T16:02:46Z</time>
      </trkpt>
      <trkpt lat="43.67126" lon="7.19013">
        <ele>21.77</ele>
        <time>2013-05-31T16:03:20Z</time>
      </trkpt>
      <trkpt lat="43.67076" lon="7.19036">
        <ele>21.29</ele>
        <time>2013-05-31T16:03:32Z</time>
      </trkpt>
      <trkpt lat="43.67063" lon="7.1907">
        <ele>20.32</ele>
        <time>2013-05-31T16:03:38Z</time>
      </trkpt>
      <trkpt lat="43.67058" lon="7.19072">
        <ele>20.32</ele>
        <time>2013-05-31T16:03:39Z</time>
      </trkpt>
      <trkpt lat="43.66933" lon="7.19147">
        <ele>18.4</ele>
        <time>2013-05-31T16:04:05Z</time>
      </trkpt>
      <trkpt lat="43.66857" lon="7.19185">
        <ele>18.4</ele>
        <time>2013-05-31T16:04:20Z</time>
      </trkpt>
      <trkpt lat="43.66804" lon="7.19213">
        <ele>17.92</ele>
        <time>2013-05-31T16:04:30Z</time>
      </trkpt>
      <trkpt lat="43.66805" lon="7.19224">
        <ele>16.48</ele>
        <time>2013-05-31T16:04:35Z</time>
      </trkpt>
      <trkpt lat="43.66827" lon="7.19219">
        <ele>16.96</ele>
        <time>2013-05-31T16:06:23Z</time>
      </trkpt>
      <trkpt lat="43.66827" lon="7.19219">
        <ele>17.44</ele>
        <time>2013-05-31T16:06:44Z</time>
      </trkpt>
      <trkpt lat="43.66811" lon="7.19205">
        <ele>17.44</ele>
        <time>2013-05-31T16:06:59Z</time>
      </trkpt>
      <trkpt lat="43.667" lon="7.19256">
        <ele>16.96</ele>
        <time>2013-05-31T16:07:24Z</time>
      </trkpt>
      <trkpt lat="43.66591" lon="7.19305">
        <ele>16</ele>
        <time>2013-05-31T16:07:44Z</time>
      </trkpt>
      <trkpt lat="43.66508" lon="7.19336">
        <ele>16</ele>
        <time>2013-05-31T16:08:01Z</time>
      </trkpt>
      <trkpt lat="43.66279" lon="7.19408">
        <ele>13.12</ele>
        <time>2013-05-31T16:08:44Z</time>
      </trkpt>
      <trkpt lat="43.66228" lon="7.19391">
        <ele>11.67</ele>
        <time>2013-05-31T16:08:56Z</time>
      </trkpt>
      <trkpt lat="43.66216" lon="7.19333">
        <ele>10.71</ele>
        <time>2013-05-31T16:09:41Z</time>
      </trkpt>
      <trkpt lat="43.66204" lon="7.1928">
        <ele>10.23</ele>
        <time>2013-05-31T16:09:53Z</time>
      </trkpt>
      <trkpt lat="43.66168" lon="7.19229">
        <ele>7.35</ele>
        <time>2013-05-31T16:10:00Z</time>
      </trkpt>
      <trkpt lat="43.66149" lon="7.1923">
        <ele>6.39</ele>
        <time>2013-05-31T16:10:02Z</time>
      </trkpt>
      <trkpt lat="43.66125" lon="7.19233">
        <ele>4.46</ele>
        <time>2013-05-31T16:10:05Z</time>
      </trkpt>
      <trkpt lat="43.6611" lon="7.19252">
        <ele>4.94</ele>
        <time>2013-05-31T16:10:10Z</time>
      </trkpt>
      <trkpt lat="43.66108" lon="7.19264">
        <ele>4.94</ele>
        <time>2013-05-31T16:10:28Z</time>
      </trkpt>
      <trkpt lat="43.66114" lon="7.19286">
        <ele>5.91</ele>
        <time>2013-05-31T16:10:33Z</time>
      </trkpt>
      <trkpt lat="43.6615" lon="7.19342">
        <ele>9.27</ele>
        <time>2013-05-31T16:10:50Z</time>
      </trkpt>
      <trkpt lat="43.66155" lon="7.19356">
        <ele>9.27</ele>
        <time>2013-05-31T16:10:54Z</time>
      </trkpt>
      <trkpt lat="43.66145" lon="7.19367">
        <ele>9.27</ele>
        <time>2013-05-31T16:11:07Z</time>
      </trkpt>
      <trkpt lat="43.66181" lon="7.1939">
        <ele>10.71</ele>
        <time>2013-05-31T16:11:25Z</time>
      </trkpt>
      <trkpt lat="43.66389" lon="7.19852">
        <ele>12.63</ele>
        <time>2013-05-31T16:12:41Z</time>
      </trkpt>
      <trkpt lat="43.66531" lon="7.20233">
        <ele>13.12</ele>
        <time>2013-05-31T16:13:35Z</time>
      </trkpt>
      <trkpt lat="43.66721" lon="7.20768">
        <ele>5.91</ele>
        <time>2013-05-31T16:14:49Z</time>
      </trkpt>
      <trkpt lat="43.66773" lon="7.20915">
        <ele>5.91</ele>
        <time>2013-05-31T16:15:07Z</time>
      </trkpt>
      <trkpt lat="43.66808" lon="7.21012">
        <ele>4.94</ele>
        <time>2013-05-31T16:15:25Z</time>
      </trkpt>
      <trkpt lat="43.66858" lon="7.21129">
        <ele>4.46</ele>
        <time>2013-05-31T16:16:02Z</time>
      </trkpt>
      <trkpt lat="43.66857" lon="7.21131">
        <ele>4.94</ele>
        <time>2013-05-31T16:16:39Z</time>
      </trkpt>
      <trkpt lat="43.66868" lon="7.21205">
        <ele>5.42</ele>
        <time>2013-05-31T16:16:57Z</time>
      </trkpt>
      <trkpt lat="43.66884" lon="7.21255">
        <ele>5.42</ele>
        <time>2013-05-31T16:17:33Z</time>
      </trkpt>
      <trkpt lat="43.66927" lon="7.21361">
        <ele>5.42</ele>
        <time>2013-05-31T16:18:01Z</time>
      </trkpt>
      <trkpt lat="43.66969" lon="7.21616">
        <ele>4.94</ele>
        <time>2013-05-31T16:18:59Z</time>
      </trkpt>
      <trkpt lat="43.66966" lon="7.21685">
        <ele>5.42</ele>
        <time>2013-05-31T16:19:11Z</time>
      </trkpt>
      <trkpt lat="43.66957" lon="7.21806">
        <ele>4.46</ele>
        <time>2013-05-31T16:19:36Z</time>
      </trkpt>
      <trkpt lat="43.66933" lon="7.21983">
        <ele>3.98</ele>
        <time>2013-05-31T16:20:09Z</time>
      </trkpt>
      <trkpt lat="43.66867" lon="7.22018">
        <ele>3.5</ele>
        <time>2013-05-31T16:20:32Z</time>
      </trkpt>
      <trkpt lat="43.66868" lon="7.22018">
        <ele>3.98</ele>
        <time>2013-05-31T16:20:36Z</time>
      </trkpt>
      <trkpt lat="43.66896" lon="7.22077">
        <ele>4.94</ele>
        <time>2013-05-31T16:20:55Z</time>
      </trkpt>
      <trkpt lat="43.66894" lon="7.22086">
        <ele>3.98</ele>
        <time>2013-05-31T16:21:06Z</time>
      </trkpt>
      <trkpt lat="43.66876" lon="7.22127">
        <ele>4.94</ele>
        <time>2013-05-31T16:21:35Z</time>
      </trkpt>
      <trkpt lat="43.66928" lon="7.22201">
        <ele>4.94</ele>
        <time>2013-05-31T16:21:53Z</time>
      </trkpt>
      <trkpt lat="43.67113" lon="7.22455">
        <ele>4.94</ele>
        <time>2013-05-31T16:22:46Z</time>
      </trkpt>
      <trkpt lat="43.6718" lon="7.22544">
        <ele>4.94</ele>
        <time>2013-05-31T16:23:06Z</time>
      </trkpt>
      <trkpt lat="43.67358" lon="7.22707">
        <ele>4.94</ele>
        <time>2013-05-31T16:23:49Z</time>
      </trkpt>
      <trkpt lat="43.67409" lon="7.22759">
        <ele>3.98</ele>
        <time>2013-05-31T16:24:05Z</time>
      </trkpt>
      <trkpt lat="43.67416" lon="7.22764">
        <ele>3.98</ele>
        <time>2013-05-31T16:24:07Z</time>
      </trkpt>
      <trkpt lat="43.67576" lon="7.22858">
        <ele>3.98</ele>
        <time>2013-05-31T16:24:46Z</time>
      </trkpt>
      <trkpt lat="43.67628" lon="7.22897">
        <ele>3.98</ele>
        <time>2013-05-31T16:25:02Z</time>
      </trkpt>
      <trkpt lat="43.67633" lon="7.22899">
        <ele>3.98</ele>
        <time>2013-05-31T16:25:03Z</time>
      </trkpt>
      <trkpt lat="43.67696" lon="7.22932">
        <ele>3.98</ele>
        <time>2013-05-31T16:25:21Z</time>
      </trkpt>
      <trkpt lat="43.67732" lon="7.2291">
        <ele>3.5</ele>
        <time>2013-05-31T16:25:32Z</time>
      </trkpt>
      <trkpt lat="43.67786" lon="7.22946">
        <ele>3.02</ele>
        <time>2013-05-31T16:25:58Z</time>
      </trkpt>
      <trkpt lat="43.67788" lon="7.22952">
        <ele>3.02</ele>
        <time>2013-05-31T16:26:01Z</time>
      </trkpt>
      <trkpt lat="43.67791" lon="7.22956">
        <ele>2.54</ele>
        <time>2013-05-31T16:26:12Z</time>
      </trkpt>
      <trkpt lat="43.67781" lon="7.22948">
        <ele>2.54</ele>
        <time>2013-05-31T16:26:35Z</time>
      </trkpt>
      <trkpt lat="43.67783" lon="7.2295">
        <ele>2.54</ele>
        <time>2013-05-31T16:27:30Z</time>
      </trkpt>
      <trkpt lat="43.67815" lon="7.22971">
        <ele>3.5</ele>
        <time>2013-05-31T16:27:40Z</time>
      </trkpt>
      <trkpt lat="43.68035" lon="7.23152">
        <ele>1.1</ele>
        <time>2013-05-31T16:29:02Z</time>
      </trkpt>
      <trkpt lat="43.68035" lon="7.23151">
        <ele>1.1</ele>
        <time>2013-05-31T16:29:03Z</time>
      </trkpt>
      <trkpt lat="43.68029" lon="7.23184">
        <ele>-0.82</ele>
        <time>2013-05-31T16:29:49Z</time>
      </trkpt>
      <trkpt lat="43.68026" lon="7.23184">
        <ele>-0.34</ele>
        <time>2013-05-31T16:32:14Z</time>
      </trkpt>
      <trkpt lat="43.68026" lon="7.23181">
        <ele>-1.3</ele>
        <time>2013-05-31T16:33:45Z</time>
      </trkpt>
      <trkpt lat="43.68024" lon="7.2319">
        <ele>-1.3</ele>
        <time>2013-05-31T16:35:35Z</time>
      </trkpt>
      <trkpt lat="43.68028" lon="7.23178">
        <ele>-1.79</ele>
        <time>2013-05-31T16:36:03Z</time>
      </trkpt>
      <trkpt lat="43.68028" lon="7.23167">
        <ele>-0.82</ele>
        <time>2013-05-31T16:44:46Z</time>
      </trkpt>
      <trkpt lat="43.68037" lon="7.23131">
        <ele>2.06</ele>
        <time>2013-05-31T16:45:28Z</time>
      </trkpt>
      <trkpt lat="43.68068" lon="7.23157">
        <ele>2.06</ele>
        <time>2013-05-31T16:45:43Z</time>
      </trkpt>
      <trkpt lat="43.68117" lon="7.23203">
        <ele>2.06</ele>
        <time>2013-05-31T16:46:44Z</time>
      </trkpt>
      <trkpt lat="43.68118" lon="7.23203">
        <ele>3.02</ele>
        <time>2013-05-31T16:47:08Z</time>
      </trkpt>
      <trkpt lat="43.68117" lon="7.2317">
        <ele>1.58</ele>
        <time>2013-05-31T16:47:31Z</time>
      </trkpt>
      <trkpt lat="43.68121" lon="7.23164">
        <ele>2.06</ele>
        <time>2013-05-31T16:48:50Z</time>
      </trkpt>
      <trkpt lat="43.68121" lon="7.23147">
        <ele>1.58</ele>
        <time>2013-05-31T16:49:05Z</time>
      </trkpt>
      <trkpt lat="43.6815" lon="7.2318">
        <ele>2.06</ele>
        <time>2013-05-31T16:49:28Z</time>
      </trkpt>
      <trkpt lat="43.68217" lon="7.23257">
        <ele>1.1</ele>
        <time>2013-05-31T16:50:00Z</time>
      </trkpt>
      <trkpt lat="43.68383" lon="7.23433">
        <ele>1.1</ele>
        <time>2013-05-31T16:51:14Z</time>
      </trkpt>
      <trkpt lat="43.68507" lon="7.23573">
        <ele>0.62</ele>
        <time>2013-05-31T16:52:08Z</time>
      </trkpt>
      <trkpt lat="43.68537" lon="7.2355">
        <ele>1.1</ele>
        <time>2013-05-31T16:52:24Z</time>
      </trkpt>
      <trkpt lat="43.68551" lon="7.23559">
        <ele>1.1</ele>
        <time>2013-05-31T16:52:38Z</time>
      </trkpt>
      <trkpt lat="43.68563" lon="7.23533">
        <ele>1.58</ele>
        <time>2013-05-31T16:52:55Z</time>
      </trkpt>
      <trkpt lat="43.6857" lon="7.23536">
        <ele>1.58</ele>
        <time>2013-05-31T16:53:41Z</time>
      </trkpt>
      <trkpt lat="43.68569" lon="7.23535">
        <ele>1.1</ele>
        <time>2013-05-31T16:54:25Z</time>
      </trkpt>
      <trkpt lat="43.68524" lon="7.23492">
        <ele>1.58</ele>
        <time>2013-05-31T16:54:43Z</time>
      </trkpt>
      <trkpt lat="43.68441" lon="7.23401">
        <ele>1.1</ele>
        <time>2013-05-31T16:55:26Z</time>
      </trkpt>
      <trkpt lat="43.68424" lon="7.23398">
        <ele>2.06</ele>
        <time>2013-05-31T16:56:28Z</time>
      </trkpt>
      <trkpt lat="43.68435" lon="7.2339">
        <ele>1.58</ele>
        <time>2013-05-31T16:57:06Z</time>
      </trkpt>
      <trkpt lat="43.68439" lon="7.23392">
        <ele>2.06</ele>
        <time>2013-05-31T16:57:51Z</time>
      </trkpt>
      <trkpt lat="43.68407" lon="7.23382">
        <ele>2.06</ele>
        <time>2013-05-31T16:58:06Z</time>
      </trkpt>
      <trkpt lat="43.68366" lon="7.2334">
        <ele>2.06</ele>
        <time>2013-05-31T16:58:20Z</time>
      </trkpt>
      <trkpt lat="43.68327" lon="7.23302">
        <ele>2.06</ele>
        <time>2013-05-31T16:58:28Z</time>
      </trkpt>
      <trkpt lat="43.68278" lon="7.23232">
        <ele>2.06</ele>
        <time>2013-05-31T16:58:42Z</time>
      </trkpt>
      <trkpt lat="43.68265" lon="7.23214">
        <ele>3.02</ele>
        <time>2013-05-31T16:58:46Z</time>
      </trkpt>
      <trkpt lat="43.68163" lon="7.23125">
        <ele>3.02</ele>
        <time>2013-05-31T16:59:15Z</time>
      </trkpt>
      <trkpt lat="43.68131" lon="7.231">
        <ele>3.02</ele>
        <time>2013-05-31T16:59:36Z</time>
      </trkpt>
      <trkpt lat="43.68099" lon="7.2306">
        <ele>2.54</ele>
        <time>2013-05-31T16:59:51Z</time>
      </trkpt>
      <trkpt lat="43.68069" lon="7.23032">
        <ele>2.54</ele>
        <time>2013-05-31T17:00:07Z</time>
      </trkpt>
      <trkpt lat="43.67979" lon="7.22971">
        <ele>3.98</ele>
        <time>2013-05-31T17:00:33Z</time>
      </trkpt>
      <trkpt lat="43.67854" lon="7.22895">
        <ele>1.58</ele>
        <time>2013-05-31T17:01:04Z</time>
      </trkpt>
      <trkpt lat="43.67883" lon="7.2291">
        <ele>1.58</ele>
        <time>2013-05-31T17:01:17Z</time>
      </trkpt>
      <trkpt lat="43.67893" lon="7.22918">
        <ele>1.58</ele>
        <time>2013-05-31T17:01:35Z</time>
      </trkpt>
      <trkpt lat="43.67906" lon="7.22926">
        <ele>1.58</ele>
        <time>2013-05-31T17:02:08Z</time>
      </trkpt>
      <trkpt lat="43.67907" lon="7.22957">
        <ele>1.58</ele>
        <time>2013-05-31T17:02:31Z</time>
      </trkpt>
      <trkpt lat="43.67926" lon="7.22968">
        <ele>2.06</ele>
        <time>2013-05-31T17:03:02Z</time>
      </trkpt>
      <trkpt lat="43.67907" lon="7.22952">
        <ele>3.02</ele>
        <time>2013-05-31T17:03:56Z</time>
      </trkpt>
      <trkpt lat="43.67918" lon="7.22953">
        <ele>3.02</ele>
        <time>2013-05-31T17:05:13Z</time>
      </trkpt>
      <trkpt lat="43.67929" lon="7.22959">
        <ele>7.83</ele>
        <time>2013-05-31T17:07:38Z</time>
      </trkpt>
      <trkpt lat="43.67917" lon="7.22955">
        <ele>10.71</ele>
        <time>2013-05-31T17:08:50Z</time>
      </trkpt>
      <trkpt lat="43.67929" lon="7.22959">
        <ele>13.6</ele>
        <time>2013-05-31T17:10:45Z</time>
      </trkpt>
      <trkpt lat="43.67913" lon="7.22961">
        <ele>15.52</ele>
        <time>2013-05-31T17:11:15Z</time>
      </trkpt>
      <trkpt lat="43.67952" lon="7.22985">
        <ele>16</ele>
        <time>2013-05-31T17:11:32Z</time>
      </trkpt>
      <trkpt lat="43.68097" lon="7.23072">
        <ele>16.96</ele>
        <time>2013-05-31T17:12:34Z</time>
      </trkpt>
      <trkpt lat="43.68148" lon="7.23094">
        <ele>17.44</ele>
        <time>2013-05-31T17:12:49Z</time>
      </trkpt>
      <trkpt lat="43.68128" lon="7.2312">
        <ele>16.96</ele>
        <time>2013-05-31T17:13:01Z</time>
      </trkpt>
      <trkpt lat="43.68114" lon="7.23196">
        <ele>16.96</ele>
        <time>2013-05-31T17:13:20Z</time>
      </trkpt>
      <trkpt lat="43.68131" lon="7.23224">
        <ele>16.48</ele>
        <time>2013-05-31T17:14:47Z</time>
      </trkpt>
      <trkpt lat="43.68175" lon="7.23269">
        <ele>16.96</ele>
        <time>2013-05-31T17:15:03Z</time>
      </trkpt>
      <trkpt lat="43.68352" lon="7.23456">
        <ele>16.48</ele>
        <time>2013-05-31T17:15:54Z</time>
      </trkpt>
      <trkpt lat="43.68528" lon="7.23651">
        <ele>16</ele>
        <time>2013-05-31T17:16:42Z</time>
      </trkpt>
      <trkpt lat="43.68649" lon="7.23794">
        <ele>16</ele>
        <time>2013-05-31T17:17:16Z</time>
      </trkpt>
      <trkpt lat="43.68764" lon="7.23966">
        <ele>15.52</ele>
        <time>2013-05-31T17:17:54Z</time>
      </trkpt>
      <trkpt lat="43.68822" lon="7.24071">
        <ele>16</ele>
        <time>2013-05-31T17:18:15Z</time>
      </trkpt>
      <trkpt lat="43.68884" lon="7.24192">
        <ele>16</ele>
        <time>2013-05-31T17:18:41Z</time>
      </trkpt>
      <trkpt lat="43.68981" lon="7.24374">
        <ele>16.48</ele>
        <time>2013-05-31T17:19:16Z</time>
      </trkpt>
      <trkpt lat="43.69028" lon="7.24493">
        <ele>17.44</ele>
        <time>2013-05-31T17:19:37Z</time>
      </trkpt>
      <trkpt lat="43.69056" lon="7.24575">
        <ele>17.44</ele>
        <time>2013-05-31T17:19:54Z</time>
      </trkpt>
      <trkpt lat="43.69133" lon="7.24798">
        <ele>15.04</ele>
        <time>2013-05-31T17:20:30Z</time>
      </trkpt>
      <trkpt lat="43.6918" lon="7.2494">
        <ele>15.04</ele>
        <time>2013-05-31T17:20:53Z</time>
      </trkpt>
      <trkpt lat="43.693" lon="7.25322">
        <ele>15.52</ele>
        <time>2013-05-31T17:22:00Z</time>
      </trkpt>
      <trkpt lat="43.69349" lon="7.25548">
        <ele>16.96</ele>
        <time>2013-05-31T17:22:46Z</time>
      </trkpt>
      <trkpt lat="43.694" lon="7.25785">
        <ele>14.56</ele>
        <time>2013-05-31T17:23:48Z</time>
      </trkpt>
      <trkpt lat="43.69421" lon="7.2587">
        <ele>14.56</ele>
        <time>2013-05-31T17:24:19Z</time>
      </trkpt>
      <trkpt lat="43.69433" lon="7.25952">
        <ele>14.08</ele>
        <time>2013-05-31T17:24:42Z</time>
      </trkpt>
      <trkpt lat="43.69436" lon="7.25954">
        <ele>13.6</ele>
        <time>2013-05-31T17:25:47Z</time>
      </trkpt>
      <trkpt lat="43.69455" lon="7.25891">
        <ele>14.08</ele>
        <time>2013-05-31T17:26:09Z</time>
      </trkpt>
      <trkpt lat="43.6946" lon="7.25872">
        <ele>13.12</ele>
        <time>2013-05-31T17:26:42Z</time>
      </trkpt>
      <trkpt lat="43.69453" lon="7.25875">
        <ele>12.63</ele>
        <time>2013-05-31T17:27:30Z</time>
      </trkpt>
      <trkpt lat="43.69455" lon="7.25893">
        <ele>11.19</ele>
        <time>2013-05-31T17:29:42Z</time>
      </trkpt>
      <trkpt lat="43.6946" lon="7.25943">
        <ele>10.71</ele>
        <time>2013-05-31T17:30:07Z</time>
      </trkpt>
      <trkpt lat="43.6946" lon="7.25943">
        <ele>10.23</ele>
        <time>2013-05-31T17:30:15Z</time>
      </trkpt>
      <trkpt lat="43.6944" lon="7.25992">
        <ele>11.19</ele>
        <time>2013-05-31T17:30:36Z</time>
      </trkpt>
      <trkpt lat="43.69464" lon="7.26195">
        <ele>10.71</ele>
        <time>2013-05-31T17:31:12Z</time>
      </trkpt>
      <trkpt lat="43.69469" lon="7.26281">
        <ele>10.71</ele>
        <time>2013-05-31T17:31:27Z</time>
      </trkpt>
      <trkpt lat="43.69475" lon="7.26349">
        <ele>11.19</ele>
        <time>2013-05-31T17:31:38Z</time>
      </trkpt>
      <trkpt lat="43.69477" lon="7.26402">
        <ele>10.71</ele>
        <time>2013-05-31T17:31:47Z</time>
      </trkpt>
      <trkpt lat="43.69488" lon="7.26721">
        <ele>11.67</ele>
        <time>2013-05-31T17:32:46Z</time>
      </trkpt>
      <trkpt lat="43.69492" lon="7.2681">
        <ele>11.19</ele>
        <time>2013-05-31T17:34:55Z</time>
      </trkpt>
      <trkpt lat="43.69495" lon="7.26885">
        <ele>11.19</ele>
        <time>2013-05-31T17:35:12Z</time>
      </trkpt>
      <trkpt lat="43.69503" lon="7.26915">
        <ele>10.23</ele>
        <time>2013-05-31T17:35:58Z</time>
      </trkpt>
      <trkpt lat="43.69524" lon="7.26913">
        <ele>10.71</ele>
        <time>2013-05-31T17:36:15Z</time>
      </trkpt>
      <trkpt lat="43.69579" lon="7.26914">
        <ele>10.71</ele>
        <time>2013-05-31T17:36:36Z</time>
      </trkpt>
      <trkpt lat="43.69597" lon="7.26925">
        <ele>11.19</ele>
        <time>2013-05-31T17:36:48Z</time>
      </trkpt>
      <trkpt lat="43.69617" lon="7.2697">
        <ele>11.67</ele>
        <time>2013-05-31T17:37:07Z</time>
      </trkpt>
      <trkpt lat="43.6965" lon="7.27024">
        <ele>12.15</ele>
        <time>2013-05-31T17:37:26Z</time>
      </trkpt>
      <trkpt lat="43.69669" lon="7.27071">
        <ele>13.12</ele>
        <time>2013-05-31T17:37:42Z</time>
      </trkpt>
      <trkpt lat="43.69682" lon="7.27108">
        <ele>13.12</ele>
        <time>2013-05-31T17:37:52Z</time>
      </trkpt>
      <trkpt lat="43.6978" lon="7.27441">
        <ele>13.12</ele>
        <time>2013-05-31T17:38:45Z</time>
      </trkpt>
      <trkpt lat="43.69807" lon="7.2752">
        <ele>13.6</ele>
        <time>2013-05-31T17:38:58Z</time>
      </trkpt>
      <trkpt lat="43.69882" lon="7.2761">
        <ele>15.04</ele>
        <time>2013-05-31T17:39:20Z</time>
      </trkpt>
      <trkpt lat="43.69909" lon="7.2772">
        <ele>15.04</ele>
        <time>2013-05-31T17:39:38Z</time>
      </trkpt>
      <trkpt lat="43.6995" lon="7.27765">
        <ele>16</ele>
        <time>2013-05-31T17:39:48Z</time>
      </trkpt>
      <trkpt lat="43.70045" lon="7.27857">
        <ele>16.96</ele>
        <time>2013-05-31T17:40:11Z</time>
      </trkpt>
      <trkpt lat="43.70107" lon="7.27982">
        <ele>16.48</ele>
        <time>2013-05-31T17:40:35Z</time>
      </trkpt>
      <trkpt lat="43.7014" lon="7.28018">
        <ele>15.04</ele>
        <time>2013-05-31T17:41:08Z</time>
      </trkpt>
      <trkpt lat="43.70138" lon="7.28018">
        <ele>15.52</ele>
        <time>2013-05-31T17:41:20Z</time>
      </trkpt>
      <trkpt lat="43.70103" lon="7.28047">
        <ele>15.52</ele>
        <time>2013-05-31T17:41:38Z</time>
      </trkpt>
      <trkpt lat="43.70086" lon="7.28077">
        <ele>15.04</ele>
        <time>2013-05-31T17:41:54Z</time>
      </trkpt>
      <trkpt lat="43.70038" lon="7.28139">
        <ele>12.63</ele>
        <time>2013-05-31T17:42:50Z</time>
      </trkpt>
      <trkpt lat="43.7004" lon="7.28154">
        <ele>13.12</ele>
        <time>2013-05-31T17:43:01Z</time>
      </trkpt>
      <trkpt lat="43.70034" lon="7.28197">
        <ele>12.63</ele>
        <time>2013-05-31T17:43:14Z</time>
      </trkpt>
      <trkpt lat="43.70064" lon="7.28246">
        <ele>12.15</ele>
        <time>2013-05-31T17:43:30Z</time>
      </trkpt>
      <trkpt lat="43.70087" lon="7.2828">
        <ele>12.15</ele>
        <time>2013-05-31T17:43:55Z</time>
      </trkpt>
      <trkpt lat="43.70087" lon="7.28286">
        <ele>12.63</ele>
        <time>2013-05-31T17:44:16Z</time>
      </trkpt>
      <trkpt lat="43.70051" lon="7.28282">
        <ele>12.15</ele>
        <time>2013-05-31T17:44:32Z</time>
      </trkpt>
      <trkpt lat="43.70045" lon="7.28258">
        <ele>12.15</ele>
        <time>2013-05-31T17:45:06Z</time>
      </trkpt>
      <trkpt lat="43.70046" lon="7.2829">
        <ele>12.63</ele>
        <time>2013-05-31T17:45:37Z</time>
      </trkpt>
      <trkpt lat="43.70038" lon="7.2832">
        <ele>12.15</ele>
        <time>2013-05-31T17:46:24Z</time>
      </trkpt>
      <trkpt lat="43.70071" lon="7.28287">
        <ele>12.63</ele>
        <time>2013-05-31T17:47:17Z</time>
      </trkpt>
      <trkpt lat="43.70071" lon="7.28287">
        <ele>13.12</ele>
        <time>2013-05-31T17:48:01Z</time>
      </trkpt>
    </trkseg>
  </trk>
</gpx>